<?xml version='1.0' encoding='UTF-8'?><gpx version="1.1" creator="JPX - https://github.com/jenetics/jpx" xmlns="http://www.topografix.com/GPX/1/1"><trk><trkseg><trkpt lat="45.8953423224998" lon="8.666477573409207"><ele>247.0</ele><time>2026-05-01T06:16:58.999Z</time></trkpt><trkpt lat="45.89535162723784" lon="8.666347266769948"><ele>247.0</ele><time>2026-05-01T06:17:01.999Z</time></trkpt><trkpt lat="45.8952721875865" lon="8.66628681056201"><ele>247.0</ele><time>2026-05-01T06:17:10.998Z</time></trkpt><trkpt lat="45.895210807938284" lon="8.666358632963664"><ele>247.0</ele><time>2026-05-01T06:17:12.998Z</time></trkpt><trkpt lat="45.89517293791417" lon="8.666450689337527"><ele>247.0</ele><time>2026-05-01T06:17:13.998Z</time></trkpt><trkpt lat="45.89508090798727" lon="8.666606446106977"><ele>246.2</ele><time>2026-05-01T06:17:15.998Z</time></trkpt><trkpt lat="45.895034120258934" lon="8.666696188737431"><ele>245.39999999999998</ele><time>2026-05-01T06:17:16.998Z</time></trkpt><trkpt lat="45.894984392149944" lon="8.666791571254558"><ele>244.60000000000002</ele><time>2026-05-01T06:17:17.999Z</time></trkpt><trkpt lat="45.89492474429792" lon="8.666908166088437"><ele>243.8</ele><time>2026-05-01T06:17:18.999Z</time></trkpt><trkpt lat="45.89485561134757" lon="8.66705174947647"><ele>243.0</ele><time>2026-05-01T06:17:19.999Z</time></trkpt><trkpt lat="45.8948001859775" lon="8.667177887192729"><ele>243.0</ele><time>2026-05-01T06:17:20.999Z</time></trkpt><trkpt lat="45.89474259282671" lon="8.667293755583875"><ele>243.0</ele><time>2026-05-01T06:17:21.999Z</time></trkpt><trkpt lat="45.89469463495305" lon="8.667421543177827"><ele>243.0</ele><time>2026-05-01T06:17:22.999Z</time></trkpt><trkpt lat="45.894657373160655" lon="8.66756552256737"><ele>243.0</ele><time>2026-05-01T06:17:23.999Z</time></trkpt><trkpt lat="45.894630192618415" lon="8.667733270217886"><ele>243.0</ele><time>2026-05-01T06:17:24.999Z</time></trkpt><trkpt lat="45.8945927254278" lon="8.667902743026646"><ele>243.75</ele><time>2026-05-01T06:17:25.999Z</time></trkpt><trkpt lat="45.89455522650714" lon="8.668078082118164"><ele>244.5</ele><time>2026-05-01T06:17:26.999Z</time></trkpt><trkpt lat="45.89450586976508" lon="8.668247463128795"><ele>245.25</ele><time>2026-05-01T06:17:27.999Z</time></trkpt><trkpt lat="45.8944661150424" lon="8.668430418472074"><ele>246.0</ele><time>2026-05-01T06:17:28.999Z</time></trkpt><trkpt lat="45.89442212575863" lon="8.668609948626225"><ele>246.0</ele><time>2026-05-01T06:17:29.999Z</time></trkpt><trkpt lat="45.89438121326544" lon="8.6687847940369"><ele>246.00000000000003</ele><time>2026-05-01T06:17:30.999Z</time></trkpt><trkpt lat="45.894347422331336" lon="8.668951699351977"><ele>246.00000000000003</ele><time>2026-05-01T06:17:31.999Z</time></trkpt><trkpt lat="45.894305828914774" lon="8.669083082712795"><ele>246.0</ele><time>2026-05-01T06:17:32.999Z</time></trkpt><trkpt lat="45.894266155751666" lon="8.669206950588865"><ele>246.0</ele><time>2026-05-01T06:17:33.999Z</time></trkpt><trkpt lat="45.89422006164936" lon="8.669305888135973"><ele>246.0</ele><time>2026-05-01T06:17:34.999Z</time></trkpt><trkpt lat="45.89415517738962" lon="8.669385562946054"><ele>246.00000000000003</ele><time>2026-05-01T06:17:35.999Z</time></trkpt><trkpt lat="45.89406882563019" lon="8.669449009636367"><ele>246.00000000000003</ele><time>2026-05-01T06:17:36.999Z</time></trkpt><trkpt lat="45.89397049991739" lon="8.669488461748685"><ele>246.0</ele><time>2026-05-01T06:17:37.999Z</time></trkpt><trkpt lat="45.89385942631522" lon="8.669508764046261"><ele>246.0</ele><time>2026-05-01T06:17:38.999Z</time></trkpt><trkpt lat="45.89374172091313" lon="8.669530928242818"><ele>245.75</ele><time>2026-05-01T06:17:39.999Z</time></trkpt><trkpt lat="45.89361669707693" lon="8.66955144182523"><ele>245.5</ele><time>2026-05-01T06:17:40.999Z</time></trkpt><trkpt lat="45.89349262194515" lon="8.669576574721221"><ele>245.25</ele><time>2026-05-01T06:17:41.999Z</time></trkpt><trkpt lat="45.89336437816968" lon="8.669608970419572"><ele>245.0</ele><time>2026-05-01T06:17:42.999Z</time></trkpt><trkpt lat="45.893234278932105" lon="8.669632849569087"><ele>245.0</ele><time>2026-05-01T06:17:43.999Z</time></trkpt><trkpt lat="45.89308950577746" lon="8.669649964580668"><ele>245.0</ele><time>2026-05-01T06:17:44.999Z</time></trkpt><trkpt lat="45.89296570189208" lon="8.669679417811185"><ele>245.0</ele><time>2026-05-01T06:17:45.999Z</time></trkpt><trkpt lat="45.89282705004152" lon="8.669704134443192"><ele>245.0</ele><time>2026-05-01T06:17:46.999Z</time></trkpt><trkpt lat="45.892679979177906" lon="8.669725246290396"><ele>245.0</ele><time>2026-05-01T06:17:47.999Z</time></trkpt><trkpt lat="45.89252980280957" lon="8.669755877682368"><ele>245.0</ele><time>2026-05-01T06:17:48.999Z</time></trkpt><trkpt lat="45.89237824626543" lon="8.66978605664621"><ele>245.0</ele><time>2026-05-01T06:17:49.999Z</time></trkpt><trkpt lat="45.89223131268075" lon="8.669809391554644"><ele>245.0</ele><time>2026-05-01T06:17:50.999Z</time></trkpt><trkpt lat="45.89207977056544" lon="8.669835863868913"><ele>245.0</ele><time>2026-05-01T06:17:51.999Z</time></trkpt><trkpt lat="45.89193195730849" lon="8.669862310300914"><ele>245.0</ele><time>2026-05-01T06:17:52.999Z</time></trkpt><trkpt lat="45.89179029324598" lon="8.669889710168924"><ele>245.0</ele><time>2026-05-01T06:17:53.999Z</time></trkpt><trkpt lat="45.89164882122959" lon="8.669914433979299"><ele>245.25</ele><time>2026-05-01T06:17:54.999Z</time></trkpt><trkpt lat="45.89151906315718" lon="8.669928760102769"><ele>245.5</ele><time>2026-05-01T06:17:55.999Z</time></trkpt><trkpt lat="45.89140270832454" lon="8.66995631296342"><ele>245.75</ele><time>2026-05-01T06:17:56.999Z</time></trkpt><trkpt lat="45.89129644126909" lon="8.66997838915874"><ele>246.0</ele><time>2026-05-01T06:17:57.999Z</time></trkpt><trkpt lat="45.89119730596264" lon="8.670002889291766"><ele>246.0</ele><time>2026-05-01T06:17:58.999Z</time></trkpt><trkpt lat="45.89110605456101" lon="8.670002205421193"><ele>246.00000000000003</ele><time>2026-05-01T06:17:59.999Z</time></trkpt><trkpt lat="45.891018376508704" lon="8.66996483265845"><ele>246.00000000000003</ele><time>2026-05-01T06:18:00.999Z</time></trkpt><trkpt lat="45.890932487305705" lon="8.669942595187552"><ele>246.0</ele><time>2026-05-01T06:18:01.999Z</time></trkpt><trkpt lat="45.890826476541925" lon="8.669954013908757"><ele>246.0</ele><time>2026-05-01T06:18:02.999Z</time></trkpt><trkpt lat="45.890720773459236" lon="8.670013049275552"><ele>246.75</ele><time>2026-05-01T06:18:03.999Z</time></trkpt><trkpt lat="45.8906234785726" lon="8.670085220229826"><ele>247.5</ele><time>2026-05-01T06:18:04.999Z</time></trkpt><trkpt lat="45.890506210017215" lon="8.670130809287901"><ele>248.25</ele><time>2026-05-01T06:18:05.999Z</time></trkpt><trkpt lat="45.89036560290433" lon="8.670149250485904"><ele>249.0</ele><time>2026-05-01T06:18:06.999Z</time></trkpt><trkpt lat="45.890194105579226" lon="8.670169620350409"><ele>249.0</ele><time>2026-05-01T06:18:07.999Z</time></trkpt><trkpt lat="45.89010207584825" lon="8.670166421156118"><ele>249.0</ele><time>2026-05-01T06:18:08.999Z</time></trkpt><trkpt lat="45.889973332109" lon="8.67019564680028"><ele>249.0</ele><time>2026-05-01T06:18:09.999Z</time></trkpt><trkpt lat="45.88983540232226" lon="8.670219759095591"><ele>249.0</ele><time>2026-05-01T06:18:10.999Z</time></trkpt><trkpt lat="45.88969232028417" lon="8.670235944348496"><ele>249.25</ele><time>2026-05-01T06:18:11.999Z</time></trkpt><trkpt lat="45.88955642459197" lon="8.670266345623293"><ele>249.5</ele><time>2026-05-01T06:18:12.999Z</time></trkpt><trkpt lat="45.88940598122561" lon="8.6702946295561"><ele>249.75</ele><time>2026-05-01T06:18:13.999Z</time></trkpt><trkpt lat="45.88926356121262" lon="8.670322906257411"><ele>250.0</ele><time>2026-05-01T06:18:14.999Z</time></trkpt><trkpt lat="45.88911189017612" lon="8.670348257360416"><ele>250.33333333333331</ele><time>2026-05-01T06:18:15.999Z</time></trkpt><trkpt lat="45.88893655986603" lon="8.670366503909738"><ele>250.66666666666669</ele><time>2026-05-01T06:18:16.999Z</time></trkpt><trkpt lat="45.88868121297263" lon="8.670399974102368"><ele>251.0</ele><time>2026-05-01T06:18:17.999Z</time></trkpt><trkpt lat="45.88844767022395" lon="8.670422078512038"><ele>251.33333333333334</ele><time>2026-05-01T06:18:18.999Z</time></trkpt><trkpt lat="45.888316606568296" lon="8.670471448731858"><ele>251.66666666666669</ele><time>2026-05-01T06:18:20.999Z</time></trkpt><trkpt lat="45.88815538677062" lon="8.670504338570383"><ele>252.0</ele><time>2026-05-01T06:18:21.999Z</time></trkpt><trkpt lat="45.88798700691654" lon="8.670534352347529"><ele>252.0</ele><time>2026-05-01T06:18:22.999Z</time></trkpt><trkpt lat="45.887812456584996" lon="8.670560887496514"><ele>252.0</ele><time>2026-05-01T06:18:23.999Z</time></trkpt><trkpt lat="45.88764121971133" lon="8.670587484387273"><ele>252.0</ele><time>2026-05-01T06:18:24.999Z</time></trkpt><trkpt lat="45.887465156260795" lon="8.670622083555056"><ele>251.66666666666669</ele><time>2026-05-01T06:18:25.999Z</time></trkpt><trkpt lat="45.88728865445776" lon="8.670655018745949"><ele>251.33333333333334</ele><time>2026-05-01T06:18:26.999Z</time></trkpt><trkpt lat="45.887124122726576" lon="8.670681894500252"><ele>251.0</ele><time>2026-05-01T06:18:27.999Z</time></trkpt><trkpt lat="45.88695544330518" lon="8.67071478386774"><ele>251.0</ele><time>2026-05-01T06:18:28.999Z</time></trkpt><trkpt lat="45.88678242718075" lon="8.670742509679846"><ele>251.0</ele><time>2026-05-01T06:18:29.999Z</time></trkpt><trkpt lat="45.88661498381894" lon="8.670766102159195"><ele>251.0</ele><time>2026-05-01T06:18:30.999Z</time></trkpt><trkpt lat="45.88643632054024" lon="8.670796455141637"><ele>252.33333333333334</ele><time>2026-05-01T06:18:31.999Z</time></trkpt><trkpt lat="45.88626297665842" lon="8.670827383373636"><ele>253.66666666666669</ele><time>2026-05-01T06:18:32.999Z</time></trkpt><trkpt lat="45.88608872720779" lon="8.670850434947791"><ele>255.0</ele><time>2026-05-01T06:18:33.999Z</time></trkpt><trkpt lat="45.88591261738175" lon="8.670885331991473"><ele>255.66666666666669</ele><time>2026-05-01T06:18:34.999Z</time></trkpt><trkpt lat="45.88573407039097" lon="8.67091354082577"><ele>256.33333333333337</ele><time>2026-05-01T06:18:35.999Z</time></trkpt><trkpt lat="45.885560051566166" lon="8.670944409964942"><ele>257.0</ele><time>2026-05-01T06:18:36.999Z</time></trkpt><trkpt lat="45.8853787719168" lon="8.670975721011427"><ele>257.0</ele><time>2026-05-01T06:18:37.999Z</time></trkpt><trkpt lat="45.88520287428754" lon="8.671012354536025"><ele>257.0</ele><time>2026-05-01T06:18:38.999Z</time></trkpt><trkpt lat="45.88501898148159" lon="8.671042008293409"><ele>257.0</ele><time>2026-05-01T06:18:39.999Z</time></trkpt><trkpt lat="45.88483783526698" lon="8.671074488902223"><ele>259.0</ele><time>2026-05-01T06:18:40.999Z</time></trkpt><trkpt lat="45.88465666250877" lon="8.671111172629312"><ele>261.0</ele><time>2026-05-01T06:18:41.999Z</time></trkpt><trkpt lat="45.884473181735785" lon="8.67114067421916"><ele>263.0</ele><time>2026-05-01T06:18:42.999Z</time></trkpt><trkpt lat="45.884288520585706" lon="8.671170485241234"><ele>263.0</ele><time>2026-05-01T06:18:43.999Z</time></trkpt><trkpt lat="45.88412172041397" lon="8.671186347443895"><ele>263.0</ele><time>2026-05-01T06:18:44.999Z</time></trkpt><trkpt lat="45.883981371487764" lon="8.67122189094019"><ele>263.0</ele><time>2026-05-01T06:18:45.999Z</time></trkpt><trkpt lat="45.8837664455551" lon="8.67126494993958"><ele>263.0</ele><time>2026-05-01T06:18:46.999Z</time></trkpt><trkpt lat="45.88355944435402" lon="8.671272637957673"><ele>263.0</ele><time>2026-05-01T06:18:47.999Z</time></trkpt><trkpt lat="45.88341876050789" lon="8.671283954337925"><ele>263.0</ele><time>2026-05-01T06:18:48.999Z</time></trkpt><trkpt lat="45.88326201861077" lon="8.671295626169771"><ele>263.0</ele><time>2026-05-01T06:18:49.999Z</time></trkpt><trkpt lat="45.88309135442214" lon="8.671283830057384"><ele>263.0</ele><time>2026-05-01T06:18:50.999Z</time></trkpt><trkpt lat="45.88291325577877" lon="8.671250086509003"><ele>263.0</ele><time>2026-05-01T06:18:51.999Z</time></trkpt><trkpt lat="45.882738398499" lon="8.671222470102586"><ele>261.6666666666667</ele><time>2026-05-01T06:18:52.999Z</time></trkpt><trkpt lat="45.88256213325872" lon="8.671182746737276"><ele>260.3333333333333</ele><time>2026-05-01T06:18:53.999Z</time></trkpt><trkpt lat="45.882390406407076" lon="8.671157303175713"><ele>259.0</ele><time>2026-05-01T06:18:54.999Z</time></trkpt><trkpt lat="45.882229189027875" lon="8.671136667078981"><ele>259.0</ele><time>2026-05-01T06:18:55.999Z</time></trkpt><trkpt lat="45.8820741546674" lon="8.671122956171041"><ele>259.0</ele><time>2026-05-01T06:18:56.999Z</time></trkpt><trkpt lat="45.88193809066914" lon="8.671141539779535"><ele>259.0</ele><time>2026-05-01T06:18:57.999Z</time></trkpt><trkpt lat="45.88181525569779" lon="8.671193160940282"><ele>259.0</ele><time>2026-05-01T06:18:58.999Z</time></trkpt><trkpt lat="45.88170954480507" lon="8.671260690459956"><ele>259.0</ele><time>2026-05-01T06:18:59.999Z</time></trkpt><trkpt lat="45.881618954679816" lon="8.671303958030174"><ele>259.0</ele><time>2026-05-01T06:19:00.999Z</time></trkpt><trkpt lat="45.881533953924496" lon="8.671291022775442"><ele>259.0</ele><time>2026-05-01T06:19:01.999Z</time></trkpt><trkpt lat="45.88145729920585" lon="8.671288293063787"><ele>259.0</ele><time>2026-05-01T06:19:02.999Z</time></trkpt><trkpt lat="45.88139198714297" lon="8.671344212615628"><ele>259.0</ele><time>2026-05-01T06:19:03.999Z</time></trkpt><trkpt lat="45.88134115078127" lon="8.671444958601668"><ele>259.0</ele><time>2026-05-01T06:19:04.999Z</time></trkpt><trkpt lat="45.88133127818697" lon="8.671582926963266"><ele>259.0</ele><time>2026-05-01T06:19:05.999Z</time></trkpt><trkpt lat="45.881237796874494" lon="8.671691203030806"><ele>259.0</ele><time>2026-05-01T06:19:06.999Z</time></trkpt><trkpt lat="45.88115392309173" lon="8.671807496755424"><ele>259.0</ele><time>2026-05-01T06:19:07.999Z</time></trkpt><trkpt lat="45.88104878160856" lon="8.671897083525211"><ele>259.0</ele><time>2026-05-01T06:19:08.999Z</time></trkpt><trkpt lat="45.88093357441065" lon="8.671957206143782"><ele>261.0</ele><time>2026-05-01T06:19:09.999Z</time></trkpt><trkpt lat="45.880795902292796" lon="8.671995463379996"><ele>263.0</ele><time>2026-05-01T06:19:10.999Z</time></trkpt><trkpt lat="45.880632057933724" lon="8.672057912463359"><ele>265.0</ele><time>2026-05-01T06:19:11.999Z</time></trkpt><trkpt lat="45.880485933861266" lon="8.672119175845715"><ele>265.0</ele><time>2026-05-01T06:19:12.999Z</time></trkpt><trkpt lat="45.88034562011904" lon="8.672178582214366"><ele>265.0</ele><time>2026-05-01T06:19:13.999Z</time></trkpt><trkpt lat="45.8802057765501" lon="8.672235639920482"><ele>265.0</ele><time>2026-05-01T06:19:14.999Z</time></trkpt><trkpt lat="45.88005485170014" lon="8.672298578819388"><ele>265.0</ele><time>2026-05-01T06:19:15.999Z</time></trkpt><trkpt lat="45.879899551705364" lon="8.672374105827638"><ele>265.0</ele><time>2026-05-01T06:19:16.999Z</time></trkpt><trkpt lat="45.87968110170279" lon="8.672451273685024"><ele>265.0</ele><time>2026-05-01T06:19:17.999Z</time></trkpt><trkpt lat="45.87941835129138" lon="8.67253439869089"><ele>265.0</ele><time>2026-05-01T06:19:18.999Z</time></trkpt><trkpt lat="45.87921756588473" lon="8.672577164012493"><ele>265.0</ele><time>2026-05-01T06:19:19.999Z</time></trkpt><trkpt lat="45.879281091123794" lon="8.672639704802851"><ele>265.0</ele><time>2026-05-01T06:19:20.999Z</time></trkpt><trkpt lat="45.87911873882255" lon="8.672711223430609"><ele>267.0</ele><time>2026-05-01T06:19:21.999Z</time></trkpt><trkpt lat="45.87895267016775" lon="8.672779962897744"><ele>269.0</ele><time>2026-05-01T06:19:22.999Z</time></trkpt><trkpt lat="45.878783146208896" lon="8.672851719789154"><ele>271.0</ele><time>2026-05-01T06:19:23.999Z</time></trkpt><trkpt lat="45.878611394321055" lon="8.67293307446052"><ele>271.0</ele><time>2026-05-01T06:19:24.999Z</time></trkpt><trkpt lat="45.878435970953966" lon="8.673012025851234"><ele>271.0</ele><time>2026-05-01T06:19:25.999Z</time></trkpt><trkpt lat="45.87825825963201" lon="8.673082580639603"><ele>271.0</ele><time>2026-05-01T06:19:26.999Z</time></trkpt><trkpt lat="45.8780818593852" lon="8.673144033457111"><ele>271.0</ele><time>2026-05-01T06:19:27.999Z</time></trkpt><trkpt lat="45.8779161148586" lon="8.673237325122686"><ele>271.0</ele><time>2026-05-01T06:19:28.999Z</time></trkpt><trkpt lat="45.877749488579624" lon="8.673313275522753"><ele>271.0</ele><time>2026-05-01T06:19:29.999Z</time></trkpt><trkpt lat="45.87757559331004" lon="8.673387523531257"><ele>270.66666666666663</ele><time>2026-05-01T06:19:30.999Z</time></trkpt><trkpt lat="45.87739751286038" lon="8.673458994909868"><ele>270.3333333333333</ele><time>2026-05-01T06:19:31.999Z</time></trkpt><trkpt lat="45.87722065338706" lon="8.67350826978932"><ele>270.0</ele><time>2026-05-01T06:19:32.999Z</time></trkpt><trkpt lat="45.8770304070743" lon="8.673546557511184"><ele>270.0</ele><time>2026-05-01T06:19:33.999Z</time></trkpt><trkpt lat="45.87685298607959" lon="8.673571725693009"><ele>270.0</ele><time>2026-05-01T06:19:34.999Z</time></trkpt><trkpt lat="45.87666665509388" lon="8.673599430026664"><ele>270.0</ele><time>2026-05-01T06:19:36Z</time></trkpt><trkpt lat="45.876487615502704" lon="8.673629542947012"><ele>268.3333333333333</ele><time>2026-05-01T06:19:37Z</time></trkpt><trkpt lat="45.87630402716759" lon="8.673664016515156"><ele>266.66666666666663</ele><time>2026-05-01T06:19:38Z</time></trkpt><trkpt lat="45.876128826934185" lon="8.673683490857323"><ele>265.0</ele><time>2026-05-01T06:19:39Z</time></trkpt><trkpt lat="45.87596650100123" lon="8.673721961025167"><ele>263.75</ele><time>2026-05-01T06:19:40Z</time></trkpt><trkpt lat="45.87580999465604" lon="8.673755048264804"><ele>262.5</ele><time>2026-05-01T06:19:41Z</time></trkpt><trkpt lat="45.875673277631876" lon="8.673796833673933"><ele>261.25</ele><time>2026-05-01T06:19:42Z</time></trkpt><trkpt lat="45.87554193925593" lon="8.673831815001858"><ele>260.0</ele><time>2026-05-01T06:19:43Z</time></trkpt><trkpt lat="45.87543829059651" lon="8.673875137407435"><ele>260.0</ele><time>2026-05-01T06:19:44Z</time></trkpt><trkpt lat="45.875335141173906" lon="8.673924125161788"><ele>260.0</ele><time>2026-05-01T06:19:45Z</time></trkpt><trkpt lat="45.87524179017385" lon="8.673961723418728"><ele>260.0</ele><time>2026-05-01T06:19:46Z</time></trkpt><trkpt lat="45.8751772904162" lon="8.67399677687944"><ele>260.0</ele><time>2026-05-01T06:19:47Z</time></trkpt><trkpt lat="45.87509070729689" lon="8.6740620645742"><ele>260.0</ele><time>2026-05-01T06:19:49Z</time></trkpt><trkpt lat="45.87498703911599" lon="8.674123175319624"><ele>259.5</ele><time>2026-05-01T06:19:51Z</time></trkpt><trkpt lat="45.87487492273171" lon="8.67420827551671"><ele>259.0</ele><time>2026-05-01T06:19:53Z</time></trkpt><trkpt lat="45.87481667866964" lon="8.674255402563274"><ele>258.5</ele><time>2026-05-01T06:19:54Z</time></trkpt><trkpt lat="45.87475958050774" lon="8.674306397140434"><ele>258.0</ele><time>2026-05-01T06:19:55Z</time></trkpt><trkpt lat="45.874697895373195" lon="8.674355331206252"><ele>257.5</ele><time>2026-05-01T06:19:56Z</time></trkpt><trkpt lat="45.874631698492294" lon="8.674391051038596"><ele>257.0</ele><time>2026-05-01T06:19:57Z</time></trkpt><trkpt lat="45.87455452998575" lon="8.674408109509276"><ele>257.0</ele><time>2026-05-01T06:19:58Z</time></trkpt><trkpt lat="45.87446762845468" lon="8.674401098265747"><ele>257.0</ele><time>2026-05-01T06:19:59Z</time></trkpt><trkpt lat="45.874376653431156" lon="8.674368996139089"><ele>257.0</ele><time>2026-05-01T06:20:00Z</time></trkpt><trkpt lat="45.87427368770939" lon="8.674316029314026"><ele>257.0</ele><time>2026-05-01T06:20:01Z</time></trkpt><trkpt lat="45.8741818966199" lon="8.674245121518444"><ele>257.0</ele><time>2026-05-01T06:20:02Z</time></trkpt><trkpt lat="45.8740859704888" lon="8.674174204942283"><ele>256.0</ele><time>2026-05-01T06:20:03Z</time></trkpt><trkpt lat="45.87397656506303" lon="8.674112941934466"><ele>255.0</ele><time>2026-05-01T06:20:04Z</time></trkpt><trkpt lat="45.873870998178226" lon="8.674060298400395"><ele>254.0</ele><time>2026-05-01T06:20:05Z</time></trkpt><trkpt lat="45.87376673384919" lon="8.67400407063451"><ele>253.0</ele><time>2026-05-01T06:20:06Z</time></trkpt><trkpt lat="45.87360499266527" lon="8.673907462404593"><ele>253.0</ele><time>2026-05-01T06:20:07Z</time></trkpt><trkpt lat="45.87347217283012" lon="8.67382615256976"><ele>253.0</ele><time>2026-05-01T06:20:08Z</time></trkpt><trkpt lat="45.873318015224434" lon="8.673732010784864"><ele>253.0</ele><time>2026-05-01T06:20:09Z</time></trkpt><trkpt lat="45.8731220874637" lon="8.673612031817198"><ele>251.0</ele><time>2026-05-01T06:20:10Z</time></trkpt><trkpt lat="45.872924792013194" lon="8.673515089183942"><ele>249.0</ele><time>2026-05-01T06:20:11Z</time></trkpt><trkpt lat="45.87277689107939" lon="8.673397477933712"><ele>247.0</ele><time>2026-05-01T06:20:12Z</time></trkpt><trkpt lat="45.872638939040314" lon="8.673311719551325"><ele>246.33333333333331</ele><time>2026-05-01T06:20:12.999Z</time></trkpt><trkpt lat="45.87245362345154" lon="8.67319651747803"><ele>245.66666666666669</ele><time>2026-05-01T06:20:13.999Z</time></trkpt><trkpt lat="45.87224580276676" lon="8.673106723422958"><ele>245.0</ele><time>2026-05-01T06:20:14.999Z</time></trkpt><trkpt lat="45.872039088096884" lon="8.67297650467444"><ele>245.0</ele><time>2026-05-01T06:20:15.999Z</time></trkpt><trkpt lat="45.871837176562344" lon="8.67284554605736"><ele>245.0</ele><time>2026-05-01T06:20:16.999Z</time></trkpt><trkpt lat="45.87165250215254" lon="8.672723866704333"><ele>245.0</ele><time>2026-05-01T06:20:17.999Z</time></trkpt><trkpt lat="45.871490407006156" lon="8.672612803843197"><ele>244.75</ele><time>2026-05-01T06:20:18.999Z</time></trkpt><trkpt lat="45.87134814186404" lon="8.672518689272595"><ele>244.5</ele><time>2026-05-01T06:20:19.999Z</time></trkpt><trkpt lat="45.87122230368423" lon="8.67243359946931"><ele>244.25</ele><time>2026-05-01T06:20:20.999Z</time></trkpt><trkpt lat="45.871124985365626" lon="8.672367108698744"><ele>244.0</ele><time>2026-05-01T06:20:21.999Z</time></trkpt><trkpt lat="45.87105349689554" lon="8.672309089034224"><ele>244.0</ele><time>2026-05-01T06:20:22.999Z</time></trkpt><trkpt lat="45.87099183240458" lon="8.67221580287374"><ele>243.99999999999997</ele><time>2026-05-01T06:20:24.999Z</time></trkpt><trkpt lat="45.87096138825143" lon="8.672114486341428"><ele>243.99999999999997</ele><time>2026-05-01T06:20:26.999Z</time></trkpt><trkpt lat="45.87089402261819" lon="8.671945196215471"><ele>244.0</ele><time>2026-05-01T06:20:28.999Z</time></trkpt><trkpt lat="45.87082053081713" lon="8.6718760004538"><ele>244.0</ele><time>2026-05-01T06:20:29.999Z</time></trkpt><trkpt lat="45.87073478919421" lon="8.67185712788441"><ele>243.66666666666666</ele><time>2026-05-01T06:20:30.999Z</time></trkpt><trkpt lat="45.870657296069474" lon="8.67188679144161"><ele>243.33333333333331</ele><time>2026-05-01T06:20:31.999Z</time></trkpt><trkpt lat="45.870593605848484" lon="8.671969213335368"><ele>243.0</ele><time>2026-05-01T06:20:32.999Z</time></trkpt><trkpt lat="45.870553142977045" lon="8.672081585372673"><ele>242.66666666666669</ele><time>2026-05-01T06:20:33.999Z</time></trkpt><trkpt lat="45.87052759194687" lon="8.672179230119587"><ele>242.33333333333334</ele><time>2026-05-01T06:20:34.999Z</time></trkpt><trkpt lat="45.870572189996444" lon="8.672309963655476"><ele>242.0</ele><time>2026-05-01T06:20:35.999Z</time></trkpt><trkpt lat="45.87060991425984" lon="8.672450415048933"><ele>242.0</ele><time>2026-05-01T06:20:36.999Z</time></trkpt><trkpt lat="45.87066258460884" lon="8.672574900041074"><ele>242.0</ele><time>2026-05-01T06:20:37.999Z</time></trkpt><trkpt lat="45.87059251626659" lon="8.672734529209212"><ele>242.0</ele><time>2026-05-01T06:20:38.999Z</time></trkpt><trkpt lat="45.87055612761201" lon="8.672876022247276"><ele>242.0</ele><time>2026-05-01T06:20:39.999Z</time></trkpt><trkpt lat="45.8705230937689" lon="8.673039822776708"><ele>242.0</ele><time>2026-05-01T06:20:40.999Z</time></trkpt><trkpt lat="45.87046497818072" lon="8.673194039600068"><ele>242.0</ele><time>2026-05-01T06:20:41.999Z</time></trkpt><trkpt lat="45.87038403415978" lon="8.673363928623067"><ele>242.0</ele><time>2026-05-01T06:20:42.999Z</time></trkpt><trkpt lat="45.8702987418147" lon="8.673529716817447"><ele>242.0</ele><time>2026-05-01T06:20:43.999Z</time></trkpt><trkpt lat="45.87019066680562" lon="8.673663742342198"><ele>242.0</ele><time>2026-05-01T06:20:44.999Z</time></trkpt><trkpt lat="45.87007893956027" lon="8.673782116643023"><ele>242.0</ele><time>2026-05-01T06:20:45.999Z</time></trkpt><trkpt lat="45.86995736227016" lon="8.673903263677438"><ele>242.0</ele><time>2026-05-01T06:20:46.999Z</time></trkpt><trkpt lat="45.869811353913086" lon="8.674001639184784"><ele>242.0</ele><time>2026-05-01T06:20:47.999Z</time></trkpt><trkpt lat="45.86966982300773" lon="8.674125630101562"><ele>242.0</ele><time>2026-05-01T06:20:48.999Z</time></trkpt><trkpt lat="45.86950319365558" lon="8.674295026109105"><ele>242.0</ele><time>2026-05-01T06:20:49.999Z</time></trkpt><trkpt lat="45.86940295300346" lon="8.674430873588069"><ele>242.0</ele><time>2026-05-01T06:20:50.999Z</time></trkpt><trkpt lat="45.869273495642794" lon="8.67460209489506"><ele>241.0</ele><time>2026-05-01T06:20:51.999Z</time></trkpt><trkpt lat="45.86915452661603" lon="8.67479297403067"><ele>240.0</ele><time>2026-05-01T06:20:52.999Z</time></trkpt><trkpt lat="45.869042107483324" lon="8.675006114217439"><ele>239.0</ele><time>2026-05-01T06:20:53.999Z</time></trkpt><trkpt lat="45.86892728634602" lon="8.67521953511075"><ele>239.33333333333334</ele><time>2026-05-01T06:20:54.999Z</time></trkpt><trkpt lat="45.86881194704857" lon="8.675442568131146"><ele>239.66666666666669</ele><time>2026-05-01T06:20:55.999Z</time></trkpt><trkpt lat="45.868691852687896" lon="8.675657826148832"><ele>240.0</ele><time>2026-05-01T06:20:56.999Z</time></trkpt><trkpt lat="45.868576524091544" lon="8.675873188768627"><ele>240.0</ele><time>2026-05-01T06:20:57.999Z</time></trkpt><trkpt lat="45.86846402620693" lon="8.676050908441374"><ele>240.0</ele><time>2026-05-01T06:20:58.999Z</time></trkpt><trkpt lat="45.868362589598995" lon="8.67617365648515"><ele>240.0</ele><time>2026-05-01T06:20:59.999Z</time></trkpt><trkpt lat="45.86826352805381" lon="8.67635605956046"><ele>239.5</ele><time>2026-05-01T06:21:00.999Z</time></trkpt><trkpt lat="45.868145822823244" lon="8.67657513205332"><ele>239.0</ele><time>2026-05-01T06:21:01.999Z</time></trkpt><trkpt lat="45.86798757376864" lon="8.676942017269386"><ele>239.66666666666669</ele><time>2026-05-01T06:21:02.999Z</time></trkpt><trkpt lat="45.867844955508644" lon="8.677137894660648"><ele>240.33333333333331</ele><time>2026-05-01T06:21:03.999Z</time></trkpt><trkpt lat="45.86768776794176" lon="8.677325083988926"><ele>241.0</ele><time>2026-05-01T06:21:04.999Z</time></trkpt><trkpt lat="45.867521661642584" lon="8.677501532192151"><ele>241.0</ele><time>2026-05-01T06:21:05.999Z</time></trkpt><trkpt lat="45.86734529353409" lon="8.677635270881384"><ele>241.0</ele><time>2026-05-01T06:21:06.999Z</time></trkpt><trkpt lat="45.86716991242681" lon="8.67776631820907"><ele>241.0</ele><time>2026-05-01T06:21:07.999Z</time></trkpt><trkpt lat="45.866991569462115" lon="8.677886438862858"><ele>243.0</ele><time>2026-05-01T06:21:08.999Z</time></trkpt><trkpt lat="45.86680348366444" lon="8.677988448360734"><ele>245.0</ele><time>2026-05-01T06:21:09.999Z</time></trkpt><trkpt lat="45.86661669700992" lon="8.678068673058036"><ele>247.0</ele><time>2026-05-01T06:21:10.999Z</time></trkpt><trkpt lat="45.86642722587686" lon="8.678132097672304"><ele>247.0</ele><time>2026-05-01T06:21:11.999Z</time></trkpt><trkpt lat="45.86623047833855" lon="8.678180239399712"><ele>247.0</ele><time>2026-05-01T06:21:12.999Z</time></trkpt><trkpt lat="45.86602796537282" lon="8.678210630242118"><ele>247.0</ele><time>2026-05-01T06:21:13.999Z</time></trkpt><trkpt lat="45.865826966770804" lon="8.678227345691884"><ele>247.33333333333331</ele><time>2026-05-01T06:21:14.999Z</time></trkpt><trkpt lat="45.86562324104796" lon="8.678242144332492"><ele>247.66666666666669</ele><time>2026-05-01T06:21:15.999Z</time></trkpt><trkpt lat="45.8654189315007" lon="8.678256985394201"><ele>248.0</ele><time>2026-05-01T06:21:16.999Z</time></trkpt><trkpt lat="45.865216368852856" lon="8.678292027094153"><ele>248.66666666666669</ele><time>2026-05-01T06:21:17.999Z</time></trkpt><trkpt lat="45.8650154347653" lon="8.678297491820866"><ele>249.33333333333331</ele><time>2026-05-01T06:21:18.999Z</time></trkpt><trkpt lat="45.86480911386396" lon="8.678309813785884"><ele>250.0</ele><time>2026-05-01T06:21:19.999Z</time></trkpt><trkpt lat="45.864601402577705" lon="8.67832455212693"><ele>250.0</ele><time>2026-05-01T06:21:20.999Z</time></trkpt><trkpt lat="45.86439709363704" lon="8.678336254999907"><ele>250.0</ele><time>2026-05-01T06:21:21.999Z</time></trkpt><trkpt lat="45.86419216923838" lon="8.678346855654558"><ele>250.0</ele><time>2026-05-01T06:21:22.999Z</time></trkpt><trkpt lat="45.863985324396204" lon="8.678365011699244"><ele>249.66666666666666</ele><time>2026-05-01T06:21:23.999Z</time></trkpt><trkpt lat="45.863769509298486" lon="8.678380406932472"><ele>249.33333333333331</ele><time>2026-05-01T06:21:24.999Z</time></trkpt><trkpt lat="45.8635468089959" lon="8.678403886399778"><ele>249.0</ele><time>2026-05-01T06:21:25.999Z</time></trkpt><trkpt lat="45.86332888978521" lon="8.678430430594862"><ele>250.0</ele><time>2026-05-01T06:21:26.999Z</time></trkpt><trkpt lat="45.86311447791554" lon="8.678463450559104"><ele>251.0</ele><time>2026-05-01T06:21:27.999Z</time></trkpt><trkpt lat="45.86289962010615" lon="8.678514313834352"><ele>252.0</ele><time>2026-05-01T06:21:28.999Z</time></trkpt><trkpt lat="45.86268295348501" lon="8.6785722617955"><ele>252.66666666666669</ele><time>2026-05-01T06:21:30Z</time></trkpt><trkpt lat="45.86246787513563" lon="8.67864145613474"><ele>253.33333333333334</ele><time>2026-05-01T06:21:31Z</time></trkpt><trkpt lat="45.86225592362965" lon="8.678718633786984"><ele>254.0</ele><time>2026-05-01T06:21:32Z</time></trkpt><trkpt lat="45.86204006499657" lon="8.678808760347922"><ele>254.0</ele><time>2026-05-01T06:21:33Z</time></trkpt><trkpt lat="45.86182676000112" lon="8.678906082943401"><ele>254.0</ele><time>2026-05-01T06:21:34Z</time></trkpt><trkpt lat="45.861613357683495" lon="8.679015946110512"><ele>253.0</ele><time>2026-05-01T06:21:35Z</time></trkpt><trkpt lat="45.86140116014584" lon="8.679135339655543"><ele>252.0</ele><time>2026-05-01T06:21:36Z</time></trkpt><trkpt lat="45.86119004146954" lon="8.679257079286081"><ele>252.0</ele><time>2026-05-01T06:21:37Z</time></trkpt><trkpt lat="45.860971164540594" lon="8.679348603253793"><ele>252.0</ele><time>2026-05-01T06:21:38Z</time></trkpt><trkpt lat="45.86075754330188" lon="8.679460235262475"><ele>252.5</ele><time>2026-05-01T06:21:39Z</time></trkpt><trkpt lat="45.860546469288" lon="8.679595297232462"><ele>253.0</ele><time>2026-05-01T06:21:40Z</time></trkpt><trkpt lat="45.86032521450827" lon="8.679689984716523"><ele>252.5</ele><time>2026-05-01T06:21:41Z</time></trkpt><trkpt lat="45.86010977550099" lon="8.67978852928439"><ele>252.0</ele><time>2026-05-01T06:21:42Z</time></trkpt><trkpt lat="45.85989841523746" lon="8.67989509103387"><ele>252.0</ele><time>2026-05-01T06:21:43Z</time></trkpt><trkpt lat="45.85969048414668" lon="8.680003027873285"><ele>252.0</ele><time>2026-05-01T06:21:44Z</time></trkpt><trkpt lat="45.859485875303676" lon="8.680112217238388"><ele>252.0</ele><time>2026-05-01T06:21:45Z</time></trkpt><trkpt lat="45.85927885947365" lon="8.680204104127922"><ele>251.33333333333331</ele><time>2026-05-01T06:21:46Z</time></trkpt><trkpt lat="45.85906660361682" lon="8.6802840032552"><ele>250.66666666666666</ele><time>2026-05-01T06:21:47Z</time></trkpt><trkpt lat="45.858846555991875" lon="8.680329243046343"><ele>250.0</ele><time>2026-05-01T06:21:48Z</time></trkpt><trkpt lat="45.858629228598836" lon="8.680355474464195"><ele>248.66666666666666</ele><time>2026-05-01T06:21:49Z</time></trkpt><trkpt lat="45.85842110609049" lon="8.680384555649937"><ele>247.33333333333331</ele><time>2026-05-01T06:21:50Z</time></trkpt><trkpt lat="45.85821075522157" lon="8.68040145851962"><ele>246.0</ele><time>2026-05-01T06:21:51Z</time></trkpt><trkpt lat="45.8580065201523" lon="8.680428155541584"><ele>246.0</ele><time>2026-05-01T06:21:52Z</time></trkpt><trkpt lat="45.857798429440734" lon="8.680461704532522"><ele>246.0</ele><time>2026-05-01T06:21:53Z</time></trkpt><trkpt lat="45.85759259812917" lon="8.680490838313746"><ele>246.0</ele><time>2026-05-01T06:21:54Z</time></trkpt><trkpt lat="45.85738618930643" lon="8.680512963179906"><ele>247.66666666666669</ele><time>2026-05-01T06:21:55Z</time></trkpt><trkpt lat="45.85718116361463" lon="8.680539956796"><ele>249.33333333333334</ele><time>2026-05-01T06:21:56Z</time></trkpt><trkpt lat="45.85699420616124" lon="8.68057943452236"><ele>251.0</ele><time>2026-05-01T06:21:57Z</time></trkpt><trkpt lat="45.856831848088895" lon="8.680640408510914"><ele>251.5</ele><time>2026-05-01T06:21:58Z</time></trkpt><trkpt lat="45.856720457368716" lon="8.680733124639112"><ele>252.0</ele><time>2026-05-01T06:21:59Z</time></trkpt><trkpt lat="45.85659528339257" lon="8.68081721787752"><ele>252.5</ele><time>2026-05-01T06:22:00Z</time></trkpt><trkpt lat="45.85644646022871" lon="8.680905703116968"><ele>253.0</ele><time>2026-05-01T06:22:01Z</time></trkpt><trkpt lat="45.8563537921296" lon="8.680977296826745"><ele>252.99999999999997</ele><time>2026-05-01T06:22:02Z</time></trkpt><trkpt lat="45.85626671440308" lon="8.681017114120818"><ele>253.0</ele><time>2026-05-01T06:22:03Z</time></trkpt><trkpt lat="45.85617794942504" lon="8.681034793988234"><ele>253.0</ele><time>2026-05-01T06:22:04Z</time></trkpt><trkpt lat="45.85609152735327" lon="8.681062990153722"><ele>253.0</ele><time>2026-05-01T06:22:05Z</time></trkpt><trkpt lat="45.85603966808056" lon="8.681147497970045"><ele>252.99999999999997</ele><time>2026-05-01T06:22:06Z</time></trkpt><trkpt lat="45.856011569291915" lon="8.681272249948913"><ele>253.0</ele><time>2026-05-01T06:22:07Z</time></trkpt><trkpt lat="45.85602237179148" lon="8.68141890660262"><ele>253.0</ele><time>2026-05-01T06:22:08Z</time></trkpt><trkpt lat="45.85596928252276" lon="8.681573597793173"><ele>253.0</ele><time>2026-05-01T06:22:09Z</time></trkpt><trkpt lat="45.85588487346921" lon="8.681700550882525"><ele>253.0</ele><time>2026-05-01T06:22:10Z</time></trkpt><trkpt lat="45.855797529283656" lon="8.681845239174503"><ele>253.0</ele><time>2026-05-01T06:22:11Z</time></trkpt><trkpt lat="45.855723471777395" lon="8.682012780411835"><ele>253.75</ele><time>2026-05-01T06:22:12Z</time></trkpt><trkpt lat="45.855622474111094" lon="8.682163323421642"><ele>254.5</ele><time>2026-05-01T06:22:13Z</time></trkpt><trkpt lat="45.85553680428704" lon="8.682344422482835"><ele>255.25</ele><time>2026-05-01T06:22:14Z</time></trkpt><trkpt lat="45.85546289010792" lon="8.682525847751204"><ele>256.0</ele><time>2026-05-01T06:22:15Z</time></trkpt><trkpt lat="45.855398125385385" lon="8.682719798045378"><ele>254.33333333333331</ele><time>2026-05-01T06:22:16Z</time></trkpt><trkpt lat="45.85534017610134" lon="8.682940896493468"><ele>252.66666666666669</ele><time>2026-05-01T06:22:17Z</time></trkpt><trkpt lat="45.85530374732318" lon="8.683176706095136"><ele>251.0</ele><time>2026-05-01T06:22:18Z</time></trkpt><trkpt lat="45.85527678814787" lon="8.683428309025379"><ele>249.66666666666669</ele><time>2026-05-01T06:22:19Z</time></trkpt><trkpt lat="45.855257190109654" lon="8.683672235591954"><ele>248.33333333333331</ele><time>2026-05-01T06:22:20Z</time></trkpt><trkpt lat="45.85526647761084" lon="8.683925866644271"><ele>247.0</ele><time>2026-05-01T06:22:21Z</time></trkpt><trkpt lat="45.855289869091344" lon="8.68418014739404"><ele>247.0</ele><time>2026-05-01T06:22:22Z</time></trkpt><trkpt lat="45.85533062658555" lon="8.684427682052183"><ele>247.0</ele><time>2026-05-01T06:22:23Z</time></trkpt><trkpt lat="45.85538473484981" lon="8.684676014648387"><ele>247.0</ele><time>2026-05-01T06:22:24Z</time></trkpt><trkpt lat="45.85544197958626" lon="8.684930998584308"><ele>246.75</ele><time>2026-05-01T06:22:25Z</time></trkpt><trkpt lat="45.855492715651074" lon="8.68514071533711"><ele>246.5</ele><time>2026-05-01T06:22:26Z</time></trkpt><trkpt lat="45.85550941877935" lon="8.685299628933615"><ele>246.25</ele><time>2026-05-01T06:22:27Z</time></trkpt><trkpt lat="45.85553536072947" lon="8.685520711952726"><ele>246.0</ele><time>2026-05-01T06:22:28Z</time></trkpt><trkpt lat="45.85564887346756" lon="8.686013594580873"><ele>245.66666666666669</ele><time>2026-05-01T06:22:29Z</time></trkpt><trkpt lat="45.85570696397091" lon="8.686290646894944"><ele>245.33333333333334</ele><time>2026-05-01T06:22:30Z</time></trkpt><trkpt lat="45.85573048485942" lon="8.686566314073183"><ele>245.0</ele><time>2026-05-01T06:22:31Z</time></trkpt><trkpt lat="45.85573613572658" lon="8.68685275030579"><ele>248.33333333333334</ele><time>2026-05-01T06:22:32Z</time></trkpt><trkpt lat="45.85572373596971" lon="8.68713525617358"><ele>251.66666666666669</ele><time>2026-05-01T06:22:33Z</time></trkpt><trkpt lat="45.85569545967326" lon="8.687415578701161"><ele>255.0</ele><time>2026-05-01T06:22:34Z</time></trkpt><trkpt lat="45.85564717300536" lon="8.687688596446792"><ele>255.0</ele><time>2026-05-01T06:22:35Z</time></trkpt><trkpt lat="45.855585626545405" lon="8.687955224604453"><ele>255.0</ele><time>2026-05-01T06:22:36Z</time></trkpt><trkpt lat="45.85550942864841" lon="8.688214354707588"><ele>255.0</ele><time>2026-05-01T06:22:37Z</time></trkpt><trkpt lat="45.85542330445484" lon="8.688477713370036"><ele>254.33333333333331</ele><time>2026-05-01T06:22:38Z</time></trkpt><trkpt lat="45.85533457748579" lon="8.688743809167734"><ele>253.66666666666666</ele><time>2026-05-01T06:22:39Z</time></trkpt><trkpt lat="45.85524709097199" lon="8.689014482246044"><ele>253.0</ele><time>2026-05-01T06:22:40Z</time></trkpt><trkpt lat="45.85515946642738" lon="8.689285581084912"><ele>253.0</ele><time>2026-05-01T06:22:41Z</time></trkpt><trkpt lat="45.855072426880895" lon="8.68955366449923"><ele>253.0</ele><time>2026-05-01T06:22:42Z</time></trkpt><trkpt lat="45.85498406573309" lon="8.689824157634172"><ele>253.0</ele><time>2026-05-01T06:22:43Z</time></trkpt><trkpt lat="45.85489452034302" lon="8.690098276124528"><ele>253.0</ele><time>2026-05-01T06:22:44Z</time></trkpt><trkpt lat="45.854803199457045" lon="8.690375051039437"><ele>253.0</ele><time>2026-05-01T06:22:45Z</time></trkpt><trkpt lat="45.854722413700095" lon="8.690659964162805"><ele>253.0</ele><time>2026-05-01T06:22:46Z</time></trkpt><trkpt lat="45.85462990830733" lon="8.690932431575886"><ele>253.33333333333331</ele><time>2026-05-01T06:22:47Z</time></trkpt><trkpt lat="45.854541810145065" lon="8.691205758421663"><ele>253.66666666666669</ele><time>2026-05-01T06:22:48Z</time></trkpt><trkpt lat="45.85445635863983" lon="8.69147440939802"><ele>254.0</ele><time>2026-05-01T06:22:49Z</time></trkpt><trkpt lat="45.854378492621" lon="8.691741966119398"><ele>254.33333333333334</ele><time>2026-05-01T06:22:50Z</time></trkpt><trkpt lat="45.854325930546786" lon="8.692015644492486"><ele>254.66666666666669</ele><time>2026-05-01T06:22:51Z</time></trkpt><trkpt lat="45.85429831374324" lon="8.692313074170185"><ele>255.0</ele><time>2026-05-01T06:22:52Z</time></trkpt><trkpt lat="45.85428277798762" lon="8.692607218070444"><ele>255.66666666666669</ele><time>2026-05-01T06:22:53Z</time></trkpt><trkpt lat="45.85428881020504" lon="8.692903666692759"><ele>256.33333333333337</ele><time>2026-05-01T06:22:54Z</time></trkpt><trkpt lat="45.85431157530915" lon="8.693197797268603"><ele>257.0</ele><time>2026-05-01T06:22:55Z</time></trkpt><trkpt lat="45.85434662717384" lon="8.693491991388738"><ele>257.0</ele><time>2026-05-01T06:22:56Z</time></trkpt><trkpt lat="45.8543968314587" lon="8.693779714975275"><ele>257.0</ele><time>2026-05-01T06:22:56.999Z</time></trkpt><trkpt lat="45.854450183472274" lon="8.694068596358045"><ele>257.0</ele><time>2026-05-01T06:22:57.999Z</time></trkpt><trkpt lat="45.85450874318821" lon="8.694355736872792"><ele>256.6666666666667</ele><time>2026-05-01T06:22:58.999Z</time></trkpt><trkpt lat="45.85455991714771" lon="8.694647237804315"><ele>256.3333333333333</ele><time>2026-05-01T06:22:59.999Z</time></trkpt><trkpt lat="45.85457138229076" lon="8.694941064385679"><ele>256.0</ele><time>2026-05-01T06:23:00.999Z</time></trkpt><trkpt lat="45.854544692806094" lon="8.69527255804357"><ele>256.0</ele><time>2026-05-01T06:23:01.999Z</time></trkpt><trkpt lat="45.854597467596726" lon="8.695574784975324"><ele>256.0</ele><time>2026-05-01T06:23:02.999Z</time></trkpt><trkpt lat="45.854554603135206" lon="8.695844666416434"><ele>256.0</ele><time>2026-05-01T06:23:03.999Z</time></trkpt><trkpt lat="45.854516815774915" lon="8.696144781049354"><ele>256.0</ele><time>2026-05-01T06:23:04.999Z</time></trkpt><trkpt lat="45.854482073021494" lon="8.696444185879447"><ele>256.0</ele><time>2026-05-01T06:23:05.999Z</time></trkpt><trkpt lat="45.85443722071185" lon="8.696735546729387"><ele>256.0</ele><time>2026-05-01T06:23:06.999Z</time></trkpt><trkpt lat="45.854401788749435" lon="8.697019186070815"><ele>257.66666666666663</ele><time>2026-05-01T06:23:07.999Z</time></trkpt><trkpt lat="45.854366203000936" lon="8.697295327486982"><ele>259.3333333333333</ele><time>2026-05-01T06:23:08.999Z</time></trkpt><trkpt lat="45.854336123941884" lon="8.697553318756913"><ele>261.0</ele><time>2026-05-01T06:23:09.999Z</time></trkpt><trkpt lat="45.854309205723325" lon="8.697781232701866"><ele>260.8</ele><time>2026-05-01T06:23:10.999Z</time></trkpt><trkpt lat="45.85428043609249" lon="8.69799183659802"><ele>260.6</ele><time>2026-05-01T06:23:11.999Z</time></trkpt><trkpt lat="45.85425324060979" lon="8.69816046945905"><ele>260.4</ele><time>2026-05-01T06:23:12.999Z</time></trkpt><trkpt lat="45.85422682135004" lon="8.69829987705315"><ele>260.2</ele><time>2026-05-01T06:23:13.999Z</time></trkpt><trkpt lat="45.85420430464073" lon="8.698396157663815"><ele>260.0</ele><time>2026-05-01T06:23:14.999Z</time></trkpt><trkpt lat="45.854138851536675" lon="8.69849693280118"><ele>261.2</ele><time>2026-05-01T06:23:16.999Z</time></trkpt><trkpt lat="45.854076762249704" lon="8.698604283712815"><ele>262.4</ele><time>2026-05-01T06:23:20.999Z</time></trkpt><trkpt lat="45.85401130117362" lon="8.698744604172228"><ele>263.6</ele><time>2026-05-01T06:23:22.999Z</time></trkpt><trkpt lat="45.853985083080644" lon="8.698857456811737"><ele>264.8</ele><time>2026-05-01T06:23:23.999Z</time></trkpt><trkpt lat="45.85396059480383" lon="8.698977502929704"><ele>266.0</ele><time>2026-05-01T06:23:24.999Z</time></trkpt><trkpt lat="45.85397474230208" lon="8.699095903485587"><ele>266.0</ele><time>2026-05-01T06:23:25.999Z</time></trkpt><trkpt lat="45.85385921015614" lon="8.699228830895771"><ele>266.0</ele><time>2026-05-01T06:23:26.999Z</time></trkpt><trkpt lat="45.85378418977092" lon="8.699309410043181"><ele>266.0</ele><time>2026-05-01T06:23:27.999Z</time></trkpt><trkpt lat="45.85369346702078" lon="8.69942109076833"><ele>266.0</ele><time>2026-05-01T06:23:28.999Z</time></trkpt><trkpt lat="45.85358962008131" lon="8.699542974884523"><ele>267.0</ele><time>2026-05-01T06:23:29.999Z</time></trkpt><trkpt lat="45.8534436336201" lon="8.699634813535486"><ele>268.0</ele><time>2026-05-01T06:23:30.999Z</time></trkpt><trkpt lat="45.85333594561768" lon="8.699687799428974"><ele>269.0</ele><time>2026-05-01T06:23:31.999Z</time></trkpt><trkpt lat="45.853209955443795" lon="8.699742837084889"><ele>270.0</ele><time>2026-05-01T06:23:32.999Z</time></trkpt><trkpt lat="45.853065838461504" lon="8.699754077798083"><ele>270.0</ele><time>2026-05-01T06:23:33.999Z</time></trkpt><trkpt lat="45.85293003264646" lon="8.699719497645322"><ele>270.0</ele><time>2026-05-01T06:23:34.999Z</time></trkpt><trkpt lat="45.852786698673114" lon="8.699720929854356"><ele>270.0</ele><time>2026-05-01T06:23:36.001Z</time></trkpt><trkpt lat="45.85263747006075" lon="8.699690920926049"><ele>270.0</ele><time>2026-05-01T06:23:37.001Z</time></trkpt><trkpt lat="45.85248748991909" lon="8.699682468044363"><ele>268.0</ele><time>2026-05-01T06:23:38.001Z</time></trkpt><trkpt lat="45.852336007216515" lon="8.699674947994783"><ele>266.0</ele><time>2026-05-01T06:23:39.001Z</time></trkpt><trkpt lat="45.85218194629815" lon="8.699667918474118"><ele>264.0</ele><time>2026-05-01T06:23:40.001Z</time></trkpt><trkpt lat="45.85202807869178" lon="8.699659198689627"><ele>264.0</ele><time>2026-05-01T06:23:41.001Z</time></trkpt><trkpt lat="45.85187805579734" lon="8.69965847772584"><ele>264.0</ele><time>2026-05-01T06:23:42.001Z</time></trkpt><trkpt lat="45.85171939873017" lon="8.699670265312728"><ele>264.0</ele><time>2026-05-01T06:23:43.001Z</time></trkpt><trkpt lat="45.85156505058699" lon="8.699693385492568"><ele>264.5</ele><time>2026-05-01T06:23:44.001Z</time></trkpt><trkpt lat="45.85142333110444" lon="8.699712389760906"><ele>265.0</ele><time>2026-05-01T06:23:45.001Z</time></trkpt><trkpt lat="45.85134465379565" lon="8.699722940196471"><ele>265.5</ele><time>2026-05-01T06:23:46.001Z</time></trkpt><trkpt lat="45.85124875611323" lon="8.699909156903878"><ele>266.0</ele><time>2026-05-01T06:23:47.001Z</time></trkpt><trkpt lat="45.85102754906389" lon="8.699984043010852"><ele>264.0</ele><time>2026-05-01T06:23:48.001Z</time></trkpt><trkpt lat="45.85083026824814" lon="8.700009670872282"><ele>262.0</ele><time>2026-05-01T06:23:49.001Z</time></trkpt><trkpt lat="45.8507149898717" lon="8.700019362373897"><ele>260.0</ele><time>2026-05-01T06:23:50.001Z</time></trkpt><trkpt lat="45.85055172993785" lon="8.700002313891215"><ele>260.0</ele><time>2026-05-01T06:23:51.001Z</time></trkpt><trkpt lat="45.85039926877507" lon="8.700007537124376"><ele>260.0</ele><time>2026-05-01T06:23:52.001Z</time></trkpt><trkpt lat="45.85032967393503" lon="8.700089998742385"><ele>260.0</ele><time>2026-05-01T06:23:53.001Z</time></trkpt><trkpt lat="45.85025329890991" lon="8.700171964997827"><ele>260.0</ele><time>2026-05-01T06:23:54.001Z</time></trkpt><trkpt lat="45.84987978585842" lon="8.69990879740158"><ele>259.0</ele><time>2026-05-01T06:23:55.001Z</time></trkpt><trkpt lat="45.84973181549085" lon="8.699892020352886"><ele>258.0</ele><time>2026-05-01T06:23:56Z</time></trkpt><trkpt lat="45.8495811166263" lon="8.699857532626044"><ele>257.0</ele><time>2026-05-01T06:23:57Z</time></trkpt><trkpt lat="45.849437184573056" lon="8.699799747779359"><ele>257.0</ele><time>2026-05-01T06:23:58Z</time></trkpt><trkpt lat="45.84930309637478" lon="8.69970832170604"><ele>257.0</ele><time>2026-05-01T06:23:59Z</time></trkpt><trkpt lat="45.8491705936388" lon="8.699587853494277"><ele>257.0</ele><time>2026-05-01T06:24:00Z</time></trkpt><trkpt lat="45.84905543511196" lon="8.699445814918612"><ele>257.25</ele><time>2026-05-01T06:24:01Z</time></trkpt><trkpt lat="45.8489487740428" lon="8.699295122081866"><ele>257.5</ele><time>2026-05-01T06:24:02Z</time></trkpt><trkpt lat="45.84885487252725" lon="8.699136328957469"><ele>257.75</ele><time>2026-05-01T06:24:03Z</time></trkpt><trkpt lat="45.84875010508584" lon="8.698983165014033"><ele>258.0</ele><time>2026-05-01T06:24:04Z</time></trkpt><trkpt lat="45.84862718462731" lon="8.698840009787009"><ele>258.0</ele><time>2026-05-01T06:24:05Z</time></trkpt><trkpt lat="45.848488585966074" lon="8.698719911358117"><ele>258.0</ele><time>2026-05-01T06:24:06Z</time></trkpt><trkpt lat="45.84832666554092" lon="8.698629102535696"><ele>258.0</ele><time>2026-05-01T06:24:07Z</time></trkpt><trkpt lat="45.84814305400731" lon="8.698551509974665"><ele>259.6666666666667</ele><time>2026-05-01T06:24:08Z</time></trkpt><trkpt lat="45.847958740925066" lon="8.698480791416827"><ele>261.33333333333337</ele><time>2026-05-01T06:24:09Z</time></trkpt><trkpt lat="45.84777261521554" lon="8.698394966008156"><ele>263.0</ele><time>2026-05-01T06:24:10Z</time></trkpt><trkpt lat="45.84759658330709" lon="8.698303461813946"><ele>263.6666666666667</ele><time>2026-05-01T06:24:11Z</time></trkpt><trkpt lat="45.84744800039725" lon="8.69822751786766"><ele>264.3333333333333</ele><time>2026-05-01T06:24:12Z</time></trkpt><trkpt lat="45.84729188156989" lon="8.698160442891194"><ele>265.0</ele><time>2026-05-01T06:24:13Z</time></trkpt><trkpt lat="45.84713899292002" lon="8.698097612794724"><ele>265.0</ele><time>2026-05-01T06:24:14Z</time></trkpt><trkpt lat="45.846986623099966" lon="8.69806943232298"><ele>265.0</ele><time>2026-05-01T06:24:15Z</time></trkpt><trkpt lat="45.846838430980384" lon="8.698065586045209"><ele>265.0</ele><time>2026-05-01T06:24:16Z</time></trkpt><trkpt lat="45.846690628660006" lon="8.698084223015458"><ele>265.25</ele><time>2026-05-01T06:24:17Z</time></trkpt><trkpt lat="45.846555324249444" lon="8.698171168629507"><ele>265.5</ele><time>2026-05-01T06:24:18Z</time></trkpt><trkpt lat="45.84644559557086" lon="8.698232998696023"><ele>265.75</ele><time>2026-05-01T06:24:19Z</time></trkpt><trkpt lat="45.84634357829075" lon="8.698300731625187"><ele>266.0</ele><time>2026-05-01T06:24:20Z</time></trkpt><trkpt lat="45.84625860588537" lon="8.698366020646773"><ele>266.0</ele><time>2026-05-01T06:24:21Z</time></trkpt><trkpt lat="45.84617702332906" lon="8.698432335941403"><ele>266.0</ele><time>2026-05-01T06:24:22Z</time></trkpt><trkpt lat="45.846101410438884" lon="8.698501056787004"><ele>266.0</ele><time>2026-05-01T06:24:23Z</time></trkpt><trkpt lat="45.84603447161834" lon="8.698560641747141"><ele>266.0</ele><time>2026-05-01T06:24:24Z</time></trkpt><trkpt lat="45.84596578827546" lon="8.698585907798444"><ele>266.0</ele><time>2026-05-01T06:24:25Z</time></trkpt><trkpt lat="45.84589148005292" lon="8.698605168224423"><ele>266.0</ele><time>2026-05-01T06:24:26Z</time></trkpt><trkpt lat="45.84581113168303" lon="8.698627932592586"><ele>264.6</ele><time>2026-05-01T06:24:27Z</time></trkpt><trkpt lat="45.845738189322084" lon="8.698703977452466"><ele>263.20000000000005</ele><time>2026-05-01T06:24:28Z</time></trkpt><trkpt lat="45.845703512698826" lon="8.69884003226906"><ele>261.79999999999995</ele><time>2026-05-01T06:24:29Z</time></trkpt><trkpt lat="45.84573547811819" lon="8.699000342155907"><ele>260.4</ele><time>2026-05-01T06:24:30Z</time></trkpt><trkpt lat="45.845703934848586" lon="8.699172791928952"><ele>259.0</ele><time>2026-05-01T06:24:31Z</time></trkpt><trkpt lat="45.84567153075259" lon="8.699341667992792"><ele>260.0</ele><time>2026-05-01T06:24:32Z</time></trkpt><trkpt lat="45.84562085226231" lon="8.699470765819726"><ele>261.0</ele><time>2026-05-01T06:24:33Z</time></trkpt><trkpt lat="45.84557275256348" lon="8.699752634836903"><ele>262.0</ele><time>2026-05-01T06:24:34Z</time></trkpt><trkpt lat="45.84555851475463" lon="8.699963203701742"><ele>262.0</ele><time>2026-05-01T06:24:35Z</time></trkpt><trkpt lat="45.8455641053662" lon="8.700204495277719"><ele>262.0</ele><time>2026-05-01T06:24:36Z</time></trkpt><trkpt lat="45.84557465128116" lon="8.700453416974062"><ele>262.0</ele><time>2026-05-01T06:24:37Z</time></trkpt><trkpt lat="45.84558125788865" lon="8.700711673510321"><ele>261.66666666666663</ele><time>2026-05-01T06:24:38Z</time></trkpt><trkpt lat="45.845578035542765" lon="8.700997223988013"><ele>261.3333333333333</ele><time>2026-05-01T06:24:39Z</time></trkpt><trkpt lat="45.845580538784866" lon="8.701290650189764"><ele>261.0</ele><time>2026-05-01T06:24:40Z</time></trkpt><trkpt lat="45.845583031946326" lon="8.701591610442202"><ele>262.3333333333333</ele><time>2026-05-01T06:24:41Z</time></trkpt><trkpt lat="45.84559945430938" lon="8.701882218273752"><ele>263.66666666666663</ele><time>2026-05-01T06:24:42Z</time></trkpt><trkpt lat="45.845590735564684" lon="8.702184308954845"><ele>265.0</ele><time>2026-05-01T06:24:43Z</time></trkpt><trkpt lat="45.8455738614419" lon="8.702491481851965"><ele>264.66666666666663</ele><time>2026-05-01T06:24:44Z</time></trkpt><trkpt lat="45.84551570035074" lon="8.702789124511193"><ele>264.3333333333333</ele><time>2026-05-01T06:24:45Z</time></trkpt><trkpt lat="45.84544988922572" lon="8.703087717949268"><ele>264.0</ele><time>2026-05-01T06:24:46Z</time></trkpt><trkpt lat="45.8453765430211" lon="8.703391597943368"><ele>262.0</ele><time>2026-05-01T06:24:47Z</time></trkpt><trkpt lat="45.84526709918002" lon="8.703675794925063"><ele>260.0</ele><time>2026-05-01T06:24:48Z</time></trkpt><trkpt lat="45.84512402025412" lon="8.703939886193856"><ele>256.5</ele><time>2026-05-01T06:24:49Z</time></trkpt><trkpt lat="45.84497352124457" lon="8.704189073152769"><ele>253.0</ele><time>2026-05-01T06:24:50Z</time></trkpt><trkpt lat="45.84480410505891" lon="8.704416223457294"><ele>253.0</ele><time>2026-05-01T06:24:51Z</time></trkpt><trkpt lat="45.84462444900439" lon="8.704643363754084"><ele>253.0</ele><time>2026-05-01T06:24:52Z</time></trkpt><trkpt lat="45.84445131657389" lon="8.704880047797307"><ele>252.5</ele><time>2026-05-01T06:24:53Z</time></trkpt><trkpt lat="45.84427016949945" lon="8.705092984482171"><ele>252.0</ele><time>2026-05-01T06:24:54Z</time></trkpt><trkpt lat="45.84409196471185" lon="8.705316767679564"><ele>252.0</ele><time>2026-05-01T06:24:55Z</time></trkpt><trkpt lat="45.843922286253644" lon="8.705533084468243"><ele>252.0</ele><time>2026-05-01T06:24:56Z</time></trkpt><trkpt lat="45.84376527680445" lon="8.705735854411921"><ele>252.0</ele><time>2026-05-01T06:24:57Z</time></trkpt><trkpt lat="45.843618765835444" lon="8.705919626776979"><ele>253.33333333333331</ele><time>2026-05-01T06:24:58Z</time></trkpt><trkpt lat="45.84348076410052" lon="8.706097372665035"><ele>254.66666666666666</ele><time>2026-05-01T06:24:59Z</time></trkpt><trkpt lat="45.84335183790313" lon="8.706253055111283"><ele>256.0</ele><time>2026-05-01T06:25:00Z</time></trkpt><trkpt lat="45.843237429844876" lon="8.706388756066568"><ele>256.0</ele><time>2026-05-01T06:25:01Z</time></trkpt><trkpt lat="45.84313046065227" lon="8.706503035742521"><ele>256.0</ele><time>2026-05-01T06:25:02Z</time></trkpt><trkpt lat="45.843027607426016" lon="8.706584873252721"><ele>256.0</ele><time>2026-05-01T06:25:03Z</time></trkpt><trkpt lat="45.84291363728003" lon="8.7065927724637"><ele>256.0</ele><time>2026-05-01T06:25:04Z</time></trkpt><trkpt lat="45.84283317707224" lon="8.70664651510148"><ele>256.0</ele><time>2026-05-01T06:25:04.999Z</time></trkpt><trkpt lat="45.842779563261786" lon="8.706770923300043"><ele>256.0</ele><time>2026-05-01T06:25:05.999Z</time></trkpt><trkpt lat="45.84275042769586" lon="8.706929672242959"><ele>256.0</ele><time>2026-05-01T06:25:06.999Z</time></trkpt><trkpt lat="45.84267972430791" lon="8.70706712645004"><ele>256.0</ele><time>2026-05-01T06:25:07.999Z</time></trkpt><trkpt lat="45.8425913057755" lon="8.707213536689302"><ele>256.25</ele><time>2026-05-01T06:25:08.999Z</time></trkpt><trkpt lat="45.84248085552936" lon="8.707338725230045"><ele>256.5</ele><time>2026-05-01T06:25:09.999Z</time></trkpt><trkpt lat="45.842366176260256" lon="8.707469041168936"><ele>256.75</ele><time>2026-05-01T06:25:10.999Z</time></trkpt><trkpt lat="45.84224479118597" lon="8.707611439830893"><ele>257.0</ele><time>2026-05-01T06:25:11.999Z</time></trkpt><trkpt lat="45.84211972517574" lon="8.707766163892453"><ele>257.33333333333337</ele><time>2026-05-01T06:25:12.999Z</time></trkpt><trkpt lat="45.842001172846985" lon="8.707924753051934"><ele>257.6666666666667</ele><time>2026-05-01T06:25:13.999Z</time></trkpt><trkpt lat="45.84187768798737" lon="8.708085162504766"><ele>258.0</ele><time>2026-05-01T06:25:14.999Z</time></trkpt><trkpt lat="45.84174653745897" lon="8.708250468334986"><ele>258.0</ele><time>2026-05-01T06:25:15.999Z</time></trkpt><trkpt lat="45.841604760854054" lon="8.708428454755337"><ele>258.0</ele><time>2026-05-01T06:25:16.999Z</time></trkpt><trkpt lat="45.84146204923712" lon="8.708610348080065"><ele>258.0</ele><time>2026-05-01T06:25:17.999Z</time></trkpt><trkpt lat="45.841312582231325" lon="8.708798424856807"><ele>258.0</ele><time>2026-05-01T06:25:18.999Z</time></trkpt><trkpt lat="45.841160819370025" lon="8.70898591007676"><ele>258.0</ele><time>2026-05-01T06:25:19.999Z</time></trkpt><trkpt lat="45.841011561382615" lon="8.709168846901138"><ele>258.0</ele><time>2026-05-01T06:25:20.999Z</time></trkpt><trkpt lat="45.84086183448126" lon="8.709363817026773"><ele>259.0</ele><time>2026-05-01T06:25:21.999Z</time></trkpt><trkpt lat="45.84071053035269" lon="8.70956500617311"><ele>260.0</ele><time>2026-05-01T06:25:22.999Z</time></trkpt><trkpt lat="45.84055712877086" lon="8.709765501104082"><ele>261.0</ele><time>2026-05-01T06:25:23.999Z</time></trkpt><trkpt lat="45.84039367666322" lon="8.709962760535134"><ele>261.0</ele><time>2026-05-01T06:25:24.999Z</time></trkpt><trkpt lat="45.84022878294874" lon="8.71016624457918"><ele>261.0</ele><time>2026-05-01T06:25:25.999Z</time></trkpt><trkpt lat="45.84006890169143" lon="8.710378616124585"><ele>261.0</ele><time>2026-05-01T06:25:26.999Z</time></trkpt><trkpt lat="45.839901661372096" lon="8.71058684135877"><ele>260.6666666666667</ele><time>2026-05-01T06:25:27.999Z</time></trkpt><trkpt lat="45.83973401897945" lon="8.710795282529887"><ele>260.33333333333337</ele><time>2026-05-01T06:25:28.999Z</time></trkpt><trkpt lat="45.83956819434292" lon="8.710999370505846"><ele>260.0</ele><time>2026-05-01T06:25:29.999Z</time></trkpt><trkpt lat="45.8394107975055" lon="8.711198976895997"><ele>259.6666666666667</ele><time>2026-05-01T06:25:30.999Z</time></trkpt><trkpt lat="45.83926906772068" lon="8.711403554573913"><ele>259.3333333333333</ele><time>2026-05-01T06:25:31.999Z</time></trkpt><trkpt lat="45.83915578804225" lon="8.711638547816468"><ele>259.0</ele><time>2026-05-01T06:25:32.999Z</time></trkpt><trkpt lat="45.83905876716008" lon="8.71189534508839"><ele>259.3333333333333</ele><time>2026-05-01T06:25:33.999Z</time></trkpt><trkpt lat="45.838990852876485" lon="8.71216856675047"><ele>259.6666666666667</ele><time>2026-05-01T06:25:34.999Z</time></trkpt><trkpt lat="45.838955550768695" lon="8.712468386402938"><ele>260.0</ele><time>2026-05-01T06:25:35.999Z</time></trkpt><trkpt lat="45.83894856803373" lon="8.712774641497777"><ele>259.0</ele><time>2026-05-01T06:25:36.999Z</time></trkpt><trkpt lat="45.8389735824373" lon="8.71307955376975"><ele>258.0</ele><time>2026-05-01T06:25:37.999Z</time></trkpt><trkpt lat="45.83902701020907" lon="8.713379432047"><ele>257.0</ele><time>2026-05-01T06:25:38.999Z</time></trkpt><trkpt lat="45.839109621724106" lon="8.713670370037608"><ele>257.33333333333337</ele><time>2026-05-01T06:25:39.999Z</time></trkpt><trkpt lat="45.839204290666956" lon="8.713957540334288"><ele>257.6666666666667</ele><time>2026-05-01T06:25:40.999Z</time></trkpt><trkpt lat="45.83930723515629" lon="8.714242966442207"><ele>258.0</ele><time>2026-05-01T06:25:42.001Z</time></trkpt><trkpt lat="45.83939754410483" lon="8.714535535517756"><ele>258.0</ele><time>2026-05-01T06:25:43.001Z</time></trkpt><trkpt lat="45.839479814300745" lon="8.714826963384901"><ele>258.0</ele><time>2026-05-01T06:25:44.001Z</time></trkpt><trkpt lat="45.83956569196142" lon="8.715113754094002"><ele>258.0</ele><time>2026-05-01T06:25:45.001Z</time></trkpt><trkpt lat="45.839649964885226" lon="8.71539864941159"><ele>258.0</ele><time>2026-05-01T06:25:46.001Z</time></trkpt><trkpt lat="45.83973923492102" lon="8.71568284159609"><ele>258.0</ele><time>2026-05-01T06:25:47.001Z</time></trkpt><trkpt lat="45.839824921932816" lon="8.715968691045813"><ele>258.0</ele><time>2026-05-01T06:25:48.001Z</time></trkpt><trkpt lat="45.8399109638584" lon="8.716251115609678"><ele>257.6666666666667</ele><time>2026-05-01T06:25:49.001Z</time></trkpt><trkpt lat="45.84000004214458" lon="8.716532365755134"><ele>257.33333333333337</ele><time>2026-05-01T06:25:50.001Z</time></trkpt><trkpt lat="45.8400931319182" lon="8.716810159001298"><ele>257.0</ele><time>2026-05-01T06:25:51.001Z</time></trkpt><trkpt lat="45.840193663329785" lon="8.71709454228436"><ele>258.0</ele><time>2026-05-01T06:25:52.001Z</time></trkpt><trkpt lat="45.84029513974691" lon="8.717377169474757"><ele>259.0</ele><time>2026-05-01T06:25:53.001Z</time></trkpt><trkpt lat="45.840391799693265" lon="8.717660115049762"><ele>260.0</ele><time>2026-05-01T06:25:54.001Z</time></trkpt><trkpt lat="45.840490704580134" lon="8.717948086637014"><ele>260.0</ele><time>2026-05-01T06:25:55.001Z</time></trkpt><trkpt lat="45.84059267958743" lon="8.718246521261202"><ele>260.0</ele><time>2026-05-01T06:25:56.001Z</time></trkpt><trkpt lat="45.840687206792985" lon="8.718520819897462"><ele>260.0</ele><time>2026-05-01T06:25:57.001Z</time></trkpt><trkpt lat="45.84077288637894" lon="8.71877593894845"><ele>259.0</ele><time>2026-05-01T06:25:58.001Z</time></trkpt><trkpt lat="45.84085844178348" lon="8.719021633117698"><ele>258.0</ele><time>2026-05-01T06:25:59.001Z</time></trkpt><trkpt lat="45.84094034509557" lon="8.71925574020566"><ele>257.0</ele><time>2026-05-01T06:26:00Z</time></trkpt><trkpt lat="45.84101250003534" lon="8.719467763610853"><ele>257.0</ele><time>2026-05-01T06:26:01Z</time></trkpt><trkpt lat="45.84107442399024" lon="8.719656824781838"><ele>257.0</ele><time>2026-05-01T06:26:02Z</time></trkpt><trkpt lat="45.84112263989103" lon="8.719832118200815"><ele>257.0</ele><time>2026-05-01T06:26:03Z</time></trkpt><trkpt lat="45.841160194249355" lon="8.720002135964375"><ele>257.0</ele><time>2026-05-01T06:26:04Z</time></trkpt><trkpt lat="45.84117827662945" lon="8.72018095879212"><ele>256.75</ele><time>2026-05-01T06:26:05Z</time></trkpt><trkpt lat="45.84119791507619" lon="8.720360121115029"><ele>256.5</ele><time>2026-05-01T06:26:06Z</time></trkpt><trkpt lat="45.84123631674495" lon="8.720556729574264"><ele>256.25</ele><time>2026-05-01T06:26:07Z</time></trkpt><trkpt lat="45.84125741844196" lon="8.720773065015255"><ele>256.0</ele><time>2026-05-01T06:26:08Z</time></trkpt><trkpt lat="45.84124769769086" lon="8.720988563413085"><ele>257.3333333333333</ele><time>2026-05-01T06:26:09Z</time></trkpt><trkpt lat="45.84124778076553" lon="8.721135451547857"><ele>258.6666666666667</ele><time>2026-05-01T06:26:10Z</time></trkpt><trkpt lat="45.84121073400251" lon="8.721307066747825"><ele>260.0</ele><time>2026-05-01T06:26:11Z</time></trkpt><trkpt lat="45.84111932686814" lon="8.721675140121569"><ele>261.0</ele><time>2026-05-01T06:26:12Z</time></trkpt><trkpt lat="45.841059527914474" lon="8.721926946788347"><ele>262.0</ele><time>2026-05-01T06:26:13Z</time></trkpt><trkpt lat="45.84100532795899" lon="8.722175678904732"><ele>263.0</ele><time>2026-05-01T06:26:14Z</time></trkpt><trkpt lat="45.84095232615841" lon="8.72243019771458"><ele>258.33333333333337</ele><time>2026-05-01T06:26:15Z</time></trkpt><trkpt lat="45.840897270634514" lon="8.722693354637324"><ele>253.66666666666669</ele><time>2026-05-01T06:26:16Z</time></trkpt><trkpt lat="45.84084598795637" lon="8.722954490934764"><ele>249.0</ele><time>2026-05-01T06:26:17Z</time></trkpt><trkpt lat="45.84079759341466" lon="8.723198979481078"><ele>249.0</ele><time>2026-05-01T06:26:18Z</time></trkpt><trkpt lat="45.84074124535467" lon="8.723469795750383"><ele>249.0</ele><time>2026-05-01T06:26:19Z</time></trkpt><trkpt lat="45.840684658256976" lon="8.723727078873752"><ele>249.0</ele><time>2026-05-01T06:26:20Z</time></trkpt><trkpt lat="45.84062713160859" lon="8.72400107947756"><ele>250.0</ele><time>2026-05-01T06:26:21Z</time></trkpt><trkpt lat="45.84056315316419" lon="8.724281347342586"><ele>251.0</ele><time>2026-05-01T06:26:22Z</time></trkpt><trkpt lat="45.84048934820714" lon="8.724560743116138"><ele>252.0</ele><time>2026-05-01T06:26:23Z</time></trkpt><trkpt lat="45.84040471125846" lon="8.724838227542405"><ele>250.66666666666669</ele><time>2026-05-01T06:26:24Z</time></trkpt><trkpt lat="45.84030641584916" lon="8.725118056637454"><ele>249.33333333333334</ele><time>2026-05-01T06:26:25Z</time></trkpt><trkpt lat="45.840206365774286" lon="8.725405404175813"><ele>248.0</ele><time>2026-05-01T06:26:26Z</time></trkpt><trkpt lat="45.84010169072031" lon="8.725698801024611"><ele>248.0</ele><time>2026-05-01T06:26:27Z</time></trkpt><trkpt lat="45.839996581491874" lon="8.72599176068342"><ele>248.0</ele><time>2026-05-01T06:26:28Z</time></trkpt><trkpt lat="45.83989005115496" lon="8.726291750770951"><ele>249.0</ele><time>2026-05-01T06:26:29Z</time></trkpt><trkpt lat="45.83977762667529" lon="8.726586978855666"><ele>250.0</ele><time>2026-05-01T06:26:30Z</time></trkpt><trkpt lat="45.839648340808694" lon="8.72687391505396"><ele>251.0</ele><time>2026-05-01T06:26:31Z</time></trkpt><trkpt lat="45.83951954165413" lon="8.727152368735227"><ele>252.0</ele><time>2026-05-01T06:26:32Z</time></trkpt><trkpt lat="45.83939431840105" lon="8.727425744953505"><ele>251.33333333333331</ele><time>2026-05-01T06:26:33Z</time></trkpt><trkpt lat="45.839279539024844" lon="8.727694948877536"><ele>250.66666666666666</ele><time>2026-05-01T06:26:34Z</time></trkpt><trkpt lat="45.839165047614635" lon="8.727963600562713"><ele>250.0</ele><time>2026-05-01T06:26:35Z</time></trkpt><trkpt lat="45.8390543834533" lon="8.728225457140322"><ele>250.0</ele><time>2026-05-01T06:26:36Z</time></trkpt><trkpt lat="45.838946312396416" lon="8.728493612728428"><ele>250.0</ele><time>2026-05-01T06:26:37Z</time></trkpt><trkpt lat="45.838835994845006" lon="8.7287342910035"><ele>250.0</ele><time>2026-05-01T06:26:38Z</time></trkpt><trkpt lat="45.83871242224831" lon="8.728966097437196"><ele>250.66666666666666</ele><time>2026-05-01T06:26:39Z</time></trkpt><trkpt lat="45.83857748279991" lon="8.729190330983887"><ele>251.33333333333331</ele><time>2026-05-01T06:26:40Z</time></trkpt><trkpt lat="45.83843604230247" lon="8.729404629513693"><ele>252.0</ele><time>2026-05-01T06:26:41Z</time></trkpt><trkpt lat="45.838279463628794" lon="8.729621655489991"><ele>252.0</ele><time>2026-05-01T06:26:42Z</time></trkpt><trkpt lat="45.83812123843349" lon="8.729827703423876"><ele>252.0</ele><time>2026-05-01T06:26:43Z</time></trkpt><trkpt lat="45.83796945280571" lon="8.729989671875174"><ele>252.0</ele><time>2026-05-01T06:26:44Z</time></trkpt><trkpt lat="45.837777588627205" lon="8.730178847685456"><ele>253.33333333333331</ele><time>2026-05-01T06:26:45Z</time></trkpt><trkpt lat="45.8376152362838" lon="8.73034599736574"><ele>254.66666666666666</ele><time>2026-05-01T06:26:46Z</time></trkpt><trkpt lat="45.837416124756516" lon="8.730488448959353"><ele>256.0</ele><time>2026-05-01T06:26:47Z</time></trkpt><trkpt lat="45.837214833928726" lon="8.730585795499989"><ele>256.0</ele><time>2026-05-01T06:26:48Z</time></trkpt><trkpt lat="45.83699974226546" lon="8.730672004214231"><ele>256.0</ele><time>2026-05-01T06:26:49Z</time></trkpt><trkpt lat="45.83678201227724" lon="8.73074149775628"><ele>256.0</ele><time>2026-05-01T06:26:50Z</time></trkpt><trkpt lat="45.83657150516433" lon="8.730798960292825"><ele>255.33333333333331</ele><time>2026-05-01T06:26:51Z</time></trkpt><trkpt lat="45.83635780215599" lon="8.730866474169924"><ele>254.66666666666669</ele><time>2026-05-01T06:26:52Z</time></trkpt><trkpt lat="45.836140250801606" lon="8.73093886561872"><ele>254.0</ele><time>2026-05-01T06:26:53Z</time></trkpt><trkpt lat="45.8359212638737" lon="8.731002628172977"><ele>252.5</ele><time>2026-05-01T06:26:54Z</time></trkpt><trkpt lat="45.835702265589596" lon="8.73107932578322"><ele>251.0</ele><time>2026-05-01T06:26:55Z</time></trkpt><trkpt lat="45.83548285432101" lon="8.731155877024898"><ele>251.0</ele><time>2026-05-01T06:26:56Z</time></trkpt><trkpt lat="45.835264884227605" lon="8.731233738235892"><ele>251.0</ele><time>2026-05-01T06:26:56.999Z</time></trkpt><trkpt lat="45.83504211801582" lon="8.73131182623096"><ele>252.5</ele><time>2026-05-01T06:26:57.999Z</time></trkpt><trkpt lat="45.83481874954068" lon="8.73138878878513"><ele>254.0</ele><time>2026-05-01T06:26:58.999Z</time></trkpt><trkpt lat="45.83459507056698" lon="8.731460479310018"><ele>254.0</ele><time>2026-05-01T06:26:59.999Z</time></trkpt><trkpt lat="45.83436860972989" lon="8.731533310770862"><ele>254.0</ele><time>2026-05-01T06:27:00.999Z</time></trkpt><trkpt lat="45.83413779177226" lon="8.73161226211939"><ele>253.0</ele><time>2026-05-01T06:27:01.999Z</time></trkpt><trkpt lat="45.833913531530634" lon="8.73170195856558"><ele>252.0</ele><time>2026-05-01T06:27:02.999Z</time></trkpt><trkpt lat="45.83368489087741" lon="8.7317787705458"><ele>251.5</ele><time>2026-05-01T06:27:03.999Z</time></trkpt><trkpt lat="45.83346170519509" lon="8.731858702697204"><ele>251.0</ele><time>2026-05-01T06:27:04.999Z</time></trkpt><trkpt lat="45.833234583826496" lon="8.731934435653322"><ele>253.0</ele><time>2026-05-01T06:27:05.999Z</time></trkpt><trkpt lat="45.83300146690922" lon="8.73200813121431"><ele>255.0</ele><time>2026-05-01T06:27:06.999Z</time></trkpt><trkpt lat="45.832773961066835" lon="8.732082230606052"><ele>255.0</ele><time>2026-05-01T06:27:07.999Z</time></trkpt><trkpt lat="45.83254139036234" lon="8.732171111382367"><ele>255.0</ele><time>2026-05-01T06:27:08.999Z</time></trkpt><trkpt lat="45.832310180627374" lon="8.732260389439606"><ele>255.0</ele><time>2026-05-01T06:27:09.999Z</time></trkpt><trkpt lat="45.832079523314846" lon="8.732347794837208"><ele>255.0</ele><time>2026-05-01T06:27:10.999Z</time></trkpt><trkpt lat="45.83184328403767" lon="8.732422030821057"><ele>256.0</ele><time>2026-05-01T06:27:11.999Z</time></trkpt><trkpt lat="45.83161417586077" lon="8.73250782093996"><ele>257.0</ele><time>2026-05-01T06:27:12.999Z</time></trkpt><trkpt lat="45.831386472642805" lon="8.732588224431854"><ele>257.0</ele><time>2026-05-01T06:27:13.999Z</time></trkpt><trkpt lat="45.831161207131416" lon="8.732673039437428"><ele>257.0</ele><time>2026-05-01T06:27:14.999Z</time></trkpt><trkpt lat="45.83094053705567" lon="8.732770551916012"><ele>260.0</ele><time>2026-05-01T06:27:15.999Z</time></trkpt><trkpt lat="45.830725595535334" lon="8.732898054421026"><ele>263.0</ele><time>2026-05-01T06:27:16.999Z</time></trkpt><trkpt lat="45.83051944448055" lon="8.733054402159718"><ele>263.0</ele><time>2026-05-01T06:27:17.999Z</time></trkpt><trkpt lat="45.83032812791368" lon="8.733248295337551"><ele>263.0</ele><time>2026-05-01T06:27:18.999Z</time></trkpt><trkpt lat="45.83014391550642" lon="8.733461593818276"><ele>262.5</ele><time>2026-05-01T06:27:19.999Z</time></trkpt><trkpt lat="45.8299764834975" lon="8.733707531605134"><ele>262.0</ele><time>2026-05-01T06:27:20.999Z</time></trkpt><trkpt lat="45.82982090430511" lon="8.73396874287177"><ele>262.0</ele><time>2026-05-01T06:27:21.999Z</time></trkpt><trkpt lat="45.829675777153604" lon="8.734248907821678"><ele>262.0</ele><time>2026-05-01T06:27:22.999Z</time></trkpt><trkpt lat="45.82955207543934" lon="8.734552415707336"><ele>264.0</ele><time>2026-05-01T06:27:23.999Z</time></trkpt><trkpt lat="45.82944257888147" lon="8.734860738156618"><ele>266.0</ele><time>2026-05-01T06:27:24.999Z</time></trkpt><trkpt lat="45.82933515359572" lon="8.735173419651563"><ele>262.5</ele><time>2026-05-01T06:27:25.999Z</time></trkpt><trkpt lat="45.82921636602602" lon="8.735485126026992"><ele>259.0</ele><time>2026-05-01T06:27:26.999Z</time></trkpt><trkpt lat="45.829097314056085" lon="8.735793881895052"><ele>261.0</ele><time>2026-05-01T06:27:27.999Z</time></trkpt><trkpt lat="45.82897663750072" lon="8.73610216667242"><ele>263.0</ele><time>2026-05-01T06:27:28.999Z</time></trkpt><trkpt lat="45.828859637850016" lon="8.736405268495997"><ele>263.0</ele><time>2026-05-01T06:27:29.999Z</time></trkpt><trkpt lat="45.82873846649601" lon="8.736711344746658"><ele>263.0</ele><time>2026-05-01T06:27:30.999Z</time></trkpt><trkpt lat="45.82861629277143" lon="8.73701606112511"><ele>264.0</ele><time>2026-05-01T06:27:31.999Z</time></trkpt><trkpt lat="45.8285100194251" lon="8.737306944695794"><ele>265.0</ele><time>2026-05-01T06:27:32.999Z</time></trkpt><trkpt lat="45.82839353916303" lon="8.737608734244398"><ele>263.0</ele><time>2026-05-01T06:27:33.999Z</time></trkpt><trkpt lat="45.82827774000311" lon="8.737903232081926"><ele>261.0</ele><time>2026-05-01T06:27:34.999Z</time></trkpt><trkpt lat="45.82816117214379" lon="8.738198271607011"><ele>261.0</ele><time>2026-05-01T06:27:35.999Z</time></trkpt><trkpt lat="45.82805136728538" lon="8.73848268269255"><ele>261.0</ele><time>2026-05-01T06:27:36.999Z</time></trkpt><trkpt lat="45.82794310341342" lon="8.738754509127114"><ele>261.0</ele><time>2026-05-01T06:27:37.999Z</time></trkpt><trkpt lat="45.82785050009807" lon="8.738999104098708"><ele>259.6666666666667</ele><time>2026-05-01T06:27:38.999Z</time></trkpt><trkpt lat="45.82775719016918" lon="8.739230989877349"><ele>258.33333333333337</ele><time>2026-05-01T06:27:39.999Z</time></trkpt><trkpt lat="45.827670300778976" lon="8.73944245582918"><ele>257.0</ele><time>2026-05-01T06:27:40.999Z</time></trkpt><trkpt lat="45.82760207350742" lon="8.739611310017798"><ele>257.0</ele><time>2026-05-01T06:27:41.999Z</time></trkpt><trkpt lat="45.82754611934821" lon="8.739744337229268"><ele>257.0</ele><time>2026-05-01T06:27:42.999Z</time></trkpt><trkpt lat="45.82748821538674" lon="8.73990326656192"><ele>257.0</ele><time>2026-05-01T06:27:43.999Z</time></trkpt><trkpt lat="45.82743278446167" lon="8.740015610456082"><ele>257.0</ele><time>2026-05-01T06:27:44.999Z</time></trkpt><trkpt lat="45.827365422330104" lon="8.740099600802512"><ele>257.0</ele><time>2026-05-01T06:27:45.999Z</time></trkpt><trkpt lat="45.82728079857044" lon="8.740159066667026"><ele>258.2</ele><time>2026-05-01T06:27:46.999Z</time></trkpt><trkpt lat="45.82720678506964" lon="8.74022961761707"><ele>259.4</ele><time>2026-05-01T06:27:48.001Z</time></trkpt><trkpt lat="45.8271620449869" lon="8.740357653621045"><ele>260.6</ele><time>2026-05-01T06:27:49.001Z</time></trkpt><trkpt lat="45.82717191956084" lon="8.740529639536252"><ele>261.8</ele><time>2026-05-01T06:27:50.001Z</time></trkpt><trkpt lat="45.827153138895945" lon="8.740699094262993"><ele>263.0</ele><time>2026-05-01T06:27:51.001Z</time></trkpt><trkpt lat="45.82703882115772" lon="8.740852116392464"><ele>263.0</ele><time>2026-05-01T06:27:52.001Z</time></trkpt><trkpt lat="45.82690877250365" lon="8.741045211446748"><ele>263.0</ele><time>2026-05-01T06:27:53.001Z</time></trkpt><trkpt lat="45.82685081147509" lon="8.741142151245334"><ele>263.0</ele><time>2026-05-01T06:27:54.001Z</time></trkpt><trkpt lat="45.82674648972476" lon="8.74128317358978"><ele>263.0</ele><time>2026-05-01T06:27:55.001Z</time></trkpt><trkpt lat="45.826640481076566" lon="8.741433374878817"><ele>261.0</ele><time>2026-05-01T06:27:56.001Z</time></trkpt><trkpt lat="45.826523000191884" lon="8.741609199415542"><ele>259.0</ele><time>2026-05-01T06:27:57Z</time></trkpt><trkpt lat="45.826401675624204" lon="8.741789114574969"><ele>257.0</ele><time>2026-05-01T06:27:58Z</time></trkpt><trkpt lat="45.826276489152704" lon="8.741944865696583"><ele>257.0</ele><time>2026-05-01T06:27:59Z</time></trkpt><trkpt lat="45.8261458362323" lon="8.742119494852252"><ele>257.0</ele><time>2026-05-01T06:28:00Z</time></trkpt><trkpt lat="45.82600514669218" lon="8.742303877708643"><ele>257.0</ele><time>2026-05-01T06:28:01Z</time></trkpt><trkpt lat="45.825860700662346" lon="8.742489938993273"><ele>255.66666666666669</ele><time>2026-05-01T06:28:02Z</time></trkpt><trkpt lat="45.825720181984266" lon="8.742679783461114"><ele>254.33333333333331</ele><time>2026-05-01T06:28:03Z</time></trkpt><trkpt lat="45.82557960461062" lon="8.742879993636013"><ele>253.0</ele><time>2026-05-01T06:28:04Z</time></trkpt><trkpt lat="45.82543611004022" lon="8.74308501455567"><ele>253.0</ele><time>2026-05-01T06:28:05Z</time></trkpt><trkpt lat="45.82527307101753" lon="8.743277648159198"><ele>253.0</ele><time>2026-05-01T06:28:06Z</time></trkpt><trkpt lat="45.82511194404402" lon="8.74349407152365"><ele>253.0</ele><time>2026-05-01T06:28:07Z</time></trkpt><trkpt lat="45.82494163812219" lon="8.743722824068385"><ele>252.66666666666666</ele><time>2026-05-01T06:28:08Z</time></trkpt><trkpt lat="45.82477260071051" lon="8.743951950444224"><ele>252.33333333333331</ele><time>2026-05-01T06:28:09Z</time></trkpt><trkpt lat="45.82462610413784" lon="8.744170079192598"><ele>252.0</ele><time>2026-05-01T06:28:10Z</time></trkpt><trkpt lat="45.82448297248594" lon="8.744355368722239"><ele>252.0</ele><time>2026-05-01T06:28:11Z</time></trkpt><trkpt lat="45.82434746544439" lon="8.744529418067653"><ele>252.0</ele><time>2026-05-01T06:28:12Z</time></trkpt><trkpt lat="45.82422634237629" lon="8.744701734405828"><ele>252.0</ele><time>2026-05-01T06:28:13Z</time></trkpt><trkpt lat="45.82412618053101" lon="8.744854068841645"><ele>252.0</ele><time>2026-05-01T06:28:14Z</time></trkpt><trkpt lat="45.82402946725228" lon="8.744965918860284"><ele>252.0</ele><time>2026-05-01T06:28:15Z</time></trkpt><trkpt lat="45.82393704549851" lon="8.745056178847305"><ele>252.0</ele><time>2026-05-01T06:28:16Z</time></trkpt><trkpt lat="45.82384689867705" lon="8.74514313312345"><ele>252.0</ele><time>2026-05-01T06:28:17Z</time></trkpt><trkpt lat="45.823759933533736" lon="8.745280633550665"><ele>252.0</ele><time>2026-05-01T06:28:18Z</time></trkpt><trkpt lat="45.82364229730092" lon="8.745444584074182"><ele>252.0</ele><time>2026-05-01T06:28:19Z</time></trkpt><trkpt lat="45.82355805969494" lon="8.745579197124918"><ele>252.0</ele><time>2026-05-01T06:28:20Z</time></trkpt><trkpt lat="45.8234436108731" lon="8.74567100371874"><ele>252.0</ele><time>2026-05-01T06:28:21Z</time></trkpt><trkpt lat="45.82331154003696" lon="8.745766991341844"><ele>252.0</ele><time>2026-05-01T06:28:22Z</time></trkpt><trkpt lat="45.8231784522854" lon="8.745862384264294"><ele>252.0</ele><time>2026-05-01T06:28:23Z</time></trkpt><trkpt lat="45.823012260854185" lon="8.745954552779805"><ele>252.0</ele><time>2026-05-01T06:28:24Z</time></trkpt><trkpt lat="45.82282438020901" lon="8.74604214806664"><ele>252.33333333333331</ele><time>2026-05-01T06:28:25Z</time></trkpt><trkpt lat="45.82266989174395" lon="8.746202143866345"><ele>252.66666666666666</ele><time>2026-05-01T06:28:26Z</time></trkpt><trkpt lat="45.82258323009912" lon="8.746358765239957"><ele>253.0</ele><time>2026-05-01T06:28:27Z</time></trkpt><trkpt lat="45.82247467747462" lon="8.746564129673759"><ele>253.0</ele><time>2026-05-01T06:28:28Z</time></trkpt><trkpt lat="45.82238601405436" lon="8.746799987238536"><ele>253.0</ele><time>2026-05-01T06:28:29Z</time></trkpt><trkpt lat="45.82231642096402" lon="8.747040845613778"><ele>253.0</ele><time>2026-05-01T06:28:30Z</time></trkpt><trkpt lat="45.822253149718186" lon="8.747283324203012"><ele>254.33333333333331</ele><time>2026-05-01T06:28:31Z</time></trkpt><trkpt lat="45.822185204411454" lon="8.74752436504392"><ele>255.66666666666669</ele><time>2026-05-01T06:28:32Z</time></trkpt><trkpt lat="45.82212498178189" lon="8.747766417607084"><ele>257.0</ele><time>2026-05-01T06:28:33Z</time></trkpt><trkpt lat="45.822072123457104" lon="8.748007017134658"><ele>257.0</ele><time>2026-05-01T06:28:34Z</time></trkpt><trkpt lat="45.82201497773069" lon="8.748245707433673"><ele>257.0</ele><time>2026-05-01T06:28:35Z</time></trkpt><trkpt lat="45.82195859524121" lon="8.748486911650097"><ele>257.0</ele><time>2026-05-01T06:28:36Z</time></trkpt><trkpt lat="45.82190524162286" lon="8.748731008519226"><ele>257.6666666666667</ele><time>2026-05-01T06:28:37Z</time></trkpt><trkpt lat="45.82184727368222" lon="8.748978594869378"><ele>258.3333333333333</ele><time>2026-05-01T06:28:38Z</time></trkpt><trkpt lat="45.82178942841899" lon="8.74923636642069"><ele>259.0</ele><time>2026-05-01T06:28:39Z</time></trkpt><trkpt lat="45.82173716903206" lon="8.749491709099269"><ele>258.3333333333333</ele><time>2026-05-01T06:28:40Z</time></trkpt><trkpt lat="45.82168483663329" lon="8.749754783850847"><ele>257.6666666666667</ele><time>2026-05-01T06:28:41Z</time></trkpt><trkpt lat="45.821625151467025" lon="8.750026814125112"><ele>257.0</ele><time>2026-05-01T06:28:42Z</time></trkpt><trkpt lat="45.82154129571005" lon="8.750290600060445"><ele>257.0</ele><time>2026-05-01T06:28:43Z</time></trkpt><trkpt lat="45.82144961181885" lon="8.750560963604606"><ele>257.0</ele><time>2026-05-01T06:28:44Z</time></trkpt><trkpt lat="45.82135708968308" lon="8.750847527739337"><ele>257.0</ele><time>2026-05-01T06:28:45Z</time></trkpt><trkpt lat="45.821243391034685" lon="8.751104835937866"><ele>256.6666666666667</ele><time>2026-05-01T06:28:46Z</time></trkpt><trkpt lat="45.82113353539972" lon="8.751360893676965"><ele>256.3333333333333</ele><time>2026-05-01T06:28:47Z</time></trkpt><trkpt lat="45.82102223859366" lon="8.751622732300806"><ele>256.0</ele><time>2026-05-01T06:28:48Z</time></trkpt><trkpt lat="45.82091304094041" lon="8.751876797208054"><ele>256.0</ele><time>2026-05-01T06:28:48.999Z</time></trkpt><trkpt lat="45.82080352474568" lon="8.752135667871407"><ele>256.0</ele><time>2026-05-01T06:28:49.999Z</time></trkpt><trkpt lat="45.82070252936876" lon="8.752382761717726"><ele>256.0</ele><time>2026-05-01T06:28:50.999Z</time></trkpt><trkpt lat="45.82059835083057" lon="8.752629819961124"><ele>258.66666666666663</ele><time>2026-05-01T06:28:51.999Z</time></trkpt><trkpt lat="45.820498805506325" lon="8.752880361837665"><ele>261.3333333333333</ele><time>2026-05-01T06:28:52.999Z</time></trkpt><trkpt lat="45.82038533132885" lon="8.753129832950608"><ele>264.0</ele><time>2026-05-01T06:28:53.999Z</time></trkpt><trkpt lat="45.820281237010846" lon="8.75337898828125"><ele>266.6666666666667</ele><time>2026-05-01T06:28:54.999Z</time></trkpt><trkpt lat="45.820179936762585" lon="8.753623139402038"><ele>269.33333333333337</ele><time>2026-05-01T06:28:55.999Z</time></trkpt><trkpt lat="45.82007670389168" lon="8.75386990460821"><ele>272.0</ele><time>2026-05-01T06:28:56.999Z</time></trkpt><trkpt lat="45.819973226448184" lon="8.754109529987707"><ele>268.0</ele><time>2026-05-01T06:28:57.999Z</time></trkpt><trkpt lat="45.819871885620664" lon="8.75434940968287"><ele>264.0</ele><time>2026-05-01T06:28:58.999Z</time></trkpt><trkpt lat="45.81976314534182" lon="8.754609856224663"><ele>260.0</ele><time>2026-05-01T06:28:59.999Z</time></trkpt><trkpt lat="45.81963611861901" lon="8.754868592519498"><ele>260.0</ele><time>2026-05-01T06:29:00.999Z</time></trkpt><trkpt lat="45.819517063288906" lon="8.755148147776245"><ele>260.0</ele><time>2026-05-01T06:29:01.999Z</time></trkpt><trkpt lat="45.81939478821352" lon="8.75543526336406"><ele>262.0</ele><time>2026-05-01T06:29:02.999Z</time></trkpt><trkpt lat="45.81928714536086" lon="8.755743750444433"><ele>264.0</ele><time>2026-05-01T06:29:03.999Z</time></trkpt><trkpt lat="45.81915863525701" lon="8.756042745207687"><ele>264.0</ele><time>2026-05-01T06:29:04.999Z</time></trkpt><trkpt lat="45.81902839404937" lon="8.756343410290087"><ele>264.0</ele><time>2026-05-01T06:29:05.999Z</time></trkpt><trkpt lat="45.8188953554092" lon="8.756644147136004"><ele>268.5</ele><time>2026-05-01T06:29:06.999Z</time></trkpt><trkpt lat="45.81876053847676" lon="8.756954296250344"><ele>273.0</ele><time>2026-05-01T06:29:07.999Z</time></trkpt><trkpt lat="45.81862955821211" lon="8.7572656902036"><ele>273.0</ele><time>2026-05-01T06:29:08.999Z</time></trkpt><trkpt lat="45.818502125765534" lon="8.757560103607391"><ele>273.0</ele><time>2026-05-01T06:29:09.999Z</time></trkpt><trkpt lat="45.818373927154134" lon="8.75785559429142"><ele>265.5</ele><time>2026-05-01T06:29:10.999Z</time></trkpt><trkpt lat="45.81824464322614" lon="8.758151851476446"><ele>258.0</ele><time>2026-05-01T06:29:11.999Z</time></trkpt><trkpt lat="45.818111212190175" lon="8.75845028612609"><ele>263.5</ele><time>2026-05-01T06:29:12.999Z</time></trkpt><trkpt lat="45.81797214418397" lon="8.758733656130586"><ele>269.0</ele><time>2026-05-01T06:29:13.999Z</time></trkpt><trkpt lat="45.8178208333408" lon="8.759004578559086"><ele>269.0</ele><time>2026-05-01T06:29:14.999Z</time></trkpt><trkpt lat="45.817652467282684" lon="8.7592505275346"><ele>269.0</ele><time>2026-05-01T06:29:15.999Z</time></trkpt><trkpt lat="45.817469698527745" lon="8.759483463926275"><ele>262.0</ele><time>2026-05-01T06:29:16.999Z</time></trkpt><trkpt lat="45.817282053200024" lon="8.759701852483088"><ele>255.0</ele><time>2026-05-01T06:29:17.999Z</time></trkpt><trkpt lat="45.817085613591175" lon="8.759898258997326"><ele>255.0</ele><time>2026-05-01T06:29:18.999Z</time></trkpt><trkpt lat="45.816882568950035" lon="8.760077623677718"><ele>255.0</ele><time>2026-05-01T06:29:19.999Z</time></trkpt><trkpt lat="45.81667338964952" lon="8.760250928270203"><ele>254.0</ele><time>2026-05-01T06:29:20.999Z</time></trkpt><trkpt lat="45.816468096149535" lon="8.760419803789581"><ele>253.0</ele><time>2026-05-01T06:29:21.999Z</time></trkpt><trkpt lat="45.81627039571386" lon="8.760587355558043"><ele>253.0</ele><time>2026-05-01T06:29:22.999Z</time></trkpt><trkpt lat="45.816081877282" lon="8.760741667802028"><ele>253.0</ele><time>2026-05-01T06:29:23.999Z</time></trkpt><trkpt lat="45.815921636504555" lon="8.76087546350243"><ele>253.0</ele><time>2026-05-01T06:29:24.999Z</time></trkpt><trkpt lat="45.81572996906497" lon="8.761032233227402"><ele>252.0</ele><time>2026-05-01T06:29:25.999Z</time></trkpt><trkpt lat="45.81557691253423" lon="8.761185517830546"><ele>251.0</ele><time>2026-05-01T06:29:26.999Z</time></trkpt><trkpt lat="45.81542657273745" lon="8.761314157086645"><ele>250.0</ele><time>2026-05-01T06:29:27.999Z</time></trkpt><trkpt lat="45.81528360949648" lon="8.761429850426527"><ele>249.5</ele><time>2026-05-01T06:29:28.999Z</time></trkpt><trkpt lat="45.815153428747216" lon="8.761535587840138"><ele>249.0</ele><time>2026-05-01T06:29:29.999Z</time></trkpt><trkpt lat="45.81503286180309" lon="8.761642800859278"><ele>248.5</ele><time>2026-05-01T06:29:30.999Z</time></trkpt><trkpt lat="45.81492560825953" lon="8.761737811808704"><ele>248.0</ele><time>2026-05-01T06:29:31.999Z</time></trkpt><trkpt lat="45.814829787096734" lon="8.761816118898462"><ele>248.33333333333334</ele><time>2026-05-01T06:29:32.999Z</time></trkpt><trkpt lat="45.81475649758466" lon="8.761881109860473"><ele>248.66666666666669</ele><time>2026-05-01T06:29:33.999Z</time></trkpt><trkpt lat="45.81468188888913" lon="8.761941814131724"><ele>249.0</ele><time>2026-05-01T06:29:34.999Z</time></trkpt><trkpt lat="45.81460228639875" lon="8.761964287745506"><ele>249.33333333333331</ele><time>2026-05-01T06:29:35.999Z</time></trkpt><trkpt lat="45.8145189744771" lon="8.761993497197786"><ele>249.66666666666666</ele><time>2026-05-01T06:29:36.999Z</time></trkpt><trkpt lat="45.81444453422757" lon="8.76206063940678"><ele>250.0</ele><time>2026-05-01T06:29:37.999Z</time></trkpt><trkpt lat="45.81436986993603" lon="8.762160259211672"><ele>250.0</ele><time>2026-05-01T06:29:38.999Z</time></trkpt><trkpt lat="45.81428107168499" lon="8.762267256245602"><ele>250.0</ele><time>2026-05-01T06:29:39.999Z</time></trkpt><trkpt lat="45.81417014378148" lon="8.762354997514601"><ele>250.0</ele><time>2026-05-01T06:29:40.999Z</time></trkpt><trkpt lat="45.81405102390817" lon="8.762453249124759"><ele>250.0</ele><time>2026-05-01T06:29:41.999Z</time></trkpt><trkpt lat="45.81391653786539" lon="8.762567510260586"><ele>250.0</ele><time>2026-05-01T06:29:42.999Z</time></trkpt><trkpt lat="45.81377074054333" lon="8.762696434438105"><ele>250.0</ele><time>2026-05-01T06:29:43.999Z</time></trkpt><trkpt lat="45.81362664842707" lon="8.762826423223647"><ele>250.0</ele><time>2026-05-01T06:29:44.999Z</time></trkpt><trkpt lat="45.81346836592868" lon="8.762968740505121"><ele>250.0</ele><time>2026-05-01T06:29:45.999Z</time></trkpt><trkpt lat="45.81329690988648" lon="8.76311148368078"><ele>250.0</ele><time>2026-05-01T06:29:46.999Z</time></trkpt><trkpt lat="45.8131125410501" lon="8.763257765487745"><ele>250.0</ele><time>2026-05-01T06:29:47.999Z</time></trkpt><trkpt lat="45.81290138910349" lon="8.763424772820676"><ele>250.33333333333331</ele><time>2026-05-01T06:29:48.999Z</time></trkpt><trkpt lat="45.81271850453411" lon="8.763575373803944"><ele>250.66666666666669</ele><time>2026-05-01T06:29:49.999Z</time></trkpt><trkpt lat="45.81253997334407" lon="8.763726735500803"><ele>251.0</ele><time>2026-05-01T06:29:50.999Z</time></trkpt><trkpt lat="45.81235944431284" lon="8.763892725499813"><ele>251.0</ele><time>2026-05-01T06:29:51.999Z</time></trkpt><trkpt lat="45.81218073185806" lon="8.764067649778752"><ele>251.0</ele><time>2026-05-01T06:29:52.999Z</time></trkpt><trkpt lat="45.812018021078" lon="8.764255634476514"><ele>251.0</ele><time>2026-05-01T06:29:54Z</time></trkpt><trkpt lat="45.811868354106586" lon="8.764465325331338"><ele>251.33333333333334</ele><time>2026-05-01T06:29:55Z</time></trkpt><trkpt lat="45.811735028858564" lon="8.76468675485139"><ele>251.66666666666669</ele><time>2026-05-01T06:29:56Z</time></trkpt><trkpt lat="45.81161291410069" lon="8.764907032114783"><ele>252.0</ele><time>2026-05-01T06:29:57Z</time></trkpt><trkpt lat="45.81150385481485" lon="8.765139691081927"><ele>251.66666666666669</ele><time>2026-05-01T06:29:58Z</time></trkpt><trkpt lat="45.81141900552226" lon="8.76536851450811"><ele>251.33333333333334</ele><time>2026-05-01T06:29:59Z</time></trkpt><trkpt lat="45.81135293946851" lon="8.765606881766429"><ele>251.0</ele><time>2026-05-01T06:30:00Z</time></trkpt><trkpt lat="45.81129817532219" lon="8.765889701570867"><ele>251.33333333333334</ele><time>2026-05-01T06:30:01Z</time></trkpt><trkpt lat="45.81124689372526" lon="8.766178573678657"><ele>251.66666666666669</ele><time>2026-05-01T06:30:02Z</time></trkpt><trkpt lat="45.81119126526026" lon="8.766472754225223"><ele>252.0</ele><time>2026-05-01T06:30:03Z</time></trkpt><trkpt lat="45.811144521399704" lon="8.766772930024642"><ele>252.66666666666669</ele><time>2026-05-01T06:30:04Z</time></trkpt><trkpt lat="45.81111078793862" lon="8.767083444729032"><ele>253.33333333333334</ele><time>2026-05-01T06:30:05Z</time></trkpt><trkpt lat="45.81108232864268" lon="8.767403893227014"><ele>254.0</ele><time>2026-05-01T06:30:06Z</time></trkpt><trkpt lat="45.81104978708187" lon="8.767721165699697"><ele>254.0</ele><time>2026-05-01T06:30:07Z</time></trkpt><trkpt lat="45.811017618613015" lon="8.768039313322914"><ele>254.0</ele><time>2026-05-01T06:30:08Z</time></trkpt><trkpt lat="45.81098685067692" lon="8.768357989098407"><ele>254.0</ele><time>2026-05-01T06:30:09Z</time></trkpt><trkpt lat="45.81095139303795" lon="8.768682805137543"><ele>251.5</ele><time>2026-05-01T06:30:10Z</time></trkpt><trkpt lat="45.81091415914673" lon="8.769006216868988"><ele>249.0</ele><time>2026-05-01T06:30:11Z</time></trkpt><trkpt lat="45.81087649949124" lon="8.769320056636232"><ele>249.0</ele><time>2026-05-01T06:30:12Z</time></trkpt><trkpt lat="45.81083833622186" lon="8.769631082352426"><ele>249.0</ele><time>2026-05-01T06:30:13Z</time></trkpt><trkpt lat="45.8108040314403" lon="8.769945970868157"><ele>249.0</ele><time>2026-05-01T06:30:14Z</time></trkpt><trkpt lat="45.81077121527234" lon="8.770269758971144"><ele>249.5</ele><time>2026-05-01T06:30:15Z</time></trkpt><trkpt lat="45.81074250646248" lon="8.770598875538969"><ele>250.0</ele><time>2026-05-01T06:30:16Z</time></trkpt><trkpt lat="45.81071152479387" lon="8.77092380018751"><ele>251.5</ele><time>2026-05-01T06:30:17Z</time></trkpt><trkpt lat="45.81067675952412" lon="8.77125119522715"><ele>253.0</ele><time>2026-05-01T06:30:18Z</time></trkpt><trkpt lat="45.810639067705964" lon="8.771579386958155"><ele>256.0</ele><time>2026-05-01T06:30:19Z</time></trkpt><trkpt lat="45.810594203859814" lon="8.77190333479769"><ele>259.0</ele><time>2026-05-01T06:30:20Z</time></trkpt><trkpt lat="45.81053692687626" lon="8.772230962387344"><ele>259.0</ele><time>2026-05-01T06:30:21Z</time></trkpt><trkpt lat="45.810464367245594" lon="8.772553672964944"><ele>259.0</ele><time>2026-05-01T06:30:22Z</time></trkpt><trkpt lat="45.81037768364101" lon="8.772865430838884"><ele>260.0</ele><time>2026-05-01T06:30:23Z</time></trkpt><trkpt lat="45.81027910987254" lon="8.77317382306543"><ele>261.0</ele><time>2026-05-01T06:30:24Z</time></trkpt><trkpt lat="45.81018583898829" lon="8.77348765982811"><ele>255.5</ele><time>2026-05-01T06:30:25Z</time></trkpt><trkpt lat="45.81009110448734" lon="8.773801848138797"><ele>250.0</ele><time>2026-05-01T06:30:26Z</time></trkpt><trkpt lat="45.80999955501726" lon="8.7741145186762"><ele>252.0</ele><time>2026-05-01T06:30:27Z</time></trkpt><trkpt lat="45.80991059735264" lon="8.774428538777688"><ele>254.0</ele><time>2026-05-01T06:30:28Z</time></trkpt><trkpt lat="45.80982204644947" lon="8.774743797518314"><ele>254.0</ele><time>2026-05-01T06:30:29Z</time></trkpt><trkpt lat="45.8097332772309" lon="8.775056147119123"><ele>254.0</ele><time>2026-05-01T06:30:30Z</time></trkpt><trkpt lat="45.80964635484504" lon="8.77536130537159"><ele>256.0</ele><time>2026-05-01T06:30:31Z</time></trkpt><trkpt lat="45.80955679448192" lon="8.775668897226632"><ele>258.0</ele><time>2026-05-01T06:30:32Z</time></trkpt><trkpt lat="45.80946642441102" lon="8.775973382107566"><ele>260.5</ele><time>2026-05-01T06:30:33Z</time></trkpt><trkpt lat="45.8093812277681" lon="8.77627398969895"><ele>263.0</ele><time>2026-05-01T06:30:34Z</time></trkpt><trkpt lat="45.80930359381342" lon="8.77657786955179"><ele>260.0</ele><time>2026-05-01T06:30:35Z</time></trkpt><trkpt lat="45.80923780839013" lon="8.776887151513392"><ele>257.0</ele><time>2026-05-01T06:30:36Z</time></trkpt><trkpt lat="45.80918956043904" lon="8.777205010192267"><ele>257.0</ele><time>2026-05-01T06:30:37Z</time></trkpt><trkpt lat="45.809154705917464" lon="8.77752831824727"><ele>257.0</ele><time>2026-05-01T06:30:38Z</time></trkpt><trkpt lat="45.80912205752619" lon="8.777855223462241"><ele>258.5</ele><time>2026-05-01T06:30:39Z</time></trkpt><trkpt lat="45.80908843097029" lon="8.778180784250758"><ele>260.0</ele><time>2026-05-01T06:30:40Z</time></trkpt><trkpt lat="45.80905391023017" lon="8.778498217669584"><ele>260.5</ele><time>2026-05-01T06:30:41Z</time></trkpt><trkpt lat="45.80901637703874" lon="8.778826824977285"><ele>261.0</ele><time>2026-05-01T06:30:42Z</time></trkpt><trkpt lat="45.808974262290306" lon="8.779150442939521"><ele>259.5</ele><time>2026-05-01T06:30:43Z</time></trkpt><trkpt lat="45.808933637231014" lon="8.77947904572508"><ele>258.0</ele><time>2026-05-01T06:30:44Z</time></trkpt><trkpt lat="45.80889438698254" lon="8.779803488754975"><ele>258.0</ele><time>2026-05-01T06:30:44.999Z</time></trkpt><trkpt lat="45.80885459454139" lon="8.780131287104277"><ele>258.0</ele><time>2026-05-01T06:30:45.999Z</time></trkpt><trkpt lat="45.808819127867494" lon="8.780456781187661"><ele>258.0</ele><time>2026-05-01T06:30:46.999Z</time></trkpt><trkpt lat="45.80878073786405" lon="8.780786234234924"><ele>258.0</ele><time>2026-05-01T06:30:47.999Z</time></trkpt><trkpt lat="45.80873925511006" lon="8.781103812146794"><ele>258.0</ele><time>2026-05-01T06:30:48.999Z</time></trkpt><trkpt lat="45.808684238370866" lon="8.781420077128319"><ele>258.0</ele><time>2026-05-01T06:30:49.999Z</time></trkpt><trkpt lat="45.8086132226718" lon="8.781731261161632"><ele>258.0</ele><time>2026-05-01T06:30:50.999Z</time></trkpt><trkpt lat="45.808526876391376" lon="8.782036299626652"><ele>258.0</ele><time>2026-05-01T06:30:51.999Z</time></trkpt><trkpt lat="45.80842493397864" lon="8.782331273771316"><ele>258.0</ele><time>2026-05-01T06:30:52.999Z</time></trkpt><trkpt lat="45.808294068803704" lon="8.782601519477799"><ele>258.0</ele><time>2026-05-01T06:30:53.999Z</time></trkpt><trkpt lat="45.80818643645893" lon="8.782896722930772"><ele>258.0</ele><time>2026-05-01T06:30:54.999Z</time></trkpt><trkpt lat="45.808061549401096" lon="8.783168797648557"><ele>258.0</ele><time>2026-05-01T06:30:55.999Z</time></trkpt><trkpt lat="45.807940957910695" lon="8.783443100857461"><ele>258.0</ele><time>2026-05-01T06:30:56.999Z</time></trkpt><trkpt lat="45.80782652384238" lon="8.783702900381256"><ele>258.0</ele><time>2026-05-01T06:30:57.999Z</time></trkpt><trkpt lat="45.80769986011444" lon="8.783953428302345"><ele>258.0</ele><time>2026-05-01T06:30:58.999Z</time></trkpt><trkpt lat="45.807576931761325" lon="8.784192055488877"><ele>258.0</ele><time>2026-05-01T06:30:59.999Z</time></trkpt><trkpt lat="45.807542945686784" lon="8.78438907468514"><ele>258.0</ele><time>2026-05-01T06:31:00.999Z</time></trkpt><trkpt lat="45.80746170932779" lon="8.784575358819623"><ele>258.0</ele><time>2026-05-01T06:31:01.999Z</time></trkpt><trkpt lat="45.80738715399029" lon="8.784736623848477"><ele>258.0</ele><time>2026-05-01T06:31:02.999Z</time></trkpt><trkpt lat="45.80731165431174" lon="8.784891150959641"><ele>258.0</ele><time>2026-05-01T06:31:03.999Z</time></trkpt><trkpt lat="45.8072408178762" lon="8.785027521630083"><ele>258.0</ele><time>2026-05-01T06:31:04.999Z</time></trkpt><trkpt lat="45.80715834329853" lon="8.78513634962195"><ele>258.0</ele><time>2026-05-01T06:31:05.999Z</time></trkpt><trkpt lat="45.80706677885649" lon="8.785234098066303"><ele>258.0</ele><time>2026-05-01T06:31:06.999Z</time></trkpt><trkpt lat="45.806994319911" lon="8.785363124440083"><ele>258.0</ele><time>2026-05-01T06:31:07.999Z</time></trkpt><trkpt lat="45.80695528039904" lon="8.785536405809658"><ele>258.0</ele><time>2026-05-01T06:31:08.999Z</time></trkpt><trkpt lat="45.806940583582005" lon="8.785729270200171"><ele>258.0</ele><time>2026-05-01T06:31:09.999Z</time></trkpt><trkpt lat="45.806892298957635" lon="8.785926246595631"><ele>258.0</ele><time>2026-05-01T06:31:10.999Z</time></trkpt><trkpt lat="45.8068151874242" lon="8.786121461615439"><ele>258.5</ele><time>2026-05-01T06:31:11.999Z</time></trkpt><trkpt lat="45.806741566859415" lon="8.786304497380147"><ele>259.0</ele><time>2026-05-01T06:31:12.999Z</time></trkpt><trkpt lat="45.80667225933889" lon="8.786462672580257"><ele>259.5</ele><time>2026-05-01T06:31:13.999Z</time></trkpt><trkpt lat="45.80660513285338" lon="8.786601914864645"><ele>260.0</ele><time>2026-05-01T06:31:14.999Z</time></trkpt><trkpt lat="45.806517272512465" lon="8.786702009875953"><ele>260.0</ele><time>2026-05-01T06:31:15.999Z</time></trkpt><trkpt lat="45.806437150266476" lon="8.78679576061359"><ele>260.0</ele><time>2026-05-01T06:31:16.999Z</time></trkpt><trkpt lat="45.806388509855864" lon="8.786934207154504"><ele>260.0</ele><time>2026-05-01T06:31:17.999Z</time></trkpt><trkpt lat="45.80637802954143" lon="8.787115156691462"><ele>260.0</ele><time>2026-05-01T06:31:18.999Z</time></trkpt><trkpt lat="45.806381978768805" lon="8.78731544124483"><ele>260.6666666666667</ele><time>2026-05-01T06:31:19.999Z</time></trkpt><trkpt lat="45.80637429288006" lon="8.78753800916312"><ele>261.3333333333333</ele><time>2026-05-01T06:31:20.999Z</time></trkpt><trkpt lat="45.806332103344786" lon="8.787752917362253"><ele>262.0</ele><time>2026-05-01T06:31:21.999Z</time></trkpt><trkpt lat="45.806291822102985" lon="8.78794400515772"><ele>262.66666666666663</ele><time>2026-05-01T06:31:22.999Z</time></trkpt><trkpt lat="45.806234498340004" lon="8.788220491690682"><ele>263.3333333333333</ele><time>2026-05-01T06:31:23.999Z</time></trkpt><trkpt lat="45.806189931893876" lon="8.78851899506771"><ele>264.0</ele><time>2026-05-01T06:31:24.999Z</time></trkpt><trkpt lat="45.80613948488307" lon="8.78879028609568"><ele>264.3333333333333</ele><time>2026-05-01T06:31:25.999Z</time></trkpt><trkpt lat="45.80609679415925" lon="8.789073588233775"><ele>264.66666666666663</ele><time>2026-05-01T06:31:26.999Z</time></trkpt><trkpt lat="45.80605888554467" lon="8.789344458422844"><ele>265.0</ele><time>2026-05-01T06:31:27.999Z</time></trkpt><trkpt lat="45.80602404030085" lon="8.789625692260325"><ele>267.3333333333333</ele><time>2026-05-01T06:31:28.999Z</time></trkpt><trkpt lat="45.80599815069909" lon="8.78991899403527"><ele>269.6666666666667</ele><time>2026-05-01T06:31:29.999Z</time></trkpt><trkpt lat="45.8059783611374" lon="8.790221000477061"><ele>272.0</ele><time>2026-05-01T06:31:30.999Z</time></trkpt><trkpt lat="45.80596507096995" lon="8.790524955429248"><ele>268.0</ele><time>2026-05-01T06:31:31.999Z</time></trkpt><trkpt lat="45.805955748593114" lon="8.790828068607603"><ele>264.0</ele><time>2026-05-01T06:31:32.999Z</time></trkpt><trkpt lat="45.80595764232995" lon="8.791137693556955"><ele>260.0</ele><time>2026-05-01T06:31:33.999Z</time></trkpt><trkpt lat="45.805964982556866" lon="8.79145280554743"><ele>260.0</ele><time>2026-05-01T06:31:34.999Z</time></trkpt><trkpt lat="45.805971123185415" lon="8.79176470299442"><ele>260.0</ele><time>2026-05-01T06:31:35.999Z</time></trkpt><trkpt lat="45.80598753400012" lon="8.792080437655125"><ele>260.0</ele><time>2026-05-01T06:31:36.999Z</time></trkpt><trkpt lat="45.80600905943221" lon="8.792402311407692"><ele>270.5</ele><time>2026-05-01T06:31:37.999Z</time></trkpt><trkpt lat="45.80603274053511" lon="8.792732732357818"><ele>281.0</ele><time>2026-05-01T06:31:38.999Z</time></trkpt><trkpt lat="45.806053512080915" lon="8.793066427090759"><ele>281.0</ele><time>2026-05-01T06:31:39.999Z</time></trkpt><trkpt lat="45.80607041679795" lon="8.79340262716609"><ele>281.0</ele><time>2026-05-01T06:31:40.999Z</time></trkpt><trkpt lat="45.80607966316378" lon="8.793736422029843"><ele>281.5</ele><time>2026-05-01T06:31:41.999Z</time></trkpt><trkpt lat="45.806051622097016" lon="8.79406598223826"><ele>282.0</ele><time>2026-05-01T06:31:42.999Z</time></trkpt><trkpt lat="45.80600998318559" lon="8.794393655689653"><ele>271.0</ele><time>2026-05-01T06:31:43.999Z</time></trkpt><trkpt lat="45.80594650782188" lon="8.794706708117129"><ele>260.0</ele><time>2026-05-01T06:31:44.999Z</time></trkpt><trkpt lat="45.80586812689612" lon="8.79501142544667"><ele>262.0</ele><time>2026-05-01T06:31:45.999Z</time></trkpt><trkpt lat="45.80577436883021" lon="8.795321734987585"><ele>264.0</ele><time>2026-05-01T06:31:46.998Z</time></trkpt><trkpt lat="45.80566849747931" lon="8.795623715689889"><ele>264.0</ele><time>2026-05-01T06:31:47.998Z</time></trkpt><trkpt lat="45.80556345515574" lon="8.795933771571198"><ele>264.0</ele><time>2026-05-01T06:31:48.998Z</time></trkpt><trkpt lat="45.805457729840654" lon="8.79624635787649"><ele>263.5</ele><time>2026-05-01T06:31:49.998Z</time></trkpt><trkpt lat="45.805356605498574" lon="8.796559907192444"><ele>263.0</ele><time>2026-05-01T06:31:50.998Z</time></trkpt><trkpt lat="45.80525469661919" lon="8.796869205331445"><ele>256.5</ele><time>2026-05-01T06:31:51.998Z</time></trkpt><trkpt lat="45.805155714917156" lon="8.79717654624246"><ele>250.0</ele><time>2026-05-01T06:31:52.998Z</time></trkpt><trkpt lat="45.80505903431187" lon="8.79748714709073"><ele>249.5</ele><time>2026-05-01T06:31:53.998Z</time></trkpt><trkpt lat="45.80496124993987" lon="8.797788827168171"><ele>249.0</ele><time>2026-05-01T06:31:54.998Z</time></trkpt><trkpt lat="45.804864501011984" lon="8.798088792016447"><ele>249.0</ele><time>2026-05-01T06:31:55.998Z</time></trkpt><trkpt lat="45.80476663819351" lon="8.798384872144878"><ele>249.0</ele><time>2026-05-01T06:31:56.998Z</time></trkpt><trkpt lat="45.80467346451785" lon="8.798690871899359"><ele>249.0</ele><time>2026-05-01T06:31:57.998Z</time></trkpt><trkpt lat="45.80457583115004" lon="8.798981598491375"><ele>249.0</ele><time>2026-05-01T06:31:58.998Z</time></trkpt><trkpt lat="45.80447836403839" lon="8.799278445540274"><ele>250.0</ele><time>2026-05-01T06:32:00Z</time></trkpt><trkpt lat="45.8043817889348" lon="8.799575945824492"><ele>251.0</ele><time>2026-05-01T06:32:01Z</time></trkpt><trkpt lat="45.80434711881829" lon="8.79989471284255"><ele>250.66666666666669</ele><time>2026-05-01T06:32:02Z</time></trkpt><trkpt lat="45.80426385225083" lon="8.800183500096157"><ele>250.33333333333331</ele><time>2026-05-01T06:32:03Z</time></trkpt><trkpt lat="45.80417978069559" lon="8.800479044616441"><ele>250.0</ele><time>2026-05-01T06:32:04Z</time></trkpt><trkpt lat="45.804069510117195" lon="8.800846337312636"><ele>249.66666666666666</ele><time>2026-05-01T06:32:05Z</time></trkpt><trkpt lat="45.80401176664422" lon="8.801012682988318"><ele>249.33333333333331</ele><time>2026-05-01T06:32:06Z</time></trkpt><trkpt lat="45.80377715643873" lon="8.801171543055787"><ele>249.0</ele><time>2026-05-01T06:32:07Z</time></trkpt><trkpt lat="45.803655550596396" lon="8.801370054757925"><ele>249.0</ele><time>2026-05-01T06:32:08Z</time></trkpt><trkpt lat="45.80353753365567" lon="8.801558630019006"><ele>249.0</ele><time>2026-05-01T06:32:09Z</time></trkpt><trkpt lat="45.803424587934266" lon="8.801721542012258"><ele>249.0</ele><time>2026-05-01T06:32:10Z</time></trkpt><trkpt lat="45.803319463655434" lon="8.80186161828369"><ele>248.5</ele><time>2026-05-01T06:32:11Z</time></trkpt><trkpt lat="45.80321669554282" lon="8.801972308245155"><ele>248.0</ele><time>2026-05-01T06:32:12Z</time></trkpt><trkpt lat="45.803104572625344" lon="8.802053647200955"><ele>247.5</ele><time>2026-05-01T06:32:13Z</time></trkpt><trkpt lat="45.80299495942115" lon="8.802087545442266"><ele>247.0</ele><time>2026-05-01T06:32:14Z</time></trkpt><trkpt lat="45.802912106440544" lon="8.802119371495282"><ele>246.99999999999997</ele><time>2026-05-01T06:32:15Z</time></trkpt><trkpt lat="45.80286475611806" lon="8.802183962056828"><ele>247.0</ele><time>2026-05-01T06:32:16Z</time></trkpt><trkpt lat="45.80284134276112" lon="8.802276130751958"><ele>247.0</ele><time>2026-05-01T06:32:17Z</time></trkpt><trkpt lat="45.80286088673737" lon="8.80238355089403"><ele>247.0</ele><time>2026-05-01T06:32:18Z</time></trkpt><trkpt lat="45.80292142067421" lon="8.802485692791098"><ele>246.99999999999997</ele><time>2026-05-01T06:32:19Z</time></trkpt><trkpt lat="45.80301203697004" lon="8.802564641301887"><ele>247.0</ele><time>2026-05-01T06:32:20Z</time></trkpt><trkpt lat="45.80312239808329" lon="8.802617267084054"><ele>247.0</ele><time>2026-05-01T06:32:21Z</time></trkpt><trkpt lat="45.803235706722845" lon="8.802703758758833"><ele>247.0</ele><time>2026-05-01T06:32:22Z</time></trkpt><trkpt lat="45.8033400156401" lon="8.802828330974817"><ele>247.0</ele><time>2026-05-01T06:32:23Z</time></trkpt><trkpt lat="45.80343716196055" lon="8.802976905363787"><ele>247.0</ele><time>2026-05-01T06:32:24Z</time></trkpt><trkpt lat="45.803532576124105" lon="8.80313528310068"><ele>247.0</ele><time>2026-05-01T06:32:25Z</time></trkpt><trkpt lat="45.80362849246618" lon="8.80330529714007"><ele>247.0</ele><time>2026-05-01T06:32:26Z</time></trkpt><trkpt lat="45.80371697197639" lon="8.803460316168268"><ele>247.0</ele><time>2026-05-01T06:32:27Z</time></trkpt><trkpt lat="45.803807275671524" lon="8.803620606894318"><ele>247.0</ele><time>2026-05-01T06:32:28Z</time></trkpt><trkpt lat="45.80390009045063" lon="8.803789099580719"><ele>247.0</ele><time>2026-05-01T06:32:29Z</time></trkpt><trkpt lat="45.80400109362071" lon="8.803956476387981"><ele>247.0</ele><time>2026-05-01T06:32:30Z</time></trkpt><trkpt lat="45.804108481448566" lon="8.804120694213653"><ele>247.0</ele><time>2026-05-01T06:32:31Z</time></trkpt><trkpt lat="45.80421625260382" lon="8.804282833484088"><ele>248.33333333333331</ele><time>2026-05-01T06:32:32Z</time></trkpt><trkpt lat="45.80432483175011" lon="8.804451995219784"><ele>249.66666666666669</ele><time>2026-05-01T06:32:33Z</time></trkpt><trkpt lat="45.80443246453483" lon="8.804623836577132"><ele>251.0</ele><time>2026-05-01T06:32:34Z</time></trkpt><trkpt lat="45.8045393670125" lon="8.804791529431942"><ele>255.66666666666669</ele><time>2026-05-01T06:32:35Z</time></trkpt><trkpt lat="45.80464222180103" lon="8.804965844335284"><ele>260.3333333333333</ele><time>2026-05-01T06:32:36Z</time></trkpt><trkpt lat="45.804742944538695" lon="8.805128447004599"><ele>265.0</ele><time>2026-05-01T06:32:37Z</time></trkpt><trkpt lat="45.80484066855299" lon="8.805279636670374"><ele>265.0</ele><time>2026-05-01T06:32:38Z</time></trkpt><trkpt lat="45.80491617555979" lon="8.805431324699958"><ele>265.0</ele><time>2026-05-01T06:32:39Z</time></trkpt><trkpt lat="45.80495198844614" lon="8.805599341674773"><ele>265.0</ele><time>2026-05-01T06:32:40Z</time></trkpt><trkpt lat="45.804945192432335" lon="8.805796850897815"><ele>265.0</ele><time>2026-05-01T06:32:41Z</time></trkpt><trkpt lat="45.80491683125579" lon="8.806004485438557"><ele>266.3333333333333</ele><time>2026-05-01T06:32:42Z</time></trkpt><trkpt lat="45.80489391100932" lon="8.806232323528112"><ele>267.6666666666667</ele><time>2026-05-01T06:32:43Z</time></trkpt><trkpt lat="45.804839720811266" lon="8.80646875398446"><ele>269.0</ele><time>2026-05-01T06:32:44Z</time></trkpt><trkpt lat="45.80482586271828" lon="8.806708833616016"><ele>269.33333333333337</ele><time>2026-05-01T06:32:45Z</time></trkpt><trkpt lat="45.80480881597268" lon="8.80695228847153"><ele>269.6666666666667</ele><time>2026-05-01T06:32:46Z</time></trkpt><trkpt lat="45.804792927935935" lon="8.807184943835479"><ele>270.0</ele><time>2026-05-01T06:32:47Z</time></trkpt><trkpt lat="45.80478381535031" lon="8.807435251793455"><ele>270.0</ele><time>2026-05-01T06:32:47.999Z</time></trkpt><trkpt lat="45.80477220705658" lon="8.807721673449038"><ele>270.0</ele><time>2026-05-01T06:32:48.999Z</time></trkpt><trkpt lat="45.80477587634991" lon="8.80793545097366"><ele>270.0</ele><time>2026-05-01T06:32:49.999Z</time></trkpt><trkpt lat="45.804834690454356" lon="8.808107919658292"><ele>270.0</ele><time>2026-05-01T06:32:51.999Z</time></trkpt><trkpt lat="45.80490829770468" lon="8.808244162050997"><ele>270.0</ele><time>2026-05-01T06:32:52.999Z</time></trkpt><trkpt lat="45.805011472721745" lon="8.808341318743759"><ele>270.0</ele><time>2026-05-01T06:32:53.999Z</time></trkpt><trkpt lat="45.80512381666981" lon="8.808381126191456"><ele>270.0</ele><time>2026-05-01T06:32:54.999Z</time></trkpt><trkpt lat="45.805240689962005" lon="8.80835310396958"><ele>273.75</ele><time>2026-05-01T06:32:55.999Z</time></trkpt><trkpt lat="45.80533599435988" lon="8.808268665841265"><ele>277.5</ele><time>2026-05-01T06:32:56.999Z</time></trkpt><trkpt lat="45.805400797602495" lon="8.808115594840563"><ele>281.25</ele><time>2026-05-01T06:32:57.999Z</time></trkpt><trkpt lat="45.805425345446054" lon="8.807933094649963"><ele>285.0</ele><time>2026-05-01T06:32:58.999Z</time></trkpt><trkpt lat="45.8054285954098" lon="8.80773973751756"><ele>286.25</ele><time>2026-05-01T06:32:59.999Z</time></trkpt><trkpt lat="45.8054108291219" lon="8.807541497137064"><ele>287.5</ele><time>2026-05-01T06:33:00.999Z</time></trkpt><trkpt lat="45.80539069133335" lon="8.807333295297317"><ele>288.75</ele><time>2026-05-01T06:33:01.999Z</time></trkpt><trkpt lat="45.80540074051519" lon="8.807142834134169"><ele>290.0</ele><time>2026-05-01T06:33:02.999Z</time></trkpt><trkpt lat="45.80543533661851" lon="8.806959731819587"><ele>288.75</ele><time>2026-05-01T06:33:03.999Z</time></trkpt><trkpt lat="45.80551021826898" lon="8.806780575668785"><ele>287.5</ele><time>2026-05-01T06:33:04.999Z</time></trkpt><trkpt lat="45.80556317593859" lon="8.806633534179674"><ele>286.25</ele><time>2026-05-01T06:33:05.999Z</time></trkpt><trkpt lat="45.805628653776495" lon="8.806519704367698"><ele>285.0</ele><time>2026-05-01T06:33:06.999Z</time></trkpt><trkpt lat="45.805706956058614" lon="8.806454428618972"><ele>285.0</ele><time>2026-05-01T06:33:07.999Z</time></trkpt><trkpt lat="45.80579753782891" lon="8.806432113208054"><ele>285.0</ele><time>2026-05-01T06:33:08.999Z</time></trkpt><trkpt lat="45.80589129481498" lon="8.806477643818182"><ele>285.0</ele><time>2026-05-01T06:33:09.999Z</time></trkpt><trkpt lat="45.80594719995892" lon="8.80655885904319"><ele>285.0</ele><time>2026-05-01T06:33:10.999Z</time></trkpt><trkpt lat="45.80594644721371" lon="8.806679334904667"><ele>285.0</ele><time>2026-05-01T06:33:11.999Z</time></trkpt><trkpt lat="45.80592691733287" lon="8.806820272656463"><ele>286.25</ele><time>2026-05-01T06:33:12.999Z</time></trkpt><trkpt lat="45.8059078409442" lon="8.806964025557555"><ele>287.5</ele><time>2026-05-01T06:33:13.999Z</time></trkpt><trkpt lat="45.80589755853181" lon="8.807126123880332"><ele>288.75</ele><time>2026-05-01T06:33:14.999Z</time></trkpt><trkpt lat="45.80589695374932" lon="8.807304895470061"><ele>290.0</ele><time>2026-05-01T06:33:15.999Z</time></trkpt><trkpt lat="45.805881400506166" lon="8.807532280363448"><ele>288.75</ele><time>2026-05-01T06:33:16.999Z</time></trkpt><trkpt lat="45.80588688909881" lon="8.807771601482155"><ele>287.5</ele><time>2026-05-01T06:33:17.999Z</time></trkpt><trkpt lat="45.80588913248254" lon="8.80794046904028"><ele>286.25</ele><time>2026-05-01T06:33:18.999Z</time></trkpt><trkpt lat="45.80602626966358" lon="8.807937165754002"><ele>285.0</ele><time>2026-05-01T06:33:20.999Z</time></trkpt><trkpt lat="45.806129906205165" lon="8.807920870099375"><ele>287.75</ele><time>2026-05-01T06:33:21.999Z</time></trkpt><trkpt lat="45.80624593612988" lon="8.807885146033488"><ele>290.5</ele><time>2026-05-01T06:33:22.999Z</time></trkpt><trkpt lat="45.806360386572926" lon="8.807852928063298"><ele>293.25</ele><time>2026-05-01T06:33:23.999Z</time></trkpt><trkpt lat="45.80647050796574" lon="8.807812281896163"><ele>296.0</ele><time>2026-05-01T06:33:24.999Z</time></trkpt><trkpt lat="45.806564995219546" lon="8.807738408388525"><ele>297.25</ele><time>2026-05-01T06:33:25.999Z</time></trkpt><trkpt lat="45.80663439614368" lon="8.807621962543623"><ele>298.5</ele><time>2026-05-01T06:33:26.999Z</time></trkpt><trkpt lat="45.80666287262766" lon="8.8074625318566"><ele>299.75</ele><time>2026-05-01T06:33:27.999Z</time></trkpt><trkpt lat="45.80666902172253" lon="8.807263698500131"><ele>301.0</ele><time>2026-05-01T06:33:28.999Z</time></trkpt><trkpt lat="45.80670201615977" lon="8.807004119920055"><ele>301.0</ele><time>2026-05-01T06:33:29.999Z</time></trkpt><trkpt lat="45.80672412406964" lon="8.806798553673852"><ele>301.0</ele><time>2026-05-01T06:33:30.999Z</time></trkpt><trkpt lat="45.80669474415953" lon="8.806608610433331"><ele>301.0</ele><time>2026-05-01T06:33:31.999Z</time></trkpt><trkpt lat="45.80670176060337" lon="8.806372965917177"><ele>301.0</ele><time>2026-05-01T06:33:32.999Z</time></trkpt><trkpt lat="45.80671088300682" lon="8.806149423247556"><ele>300.66666666666663</ele><time>2026-05-01T06:33:33.999Z</time></trkpt><trkpt lat="45.806726337208424" lon="8.805923413118013"><ele>300.3333333333333</ele><time>2026-05-01T06:33:34.999Z</time></trkpt><trkpt lat="45.806747179244056" lon="8.805684080288401"><ele>300.0</ele><time>2026-05-01T06:33:35.999Z</time></trkpt><trkpt lat="45.80678238066698" lon="8.805452960649943"><ele>304.6666666666667</ele><time>2026-05-01T06:33:36.999Z</time></trkpt><trkpt lat="45.80684665806245" lon="8.805228406123533"><ele>309.33333333333337</ele><time>2026-05-01T06:33:37.999Z</time></trkpt><trkpt lat="45.80689295550309" lon="8.804994755753706"><ele>314.0</ele><time>2026-05-01T06:33:38.999Z</time></trkpt><trkpt lat="45.80694644372167" lon="8.80478485110958"><ele>314.0</ele><time>2026-05-01T06:33:39.999Z</time></trkpt><trkpt lat="45.80701506634942" lon="8.804594054333084"><ele>314.0</ele><time>2026-05-01T06:33:40.999Z</time></trkpt><trkpt lat="45.80708630658815" lon="8.804439975316928"><ele>314.0</ele><time>2026-05-01T06:33:41.999Z</time></trkpt><trkpt lat="45.80718698892048" lon="8.804310360715075"><ele>314.0</ele><time>2026-05-01T06:33:42.999Z</time></trkpt><trkpt lat="45.807298201224285" lon="8.804195490821776"><ele>314.0</ele><time>2026-05-01T06:33:43.999Z</time></trkpt><trkpt lat="45.80740735052116" lon="8.804095678250421"><ele>314.0</ele><time>2026-05-01T06:33:44.999Z</time></trkpt><trkpt lat="45.807539695986975" lon="8.803989471560858"><ele>314.0</ele><time>2026-05-01T06:33:45.999Z</time></trkpt><trkpt lat="45.807665088987385" lon="8.803888542744975"><ele>314.0</ele><time>2026-05-01T06:33:46.999Z</time></trkpt><trkpt lat="45.807784360123826" lon="8.80385736066452"><ele>316.6</ele><time>2026-05-01T06:33:47.999Z</time></trkpt><trkpt lat="45.80788254057173" lon="8.803828443453902"><ele>319.2</ele><time>2026-05-01T06:33:48.999Z</time></trkpt><trkpt lat="45.80797304538824" lon="8.803823660237471"><ele>321.8</ele><time>2026-05-01T06:33:49.998Z</time></trkpt><trkpt lat="45.80805674364763" lon="8.80387117721005"><ele>324.40000000000003</ele><time>2026-05-01T06:33:50.998Z</time></trkpt><trkpt lat="45.808141098372744" lon="8.803948174581937"><ele>327.0</ele><time>2026-05-01T06:33:51.998Z</time></trkpt><trkpt lat="45.80822750947782" lon="8.804045733906896"><ele>327.0</ele><time>2026-05-01T06:33:52.998Z</time></trkpt><trkpt lat="45.80831476867702" lon="8.80416054161253"><ele>327.0</ele><time>2026-05-01T06:33:53.998Z</time></trkpt><trkpt lat="45.808380423335535" lon="8.804283200178723"><ele>327.0</ele><time>2026-05-01T06:33:54.998Z</time></trkpt><trkpt lat="45.80844474153642" lon="8.804394823675507"><ele>327.0</ele><time>2026-05-01T06:33:55.998Z</time></trkpt><trkpt lat="45.80853011759996" lon="8.804607889765729"><ele>328.5</ele><time>2026-05-01T06:33:56.998Z</time></trkpt><trkpt lat="45.808593977984714" lon="8.804800762065012"><ele>330.0</ele><time>2026-05-01T06:33:57.998Z</time></trkpt><trkpt lat="45.80865943641471" lon="8.804970824306405"><ele>331.5</ele><time>2026-05-01T06:33:58.998Z</time></trkpt><trkpt lat="45.808722864088864" lon="8.805153018962457"><ele>333.0</ele><time>2026-05-01T06:33:59.998Z</time></trkpt><trkpt lat="45.808787720365856" lon="8.805335064397527"><ele>333.0</ele><time>2026-05-01T06:34:00.998Z</time></trkpt><trkpt lat="45.80885677806885" lon="8.805531266840292"><ele>333.0</ele><time>2026-05-01T06:34:01.998Z</time></trkpt><trkpt lat="45.80892484041642" lon="8.805712111313484"><ele>333.0</ele><time>2026-05-01T06:34:02.998Z</time></trkpt><trkpt lat="45.80897205313079" lon="8.805827684728365"><ele>333.0</ele><time>2026-05-01T06:34:03.998Z</time></trkpt><trkpt lat="45.80902732030851" lon="8.805974939254163"><ele>333.0</ele><time>2026-05-01T06:34:04.998Z</time></trkpt><trkpt lat="45.809100155778836" lon="8.806234466178234"><ele>333.0</ele><time>2026-05-01T06:34:06Z</time></trkpt><trkpt lat="45.80921891019732" lon="8.806541974695945"><ele>333.0</ele><time>2026-05-01T06:34:07Z</time></trkpt><trkpt lat="45.80931507025233" lon="8.806771977698986"><ele>335.3333333333333</ele><time>2026-05-01T06:34:08Z</time></trkpt><trkpt lat="45.809419528495596" lon="8.806946639368821"><ele>337.66666666666663</ele><time>2026-05-01T06:34:09Z</time></trkpt><trkpt lat="45.8095543830371" lon="8.807092727167653"><ele>340.0</ele><time>2026-05-01T06:34:10Z</time></trkpt><trkpt lat="45.809694839530756" lon="8.807207146501538"><ele>340.0</ele><time>2026-05-01T06:34:11Z</time></trkpt><trkpt lat="45.809841407622045" lon="8.80729860089285"><ele>340.0</ele><time>2026-05-01T06:34:12Z</time></trkpt><trkpt lat="45.80999670490261" lon="8.807355716924707"><ele>340.0</ele><time>2026-05-01T06:34:13Z</time></trkpt><trkpt lat="45.810147175722165" lon="8.807398063915603"><ele>341.0</ele><time>2026-05-01T06:34:14Z</time></trkpt><trkpt lat="45.81030508373961" lon="8.807435000975115"><ele>342.0</ele><time>2026-05-01T06:34:15Z</time></trkpt><trkpt lat="45.81045988685826" lon="8.80750550632122"><ele>343.0</ele><time>2026-05-01T06:34:16Z</time></trkpt><trkpt lat="45.81062165210999" lon="8.807562581178656"><ele>343.0</ele><time>2026-05-01T06:34:17Z</time></trkpt><trkpt lat="45.81078454464974" lon="8.807601855544222"><ele>343.0</ele><time>2026-05-01T06:34:18Z</time></trkpt><trkpt lat="45.81094593221654" lon="8.807671182080336"><ele>343.0</ele><time>2026-05-01T06:34:19Z</time></trkpt><trkpt lat="45.811103362628785" lon="8.807736882989829"><ele>344.0</ele><time>2026-05-01T06:34:20Z</time></trkpt><trkpt lat="45.81123257255818" lon="8.807811283638697"><ele>345.0</ele><time>2026-05-01T06:34:21Z</time></trkpt><trkpt lat="45.81132902409524" lon="8.807911211132994"><ele>346.0</ele><time>2026-05-01T06:34:22Z</time></trkpt><trkpt lat="45.81147413131241" lon="8.808034911971522"><ele>347.0</ele><time>2026-05-01T06:34:23Z</time></trkpt><trkpt lat="45.81158984443192" lon="8.808185357766511"><ele>347.0</ele><time>2026-05-01T06:34:24Z</time></trkpt><trkpt lat="45.811689294817846" lon="8.808372430130207"><ele>347.0</ele><time>2026-05-01T06:34:25Z</time></trkpt><trkpt lat="45.81176281599741" lon="8.808528024929917"><ele>347.0</ele><time>2026-05-01T06:34:26Z</time></trkpt><trkpt lat="45.811854624854284" lon="8.808632279933285"><ele>347.0</ele><time>2026-05-01T06:34:27Z</time></trkpt><trkpt lat="45.81195224055982" lon="8.808684809783285"><ele>347.6666666666667</ele><time>2026-05-01T06:34:28Z</time></trkpt><trkpt lat="45.81215639230885" lon="8.808721655156212"><ele>348.3333333333333</ele><time>2026-05-01T06:34:29Z</time></trkpt><trkpt lat="45.81234668492044" lon="8.808723978621666"><ele>349.0</ele><time>2026-05-01T06:34:30Z</time></trkpt><trkpt lat="45.81258051120881" lon="8.808777274011662"><ele>350.0</ele><time>2026-05-01T06:34:31Z</time></trkpt><trkpt lat="45.8128039678763" lon="8.808817106180166"><ele>351.0</ele><time>2026-05-01T06:34:32Z</time></trkpt><trkpt lat="45.8128964616325" lon="8.808833124723323"><ele>352.0</ele><time>2026-05-01T06:34:33Z</time></trkpt><trkpt lat="45.81303183309155" lon="8.808856569078694"><ele>352.0</ele><time>2026-05-01T06:34:34Z</time></trkpt><trkpt lat="45.81317516855025" lon="8.808881392684697"><ele>352.0</ele><time>2026-05-01T06:34:35Z</time></trkpt><trkpt lat="45.81331657604712" lon="8.808905882397854"><ele>352.0</ele><time>2026-05-01T06:34:36Z</time></trkpt><trkpt lat="45.81340994119341" lon="8.808933284071923"><ele>352.0</ele><time>2026-05-01T06:34:37Z</time></trkpt><trkpt lat="45.81350954562925" lon="8.808919404995194"><ele>352.8</ele><time>2026-05-01T06:34:38Z</time></trkpt><trkpt lat="45.813594568657805" lon="8.808927599590403"><ele>353.6</ele><time>2026-05-01T06:34:39Z</time></trkpt><trkpt lat="45.813667149274146" lon="8.808933360162841"><ele>354.40000000000003</ele><time>2026-05-01T06:34:40Z</time></trkpt><trkpt lat="45.81376660219022" lon="8.808981772366451"><ele>355.20000000000005</ele><time>2026-05-01T06:34:42Z</time></trkpt><trkpt lat="45.813823642196056" lon="8.809112873597993"><ele>356.0</ele><time>2026-05-01T06:34:44Z</time></trkpt><trkpt lat="45.81382486963663" lon="8.809232503309916"><ele>356.0</ele><time>2026-05-01T06:34:46Z</time></trkpt><trkpt lat="45.813918916895425" lon="8.809156312441504"><ele>356.0</ele><time>2026-05-01T06:34:50.999Z</time></trkpt><trkpt lat="45.81399674488774" lon="8.809012759070724"><ele>356.0</ele><time>2026-05-01T06:34:52.999Z</time></trkpt><trkpt lat="45.81406447716733" lon="8.808938540565554"><ele>356.0</ele><time>2026-05-01T06:34:53.999Z</time></trkpt><trkpt lat="45.8141985258247" lon="8.80895247048768"><ele>356.0</ele><time>2026-05-01T06:34:54.999Z</time></trkpt><trkpt lat="45.814265647642" lon="8.808974915727902"><ele>356.0</ele><time>2026-05-01T06:34:55.999Z</time></trkpt><trkpt lat="45.81436701678702" lon="8.809006746977092"><ele>356.0</ele><time>2026-05-01T06:34:56.999Z</time></trkpt><trkpt lat="45.81445322889924" lon="8.809045430893775"><ele>356.0</ele><time>2026-05-01T06:34:57.999Z</time></trkpt><trkpt lat="45.81454967321482" lon="8.80908227658072"><ele>356.0</ele><time>2026-05-01T06:34:58.999Z</time></trkpt><trkpt lat="45.814633105805605" lon="8.809097445114977"><ele>356.0</ele><time>2026-05-01T06:34:59.999Z</time></trkpt><trkpt lat="45.81472063769436" lon="8.809097262375714"><ele>356.4</ele><time>2026-05-01T06:35:00.999Z</time></trkpt><trkpt lat="45.81480423639066" lon="8.80909128593556"><ele>356.8</ele><time>2026-05-01T06:35:01.999Z</time></trkpt><trkpt lat="45.81489727559251" lon="8.809085869630055"><ele>357.2</ele><time>2026-05-01T06:35:02.999Z</time></trkpt><trkpt lat="45.81500041171474" lon="8.809080988323169"><ele>357.59999999999997</ele><time>2026-05-01T06:35:03.999Z</time></trkpt><trkpt lat="45.81511294108296" lon="8.809076981122576"><ele>358.0</ele><time>2026-05-01T06:35:04.999Z</time></trkpt><trkpt lat="45.81522585564781" lon="8.80907554365395"><ele>359.2</ele><time>2026-05-01T06:35:05.999Z</time></trkpt><trkpt lat="45.815335619976004" lon="8.809074656541469"><ele>360.4</ele><time>2026-05-01T06:35:06.999Z</time></trkpt><trkpt lat="45.815429755360384" lon="8.809075066155525"><ele>361.59999999999997</ele><time>2026-05-01T06:35:07.999Z</time></trkpt><trkpt lat="45.81551941663319" lon="8.809076822976076"><ele>362.79999999999995</ele><time>2026-05-01T06:35:08.999Z</time></trkpt><trkpt lat="45.8155896253375" lon="8.809078745812291"><ele>364.0</ele><time>2026-05-01T06:35:09.999Z</time></trkpt><trkpt lat="45.81569853676058" lon="8.809090387294352"><ele>364.0</ele><time>2026-05-01T06:35:11.999Z</time></trkpt><trkpt lat="45.81575093588125" lon="8.809142515072189"><ele>364.0</ele><time>2026-05-01T06:35:13.999Z</time></trkpt><trkpt lat="45.81579020738555" lon="8.809276428502113"><ele>364.0</ele><time>2026-05-01T06:35:15.999Z</time></trkpt><trkpt lat="45.81582426002647" lon="8.80945027629607"><ele>364.0</ele><time>2026-05-01T06:35:17.999Z</time></trkpt><trkpt lat="45.81582447364769" lon="8.809557669134696"><ele>364.0</ele><time>2026-05-01T06:35:18.999Z</time></trkpt><trkpt lat="45.815841615796856" lon="8.809689813676874"><ele>365.0</ele><time>2026-05-01T06:35:20.999Z</time></trkpt><trkpt lat="45.81586646500173" lon="8.809801929256823"><ele>366.0</ele><time>2026-05-01T06:35:23.999Z</time></trkpt><trkpt lat="45.81593899044853" lon="8.809773425711782"><ele>367.0</ele><time>2026-05-01T06:35:27.999Z</time></trkpt><trkpt lat="45.816091798277775" lon="8.810176718586018"><ele>367.0</ele><time>2026-05-01T06:35:28.999Z</time></trkpt><trkpt lat="45.815907965535246" lon="8.809530417885066"><ele>367.0</ele><time>2026-05-01T06:35:29.999Z</time></trkpt><trkpt lat="45.815863788769356" lon="8.80938995483804"><ele>367.0</ele><time>2026-05-01T06:35:30.999Z</time></trkpt><trkpt lat="45.8158224461148" lon="8.809232529958647"><ele>367.0</ele><time>2026-05-01T06:35:31.999Z</time></trkpt><trkpt lat="45.81579905733533" lon="8.809086849150578"><ele>367.0</ele><time>2026-05-01T06:35:32.999Z</time></trkpt><trkpt lat="45.815766685530335" lon="8.80891994870656"><ele>366.25</ele><time>2026-05-01T06:35:33.999Z</time></trkpt><trkpt lat="45.815736044173974" lon="8.808738627587795"><ele>365.5</ele><time>2026-05-01T06:35:34.999Z</time></trkpt><trkpt lat="45.815697167897504" lon="8.80854317320956"><ele>364.75</ele><time>2026-05-01T06:35:35.999Z</time></trkpt><trkpt lat="45.81566141515926" lon="8.8083556084446"><ele>364.0</ele><time>2026-05-01T06:35:36.999Z</time></trkpt><trkpt lat="45.81563003400552" lon="8.808181412479469"><ele>363.4</ele><time>2026-05-01T06:35:37.999Z</time></trkpt><trkpt lat="45.81559316803119" lon="8.808020245959192"><ele>362.79999999999995</ele><time>2026-05-01T06:35:38.999Z</time></trkpt><trkpt lat="45.81555999757811" lon="8.807868529438913"><ele>362.20000000000005</ele><time>2026-05-01T06:35:39.999Z</time></trkpt><trkpt lat="45.815528921995856" lon="8.807726645317517"><ele>361.6</ele><time>2026-05-01T06:35:40.999Z</time></trkpt><trkpt lat="45.815509504553006" lon="8.807605391946534"><ele>361.0</ele><time>2026-05-01T06:35:41.999Z</time></trkpt><trkpt lat="45.81550077577233" lon="8.807491003821315"><ele>360.8</ele><time>2026-05-01T06:35:42.999Z</time></trkpt><trkpt lat="45.81551509186726" lon="8.807395397832407"><ele>360.6</ele><time>2026-05-01T06:35:43.999Z</time></trkpt><trkpt lat="45.81554719387584" lon="8.807311103165555"><ele>360.4</ele><time>2026-05-01T06:35:44.999Z</time></trkpt><trkpt lat="45.81561418989674" lon="8.807168944631004"><ele>360.2</ele><time>2026-05-01T06:35:46.999Z</time></trkpt><trkpt lat="45.81559524726137" lon="8.806980196850288"><ele>360.0</ele><time>2026-05-01T06:35:48.999Z</time></trkpt><trkpt lat="45.81553634936573" lon="8.806906481896076"><ele>360.0</ele><time>2026-05-01T06:35:49.999Z</time></trkpt><trkpt lat="45.8154471532483" lon="8.806872702827592"><ele>360.0</ele><time>2026-05-01T06:35:50.999Z</time></trkpt><trkpt lat="45.81535427310723" lon="8.806906884152053"><ele>360.0</ele><time>2026-05-01T06:35:51.998Z</time></trkpt><trkpt lat="45.815285447463154" lon="8.807008825544562"><ele>360.0</ele><time>2026-05-01T06:35:52.998Z</time></trkpt><trkpt lat="45.81524887742488" lon="8.80715111751207"><ele>360.0</ele><time>2026-05-01T06:35:53.998Z</time></trkpt><trkpt lat="45.815218651442635" lon="8.807301749805271"><ele>359.25</ele><time>2026-05-01T06:35:54.998Z</time></trkpt><trkpt lat="45.815150109207266" lon="8.807427457475493"><ele>358.5</ele><time>2026-05-01T06:35:55.998Z</time></trkpt><trkpt lat="45.81504958083776" lon="8.807512477631164"><ele>357.75</ele><time>2026-05-01T06:35:56.998Z</time></trkpt><trkpt lat="45.81492774708813" lon="8.807560020378393"><ele>357.0</ele><time>2026-05-01T06:35:57.998Z</time></trkpt><trkpt lat="45.81480736980359" lon="8.807624823078987"><ele>357.5</ele><time>2026-05-01T06:35:58.998Z</time></trkpt><trkpt lat="45.81467806781876" lon="8.807688567161405"><ele>358.0</ele><time>2026-05-01T06:35:59.998Z</time></trkpt><trkpt lat="45.814556834603984" lon="8.80779619969703"><ele>358.5</ele><time>2026-05-01T06:36:00.998Z</time></trkpt><trkpt lat="45.814434585725245" lon="8.807919484309561"><ele>359.0</ele><time>2026-05-01T06:36:01.998Z</time></trkpt><trkpt lat="45.81433120020877" lon="8.80805569756979"><ele>358.25</ele><time>2026-05-01T06:36:02.998Z</time></trkpt><trkpt lat="45.81424482028178" lon="8.808187371521932"><ele>357.5</ele><time>2026-05-01T06:36:03.998Z</time></trkpt><trkpt lat="45.81416371922969" lon="8.808313265120812"><ele>356.75</ele><time>2026-05-01T06:36:04.998Z</time></trkpt><trkpt lat="45.81409836781382" lon="8.80842997757778"><ele>356.0</ele><time>2026-05-01T06:36:05.998Z</time></trkpt><trkpt lat="45.81402795442175" lon="8.808533526699925"><ele>356.0</ele><time>2026-05-01T06:36:06.998Z</time></trkpt><trkpt lat="45.81394295549594" lon="8.808598859525715"><ele>356.0</ele><time>2026-05-01T06:36:07.998Z</time></trkpt><trkpt lat="45.813852069394756" lon="8.808629596106453"><ele>356.0</ele><time>2026-05-01T06:36:08.998Z</time></trkpt><trkpt lat="45.813780541115264" lon="8.80869055981536"><ele>356.0</ele><time>2026-05-01T06:36:09.998Z</time></trkpt><trkpt lat="45.813744127641584" lon="8.808806698387121"><ele>356.0</ele><time>2026-05-01T06:36:10.998Z</time></trkpt><trkpt lat="45.81375012861498" lon="8.80895190985758"><ele>356.0</ele><time>2026-05-01T06:36:12Z</time></trkpt><trkpt lat="45.81383031946782" lon="8.809252717803808"><ele>356.0</ele><time>2026-05-01T06:36:14Z</time></trkpt><trkpt lat="45.81380126861609" lon="8.809406251279771"><ele>356.0</ele><time>2026-05-01T06:36:15Z</time></trkpt><trkpt lat="45.81373902942103" lon="8.80955227684687"><ele>356.0</ele><time>2026-05-01T06:36:16Z</time></trkpt><trkpt lat="45.81368301151145" lon="8.809663299708511"><ele>356.0</ele><time>2026-05-01T06:36:17Z</time></trkpt><trkpt lat="45.813610564084144" lon="8.809906037319587"><ele>356.0</ele><time>2026-05-01T06:36:18Z</time></trkpt><trkpt lat="45.81354957807271" lon="8.810111126339308"><ele>356.0</ele><time>2026-05-01T06:36:19Z</time></trkpt><trkpt lat="45.81348622981275" lon="8.810317738066988"><ele>356.0</ele><time>2026-05-01T06:36:20Z</time></trkpt><trkpt lat="45.81341880251038" lon="8.810535568283397"><ele>356.0</ele><time>2026-05-01T06:36:21Z</time></trkpt><trkpt lat="45.813355943193905" lon="8.810747865642291"><ele>356.0</ele><time>2026-05-01T06:36:22Z</time></trkpt><trkpt lat="45.81328814666489" lon="8.810944288342462"><ele>357.6666666666667</ele><time>2026-05-01T06:36:23Z</time></trkpt><trkpt lat="45.81321577973273" lon="8.811161507305936"><ele>359.3333333333333</ele><time>2026-05-01T06:36:24Z</time></trkpt><trkpt lat="45.81313992568813" lon="8.811392951715797"><ele>361.0</ele><time>2026-05-01T06:36:25Z</time></trkpt><trkpt lat="45.81306270962775" lon="8.811624240466386"><ele>361.66666666666663</ele><time>2026-05-01T06:36:26Z</time></trkpt><trkpt lat="45.81299040280626" lon="8.811861665531431"><ele>362.3333333333333</ele><time>2026-05-01T06:36:27Z</time></trkpt><trkpt lat="45.81291758096752" lon="8.812104834563376"><ele>363.0</ele><time>2026-05-01T06:36:28Z</time></trkpt><trkpt lat="45.81285580982193" lon="8.812356433068645"><ele>363.0</ele><time>2026-05-01T06:36:29Z</time></trkpt><trkpt lat="45.812804488821506" lon="8.812611192779908"><ele>363.0</ele><time>2026-05-01T06:36:30Z</time></trkpt><trkpt lat="45.81276134301782" lon="8.812878713682077"><ele>363.0</ele><time>2026-05-01T06:36:31Z</time></trkpt><trkpt lat="45.812729103195835" lon="8.813153044620707"><ele>363.0</ele><time>2026-05-01T06:36:32Z</time></trkpt><trkpt lat="45.81270437912573" lon="8.813431336239043"><ele>363.0</ele><time>2026-05-01T06:36:33Z</time></trkpt><trkpt lat="45.8126917086102" lon="8.813702067943362"><ele>363.0</ele><time>2026-05-01T06:36:34Z</time></trkpt><trkpt lat="45.81269662131156" lon="8.813947259930613"><ele>363.0</ele><time>2026-05-01T06:36:35Z</time></trkpt><trkpt lat="45.81268806188056" lon="8.814129355596602"><ele>363.0</ele><time>2026-05-01T06:36:36Z</time></trkpt><trkpt lat="45.81269442304002" lon="8.814292140939424"><ele>363.0</ele><time>2026-05-01T06:36:37Z</time></trkpt><trkpt lat="45.81271336009897" lon="8.814584598435674"><ele>363.0</ele><time>2026-05-01T06:36:38Z</time></trkpt><trkpt lat="45.812753424054485" lon="8.814929313811165"><ele>363.5</ele><time>2026-05-01T06:36:39Z</time></trkpt><trkpt lat="45.81281282743788" lon="8.815294015816647"><ele>364.0</ele><time>2026-05-01T06:36:40Z</time></trkpt><trkpt lat="45.812881883566604" lon="8.815612117195318"><ele>364.0</ele><time>2026-05-01T06:36:41Z</time></trkpt><trkpt lat="45.81293513437752" lon="8.815889856399542"><ele>364.0</ele><time>2026-05-01T06:36:42Z</time></trkpt><trkpt lat="45.812963654927515" lon="8.81614780638684"><ele>364.0</ele><time>2026-05-01T06:36:43Z</time></trkpt><trkpt lat="45.81300163842354" lon="8.816420564358591"><ele>364.3333333333333</ele><time>2026-05-01T06:36:44Z</time></trkpt><trkpt lat="45.813020203566055" lon="8.816695627130072"><ele>364.6666666666667</ele><time>2026-05-01T06:36:45Z</time></trkpt><trkpt lat="45.81300081563097" lon="8.816967805252903"><ele>365.0</ele><time>2026-05-01T06:36:46Z</time></trkpt><trkpt lat="45.812959926467634" lon="8.817247865573368"><ele>365.0</ele><time>2026-05-01T06:36:47Z</time></trkpt><trkpt lat="45.812883421154815" lon="8.817516503157448"><ele>365.0</ele><time>2026-05-01T06:36:48Z</time></trkpt><trkpt lat="45.812780715337425" lon="8.817777760720684"><ele>365.0</ele><time>2026-05-01T06:36:49Z</time></trkpt><trkpt lat="45.812671504468625" lon="8.818031695684356"><ele>365.0</ele><time>2026-05-01T06:36:50Z</time></trkpt><trkpt lat="45.812571260185216" lon="8.818291856054712"><ele>365.0</ele><time>2026-05-01T06:36:51Z</time></trkpt><trkpt lat="45.812454004248366" lon="8.818527492084904"><ele>365.0</ele><time>2026-05-01T06:36:52Z</time></trkpt><trkpt lat="45.812348249299134" lon="8.818770385405294"><ele>365.0</ele><time>2026-05-01T06:36:52.999Z</time></trkpt><trkpt lat="45.81224990090739" lon="8.819006788466352"><ele>365.0</ele><time>2026-05-01T06:36:53.999Z</time></trkpt><trkpt lat="45.812153938719725" lon="8.819225010802459"><ele>365.0</ele><time>2026-05-01T06:36:54.999Z</time></trkpt><trkpt lat="45.81206462207679" lon="8.819429400900253"><ele>365.5</ele><time>2026-05-01T06:36:55.999Z</time></trkpt><trkpt lat="45.81198079292364" lon="8.819622457036829"><ele>366.0</ele><time>2026-05-01T06:36:56.999Z</time></trkpt><trkpt lat="45.81191075614769" lon="8.819808504101632"><ele>366.5</ele><time>2026-05-01T06:36:57.999Z</time></trkpt><trkpt lat="45.811860972411196" lon="8.81999112320543"><ele>367.0</ele><time>2026-05-01T06:36:58.999Z</time></trkpt><trkpt lat="45.811817681416024" lon="8.82016024452387"><ele>367.0</ele><time>2026-05-01T06:36:59.999Z</time></trkpt><trkpt lat="45.81177701159523" lon="8.820325352741783"><ele>367.0</ele><time>2026-05-01T06:37:00.999Z</time></trkpt><trkpt lat="45.81174107645619" lon="8.820500382586804"><ele>367.0</ele><time>2026-05-01T06:37:01.999Z</time></trkpt><trkpt lat="45.811708601642884" lon="8.82068904130462"><ele>367.0</ele><time>2026-05-01T06:37:02.999Z</time></trkpt><trkpt lat="45.81168507739949" lon="8.820885679855627"><ele>367.0</ele><time>2026-05-01T06:37:03.999Z</time></trkpt><trkpt lat="45.81167136195651" lon="8.821092540676958"><ele>367.0</ele><time>2026-05-01T06:37:04.999Z</time></trkpt><trkpt lat="45.811659493202846" lon="8.821297535682021"><ele>367.0</ele><time>2026-05-01T06:37:05.999Z</time></trkpt><trkpt lat="45.811638577423786" lon="8.821501371938806"><ele>367.0</ele><time>2026-05-01T06:37:06.999Z</time></trkpt><trkpt lat="45.81161562318541" lon="8.821700019475996"><ele>367.0</ele><time>2026-05-01T06:37:07.999Z</time></trkpt><trkpt lat="45.811593033712626" lon="8.821880647857617"><ele>367.0</ele><time>2026-05-01T06:37:08.999Z</time></trkpt><trkpt lat="45.8115766445886" lon="8.822047259242403"><ele>367.0</ele><time>2026-05-01T06:37:09.999Z</time></trkpt><trkpt lat="45.81156446731894" lon="8.822200118011477"><ele>367.0</ele><time>2026-05-01T06:37:10.999Z</time></trkpt><trkpt lat="45.81155141397519" lon="8.822338665289017"><ele>367.0</ele><time>2026-05-01T06:37:11.999Z</time></trkpt><trkpt lat="45.811539950717616" lon="8.822469697049803"><ele>367.0</ele><time>2026-05-01T06:37:12.999Z</time></trkpt><trkpt lat="45.811529621823574" lon="8.822589095683961"><ele>367.0</ele><time>2026-05-01T06:37:13.999Z</time></trkpt><trkpt lat="45.81152016055062" lon="8.822703839490723"><ele>367.0</ele><time>2026-05-01T06:37:14.999Z</time></trkpt><trkpt lat="45.81153004135555" lon="8.82281467706161"><ele>367.0</ele><time>2026-05-01T06:37:15.999Z</time></trkpt><trkpt lat="45.81153320771554" lon="8.822916548280105"><ele>367.0</ele><time>2026-05-01T06:37:16.999Z</time></trkpt><trkpt lat="45.81163877415102" lon="8.82297018735465"><ele>367.0</ele><time>2026-05-01T06:37:17.999Z</time></trkpt><trkpt lat="45.811719445611786" lon="8.822999884492077"><ele>367.0</ele><time>2026-05-01T06:37:18.999Z</time></trkpt><trkpt lat="45.81181245537814" lon="8.822993192383349"><ele>367.0</ele><time>2026-05-01T06:37:19.999Z</time></trkpt><trkpt lat="45.811910292838455" lon="8.822919390985748"><ele>367.0</ele><time>2026-05-01T06:37:20.999Z</time></trkpt><trkpt lat="45.812019976484414" lon="8.822876655201672"><ele>367.0</ele><time>2026-05-01T06:37:21.999Z</time></trkpt><trkpt lat="45.81213259585466" lon="8.822846073213817"><ele>369.75</ele><time>2026-05-01T06:37:22.999Z</time></trkpt><trkpt lat="45.81225475449447" lon="8.822903338145371"><ele>372.5</ele><time>2026-05-01T06:37:23.999Z</time></trkpt><trkpt lat="45.81237025425372" lon="8.823003271748249"><ele>375.25</ele><time>2026-05-01T06:37:24.999Z</time></trkpt><trkpt lat="45.81249228412352" lon="8.823089854161802"><ele>378.0</ele><time>2026-05-01T06:37:25.999Z</time></trkpt><trkpt lat="45.812608433755436" lon="8.823192447886013"><ele>378.75</ele><time>2026-05-01T06:37:26.999Z</time></trkpt><trkpt lat="45.81272658348982" lon="8.823277833472542"><ele>379.5</ele><time>2026-05-01T06:37:27.999Z</time></trkpt><trkpt lat="45.81286056048963" lon="8.823346062984779"><ele>380.25</ele><time>2026-05-01T06:37:28.999Z</time></trkpt><trkpt lat="45.81300183209811" lon="8.823418390219485"><ele>381.0</ele><time>2026-05-01T06:37:29.999Z</time></trkpt><trkpt lat="45.81315093897807" lon="8.823452565169738"><ele>381.75</ele><time>2026-05-01T06:37:30.999Z</time></trkpt><trkpt lat="45.81329824592961" lon="8.82348805019849"><ele>382.5</ele><time>2026-05-01T06:37:31.999Z</time></trkpt><trkpt lat="45.81343687269577" lon="8.823507367491558"><ele>383.25</ele><time>2026-05-01T06:37:32.999Z</time></trkpt><trkpt lat="45.81357850680294" lon="8.82354003624705"><ele>384.0</ele><time>2026-05-01T06:37:33.999Z</time></trkpt><trkpt lat="45.813707264949834" lon="8.823575554761932"><ele>386.25</ele><time>2026-05-01T06:37:34.999Z</time></trkpt><trkpt lat="45.81383480868364" lon="8.82362090512958"><ele>388.5</ele><time>2026-05-01T06:37:35.999Z</time></trkpt><trkpt lat="45.81395962206837" lon="8.823656292061644"><ele>390.75</ele><time>2026-05-01T06:37:36.999Z</time></trkpt><trkpt lat="45.814059131222756" lon="8.823694440792137"><ele>393.0</ele><time>2026-05-01T06:37:37.999Z</time></trkpt><trkpt lat="45.81413860141017" lon="8.823778302674919"><ele>393.0</ele><time>2026-05-01T06:37:38.999Z</time></trkpt><trkpt lat="45.81422803616281" lon="8.82383299012625"><ele>393.0</ele><time>2026-05-01T06:37:39.999Z</time></trkpt><trkpt lat="45.81431215558631" lon="8.823901103112547"><ele>393.0</ele><time>2026-05-01T06:37:40.999Z</time></trkpt><trkpt lat="45.81439950781059" lon="8.823961855432973"><ele>393.0</ele><time>2026-05-01T06:37:41.999Z</time></trkpt><trkpt lat="45.814487080916244" lon="8.82402457045962"><ele>393.0</ele><time>2026-05-01T06:37:42.999Z</time></trkpt><trkpt lat="45.81456018290481" lon="8.824071575339774"><ele>393.3333333333333</ele><time>2026-05-01T06:37:43.999Z</time></trkpt><trkpt lat="45.81462160943799" lon="8.824114144042944"><ele>393.66666666666663</ele><time>2026-05-01T06:37:44.999Z</time></trkpt><trkpt lat="45.81471574005315" lon="8.824169330569354"><ele>394.0</ele><time>2026-05-01T06:37:46.999Z</time></trkpt><trkpt lat="45.814792440275816" lon="8.824201793191126"><ele>394.3333333333333</ele><time>2026-05-01T06:37:48.999Z</time></trkpt><trkpt lat="45.81486076546565" lon="8.824223423907966"><ele>394.66666666666663</ele><time>2026-05-01T06:38:28Z</time></trkpt><trkpt lat="45.81495377853958" lon="8.824270156202466"><ele>395.0</ele><time>2026-05-01T06:38:30Z</time></trkpt><trkpt lat="45.815015986260114" lon="8.824289940717323"><ele>395.0</ele><time>2026-05-01T06:38:31Z</time></trkpt><trkpt lat="45.81512835261759" lon="8.824308419549162"><ele>395.0</ele><time>2026-05-01T06:38:32Z</time></trkpt><trkpt lat="45.815175792342565" lon="8.824394954876828"><ele>395.0</ele><time>2026-05-01T06:38:33Z</time></trkpt><trkpt lat="45.81523376909424" lon="8.824486279966264"><ele>395.0</ele><time>2026-05-01T06:38:34Z</time></trkpt><trkpt lat="45.815296845782804" lon="8.824576761569727"><ele>395.0</ele><time>2026-05-01T06:38:35Z</time></trkpt><trkpt lat="45.81532984954666" lon="8.824826112593293"><ele>394.0</ele><time>2026-05-01T06:38:36Z</time></trkpt><trkpt lat="45.81530802065295" lon="8.825045115352715"><ele>393.0</ele><time>2026-05-01T06:38:37Z</time></trkpt><trkpt lat="45.815284641938575" lon="8.825136698577197"><ele>392.0</ele><time>2026-05-01T06:38:39Z</time></trkpt><trkpt lat="45.81527581559608" lon="8.825297936101078"><ele>391.0</ele><time>2026-05-01T06:38:40Z</time></trkpt><trkpt lat="45.81529200663178" lon="8.82547366169884"><ele>390.0</ele><time>2026-05-01T06:38:41Z</time></trkpt><trkpt lat="45.81531022466069" lon="8.82565848136137"><ele>389.0</ele><time>2026-05-01T06:38:42Z</time></trkpt><trkpt lat="45.815325673754884" lon="8.825859054342486"><ele>388.0</ele><time>2026-05-01T06:38:43Z</time></trkpt><trkpt lat="45.81532727133406" lon="8.826052774730679"><ele>387.0</ele><time>2026-05-01T06:38:44Z</time></trkpt><trkpt lat="45.815303693972815" lon="8.826223628148693"><ele>386.75</ele><time>2026-05-01T06:38:45Z</time></trkpt><trkpt lat="45.81525739518127" lon="8.826390029544648"><ele>386.5</ele><time>2026-05-01T06:38:46Z</time></trkpt><trkpt lat="45.815208739682305" lon="8.826556929881756"><ele>386.25</ele><time>2026-05-01T06:38:47Z</time></trkpt><trkpt lat="45.81516410133495" lon="8.826715896173702"><ele>386.0</ele><time>2026-05-01T06:38:48Z</time></trkpt><trkpt lat="45.81513131379597" lon="8.826865934416436"><ele>386.0</ele><time>2026-05-01T06:38:49Z</time></trkpt><trkpt lat="45.8150950168018" lon="8.827002752691339"><ele>386.0</ele><time>2026-05-01T06:38:50Z</time></trkpt><trkpt lat="45.81506219787198" lon="8.827116670536965"><ele>386.0</ele><time>2026-05-01T06:38:51Z</time></trkpt><trkpt lat="45.815026698684086" lon="8.827234548145872"><ele>386.0</ele><time>2026-05-01T06:38:52Z</time></trkpt><trkpt lat="45.814995476108166" lon="8.827351968506065"><ele>386.0</ele><time>2026-05-01T06:38:53Z</time></trkpt><trkpt lat="45.814963817420775" lon="8.827472327278901"><ele>386.0</ele><time>2026-05-01T06:38:54Z</time></trkpt><trkpt lat="45.81492133018026" lon="8.827603090690449"><ele>386.0</ele><time>2026-05-01T06:38:55Z</time></trkpt><trkpt lat="45.81488023658101" lon="8.827743076671924"><ele>386.0</ele><time>2026-05-01T06:38:56Z</time></trkpt><trkpt lat="45.814843552949455" lon="8.827861811546347"><ele>386.0</ele><time>2026-05-01T06:38:57Z</time></trkpt><trkpt lat="45.814803870273" lon="8.827974380926824"><ele>386.0</ele><time>2026-05-01T06:38:58Z</time></trkpt><trkpt lat="45.81476289740637" lon="8.828094194421357"><ele>385.4</ele><time>2026-05-01T06:38:59Z</time></trkpt><trkpt lat="45.81473295382273" lon="8.828226131788606"><ele>384.8</ele><time>2026-05-01T06:39:00Z</time></trkpt><trkpt lat="45.81468432513916" lon="8.828347847253168"><ele>384.2</ele><time>2026-05-01T06:39:01Z</time></trkpt><trkpt lat="45.81465642015862" lon="8.828468424355133"><ele>383.59999999999997</ele><time>2026-05-01T06:39:01.999Z</time></trkpt><trkpt lat="45.81462766438585" lon="8.828584141650339"><ele>383.0</ele><time>2026-05-01T06:39:02.999Z</time></trkpt><trkpt lat="45.81457737130451" lon="8.828701285160111"><ele>383.0</ele><time>2026-05-01T06:39:03.999Z</time></trkpt><trkpt lat="45.81465835269577" lon="8.828895292574497"><ele>383.0</ele><time>2026-05-01T06:39:05.999Z</time></trkpt><trkpt lat="45.81472363281607" lon="8.828970036827"><ele>383.0</ele><time>2026-05-01T06:39:06.999Z</time></trkpt><trkpt lat="45.81478455040502" lon="8.829050815225784"><ele>383.0</ele><time>2026-05-01T06:39:07.999Z</time></trkpt><trkpt lat="45.814834789796244" lon="8.829128566510173"><ele>383.0</ele><time>2026-05-01T06:39:08.999Z</time></trkpt><trkpt lat="45.81487818743439" lon="8.829202612936838"><ele>383.0</ele><time>2026-05-01T06:39:09.999Z</time></trkpt><trkpt lat="45.81493728161928" lon="8.829299930417081"><ele>383.0</ele><time>2026-05-01T06:39:11.999Z</time></trkpt><trkpt lat="45.81497502240993" lon="8.829394942684624"><ele>383.0</ele><time>2026-05-01T06:40:58Z</time></trkpt><trkpt lat="45.81502886176063" lon="8.829497370636009"><ele>383.0</ele><time>2026-05-01T06:41:00Z</time></trkpt><trkpt lat="45.81510160594485" lon="8.829610429246221"><ele>383.0</ele><time>2026-05-01T06:41:02Z</time></trkpt><trkpt lat="45.81516132022301" lon="8.829640317007525"><ele>383.0</ele><time>2026-05-01T06:41:04Z</time></trkpt><trkpt lat="45.81523607559025" lon="8.829552306099204"><ele>383.1666666666667</ele><time>2026-05-01T06:41:05Z</time></trkpt><trkpt lat="45.81527709124003" lon="8.829470899969497"><ele>383.33333333333337</ele><time>2026-05-01T06:41:05.999Z</time></trkpt><trkpt lat="45.81532531342225" lon="8.829385170823592"><ele>383.5</ele><time>2026-05-01T06:41:06.999Z</time></trkpt><trkpt lat="45.81537544558382" lon="8.829322968283252"><ele>383.6666666666667</ele><time>2026-05-01T06:41:07.999Z</time></trkpt><trkpt lat="45.8154460281008" lon="8.829223810315684"><ele>383.8333333333333</ele><time>2026-05-01T06:41:09.999Z</time></trkpt><trkpt lat="45.815513948932605" lon="8.829142743829069"><ele>384.0</ele><time>2026-05-01T06:41:11.999Z</time></trkpt><trkpt lat="45.81557937037961" lon="8.829113278601039"><ele>384.0</ele><time>2026-05-01T06:41:13.999Z</time></trkpt><trkpt lat="45.81570566632547" lon="8.829144593507051"><ele>384.0</ele><time>2026-05-01T06:41:14.999Z</time></trkpt><trkpt lat="45.815778918739866" lon="8.829154745218236"><ele>384.0</ele><time>2026-05-01T06:41:15.999Z</time></trkpt><trkpt lat="45.81587679399068" lon="8.829167124697888"><ele>384.0</ele><time>2026-05-01T06:41:16.999Z</time></trkpt><trkpt lat="45.81597670638335" lon="8.829187838492244"><ele>384.0</ele><time>2026-05-01T06:41:18.999Z</time></trkpt><trkpt lat="45.816065787165606" lon="8.82919265035493"><ele>384.1666666666667</ele><time>2026-05-01T06:41:19.999Z</time></trkpt><trkpt lat="45.81616910464901" lon="8.82920057390259"><ele>384.33333333333337</ele><time>2026-05-01T06:41:20.999Z</time></trkpt><trkpt lat="45.81626031018438" lon="8.82920403425488"><ele>384.5</ele><time>2026-05-01T06:41:21.999Z</time></trkpt><trkpt lat="45.81633545315407" lon="8.829211969523525"><ele>384.6666666666667</ele><time>2026-05-01T06:41:22.999Z</time></trkpt><trkpt lat="45.8164114374432" lon="8.829219436892947"><ele>384.83333333333337</ele><time>2026-05-01T06:41:23.999Z</time></trkpt><trkpt lat="45.816480218942715" lon="8.829236534157317"><ele>385.0</ele><time>2026-05-01T06:41:24.999Z</time></trkpt><trkpt lat="45.81656145855468" lon="8.829253617940529"><ele>385.0</ele><time>2026-05-01T06:41:25.999Z</time></trkpt><trkpt lat="45.81662930066828" lon="8.82925385615982"><ele>385.0</ele><time>2026-05-01T06:41:26.999Z</time></trkpt><trkpt lat="45.816681180888125" lon="8.829428482156844"><ele>385.0</ele><time>2026-05-01T06:41:27.999Z</time></trkpt><trkpt lat="45.81673726935017" lon="8.829524750577825"><ele>385.0</ele><time>2026-05-01T06:41:28.999Z</time></trkpt><trkpt lat="45.81680898779884" lon="8.829616460595645"><ele>385.0</ele><time>2026-05-01T06:41:29.999Z</time></trkpt><trkpt lat="45.81688199598677" lon="8.82971896202493"><ele>384.6666666666667</ele><time>2026-05-01T06:41:30.999Z</time></trkpt><trkpt lat="45.816947592695044" lon="8.829816166474593"><ele>384.33333333333337</ele><time>2026-05-01T06:41:31.999Z</time></trkpt><trkpt lat="45.81700562825557" lon="8.829902052096351"><ele>384.0</ele><time>2026-05-01T06:41:32.999Z</time></trkpt><trkpt lat="45.81705530313834" lon="8.829975564954832"><ele>383.6666666666667</ele><time>2026-05-01T06:41:33.999Z</time></trkpt><trkpt lat="45.817134070233266" lon="8.830092130739338"><ele>383.33333333333337</ele><time>2026-05-01T06:41:35.999Z</time></trkpt><trkpt lat="45.817185982763704" lon="8.830168954723037"><ele>383.0</ele><time>2026-05-01T06:41:37.999Z</time></trkpt><trkpt lat="45.817201800293" lon="8.830275734751247"><ele>383.0</ele><time>2026-05-01T06:41:38.999Z</time></trkpt><trkpt lat="45.81701239951215" lon="8.830348654476467"><ele>383.0</ele><time>2026-05-01T06:41:40.999Z</time></trkpt><trkpt lat="45.81692905123883" lon="8.830438135725576"><ele>383.0</ele><time>2026-05-01T06:41:42.999Z</time></trkpt><trkpt lat="45.816847287831486" lon="8.830518647515417"><ele>383.0</ele><time>2026-05-01T06:41:44.999Z</time></trkpt><trkpt lat="45.816766622986904" lon="8.830599159143373"><ele>383.0</ele><time>2026-05-01T06:41:46.999Z</time></trkpt><trkpt lat="45.8166666960322" lon="8.830721262385637"><ele>383.0</ele><time>2026-05-01T06:41:48.999Z</time></trkpt><trkpt lat="45.81660307113136" lon="8.830797230077904"><ele>383.0</ele><time>2026-05-01T06:41:49.999Z</time></trkpt><trkpt lat="45.816535347655595" lon="8.830873705233934"><ele>383.0</ele><time>2026-05-01T06:41:50.999Z</time></trkpt><trkpt lat="45.816472585991335" lon="8.830947311252206"><ele>383.0</ele><time>2026-05-01T06:41:51.999Z</time></trkpt><trkpt lat="45.81639516885111" lon="8.831049524489751"><ele>383.0</ele><time>2026-05-01T06:41:52.999Z</time></trkpt><trkpt lat="45.816309154958006" lon="8.831152987406448"><ele>383.0</ele><time>2026-05-01T06:41:53.999Z</time></trkpt><trkpt lat="45.81623678452803" lon="8.831259641634729"><ele>383.0</ele><time>2026-05-01T06:41:54.999Z</time></trkpt><trkpt lat="45.81616705740005" lon="8.831344682773498"><ele>383.0</ele><time>2026-05-01T06:41:55.999Z</time></trkpt><trkpt lat="45.816115208678916" lon="8.831400368468241"><ele>383.0</ele><time>2026-05-01T06:41:56.999Z</time></trkpt><trkpt lat="45.816062409532044" lon="8.831455140667112"><ele>383.0</ele><time>2026-05-01T06:41:59.999Z</time></trkpt><trkpt lat="45.81601828897546" lon="8.83152735380446"><ele>383.0</ele><time>2026-05-01T06:42:33Z</time></trkpt><trkpt lat="45.815937508350466" lon="8.831634175805313"><ele>383.0</ele><time>2026-05-01T06:42:35Z</time></trkpt><trkpt lat="45.81587392833795" lon="8.831692833800044"><ele>383.0</ele><time>2026-05-01T06:42:37Z</time></trkpt><trkpt lat="45.81591124738123" lon="8.831773664081094"><ele>383.0</ele><time>2026-05-01T06:42:38Z</time></trkpt><trkpt lat="45.8159616231836" lon="8.831858742816099"><ele>383.0</ele><time>2026-05-01T06:42:41Z</time></trkpt><trkpt lat="45.81599255846512" lon="8.831962439605515"><ele>383.0</ele><time>2026-05-01T06:43:27.999Z</time></trkpt><trkpt lat="45.816028847737826" lon="8.832039241850508"><ele>382.79999999999995</ele><time>2026-05-01T06:43:29.999Z</time></trkpt><trkpt lat="45.816124699757324" lon="8.832170989315092"><ele>382.6</ele><time>2026-05-01T06:43:31.999Z</time></trkpt><trkpt lat="45.81619476442928" lon="8.83222426407401"><ele>382.4</ele><time>2026-05-01T06:43:32.999Z</time></trkpt><trkpt lat="45.81627711165029" lon="8.83226468193203"><ele>382.20000000000005</ele><time>2026-05-01T06:43:33.999Z</time></trkpt><trkpt lat="45.81636241051731" lon="8.832307637595303"><ele>382.0</ele><time>2026-05-01T06:43:34.999Z</time></trkpt><trkpt lat="45.816463675130095" lon="8.832306723775016"><ele>382.0</ele><time>2026-05-01T06:43:35.999Z</time></trkpt><trkpt lat="45.81655356659513" lon="8.832298734420549"><ele>382.0</ele><time>2026-05-01T06:43:36.999Z</time></trkpt><trkpt lat="45.816653433208415" lon="8.832305825861756"><ele>382.0</ele><time>2026-05-01T06:43:37.999Z</time></trkpt><trkpt lat="45.81675768647915" lon="8.83231081709443"><ele>382.0</ele><time>2026-05-01T06:43:38.999Z</time></trkpt><trkpt lat="45.81684041853788" lon="8.832323551769363"><ele>382.0</ele><time>2026-05-01T06:43:39.999Z</time></trkpt><trkpt lat="45.81691234253662" lon="8.8323321579413"><ele>381.8333333333333</ele><time>2026-05-01T06:43:40.999Z</time></trkpt><trkpt lat="45.816976538279945" lon="8.832337827169823"><ele>381.66666666666663</ele><time>2026-05-01T06:43:41.999Z</time></trkpt><trkpt lat="45.81708105057774" lon="8.832343128018659"><ele>381.5</ele><time>2026-05-01T06:43:43.999Z</time></trkpt><trkpt lat="45.81714801246472" lon="8.832357462716608"><ele>381.3333333333333</ele><time>2026-05-01T06:43:46.999Z</time></trkpt><trkpt lat="45.817220174900626" lon="8.832361663073103"><ele>381.1666666666667</ele><time>2026-05-01T06:43:59.999Z</time></trkpt><trkpt lat="45.81729969786194" lon="8.832399337247907"><ele>381.0</ele><time>2026-05-01T06:44:51Z</time></trkpt><trkpt lat="45.81743544380578" lon="8.832401291839686"><ele>381.0</ele><time>2026-05-01T06:44:53Z</time></trkpt><trkpt lat="45.81751768181956" lon="8.832410480742537"><ele>381.0</ele><time>2026-05-01T06:44:54Z</time></trkpt><trkpt lat="45.81759559296132" lon="8.832417310998824"><ele>381.0</ele><time>2026-05-01T06:44:55Z</time></trkpt><trkpt lat="45.817662982895335" lon="8.832425281875581"><ele>381.0</ele><time>2026-05-01T06:44:56Z</time></trkpt><trkpt lat="45.817576726244646" lon="8.832382646167057"><ele>381.0</ele><time>2026-05-01T06:45:03Z</time></trkpt><trkpt lat="45.81747896355241" lon="8.832613924254813"><ele>380.3333333333333</ele><time>2026-05-01T06:45:04Z</time></trkpt><trkpt lat="45.81737125246024" lon="8.83273468535852"><ele>379.66666666666663</ele><time>2026-05-01T06:45:05Z</time></trkpt><trkpt lat="45.81728540182605" lon="8.83287747284969"><ele>379.0</ele><time>2026-05-01T06:45:06Z</time></trkpt><trkpt lat="45.81861833138867" lon="8.833161423637605"><ele>379.0</ele><time>2026-05-01T06:45:07Z</time></trkpt><trkpt lat="45.81868734983579" lon="8.833311592987839"><ele>379.0</ele><time>2026-05-01T06:45:08Z</time></trkpt><trkpt lat="45.818755288989614" lon="8.833470577233657"><ele>379.0</ele><time>2026-05-01T06:45:09Z</time></trkpt><trkpt lat="45.81882179949592" lon="8.833623433092113"><ele>379.0</ele><time>2026-05-01T06:45:10Z</time></trkpt><trkpt lat="45.81889133305047" lon="8.833778740947142"><ele>378.25</ele><time>2026-05-01T06:45:11Z</time></trkpt><trkpt lat="45.818962996621345" lon="8.833937363608905"><ele>377.5</ele><time>2026-05-01T06:45:12Z</time></trkpt><trkpt lat="45.819032457706406" lon="8.834107185258796"><ele>376.75</ele><time>2026-05-01T06:45:13Z</time></trkpt><trkpt lat="45.8191036548568" lon="8.834282311485586"><ele>376.0</ele><time>2026-05-01T06:45:14Z</time></trkpt><trkpt lat="45.81917416605667" lon="8.834463644099593"><ele>375.75</ele><time>2026-05-01T06:45:15Z</time></trkpt><trkpt lat="45.81925376099781" lon="8.834641278511922"><ele>375.5</ele><time>2026-05-01T06:45:16Z</time></trkpt><trkpt lat="45.81932568666305" lon="8.834810766969927"><ele>375.25</ele><time>2026-05-01T06:45:17Z</time></trkpt><trkpt lat="45.81939417616205" lon="8.83496879457525"><ele>375.0</ele><time>2026-05-01T06:45:18Z</time></trkpt><trkpt lat="45.8194571517462" lon="8.835118546201407"><ele>376.0</ele><time>2026-05-01T06:45:19Z</time></trkpt><trkpt lat="45.81951379487336" lon="8.835271105214993"><ele>377.0</ele><time>2026-05-01T06:45:20Z</time></trkpt><trkpt lat="45.81956220155987" lon="8.835431384357875"><ele>378.0</ele><time>2026-05-01T06:45:20.999Z</time></trkpt><trkpt lat="45.819600600064106" lon="8.835591572864926"><ele>379.0</ele><time>2026-05-01T06:45:21.999Z</time></trkpt><trkpt lat="45.819621262887395" lon="8.835761776173625"><ele>379.0</ele><time>2026-05-01T06:45:22.999Z</time></trkpt><trkpt lat="45.81963692854266" lon="8.835939690458833"><ele>379.0</ele><time>2026-05-01T06:45:23.999Z</time></trkpt><trkpt lat="45.81965481934626" lon="8.836113558858525"><ele>379.0</ele><time>2026-05-01T06:45:24.999Z</time></trkpt><trkpt lat="45.81967297511406" lon="8.836295709418485"><ele>379.0</ele><time>2026-05-01T06:45:25.999Z</time></trkpt><trkpt lat="45.81969997875323" lon="8.836496632055544"><ele>379.0</ele><time>2026-05-01T06:45:26.999Z</time></trkpt><trkpt lat="45.81972759189442" lon="8.836694214729787"><ele>379.0</ele><time>2026-05-01T06:45:27.999Z</time></trkpt><trkpt lat="45.81977054742274" lon="8.836892743788228"><ele>379.0</ele><time>2026-05-01T06:45:28.999Z</time></trkpt><trkpt lat="45.8197970763666" lon="8.837102820476202"><ele>379.0</ele><time>2026-05-01T06:45:29.999Z</time></trkpt><trkpt lat="45.8198379298943" lon="8.837308434718691"><ele>378.79999999999995</ele><time>2026-05-01T06:45:30.999Z</time></trkpt><trkpt lat="45.81987282820775" lon="8.837490678920336"><ele>378.59999999999997</ele><time>2026-05-01T06:45:31.999Z</time></trkpt><trkpt lat="45.81990004486436" lon="8.837629452329583"><ele>378.4</ele><time>2026-05-01T06:45:32.999Z</time></trkpt><trkpt lat="45.81993131306963" lon="8.837739838390798"><ele>378.2</ele><time>2026-05-01T06:45:33.999Z</time></trkpt><trkpt lat="45.81994525698675" lon="8.83783522650198"><ele>378.0</ele><time>2026-05-01T06:45:34.999Z</time></trkpt><trkpt lat="45.820048069993305" lon="8.837879649289304"><ele>378.0</ele><time>2026-05-01T06:45:35.999Z</time></trkpt><trkpt lat="45.82012763178766" lon="8.83791085489711"><ele>378.0</ele><time>2026-05-01T06:45:36.999Z</time></trkpt><trkpt lat="45.8202123706757" lon="8.837940503857904"><ele>378.0</ele><time>2026-05-01T06:45:37.999Z</time></trkpt><trkpt lat="45.82029608900564" lon="8.837991826095228"><ele>378.0</ele><time>2026-05-01T06:45:38.999Z</time></trkpt><trkpt lat="45.82039823259016" lon="8.83804290079257"><ele>378.0</ele><time>2026-05-01T06:45:39.999Z</time></trkpt><trkpt lat="45.82048210692284" lon="8.838096996400624"><ele>378.0</ele><time>2026-05-01T06:45:40.999Z</time></trkpt><trkpt lat="45.82056759337509" lon="8.838144639791714"><ele>378.0</ele><time>2026-05-01T06:45:41.999Z</time></trkpt><trkpt lat="45.820634045552836" lon="8.838189884938132"><ele>378.0</ele><time>2026-05-01T06:45:42.999Z</time></trkpt><trkpt lat="45.820713412348915" lon="8.838240462142808"><ele>378.0</ele><time>2026-05-01T06:45:43.999Z</time></trkpt><trkpt lat="45.82080344189881" lon="8.838289314372261"><ele>378.0</ele><time>2026-05-01T06:45:44.999Z</time></trkpt><trkpt lat="45.82089483987397" lon="8.838347356310992"><ele>378.0</ele><time>2026-05-01T06:45:45.999Z</time></trkpt><trkpt lat="45.82098967645941" lon="8.838410323057882"><ele>378.0</ele><time>2026-05-01T06:45:46.999Z</time></trkpt><trkpt lat="45.821082884559495" lon="8.838467466717534"><ele>378.0</ele><time>2026-05-01T06:45:47.999Z</time></trkpt><trkpt lat="45.82115210797912" lon="8.838516337919343"><ele>378.0</ele><time>2026-05-01T06:45:48.999Z</time></trkpt><trkpt lat="45.82122088374857" lon="8.838522969518756"><ele>378.0</ele><time>2026-05-01T06:45:49.999Z</time></trkpt><trkpt lat="45.821311616010654" lon="8.838547793476646"><ele>378.0</ele><time>2026-05-01T06:45:51.999Z</time></trkpt><trkpt lat="45.82137645295243" lon="8.838578222401104"><ele>378.0</ele><time>2026-05-01T06:46:36.998Z</time></trkpt><trkpt lat="45.82145651680923" lon="8.838615099455941"><ele>378.0</ele><time>2026-05-01T06:46:42Z</time></trkpt><trkpt lat="45.82152819566131" lon="8.838660290002904"><ele>378.0</ele><time>2026-05-01T06:46:46Z</time></trkpt><trkpt lat="45.821578200546156" lon="8.8385759360451"><ele>378.0</ele><time>2026-05-01T06:46:48Z</time></trkpt><trkpt lat="45.82163228556928" lon="8.83849373237566"><ele>378.0</ele><time>2026-05-01T06:46:49Z</time></trkpt><trkpt lat="45.8216832521179" lon="8.838397066406905"><ele>378.0</ele><time>2026-05-01T06:46:50Z</time></trkpt><trkpt lat="45.82174669450058" lon="8.83829389493899"><ele>378.0</ele><time>2026-05-01T06:46:51Z</time></trkpt><trkpt lat="45.82182116263902" lon="8.838175930880022"><ele>378.2</ele><time>2026-05-01T06:46:52Z</time></trkpt><trkpt lat="45.82189882280973" lon="8.838074391218095"><ele>378.4</ele><time>2026-05-01T06:46:53Z</time></trkpt><trkpt lat="45.82196469093624" lon="8.837974910644046"><ele>378.59999999999997</ele><time>2026-05-01T06:46:54Z</time></trkpt><trkpt lat="45.82202410906783" lon="8.837873058487167"><ele>378.79999999999995</ele><time>2026-05-01T06:46:55Z</time></trkpt><trkpt lat="45.8220970220215" lon="8.837775484046817"><ele>379.0</ele><time>2026-05-01T06:46:56Z</time></trkpt><trkpt lat="45.822174056740366" lon="8.837678747428047"><ele>379.2</ele><time>2026-05-01T06:46:57Z</time></trkpt><trkpt lat="45.82225104110144" lon="8.837575850664935"><ele>379.4</ele><time>2026-05-01T06:46:58Z</time></trkpt><trkpt lat="45.822318563164046" lon="8.837453845313592"><ele>379.6</ele><time>2026-05-01T06:46:59Z</time></trkpt><trkpt lat="45.82239109100733" lon="8.837345941298294"><ele>379.8</ele><time>2026-05-01T06:47:00Z</time></trkpt><trkpt lat="45.822450856969624" lon="8.837251192760824"><ele>380.0</ele><time>2026-05-01T06:47:01Z</time></trkpt><trkpt lat="45.82250244221274" lon="8.8371605594816"><ele>380.0</ele><time>2026-05-01T06:47:02Z</time></trkpt><trkpt lat="45.82254893498908" lon="8.837083734990797"><ele>380.0</ele><time>2026-05-01T06:47:03Z</time></trkpt><trkpt lat="45.82258915495661" lon="8.837004915459767"><ele>380.0</ele><time>2026-05-01T06:47:04Z</time></trkpt><trkpt lat="45.82263913787152" lon="8.836859924078507"><ele>380.0</ele><time>2026-05-01T06:47:06Z</time></trkpt><trkpt lat="45.82267664967285" lon="8.83671161681593"><ele>380.0</ele><time>2026-05-01T06:47:08Z</time></trkpt><trkpt lat="45.82271915437662" lon="8.836581984466537"><ele>380.75</ele><time>2026-05-01T06:47:10Z</time></trkpt><trkpt lat="45.822751093737786" lon="8.836498878808802"><ele>381.5</ele><time>2026-05-01T06:47:12Z</time></trkpt><trkpt lat="45.82282099797653" lon="8.836191678924353"><ele>382.25</ele><time>2026-05-01T06:48:01.999Z</time></trkpt><trkpt lat="45.82278616317565" lon="8.836075933374186"><ele>383.0</ele><time>2026-05-01T06:48:05.999Z</time></trkpt><trkpt lat="45.822864102968275" lon="8.836111234661104"><ele>383.0</ele><time>2026-05-01T06:48:08.999Z</time></trkpt><trkpt lat="45.82297815545261" lon="8.836235118006822"><ele>383.0</ele><time>2026-05-01T06:48:09.999Z</time></trkpt><trkpt lat="45.82299006656284" lon="8.836343562876014"><ele>383.0</ele><time>2026-05-01T06:48:10.999Z</time></trkpt><trkpt lat="45.82300188049028" lon="8.83653900142493"><ele>383.0</ele><time>2026-05-01T06:48:12.999Z</time></trkpt><trkpt lat="45.823035690888034" lon="8.836697383804598"><ele>382.25</ele><time>2026-05-01T06:48:13.999Z</time></trkpt><trkpt lat="45.82306241983489" lon="8.836943930123663"><ele>381.5</ele><time>2026-05-01T06:48:14.999Z</time></trkpt><trkpt lat="45.82309390223618" lon="8.8372080963353"><ele>380.75</ele><time>2026-05-01T06:48:15.999Z</time></trkpt><trkpt lat="45.823087443068175" lon="8.837308693586937"><ele>380.0</ele><time>2026-05-01T06:48:17.999Z</time></trkpt><trkpt lat="45.82310750217266" lon="8.837489916958354"><ele>380.0</ele><time>2026-05-01T06:48:18.999Z</time></trkpt><trkpt lat="45.82312632780959" lon="8.837644273756"><ele>380.0</ele><time>2026-05-01T06:48:19.999Z</time></trkpt><trkpt lat="45.82315239576497" lon="8.837778520052272"><ele>380.0</ele><time>2026-05-01T06:48:20.999Z</time></trkpt><trkpt lat="45.8231722752466" lon="8.837899698137663"><ele>380.0</ele><time>2026-05-01T06:48:21.999Z</time></trkpt><trkpt lat="45.82318982887587" lon="8.83801582321983"><ele>380.0</ele><time>2026-05-01T06:48:22.999Z</time></trkpt><trkpt lat="45.8232013902609" lon="8.838123770810803"><ele>380.0</ele><time>2026-05-01T06:48:23.999Z</time></trkpt><trkpt lat="45.823219983752345" lon="8.838268009562821"><ele>380.0</ele><time>2026-05-01T06:48:24.999Z</time></trkpt><trkpt lat="45.82323668089926" lon="8.838377371468022"><ele>380.0</ele><time>2026-05-01T06:48:25.999Z</time></trkpt><trkpt lat="45.823259565649174" lon="8.838498767433578"><ele>380.0</ele><time>2026-05-01T06:48:26.998Z</time></trkpt><trkpt lat="45.82327845946098" lon="8.838632717118042"><ele>380.0</ele><time>2026-05-01T06:48:27.998Z</time></trkpt><trkpt lat="45.82329687602597" lon="8.838773793583185"><ele>379.5</ele><time>2026-05-01T06:48:28.998Z</time></trkpt><trkpt lat="45.823315862072214" lon="8.838930101390941"><ele>379.0</ele><time>2026-05-01T06:48:29.998Z</time></trkpt><trkpt lat="45.8233386993757" lon="8.83910053801674"><ele>378.5</ele><time>2026-05-01T06:48:30.998Z</time></trkpt><trkpt lat="45.823366612622564" lon="8.839272962647884"><ele>378.0</ele><time>2026-05-01T06:48:31.998Z</time></trkpt><trkpt lat="45.82338809244743" lon="8.839433657643916"><ele>376.5</ele><time>2026-05-01T06:48:32.998Z</time></trkpt><trkpt lat="45.82340464950126" lon="8.839574721300476"><ele>375.0</ele><time>2026-05-01T06:48:33.998Z</time></trkpt><trkpt lat="45.82342751228623" lon="8.839676338485837"><ele>373.5</ele><time>2026-05-01T06:48:34.998Z</time></trkpt><trkpt lat="45.82348534425056" lon="8.839756088775955"><ele>372.0</ele><time>2026-05-01T06:48:35.998Z</time></trkpt><trkpt lat="45.82356604148192" lon="8.83976604932432"><ele>370.5</ele><time>2026-05-01T06:48:36.998Z</time></trkpt><trkpt lat="45.823644175025215" lon="8.839768992473942"><ele>369.0</ele><time>2026-05-01T06:48:37.998Z</time></trkpt><trkpt lat="45.8237201388696" lon="8.839733627971134"><ele>366.5</ele><time>2026-05-01T06:48:38.998Z</time></trkpt><trkpt lat="45.82382172663208" lon="8.839616596474942"><ele>364.0</ele><time>2026-05-01T06:48:39.998Z</time></trkpt><trkpt lat="45.82390192722933" lon="8.8395247990586"><ele>361.5</ele><time>2026-05-01T06:48:40.998Z</time></trkpt><trkpt lat="45.82399543172213" lon="8.839426990813648"><ele>359.0</ele><time>2026-05-01T06:48:41.998Z</time></trkpt><trkpt lat="45.82409566314943" lon="8.839327000304365"><ele>360.4</ele><time>2026-05-01T06:48:42.998Z</time></trkpt><trkpt lat="45.8241981224933" lon="8.839253610915248"><ele>361.79999999999995</ele><time>2026-05-01T06:48:43.998Z</time></trkpt><trkpt lat="45.82428115712581" lon="8.839172294197372"><ele>363.20000000000005</ele><time>2026-05-01T06:48:44.998Z</time></trkpt><trkpt lat="45.8243524780068" lon="8.839100952797715"><ele>364.6</ele><time>2026-05-01T06:48:45.998Z</time></trkpt><trkpt lat="45.82446068911888" lon="8.839050121275905"><ele>366.0</ele><time>2026-05-01T06:48:48Z</time></trkpt><trkpt lat="45.82453397404767" lon="8.839174790119229"><ele>366.0</ele><time>2026-05-01T06:48:50Z</time></trkpt><trkpt lat="45.824540276801194" lon="8.839274374661514"><ele>366.0</ele><time>2026-05-01T06:48:51Z</time></trkpt><trkpt lat="45.824483104619354" lon="8.839366407850644"><ele>366.0</ele><time>2026-05-01T06:48:52Z</time></trkpt><trkpt lat="45.824422501879866" lon="8.839453880905149"><ele>366.0</ele><time>2026-05-01T06:48:53Z</time></trkpt><trkpt lat="45.824357023260426" lon="8.83953840221455"><ele>366.0</ele><time>2026-05-01T06:48:54Z</time></trkpt><trkpt lat="45.82430050756133" lon="8.83963735939296"><ele>366.0</ele><time>2026-05-01T06:48:55Z</time></trkpt><trkpt lat="45.824258908021875" lon="8.839752224326263"><ele>364.6</ele><time>2026-05-01T06:48:56Z</time></trkpt><trkpt lat="45.82424426894551" lon="8.83988031237339"><ele>363.20000000000005</ele><time>2026-05-01T06:48:57Z</time></trkpt><trkpt lat="45.82425597100311" lon="8.84000938727032"><ele>361.79999999999995</ele><time>2026-05-01T06:48:58Z</time></trkpt><trkpt lat="45.824299193002794" lon="8.840125508773534"><ele>360.4</ele><time>2026-05-01T06:48:59Z</time></trkpt><trkpt lat="45.82434256043225" lon="8.840238442313996"><ele>359.0</ele><time>2026-05-01T06:49:00Z</time></trkpt><trkpt lat="45.82439060405078" lon="8.840346122028867"><ele>357.79999999999995</ele><time>2026-05-01T06:49:01Z</time></trkpt><trkpt lat="45.824437732186865" lon="8.840459181992578"><ele>356.59999999999997</ele><time>2026-05-01T06:49:02Z</time></trkpt><trkpt lat="45.824484443606096" lon="8.84057167857431"><ele>355.4</ele><time>2026-05-01T06:49:03Z</time></trkpt><trkpt lat="45.82454106009653" lon="8.840681235282373"><ele>354.2</ele><time>2026-05-01T06:49:04Z</time></trkpt><trkpt lat="45.82460809197165" lon="8.8407855542846"><ele>353.0</ele><time>2026-05-01T06:49:05Z</time></trkpt><trkpt lat="45.82467634855963" lon="8.840894397933399"><ele>350.79999999999995</ele><time>2026-05-01T06:49:06Z</time></trkpt><trkpt lat="45.82474598313118" lon="8.84100393086013"><ele>348.6</ele><time>2026-05-01T06:49:07Z</time></trkpt><trkpt lat="45.82480904928096" lon="8.841113694360853"><ele>346.4</ele><time>2026-05-01T06:49:08Z</time></trkpt><trkpt lat="45.82485143142904" lon="8.841221307876244"><ele>344.20000000000005</ele><time>2026-05-01T06:49:09Z</time></trkpt><trkpt lat="45.824867754135056" lon="8.841341242940148"><ele>342.0</ele><time>2026-05-01T06:49:10Z</time></trkpt><trkpt lat="45.82483823401181" lon="8.84147641176073"><ele>342.0</ele><time>2026-05-01T06:49:11Z</time></trkpt><trkpt lat="45.8247773959827" lon="8.841585594827446"><ele>342.0</ele><time>2026-05-01T06:49:12Z</time></trkpt><trkpt lat="45.82470358654644" lon="8.841696069052956"><ele>342.0</ele><time>2026-05-01T06:49:13Z</time></trkpt><trkpt lat="45.824610504175624" lon="8.841824634167505"><ele>342.0</ele><time>2026-05-01T06:49:14Z</time></trkpt><trkpt lat="45.82451029707019" lon="8.841966933431529"><ele>341.75</ele><time>2026-05-01T06:49:15Z</time></trkpt><trkpt lat="45.824420355841326" lon="8.842103854199236"><ele>341.5</ele><time>2026-05-01T06:49:16Z</time></trkpt><trkpt lat="45.82433050003305" lon="8.842234864418796"><ele>341.25</ele><time>2026-05-01T06:49:17Z</time></trkpt><trkpt lat="45.82423914351706" lon="8.8423729042922"><ele>341.0</ele><time>2026-05-01T06:49:18Z</time></trkpt><trkpt lat="45.824152039156886" lon="8.842503103621624"><ele>339.75</ele><time>2026-05-01T06:49:19Z</time></trkpt><trkpt lat="45.824059007068186" lon="8.842635759830705"><ele>338.5</ele><time>2026-05-01T06:49:20Z</time></trkpt><trkpt lat="45.82397187825069" lon="8.842765640184409"><ele>337.25</ele><time>2026-05-01T06:49:21Z</time></trkpt><trkpt lat="45.82389036971285" lon="8.842890603752958"><ele>336.0</ele><time>2026-05-01T06:49:22Z</time></trkpt><trkpt lat="45.82381587103013" lon="8.8430085974578"><ele>336.0</ele><time>2026-05-01T06:49:23Z</time></trkpt><trkpt lat="45.82375651213086" lon="8.843136138538277"><ele>336.0</ele><time>2026-05-01T06:49:24Z</time></trkpt><trkpt lat="45.82373684402181" lon="8.843275443755639"><ele>336.0</ele><time>2026-05-01T06:49:25Z</time></trkpt><trkpt lat="45.82374755650069" lon="8.843424896157224"><ele>336.0</ele><time>2026-05-01T06:49:26Z</time></trkpt><trkpt lat="45.82378070379607" lon="8.843574352159372"><ele>336.0</ele><time>2026-05-01T06:49:27Z</time></trkpt><trkpt lat="45.82382219481352" lon="8.8437024565045"><ele>335.8</ele><time>2026-05-01T06:49:28Z</time></trkpt><trkpt lat="45.823880782148585" lon="8.84384395365564"><ele>335.6</ele><time>2026-05-01T06:49:28.999Z</time></trkpt><trkpt lat="45.823943084085435" lon="8.843982187221405"><ele>335.4</ele><time>2026-05-01T06:49:29.999Z</time></trkpt><trkpt lat="45.82398294438725" lon="8.84407029557856"><ele>335.2</ele><time>2026-05-01T06:49:30.999Z</time></trkpt><trkpt lat="45.82404361313148" lon="8.84421122876037"><ele>335.0</ele><time>2026-05-01T06:49:31.999Z</time></trkpt><trkpt lat="45.824131927163926" lon="8.8444931267837"><ele>334.8</ele><time>2026-05-01T06:49:32.999Z</time></trkpt><trkpt lat="45.824195259125865" lon="8.844659587363411"><ele>334.6</ele><time>2026-05-01T06:49:33.999Z</time></trkpt><trkpt lat="45.824250292957664" lon="8.844800938796379"><ele>334.4</ele><time>2026-05-01T06:49:34.999Z</time></trkpt><trkpt lat="45.82429488734455" lon="8.844918476134943"><ele>334.2</ele><time>2026-05-01T06:49:35.999Z</time></trkpt><trkpt lat="45.82433457159629" lon="8.84499538705684"><ele>334.0</ele><time>2026-05-01T06:49:36.999Z</time></trkpt><trkpt lat="45.82439513687294" lon="8.84513559937375"><ele>334.3333333333333</ele><time>2026-05-01T06:50:08.999Z</time></trkpt><trkpt lat="45.82443149212091" lon="8.845232899456754"><ele>334.66666666666663</ele><time>2026-05-01T06:50:10.999Z</time></trkpt><trkpt lat="45.824473946425265" lon="8.84534405521182"><ele>335.0</ele><time>2026-05-01T06:50:12.999Z</time></trkpt><trkpt lat="45.824386364761565" lon="8.845348366706077"><ele>335.3333333333333</ele><time>2026-05-01T06:50:13.999Z</time></trkpt><trkpt lat="45.82435610566494" lon="8.845460780191745"><ele>335.6666666666667</ele><time>2026-05-01T06:50:14.999Z</time></trkpt><trkpt lat="45.82433092421898" lon="8.845598370465384"><ele>336.0</ele><time>2026-05-01T06:50:15.999Z</time></trkpt><trkpt lat="45.82430905582907" lon="8.845734175684383"><ele>335.5</ele><time>2026-05-01T06:50:16.999Z</time></trkpt><trkpt lat="45.824288673362695" lon="8.845860753176003"><ele>335.0</ele><time>2026-05-01T06:50:17.999Z</time></trkpt><trkpt lat="45.8242662636958" lon="8.845964939167247"><ele>334.5</ele><time>2026-05-01T06:50:18.999Z</time></trkpt><trkpt lat="45.82423221003302" lon="8.84605532711496"><ele>334.0</ele><time>2026-05-01T06:50:19.999Z</time></trkpt><trkpt lat="45.824175966234485" lon="8.846137486808201"><ele>333.5</ele><time>2026-05-01T06:50:20.999Z</time></trkpt><trkpt lat="45.82410013271884" lon="8.846234433111363"><ele>333.0</ele><time>2026-05-01T06:50:21.999Z</time></trkpt><trkpt lat="45.82402614240303" lon="8.846332143326292"><ele>333.0</ele><time>2026-05-01T06:50:22.999Z</time></trkpt><trkpt lat="45.8239353746456" lon="8.846468034332087"><ele>333.0</ele><time>2026-05-01T06:50:23.999Z</time></trkpt><trkpt lat="45.82385109538447" lon="8.846633638833701"><ele>333.0</ele><time>2026-05-01T06:50:24.999Z</time></trkpt><trkpt lat="45.82378641518855" lon="8.84680362873057"><ele>333.0</ele><time>2026-05-01T06:50:25.999Z</time></trkpt><trkpt lat="45.823733944611924" lon="8.84696300254162"><ele>332.5</ele><time>2026-05-01T06:50:26.999Z</time></trkpt><trkpt lat="45.82366571072877" lon="8.84712528939802"><ele>332.0</ele><time>2026-05-01T06:50:27.999Z</time></trkpt><trkpt lat="45.823573902676394" lon="8.847282460146632"><ele>331.5</ele><time>2026-05-01T06:50:28.999Z</time></trkpt><trkpt lat="45.823456852766604" lon="8.847420679108275"><ele>331.0</ele><time>2026-05-01T06:50:29.999Z</time></trkpt><trkpt lat="45.82333012125027" lon="8.847560290350232"><ele>333.0</ele><time>2026-05-01T06:50:30.999Z</time></trkpt><trkpt lat="45.82320891874483" lon="8.847699281392737"><ele>335.0</ele><time>2026-05-01T06:50:31.999Z</time></trkpt><trkpt lat="45.82311484288586" lon="8.847831360227866"><ele>337.0</ele><time>2026-05-01T06:50:32.999Z</time></trkpt><trkpt lat="45.82297280485262" lon="8.848011286779458"><ele>337.0</ele><time>2026-05-01T06:50:33.998Z</time></trkpt><trkpt lat="45.82283537997372" lon="8.848177608801404"><ele>337.0</ele><time>2026-05-01T06:50:34.998Z</time></trkpt><trkpt lat="45.82271795452386" lon="8.848329968413541"><ele>337.0</ele><time>2026-05-01T06:50:35.998Z</time></trkpt><trkpt lat="45.82260715723317" lon="8.848470783123677"><ele>335.5</ele><time>2026-05-01T06:50:36.998Z</time></trkpt><trkpt lat="45.82250500458298" lon="8.848602078616873"><ele>334.0</ele><time>2026-05-01T06:50:37.998Z</time></trkpt><trkpt lat="45.822413000996065" lon="8.848732424945538"><ele>332.5</ele><time>2026-05-01T06:50:38.998Z</time></trkpt><trkpt lat="45.82234225604569" lon="8.848889525945843"><ele>331.0</ele><time>2026-05-01T06:50:39.998Z</time></trkpt><trkpt lat="45.82230486699795" lon="8.849083629830405"><ele>331.0</ele><time>2026-05-01T06:50:40.998Z</time></trkpt><trkpt lat="45.82228542935248" lon="8.849284849289045"><ele>331.0</ele><time>2026-05-01T06:50:41.998Z</time></trkpt><trkpt lat="45.822282070283876" lon="8.849489801546348"><ele>331.0</ele><time>2026-05-01T06:50:42.998Z</time></trkpt><trkpt lat="45.822256129589775" lon="8.849670301078314"><ele>331.0</ele><time>2026-05-01T06:50:43.998Z</time></trkpt><trkpt lat="45.82224057817146" lon="8.849822018422268"><ele>332.16666666666663</ele><time>2026-05-01T06:50:44.998Z</time></trkpt><trkpt lat="45.822200592614756" lon="8.849932967883728"><ele>333.3333333333333</ele><time>2026-05-01T06:50:45.998Z</time></trkpt><trkpt lat="45.82208847098822" lon="8.849963366498617"><ele>334.5</ele><time>2026-05-01T06:50:47.998Z</time></trkpt><trkpt lat="45.822018954242516" lon="8.849924177805292"><ele>335.6666666666667</ele><time>2026-05-01T06:50:48.998Z</time></trkpt><trkpt lat="45.82195008710556" lon="8.849909918260048"><ele>336.83333333333337</ele><time>2026-05-01T06:50:49.998Z</time></trkpt><trkpt lat="45.821885710801986" lon="8.849982745358362"><ele>338.0</ele><time>2026-05-01T06:50:50.998Z</time></trkpt><trkpt lat="45.82184723098798" lon="8.850094040492214"><ele>339.4</ele><time>2026-05-01T06:50:51.998Z</time></trkpt><trkpt lat="45.821831952078654" lon="8.850235778673753"><ele>340.79999999999995</ele><time>2026-05-01T06:50:52.998Z</time></trkpt><trkpt lat="45.821807537580376" lon="8.850380995879922"><ele>342.2</ele><time>2026-05-01T06:50:54Z</time></trkpt><trkpt lat="45.82174931718433" lon="8.850532268524784"><ele>343.6</ele><time>2026-05-01T06:50:55Z</time></trkpt><trkpt lat="45.821670073464915" lon="8.850656621689971"><ele>345.0</ele><time>2026-05-01T06:50:56Z</time></trkpt><trkpt lat="45.82156774148789" lon="8.850714161684543"><ele>343.6666666666667</ele><time>2026-05-01T06:50:57Z</time></trkpt><trkpt lat="45.82148197641474" lon="8.85079367472753"><ele>342.33333333333337</ele><time>2026-05-01T06:50:58Z</time></trkpt><trkpt lat="45.82142077840889" lon="8.850899515658027"><ele>341.0</ele><time>2026-05-01T06:50:59Z</time></trkpt><trkpt lat="45.821259289216755" lon="8.85125842735562"><ele>341.0</ele><time>2026-05-01T06:51:00Z</time></trkpt><trkpt lat="45.821119991670706" lon="8.85140020436959"><ele>341.0</ele><time>2026-05-01T06:51:01Z</time></trkpt><trkpt lat="45.82096632325909" lon="8.85152842063741"><ele>341.0</ele><time>2026-05-01T06:51:02Z</time></trkpt><trkpt lat="45.820810373986475" lon="8.851626896691249"><ele>342.6666666666667</ele><time>2026-05-01T06:51:03Z</time></trkpt><trkpt lat="45.82063642395419" lon="8.851712180822293"><ele>344.3333333333333</ele><time>2026-05-01T06:51:04Z</time></trkpt><trkpt lat="45.820453861199155" lon="8.851757333532705"><ele>346.0</ele><time>2026-05-01T06:51:05Z</time></trkpt><trkpt lat="45.82026916550646" lon="8.851805268886975"><ele>346.0</ele><time>2026-05-01T06:51:06Z</time></trkpt><trkpt lat="45.82007872391991" lon="8.851848726401325"><ele>346.0</ele><time>2026-05-01T06:51:07Z</time></trkpt><trkpt lat="45.81988648473812" lon="8.851886271404743"><ele>346.0</ele><time>2026-05-01T06:51:08Z</time></trkpt><trkpt lat="45.81969043462009" lon="8.851947790474416"><ele>346.0</ele><time>2026-05-01T06:51:09Z</time></trkpt><trkpt lat="45.81949348859017" lon="8.851987704815778"><ele>346.0</ele><time>2026-05-01T06:51:10Z</time></trkpt><trkpt lat="45.81929461248235" lon="8.852043776267468"><ele>346.0</ele><time>2026-05-01T06:51:11Z</time></trkpt><trkpt lat="45.81911010906067" lon="8.852131570858239"><ele>342.66666666666663</ele><time>2026-05-01T06:51:12Z</time></trkpt><trkpt lat="45.81892895437963" lon="8.852248162545521"><ele>339.3333333333333</ele><time>2026-05-01T06:51:13Z</time></trkpt><trkpt lat="45.818765166410735" lon="8.852402680254443"><ele>336.0</ele><time>2026-05-01T06:51:14Z</time></trkpt><trkpt lat="45.81861812525441" lon="8.852599463758198"><ele>334.3333333333333</ele><time>2026-05-01T06:51:15Z</time></trkpt><trkpt lat="45.81849559183827" lon="8.852835359037593"><ele>332.66666666666663</ele><time>2026-05-01T06:51:16Z</time></trkpt><trkpt lat="45.81839010108368" lon="8.853105260373761"><ele>331.0</ele><time>2026-05-01T06:51:17Z</time></trkpt><trkpt lat="45.81830384819521" lon="8.853409830684091"><ele>334.0</ele><time>2026-05-01T06:51:18Z</time></trkpt><trkpt lat="45.81821718617159" lon="8.853723713894075"><ele>337.0</ele><time>2026-05-01T06:51:19Z</time></trkpt><trkpt lat="45.818135813835326" lon="8.854029152325385"><ele>341.5</ele><time>2026-05-01T06:51:20Z</time></trkpt><trkpt lat="45.81805587995562" lon="8.85433055538847"><ele>346.0</ele><time>2026-05-01T06:51:21Z</time></trkpt><trkpt lat="45.81796853765887" lon="8.854632111910641"><ele>346.0</ele><time>2026-05-01T06:51:22Z</time></trkpt><trkpt lat="45.81786656349601" lon="8.854935212577665"><ele>346.0</ele><time>2026-05-01T06:51:23Z</time></trkpt><trkpt lat="45.81776194632255" lon="8.855223151481198"><ele>339.5</ele><time>2026-05-01T06:51:24Z</time></trkpt><trkpt lat="45.81764345332929" lon="8.855501910707508"><ele>333.0</ele><time>2026-05-01T06:51:25Z</time></trkpt><trkpt lat="45.81751672265842" lon="8.855775539308931"><ele>341.5</ele><time>2026-05-01T06:51:26Z</time></trkpt><trkpt lat="45.817378165593794" lon="8.856044012597833"><ele>350.0</ele><time>2026-05-01T06:51:27Z</time></trkpt><trkpt lat="45.81723374618236" lon="8.856314524469711"><ele>350.0</ele><time>2026-05-01T06:51:28Z</time></trkpt><trkpt lat="45.81707119290499" lon="8.856542917788648"><ele>350.0</ele><time>2026-05-01T06:51:29Z</time></trkpt><trkpt lat="45.81691244860344" lon="8.856776302727642"><ele>344.0</ele><time>2026-05-01T06:51:30Z</time></trkpt><trkpt lat="45.81674302163969" lon="8.856999306902214"><ele>338.0</ele><time>2026-05-01T06:51:31Z</time></trkpt><trkpt lat="45.81655990623804" lon="8.857227389039899"><ele>338.0</ele><time>2026-05-01T06:51:32Z</time></trkpt><trkpt lat="45.81636961714439" lon="8.85744269642595"><ele>338.0</ele><time>2026-05-01T06:51:33Z</time></trkpt><trkpt lat="45.81618456951345" lon="8.857670719605265"><ele>333.5</ele><time>2026-05-01T06:51:34Z</time></trkpt><trkpt lat="45.81597430159802" lon="8.857868485848423"><ele>329.0</ele><time>2026-05-01T06:51:35Z</time></trkpt><trkpt lat="45.81578273832045" lon="8.858087247231962"><ele>329.0</ele><time>2026-05-01T06:51:36Z</time></trkpt><trkpt lat="45.815595878413966" lon="8.858318901238759"><ele>329.0</ele><time>2026-05-01T06:51:37Z</time></trkpt><trkpt lat="45.81538619806672" lon="8.858523911031119"><ele>327.5</ele><time>2026-05-01T06:51:38Z</time></trkpt><trkpt lat="45.81518118715597" lon="8.858747755409707"><ele>326.0</ele><time>2026-05-01T06:51:39Z</time></trkpt><trkpt lat="45.814979139892294" lon="8.858992961099004"><ele>326.0</ele><time>2026-05-01T06:51:40Z</time></trkpt><trkpt lat="45.814771311393216" lon="8.859210296408987"><ele>326.0</ele><time>2026-05-01T06:51:41Z</time></trkpt><trkpt lat="45.81457536891669" lon="8.859412195760294"><ele>325.0</ele><time>2026-05-01T06:51:41.999Z</time></trkpt><trkpt lat="45.81440087679945" lon="8.859606843088518"><ele>324.0</ele><time>2026-05-01T06:51:42.999Z</time></trkpt><trkpt lat="45.81423189554501" lon="8.859790911114187"><ele>323.0</ele><time>2026-05-01T06:51:43.999Z</time></trkpt><trkpt lat="45.814069545445776" lon="8.859969372033637"><ele>327.6666666666667</ele><time>2026-05-01T06:51:44.999Z</time></trkpt><trkpt lat="45.813914305038175" lon="8.860143083339178"><ele>332.3333333333333</ele><time>2026-05-01T06:51:45.999Z</time></trkpt><trkpt lat="45.813760774688404" lon="8.86028821344293"><ele>337.0</ele><time>2026-05-01T06:51:46.999Z</time></trkpt><trkpt lat="45.81362380814846" lon="8.860429900293777"><ele>337.0</ele><time>2026-05-01T06:51:47.999Z</time></trkpt><trkpt lat="45.81348974317493" lon="8.860532603671414"><ele>337.0</ele><time>2026-05-01T06:51:48.999Z</time></trkpt><trkpt lat="45.813378444638026" lon="8.86059986591262"><ele>337.0</ele><time>2026-05-01T06:51:49.999Z</time></trkpt><trkpt lat="45.8132876856551" lon="8.86065447648185"><ele>337.0</ele><time>2026-05-01T06:51:50.999Z</time></trkpt><trkpt lat="45.81322008458647" lon="8.860701438994308"><ele>337.0</ele><time>2026-05-01T06:51:51.999Z</time></trkpt><trkpt lat="45.81311472590908" lon="8.860766930164322"><ele>334.0</ele><time>2026-05-01T06:51:55.999Z</time></trkpt><trkpt lat="45.81304594690334" lon="8.860804507056782"><ele>331.0</ele><time>2026-05-01T06:51:56.999Z</time></trkpt><trkpt lat="45.812974836046635" lon="8.860860985516469"><ele>328.0</ele><time>2026-05-01T06:51:57.999Z</time></trkpt><trkpt lat="45.81289392038342" lon="8.860919238429945"><ele>325.0</ele><time>2026-05-01T06:51:58.999Z</time></trkpt><trkpt lat="45.81280681756531" lon="8.860992160752415"><ele>322.0</ele><time>2026-05-01T06:51:59.999Z</time></trkpt><trkpt lat="45.812717293529055" lon="8.861072012013862"><ele>320.42857142857144</ele><time>2026-05-01T06:52:00.999Z</time></trkpt><trkpt lat="45.812651269184265" lon="8.86113696716852"><ele>318.8571428571429</ele><time>2026-05-01T06:52:01.999Z</time></trkpt><trkpt lat="45.81260569728056" lon="8.861214894765242"><ele>317.2857142857143</ele><time>2026-05-01T06:52:02.999Z</time></trkpt><trkpt lat="45.812598897327405" lon="8.861320266424162"><ele>315.7142857142857</ele><time>2026-05-01T06:52:03.999Z</time></trkpt><trkpt lat="45.812617715398424" lon="8.86142378388369"><ele>314.14285714285717</ele><time>2026-05-01T06:52:04.999Z</time></trkpt><trkpt lat="45.81262250185082" lon="8.861520845923435"><ele>312.57142857142856</ele><time>2026-05-01T06:52:05.999Z</time></trkpt><trkpt lat="45.812591700368486" lon="8.861614434945139"><ele>311.0</ele><time>2026-05-01T06:52:06.999Z</time></trkpt><trkpt lat="45.81253057484832" lon="8.861684718960147"><ele>311.0</ele><time>2026-05-01T06:52:07.999Z</time></trkpt><trkpt lat="45.812426888162264" lon="8.861738228809465"><ele>311.0</ele><time>2026-05-01T06:52:08.999Z</time></trkpt><trkpt lat="45.8123375717766" lon="8.861772963536803"><ele>311.0</ele><time>2026-05-01T06:52:09.999Z</time></trkpt><trkpt lat="45.8122706371094" lon="8.861848989294494"><ele>311.0</ele><time>2026-05-01T06:52:10.999Z</time></trkpt><trkpt lat="45.81222301458225" lon="8.86197366716545"><ele>311.0</ele><time>2026-05-01T06:52:11.999Z</time></trkpt><trkpt lat="45.81220701302751" lon="8.862122820324041"><ele>311.33333333333337</ele><time>2026-05-01T06:52:12.999Z</time></trkpt><trkpt lat="45.81222298751796" lon="8.862288263471806"><ele>311.6666666666667</ele><time>2026-05-01T06:52:13.999Z</time></trkpt><trkpt lat="45.81225988400141" lon="8.8624894254083"><ele>312.0</ele><time>2026-05-01T06:52:14.999Z</time></trkpt><trkpt lat="45.81230522589896" lon="8.862753173118577"><ele>312.0</ele><time>2026-05-01T06:52:15.999Z</time></trkpt><trkpt lat="45.81233940778685" lon="8.863002079388313"><ele>312.0</ele><time>2026-05-01T06:52:16.999Z</time></trkpt><trkpt lat="45.81233342457664" lon="8.863233215710082"><ele>312.0</ele><time>2026-05-01T06:52:18.999Z</time></trkpt><trkpt lat="45.81237539595607" lon="8.863402385865957"><ele>311.6</ele><time>2026-05-01T06:52:19.999Z</time></trkpt><trkpt lat="45.81242359048197" lon="8.863543923061862"><ele>311.2</ele><time>2026-05-01T06:52:20.999Z</time></trkpt><trkpt lat="45.81246235284501" lon="8.863686166079614"><ele>310.8</ele><time>2026-05-01T06:52:21.999Z</time></trkpt><trkpt lat="45.81248544545912" lon="8.863820718877975"><ele>310.4</ele><time>2026-05-01T06:52:22.999Z</time></trkpt><trkpt lat="45.81248510490972" lon="8.863962734876113"><ele>310.0</ele><time>2026-05-01T06:52:23.999Z</time></trkpt><trkpt lat="45.812466593717026" lon="8.864116341265989"><ele>309.25</ele><time>2026-05-01T06:52:24.999Z</time></trkpt><trkpt lat="45.81244477884289" lon="8.864285815251563"><ele>308.5</ele><time>2026-05-01T06:52:25.999Z</time></trkpt><trkpt lat="45.812421732581676" lon="8.864473551145073"><ele>307.75</ele><time>2026-05-01T06:52:26.999Z</time></trkpt><trkpt lat="45.81239258935286" lon="8.86464989818686"><ele>307.0</ele><time>2026-05-01T06:52:27.999Z</time></trkpt><trkpt lat="45.8123606138549" lon="8.864829439936173"><ele>307.0</ele><time>2026-05-01T06:52:28.999Z</time></trkpt><trkpt lat="45.81232889486998" lon="8.865015690152683"><ele>307.0</ele><time>2026-05-01T06:52:29.999Z</time></trkpt><trkpt lat="45.81229590353043" lon="8.865217641986655"><ele>307.0</ele><time>2026-05-01T06:52:30.999Z</time></trkpt><trkpt lat="45.81225992509937" lon="8.865424181101554"><ele>307.0</ele><time>2026-05-01T06:52:31.999Z</time></trkpt><trkpt lat="45.81222498286185" lon="8.865636287463206"><ele>307.0</ele><time>2026-05-01T06:52:32.999Z</time></trkpt><trkpt lat="45.81219168642963" lon="8.865828247924178"><ele>307.0</ele><time>2026-05-01T06:52:33.999Z</time></trkpt><trkpt lat="45.812166777443714" lon="8.866009888426776"><ele>307.0</ele><time>2026-05-01T06:52:34.999Z</time></trkpt><trkpt lat="45.81215606210245" lon="8.866190383240152"><ele>307.0</ele><time>2026-05-01T06:52:35.999Z</time></trkpt><trkpt lat="45.81217339919401" lon="8.866376063817963"><ele>307.0</ele><time>2026-05-01T06:52:36.999Z</time></trkpt><trkpt lat="45.812218732327004" lon="8.86657081403632"><ele>307.0</ele><time>2026-05-01T06:52:37.999Z</time></trkpt><trkpt lat="45.812274900607505" lon="8.866768318713952"><ele>307.0</ele><time>2026-05-01T06:52:38.999Z</time></trkpt><trkpt lat="45.812337478669605" lon="8.866969678184097"><ele>307.0</ele><time>2026-05-01T06:52:39.999Z</time></trkpt><trkpt lat="45.8123984362525" lon="8.867170853794144"><ele>307.0</ele><time>2026-05-01T06:52:40.999Z</time></trkpt><trkpt lat="45.812462624249214" lon="8.86737045510862"><ele>307.0</ele><time>2026-05-01T06:52:41.999Z</time></trkpt><trkpt lat="45.812528831528525" lon="8.867524195648729"><ele>307.0</ele><time>2026-05-01T06:52:42.999Z</time></trkpt><trkpt lat="45.812565857988666" lon="8.867638576285152"><ele>307.0</ele><time>2026-05-01T06:52:43.999Z</time></trkpt><trkpt lat="45.81262461758226" lon="8.867776820834557"><ele>308.66666666666663</ele><time>2026-05-01T06:52:44.999Z</time></trkpt><trkpt lat="45.812746846708" lon="8.868003987032509"><ele>310.3333333333333</ele><time>2026-05-01T06:52:45.999Z</time></trkpt><trkpt lat="45.812842793273106" lon="8.868127568184812"><ele>312.0</ele><time>2026-05-01T06:52:46.999Z</time></trkpt><trkpt lat="45.812961489435835" lon="8.868202398341149"><ele>312.0</ele><time>2026-05-01T06:52:47.999Z</time></trkpt><trkpt lat="45.813100086379706" lon="8.868249370810315"><ele>312.0</ele><time>2026-05-01T06:52:48.998Z</time></trkpt><trkpt lat="45.813248289828834" lon="8.868263576888182"><ele>312.0</ele><time>2026-05-01T06:52:49.998Z</time></trkpt><trkpt lat="45.81339813427984" lon="8.868268422430694"><ele>312.0</ele><time>2026-05-01T06:52:50.998Z</time></trkpt><trkpt lat="45.8135448350899" lon="8.868290901509605"><ele>312.5</ele><time>2026-05-01T06:52:51.998Z</time></trkpt><trkpt lat="45.81367347734546" lon="8.86829828979976"><ele>313.0</ele><time>2026-05-01T06:52:52.998Z</time></trkpt><trkpt lat="45.813801541881176" lon="8.86831970305261"><ele>313.5</ele><time>2026-05-01T06:52:53.998Z</time></trkpt><trkpt lat="45.8139045364922" lon="8.868390185992208"><ele>314.0</ele><time>2026-05-01T06:52:54.998Z</time></trkpt><trkpt lat="45.81400464262245" lon="8.868479326263607"><ele>316.0</ele><time>2026-05-01T06:52:55.998Z</time></trkpt><trkpt lat="45.81408825523055" lon="8.86862470308164"><ele>318.0</ele><time>2026-05-01T06:52:56.998Z</time></trkpt><trkpt lat="45.81418211812694" lon="8.868762094705518"><ele>320.0</ele><time>2026-05-01T06:52:57.998Z</time></trkpt><trkpt lat="45.814297199903805" lon="8.868872454250345"><ele>322.0</ele><time>2026-05-01T06:52:58.998Z</time></trkpt><trkpt lat="45.814389755091156" lon="8.868962107442295"><ele>322.20000000000005</ele><time>2026-05-01T06:53:00Z</time></trkpt><trkpt lat="45.814482842934126" lon="8.868995145388501"><ele>322.4</ele><time>2026-05-01T06:53:01Z</time></trkpt><trkpt lat="45.81455557231066" lon="8.869070888785807"><ele>322.6</ele><time>2026-05-01T06:53:02Z</time></trkpt><trkpt lat="45.81460850169335" lon="8.869181080442821"><ele>322.79999999999995</ele><time>2026-05-01T06:53:03Z</time></trkpt><trkpt lat="45.81460900770413" lon="8.86934058877934"><ele>323.0</ele><time>2026-05-01T06:53:04Z</time></trkpt><trkpt lat="45.81464654172409" lon="8.869479156350549"><ele>324.5</ele><time>2026-05-01T06:53:05Z</time></trkpt><trkpt lat="45.81466649099915" lon="8.869635282541593"><ele>326.0</ele><time>2026-05-01T06:53:06Z</time></trkpt><trkpt lat="45.81469312459334" lon="8.869796172938154"><ele>327.5</ele><time>2026-05-01T06:53:07Z</time></trkpt><trkpt lat="45.81472690422102" lon="8.86995864290296"><ele>329.0</ele><time>2026-05-01T06:53:08Z</time></trkpt><trkpt lat="45.8147634667538" lon="8.870141532034413"><ele>333.0</ele><time>2026-05-01T06:53:09Z</time></trkpt><trkpt lat="45.81480165947344" lon="8.870326396789313"><ele>337.0</ele><time>2026-05-01T06:53:10Z</time></trkpt><trkpt lat="45.814834292066614" lon="8.87049904183587"><ele>341.0</ele><time>2026-05-01T06:53:11Z</time></trkpt><trkpt lat="45.814849998694896" lon="8.870667939049794"><ele>345.0</ele><time>2026-05-01T06:53:12Z</time></trkpt><trkpt lat="45.814822910115545" lon="8.870845688670652"><ele>348.5</ele><time>2026-05-01T06:53:13Z</time></trkpt><trkpt lat="45.81480635125484" lon="8.871031380673402"><ele>352.0</ele><time>2026-05-01T06:53:14Z</time></trkpt><trkpt lat="45.814789352134824" lon="8.871216594030805"><ele>355.5</ele><time>2026-05-01T06:53:15Z</time></trkpt><trkpt lat="45.81476851033402" lon="8.871393178774797"><ele>359.0</ele><time>2026-05-01T06:53:16Z</time></trkpt><trkpt lat="45.81477501082753" lon="8.871572459927608"><ele>359.0</ele><time>2026-05-01T06:53:17Z</time></trkpt><trkpt lat="45.81481370630015" lon="8.871752687351638"><ele>359.0</ele><time>2026-05-01T06:53:18Z</time></trkpt><trkpt lat="45.81488264427354" lon="8.87193502946961"><ele>359.0</ele><time>2026-05-01T06:53:19Z</time></trkpt><trkpt lat="45.81496890850759" lon="8.872119524629039"><ele>359.0</ele><time>2026-05-01T06:53:20Z</time></trkpt><trkpt lat="45.81505964535305" lon="8.872295630996218"><ele>359.5</ele><time>2026-05-01T06:53:21Z</time></trkpt><trkpt lat="45.81514774648466" lon="8.872464164345619"><ele>360.0</ele><time>2026-05-01T06:53:22Z</time></trkpt><trkpt lat="45.815247240670125" lon="8.872604205615804"><ele>360.5</ele><time>2026-05-01T06:53:23Z</time></trkpt><trkpt lat="45.81537304278004" lon="8.872689259436656"><ele>361.0</ele><time>2026-05-01T06:53:24Z</time></trkpt><trkpt lat="45.81552145204118" lon="8.872698066732946"><ele>362.75</ele><time>2026-05-01T06:53:25Z</time></trkpt><trkpt lat="45.815665905178314" lon="8.872706828350102"><ele>364.5</ele><time>2026-05-01T06:53:26Z</time></trkpt><trkpt lat="45.81579972282283" lon="8.872811735456168"><ele>366.25</ele><time>2026-05-01T06:53:27Z</time></trkpt><trkpt lat="45.815923434380295" lon="8.872919484153883"><ele>368.0</ele><time>2026-05-01T06:53:28Z</time></trkpt><trkpt lat="45.81604724859782" lon="8.87303727251741"><ele>369.6666666666667</ele><time>2026-05-01T06:53:29Z</time></trkpt><trkpt lat="45.81613122493209" lon="8.87318765357038"><ele>371.3333333333333</ele><time>2026-05-01T06:53:30Z</time></trkpt><trkpt lat="45.81616331387547" lon="8.873273116122952"><ele>373.0</ele><time>2026-05-01T06:53:31Z</time></trkpt><trkpt lat="45.816336092694655" lon="8.873567877907929"><ele>373.3333333333333</ele><time>2026-05-01T06:53:32Z</time></trkpt><trkpt lat="45.81647039220103" lon="8.873703102135302"><ele>373.6666666666667</ele><time>2026-05-01T06:53:33Z</time></trkpt><trkpt lat="45.81663259783082" lon="8.873796745678757"><ele>374.0</ele><time>2026-05-01T06:53:34Z</time></trkpt><trkpt lat="45.816792036324685" lon="8.873915709338794"><ele>374.6666666666667</ele><time>2026-05-01T06:53:35Z</time></trkpt><trkpt lat="45.81693364579076" lon="8.874060094117583"><ele>375.3333333333333</ele><time>2026-05-01T06:53:36Z</time></trkpt><trkpt lat="45.81707721043657" lon="8.874204990390398"><ele>376.0</ele><time>2026-05-01T06:53:37Z</time></trkpt><trkpt lat="45.817204583620466" lon="8.87437198602005"><ele>376.3333333333333</ele><time>2026-05-01T06:53:38Z</time></trkpt><trkpt lat="45.817323269415695" lon="8.874565371902124"><ele>376.6666666666667</ele><time>2026-05-01T06:53:39Z</time></trkpt><trkpt lat="45.81744755965488" lon="8.874747156836277"><ele>377.0</ele><time>2026-05-01T06:53:40Z</time></trkpt><trkpt lat="45.81758411831291" lon="8.874876219796414"><ele>376.75</ele><time>2026-05-01T06:53:41Z</time></trkpt><trkpt lat="45.81771968806072" lon="8.874958879877473"><ele>376.5</ele><time>2026-05-01T06:53:42Z</time></trkpt><trkpt lat="45.81785215659523" lon="8.875045336374198"><ele>376.25</ele><time>2026-05-01T06:53:43Z</time></trkpt><trkpt lat="45.81796990393097" lon="8.87514841041462"><ele>376.0</ele><time>2026-05-01T06:53:44Z</time></trkpt><trkpt lat="45.818062681160725" lon="8.875299348061416"><ele>376.0</ele><time>2026-05-01T06:53:45Z</time></trkpt><trkpt lat="45.81816064212199" lon="8.875455584922472"><ele>376.0</ele><time>2026-05-01T06:53:46Z</time></trkpt><trkpt lat="45.81822930173803" lon="8.875618966454677"><ele>376.0</ele><time>2026-05-01T06:53:46.999Z</time></trkpt><trkpt lat="45.81827042119486" lon="8.87576668661356"><ele>376.0</ele><time>2026-05-01T06:53:47.999Z</time></trkpt><trkpt lat="45.81826489301555" lon="8.875914512322481"><ele>377.5</ele><time>2026-05-01T06:53:48.999Z</time></trkpt><trkpt lat="45.81826711103524" lon="8.876073074068989"><ele>379.0</ele><time>2026-05-01T06:53:49.999Z</time></trkpt><trkpt lat="45.81825062773592" lon="8.876240939440512"><ele>380.5</ele><time>2026-05-01T06:53:50.999Z</time></trkpt><trkpt lat="45.818230140481106" lon="8.876414108350236"><ele>382.0</ele><time>2026-05-01T06:53:51.999Z</time></trkpt><trkpt lat="45.81819532446308" lon="8.876572601866188"><ele>382.0</ele><time>2026-05-01T06:53:52.999Z</time></trkpt><trkpt lat="45.818098431305636" lon="8.876761118811425"><ele>382.0</ele><time>2026-05-01T06:53:53.999Z</time></trkpt><trkpt lat="45.818028516715046" lon="8.87689413456052"><ele>382.0</ele><time>2026-05-01T06:53:54.999Z</time></trkpt><trkpt lat="45.81795893664915" lon="8.877079455381331"><ele>382.0</ele><time>2026-05-01T06:53:55.999Z</time></trkpt><trkpt lat="45.817888146660266" lon="8.877225553535688"><ele>383.0</ele><time>2026-05-01T06:53:56.999Z</time></trkpt><trkpt lat="45.81779814182381" lon="8.877393887683773"><ele>384.0</ele><time>2026-05-01T06:53:57.999Z</time></trkpt><trkpt lat="45.817736892489954" lon="8.877576264165288"><ele>385.0</ele><time>2026-05-01T06:53:58.999Z</time></trkpt><trkpt lat="45.81766432630946" lon="8.877722639973301"><ele>386.0</ele><time>2026-05-01T06:53:59.999Z</time></trkpt><trkpt lat="45.81761063414676" lon="8.87783092184652"><ele>387.0</ele><time>2026-05-01T06:54:00.999Z</time></trkpt><trkpt lat="45.817582063381856" lon="8.877946890514915"><ele>388.0</ele><time>2026-05-01T06:54:01.999Z</time></trkpt><trkpt lat="45.817606132947226" lon="8.87805794241478"><ele>389.0</ele><time>2026-05-01T06:54:02.999Z</time></trkpt><trkpt lat="45.817665534628794" lon="8.87814994036166"><ele>390.0</ele><time>2026-05-01T06:54:03.999Z</time></trkpt><trkpt lat="45.81775823624839" lon="8.8782159603103"><ele>391.0</ele><time>2026-05-01T06:54:04.999Z</time></trkpt><trkpt lat="45.817855120483586" lon="8.878277757529146"><ele>391.0</ele><time>2026-05-01T06:54:05.999Z</time></trkpt><trkpt lat="45.81793292545861" lon="8.878379532316043"><ele>391.0</ele><time>2026-05-01T06:54:06.999Z</time></trkpt><trkpt lat="45.81795434959526" lon="8.878529164204574"><ele>391.0</ele><time>2026-05-01T06:54:07.999Z</time></trkpt><trkpt lat="45.817964028807516" lon="8.878696870388287"><ele>391.0</ele><time>2026-05-01T06:54:08.999Z</time></trkpt><trkpt lat="45.817990298177406" lon="8.878880479363323"><ele>392.0</ele><time>2026-05-01T06:54:09.999Z</time></trkpt><trkpt lat="45.81799103689397" lon="8.879076910857489"><ele>393.0</ele><time>2026-05-01T06:54:10.999Z</time></trkpt><trkpt lat="45.81803192440892" lon="8.879255551213749"><ele>394.0</ele><time>2026-05-01T06:54:11.999Z</time></trkpt><trkpt lat="45.81807399271675" lon="8.879447859877176"><ele>395.0</ele><time>2026-05-01T06:54:12.999Z</time></trkpt><trkpt lat="45.81811333188159" lon="8.879628367808532"><ele>394.99999999999994</ele><time>2026-05-01T06:54:13.999Z</time></trkpt><trkpt lat="45.818143485272884" lon="8.879777120911259"><ele>395.0</ele><time>2026-05-01T06:54:14.999Z</time></trkpt><trkpt lat="45.818163095043595" lon="8.879906400931997"><ele>395.0</ele><time>2026-05-01T06:54:15.999Z</time></trkpt><trkpt lat="45.818178243582196" lon="8.880016983040807"><ele>395.0</ele><time>2026-05-01T06:54:16.999Z</time></trkpt><trkpt lat="45.81814798207586" lon="8.880122599914031"><ele>394.99999999999994</ele><time>2026-05-01T06:54:18.999Z</time></trkpt><trkpt lat="45.81808721495861" lon="8.880176091583875"><ele>395.0</ele><time>2026-05-01T06:54:26.999Z</time></trkpt><trkpt lat="45.8182032199148" lon="8.880335463421432"><ele>395.4</ele><time>2026-05-01T06:54:29.999Z</time></trkpt><trkpt lat="45.81826618933912" lon="8.880406463733937"><ele>395.8</ele><time>2026-05-01T06:54:30.999Z</time></trkpt><trkpt lat="45.81829428781355" lon="8.880534705098464"><ele>396.20000000000005</ele><time>2026-05-01T06:54:31.999Z</time></trkpt><trkpt lat="45.81829018865027" lon="8.880673276136243"><ele>396.6</ele><time>2026-05-01T06:54:32.999Z</time></trkpt><trkpt lat="45.81829412557022" lon="8.88083783092875"><ele>397.0</ele><time>2026-05-01T06:54:33.999Z</time></trkpt><trkpt lat="45.818286006855935" lon="8.880990296165725"><ele>397.25</ele><time>2026-05-01T06:54:34.999Z</time></trkpt><trkpt lat="45.818285360155585" lon="8.881164246963824"><ele>397.5</ele><time>2026-05-01T06:54:35.999Z</time></trkpt><trkpt lat="45.81828396232448" lon="8.881349497564972"><ele>397.75</ele><time>2026-05-01T06:54:36.999Z</time></trkpt><trkpt lat="45.81828463772975" lon="8.881533393878273"><ele>398.0</ele><time>2026-05-01T06:54:37.999Z</time></trkpt><trkpt lat="45.818275352067914" lon="8.881728192491547"><ele>397.79999999999995</ele><time>2026-05-01T06:54:38.999Z</time></trkpt><trkpt lat="45.81828265661052" lon="8.881910183660725"><ele>397.6</ele><time>2026-05-01T06:54:39.999Z</time></trkpt><trkpt lat="45.81829621823457" lon="8.882076617990554"><ele>397.4</ele><time>2026-05-01T06:54:40.999Z</time></trkpt><trkpt lat="45.81830662041699" lon="8.882218534855102"><ele>397.20000000000005</ele><time>2026-05-01T06:54:41.999Z</time></trkpt><trkpt lat="45.818305448188184" lon="8.882342757500153"><ele>397.0</ele><time>2026-05-01T06:54:42.999Z</time></trkpt><trkpt lat="45.81830587364169" lon="8.88247126041013"><ele>397.40000000000003</ele><time>2026-05-01T06:54:43.999Z</time></trkpt><trkpt lat="45.81831384658786" lon="8.882628403729264"><ele>397.8</ele><time>2026-05-01T06:54:44.999Z</time></trkpt><trkpt lat="45.81831921688998" lon="8.882751898239292"><ele>398.2</ele><time>2026-05-01T06:54:45.999Z</time></trkpt><trkpt lat="45.818342576274816" lon="8.882901750552172"><ele>398.6</ele><time>2026-05-01T06:54:46.999Z</time></trkpt><trkpt lat="45.81836415663406" lon="8.88306174151771"><ele>399.0</ele><time>2026-05-01T06:54:47.999Z</time></trkpt><trkpt lat="45.818384363816456" lon="8.883199087045936"><ele>399.0</ele><time>2026-05-01T06:54:48.999Z</time></trkpt><trkpt lat="45.81840307521459" lon="8.883317108589823"><ele>399.0</ele><time>2026-05-01T06:54:49.999Z</time></trkpt><trkpt lat="45.818414653325455" lon="8.883417148742941"><ele>399.0</ele><time>2026-05-01T06:54:50.999Z</time></trkpt><trkpt lat="45.81840674081152" lon="8.883520780541168"><ele>399.0</ele><time>2026-05-01T06:54:52.998Z</time></trkpt><trkpt lat="45.81848969502748" lon="8.883667438037392"><ele>399.0</ele><time>2026-05-01T06:54:56.998Z</time></trkpt><trkpt lat="45.81851347627038" lon="8.883763183733908"><ele>399.0</ele><time>2026-05-01T06:54:57.998Z</time></trkpt><trkpt lat="45.81853834382387" lon="8.883876152111942"><ele>400.0</ele><time>2026-05-01T06:54:58.998Z</time></trkpt><trkpt lat="45.81855794594392" lon="8.884016276814572"><ele>401.0</ele><time>2026-05-01T06:54:59.998Z</time></trkpt><trkpt lat="45.818587116054886" lon="8.88415358651456"><ele>402.0</ele><time>2026-05-01T06:55:00.998Z</time></trkpt><trkpt lat="45.81861151615617" lon="8.884282101347498"><ele>403.0</ele><time>2026-05-01T06:55:01.998Z</time></trkpt><trkpt lat="45.81864522706625" lon="8.884423224609138"><ele>404.0</ele><time>2026-05-01T06:55:02.998Z</time></trkpt><trkpt lat="45.81867517839387" lon="8.884571856554839"><ele>404.25</ele><time>2026-05-01T06:55:03.998Z</time></trkpt><trkpt lat="45.81868652601228" lon="8.884745430331701"><ele>404.5</ele><time>2026-05-01T06:55:04.998Z</time></trkpt><trkpt lat="45.81869180066808" lon="8.884932883519614"><ele>404.75</ele><time>2026-05-01T06:55:06Z</time></trkpt><trkpt lat="45.81870018004678" lon="8.88519649969902"><ele>405.0</ele><time>2026-05-01T06:55:07Z</time></trkpt><trkpt lat="45.818703908317254" lon="8.885337125661724"><ele>405.0</ele><time>2026-05-01T06:55:08Z</time></trkpt><trkpt lat="45.81871416667146" lon="8.885245483280384"><ele>405.0</ele><time>2026-05-01T06:55:10Z</time></trkpt><trkpt lat="45.818697989500244" lon="8.885115741274802"><ele>405.0</ele><time>2026-05-01T06:55:29Z</time></trkpt><trkpt lat="45.81871281807915" lon="8.885016181960367"><ele>405.0</ele><time>2026-05-01T06:55:30Z</time></trkpt><trkpt lat="45.818710295675366" lon="8.884845713804507"><ele>405.0</ele><time>2026-05-01T06:55:32Z</time></trkpt><trkpt lat="45.818708300589655" lon="8.884686284547362"><ele>405.0</ele><time>2026-05-01T06:55:34Z</time></trkpt><trkpt lat="45.81869181520475" lon="8.884580953244784"><ele>405.0</ele><time>2026-05-01T06:55:36Z</time></trkpt><trkpt lat="45.81866245457443" lon="8.88448277277783"><ele>405.0</ele><time>2026-05-01T06:55:38Z</time></trkpt><trkpt lat="45.818644973620906" lon="8.884359034272034"><ele>405.0</ele><time>2026-05-01T06:55:40Z</time></trkpt><trkpt lat="45.81861664173228" lon="8.884209915854067"><ele>405.0</ele><time>2026-05-01T06:55:42Z</time></trkpt><trkpt lat="45.81858584944723" lon="8.884091989311237"><ele>405.0</ele><time>2026-05-01T06:55:44Z</time></trkpt><trkpt lat="45.81862401189049" lon="8.884003294530919"><ele>404.8</ele><time>2026-05-01T06:55:46Z</time></trkpt><trkpt lat="45.81872338673035" lon="8.88398315181958"><ele>404.6</ele><time>2026-05-01T06:55:48Z</time></trkpt><trkpt lat="45.81884329672034" lon="8.883961980216856"><ele>404.4</ele><time>2026-05-01T06:55:50Z</time></trkpt><trkpt lat="45.8189212793079" lon="8.883939107316024"><ele>404.2</ele><time>2026-05-01T06:55:51Z</time></trkpt><trkpt lat="45.81900841782409" lon="8.883915621521858"><ele>404.0</ele><time>2026-05-01T06:55:52Z</time></trkpt><trkpt lat="45.81910631069366" lon="8.883891194889161"><ele>404.0</ele><time>2026-05-01T06:55:53Z</time></trkpt><trkpt lat="45.81920855151054" lon="8.883862989660711"><ele>404.0</ele><time>2026-05-01T06:55:54Z</time></trkpt><trkpt lat="45.81931082502011" lon="8.883826127680521"><ele>404.0</ele><time>2026-05-01T06:55:54.999Z</time></trkpt><trkpt lat="45.819400728811836" lon="8.883799412633099"><ele>404.0</ele><time>2026-05-01T06:55:55.999Z</time></trkpt><trkpt lat="45.81948629570625" lon="8.88377277373459"><ele>404.0</ele><time>2026-05-01T06:55:56.999Z</time></trkpt><trkpt lat="45.8195615561601" lon="8.883747370362347"><ele>404.99999999999994</ele><time>2026-05-01T06:55:57.999Z</time></trkpt><trkpt lat="45.81962564429698" lon="8.883722986661757"><ele>406.0</ele><time>2026-05-01T06:55:58.999Z</time></trkpt><trkpt lat="45.819688787927625" lon="8.88371610361034"><ele>407.0</ele><time>2026-05-01T06:56:00.999Z</time></trkpt><trkpt lat="45.81972915913533" lon="8.883846431245184"><ele>408.0</ele><time>2026-05-01T06:56:04.999Z</time></trkpt><trkpt lat="45.81975200885938" lon="8.883985038758022"><ele>408.99999999999994</ele><time>2026-05-01T06:56:06.999Z</time></trkpt><trkpt lat="45.81977575729509" lon="8.884151493135567"><ele>410.0</ele><time>2026-05-01T06:56:08.999Z</time></trkpt><trkpt lat="45.819783011027525" lon="8.884242386065377"><ele>410.4</ele><time>2026-05-01T06:56:09.999Z</time></trkpt><trkpt lat="45.81977914254074" lon="8.884347542757878"><ele>410.8</ele><time>2026-05-01T06:56:10.999Z</time></trkpt><trkpt lat="45.819771885980096" lon="8.88445919946489"><ele>411.20000000000005</ele><time>2026-05-01T06:56:11.999Z</time></trkpt><trkpt lat="45.819777751851596" lon="8.88458207247903"><ele>411.6</ele><time>2026-05-01T06:56:12.999Z</time></trkpt><trkpt lat="45.81978376768868" lon="8.884763709913221"><ele>412.0</ele><time>2026-05-01T06:56:13.999Z</time></trkpt><trkpt lat="45.81980477872861" lon="8.885032164456673"><ele>412.20000000000005</ele><time>2026-05-01T06:56:14.999Z</time></trkpt><trkpt lat="45.81983802742716" lon="8.88519841491083"><ele>412.4</ele><time>2026-05-01T06:56:17.999Z</time></trkpt><trkpt lat="45.81985640550302" lon="8.885334363530106"><ele>412.6</ele><time>2026-05-01T06:56:18.999Z</time></trkpt><trkpt lat="45.81987406273621" lon="8.885465723871992"><ele>412.79999999999995</ele><time>2026-05-01T06:56:19.999Z</time></trkpt><trkpt lat="45.81989097949707" lon="8.885586459265369"><ele>413.0</ele><time>2026-05-01T06:56:20.999Z</time></trkpt><trkpt lat="45.819871930524904" lon="8.885677329653353"><ele>412.99999999999994</ele><time>2026-05-01T06:56:21.999Z</time></trkpt><trkpt lat="45.81982749220657" lon="8.885775774724747"><ele>413.0</ele><time>2026-05-01T06:56:23.999Z</time></trkpt><trkpt lat="45.81974456010767" lon="8.885738105755701"><ele>413.0</ele><time>2026-05-01T06:56:25.999Z</time></trkpt><trkpt lat="45.81962891716717" lon="8.885760773186743"><ele>413.0</ele><time>2026-05-01T06:56:27.999Z</time></trkpt><trkpt lat="45.81955879238382" lon="8.885781903556557"><ele>412.99999999999994</ele><time>2026-05-01T06:56:28.999Z</time></trkpt><trkpt lat="45.81948756379298" lon="8.885809416329128"><ele>413.0</ele><time>2026-05-01T06:56:29.999Z</time></trkpt><trkpt lat="45.81941323948237" lon="8.885848607917703"><ele>412.99999999999994</ele><time>2026-05-01T06:56:30.999Z</time></trkpt><trkpt lat="45.8193361372377" lon="8.885903405984955"><ele>413.0</ele><time>2026-05-01T06:56:31.999Z</time></trkpt><trkpt lat="45.819265328725" lon="8.885963348759693"><ele>413.0</ele><time>2026-05-01T06:56:32.999Z</time></trkpt><trkpt lat="45.81920442950959" lon="8.886055224913"><ele>413.0</ele><time>2026-05-01T06:56:33.999Z</time></trkpt><trkpt lat="45.81912155682772" lon="8.886123648497957"><ele>412.99999999999994</ele><time>2026-05-01T06:56:34.999Z</time></trkpt><trkpt lat="45.81904343419845" lon="8.886202596985129"><ele>413.0</ele><time>2026-05-01T06:56:35.999Z</time></trkpt><trkpt lat="45.8189596933653" lon="8.886287539492956"><ele>412.79999999999995</ele><time>2026-05-01T06:56:36.999Z</time></trkpt><trkpt lat="45.818879526319876" lon="8.886367127462027"><ele>412.6</ele><time>2026-05-01T06:56:37.999Z</time></trkpt><trkpt lat="45.818804105113884" lon="8.886436300415648"><ele>412.4</ele><time>2026-05-01T06:56:38.999Z</time></trkpt><trkpt lat="45.81873793044648" lon="8.886506136272134"><ele>412.20000000000005</ele><time>2026-05-01T06:56:39.999Z</time></trkpt><trkpt lat="45.81869509815191" lon="8.886600446707089"><ele>412.0</ele><time>2026-05-01T06:56:40.999Z</time></trkpt><trkpt lat="45.818669079556194" lon="8.886850455181571"><ele>412.00000000000006</ele><time>2026-05-01T06:56:42.999Z</time></trkpt><trkpt lat="45.818673068939646" lon="8.886974049358848"><ele>412.0</ele><time>2026-05-01T06:56:43.999Z</time></trkpt><trkpt lat="45.81867212893159" lon="8.88708783844043"><ele>412.0</ele><time>2026-05-01T06:56:44.999Z</time></trkpt><trkpt lat="45.818650002721654" lon="8.887178601012046"><ele>412.0</ele><time>2026-05-01T06:56:45.999Z</time></trkpt><trkpt lat="45.81860078590049" lon="8.8872885893368"><ele>412.00000000000006</ele><time>2026-05-01T06:56:47.999Z</time></trkpt><trkpt lat="45.818564671237" lon="8.887444171679062"><ele>412.0</ele><time>2026-05-01T06:56:50.999Z</time></trkpt><trkpt lat="45.81855142461335" lon="8.887575908123711"><ele>411.8</ele><time>2026-05-01T06:56:52.999Z</time></trkpt><trkpt lat="45.818534045643744" lon="8.887688422939961"><ele>411.6</ele><time>2026-05-01T06:56:57.999Z</time></trkpt><trkpt lat="45.818550966749946" lon="8.887840017842645"><ele>411.40000000000003</ele><time>2026-05-01T06:56:59.999Z</time></trkpt><trkpt lat="45.81858804911155" lon="8.887946886361581"><ele>411.20000000000005</ele><time>2026-05-01T06:57:00.998Z</time></trkpt><trkpt lat="45.818612764215885" lon="8.88806334358762"><ele>411.0</ele><time>2026-05-01T06:57:01.998Z</time></trkpt><trkpt lat="45.81861177286605" lon="8.88820870263644"><ele>411.0</ele><time>2026-05-01T06:57:02.998Z</time></trkpt><trkpt lat="45.81861814829833" lon="8.888368337361777"><ele>411.0</ele><time>2026-05-01T06:57:03.998Z</time></trkpt><trkpt lat="45.81862887452504" lon="8.888513305333142"><ele>411.0</ele><time>2026-05-01T06:57:04.998Z</time></trkpt><trkpt lat="45.81864478562842" lon="8.8886692100711"><ele>411.0</ele><time>2026-05-01T06:57:05.998Z</time></trkpt><trkpt lat="45.81866565551841" lon="8.88883809135833"><ele>411.0</ele><time>2026-05-01T06:57:06.998Z</time></trkpt><trkpt lat="45.81869709336614" lon="8.889036154779982"><ele>411.0</ele><time>2026-05-01T06:57:07.998Z</time></trkpt><trkpt lat="45.81873398516143" lon="8.88923474735955"><ele>411.0</ele><time>2026-05-01T06:57:08.998Z</time></trkpt><trkpt lat="45.81877935456671" lon="8.88942490306422"><ele>411.0</ele><time>2026-05-01T06:57:09.998Z</time></trkpt><trkpt lat="45.81883943087961" lon="8.889620093608723"><ele>411.0</ele><time>2026-05-01T06:57:10.998Z</time></trkpt><trkpt lat="45.81890964674329" lon="8.889826209661063"><ele>410.33333333333337</ele><time>2026-05-01T06:57:12Z</time></trkpt><trkpt lat="45.81899710220144" lon="8.890044212706655"><ele>409.6666666666667</ele><time>2026-05-01T06:57:13Z</time></trkpt><trkpt lat="45.819072128014035" lon="8.89029859792862"><ele>409.0</ele><time>2026-05-01T06:57:14Z</time></trkpt><trkpt lat="45.81920461123988" lon="8.890686700326373"><ele>409.0</ele><time>2026-05-01T06:57:16Z</time></trkpt><trkpt lat="45.819258620302605" lon="8.890875922332546"><ele>409.0</ele><time>2026-05-01T06:57:17Z</time></trkpt><trkpt lat="45.819304979238595" lon="8.89100890589714"><ele>409.0</ele><time>2026-05-01T06:57:18Z</time></trkpt><trkpt lat="45.81934172793535" lon="8.891147848788426"><ele>409.0</ele><time>2026-05-01T06:57:19Z</time></trkpt><trkpt lat="45.819443393016606" lon="8.89129214001338"><ele>409.0</ele><time>2026-05-01T06:57:20Z</time></trkpt><trkpt lat="45.81949575017314" lon="8.891391195260674"><ele>409.0</ele><time>2026-05-01T06:57:21Z</time></trkpt><trkpt lat="45.819548614821" lon="8.89148667782217"><ele>409.0</ele><time>2026-05-01T06:57:22Z</time></trkpt><trkpt lat="45.8196112024235" lon="8.89159366240629"><ele>409.0</ele><time>2026-05-01T06:57:23Z</time></trkpt><trkpt lat="45.81968320124894" lon="8.89171150016561"><ele>409.0</ele><time>2026-05-01T06:57:24Z</time></trkpt><trkpt lat="45.81976885995566" lon="8.89183183416494"><ele>408.0</ele><time>2026-05-01T06:57:25Z</time></trkpt><trkpt lat="45.819840132953146" lon="8.891964885300043"><ele>407.0</ele><time>2026-05-01T06:57:26Z</time></trkpt><trkpt lat="45.81988870478966" lon="8.892082720815004"><ele>406.0</ele><time>2026-05-01T06:57:27Z</time></trkpt><trkpt lat="45.81996926280529" lon="8.892181472122596"><ele>405.0</ele><time>2026-05-01T06:57:28Z</time></trkpt><trkpt lat="45.82006956874058" lon="8.892363593746367"><ele>405.0</ele><time>2026-05-01T06:57:29Z</time></trkpt><trkpt lat="45.820141750799955" lon="8.892489300770361"><ele>405.0</ele><time>2026-05-01T06:57:30Z</time></trkpt><trkpt lat="45.820190834511635" lon="8.892638468089114"><ele>405.0</ele><time>2026-05-01T06:57:31Z</time></trkpt><trkpt lat="45.82021624527254" lon="8.8927971513235"><ele>405.0</ele><time>2026-05-01T06:57:32Z</time></trkpt><trkpt lat="45.820230519264605" lon="8.892966874405767"><ele>405.0</ele><time>2026-05-01T06:57:33Z</time></trkpt><trkpt lat="45.82022795673571" lon="8.893126405228376"><ele>405.0</ele><time>2026-05-01T06:57:34Z</time></trkpt><trkpt lat="45.820231390361705" lon="8.89326534342813"><ele>405.0</ele><time>2026-05-01T06:57:35Z</time></trkpt><trkpt lat="45.820246659272954" lon="8.893393722160312"><ele>405.0</ele><time>2026-05-01T06:57:36Z</time></trkpt><trkpt lat="45.82026179426173" lon="8.89352002684474"><ele>405.0</ele><time>2026-05-01T06:57:37Z</time></trkpt><trkpt lat="45.82026080079113" lon="8.893653258884534"><ele>405.0</ele><time>2026-05-01T06:57:38Z</time></trkpt><trkpt lat="45.820234985660605" lon="8.893786148723887"><ele>405.0</ele><time>2026-05-01T06:57:39Z</time></trkpt><trkpt lat="45.82019166266082" lon="8.893936159451805"><ele>405.0</ele><time>2026-05-01T06:57:40Z</time></trkpt><trkpt lat="45.820154396053816" lon="8.894093147564178"><ele>405.0</ele><time>2026-05-01T06:57:41Z</time></trkpt><trkpt lat="45.82013201366897" lon="8.894224519203652"><ele>405.0</ele><time>2026-05-01T06:57:42Z</time></trkpt><trkpt lat="45.820085713656766" lon="8.894300255797692"><ele>406.0</ele><time>2026-05-01T06:57:43Z</time></trkpt><trkpt lat="45.82003790826154" lon="8.89436603095899"><ele>407.0</ele><time>2026-05-01T06:57:44Z</time></trkpt><trkpt lat="45.81999154856565" lon="8.8944880176527"><ele>408.0</ele><time>2026-05-01T06:57:46Z</time></trkpt><trkpt lat="45.819949286172616" lon="8.894592808896052"><ele>409.0</ele><time>2026-05-01T06:57:48Z</time></trkpt><trkpt lat="45.819911820312605" lon="8.894732087534956"><ele>410.0</ele><time>2026-05-01T06:57:50Z</time></trkpt><trkpt lat="45.81998871854236" lon="8.894853076263344"><ele>410.0</ele><time>2026-05-01T06:57:51Z</time></trkpt><trkpt lat="45.82004800364805" lon="8.894942161550835"><ele>410.0</ele><time>2026-05-01T06:57:52Z</time></trkpt><trkpt lat="45.8201208330116" lon="8.895009969202663"><ele>410.0</ele><time>2026-05-01T06:57:53Z</time></trkpt><trkpt lat="45.820196382277445" lon="8.89511485217974"><ele>410.0</ele><time>2026-05-01T06:57:54Z</time></trkpt><trkpt lat="45.82026359959161" lon="8.89521842623955"><ele>410.0</ele><time>2026-05-01T06:57:55Z</time></trkpt><trkpt lat="45.82033511411196" lon="8.895313142024094"><ele>410.25</ele><time>2026-05-01T06:57:56Z</time></trkpt><trkpt lat="45.82042420200094" lon="8.895412158684168"><ele>410.5</ele><time>2026-05-01T06:57:57Z</time></trkpt><trkpt lat="45.82055652964467" lon="8.895505184721163"><ele>410.75</ele><time>2026-05-01T06:57:58Z</time></trkpt><trkpt lat="45.820693404994564" lon="8.895586863197929"><ele>411.0</ele><time>2026-05-01T06:57:59Z</time></trkpt><trkpt lat="45.82082149671765" lon="8.895658364503552"><ele>411.0</ele><time>2026-05-01T06:58:00Z</time></trkpt><trkpt lat="45.82090437651032" lon="8.89578107925477"><ele>411.0</ele><time>2026-05-01T06:58:01Z</time></trkpt><trkpt lat="45.82097334245053" lon="8.895862782141785"><ele>411.0</ele><time>2026-05-01T06:58:01.999Z</time></trkpt><trkpt lat="45.821026302450626" lon="8.895917597818714"><ele>411.0</ele><time>2026-05-01T06:58:02.999Z</time></trkpt><trkpt lat="45.82107798481489" lon="8.896034475465092"><ele>411.0</ele><time>2026-05-01T06:58:04.999Z</time></trkpt><trkpt lat="45.82114484853649" lon="8.896163628454568"><ele>410.8</ele><time>2026-05-01T06:58:06.999Z</time></trkpt><trkpt lat="45.821178483595176" lon="8.896263419855075"><ele>410.6</ele><time>2026-05-01T06:58:07.999Z</time></trkpt><trkpt lat="45.82121430373381" lon="8.896377439635945"><ele>410.4</ele><time>2026-05-01T06:58:08.999Z</time></trkpt><trkpt lat="45.821257638209666" lon="8.896505076046509"><ele>410.2</ele><time>2026-05-01T06:58:09.999Z</time></trkpt><trkpt lat="45.8212982061004" lon="8.896629103152236"><ele>410.0</ele><time>2026-05-01T06:58:10.999Z</time></trkpt><trkpt lat="45.82135051711229" lon="8.896736274053755"><ele>410.0</ele><time>2026-05-01T06:58:11.999Z</time></trkpt><trkpt lat="45.821410845257255" lon="8.896852713170933"><ele>410.0</ele><time>2026-05-01T06:58:12.999Z</time></trkpt><trkpt lat="45.82148452839916" lon="8.896975781042554"><ele>410.0</ele><time>2026-05-01T06:58:13.999Z</time></trkpt><trkpt lat="45.82156205217753" lon="8.897103142353968"><ele>410.0</ele><time>2026-05-01T06:58:14.999Z</time></trkpt><trkpt lat="45.8216137204529" lon="8.897221014452688"><ele>410.0</ele><time>2026-05-01T06:58:15.999Z</time></trkpt><trkpt lat="45.82171788301113" lon="8.89737866963547"><ele>410.0</ele><time>2026-05-01T06:58:17.999Z</time></trkpt><trkpt lat="45.82181027541994" lon="8.897531778190677"><ele>410.0</ele><time>2026-05-01T06:58:18.999Z</time></trkpt><trkpt lat="45.82192583430162" lon="8.89776284152931"><ele>410.0</ele><time>2026-05-01T06:58:19.999Z</time></trkpt><trkpt lat="45.8220201976566" lon="8.897914975361873"><ele>410.0</ele><time>2026-05-01T06:58:20.999Z</time></trkpt><trkpt lat="45.82211977100055" lon="8.898046748578905"><ele>410.0</ele><time>2026-05-01T06:58:21.999Z</time></trkpt><trkpt lat="45.822215131763926" lon="8.898172381419737"><ele>410.0</ele><time>2026-05-01T06:58:22.999Z</time></trkpt><trkpt lat="45.822306773262284" lon="8.89827699418593"><ele>410.0</ele><time>2026-05-01T06:58:23.999Z</time></trkpt><trkpt lat="45.822384131987626" lon="8.898362316329452"><ele>411.0</ele><time>2026-05-01T06:58:24.999Z</time></trkpt><trkpt lat="45.82244649966649" lon="8.898429954819406"><ele>412.0</ele><time>2026-05-01T06:58:25.999Z</time></trkpt><trkpt lat="45.822511811524855" lon="8.898495780918354"><ele>413.0</ele><time>2026-05-01T06:58:26.999Z</time></trkpt><trkpt lat="45.82257380139197" lon="8.898582798030093"><ele>414.0</ele><time>2026-05-01T06:58:27.999Z</time></trkpt><trkpt lat="45.82265170407784" lon="8.898659702313536"><ele>415.0</ele><time>2026-05-01T06:58:28.999Z</time></trkpt><trkpt lat="45.82273842852108" lon="8.898759437650256"><ele>415.0</ele><time>2026-05-01T06:58:29.999Z</time></trkpt><trkpt lat="45.82283221954281" lon="8.898849071866364"><ele>415.0</ele><time>2026-05-01T06:58:30.999Z</time></trkpt><trkpt lat="45.82293066867651" lon="8.898976192172109"><ele>415.0</ele><time>2026-05-01T06:58:31.999Z</time></trkpt><trkpt lat="45.8230493610009" lon="8.899121099213845"><ele>415.0</ele><time>2026-05-01T06:58:32.999Z</time></trkpt><trkpt lat="45.82316431708492" lon="8.899288629821765"><ele>415.75</ele><time>2026-05-01T06:58:33.999Z</time></trkpt><trkpt lat="45.82319401428427" lon="8.899406363686355"><ele>416.5</ele><time>2026-05-01T06:58:34.999Z</time></trkpt><trkpt lat="45.82327352069025" lon="8.899561958877218"><ele>417.25</ele><time>2026-05-01T06:58:35.999Z</time></trkpt><trkpt lat="45.82335401934571" lon="8.899710977213314"><ele>418.0</ele><time>2026-05-01T06:58:36.999Z</time></trkpt><trkpt lat="45.8234438164821" lon="8.89989369072043"><ele>418.0</ele><time>2026-05-01T06:58:37.999Z</time></trkpt><trkpt lat="45.82352903536922" lon="8.900069801489328"><ele>418.0</ele><time>2026-05-01T06:58:38.999Z</time></trkpt><trkpt lat="45.82361251616563" lon="8.900251150452632"><ele>418.0</ele><time>2026-05-01T06:58:39.999Z</time></trkpt><trkpt lat="45.82373196680534" lon="8.900526040605081"><ele>418.6666666666667</ele><time>2026-05-01T06:58:40.999Z</time></trkpt><trkpt lat="45.82383892575213" lon="8.900740137339682"><ele>419.33333333333337</ele><time>2026-05-01T06:58:41.999Z</time></trkpt><trkpt lat="45.82393438319586" lon="8.90091815603999"><ele>420.0</ele><time>2026-05-01T06:58:42.999Z</time></trkpt><trkpt lat="45.824024592758725" lon="8.901080996496448"><ele>420.6</ele><time>2026-05-01T06:58:43.999Z</time></trkpt><trkpt lat="45.82409030866919" lon="8.901244870147812"><ele>421.2</ele><time>2026-05-01T06:58:44.999Z</time></trkpt><trkpt lat="45.824140778960015" lon="8.901362311646874"><ele>421.79999999999995</ele><time>2026-05-01T06:58:45.999Z</time></trkpt><trkpt lat="45.82420006864732" lon="8.901440617144392"><ele>422.4</ele><time>2026-05-01T06:58:46.999Z</time></trkpt><trkpt lat="45.82426305147271" lon="8.90155408724317"><ele>423.0</ele><time>2026-05-01T06:58:48.999Z</time></trkpt><trkpt lat="45.82430375199811" lon="8.901631131760107"><ele>423.0</ele><time>2026-05-01T06:58:49.999Z</time></trkpt><trkpt lat="45.82434770930595" lon="8.901714346153689"><ele>423.0</ele><time>2026-05-01T06:58:50.999Z</time></trkpt><trkpt lat="45.82439572631113" lon="8.901836031148122"><ele>423.0</ele><time>2026-05-01T06:58:51.999Z</time></trkpt><trkpt lat="45.824452003638534" lon="8.90190863397818"><ele>423.0</ele><time>2026-05-01T06:58:52.999Z</time></trkpt><trkpt lat="45.824515830767815" lon="8.902014288743652"><ele>423.0</ele><time>2026-05-01T06:58:53.999Z</time></trkpt><trkpt lat="45.82457615172407" lon="8.902129069485596"><ele>423.0</ele><time>2026-05-01T06:58:54.999Z</time></trkpt><trkpt lat="45.82462660310018" lon="8.902251501908378"><ele>422.59999999999997</ele><time>2026-05-01T06:58:55.999Z</time></trkpt><trkpt lat="45.824679209846366" lon="8.902376373605117"><ele>422.2</ele><time>2026-05-01T06:58:56.999Z</time></trkpt><trkpt lat="45.824736277945966" lon="8.90251844464283"><ele>421.8</ele><time>2026-05-01T06:58:57.999Z</time></trkpt><trkpt lat="45.824799267219106" lon="8.902659914120612"><ele>421.4</ele><time>2026-05-01T06:58:58.999Z</time></trkpt><trkpt lat="45.824846214610965" lon="8.902752363257513"><ele>421.0</ele><time>2026-05-01T06:58:59.999Z</time></trkpt><trkpt lat="45.82491813633318" lon="8.902894035984824"><ele>419.5</ele><time>2026-05-01T06:59:01.999Z</time></trkpt><trkpt lat="45.82495956020633" lon="8.902975515727444"><ele>418.0</ele><time>2026-05-01T06:59:02.999Z</time></trkpt><trkpt lat="45.825187560129734" lon="8.903421779063496"><ele>417.59999999999997</ele><time>2026-05-01T06:59:03.999Z</time></trkpt><trkpt lat="45.82524521921777" lon="8.903528310173874"><ele>417.2</ele><time>2026-05-01T06:59:04.999Z</time></trkpt><trkpt lat="45.825291552443495" lon="8.903626184610024"><ele>416.8</ele><time>2026-05-01T06:59:05.999Z</time></trkpt><trkpt lat="45.82534522620143" lon="8.903719184216643"><ele>416.4</ele><time>2026-05-01T06:59:06.998Z</time></trkpt><trkpt lat="45.82540408213047" lon="8.903836584870911"><ele>416.0</ele><time>2026-05-01T06:59:07.998Z</time></trkpt><trkpt lat="45.82547047949214" lon="8.903958224941135"><ele>416.0</ele><time>2026-05-01T06:59:08.998Z</time></trkpt><trkpt lat="45.825529768583536" lon="8.904072075175023"><ele>416.0</ele><time>2026-05-01T06:59:09.998Z</time></trkpt><trkpt lat="45.82554188643044" lon="8.904186433882574"><ele>416.0</ele><time>2026-05-01T06:59:10.998Z</time></trkpt><trkpt lat="45.825559700150905" lon="8.904275931441436"><ele>416.0</ele><time>2026-05-01T06:59:11.998Z</time></trkpt><trkpt lat="45.825587376433454" lon="8.904417833463343"><ele>416.0</ele><time>2026-05-01T06:59:13.998Z</time></trkpt><trkpt lat="45.82542973595736" lon="8.904484662643851"><ele>415.0</ele><time>2026-05-01T06:59:18Z</time></trkpt><trkpt lat="45.82532853058423" lon="8.904483829242734"><ele>414.0</ele><time>2026-05-01T06:59:20Z</time></trkpt><trkpt lat="45.82524867648832" lon="8.904483302824993"><ele>413.0</ele><time>2026-05-01T06:59:22Z</time></trkpt><trkpt lat="45.82528310567943" lon="8.904716442625649"><ele>412.0</ele><time>2026-05-01T06:59:27Z</time></trkpt><trkpt lat="45.825341240477826" lon="8.904796969629196"><ele>411.0</ele><time>2026-05-01T06:59:31Z</time></trkpt><trkpt lat="45.825286338050006" lon="8.904719529393711"><ele>411.0</ele><time>2026-05-01T06:59:51Z</time></trkpt><trkpt lat="45.82525767327676" lon="8.904588434114988"><ele>411.0</ele><time>2026-05-01T06:59:53Z</time></trkpt><trkpt lat="45.825422871353766" lon="8.904520699242223"><ele>411.0</ele><time>2026-05-01T06:59:58Z</time></trkpt><trkpt lat="45.82548699326642" lon="8.904517732094416"><ele>411.0</ele><time>2026-05-01T06:59:59Z</time></trkpt><trkpt lat="45.825568916689754" lon="8.904495290094724"><ele>411.0</ele><time>2026-05-01T07:00:01Z</time></trkpt><trkpt lat="45.82562362279416" lon="8.904576012018738"><ele>411.0</ele><time>2026-05-01T07:00:10.999Z</time></trkpt><trkpt lat="45.82567709799331" lon="8.904729413519057"><ele>411.0</ele><time>2026-05-01T07:00:12.999Z</time></trkpt><trkpt lat="45.82571861122491" lon="8.904829659625277"><ele>411.0</ele><time>2026-05-01T07:00:13.999Z</time></trkpt><trkpt lat="45.82577871549828" lon="8.90493294664218"><ele>411.0</ele><time>2026-05-01T07:00:14.999Z</time></trkpt><trkpt lat="45.82585096639459" lon="8.905039128999636"><ele>411.0</ele><time>2026-05-01T07:00:15.999Z</time></trkpt><trkpt lat="45.82592204519273" lon="8.90515093537859"><ele>410.0</ele><time>2026-05-01T07:00:16.999Z</time></trkpt><trkpt lat="45.8260014745966" lon="8.905265830213859"><ele>409.0</ele><time>2026-05-01T07:00:17.999Z</time></trkpt><trkpt lat="45.82609782193086" lon="8.905422262632166"><ele>408.0</ele><time>2026-05-01T07:00:18.999Z</time></trkpt><trkpt lat="45.826226630735604" lon="8.905584233841935"><ele>407.0</ele><time>2026-05-01T07:00:19.999Z</time></trkpt><trkpt lat="45.82632983412046" lon="8.905737633576175"><ele>407.0</ele><time>2026-05-01T07:00:20.999Z</time></trkpt><trkpt lat="45.82637200507611" lon="8.905804782748973"><ele>407.0</ele><time>2026-05-01T07:00:21.999Z</time></trkpt><trkpt lat="45.8264492131111" lon="8.905891229248304"><ele>407.0</ele><time>2026-05-01T07:00:22.999Z</time></trkpt><trkpt lat="45.82655593878857" lon="8.90591869729506"><ele>407.0</ele><time>2026-05-01T07:00:23.999Z</time></trkpt><trkpt lat="45.826673338062164" lon="8.905920179559413"><ele>407.0</ele><time>2026-05-01T07:00:24.999Z</time></trkpt><trkpt lat="45.826798900339035" lon="8.905881471187534"><ele>408.3333333333333</ele><time>2026-05-01T07:00:25.999Z</time></trkpt><trkpt lat="45.82692721062805" lon="8.90584672441281"><ele>409.66666666666663</ele><time>2026-05-01T07:00:26.999Z</time></trkpt><trkpt lat="45.827201091669615" lon="8.905856581800176"><ele>411.0</ele><time>2026-05-01T07:00:28.999Z</time></trkpt><trkpt lat="45.827358567717084" lon="8.905869823810232"><ele>411.0</ele><time>2026-05-01T07:00:29.999Z</time></trkpt><trkpt lat="45.82751473361824" lon="8.905910318126384"><ele>411.0</ele><time>2026-05-01T07:00:30.999Z</time></trkpt><trkpt lat="45.827692900063084" lon="8.905947388407753"><ele>411.0</ele><time>2026-05-01T07:00:31.999Z</time></trkpt><trkpt lat="45.8278611195526" lon="8.90597463408085"><ele>401.6666666666667</ele><time>2026-05-01T07:00:32.999Z</time></trkpt><trkpt lat="45.828016272377596" lon="8.905993788000924"><ele>392.33333333333337</ele><time>2026-05-01T07:00:33.999Z</time></trkpt><trkpt lat="45.82816816414885" lon="8.906045576177076"><ele>383.0</ele><time>2026-05-01T07:00:34.999Z</time></trkpt><trkpt lat="45.82831235163626" lon="8.906131227331734"><ele>383.0</ele><time>2026-05-01T07:00:35.999Z</time></trkpt><trkpt lat="45.828464966812746" lon="8.906218954699298"><ele>383.0</ele><time>2026-05-01T07:00:36.999Z</time></trkpt><trkpt lat="45.82861600324046" lon="8.90631042295644"><ele>383.0</ele><time>2026-05-01T07:00:37.999Z</time></trkpt><trkpt lat="45.828764957354494" lon="8.906396297092266"><ele>381.75</ele><time>2026-05-01T07:00:38.999Z</time></trkpt><trkpt lat="45.82890823436522" lon="8.906477104156068"><ele>380.5</ele><time>2026-05-01T07:00:39.999Z</time></trkpt><trkpt lat="45.82903661647586" lon="8.906593612638646"><ele>379.25</ele><time>2026-05-01T07:00:40.999Z</time></trkpt><trkpt lat="45.829132798254484" lon="8.90670020425594"><ele>378.0</ele><time>2026-05-01T07:00:41.999Z</time></trkpt><trkpt lat="45.829214459704346" lon="8.906782910163837"><ele>383.66666666666663</ele><time>2026-05-01T07:00:42.999Z</time></trkpt><trkpt lat="45.82931389967614" lon="8.906932424343879"><ele>389.3333333333333</ele><time>2026-05-01T07:00:43.999Z</time></trkpt><trkpt lat="45.8294362379487" lon="8.907149750783393"><ele>395.0</ele><time>2026-05-01T07:00:44.999Z</time></trkpt><trkpt lat="45.829524875380635" lon="8.907308621253632"><ele>395.0</ele><time>2026-05-01T07:00:45.999Z</time></trkpt><trkpt lat="45.82964361355397" lon="8.907389097715877"><ele>395.0</ele><time>2026-05-01T07:00:46.999Z</time></trkpt><trkpt lat="45.829775606092376" lon="8.90746895577974"><ele>395.0</ele><time>2026-05-01T07:00:47.999Z</time></trkpt><trkpt lat="45.82993004336775" lon="8.907514864425593"><ele>395.0</ele><time>2026-05-01T07:00:48.999Z</time></trkpt><trkpt lat="45.83007572930194" lon="8.907574420838904"><ele>392.5</ele><time>2026-05-01T07:00:49.999Z</time></trkpt><trkpt lat="45.8301818713331" lon="8.90762234034876"><ele>390.0</ele><time>2026-05-01T07:00:50.999Z</time></trkpt><trkpt lat="45.83030976365486" lon="8.907653237820627"><ele>387.5</ele><time>2026-05-01T07:00:51.999Z</time></trkpt><trkpt lat="45.83050052229272" lon="8.907702591082217"><ele>385.0</ele><time>2026-05-01T07:00:52.999Z</time></trkpt><trkpt lat="45.83063738606417" lon="8.907740356604634"><ele>385.0</ele><time>2026-05-01T07:00:53.999Z</time></trkpt><trkpt lat="45.83076505562706" lon="8.907793499731389"><ele>385.0</ele><time>2026-05-01T07:00:54.999Z</time></trkpt><trkpt lat="45.83088032457036" lon="8.907886230335555"><ele>385.0</ele><time>2026-05-01T07:00:55.999Z</time></trkpt><trkpt lat="45.83096581566758" lon="8.908021953984214"><ele>385.0</ele><time>2026-05-01T07:00:56.999Z</time></trkpt><trkpt lat="45.83104661085106" lon="8.908161858867352"><ele>383.75</ele><time>2026-05-01T07:00:57.999Z</time></trkpt><trkpt lat="45.831140359367076" lon="8.908289584268962"><ele>382.5</ele><time>2026-05-01T07:00:58.999Z</time></trkpt><trkpt lat="45.831247540079396" lon="8.90839251717088"><ele>381.25</ele><time>2026-05-01T07:00:59.999Z</time></trkpt><trkpt lat="45.83136871523039" lon="8.908482894865811"><ele>380.0</ele><time>2026-05-01T07:01:00.999Z</time></trkpt><trkpt lat="45.83148813913795" lon="8.908577662213311"><ele>380.0</ele><time>2026-05-01T07:01:01.999Z</time></trkpt><trkpt lat="45.83160095495966" lon="8.90867223352538"><ele>380.0</ele><time>2026-05-01T07:01:02.999Z</time></trkpt><trkpt lat="45.83170824402563" lon="8.908760663086868"><ele>380.0</ele><time>2026-05-01T07:01:03.999Z</time></trkpt><trkpt lat="45.83180652309991" lon="8.908831480620725"><ele>380.0</ele><time>2026-05-01T07:01:04.999Z</time></trkpt><trkpt lat="45.831895562579376" lon="8.908894161327124"><ele>378.6666666666667</ele><time>2026-05-01T07:01:05.999Z</time></trkpt><trkpt lat="45.831971185351705" lon="8.908942792492315"><ele>377.33333333333337</ele><time>2026-05-01T07:01:06.999Z</time></trkpt><trkpt lat="45.832036557277746" lon="8.908967183232676"><ele>376.0</ele><time>2026-05-01T07:01:07.999Z</time></trkpt><trkpt lat="45.83210444827501" lon="8.908994678301887"><ele>374.6666666666667</ele><time>2026-05-01T07:01:09.998Z</time></trkpt><trkpt lat="45.832063598437244" lon="8.90910039721219"><ele>373.3333333333333</ele><time>2026-05-01T07:01:13.998Z</time></trkpt><trkpt lat="45.83196348618149" lon="8.909015852467961"><ele>372.0</ele><time>2026-05-01T07:01:15.998Z</time></trkpt><trkpt lat="45.83187997739772" lon="8.908982442779601"><ele>373.6</ele><time>2026-05-01T07:01:16.998Z</time></trkpt><trkpt lat="45.831794789572015" lon="8.908923615080848"><ele>375.20000000000005</ele><time>2026-05-01T07:01:17.998Z</time></trkpt><trkpt lat="45.83170000044248" lon="8.90887190126332"><ele>376.8</ele><time>2026-05-01T07:01:18.998Z</time></trkpt><trkpt lat="45.83160576796824" lon="8.908816551131112"><ele>378.4</ele><time>2026-05-01T07:01:19.998Z</time></trkpt><trkpt lat="45.83150223487722" lon="8.908750181120645"><ele>380.0</ele><time>2026-05-01T07:01:20.998Z</time></trkpt><trkpt lat="45.83138423584984" lon="8.908679565521327"><ele>380.0</ele><time>2026-05-01T07:01:21.998Z</time></trkpt><trkpt lat="45.83125976489858" lon="8.908601769583024"><ele>380.0</ele><time>2026-05-01T07:01:22.998Z</time></trkpt><trkpt lat="45.831141411374006" lon="8.90853016170949"><ele>380.0</ele><time>2026-05-01T07:01:24Z</time></trkpt><trkpt lat="45.83102044288794" lon="8.908460723369311"><ele>380.0</ele><time>2026-05-01T07:01:25Z</time></trkpt><trkpt lat="45.8308924264605" lon="8.90838806924624"><ele>381.6666666666667</ele><time>2026-05-01T07:01:26Z</time></trkpt><trkpt lat="45.83074967595242" lon="8.908312727522903"><ele>383.33333333333337</ele><time>2026-05-01T07:01:27Z</time></trkpt><trkpt lat="45.83059619746182" lon="8.908229321743727"><ele>385.0</ele><time>2026-05-01T07:01:28Z</time></trkpt><trkpt lat="45.83043414752092" lon="8.908132317644435"><ele>385.0</ele><time>2026-05-01T07:01:29Z</time></trkpt><trkpt lat="45.83025627942326" lon="8.908030804168002"><ele>385.0</ele><time>2026-05-01T07:01:30Z</time></trkpt><trkpt lat="45.830069520559455" lon="8.907931334017743"><ele>385.0</ele><time>2026-05-01T07:01:31Z</time></trkpt><trkpt lat="45.829873722682734" lon="8.90784444586738"><ele>385.6666666666667</ele><time>2026-05-01T07:01:32Z</time></trkpt><trkpt lat="45.82967009321282" lon="8.907781320571656"><ele>386.33333333333337</ele><time>2026-05-01T07:01:33Z</time></trkpt><trkpt lat="45.82946886961087" lon="8.907736894508286"><ele>387.0</ele><time>2026-05-01T07:01:34Z</time></trkpt><trkpt lat="45.82926704427999" lon="8.9076972466618"><ele>387.0</ele><time>2026-05-01T07:01:35Z</time></trkpt><trkpt lat="45.829054778173024" lon="8.907651769434633"><ele>387.0</ele><time>2026-05-01T07:01:36Z</time></trkpt><trkpt lat="45.8288310684685" lon="8.90758016936375"><ele>387.0</ele><time>2026-05-01T07:01:37Z</time></trkpt><trkpt lat="45.828614192520654" lon="8.907513194795456"><ele>382.0</ele><time>2026-05-01T07:01:38Z</time></trkpt><trkpt lat="45.82840054575861" lon="8.90745901764672"><ele>377.0</ele><time>2026-05-01T07:01:39Z</time></trkpt><trkpt lat="45.82819512956027" lon="8.907399849376995"><ele>372.0</ele><time>2026-05-01T07:01:40Z</time></trkpt><trkpt lat="45.82800682550986" lon="8.907344296444402"><ele>372.0</ele><time>2026-05-01T07:01:41Z</time></trkpt><trkpt lat="45.82782931354319" lon="8.907298449203257"><ele>372.0</ele><time>2026-05-01T07:01:42Z</time></trkpt><trkpt lat="45.82769843902686" lon="8.907282127465075"><ele>372.0</ele><time>2026-05-01T07:01:43Z</time></trkpt><trkpt lat="45.82760430388772" lon="8.907245485492268"><ele>372.0</ele><time>2026-05-01T07:01:44Z</time></trkpt><trkpt lat="45.827510003775416" lon="8.907221779538757"><ele>371.0</ele><time>2026-05-01T07:01:45Z</time></trkpt><trkpt lat="45.8274329323436" lon="8.907249281252017"><ele>370.0</ele><time>2026-05-01T07:01:46Z</time></trkpt><trkpt lat="45.82723324010593" lon="8.907242284513417"><ele>369.0</ele><time>2026-05-01T07:01:47Z</time></trkpt><trkpt lat="45.82690996373056" lon="8.907484725593028"><ele>368.3333333333333</ele><time>2026-05-01T07:01:48Z</time></trkpt><trkpt lat="45.82678627510107" lon="8.907664544368954"><ele>367.66666666666663</ele><time>2026-05-01T07:01:49Z</time></trkpt><trkpt lat="45.82669807863301" lon="8.907880027135537"><ele>367.0</ele><time>2026-05-01T07:01:50Z</time></trkpt><trkpt lat="45.82661223256787" lon="8.908135399222527"><ele>367.0</ele><time>2026-05-01T07:01:51Z</time></trkpt><trkpt lat="45.82652636215212" lon="8.908403947799762"><ele>367.0</ele><time>2026-05-01T07:01:52Z</time></trkpt><trkpt lat="45.82641446204971" lon="8.908669492151809"><ele>367.0</ele><time>2026-05-01T07:01:53Z</time></trkpt><trkpt lat="45.82626717887785" lon="8.908905641964706"><ele>371.66666666666663</ele><time>2026-05-01T07:01:54Z</time></trkpt><trkpt lat="45.826113956403226" lon="8.909116708838923"><ele>376.3333333333333</ele><time>2026-05-01T07:01:55Z</time></trkpt><trkpt lat="45.82595670553521" lon="8.909320394685833"><ele>381.0</ele><time>2026-05-01T07:01:56Z</time></trkpt><trkpt lat="45.825803433104845" lon="8.909523523778352"><ele>382.0</ele><time>2026-05-01T07:01:57Z</time></trkpt><trkpt lat="45.82565466448744" lon="8.909707430681895"><ele>383.0</ele><time>2026-05-01T07:01:58Z</time></trkpt><trkpt lat="45.825504597841" lon="8.909819453101203"><ele>384.0</ele><time>2026-05-01T07:01:59Z</time></trkpt><trkpt lat="45.825345611636656" lon="8.909860308804747"><ele>384.0</ele><time>2026-05-01T07:02:00Z</time></trkpt><trkpt lat="45.825173827679144" lon="8.909902286194576"><ele>384.0</ele><time>2026-05-01T07:02:01Z</time></trkpt><trkpt lat="45.82500414310074" lon="8.909986981169649"><ele>384.0</ele><time>2026-05-01T07:02:02Z</time></trkpt><trkpt lat="45.82484748169573" lon="8.910106054451706"><ele>390.0</ele><time>2026-05-01T07:02:03Z</time></trkpt><trkpt lat="45.824712353725005" lon="8.910250712522815"><ele>396.0</ele><time>2026-05-01T07:02:04Z</time></trkpt><trkpt lat="45.82456137530429" lon="8.910327022247081"><ele>402.0</ele><time>2026-05-01T07:02:05Z</time></trkpt><trkpt lat="45.82439440426989" lon="8.91034965239345"><ele>397.66666666666663</ele><time>2026-05-01T07:02:06Z</time></trkpt><trkpt lat="45.82422233490972" lon="8.910361530813196"><ele>393.3333333333333</ele><time>2026-05-01T07:02:07Z</time></trkpt><trkpt lat="45.82406087956365" lon="8.910442831044366"><ele>389.0</ele><time>2026-05-01T07:02:08Z</time></trkpt><trkpt lat="45.82390307669996" lon="8.910504432279145"><ele>389.0</ele><time>2026-05-01T07:02:09Z</time></trkpt><trkpt lat="45.823735881021925" lon="8.910590205898286"><ele>389.0</ele><time>2026-05-01T07:02:10Z</time></trkpt><trkpt lat="45.823567438152956" lon="8.910678834362265"><ele>389.0</ele><time>2026-05-01T07:02:10.999Z</time></trkpt><trkpt lat="45.82339485171105" lon="8.910773390462316"><ele>389.3333333333333</ele><time>2026-05-01T07:02:11.999Z</time></trkpt><trkpt lat="45.82321180356429" lon="8.910838026581807"><ele>389.66666666666663</ele><time>2026-05-01T07:02:12.999Z</time></trkpt><trkpt lat="45.823038107941414" lon="8.910924750038761"><ele>390.0</ele><time>2026-05-01T07:02:13.999Z</time></trkpt><trkpt lat="45.82286985018983" lon="8.91103556306198"><ele>390.0</ele><time>2026-05-01T07:02:14.999Z</time></trkpt><trkpt lat="45.822700386839095" lon="8.911117667248917"><ele>390.0</ele><time>2026-05-01T07:02:15.999Z</time></trkpt><trkpt lat="45.82253615374116" lon="8.911211540994183"><ele>390.0</ele><time>2026-05-01T07:02:16.999Z</time></trkpt><trkpt lat="45.822384384669185" lon="8.911298335800211"><ele>390.25</ele><time>2026-05-01T07:02:17.999Z</time></trkpt><trkpt lat="45.822234045076705" lon="8.91134899842955"><ele>390.5</ele><time>2026-05-01T07:02:18.999Z</time></trkpt><trkpt lat="45.82209376052913" lon="8.911392091190919"><ele>390.75</ele><time>2026-05-01T07:02:19.999Z</time></trkpt><trkpt lat="45.821961858782046" lon="8.911397195167428"><ele>391.0</ele><time>2026-05-01T07:02:20.999Z</time></trkpt><trkpt lat="45.821827077698984" lon="8.911389883006622"><ele>389.75</ele><time>2026-05-01T07:02:21.999Z</time></trkpt><trkpt lat="45.821706073515465" lon="8.911392137732916"><ele>388.5</ele><time>2026-05-01T07:02:22.999Z</time></trkpt><trkpt lat="45.82161015077721" lon="8.911426875779926"><ele>387.25</ele><time>2026-05-01T07:02:23.999Z</time></trkpt><trkpt lat="45.82150879082588" lon="8.911496234483753"><ele>386.0</ele><time>2026-05-01T07:02:24.999Z</time></trkpt><trkpt lat="45.821421345648325" lon="8.911621299703384"><ele>387.75</ele><time>2026-05-01T07:02:25.999Z</time></trkpt><trkpt lat="45.82136880830578" lon="8.911787744177957"><ele>389.5</ele><time>2026-05-01T07:02:26.999Z</time></trkpt><trkpt lat="45.82135153606348" lon="8.911975151017941"><ele>391.25</ele><time>2026-05-01T07:02:27.999Z</time></trkpt><trkpt lat="45.82139275731526" lon="8.912168234869114"><ele>393.0</ele><time>2026-05-01T07:02:28.999Z</time></trkpt><trkpt lat="45.82145266319663" lon="8.912360770087384"><ele>393.0</ele><time>2026-05-01T07:02:29.999Z</time></trkpt><trkpt lat="45.82151207284246" lon="8.912547094492174"><ele>393.0</ele><time>2026-05-01T07:02:30.999Z</time></trkpt><trkpt lat="45.82158764837675" lon="8.91270240952775"><ele>393.0</ele><time>2026-05-01T07:02:31.999Z</time></trkpt><trkpt lat="45.82167373743158" lon="8.912829536083724"><ele>393.0</ele><time>2026-05-01T07:02:32.999Z</time></trkpt><trkpt lat="45.821766816539174" lon="8.912944472186332"><ele>393.75</ele><time>2026-05-01T07:02:33.999Z</time></trkpt><trkpt lat="45.821838941750684" lon="8.913080282074095"><ele>394.5</ele><time>2026-05-01T07:02:34.999Z</time></trkpt><trkpt lat="45.82188570364439" lon="8.91324628990864"><ele>395.25</ele><time>2026-05-01T07:02:35.999Z</time></trkpt><trkpt lat="45.82191273249594" lon="8.913412503577298"><ele>396.0</ele><time>2026-05-01T07:02:36.999Z</time></trkpt><trkpt lat="45.821933462937935" lon="8.91355722159188"><ele>396.1666666666667</ele><time>2026-05-01T07:02:37.999Z</time></trkpt><trkpt lat="45.82194331790559" lon="8.91368324802775"><ele>396.33333333333337</ele><time>2026-05-01T07:02:38.999Z</time></trkpt><trkpt lat="45.82194183483423" lon="8.913796410762961"><ele>396.5</ele><time>2026-05-01T07:02:39.999Z</time></trkpt><trkpt lat="45.82194824545119" lon="8.913911632073557"><ele>396.6666666666667</ele><time>2026-05-01T07:02:40.999Z</time></trkpt><trkpt lat="45.821985094987326" lon="8.91402847599487"><ele>396.83333333333337</ele><time>2026-05-01T07:02:41.999Z</time></trkpt><trkpt lat="45.82204890784753" lon="8.914150117916806"><ele>397.0</ele><time>2026-05-01T07:02:42.999Z</time></trkpt><trkpt lat="45.82211631136405" lon="8.914298883282756"><ele>396.25</ele><time>2026-05-01T07:02:43.999Z</time></trkpt><trkpt lat="45.82215800777041" lon="8.914461299964309"><ele>395.5</ele><time>2026-05-01T07:02:44.999Z</time></trkpt><trkpt lat="45.822191390088726" lon="8.914668517807275"><ele>394.75</ele><time>2026-05-01T07:02:45.999Z</time></trkpt><trkpt lat="45.82224623268043" lon="8.9148911205055"><ele>394.0</ele><time>2026-05-01T07:02:46.999Z</time></trkpt><trkpt lat="45.82229955888126" lon="8.915091771236288"><ele>393.0</ele><time>2026-05-01T07:02:47.999Z</time></trkpt><trkpt lat="45.82235387301422" lon="8.915304936544212"><ele>392.0</ele><time>2026-05-01T07:02:48.999Z</time></trkpt><trkpt lat="45.82241412157502" lon="8.915543537870422"><ele>391.0</ele><time>2026-05-01T07:02:49.999Z</time></trkpt><trkpt lat="45.82247311835134" lon="8.91577783051236"><ele>387.6666666666667</ele><time>2026-05-01T07:02:50.999Z</time></trkpt><trkpt lat="45.82253435377777" lon="8.915998207850452"><ele>384.33333333333337</ele><time>2026-05-01T07:02:51.999Z</time></trkpt><trkpt lat="45.82258852318827" lon="8.916222784958396"><ele>381.0</ele><time>2026-05-01T07:02:52.999Z</time></trkpt><trkpt lat="45.82262530212684" lon="8.916460526348521"><ele>381.0</ele><time>2026-05-01T07:02:53.999Z</time></trkpt><trkpt lat="45.82263377200848" lon="8.916712400486322"><ele>381.0</ele><time>2026-05-01T07:02:54.999Z</time></trkpt><trkpt lat="45.82264641314692" lon="8.916958392691933"><ele>381.0</ele><time>2026-05-01T07:02:55.999Z</time></trkpt><trkpt lat="45.82267352223257" lon="8.917201806770956"><ele>385.0</ele><time>2026-05-01T07:02:56.999Z</time></trkpt><trkpt lat="45.822718524591764" lon="8.917446845713545"><ele>389.0</ele><time>2026-05-01T07:02:57.999Z</time></trkpt><trkpt lat="45.82276394341255" lon="8.917683359646603"><ele>393.0</ele><time>2026-05-01T07:02:58.999Z</time></trkpt><trkpt lat="45.82280190087625" lon="8.917918011289748"><ele>393.0</ele><time>2026-05-01T07:02:59.999Z</time></trkpt><trkpt lat="45.82283948465874" lon="8.9181423673943"><ele>393.0</ele><time>2026-05-01T07:03:00.999Z</time></trkpt><trkpt lat="45.82287211266916" lon="8.918357298473802"><ele>393.0</ele><time>2026-05-01T07:03:01.999Z</time></trkpt><trkpt lat="45.82289891547812" lon="8.918564450309818"><ele>393.0</ele><time>2026-05-01T07:03:02.999Z</time></trkpt><trkpt lat="45.82291441125728" lon="8.918758670379578"><ele>393.0</ele><time>2026-05-01T07:03:03.999Z</time></trkpt><trkpt lat="45.82290501179061" lon="8.91895095939792"><ele>393.0</ele><time>2026-05-01T07:03:04.999Z</time></trkpt><trkpt lat="45.82285744887501" lon="8.919125906488489"><ele>393.0</ele><time>2026-05-01T07:03:05.999Z</time></trkpt><trkpt lat="45.82277318899552" lon="8.91928168316366"><ele>393.0</ele><time>2026-05-01T07:03:06.999Z</time></trkpt><trkpt lat="45.82266399147563" lon="8.91942730769697"><ele>393.0</ele><time>2026-05-01T07:03:07.999Z</time></trkpt><trkpt lat="45.822531459567024" lon="8.919551913821175"><ele>393.0</ele><time>2026-05-01T07:03:08.999Z</time></trkpt><trkpt lat="45.82238897176606" lon="8.91969627631592"><ele>389.6666666666667</ele><time>2026-05-01T07:03:09.999Z</time></trkpt><trkpt lat="45.82223688679201" lon="8.919873035252436"><ele>386.33333333333337</ele><time>2026-05-01T07:03:10.999Z</time></trkpt><trkpt lat="45.822087776134275" lon="8.92005092117757"><ele>383.0</ele><time>2026-05-01T07:03:11.999Z</time></trkpt><trkpt lat="45.82194538150811" lon="8.920227559931355"><ele>377.75</ele><time>2026-05-01T07:03:12.999Z</time></trkpt><trkpt lat="45.82181348500836" lon="8.920381101092678"><ele>372.5</ele><time>2026-05-01T07:03:13.999Z</time></trkpt><trkpt lat="45.821700254593324" lon="8.920525613943408"><ele>367.25</ele><time>2026-05-01T07:03:14.998Z</time></trkpt><trkpt lat="45.821613203537545" lon="8.920657563494592"><ele>362.0</ele><time>2026-05-01T07:03:15.998Z</time></trkpt><trkpt lat="45.82155262817086" lon="8.920810947372296"><ele>362.0</ele><time>2026-05-01T07:03:16.998Z</time></trkpt><trkpt lat="45.82153278421345" lon="8.920989869865535"><ele>362.0</ele><time>2026-05-01T07:03:17.998Z</time></trkpt><trkpt lat="45.82154592706579" lon="8.9211842204475"><ele>362.0</ele><time>2026-05-01T07:03:18.998Z</time></trkpt><trkpt lat="45.82156788760974" lon="8.92139247651695"><ele>362.0</ele><time>2026-05-01T07:03:19.998Z</time></trkpt><trkpt lat="45.82159636078769" lon="8.921607151881036"><ele>361.75</ele><time>2026-05-01T07:03:20.998Z</time></trkpt><trkpt lat="45.82163060395136" lon="8.92182665954571"><ele>361.5</ele><time>2026-05-01T07:03:21.998Z</time></trkpt><trkpt lat="45.821662627466935" lon="8.922031452639517"><ele>361.25</ele><time>2026-05-01T07:03:22.998Z</time></trkpt><trkpt lat="45.82166426960521" lon="8.922157949003363"><ele>361.0</ele><time>2026-05-01T07:03:23.998Z</time></trkpt><trkpt lat="45.82169039442847" lon="8.922344325864561"><ele>360.0</ele><time>2026-05-01T07:03:24.998Z</time></trkpt><trkpt lat="45.82172089919493" lon="8.922648116883197"><ele>359.0</ele><time>2026-05-01T07:03:25.998Z</time></trkpt><trkpt lat="45.821780195257304" lon="8.92285478594864"><ele>358.0</ele><time>2026-05-01T07:03:26.998Z</time></trkpt><trkpt lat="45.82178967113007" lon="8.92302264003261"><ele>359.75</ele><time>2026-05-01T07:03:27.998Z</time></trkpt><trkpt lat="45.82182133526758" lon="8.923195402092405"><ele>361.5</ele><time>2026-05-01T07:03:28.998Z</time></trkpt><trkpt lat="45.82185106947426" lon="8.92336394419707"><ele>363.25</ele><time>2026-05-01T07:03:30Z</time></trkpt><trkpt lat="45.82186803430206" lon="8.923538359819629"><ele>365.0</ele><time>2026-05-01T07:03:31Z</time></trkpt><trkpt lat="45.82187058157457" lon="8.923727633667987"><ele>365.0</ele><time>2026-05-01T07:03:32Z</time></trkpt><trkpt lat="45.82186323441172" lon="8.923938270923765"><ele>365.0</ele><time>2026-05-01T07:03:33Z</time></trkpt><trkpt lat="45.82183846444755" lon="8.924149701859138"><ele>365.0</ele><time>2026-05-01T07:03:34Z</time></trkpt><trkpt lat="45.82178425378456" lon="8.924354268887408"><ele>365.0</ele><time>2026-05-01T07:03:35Z</time></trkpt><trkpt lat="45.82172484433938" lon="8.924575435042254"><ele>362.0</ele><time>2026-05-01T07:03:36Z</time></trkpt><trkpt lat="45.82168112081374" lon="8.924870134659034"><ele>359.0</ele><time>2026-05-01T07:03:37Z</time></trkpt><trkpt lat="45.8216016942279" lon="8.925150690496615"><ele>356.0</ele><time>2026-05-01T07:03:38Z</time></trkpt><trkpt lat="45.82154627715651" lon="8.92541773317293"><ele>354.6666666666667</ele><time>2026-05-01T07:03:39Z</time></trkpt><trkpt lat="45.82149141356345" lon="8.925773998138617"><ele>353.3333333333333</ele><time>2026-05-01T07:03:40Z</time></trkpt><trkpt lat="45.821513045289784" lon="8.925630873499282"><ele>352.0</ele><time>2026-05-01T07:03:41Z</time></trkpt><trkpt lat="45.821490036246324" lon="8.925835995493667"><ele>350.5</ele><time>2026-05-01T07:03:42Z</time></trkpt><trkpt lat="45.82149644286413" lon="8.926036713292534"><ele>349.0</ele><time>2026-05-01T07:03:43Z</time></trkpt><trkpt lat="45.821535436595354" lon="8.926229211631862"><ele>347.5</ele><time>2026-05-01T07:03:44Z</time></trkpt><trkpt lat="45.8216119738643" lon="8.926395700168541"><ele>346.0</ele><time>2026-05-01T07:03:45Z</time></trkpt><trkpt lat="45.82171262987764" lon="8.926554627221904"><ele>344.66666666666663</ele><time>2026-05-01T07:03:46Z</time></trkpt><trkpt lat="45.82182515156712" lon="8.926718530808937"><ele>343.3333333333333</ele><time>2026-05-01T07:03:47Z</time></trkpt><trkpt lat="45.82194634146791" lon="8.92688598937839"><ele>342.0</ele><time>2026-05-01T07:03:48Z</time></trkpt><trkpt lat="45.82206115862261" lon="8.92705002656826"><ele>342.0</ele><time>2026-05-01T07:03:49Z</time></trkpt><trkpt lat="45.82216801192348" lon="8.927189366893266"><ele>342.0</ele><time>2026-05-01T07:03:50Z</time></trkpt><trkpt lat="45.82226230671764" lon="8.927308212770164"><ele>342.0</ele><time>2026-05-01T07:03:51Z</time></trkpt><trkpt lat="45.822340002629836" lon="8.927420542696288"><ele>342.0</ele><time>2026-05-01T07:03:52Z</time></trkpt><trkpt lat="45.82240137477857" lon="8.927544726661546"><ele>341.6</ele><time>2026-05-01T07:03:53Z</time></trkpt><trkpt lat="45.82243596737747" lon="8.927684396825484"><ele>341.20000000000005</ele><time>2026-05-01T07:03:54Z</time></trkpt><trkpt lat="45.822409448518634" lon="8.927843111479067"><ele>340.8</ele><time>2026-05-01T07:03:55Z</time></trkpt><trkpt lat="45.82238942941237" lon="8.927977471432966"><ele>340.4</ele><time>2026-05-01T07:03:56Z</time></trkpt><trkpt lat="45.82235069886028" lon="8.92808444452044"><ele>340.0</ele><time>2026-05-01T07:03:57Z</time></trkpt><trkpt lat="45.82228719413891" lon="8.928157840339942"><ele>340.0</ele><time>2026-05-01T07:03:58Z</time></trkpt><trkpt lat="45.822207456006346" lon="8.928244866109006"><ele>340.0</ele><time>2026-05-01T07:03:59Z</time></trkpt><trkpt lat="45.82211327937743" lon="8.928340467407537"><ele>340.0</ele><time>2026-05-01T07:04:00Z</time></trkpt><trkpt lat="45.8220053918164" lon="8.928442377940225"><ele>340.0</ele><time>2026-05-01T07:04:01Z</time></trkpt><trkpt lat="45.82188479389087" lon="8.928553650441769"><ele>339.3333333333333</ele><time>2026-05-01T07:04:02Z</time></trkpt><trkpt lat="45.821740181678386" lon="8.928701997040484"><ele>338.6666666666667</ele><time>2026-05-01T07:04:03Z</time></trkpt><trkpt lat="45.82161365101513" lon="8.928805776412238"><ele>338.0</ele><time>2026-05-01T07:04:04Z</time></trkpt><trkpt lat="45.8214999516565" lon="8.928911318385241"><ele>338.0</ele><time>2026-05-01T07:04:05Z</time></trkpt><trkpt lat="45.82139234651553" lon="8.929015970390164"><ele>338.0</ele><time>2026-05-01T07:04:06Z</time></trkpt><trkpt lat="45.82130046303391" lon="8.92912342924484"><ele>338.0</ele><time>2026-05-01T07:04:07Z</time></trkpt><trkpt lat="45.8212372061028" lon="8.92926139381283"><ele>338.0</ele><time>2026-05-01T07:04:08Z</time></trkpt><trkpt lat="45.82119764737231" lon="8.929437414641695"><ele>338.0</ele><time>2026-05-01T07:04:09Z</time></trkpt><trkpt lat="45.82118444243875" lon="8.92964261363821"><ele>338.0</ele><time>2026-05-01T07:04:10Z</time></trkpt><trkpt lat="45.821183891753236" lon="8.929873138553413"><ele>338.0</ele><time>2026-05-01T07:04:11Z</time></trkpt><trkpt lat="45.821181061199944" lon="8.930108926391561"><ele>338.33333333333337</ele><time>2026-05-01T07:04:12Z</time></trkpt><trkpt lat="45.821167772184126" lon="8.930373957099782"><ele>338.6666666666667</ele><time>2026-05-01T07:04:13Z</time></trkpt><trkpt lat="45.82114622939584" lon="8.930650299420078"><ele>339.0</ele><time>2026-05-01T07:04:14Z</time></trkpt><trkpt lat="45.82112777964709" lon="8.930915747811346"><ele>340.0</ele><time>2026-05-01T07:04:15Z</time></trkpt><trkpt lat="45.82111049333299" lon="8.931151967048597"><ele>341.0</ele><time>2026-05-01T07:04:16Z</time></trkpt><trkpt lat="45.82111344930643" lon="8.931365673053431"><ele>342.0</ele><time>2026-05-01T07:04:17Z</time></trkpt><trkpt lat="45.8211479292533" lon="8.931587050413345"><ele>348.3333333333333</ele><time>2026-05-01T07:04:18Z</time></trkpt><trkpt lat="45.82121820708635" lon="8.931863160096706"><ele>354.66666666666663</ele><time>2026-05-01T07:04:18.999Z</time></trkpt><trkpt lat="45.821271152107535" lon="8.931930797887697"><ele>361.0</ele><time>2026-05-01T07:04:19.999Z</time></trkpt><trkpt lat="45.82167591783261" lon="8.932318141371413"><ele>360.3333333333333</ele><time>2026-05-01T07:04:22.999Z</time></trkpt><trkpt lat="45.82184642072605" lon="8.932370339290278"><ele>359.6666666666667</ele><time>2026-05-01T07:04:23.999Z</time></trkpt><trkpt lat="45.82203376941262" lon="8.932435857569214"><ele>359.0</ele><time>2026-05-01T07:04:24.999Z</time></trkpt><trkpt lat="45.82224655500045" lon="8.932467352345826"><ele>359.0</ele><time>2026-05-01T07:04:25.999Z</time></trkpt><trkpt lat="45.822456678491505" lon="8.932507365877552"><ele>359.0</ele><time>2026-05-01T07:04:26.999Z</time></trkpt><trkpt lat="45.822684855555615" lon="8.932561949933262"><ele>359.0</ele><time>2026-05-01T07:04:27.999Z</time></trkpt><trkpt lat="45.82293503938157" lon="8.932594831652034"><ele>368.5</ele><time>2026-05-01T07:04:28.999Z</time></trkpt><trkpt lat="45.82318787570749" lon="8.932617184633314"><ele>378.0</ele><time>2026-05-01T07:04:29.999Z</time></trkpt><trkpt lat="45.82342669593062" lon="8.932609914849285"><ele>381.0</ele><time>2026-05-01T07:04:30.999Z</time></trkpt><trkpt lat="45.82366507903413" lon="8.932601575930596"><ele>384.0</ele><time>2026-05-01T07:04:31.999Z</time></trkpt><trkpt lat="45.82390777217462" lon="8.932612743137653"><ele>384.0</ele><time>2026-05-01T07:04:32.999Z</time></trkpt><trkpt lat="45.82415658549414" lon="8.932623693139268"><ele>384.0</ele><time>2026-05-01T07:04:33.999Z</time></trkpt><trkpt lat="45.82440241432287" lon="8.932636361394227"><ele>388.5</ele><time>2026-05-01T07:04:34.999Z</time></trkpt><trkpt lat="45.82465600725087" lon="8.932649560391848"><ele>393.0</ele><time>2026-05-01T07:04:35.999Z</time></trkpt><trkpt lat="45.824919657302104" lon="8.932667102951857"><ele>395.0</ele><time>2026-05-01T07:04:36.999Z</time></trkpt><trkpt lat="45.82517933576145" lon="8.93267935396357"><ele>397.0</ele><time>2026-05-01T07:04:37.999Z</time></trkpt><trkpt lat="45.82541506212317" lon="8.932691764342612"><ele>397.0</ele><time>2026-05-01T07:04:38.999Z</time></trkpt><trkpt lat="45.82562552937696" lon="8.932701973366544"><ele>397.0</ele><time>2026-05-01T07:04:39.999Z</time></trkpt><trkpt lat="45.82581528415475" lon="8.932714236591174"><ele>397.0</ele><time>2026-05-01T07:04:40.999Z</time></trkpt><trkpt lat="45.825995654181" lon="8.932721090838061"><ele>398.0</ele><time>2026-05-01T07:04:41.999Z</time></trkpt><trkpt lat="45.826151744698215" lon="8.932744103372189"><ele>399.0</ele><time>2026-05-01T07:04:42.999Z</time></trkpt><trkpt lat="45.82627529987923" lon="8.932842469859104"><ele>400.0</ele><time>2026-05-01T07:04:43.999Z</time></trkpt><trkpt lat="45.826379275114775" lon="8.932952166868834"><ele>401.0</ele><time>2026-05-01T07:04:44.999Z</time></trkpt><trkpt lat="45.82650095914328" lon="8.933074045464565"><ele>401.0</ele><time>2026-05-01T07:04:45.999Z</time></trkpt><trkpt lat="45.82656681096839" lon="8.933219783730541"><ele>401.0</ele><time>2026-05-01T07:04:46.999Z</time></trkpt><trkpt lat="45.82660325447464" lon="8.93333710273495"><ele>401.0</ele><time>2026-05-01T07:04:47.999Z</time></trkpt><trkpt lat="45.82665572975564" lon="8.933431999108931"><ele>401.0</ele><time>2026-05-01T07:04:48.999Z</time></trkpt><trkpt lat="45.8266309670765" lon="8.933560473585908"><ele>401.0</ele><time>2026-05-01T07:04:49.999Z</time></trkpt><trkpt lat="45.82655572198202" lon="8.93368843897059"><ele>402.5</ele><time>2026-05-01T07:04:50.999Z</time></trkpt><trkpt lat="45.826439163452115" lon="8.93370509159663"><ele>404.0</ele><time>2026-05-01T07:04:51.999Z</time></trkpt><trkpt lat="45.8263159528941" lon="8.933779161613675"><ele>405.5</ele><time>2026-05-01T07:04:52.999Z</time></trkpt><trkpt lat="45.826189016972016" lon="8.93386012240101"><ele>407.0</ele><time>2026-05-01T07:04:53.999Z</time></trkpt><trkpt lat="45.82606112178816" lon="8.933943446135835"><ele>407.25</ele><time>2026-05-01T07:04:54.999Z</time></trkpt><trkpt lat="45.825935298621644" lon="8.934048529536678"><ele>407.5</ele><time>2026-05-01T07:04:55.999Z</time></trkpt><trkpt lat="45.82582573615229" lon="8.93416239471475"><ele>407.75</ele><time>2026-05-01T07:04:56.999Z</time></trkpt><trkpt lat="45.825757478958046" lon="8.934324704748452"><ele>408.0</ele><time>2026-05-01T07:04:57.999Z</time></trkpt><trkpt lat="45.82570869131756" lon="8.934526995198043"><ele>408.0</ele><time>2026-05-01T07:04:58.999Z</time></trkpt><trkpt lat="45.82567380491094" lon="8.9347328472247"><ele>408.0</ele><time>2026-05-01T07:04:59.999Z</time></trkpt><trkpt lat="45.82566192208164" lon="8.934946940006226"><ele>408.0</ele><time>2026-05-01T07:05:00.999Z</time></trkpt><trkpt lat="45.82561561712292" lon="8.935147135459436"><ele>408.0</ele><time>2026-05-01T07:05:01.999Z</time></trkpt><trkpt lat="45.82560127255888" lon="8.935310976322121"><ele>408.5</ele><time>2026-05-01T07:05:02.999Z</time></trkpt><trkpt lat="45.82556119758921" lon="8.935458336925441"><ele>409.0</ele><time>2026-05-01T07:05:03.999Z</time></trkpt><trkpt lat="45.825541379763955" lon="8.935571522711633"><ele>409.5</ele><time>2026-05-01T07:05:04.999Z</time></trkpt><trkpt lat="45.82551063780554" lon="8.935663355722259"><ele>410.0</ele><time>2026-05-01T07:05:05.999Z</time></trkpt><trkpt lat="45.8254665073745" lon="8.935743613874966"><ele>410.5</ele><time>2026-05-01T07:05:06.999Z</time></trkpt><trkpt lat="45.82540121200042" lon="8.93582128721711"><ele>411.0</ele><time>2026-05-01T07:05:07.999Z</time></trkpt><trkpt lat="45.82536624255237" lon="8.935918466355991"><ele>411.6</ele><time>2026-05-01T07:05:08.999Z</time></trkpt><trkpt lat="45.82537620802794" lon="8.936027893029907"><ele>412.20000000000005</ele><time>2026-05-01T07:05:09.999Z</time></trkpt><trkpt lat="45.825425528074646" lon="8.936137013255419"><ele>412.79999999999995</ele><time>2026-05-01T07:05:10.999Z</time></trkpt><trkpt lat="45.82548184414581" lon="8.936254986035042"><ele>413.4</ele><time>2026-05-01T07:05:11.999Z</time></trkpt><trkpt lat="45.82549716641384" lon="8.936410144241377"><ele>414.0</ele><time>2026-05-01T07:05:12.999Z</time></trkpt><trkpt lat="45.825505342655426" lon="8.93659949051053"><ele>414.66666666666663</ele><time>2026-05-01T07:05:13.999Z</time></trkpt><trkpt lat="45.825523643189165" lon="8.936807327364297"><ele>415.3333333333333</ele><time>2026-05-01T07:05:14.999Z</time></trkpt><trkpt lat="45.8255318584341" lon="8.937027932839037"><ele>416.0</ele><time>2026-05-01T07:05:15.999Z</time></trkpt><trkpt lat="45.82554512865845" lon="8.937251232745917"><ele>416.0</ele><time>2026-05-01T07:05:16.999Z</time></trkpt><trkpt lat="45.825569434045484" lon="8.937484610278643"><ele>416.0</ele><time>2026-05-01T07:05:17.999Z</time></trkpt><trkpt lat="45.82560398142784" lon="8.937713675144037"><ele>416.0</ele><time>2026-05-01T07:05:18.999Z</time></trkpt><trkpt lat="45.82564633010653" lon="8.937964689628462"><ele>416.66666666666663</ele><time>2026-05-01T07:05:19.999Z</time></trkpt><trkpt lat="45.82569096248872" lon="8.938230264478777"><ele>417.33333333333337</ele><time>2026-05-01T07:05:20.999Z</time></trkpt><trkpt lat="45.82573961717902" lon="8.938513852794605"><ele>418.0</ele><time>2026-05-01T07:05:21.999Z</time></trkpt><trkpt lat="45.82579162589059" lon="8.93881599183904"><ele>418.0</ele><time>2026-05-01T07:05:22.998Z</time></trkpt><trkpt lat="45.82584426702277" lon="8.939122518923453"><ele>418.0</ele><time>2026-05-01T07:05:23.998Z</time></trkpt><trkpt lat="45.82589615873249" lon="8.93941254224217"><ele>418.0</ele><time>2026-05-01T07:05:24.998Z</time></trkpt><trkpt lat="45.8259502406494" lon="8.939707832310715"><ele>420.0</ele><time>2026-05-01T07:05:25.998Z</time></trkpt><trkpt lat="45.82599597534224" lon="8.939998218222575"><ele>422.0</ele><time>2026-05-01T07:05:26.998Z</time></trkpt><trkpt lat="45.826049372362846" lon="8.9402951452986"><ele>424.0</ele><time>2026-05-01T07:05:27.998Z</time></trkpt><trkpt lat="45.826105616716085" lon="8.940582639143132"><ele>424.33333333333337</ele><time>2026-05-01T07:05:28.998Z</time></trkpt><trkpt lat="45.8261383413335" lon="8.940872905732727"><ele>424.66666666666663</ele><time>2026-05-01T07:05:29.998Z</time></trkpt><trkpt lat="45.82618812238492" lon="8.941166724177593"><ele>425.0</ele><time>2026-05-01T07:05:30.998Z</time></trkpt><trkpt lat="45.826246046136504" lon="8.941435483867792"><ele>425.0</ele><time>2026-05-01T07:05:31.998Z</time></trkpt><trkpt lat="45.82628503544885" lon="8.941698385091644"><ele>425.0</ele><time>2026-05-01T07:05:32.998Z</time></trkpt><trkpt lat="45.82634601670717" lon="8.941967827116054"><ele>425.0</ele><time>2026-05-01T07:05:33.998Z</time></trkpt><trkpt lat="45.82642819202923" lon="8.942236927243211"><ele>424.66666666666663</ele><time>2026-05-01T07:05:34.998Z</time></trkpt><trkpt lat="45.826517243157525" lon="8.942501755583654"><ele>424.33333333333337</ele><time>2026-05-01T07:05:36Z</time></trkpt><trkpt lat="45.82660752197572" lon="8.942766158102797"><ele>424.0</ele><time>2026-05-01T07:05:37Z</time></trkpt><trkpt lat="45.82668666309425" lon="8.943008396121876"><ele>423.0</ele><time>2026-05-01T07:05:38Z</time></trkpt><trkpt lat="45.82674573581449" lon="8.943223704894631"><ele>422.0</ele><time>2026-05-01T07:05:39Z</time></trkpt><trkpt lat="45.826784142491256" lon="8.943442366893857"><ele>421.0</ele><time>2026-05-01T07:05:40Z</time></trkpt><trkpt lat="45.82680897233307" lon="8.943667040670753"><ele>420.6666666666667</ele><time>2026-05-01T07:05:41Z</time></trkpt><trkpt lat="45.826819979428755" lon="8.943892599426112"><ele>420.33333333333337</ele><time>2026-05-01T07:05:42Z</time></trkpt><trkpt lat="45.826835853227806" lon="8.944110102445501"><ele>420.0</ele><time>2026-05-01T07:05:43Z</time></trkpt><trkpt lat="45.82688276712051" lon="8.944325808804042"><ele>420.0</ele><time>2026-05-01T07:05:44Z</time></trkpt><trkpt lat="45.826963448650126" lon="8.94452728246602"><ele>420.0</ele><time>2026-05-01T07:05:45Z</time></trkpt><trkpt lat="45.82707362849261" lon="8.94470961439474"><ele>420.0</ele><time>2026-05-01T07:05:46Z</time></trkpt><trkpt lat="45.82720780905905" lon="8.944882504252318"><ele>418.33333333333337</ele><time>2026-05-01T07:05:47Z</time></trkpt><trkpt lat="45.827353646435576" lon="8.945059269542039"><ele>416.6666666666667</ele><time>2026-05-01T07:05:48Z</time></trkpt><trkpt lat="45.827500642376855" lon="8.945245142623254"><ele>415.0</ele><time>2026-05-01T07:05:49Z</time></trkpt><trkpt lat="45.827657833862126" lon="8.945517438967151"><ele>417.33333333333337</ele><time>2026-05-01T07:05:50Z</time></trkpt><trkpt lat="45.82780112460352" lon="8.94580225196612"><ele>419.66666666666663</ele><time>2026-05-01T07:05:51Z</time></trkpt><trkpt lat="45.82789407874575" lon="8.946010003548562"><ele>422.0</ele><time>2026-05-01T07:05:52Z</time></trkpt><trkpt lat="45.827969006636756" lon="8.946182631251332"><ele>422.0</ele><time>2026-05-01T07:05:53Z</time></trkpt><trkpt lat="45.828013300168635" lon="8.946297933554693"><ele>422.0</ele><time>2026-05-01T07:05:54Z</time></trkpt><trkpt lat="45.82807812786574" lon="8.946463303029276"><ele>422.0</ele><time>2026-05-01T07:05:55Z</time></trkpt><trkpt lat="45.82809359886142" lon="8.946658180347354"><ele>422.0</ele><time>2026-05-01T07:05:56Z</time></trkpt><trkpt lat="45.82811261104317" lon="8.946859085794616"><ele>420.75</ele><time>2026-05-01T07:05:57Z</time></trkpt><trkpt lat="45.828142814469174" lon="8.947065353580095"><ele>419.5</ele><time>2026-05-01T07:05:58Z</time></trkpt><trkpt lat="45.828159484122786" lon="8.947283738669011"><ele>418.25</ele><time>2026-05-01T07:05:59Z</time></trkpt><trkpt lat="45.828174502566625" lon="8.947494963430447"><ele>417.0</ele><time>2026-05-01T07:06:00Z</time></trkpt><trkpt lat="45.82814365929779" lon="8.947706710910513"><ele>416.33333333333337</ele><time>2026-05-01T07:06:01Z</time></trkpt><trkpt lat="45.828085077604136" lon="8.947917757274395"><ele>415.6666666666667</ele><time>2026-05-01T07:06:02Z</time></trkpt><trkpt lat="45.828007420419965" lon="8.948140744652326"><ele>415.0</ele><time>2026-05-01T07:06:03Z</time></trkpt><trkpt lat="45.82794002834345" lon="8.94836827677057"><ele>416.0</ele><time>2026-05-01T07:06:04Z</time></trkpt><trkpt lat="45.82786827660278" lon="8.948561779123438"><ele>417.0</ele><time>2026-05-01T07:06:05Z</time></trkpt><trkpt lat="45.82780395511727" lon="8.948733164952932"><ele>418.0</ele><time>2026-05-01T07:06:06Z</time></trkpt><trkpt lat="45.82774605059117" lon="8.948887029505286"><ele>419.0</ele><time>2026-05-01T07:06:07Z</time></trkpt><trkpt lat="45.82769559362084" lon="8.949008695826748"><ele>418.99999999999994</ele><time>2026-05-01T07:06:08Z</time></trkpt><trkpt lat="45.827655026679295" lon="8.949107749338108"><ele>419.0</ele><time>2026-05-01T07:06:09Z</time></trkpt><trkpt lat="45.82762248389989" lon="8.9491941411568"><ele>419.0</ele><time>2026-05-01T07:06:10Z</time></trkpt><trkpt lat="45.827593479980216" lon="8.949284738692759"><ele>419.0</ele><time>2026-05-01T07:06:11Z</time></trkpt><trkpt lat="45.827576677636046" lon="8.94938905771703"><ele>418.99999999999994</ele><time>2026-05-01T07:06:12Z</time></trkpt><trkpt lat="45.82758279017774" lon="8.949509791658986"><ele>419.0</ele><time>2026-05-01T07:06:13Z</time></trkpt><trkpt lat="45.82761697085777" lon="8.949628181714775"><ele>419.2</ele><time>2026-05-01T07:06:14Z</time></trkpt><trkpt lat="45.827666839816494" lon="8.94974420228262"><ele>419.4</ele><time>2026-05-01T07:06:15Z</time></trkpt><trkpt lat="45.8276995531525" lon="8.949864749286904"><ele>419.6</ele><time>2026-05-01T07:06:16Z</time></trkpt><trkpt lat="45.82769344431123" lon="8.94998378815246"><ele>419.8</ele><time>2026-05-01T07:06:17Z</time></trkpt><trkpt lat="45.82763238218005" lon="8.95008578610125"><ele>420.0</ele><time>2026-05-01T07:06:18Z</time></trkpt><trkpt lat="45.827593518278505" lon="8.950221573795261"><ele>419.75</ele><time>2026-05-01T07:06:19Z</time></trkpt><trkpt lat="45.82752959062401" lon="8.950361328093182"><ele>419.5</ele><time>2026-05-01T07:06:20Z</time></trkpt><trkpt lat="45.82747050138226" lon="8.950517729122708"><ele>419.25</ele><time>2026-05-01T07:06:21Z</time></trkpt><trkpt lat="45.8273986527012" lon="8.950721898363106"><ele>419.0</ele><time>2026-05-01T07:06:22Z</time></trkpt><trkpt lat="45.82731605166418" lon="8.950931975047064"><ele>419.0</ele><time>2026-05-01T07:06:22.999Z</time></trkpt><trkpt lat="45.827306503533855" lon="8.951069091228451"><ele>419.0</ele><time>2026-05-01T07:06:23.999Z</time></trkpt><trkpt lat="45.82724645253591" lon="8.95124369181543"><ele>419.0</ele><time>2026-05-01T07:06:24.999Z</time></trkpt><trkpt lat="45.82716970069152" lon="8.951427414938808"><ele>419.0</ele><time>2026-05-01T07:06:25.999Z</time></trkpt><trkpt lat="45.82705326770425" lon="8.95162475885102"><ele>419.66666666666663</ele><time>2026-05-01T07:06:26.999Z</time></trkpt><trkpt lat="45.826925271838384" lon="8.951884738453346"><ele>420.33333333333337</ele><time>2026-05-01T07:06:27.999Z</time></trkpt><trkpt lat="45.82685254353487" lon="8.952028435964309"><ele>421.0</ele><time>2026-05-01T07:06:28.999Z</time></trkpt><trkpt lat="45.82673786354362" lon="8.952232238875434"><ele>418.0</ele><time>2026-05-01T07:06:29.999Z</time></trkpt><trkpt lat="45.82662315852041" lon="8.952433874398684"><ele>415.0</ele><time>2026-05-01T07:06:30.999Z</time></trkpt><trkpt lat="45.82650726844273" lon="8.95266114573044"><ele>412.0</ele><time>2026-05-01T07:06:31.999Z</time></trkpt><trkpt lat="45.8263928197677" lon="8.952873511698916"><ele>412.0</ele><time>2026-05-01T07:06:32.999Z</time></trkpt><trkpt lat="45.8262923354198" lon="8.953066508982861"><ele>412.0</ele><time>2026-05-01T07:06:33.999Z</time></trkpt><trkpt lat="45.826211412950784" lon="8.953248613492676"><ele>412.0</ele><time>2026-05-01T07:06:34.999Z</time></trkpt><trkpt lat="45.826146149470716" lon="8.953421615399185"><ele>412.25</ele><time>2026-05-01T07:06:35.999Z</time></trkpt><trkpt lat="45.826098265115284" lon="8.953578217630644"><ele>412.5</ele><time>2026-05-01T07:06:36.999Z</time></trkpt><trkpt lat="45.82606158429325" lon="8.953734717381145"><ele>412.75</ele><time>2026-05-01T07:06:37.999Z</time></trkpt><trkpt lat="45.826027114664065" lon="8.953893677785064"><ele>413.0</ele><time>2026-05-01T07:06:38.999Z</time></trkpt><trkpt lat="45.82599617167259" lon="8.95406783121409"><ele>412.66666666666663</ele><time>2026-05-01T07:06:39.999Z</time></trkpt><trkpt lat="45.825954955069676" lon="8.954258865378211"><ele>412.33333333333337</ele><time>2026-05-01T07:06:40.999Z</time></trkpt><trkpt lat="45.825909325798655" lon="8.954465779704783"><ele>412.0</ele><time>2026-05-01T07:06:41.999Z</time></trkpt><trkpt lat="45.82586232699927" lon="8.954700799590228"><ele>412.0</ele><time>2026-05-01T07:06:42.999Z</time></trkpt><trkpt lat="45.82581404925557" lon="8.954930182150564"><ele>412.0</ele><time>2026-05-01T07:06:43.999Z</time></trkpt><trkpt lat="45.82576762822729" lon="8.955163437040582"><ele>412.0</ele><time>2026-05-01T07:06:44.999Z</time></trkpt><trkpt lat="45.82572031520651" lon="8.955404282584635"><ele>411.33333333333337</ele><time>2026-05-01T07:06:45.999Z</time></trkpt><trkpt lat="45.825672953323455" lon="8.955648389558938"><ele>410.66666666666663</ele><time>2026-05-01T07:06:46.999Z</time></trkpt><trkpt lat="45.825628996942804" lon="8.95587428663536"><ele>410.0</ele><time>2026-05-01T07:06:47.999Z</time></trkpt><trkpt lat="45.825580065454744" lon="8.956074973912774"><ele>410.0</ele><time>2026-05-01T07:06:48.999Z</time></trkpt><trkpt lat="45.82553884620871" lon="8.956234501269925"><ele>410.0</ele><time>2026-05-01T07:06:49.999Z</time></trkpt><trkpt lat="45.82548971408594" lon="8.956449747572677"><ele>410.0</ele><time>2026-05-01T07:06:50.999Z</time></trkpt><trkpt lat="45.825447517251746" lon="8.956629546063658"><ele>410.0</ele><time>2026-05-01T07:06:51.999Z</time></trkpt><trkpt lat="45.825413331003894" lon="8.95679209703283"><ele>410.0</ele><time>2026-05-01T07:06:52.999Z</time></trkpt><trkpt lat="45.825377909911516" lon="8.95693604949052"><ele>410.0</ele><time>2026-05-01T07:06:53.999Z</time></trkpt><trkpt lat="45.8253456946865" lon="8.957074614681572"><ele>410.0</ele><time>2026-05-01T07:06:54.999Z</time></trkpt><trkpt lat="45.82531860771641" lon="8.95718405436646"><ele>410.0</ele><time>2026-05-01T07:06:55.999Z</time></trkpt><trkpt lat="45.82529669521484" lon="8.957283576119776"><ele>410.0</ele><time>2026-05-01T07:06:56.999Z</time></trkpt><trkpt lat="45.825263015749925" lon="8.95742085492424"><ele>410.0</ele><time>2026-05-01T07:06:58.999Z</time></trkpt><trkpt lat="45.82522871647536" lon="8.95756017025541"><ele>410.0</ele><time>2026-05-01T07:07:00.999Z</time></trkpt><trkpt lat="45.82520584706728" lon="8.957649363341988"><ele>410.0</ele><time>2026-05-01T07:07:01.999Z</time></trkpt><trkpt lat="45.82518722625867" lon="8.957763941358357"><ele>410.0</ele><time>2026-05-01T07:07:02.999Z</time></trkpt><trkpt lat="45.82516167643059" lon="8.957901935550007"><ele>410.0</ele><time>2026-05-01T07:07:03.999Z</time></trkpt><trkpt lat="45.825134525088146" lon="8.958057678235527"><ele>410.2</ele><time>2026-05-01T07:07:04.999Z</time></trkpt><trkpt lat="45.82510319930868" lon="8.958207668430738"><ele>410.4</ele><time>2026-05-01T07:07:05.999Z</time></trkpt><trkpt lat="45.825088079522985" lon="8.958352144513047"><ele>410.6</ele><time>2026-05-01T07:07:06.999Z</time></trkpt><trkpt lat="45.82506661511209" lon="8.958496153835503"><ele>410.8</ele><time>2026-05-01T07:07:07.999Z</time></trkpt><trkpt lat="45.82504284360614" lon="8.958662578733076"><ele>411.0</ele><time>2026-05-01T07:07:08.999Z</time></trkpt><trkpt lat="45.82501134524254" lon="8.958822382781772"><ele>411.25</ele><time>2026-05-01T07:07:09.999Z</time></trkpt><trkpt lat="45.824966669895076" lon="8.958998346024254"><ele>411.5</ele><time>2026-05-01T07:07:10.999Z</time></trkpt><trkpt lat="45.824926839229924" lon="8.95917856449003"><ele>411.75</ele><time>2026-05-01T07:07:11.999Z</time></trkpt><trkpt lat="45.82487420144901" lon="8.959312730195315"><ele>412.0</ele><time>2026-05-01T07:07:12.999Z</time></trkpt><trkpt lat="45.824798579205414" lon="8.959390724714778"><ele>412.5</ele><time>2026-05-01T07:07:13.999Z</time></trkpt><trkpt lat="45.82472486140847" lon="8.95943721686151"><ele>413.0</ele><time>2026-05-01T07:07:14.999Z</time></trkpt><trkpt lat="45.82485841505104" lon="8.959768792162036"><ele>413.5</ele><time>2026-05-01T07:07:15.999Z</time></trkpt><trkpt lat="45.824828613058806" lon="8.959868215847322"><ele>414.0</ele><time>2026-05-01T07:07:16.999Z</time></trkpt><trkpt lat="45.82476603530735" lon="8.959948737380971"><ele>413.4</ele><time>2026-05-01T07:07:17.999Z</time></trkpt><trkpt lat="45.82469982294649" lon="8.960034116376525"><ele>412.79999999999995</ele><time>2026-05-01T07:07:18.999Z</time></trkpt><trkpt lat="45.824619736310325" lon="8.960108014671135"><ele>412.20000000000005</ele><time>2026-05-01T07:07:19.999Z</time></trkpt><trkpt lat="45.8245355505292" lon="8.960174565549682"><ele>411.6</ele><time>2026-05-01T07:07:20.999Z</time></trkpt><trkpt lat="45.82445715031526" lon="8.960234906925463"><ele>411.0</ele><time>2026-05-01T07:07:21.999Z</time></trkpt><trkpt lat="45.824373354406625" lon="8.96029995325867"><ele>411.5</ele><time>2026-05-01T07:07:22.999Z</time></trkpt><trkpt lat="45.82430187682128" lon="8.960355261609333"><ele>412.0</ele><time>2026-05-01T07:07:23.999Z</time></trkpt><trkpt lat="45.82423518594124" lon="8.960406866160804"><ele>412.5</ele><time>2026-05-01T07:07:24.999Z</time></trkpt><trkpt lat="45.82417305143654" lon="8.96045664339625"><ele>413.0</ele><time>2026-05-01T07:07:26.998Z</time></trkpt><trkpt lat="45.824108566830645" lon="8.960502186166128"><ele>413.5</ele><time>2026-05-01T07:07:28.998Z</time></trkpt><trkpt lat="45.82415964335997" lon="8.960675917348388"><ele>414.0</ele><time>2026-05-01T07:07:32.998Z</time></trkpt><trkpt lat="45.82420539773792" lon="8.960741103411292"><ele>414.0</ele><time>2026-05-01T07:07:33.998Z</time></trkpt><trkpt lat="45.82423866915154" lon="8.960834838935131"><ele>414.0</ele><time>2026-05-01T07:07:34.998Z</time></trkpt><trkpt lat="45.82428480340125" lon="8.96091981206192"><ele>414.0</ele><time>2026-05-01T07:07:35.998Z</time></trkpt><trkpt lat="45.82433916267572" lon="8.961031635066373"><ele>414.0</ele><time>2026-05-01T07:07:36.998Z</time></trkpt><trkpt lat="45.82438174995399" lon="8.961165144857413"><ele>414.0</ele><time>2026-05-01T07:07:37.998Z</time></trkpt><trkpt lat="45.82441176102074" lon="8.961313405510248"><ele>413.79999999999995</ele><time>2026-05-01T07:07:38.998Z</time></trkpt><trkpt lat="45.82439813206733" lon="8.961446154718818"><ele>413.59999999999997</ele><time>2026-05-01T07:07:39.998Z</time></trkpt><trkpt lat="45.82438378495185" lon="8.961557852501668"><ele>413.4</ele><time>2026-05-01T07:07:40.998Z</time></trkpt><trkpt lat="45.8242969957808" lon="8.961634171263952"><ele>413.2</ele><time>2026-05-01T07:07:42Z</time></trkpt><trkpt lat="45.82423856824169" lon="8.961757700760618"><ele>413.0</ele><time>2026-05-01T07:07:43Z</time></trkpt><trkpt lat="45.82416835894605" lon="8.9618960839263"><ele>413.0</ele><time>2026-05-01T07:07:44Z</time></trkpt><trkpt lat="45.82408725401213" lon="8.962056979624013"><ele>413.0</ele><time>2026-05-01T07:07:45Z</time></trkpt><trkpt lat="45.82401673310887" lon="8.962207917997107"><ele>413.0</ele><time>2026-05-01T07:07:46Z</time></trkpt><trkpt lat="45.82394705297954" lon="8.962377908129822"><ele>413.0</ele><time>2026-05-01T07:07:47Z</time></trkpt><trkpt lat="45.823896977645475" lon="8.962554379230898"><ele>412.5</ele><time>2026-05-01T07:07:48Z</time></trkpt><trkpt lat="45.82386389328848" lon="8.962751020750217"><ele>412.0</ele><time>2026-05-01T07:07:49Z</time></trkpt><trkpt lat="45.82383117370411" lon="8.96296334453775"><ele>411.5</ele><time>2026-05-01T07:07:50Z</time></trkpt><trkpt lat="45.82381784984391" lon="8.963178340131057"><ele>411.0</ele><time>2026-05-01T07:07:51Z</time></trkpt><trkpt lat="45.82380296249486" lon="8.963381463939854"><ele>411.0</ele><time>2026-05-01T07:07:52Z</time></trkpt><trkpt lat="45.823791268439" lon="8.963577262989185"><ele>411.0</ele><time>2026-05-01T07:07:53Z</time></trkpt><trkpt lat="45.82376445502119" lon="8.963756998404047"><ele>411.0</ele><time>2026-05-01T07:07:54Z</time></trkpt><trkpt lat="45.823741134926856" lon="8.963927259788358"><ele>411.0</ele><time>2026-05-01T07:07:55Z</time></trkpt><trkpt lat="45.82371434004266" lon="8.964075117625361"><ele>411.0</ele><time>2026-05-01T07:07:56Z</time></trkpt><trkpt lat="45.8236627683315" lon="8.964189231102521"><ele>411.0</ele><time>2026-05-01T07:07:57Z</time></trkpt><trkpt lat="45.82358057265608" lon="8.96425224154741"><ele>411.0</ele><time>2026-05-01T07:07:58Z</time></trkpt><trkpt lat="45.82348614104719" lon="8.96426350278884"><ele>411.0</ele><time>2026-05-01T07:07:59Z</time></trkpt><trkpt lat="45.82340456521075" lon="8.964245968571984"><ele>411.0</ele><time>2026-05-01T07:08:00Z</time></trkpt><trkpt lat="45.82333614103496" lon="8.964213385649385"><ele>411.0</ele><time>2026-05-01T07:08:01Z</time></trkpt><trkpt lat="45.82322793353653" lon="8.964244250469033"><ele>408.20000000000005</ele><time>2026-05-01T07:08:03Z</time></trkpt><trkpt lat="45.82319390409514" lon="8.964411695393006"><ele>405.40000000000003</ele><time>2026-05-01T07:08:05Z</time></trkpt><trkpt lat="45.82320664251872" lon="8.964520975697159"><ele>402.6</ele><time>2026-05-01T07:08:06Z</time></trkpt><trkpt lat="45.82321786869826" lon="8.964639661338254"><ele>399.8</ele><time>2026-05-01T07:08:07Z</time></trkpt><trkpt lat="45.82320890006313" lon="8.964764175019576"><ele>397.0</ele><time>2026-05-01T07:08:08Z</time></trkpt><trkpt lat="45.82317665722026" lon="8.9649007349153"><ele>398.5</ele><time>2026-05-01T07:08:09Z</time></trkpt><trkpt lat="45.823119623457266" lon="8.96504450274867"><ele>400.0</ele><time>2026-05-01T07:08:10Z</time></trkpt><trkpt lat="45.82305329434786" lon="8.965211100066803"><ele>401.5</ele><time>2026-05-01T07:08:11Z</time></trkpt><trkpt lat="45.82298698153141" lon="8.965410086334341"><ele>403.0</ele><time>2026-05-01T07:08:12Z</time></trkpt><trkpt lat="45.82291720403673" lon="8.965559409331327"><ele>403.0</ele><time>2026-05-01T07:08:13Z</time></trkpt><trkpt lat="45.82285123911452" lon="8.965729245218327"><ele>403.0</ele><time>2026-05-01T07:08:14Z</time></trkpt><trkpt lat="45.8227719586499" lon="8.96590247672937"><ele>403.0</ele><time>2026-05-01T07:08:15Z</time></trkpt><trkpt lat="45.8226825973508" lon="8.966079010849084"><ele>403.0</ele><time>2026-05-01T07:08:16Z</time></trkpt><trkpt lat="45.82258846484934" lon="8.966257791203338"><ele>399.6666666666667</ele><time>2026-05-01T07:08:17Z</time></trkpt><trkpt lat="45.822494103051895" lon="8.966472512356004"><ele>396.33333333333337</ele><time>2026-05-01T07:08:18Z</time></trkpt><trkpt lat="45.822394962396615" lon="8.966726282800968"><ele>393.0</ele><time>2026-05-01T07:08:19Z</time></trkpt><trkpt lat="45.822354641647415" lon="8.966865439429766"><ele>393.0</ele><time>2026-05-01T07:08:20Z</time></trkpt><trkpt lat="45.82227904269313" lon="8.9670260040399"><ele>393.0</ele><time>2026-05-01T07:08:21Z</time></trkpt><trkpt lat="45.822191278997785" lon="8.967186171341808"><ele>393.0</ele><time>2026-05-01T07:08:22Z</time></trkpt><trkpt lat="45.82209285980523" lon="8.96730862764252"><ele>393.0</ele><time>2026-05-01T07:08:23Z</time></trkpt><trkpt lat="45.8220206352123" lon="8.967461696280706"><ele>394.0</ele><time>2026-05-01T07:08:24Z</time></trkpt><trkpt lat="45.821946374683506" lon="8.967589225354569"><ele>395.0</ele><time>2026-05-01T07:08:25Z</time></trkpt><trkpt lat="45.8219159162079" lon="8.967743623671746"><ele>396.0</ele><time>2026-05-01T07:08:26Z</time></trkpt><trkpt lat="45.82190886834878" lon="8.967913792086005"><ele>397.0</ele><time>2026-05-01T07:08:27Z</time></trkpt><trkpt lat="45.821891580209034" lon="8.968087188933712"><ele>397.0</ele><time>2026-05-01T07:08:28Z</time></trkpt><trkpt lat="45.82187675789953" lon="8.968276103348733"><ele>397.0</ele><time>2026-05-01T07:08:29Z</time></trkpt><trkpt lat="45.82184275680845" lon="8.968481265878754"><ele>397.0</ele><time>2026-05-01T07:08:30Z</time></trkpt><trkpt lat="45.82181670119714" lon="8.968681415597652"><ele>397.0</ele><time>2026-05-01T07:08:31Z</time></trkpt><trkpt lat="45.82178944498302" lon="8.968870626863554"><ele>389.25</ele><time>2026-05-01T07:08:31.999Z</time></trkpt><trkpt lat="45.82176944881638" lon="8.969057061726195"><ele>381.5</ele><time>2026-05-01T07:08:32.999Z</time></trkpt><trkpt lat="45.821767994735225" lon="8.969255000994904"><ele>373.75</ele><time>2026-05-01T07:08:33.999Z</time></trkpt><trkpt lat="45.82178378937057" lon="8.969448329542825"><ele>366.0</ele><time>2026-05-01T07:08:34.999Z</time></trkpt><trkpt lat="45.82179917760863" lon="8.969633044384091"><ele>365.5</ele><time>2026-05-01T07:08:35.999Z</time></trkpt><trkpt lat="45.82180830579062" lon="8.969810508922729"><ele>365.0</ele><time>2026-05-01T07:08:36.999Z</time></trkpt><trkpt lat="45.82182166808757" lon="8.969989857358588"><ele>364.5</ele><time>2026-05-01T07:08:37.999Z</time></trkpt><trkpt lat="45.82182533024787" lon="8.970162006466355"><ele>364.0</ele><time>2026-05-01T07:08:38.999Z</time></trkpt><trkpt lat="45.82183776369071" lon="8.97032902116441"><ele>363.6</ele><time>2026-05-01T07:08:39.999Z</time></trkpt><trkpt lat="45.82183912796547" lon="8.970471186131686"><ele>363.2</ele><time>2026-05-01T07:08:40.999Z</time></trkpt><trkpt lat="45.82182234885706" lon="8.970584840560305"><ele>362.8</ele><time>2026-05-01T07:08:41.999Z</time></trkpt><trkpt lat="45.821702233359275" lon="8.97074988131327"><ele>362.40000000000003</ele><time>2026-05-01T07:08:43.999Z</time></trkpt><trkpt lat="45.821632943726705" lon="8.97083593480525"><ele>362.0</ele><time>2026-05-01T07:08:44.999Z</time></trkpt><trkpt lat="45.82153981100484" lon="8.970913501619195"><ele>361.5</ele><time>2026-05-01T07:08:45.999Z</time></trkpt><trkpt lat="45.82145791341699" lon="8.971016969694205"><ele>361.0</ele><time>2026-05-01T07:08:46.999Z</time></trkpt><trkpt lat="45.82136437797146" lon="8.971114107349182"><ele>360.5</ele><time>2026-05-01T07:08:47.999Z</time></trkpt><trkpt lat="45.82126457440594" lon="8.971199815906512"><ele>360.0</ele><time>2026-05-01T07:08:48.999Z</time></trkpt><trkpt lat="45.8211737546668" lon="8.971287489367352"><ele>360.0</ele><time>2026-05-01T07:08:49.999Z</time></trkpt><trkpt lat="45.821096448823894" lon="8.971370814176668"><ele>360.0</ele><time>2026-05-01T07:08:50.999Z</time></trkpt><trkpt lat="45.82101508603964" lon="8.971450254704076"><ele>360.0</ele><time>2026-05-01T07:08:51.999Z</time></trkpt><trkpt lat="45.82093938551286" lon="8.971548308956066"><ele>360.0</ele><time>2026-05-01T07:08:52.999Z</time></trkpt><trkpt lat="45.82088656631315" lon="8.971666159776902"><ele>360.0</ele><time>2026-05-01T07:08:53.999Z</time></trkpt><trkpt lat="45.82086575065351" lon="8.971807531862941"><ele>359.0</ele><time>2026-05-01T07:08:54.999Z</time></trkpt><trkpt lat="45.82088092504956" lon="8.971956628712658"><ele>358.0</ele><time>2026-05-01T07:08:55.999Z</time></trkpt><trkpt lat="45.82092102843325" lon="8.972104943745155"><ele>357.0</ele><time>2026-05-01T07:08:56.999Z</time></trkpt><trkpt lat="45.820975521629194" lon="8.972259673966994"><ele>356.0</ele><time>2026-05-01T07:08:57.999Z</time></trkpt><trkpt lat="45.821021995755444" lon="8.97242223379003"><ele>355.6666666666667</ele><time>2026-05-01T07:08:58.999Z</time></trkpt><trkpt lat="45.821045918415315" lon="8.972587963130435"><ele>355.3333333333333</ele><time>2026-05-01T07:08:59.999Z</time></trkpt><trkpt lat="45.821147387195865" lon="8.972809687767866"><ele>355.0</ele><time>2026-05-01T07:09:00.999Z</time></trkpt><trkpt lat="45.821208738876415" lon="8.973007320559017"><ele>355.0</ele><time>2026-05-01T07:09:01.999Z</time></trkpt><trkpt lat="45.82127512470627" lon="8.973217518324812"><ele>355.0</ele><time>2026-05-01T07:09:02.999Z</time></trkpt><trkpt lat="45.82134687444629" lon="8.973426395244035"><ele>355.0</ele><time>2026-05-01T07:09:03.999Z</time></trkpt><trkpt lat="45.821417485319905" lon="8.973713611213773"><ele>354.0</ele><time>2026-05-01T07:09:04.999Z</time></trkpt><trkpt lat="45.82148250222612" lon="8.973972359639735"><ele>353.0</ele><time>2026-05-01T07:09:05.999Z</time></trkpt><trkpt lat="45.82150227832794" lon="8.974085759878498"><ele>352.0</ele><time>2026-05-01T07:09:06.999Z</time></trkpt><trkpt lat="45.82153664446211" lon="8.974305628257062"><ele>351.0</ele><time>2026-05-01T07:09:07.999Z</time></trkpt><trkpt lat="45.821568506063024" lon="8.97453384436972"><ele>348.75</ele><time>2026-05-01T07:09:08.999Z</time></trkpt><trkpt lat="45.82160872102141" lon="8.974732202001123"><ele>346.5</ele><time>2026-05-01T07:09:09.999Z</time></trkpt><trkpt lat="45.82163721924624" lon="8.974917686576118"><ele>344.25</ele><time>2026-05-01T07:09:10.999Z</time></trkpt><trkpt lat="45.82165575643688" lon="8.975074879215226"><ele>342.0</ele><time>2026-05-01T07:09:11.999Z</time></trkpt><trkpt lat="45.821615693718826" lon="8.975229894719256"><ele>339.5</ele><time>2026-05-01T07:09:12.999Z</time></trkpt><trkpt lat="45.82157877234385" lon="8.9753801402547"><ele>337.0</ele><time>2026-05-01T07:09:13.999Z</time></trkpt><trkpt lat="45.821555115706296" lon="8.97553947189657"><ele>334.5</ele><time>2026-05-01T07:09:14.999Z</time></trkpt><trkpt lat="45.82152269838227" lon="8.975700076630707"><ele>332.0</ele><time>2026-05-01T07:09:15.999Z</time></trkpt><trkpt lat="45.82151776336285" lon="8.975874623781019"><ele>330.5</ele><time>2026-05-01T07:09:16.999Z</time></trkpt><trkpt lat="45.821538752201455" lon="8.976046740336638"><ele>329.0</ele><time>2026-05-01T07:09:17.999Z</time></trkpt><trkpt lat="45.82159749700835" lon="8.976202280794366"><ele>327.5</ele><time>2026-05-01T07:09:18.999Z</time></trkpt><trkpt lat="45.8216778541057" lon="8.97633289942891"><ele>326.0</ele><time>2026-05-01T07:09:19.999Z</time></trkpt><trkpt lat="45.82178728325259" lon="8.976429010767534"><ele>325.75</ele><time>2026-05-01T07:09:20.999Z</time></trkpt><trkpt lat="45.8219137023697" lon="8.976492026987424"><ele>325.5</ele><time>2026-05-01T07:09:21.999Z</time></trkpt><trkpt lat="45.82205838438605" lon="8.976496005750464"><ele>325.25</ele><time>2026-05-01T07:09:22.999Z</time></trkpt><trkpt lat="45.82219840623657" lon="8.976489934496295"><ele>325.0</ele><time>2026-05-01T07:09:23.999Z</time></trkpt><trkpt lat="45.822338476865326" lon="8.976506427596258"><ele>325.0</ele><time>2026-05-01T07:09:24.999Z</time></trkpt><trkpt lat="45.8224651421382" lon="8.976580418213288"><ele>325.0</ele><time>2026-05-01T07:09:25.999Z</time></trkpt><trkpt lat="45.82257676769607" lon="8.976725816332559"><ele>325.0</ele><time>2026-05-01T07:09:26.999Z</time></trkpt><trkpt lat="45.82269110441544" lon="8.9768831032181"><ele>325.0</ele><time>2026-05-01T07:09:27.999Z</time></trkpt><trkpt lat="45.822802404750014" lon="8.977030414278278"><ele>324.5</ele><time>2026-05-01T07:09:28.999Z</time></trkpt><trkpt lat="45.82291272863077" lon="8.97715472708111"><ele>324.0</ele><time>2026-05-01T07:09:29.999Z</time></trkpt><trkpt lat="45.82300175880733" lon="8.97728028488775"><ele>323.5</ele><time>2026-05-01T07:09:30.999Z</time></trkpt><trkpt lat="45.823063879812516" lon="8.977408833243585"><ele>323.0</ele><time>2026-05-01T07:09:31.999Z</time></trkpt><trkpt lat="45.82311796590701" lon="8.97751811820229"><ele>322.25</ele><time>2026-05-01T07:09:32.999Z</time></trkpt><trkpt lat="45.823131296635" lon="8.977666050574822"><ele>321.5</ele><time>2026-05-01T07:09:33.999Z</time></trkpt><trkpt lat="45.82311059482596" lon="8.977827786237413"><ele>320.75</ele><time>2026-05-01T07:09:34.999Z</time></trkpt><trkpt lat="45.82306456410167" lon="8.97798528137095"><ele>320.0</ele><time>2026-05-01T07:09:35.998Z</time></trkpt><trkpt lat="45.82298092128604" lon="8.978120204673807"><ele>320.0</ele><time>2026-05-01T07:09:36.998Z</time></trkpt><trkpt lat="45.82287613982379" lon="8.97821856087824"><ele>320.0</ele><time>2026-05-01T07:09:37.998Z</time></trkpt><trkpt lat="45.82275719287681" lon="8.978261949487154"><ele>320.0</ele><time>2026-05-01T07:09:38.998Z</time></trkpt><trkpt lat="45.82262755013136" lon="8.978263759103895"><ele>320.0</ele><time>2026-05-01T07:09:39.998Z</time></trkpt><trkpt lat="45.82248727680427" lon="8.978248430817835"><ele>318.5</ele><time>2026-05-01T07:09:40.998Z</time></trkpt><trkpt lat="45.822344317682806" lon="8.978230185804373"><ele>317.0</ele><time>2026-05-01T07:09:41.998Z</time></trkpt><trkpt lat="45.82219815492052" lon="8.978237226354652"><ele>315.5</ele><time>2026-05-01T07:09:42.998Z</time></trkpt><trkpt lat="45.82206277841366" lon="8.978299553218742"><ele>314.0</ele><time>2026-05-01T07:09:43.998Z</time></trkpt><trkpt lat="45.821932941781576" lon="8.978410183359397"><ele>311.5</ele><time>2026-05-01T07:09:44.998Z</time></trkpt><trkpt lat="45.82180994202034" lon="8.978531018231731"><ele>309.0</ele><time>2026-05-01T07:09:45.998Z</time></trkpt><trkpt lat="45.82168599430292" lon="8.978606816272563"><ele>306.5</ele><time>2026-05-01T07:09:46.998Z</time></trkpt><trkpt lat="45.821542102403924" lon="8.978623666579212"><ele>304.0</ele><time>2026-05-01T07:09:48Z</time></trkpt><trkpt lat="45.82139568339245" lon="8.978602822493855"><ele>304.0</ele><time>2026-05-01T07:09:49Z</time></trkpt><trkpt lat="45.821252203266226" lon="8.978630229350474"><ele>304.0</ele><time>2026-05-01T07:09:50Z</time></trkpt><trkpt lat="45.82110206561272" lon="8.978699286036822"><ele>304.0</ele><time>2026-05-01T07:09:51Z</time></trkpt><trkpt lat="45.820968350091476" lon="8.97877413511646"><ele>304.0</ele><time>2026-05-01T07:09:52Z</time></trkpt><trkpt lat="45.82084391839179" lon="8.97888796558195"><ele>302.3333333333333</ele><time>2026-05-01T07:09:53Z</time></trkpt><trkpt lat="45.82072712981232" lon="8.979005548453618"><ele>300.6666666666667</ele><time>2026-05-01T07:09:54Z</time></trkpt><trkpt lat="45.82059615841615" lon="8.979142747670258"><ele>299.0</ele><time>2026-05-01T07:09:55Z</time></trkpt><trkpt lat="45.82048888042848" lon="8.979287570758345"><ele>297.25</ele><time>2026-05-01T07:09:56Z</time></trkpt><trkpt lat="45.820383385115306" lon="8.97942319776833"><ele>295.5</ele><time>2026-05-01T07:09:57Z</time></trkpt><trkpt lat="45.82026164777934" lon="8.979513451577683"><ele>293.75</ele><time>2026-05-01T07:09:58Z</time></trkpt><trkpt lat="45.82012271813485" lon="8.97947459515085"><ele>292.0</ele><time>2026-05-01T07:09:59Z</time></trkpt><trkpt lat="45.81998830384949" lon="8.979453585332081"><ele>291.5</ele><time>2026-05-01T07:10:00Z</time></trkpt><trkpt lat="45.81984586807899" lon="8.979422639684403"><ele>291.0</ele><time>2026-05-01T07:10:01Z</time></trkpt><trkpt lat="45.819706560948454" lon="8.979414765512407"><ele>290.5</ele><time>2026-05-01T07:10:02Z</time></trkpt><trkpt lat="45.81959452331413" lon="8.979386583567312"><ele>290.0</ele><time>2026-05-01T07:10:03Z</time></trkpt><trkpt lat="45.81950042675161" lon="8.979399914409768"><ele>290.0</ele><time>2026-05-01T07:10:04Z</time></trkpt><trkpt lat="45.81941110151401" lon="8.979461807345933"><ele>290.0</ele><time>2026-05-01T07:10:05Z</time></trkpt><trkpt lat="45.81934045323619" lon="8.97957504719463"><ele>290.0</ele><time>2026-05-01T07:10:06Z</time></trkpt><trkpt lat="45.81927762642429" lon="8.979717082949453"><ele>290.0</ele><time>2026-05-01T07:10:07Z</time></trkpt><trkpt lat="45.8192042625025" lon="8.979879632348108"><ele>288.75</ele><time>2026-05-01T07:10:08Z</time></trkpt><trkpt lat="45.819119543771954" lon="8.980046717398517"><ele>287.5</ele><time>2026-05-01T07:10:09Z</time></trkpt><trkpt lat="45.81903557417892" lon="8.980220685780811"><ele>286.25</ele><time>2026-05-01T07:10:10Z</time></trkpt><trkpt lat="45.81894907991008" lon="8.980396430274991"><ele>285.0</ele><time>2026-05-01T07:10:11Z</time></trkpt><trkpt lat="45.818858589228036" lon="8.980573340824334"><ele>285.0</ele><time>2026-05-01T07:10:12Z</time></trkpt><trkpt lat="45.81876248982653" lon="8.980760077435267"><ele>285.0</ele><time>2026-05-01T07:10:13Z</time></trkpt><trkpt lat="45.8186649756962" lon="8.980951606496834"><ele>285.0</ele><time>2026-05-01T07:10:14Z</time></trkpt><trkpt lat="45.81856479303213" lon="8.981143711393807"><ele>284.0</ele><time>2026-05-01T07:10:15Z</time></trkpt><trkpt lat="45.818465541550644" lon="8.981330943987711"><ele>283.0</ele><time>2026-05-01T07:10:16Z</time></trkpt><trkpt lat="45.81835653099611" lon="8.981531478086808"><ele>282.0</ele><time>2026-05-01T07:10:17Z</time></trkpt><trkpt lat="45.81825284675604" lon="8.981720768630607"><ele>281.3333333333333</ele><time>2026-05-01T07:10:18Z</time></trkpt><trkpt lat="45.81815093322959" lon="8.981911878116826"><ele>280.66666666666663</ele><time>2026-05-01T07:10:19Z</time></trkpt><trkpt lat="45.81805352776693" lon="8.98210191828411"><ele>280.0</ele><time>2026-05-01T07:10:20Z</time></trkpt><trkpt lat="45.817956731194236" lon="8.982293845400768"><ele>280.0</ele><time>2026-05-01T07:10:21Z</time></trkpt><trkpt lat="45.817861642951236" lon="8.98247560532572"><ele>280.0</ele><time>2026-05-01T07:10:22Z</time></trkpt><trkpt lat="45.81776245589145" lon="8.982643993182073"><ele>280.0</ele><time>2026-05-01T07:10:23Z</time></trkpt><trkpt lat="45.81767817490959" lon="8.982802060850814"><ele>280.2</ele><time>2026-05-01T07:10:24Z</time></trkpt><trkpt lat="45.81759729534424" lon="8.982940289895996"><ele>280.4</ele><time>2026-05-01T07:10:25Z</time></trkpt><trkpt lat="45.81751497004786" lon="8.983063938675185"><ele>280.6</ele><time>2026-05-01T07:10:26Z</time></trkpt><trkpt lat="45.81745574733343" lon="8.983187026407467"><ele>280.8</ele><time>2026-05-01T07:10:27Z</time></trkpt><trkpt lat="45.817409728246254" lon="8.983314598867416"><ele>281.0</ele><time>2026-05-01T07:10:28Z</time></trkpt><trkpt lat="45.8173779791198" lon="8.983406992070687"><ele>280.6</ele><time>2026-05-01T07:10:29Z</time></trkpt><trkpt lat="45.81731611333121" lon="8.9835203661336"><ele>280.20000000000005</ele><time>2026-05-01T07:10:31Z</time></trkpt><trkpt lat="45.817207461258555" lon="8.983619850986647"><ele>279.79999999999995</ele><time>2026-05-01T07:10:33Z</time></trkpt><trkpt lat="45.81716061257824" lon="8.983716884056442"><ele>279.4</ele><time>2026-05-01T07:10:33.999Z</time></trkpt><trkpt lat="45.81711180447383" lon="8.98383369512942"><ele>279.0</ele><time>2026-05-01T07:10:34.999Z</time></trkpt><trkpt lat="45.817052115116105" lon="8.983953293847476"><ele>279.0</ele><time>2026-05-01T07:10:35.999Z</time></trkpt><trkpt lat="45.81698784090129" lon="8.984065238054727"><ele>279.0</ele><time>2026-05-01T07:10:36.999Z</time></trkpt><trkpt lat="45.81692069059886" lon="8.984173920332863"><ele>279.0</ele><time>2026-05-01T07:10:37.999Z</time></trkpt><trkpt lat="45.81685063589595" lon="8.984309513873303"><ele>279.0</ele><time>2026-05-01T07:10:38.999Z</time></trkpt><trkpt lat="45.81676589812837" lon="8.984470106525857"><ele>279.5</ele><time>2026-05-01T07:10:39.999Z</time></trkpt><trkpt lat="45.8166813028841" lon="8.984610546243156"><ele>280.0</ele><time>2026-05-01T07:10:40.999Z</time></trkpt><trkpt lat="45.816604222191415" lon="8.984760618352443"><ele>280.5</ele><time>2026-05-01T07:10:41.999Z</time></trkpt><trkpt lat="45.816523203316805" lon="8.984912896273633"><ele>281.0</ele><time>2026-05-01T07:10:42.999Z</time></trkpt><trkpt lat="45.81644918616386" lon="8.985061726997511"><ele>282.5</ele><time>2026-05-01T07:10:43.999Z</time></trkpt><trkpt lat="45.816376766025655" lon="8.985192986366881"><ele>284.0</ele><time>2026-05-01T07:10:44.999Z</time></trkpt><trkpt lat="45.81628087396101" lon="8.98528684463316"><ele>285.5</ele><time>2026-05-01T07:10:45.999Z</time></trkpt><trkpt lat="45.81616131121892" lon="8.985274764537584"><ele>287.0</ele><time>2026-05-01T07:10:46.999Z</time></trkpt><trkpt lat="45.8160210418298" lon="8.985278356276076"><ele>288.75</ele><time>2026-05-01T07:10:47.999Z</time></trkpt><trkpt lat="45.81587423382603" lon="8.985287188990204"><ele>290.5</ele><time>2026-05-01T07:10:48.999Z</time></trkpt><trkpt lat="45.81573069961414" lon="8.98528756237163"><ele>292.25</ele><time>2026-05-01T07:10:49.999Z</time></trkpt><trkpt lat="45.815582945809204" lon="8.98530970135384"><ele>294.0</ele><time>2026-05-01T07:10:50.999Z</time></trkpt><trkpt lat="45.815430376494476" lon="8.98535819666817"><ele>294.0</ele><time>2026-05-01T07:10:51.999Z</time></trkpt><trkpt lat="45.81527737562837" lon="8.985427618388105"><ele>294.0</ele><time>2026-05-01T07:10:52.999Z</time></trkpt><trkpt lat="45.81512978684086" lon="8.985488245206865"><ele>294.0</ele><time>2026-05-01T07:10:53.999Z</time></trkpt><trkpt lat="45.8149949088176" lon="8.98551906119875"><ele>295.0</ele><time>2026-05-01T07:10:54.999Z</time></trkpt><trkpt lat="45.814880187267" lon="8.985518863749231"><ele>296.0</ele><time>2026-05-01T07:10:55.999Z</time></trkpt><trkpt lat="45.8147797300266" lon="8.985513608227091"><ele>297.0</ele><time>2026-05-01T07:10:56.999Z</time></trkpt><trkpt lat="45.81470261612393" lon="8.985558887128434"><ele>298.0</ele><time>2026-05-01T07:10:57.999Z</time></trkpt><trkpt lat="45.81464707267458" lon="8.985667164661447"><ele>299.0</ele><time>2026-05-01T07:10:58.999Z</time></trkpt><trkpt lat="45.81462537633384" lon="8.985815597895177"><ele>301.0</ele><time>2026-05-01T07:10:59.999Z</time></trkpt><trkpt lat="45.81464947601632" lon="8.98596916819732"><ele>303.0</ele><time>2026-05-01T07:11:00.999Z</time></trkpt><trkpt lat="45.81470134403118" lon="8.986124569391311"><ele>305.0</ele><time>2026-05-01T07:11:01.999Z</time></trkpt><trkpt lat="45.814747501202476" lon="8.98628088812586"><ele>307.0</ele><time>2026-05-01T07:11:02.999Z</time></trkpt><trkpt lat="45.81478841377076" lon="8.98645657843598"><ele>308.75</ele><time>2026-05-01T07:11:03.999Z</time></trkpt><trkpt lat="45.814766836034686" lon="8.986682350353377"><ele>310.5</ele><time>2026-05-01T07:11:04.999Z</time></trkpt><trkpt lat="45.81473597728729" lon="8.986923547710346"><ele>312.25</ele><time>2026-05-01T07:11:05.999Z</time></trkpt><trkpt lat="45.814674643008466" lon="8.986957500145314"><ele>314.0</ele><time>2026-05-01T07:11:06.999Z</time></trkpt><trkpt lat="45.81460855488049" lon="8.98712831556317"><ele>314.0</ele><time>2026-05-01T07:11:07.999Z</time></trkpt><trkpt lat="45.814548038763675" lon="8.98729638178574"><ele>314.0</ele><time>2026-05-01T07:11:08.999Z</time></trkpt><trkpt lat="45.81450684142837" lon="8.987469707254528"><ele>314.0</ele><time>2026-05-01T07:11:09.999Z</time></trkpt><trkpt lat="45.814494593914574" lon="8.987643483861664"><ele>314.0</ele><time>2026-05-01T07:11:10.999Z</time></trkpt><trkpt lat="45.81451602382286" lon="8.987820062602482"><ele>317.0</ele><time>2026-05-01T07:11:11.999Z</time></trkpt><trkpt lat="45.814573025671805" lon="8.987981829216865"><ele>320.0</ele><time>2026-05-01T07:11:12.999Z</time></trkpt><trkpt lat="45.81466131639585" lon="8.988121703094414"><ele>323.0</ele><time>2026-05-01T07:11:13.999Z</time></trkpt><trkpt lat="45.81477246433298" lon="8.988240768891917"><ele>326.0</ele><time>2026-05-01T07:11:14.999Z</time></trkpt><trkpt lat="45.814891527876874" lon="8.988359252262951"><ele>327.5</ele><time>2026-05-01T07:11:15.999Z</time></trkpt><trkpt lat="45.814997796183555" lon="8.988505333091064"><ele>329.0</ele><time>2026-05-01T07:11:16.999Z</time></trkpt><trkpt lat="45.815076838456186" lon="8.98868467971877"><ele>330.5</ele><time>2026-05-01T07:11:17.999Z</time></trkpt><trkpt lat="45.81514550058977" lon="8.9888766660913"><ele>332.0</ele><time>2026-05-01T07:11:18.999Z</time></trkpt><trkpt lat="45.815215256863745" lon="8.989074022710955"><ele>335.0</ele><time>2026-05-01T07:11:19.999Z</time></trkpt><trkpt lat="45.81530187672866" lon="8.989253156448083"><ele>338.0</ele><time>2026-05-01T07:11:20.999Z</time></trkpt><trkpt lat="45.815397444931286" lon="8.989404654635582"><ele>341.0</ele><time>2026-05-01T07:11:21.999Z</time></trkpt><trkpt lat="45.81549127360023" lon="8.98952598702643"><ele>344.0</ele><time>2026-05-01T07:11:22.999Z</time></trkpt><trkpt lat="45.81556510693604" lon="8.989630113670795"><ele>344.0</ele><time>2026-05-01T07:11:23.999Z</time></trkpt><trkpt lat="45.8156360908773" lon="8.98971550810967"><ele>344.0</ele><time>2026-05-01T07:11:24.999Z</time></trkpt><trkpt lat="45.81570096565081" lon="8.989768239584963"><ele>344.0</ele><time>2026-05-01T07:11:25.999Z</time></trkpt><trkpt lat="45.81577175547101" lon="8.989904280531942"><ele>344.0</ele><time>2026-05-01T07:11:27.999Z</time></trkpt><trkpt lat="45.81575407565202" lon="8.990007078106302"><ele>344.0</ele><time>2026-05-01T07:11:28.999Z</time></trkpt><trkpt lat="45.81568493285017" lon="8.990067725037454"><ele>344.0</ele><time>2026-05-01T07:11:29.999Z</time></trkpt><trkpt lat="45.81551615804483" lon="8.990017891517477"><ele>344.0</ele><time>2026-05-01T07:11:30.999Z</time></trkpt><trkpt lat="45.81547228768638" lon="8.989922255483838"><ele>344.0</ele><time>2026-05-01T07:11:31.999Z</time></trkpt><trkpt lat="45.81544397096817" lon="8.989766764977727"><ele>344.0</ele><time>2026-05-01T07:11:32.999Z</time></trkpt><trkpt lat="45.815382652143334" lon="8.989648322515746"><ele>344.0</ele><time>2026-05-01T07:11:33.999Z</time></trkpt><trkpt lat="45.81532416506175" lon="8.989553690618092"><ele>344.0</ele><time>2026-05-01T07:11:34.999Z</time></trkpt><trkpt lat="45.815284704231665" lon="8.989475354458962"><ele>344.0</ele><time>2026-05-01T07:11:35.999Z</time></trkpt><trkpt lat="45.815219580485575" lon="8.98942451393293"><ele>344.0</ele><time>2026-05-01T07:11:36.999Z</time></trkpt><trkpt lat="45.81513675300573" lon="8.989427266338577"><ele>344.0</ele><time>2026-05-01T07:11:37.998Z</time></trkpt><trkpt lat="45.81507006461826" lon="8.989503544289741"><ele>344.0</ele><time>2026-05-01T07:11:38.998Z</time></trkpt><trkpt lat="45.81504725922132" lon="8.989629508827878"><ele>344.0</ele><time>2026-05-01T07:11:39.998Z</time></trkpt><trkpt lat="45.81508720228053" lon="8.989753735684126"><ele>344.0</ele><time>2026-05-01T07:11:40.998Z</time></trkpt><trkpt lat="45.815156450797474" lon="8.989852214571187"><ele>344.0</ele><time>2026-05-01T07:11:41.998Z</time></trkpt><trkpt lat="45.81524537029157" lon="8.989921836159947"><ele>344.0</ele><time>2026-05-01T07:11:42.998Z</time></trkpt><trkpt lat="45.81534135912811" lon="8.990015004356069"><ele>344.0</ele><time>2026-05-01T07:11:43.998Z</time></trkpt><trkpt lat="45.81540771060722" lon="8.990175482320074"><ele>344.0</ele><time>2026-05-01T07:11:44.998Z</time></trkpt><trkpt lat="45.81550094401288" lon="8.99032108729215"><ele>346.5</ele><time>2026-05-01T07:11:45.998Z</time></trkpt><trkpt lat="45.815582674660874" lon="8.990468532114782"><ele>349.0</ele><time>2026-05-01T07:11:46.998Z</time></trkpt><trkpt lat="45.81567218572101" lon="8.990596194285311"><ele>351.5</ele><time>2026-05-01T07:11:47.998Z</time></trkpt><trkpt lat="45.81577064653035" lon="8.990717451984246"><ele>354.0</ele><time>2026-05-01T07:11:48.998Z</time></trkpt><trkpt lat="45.815859939382925" lon="8.990845548083927"><ele>355.25</ele><time>2026-05-01T07:11:49.998Z</time></trkpt><trkpt lat="45.815937767516154" lon="8.990990299750631"><ele>356.5</ele><time>2026-05-01T07:11:50.998Z</time></trkpt><trkpt lat="45.816012033922334" lon="8.99112394021228"><ele>357.75</ele><time>2026-05-01T07:11:51.998Z</time></trkpt><trkpt lat="45.81605626365734" lon="8.99126329452632"><ele>359.0</ele><time>2026-05-01T07:11:52.998Z</time></trkpt><trkpt lat="45.81605625682901" lon="8.99140435082701"><ele>359.0</ele><time>2026-05-01T07:11:54Z</time></trkpt><trkpt lat="45.816024262934604" lon="8.99153830004383"><ele>359.0</ele><time>2026-05-01T07:11:55Z</time></trkpt><trkpt lat="45.815950706109135" lon="8.991644354060542"><ele>359.0</ele><time>2026-05-01T07:11:56Z</time></trkpt><trkpt lat="45.81585294847678" lon="8.991723352524467"><ele>359.0</ele><time>2026-05-01T07:11:57Z</time></trkpt><trkpt lat="45.8157753871445" lon="8.991801635228644"><ele>359.0</ele><time>2026-05-01T07:11:58Z</time></trkpt><trkpt lat="45.81571878370578" lon="8.991911240587239"><ele>360.25</ele><time>2026-05-01T07:11:59Z</time></trkpt><trkpt lat="45.81567928665182" lon="8.992044796386022"><ele>361.5</ele><time>2026-05-01T07:12:00Z</time></trkpt><trkpt lat="45.81564553802302" lon="8.99219876876859"><ele>362.75</ele><time>2026-05-01T07:12:01Z</time></trkpt><trkpt lat="45.8156256637958" lon="8.992370026781234"><ele>364.0</ele><time>2026-05-01T07:12:02Z</time></trkpt><trkpt lat="45.815641958636085" lon="8.992551180627567"><ele>365.0</ele><time>2026-05-01T07:12:03Z</time></trkpt><trkpt lat="45.81567851940421" lon="8.992725721121197"><ele>366.0</ele><time>2026-05-01T07:12:04Z</time></trkpt><trkpt lat="45.81572107301195" lon="8.992891722378728"><ele>367.0</ele><time>2026-05-01T07:12:05Z</time></trkpt><trkpt lat="45.81575611957772" lon="8.993054786154383"><ele>368.0</ele><time>2026-05-01T07:12:06Z</time></trkpt><trkpt lat="45.81576818595437" lon="8.993163131793597"><ele>369.0</ele><time>2026-05-01T07:12:07Z</time></trkpt><trkpt lat="45.81574947292" lon="8.993307445550712"><ele>370.6666666666667</ele><time>2026-05-01T07:12:09Z</time></trkpt><trkpt lat="45.815662191382344" lon="8.993537400031794"><ele>372.33333333333337</ele><time>2026-05-01T07:12:10Z</time></trkpt><trkpt lat="45.815632194982584" lon="8.993767666820476"><ele>374.0</ele><time>2026-05-01T07:12:11Z</time></trkpt><trkpt lat="45.815578966421874" lon="8.993994025986154"><ele>373.75</ele><time>2026-05-01T07:12:12Z</time></trkpt><trkpt lat="45.8155033863805" lon="8.99422184933293"><ele>373.5</ele><time>2026-05-01T07:12:13Z</time></trkpt><trkpt lat="45.81544117823231" lon="8.99440876912556"><ele>373.25</ele><time>2026-05-01T07:12:14Z</time></trkpt><trkpt lat="45.81538837080668" lon="8.994543566055384"><ele>373.0</ele><time>2026-05-01T07:12:15Z</time></trkpt><trkpt lat="45.815318772790604" lon="8.994740032688371"><ele>373.0</ele><time>2026-05-01T07:12:16Z</time></trkpt><trkpt lat="45.81525206189584" lon="8.99491534252058"><ele>373.0</ele><time>2026-05-01T07:12:17Z</time></trkpt><trkpt lat="45.81520379794643" lon="8.995093259315292"><ele>373.0</ele><time>2026-05-01T07:12:18Z</time></trkpt><trkpt lat="45.815158545536015" lon="8.99525026539425"><ele>373.0</ele><time>2026-05-01T07:12:19Z</time></trkpt><trkpt lat="45.81511424928555" lon="8.99539002088437"><ele>372.79999999999995</ele><time>2026-05-01T07:12:20Z</time></trkpt><trkpt lat="45.81507386534876" lon="8.995518760616111"><ele>372.6</ele><time>2026-05-01T07:12:21Z</time></trkpt><trkpt lat="45.815034185772056" lon="8.99563437989697"><ele>372.4</ele><time>2026-05-01T07:12:22Z</time></trkpt><trkpt lat="45.814998379067525" lon="8.995753352483128"><ele>372.20000000000005</ele><time>2026-05-01T07:12:23Z</time></trkpt><trkpt lat="45.814986084032036" lon="8.995884709376543"><ele>372.0</ele><time>2026-05-01T07:12:24Z</time></trkpt><trkpt lat="45.81500951598361" lon="8.996033287475292"><ele>372.6</ele><time>2026-05-01T07:12:25Z</time></trkpt><trkpt lat="45.81504812830969" lon="8.99618922592749"><ele>373.20000000000005</ele><time>2026-05-01T07:12:26Z</time></trkpt><trkpt lat="45.81504897128039" lon="8.996332142600412"><ele>373.8</ele><time>2026-05-01T07:12:27Z</time></trkpt><trkpt lat="45.81498774524167" lon="8.996458439880051"><ele>374.4</ele><time>2026-05-01T07:12:28Z</time></trkpt><trkpt lat="45.81495382144224" lon="8.996618601417369"><ele>375.0</ele><time>2026-05-01T07:12:29Z</time></trkpt><trkpt lat="45.814897132252284" lon="8.996795150372586"><ele>375.75</ele><time>2026-05-01T07:12:30Z</time></trkpt><trkpt lat="45.814819887545745" lon="8.997008831116005"><ele>376.5</ele><time>2026-05-01T07:12:31Z</time></trkpt><trkpt lat="45.81477169408036" lon="8.997225862768683"><ele>377.25</ele><time>2026-05-01T07:12:32Z</time></trkpt><trkpt lat="45.81471678795727" lon="8.99734774048598"><ele>378.0</ele><time>2026-05-01T07:12:33Z</time></trkpt><trkpt lat="45.81465311831138" lon="8.997537248055043"><ele>379.0</ele><time>2026-05-01T07:12:34Z</time></trkpt><trkpt lat="45.81457440917962" lon="8.997723464699787"><ele>380.0</ele><time>2026-05-01T07:12:35Z</time></trkpt><trkpt lat="45.81447754821723" lon="8.997862761654577"><ele>381.0</ele><time>2026-05-01T07:12:36Z</time></trkpt><trkpt lat="45.8143551974796" lon="8.997942114143596"><ele>382.0</ele><time>2026-05-01T07:12:37Z</time></trkpt><trkpt lat="45.81421971730232" lon="8.998014977423136"><ele>382.0</ele><time>2026-05-01T07:12:38Z</time></trkpt><trkpt lat="45.81408048213748" lon="8.998071833350823"><ele>382.0</ele><time>2026-05-01T07:12:39Z</time></trkpt><trkpt lat="45.81395376839958" lon="8.99813063439704"><ele>382.0</ele><time>2026-05-01T07:12:40Z</time></trkpt><trkpt lat="45.81383462006893" lon="8.998164401951788"><ele>382.0</ele><time>2026-05-01T07:12:40.999Z</time></trkpt><trkpt lat="45.813709366489384" lon="8.998207010333394"><ele>382.0</ele><time>2026-05-01T07:12:41.999Z</time></trkpt><trkpt lat="45.8135839427495" lon="8.998272184296566"><ele>382.0</ele><time>2026-05-01T07:12:42.999Z</time></trkpt><trkpt lat="45.81345883640017" lon="8.998371762056996"><ele>382.0</ele><time>2026-05-01T07:12:43.999Z</time></trkpt><trkpt lat="45.8133362307758" lon="8.998519402556681"><ele>382.0</ele><time>2026-05-01T07:12:44.999Z</time></trkpt><trkpt lat="45.81322378534162" lon="8.998704382274358"><ele>384.66666666666663</ele><time>2026-05-01T07:12:45.999Z</time></trkpt><trkpt lat="45.813130636725134" lon="8.99891935495521"><ele>387.3333333333333</ele><time>2026-05-01T07:12:46.999Z</time></trkpt><trkpt lat="45.81304011503408" lon="8.999144144805054"><ele>390.0</ele><time>2026-05-01T07:12:47.999Z</time></trkpt><trkpt lat="45.81294318620484" lon="8.999365579337207"><ele>399.0</ele><time>2026-05-01T07:12:48.999Z</time></trkpt><trkpt lat="45.81284622386506" lon="8.999579057837803"><ele>408.0</ele><time>2026-05-01T07:12:49.999Z</time></trkpt><trkpt lat="45.812752678396116" lon="8.999778649875266"><ele>417.0</ele><time>2026-05-01T07:12:50.999Z</time></trkpt><trkpt lat="45.81266165932429" lon="8.999969836704297"><ele>404.3333333333333</ele><time>2026-05-01T07:12:51.999Z</time></trkpt><trkpt lat="45.81256500314858" lon="9.000151322668048"><ele>391.66666666666663</ele><time>2026-05-01T07:12:52.999Z</time></trkpt><trkpt lat="45.812470973369585" lon="9.000324625424668"><ele>379.0</ele><time>2026-05-01T07:12:53.999Z</time></trkpt><trkpt lat="45.81236659653121" lon="9.000515425798561"><ele>379.0</ele><time>2026-05-01T07:12:54.999Z</time></trkpt><trkpt lat="45.812263221482674" lon="9.000716733251604"><ele>379.0</ele><time>2026-05-01T07:12:55.999Z</time></trkpt><trkpt lat="45.81215515558893" lon="9.000939418018007"><ele>379.0</ele><time>2026-05-01T07:12:56.999Z</time></trkpt><trkpt lat="45.81203784263527" lon="9.001175350926323"><ele>379.5</ele><time>2026-05-01T07:12:57.999Z</time></trkpt><trkpt lat="45.811915782266844" lon="9.001431005701361"><ele>380.0</ele><time>2026-05-01T07:12:58.999Z</time></trkpt><trkpt lat="45.81178589850558" lon="9.001711506542488"><ele>380.0</ele><time>2026-05-01T07:12:59.999Z</time></trkpt><trkpt lat="45.811627873881314" lon="9.001993938854033"><ele>380.0</ele><time>2026-05-01T07:13:00.999Z</time></trkpt><trkpt lat="45.811479081565935" lon="9.002290559563466"><ele>385.0</ele><time>2026-05-01T07:13:01.999Z</time></trkpt><trkpt lat="45.81134522399426" lon="9.002568686082302"><ele>390.0</ele><time>2026-05-01T07:13:02.999Z</time></trkpt><trkpt lat="45.811202865139165" lon="9.002816290268582"><ele>390.0</ele><time>2026-05-01T07:13:03.999Z</time></trkpt><trkpt lat="45.811035782058354" lon="9.002991476332394"><ele>390.0</ele><time>2026-05-01T07:13:04.999Z</time></trkpt><trkpt lat="45.810855841891915" lon="9.003146658162741"><ele>390.0</ele><time>2026-05-01T07:13:05.999Z</time></trkpt><trkpt lat="45.810665614359145" lon="9.003264425876786"><ele>389.33333333333337</ele><time>2026-05-01T07:13:06.999Z</time></trkpt><trkpt lat="45.81046067201461" lon="9.003344710464654"><ele>388.6666666666667</ele><time>2026-05-01T07:13:07.999Z</time></trkpt><trkpt lat="45.81025729929065" lon="9.003380955362076"><ele>388.0</ele><time>2026-05-01T07:13:08.999Z</time></trkpt><trkpt lat="45.810074464858424" lon="9.003420726547704"><ele>388.0</ele><time>2026-05-01T07:13:09.999Z</time></trkpt><trkpt lat="45.8099192049352" lon="9.0034179463929"><ele>388.0</ele><time>2026-05-01T07:13:10.999Z</time></trkpt><trkpt lat="45.80979314700705" lon="9.003420482737846"><ele>388.0</ele><time>2026-05-01T07:13:11.999Z</time></trkpt><trkpt lat="45.809710302764614" lon="9.003426182823793"><ele>388.0</ele><time>2026-05-01T07:13:12.999Z</time></trkpt><trkpt lat="45.80961642460111" lon="9.003434422880163"><ele>388.00000000000006</ele><time>2026-05-01T07:13:14.999Z</time></trkpt><trkpt lat="45.809518572631944" lon="9.003430995237068"><ele>388.0</ele><time>2026-05-01T07:13:16.999Z</time></trkpt><trkpt lat="45.80945649365636" lon="9.003463193027189"><ele>388.0</ele><time>2026-05-01T07:13:17.999Z</time></trkpt><trkpt lat="45.80941396207686" lon="9.003535404227817"><ele>388.0</ele><time>2026-05-01T07:13:18.999Z</time></trkpt><trkpt lat="45.809403849733" lon="9.003643834533126"><ele>388.00000000000006</ele><time>2026-05-01T07:13:19.999Z</time></trkpt><trkpt lat="45.809413026754854" lon="9.003763354113442"><ele>388.0</ele><time>2026-05-01T07:13:20.999Z</time></trkpt><trkpt lat="45.809424406648866" lon="9.003909676199893"><ele>388.0</ele><time>2026-05-01T07:13:21.999Z</time></trkpt><trkpt lat="45.809441133176996" lon="9.00408903439809"><ele>388.0</ele><time>2026-05-01T07:13:22.999Z</time></trkpt><trkpt lat="45.809411859849554" lon="9.004193243478545"><ele>388.0</ele><time>2026-05-01T07:13:23.999Z</time></trkpt><trkpt lat="45.80939112119056" lon="9.004325301215063"><ele>388.0</ele><time>2026-05-01T07:13:24.999Z</time></trkpt><trkpt lat="45.80936050490451" lon="9.004477179012548"><ele>388.0</ele><time>2026-05-01T07:13:25.999Z</time></trkpt><trkpt lat="45.80933082330768" lon="9.004649217335086"><ele>389.0</ele><time>2026-05-01T07:13:26.999Z</time></trkpt><trkpt lat="45.809304061237675" lon="9.004824990472251"><ele>390.0</ele><time>2026-05-01T07:13:27.999Z</time></trkpt><trkpt lat="45.809271984292664" lon="9.005021406280083"><ele>391.0</ele><time>2026-05-01T07:13:28.999Z</time></trkpt><trkpt lat="45.80923613302437" lon="9.005212940426697"><ele>392.0</ele><time>2026-05-01T07:13:29.999Z</time></trkpt><trkpt lat="45.80919683368847" lon="9.00540941752083"><ele>392.0</ele><time>2026-05-01T07:13:30.999Z</time></trkpt><trkpt lat="45.80915975507837" lon="9.005594326531298"><ele>392.0</ele><time>2026-05-01T07:13:31.999Z</time></trkpt><trkpt lat="45.80912680474261" lon="9.005777350095038"><ele>392.0</ele><time>2026-05-01T07:13:32.999Z</time></trkpt><trkpt lat="45.80909649717261" lon="9.005966029635045"><ele>392.0</ele><time>2026-05-01T07:13:33.999Z</time></trkpt><trkpt lat="45.809069309141805" lon="9.006152271613798"><ele>392.75</ele><time>2026-05-01T07:13:34.999Z</time></trkpt><trkpt lat="45.809058413322546" lon="9.006334095054735"><ele>393.5</ele><time>2026-05-01T07:13:35.999Z</time></trkpt><trkpt lat="45.80906852975463" lon="9.006514473225156"><ele>394.25</ele><time>2026-05-01T07:13:36.999Z</time></trkpt><trkpt lat="45.80909114362545" lon="9.006698214110965"><ele>395.0</ele><time>2026-05-01T07:13:37.999Z</time></trkpt><trkpt lat="45.809123619755" lon="9.006869718405861"><ele>396.75</ele><time>2026-05-01T07:13:38.999Z</time></trkpt><trkpt lat="45.80917515361957" lon="9.007025734179239"><ele>398.5</ele><time>2026-05-01T07:13:39.999Z</time></trkpt><trkpt lat="45.80924854170216" lon="9.007155009477865"><ele>400.25</ele><time>2026-05-01T07:13:40.999Z</time></trkpt><trkpt lat="45.809325729775" lon="9.007284392581015"><ele>402.0</ele><time>2026-05-01T07:13:41.999Z</time></trkpt><trkpt lat="45.80941034940714" lon="9.007400372213963"><ele>403.20000000000005</ele><time>2026-05-01T07:13:42.999Z</time></trkpt><trkpt lat="45.809500220167585" lon="9.00750146441491"><ele>404.4</ele><time>2026-05-01T07:13:43.999Z</time></trkpt><trkpt lat="45.80958920539473" lon="9.007583689169694"><ele>405.6</ele><time>2026-05-01T07:13:44.998Z</time></trkpt><trkpt lat="45.80968348407779" lon="9.007660204754007"><ele>406.79999999999995</ele><time>2026-05-01T07:13:45.998Z</time></trkpt><trkpt lat="45.809773640879136" lon="9.007738776915987"><ele>408.0</ele><time>2026-05-01T07:13:46.998Z</time></trkpt><trkpt lat="45.80985481764507" lon="9.007824608745532"><ele>408.0</ele><time>2026-05-01T07:13:47.998Z</time></trkpt><trkpt lat="45.80992262350474" lon="9.0079172098321"><ele>408.0</ele><time>2026-05-01T07:13:48.998Z</time></trkpt><trkpt lat="45.80997943345617" lon="9.008007047486776"><ele>408.0</ele><time>2026-05-01T07:13:49.998Z</time></trkpt><trkpt lat="45.81003556704318" lon="9.008100728798038"><ele>408.0</ele><time>2026-05-01T07:13:50.998Z</time></trkpt><trkpt lat="45.8100968303523" lon="9.00822143999266"><ele>408.0</ele><time>2026-05-01T07:13:51.998Z</time></trkpt><trkpt lat="45.81015619216932" lon="9.00836226374069"><ele>409.4</ele><time>2026-05-01T07:13:52.998Z</time></trkpt><trkpt lat="45.81020194631278" lon="9.00851357585966"><ele>410.79999999999995</ele><time>2026-05-01T07:13:53.998Z</time></trkpt><trkpt lat="45.81024385802377" lon="9.00866040647585"><ele>412.2</ele><time>2026-05-01T07:13:54.998Z</time></trkpt><trkpt lat="45.810277497800705" lon="9.0088072451634"><ele>413.6</ele><time>2026-05-01T07:13:55.998Z</time></trkpt><trkpt lat="45.810296499164586" lon="9.008957342179"><ele>415.0</ele><time>2026-05-01T07:13:56.998Z</time></trkpt><trkpt lat="45.81030362693399" lon="9.009117941184108"><ele>415.0</ele><time>2026-05-01T07:13:57.998Z</time></trkpt><trkpt lat="45.81030475530499" lon="9.00929178081864"><ele>415.0</ele><time>2026-05-01T07:13:58.998Z</time></trkpt><trkpt lat="45.810300961875456" lon="9.009560727268319"><ele>415.0</ele><time>2026-05-01T07:14:00Z</time></trkpt><trkpt lat="45.81026482593129" lon="9.009853554042573"><ele>415.0</ele><time>2026-05-01T07:14:01Z</time></trkpt><trkpt lat="45.81025876689783" lon="9.010001016718407"><ele>415.0</ele><time>2026-05-01T07:14:03Z</time></trkpt><trkpt lat="45.81022672917064" lon="9.010182525563797"><ele>415.0</ele><time>2026-05-01T07:14:04Z</time></trkpt><trkpt lat="45.810193802267435" lon="9.010377808670302"><ele>415.0</ele><time>2026-05-01T07:14:05Z</time></trkpt><trkpt lat="45.81017025540506" lon="9.010584553439266"><ele>414.75</ele><time>2026-05-01T07:14:06Z</time></trkpt><trkpt lat="45.81015492803941" lon="9.010765077415734"><ele>414.5</ele><time>2026-05-01T07:14:07Z</time></trkpt><trkpt lat="45.810150907525916" lon="9.010944458287064"><ele>414.25</ele><time>2026-05-01T07:14:08Z</time></trkpt><trkpt lat="45.81016304725571" lon="9.011130723303626"><ele>414.0</ele><time>2026-05-01T07:14:09Z</time></trkpt><trkpt lat="45.81018734016642" lon="9.011316775708078"><ele>414.0</ele><time>2026-05-01T07:14:10Z</time></trkpt><trkpt lat="45.81022744390843" lon="9.011511853675925"><ele>414.0</ele><time>2026-05-01T07:14:11Z</time></trkpt><trkpt lat="45.810285862361326" lon="9.011707052219824"><ele>414.0</ele><time>2026-05-01T07:14:12Z</time></trkpt><trkpt lat="45.810359753161705" lon="9.011887433616312"><ele>414.0</ele><time>2026-05-01T07:14:13Z</time></trkpt><trkpt lat="45.810444559728076" lon="9.012055443132292"><ele>414.0</ele><time>2026-05-01T07:14:14Z</time></trkpt><trkpt lat="45.810542195210395" lon="9.012218113233866"><ele>414.0</ele><time>2026-05-01T07:14:15Z</time></trkpt><trkpt lat="45.81065375475463" lon="9.012369216358605"><ele>414.0</ele><time>2026-05-01T07:14:16Z</time></trkpt><trkpt lat="45.81076732925612" lon="9.01251222974492"><ele>414.5</ele><time>2026-05-01T07:14:17Z</time></trkpt><trkpt lat="45.8108666227827" lon="9.012653228784338"><ele>415.0</ele><time>2026-05-01T07:14:18Z</time></trkpt><trkpt lat="45.810968198551464" lon="9.012788684745875"><ele>415.5</ele><time>2026-05-01T07:14:19Z</time></trkpt><trkpt lat="45.81106772438055" lon="9.012907858507948"><ele>416.0</ele><time>2026-05-01T07:14:20Z</time></trkpt><trkpt lat="45.81114321188823" lon="9.013017280443094"><ele>416.8333333333333</ele><time>2026-05-01T07:14:21Z</time></trkpt><trkpt lat="45.81121237178079" lon="9.01312701071137"><ele>417.66666666666663</ele><time>2026-05-01T07:14:22Z</time></trkpt><trkpt lat="45.81125964289864" lon="9.013219425564857"><ele>418.5</ele><time>2026-05-01T07:14:23Z</time></trkpt><trkpt lat="45.8112852908584" lon="9.013354093679416"><ele>419.33333333333337</ele><time>2026-05-01T07:14:25Z</time></trkpt><trkpt lat="45.811303467877615" lon="9.013455041408868"><ele>420.1666666666667</ele><time>2026-05-01T07:14:27Z</time></trkpt><trkpt lat="45.811343790950616" lon="9.013535842536953"><ele>421.0</ele><time>2026-05-01T07:14:28Z</time></trkpt><trkpt lat="45.81138953265004" lon="9.013631812539515"><ele>421.0</ele><time>2026-05-01T07:14:29Z</time></trkpt><trkpt lat="45.81148155551402" lon="9.013676426826498"><ele>421.0</ele><time>2026-05-01T07:14:30Z</time></trkpt><trkpt lat="45.81156675989505" lon="9.013751185650698"><ele>421.0</ele><time>2026-05-01T07:14:31Z</time></trkpt><trkpt lat="45.81163497816636" lon="9.013829988959214"><ele>421.0</ele><time>2026-05-01T07:14:32Z</time></trkpt><trkpt lat="45.81169884276748" lon="9.013931522751891"><ele>421.0</ele><time>2026-05-01T07:14:33Z</time></trkpt><trkpt lat="45.81174486548117" lon="9.014050562892844"><ele>421.0</ele><time>2026-05-01T07:14:34Z</time></trkpt><trkpt lat="45.81178279595902" lon="9.014192432984878"><ele>421.0</ele><time>2026-05-01T07:14:35Z</time></trkpt><trkpt lat="45.81181789428829" lon="9.01436243842384"><ele>421.0</ele><time>2026-05-01T07:14:36Z</time></trkpt><trkpt lat="45.81184752545178" lon="9.014559392743799"><ele>421.0</ele><time>2026-05-01T07:14:37Z</time></trkpt><trkpt lat="45.81186956975853" lon="9.014745806012264"><ele>422.5</ele><time>2026-05-01T07:14:38Z</time></trkpt><trkpt lat="45.81189693648974" lon="9.01494515191796"><ele>424.0</ele><time>2026-05-01T07:14:39Z</time></trkpt><trkpt lat="45.811926248771584" lon="9.0151448001157"><ele>425.5</ele><time>2026-05-01T07:14:40Z</time></trkpt><trkpt lat="45.81195477375126" lon="9.015345981558342"><ele>427.0</ele><time>2026-05-01T07:14:41Z</time></trkpt><trkpt lat="45.81198298180735" lon="9.01555026750447"><ele>427.0</ele><time>2026-05-01T07:14:42Z</time></trkpt><trkpt lat="45.81200889986258" lon="9.015743374691056"><ele>427.0</ele><time>2026-05-01T07:14:43Z</time></trkpt><trkpt lat="45.81203500261649" lon="9.015944111597204"><ele>427.0</ele><time>2026-05-01T07:14:44Z</time></trkpt><trkpt lat="45.81203517169305" lon="9.016138456169541"><ele>427.0</ele><time>2026-05-01T07:14:45Z</time></trkpt><trkpt lat="45.81204794232469" lon="9.016334943930634"><ele>426.75</ele><time>2026-05-01T07:14:46Z</time></trkpt><trkpt lat="45.812072496145724" lon="9.01653112376967"><ele>426.5</ele><time>2026-05-01T07:14:47Z</time></trkpt><trkpt lat="45.812081673497815" lon="9.016721794717887"><ele>426.25</ele><time>2026-05-01T07:14:47.999Z</time></trkpt><trkpt lat="45.81209086683024" lon="9.016903584869132"><ele>426.0</ele><time>2026-05-01T07:14:48.999Z</time></trkpt><trkpt lat="45.81210098309329" lon="9.017076801923782"><ele>426.0</ele><time>2026-05-01T07:14:49.999Z</time></trkpt><trkpt lat="45.81210646584638" lon="9.017234617258785"><ele>426.0</ele><time>2026-05-01T07:14:50.999Z</time></trkpt><trkpt lat="45.81211479199954" lon="9.017390131779784"><ele>426.0</ele><time>2026-05-01T07:14:51.999Z</time></trkpt><trkpt lat="45.81212305922257" lon="9.017541176759153"><ele>426.0</ele><time>2026-05-01T07:14:52.999Z</time></trkpt><trkpt lat="45.812131598793755" lon="9.017678360610551"><ele>426.0</ele><time>2026-05-01T07:14:53.999Z</time></trkpt><trkpt lat="45.81214146706203" lon="9.017802602997518"><ele>426.0</ele><time>2026-05-01T07:14:54.999Z</time></trkpt><trkpt lat="45.8121438752612" lon="9.01789889363295"><ele>426.0</ele><time>2026-05-01T07:14:55.999Z</time></trkpt><trkpt lat="45.81215521879876" lon="9.018168655656249"><ele>426.0</ele><time>2026-05-01T07:14:58.999Z</time></trkpt><trkpt lat="45.81217523950127" lon="9.018281936618594"><ele>426.0</ele><time>2026-05-01T07:14:59.999Z</time></trkpt><trkpt lat="45.81220367562646" lon="9.01840451204782"><ele>426.0</ele><time>2026-05-01T07:15:00.999Z</time></trkpt><trkpt lat="45.81221469059349" lon="9.018549763219326"><ele>426.4</ele><time>2026-05-01T07:15:01.999Z</time></trkpt><trkpt lat="45.81220985073993" lon="9.018709427275304"><ele>426.8</ele><time>2026-05-01T07:15:02.999Z</time></trkpt><trkpt lat="45.8122005356693" lon="9.018886956560523"><ele>427.19999999999993</ele><time>2026-05-01T07:15:03.999Z</time></trkpt><trkpt lat="45.81220544082361" lon="9.019046491525518"><ele>427.59999999999997</ele><time>2026-05-01T07:15:04.999Z</time></trkpt><trkpt lat="45.81221330950193" lon="9.019172857836999"><ele>428.0</ele><time>2026-05-01T07:15:05.999Z</time></trkpt><trkpt lat="45.81222763738857" lon="9.019405528034271"><ele>429.0</ele><time>2026-05-01T07:15:06.999Z</time></trkpt><trkpt lat="45.8122444067091" lon="9.019686022341997"><ele>430.0</ele><time>2026-05-01T07:15:07.999Z</time></trkpt><trkpt lat="45.81227455706318" lon="9.01991180846656"><ele>431.0</ele><time>2026-05-01T07:15:08.999Z</time></trkpt><trkpt lat="45.812270742978605" lon="9.020126818189622"><ele>432.3333333333333</ele><time>2026-05-01T07:15:09.999Z</time></trkpt><trkpt lat="45.81228546507506" lon="9.020373809157046"><ele>433.66666666666663</ele><time>2026-05-01T07:15:10.999Z</time></trkpt><trkpt lat="45.81230049161325" lon="9.020633852560549"><ele>435.0</ele><time>2026-05-01T07:15:11.999Z</time></trkpt><trkpt lat="45.81231536341432" lon="9.020886107204758"><ele>435.66666666666663</ele><time>2026-05-01T07:15:12.999Z</time></trkpt><trkpt lat="45.81234553726721" lon="9.021130392214763"><ele>436.3333333333333</ele><time>2026-05-01T07:15:13.999Z</time></trkpt><trkpt lat="45.81235889022443" lon="9.021352171893405"><ele>437.0</ele><time>2026-05-01T07:15:14.999Z</time></trkpt><trkpt lat="45.81235809391809" lon="9.021550228787616"><ele>438.0</ele><time>2026-05-01T07:15:15.999Z</time></trkpt><trkpt lat="45.81239272554368" lon="9.021770740618653"><ele>439.0</ele><time>2026-05-01T07:15:16.999Z</time></trkpt><trkpt lat="45.812444248492156" lon="9.021986655076828"><ele>440.0</ele><time>2026-05-01T07:15:17.999Z</time></trkpt><trkpt lat="45.8125066143606" lon="9.02219219072987"><ele>440.0</ele><time>2026-05-01T07:15:18.999Z</time></trkpt><trkpt lat="45.81257315655342" lon="9.022426452791823"><ele>440.0</ele><time>2026-05-01T07:15:19.999Z</time></trkpt><trkpt lat="45.812643709975696" lon="9.022674835712733"><ele>440.0</ele><time>2026-05-01T07:15:20.999Z</time></trkpt><trkpt lat="45.81272420327605" lon="9.022958212521077"><ele>443.66666666666663</ele><time>2026-05-01T07:15:21.999Z</time></trkpt><trkpt lat="45.812781250070906" lon="9.023157968989562"><ele>447.33333333333337</ele><time>2026-05-01T07:15:22.999Z</time></trkpt><trkpt lat="45.81284687062681" lon="9.023387662441108"><ele>451.0</ele><time>2026-05-01T07:15:23.999Z</time></trkpt><trkpt lat="45.81292227654903" lon="9.023594775526592"><ele>451.0</ele><time>2026-05-01T07:15:24.999Z</time></trkpt><trkpt lat="45.81298200630817" lon="9.023796492455663"><ele>451.0</ele><time>2026-05-01T07:15:25.999Z</time></trkpt><trkpt lat="45.813058059382556" lon="9.023965588972027"><ele>451.0</ele><time>2026-05-01T07:15:26.999Z</time></trkpt><trkpt lat="45.813097712780795" lon="9.024068742722067"><ele>451.0</ele><time>2026-05-01T07:15:27.999Z</time></trkpt><trkpt lat="45.813270487194686" lon="9.024290817583454"><ele>451.0</ele><time>2026-05-01T07:15:28.999Z</time></trkpt><trkpt lat="45.81341458512603" lon="9.024396755868326"><ele>451.0</ele><time>2026-05-01T07:15:29.999Z</time></trkpt><trkpt lat="45.8135588982385" lon="9.024492789971138"><ele>451.0</ele><time>2026-05-01T07:15:30.999Z</time></trkpt><trkpt lat="45.813693241400706" lon="9.024595254202199"><ele>451.0</ele><time>2026-05-01T07:15:31.999Z</time></trkpt><trkpt lat="45.81382166131102" lon="9.024707745831357"><ele>451.0</ele><time>2026-05-01T07:15:32.999Z</time></trkpt><trkpt lat="45.81394258366067" lon="9.024813786873331"><ele>451.0</ele><time>2026-05-01T07:15:33.999Z</time></trkpt><trkpt lat="45.81406236341419" lon="9.024917892512278"><ele>451.0</ele><time>2026-05-01T07:15:34.999Z</time></trkpt><trkpt lat="45.81416507181817" lon="9.02504733093168"><ele>450.75</ele><time>2026-05-01T07:15:35.999Z</time></trkpt><trkpt lat="45.81421671681929" lon="9.025235603699157"><ele>450.5</ele><time>2026-05-01T07:15:36.999Z</time></trkpt><trkpt lat="45.81427994364342" lon="9.02542319318611"><ele>450.25</ele><time>2026-05-01T07:15:37.999Z</time></trkpt><trkpt lat="45.814360754967204" lon="9.025615062091838"><ele>450.0</ele><time>2026-05-01T07:15:38.999Z</time></trkpt><trkpt lat="45.81442087388742" lon="9.025794426354397"><ele>446.75</ele><time>2026-05-01T07:15:39.999Z</time></trkpt><trkpt lat="45.81448017156262" lon="9.025975390231604"><ele>443.5</ele><time>2026-05-01T07:15:40.999Z</time></trkpt><trkpt lat="45.814542587014685" lon="9.026135273676045"><ele>440.25</ele><time>2026-05-01T07:15:41.999Z</time></trkpt><trkpt lat="45.81462881229317" lon="9.02626598643702"><ele>437.0</ele><time>2026-05-01T07:15:42.999Z</time></trkpt><trkpt lat="45.814711190479706" lon="9.026395976526283"><ele>437.0</ele><time>2026-05-01T07:15:43.999Z</time></trkpt><trkpt lat="45.81478333457273" lon="9.026531098640648"><ele>437.0</ele><time>2026-05-01T07:15:44.999Z</time></trkpt><trkpt lat="45.81484024796635" lon="9.026676699775265"><ele>437.0</ele><time>2026-05-01T07:15:45.999Z</time></trkpt><trkpt lat="45.814852287429694" lon="9.02684192941493"><ele>437.0</ele><time>2026-05-01T07:15:46.999Z</time></trkpt><trkpt lat="45.814848888319005" lon="9.026996532794174"><ele>435.5</ele><time>2026-05-01T07:15:47.999Z</time></trkpt><trkpt lat="45.8148213927477" lon="9.02714176919239"><ele>434.0</ele><time>2026-05-01T07:15:48.999Z</time></trkpt><trkpt lat="45.814787329476005" lon="9.027283205223068"><ele>432.5</ele><time>2026-05-01T07:15:49.999Z</time></trkpt><trkpt lat="45.814755328828326" lon="9.027458428859672"><ele>431.0</ele><time>2026-05-01T07:15:50.998Z</time></trkpt><trkpt lat="45.81469995666334" lon="9.027649879075964"><ele>430.5</ele><time>2026-05-01T07:15:51.998Z</time></trkpt><trkpt lat="45.81466481499446" lon="9.027810801865167"><ele>430.0</ele><time>2026-05-01T07:15:52.998Z</time></trkpt><trkpt lat="45.81462828446971" lon="9.027967079642881"><ele>429.5</ele><time>2026-05-01T07:15:53.998Z</time></trkpt><trkpt lat="45.814590715394715" lon="9.028117071056762"><ele>429.0</ele><time>2026-05-01T07:15:54.998Z</time></trkpt><trkpt lat="45.814552968056645" lon="9.028266271442387"><ele>429.0</ele><time>2026-05-01T07:15:55.998Z</time></trkpt><trkpt lat="45.814515860597645" lon="9.02841840163431"><ele>429.0</ele><time>2026-05-01T07:15:56.998Z</time></trkpt><trkpt lat="45.81448052825228" lon="9.028572136933322"><ele>429.0</ele><time>2026-05-01T07:15:57.998Z</time></trkpt><trkpt lat="45.814448569457056" lon="9.028734043867654"><ele>429.0</ele><time>2026-05-01T07:15:58.998Z</time></trkpt><trkpt lat="45.81443291097649" lon="9.028905348017027"><ele>429.0</ele><time>2026-05-01T07:15:59.998Z</time></trkpt><trkpt lat="45.8144326704111" lon="9.0290815891115"><ele>429.0</ele><time>2026-05-01T07:16:00.998Z</time></trkpt><trkpt lat="45.814458403674315" lon="9.029250667711343"><ele>429.0</ele><time>2026-05-01T07:16:01.998Z</time></trkpt><trkpt lat="45.81449339129504" lon="9.029417550817923"><ele>429.0</ele><time>2026-05-01T07:16:02.998Z</time></trkpt><trkpt lat="45.81454299226654" lon="9.029575801625198"><ele>428.5</ele><time>2026-05-01T07:16:03.998Z</time></trkpt><trkpt lat="45.81460405388799" lon="9.029731769051427"><ele>428.0</ele><time>2026-05-01T07:16:04.998Z</time></trkpt><trkpt lat="45.81466397401863" lon="9.029888585092372"><ele>427.5</ele><time>2026-05-01T07:16:06Z</time></trkpt><trkpt lat="45.81471001361562" lon="9.030051632419383"><ele>427.0</ele><time>2026-05-01T07:16:07Z</time></trkpt><trkpt lat="45.81476607651718" lon="9.030215975945563"><ele>425.0</ele><time>2026-05-01T07:16:08Z</time></trkpt><trkpt lat="45.81481530713317" lon="9.030368534359287"><ele>423.0</ele><time>2026-05-01T07:16:09Z</time></trkpt><trkpt lat="45.81486402397436" lon="9.03051547186829"><ele>421.0</ele><time>2026-05-01T07:16:10Z</time></trkpt><trkpt lat="45.81491250781103" lon="9.030664835236704"><ele>419.0</ele><time>2026-05-01T07:16:11Z</time></trkpt><trkpt lat="45.81495955874301" lon="9.030804316579093"><ele>417.6</ele><time>2026-05-01T07:16:12Z</time></trkpt><trkpt lat="45.815002108048176" lon="9.03094297923341"><ele>416.2</ele><time>2026-05-01T07:16:13Z</time></trkpt><trkpt lat="45.81503141594792" lon="9.031082518399497"><ele>414.8</ele><time>2026-05-01T07:16:14Z</time></trkpt><trkpt lat="45.81505356429361" lon="9.031219504776752"><ele>413.40000000000003</ele><time>2026-05-01T07:16:15Z</time></trkpt><trkpt lat="45.81505518902822" lon="9.031356287526231"><ele>412.0</ele><time>2026-05-01T07:16:16Z</time></trkpt><trkpt lat="45.815033507375475" lon="9.031487992305605"><ele>412.00000000000006</ele><time>2026-05-01T07:16:17Z</time></trkpt><trkpt lat="45.81499057859712" lon="9.031598046755988"><ele>412.0</ele><time>2026-05-01T07:16:18Z</time></trkpt><trkpt lat="45.814951568344576" lon="9.03169771084105"><ele>412.0</ele><time>2026-05-01T07:16:19Z</time></trkpt><trkpt lat="45.81490098011515" lon="9.031784699247325"><ele>412.0</ele><time>2026-05-01T07:16:20Z</time></trkpt><trkpt lat="45.81484436109882" lon="9.031847342265575"><ele>412.00000000000006</ele><time>2026-05-01T07:16:21Z</time></trkpt><trkpt lat="45.814730064770814" lon="9.031909192729175"><ele>412.0</ele><time>2026-05-01T07:16:23Z</time></trkpt><trkpt lat="45.81462682709637" lon="9.031904142432097"><ele>411.40000000000003</ele><time>2026-05-01T07:16:25Z</time></trkpt><trkpt lat="45.81452475509868" lon="9.03185041474614"><ele>410.8</ele><time>2026-05-01T07:16:27Z</time></trkpt><trkpt lat="45.81441659085423" lon="9.0318547757659"><ele>410.2</ele><time>2026-05-01T07:16:29Z</time></trkpt><trkpt lat="45.81434183377648" lon="9.03199756045179"><ele>409.6</ele><time>2026-05-01T07:16:31Z</time></trkpt><trkpt lat="45.81432543844851" lon="9.032106278174473"><ele>409.0</ele><time>2026-05-01T07:16:32Z</time></trkpt><trkpt lat="45.81430295448406" lon="9.032233784552988"><ele>407.5</ele><time>2026-05-01T07:16:33Z</time></trkpt><trkpt lat="45.81426877385969" lon="9.03236752744685"><ele>406.0</ele><time>2026-05-01T07:16:34Z</time></trkpt><trkpt lat="45.81422661885465" lon="9.03250794810292"><ele>404.5</ele><time>2026-05-01T07:16:35Z</time></trkpt><trkpt lat="45.81413339970234" lon="9.032794701084406"><ele>403.0</ele><time>2026-05-01T07:16:37Z</time></trkpt><trkpt lat="45.81405255052464" lon="9.032934781653587"><ele>403.0</ele><time>2026-05-01T07:16:38Z</time></trkpt><trkpt lat="45.81399310823168" lon="9.033091640908324"><ele>403.0</ele><time>2026-05-01T07:16:39Z</time></trkpt><trkpt lat="45.81391769609312" lon="9.033241404633904"><ele>403.0</ele><time>2026-05-01T07:16:40Z</time></trkpt><trkpt lat="45.81384491041524" lon="9.033397571340174"><ele>403.0</ele><time>2026-05-01T07:16:41Z</time></trkpt><trkpt lat="45.81377117023377" lon="9.033560683945819"><ele>403.0</ele><time>2026-05-01T07:16:42Z</time></trkpt><trkpt lat="45.813688297297894" lon="9.033724312182033"><ele>403.0</ele><time>2026-05-01T07:16:43Z</time></trkpt><trkpt lat="45.81360363708055" lon="9.033882817083263"><ele>403.0</ele><time>2026-05-01T07:16:44Z</time></trkpt><trkpt lat="45.81351223523788" lon="9.03404990460639"><ele>403.0</ele><time>2026-05-01T07:16:45Z</time></trkpt><trkpt lat="45.81342015193216" lon="9.034202443010656"><ele>401.0</ele><time>2026-05-01T07:16:46Z</time></trkpt><trkpt lat="45.81333478363094" lon="9.034361388519303"><ele>399.0</ele><time>2026-05-01T07:16:47Z</time></trkpt><trkpt lat="45.81325071466753" lon="9.034532447003457"><ele>397.0</ele><time>2026-05-01T07:16:48Z</time></trkpt><trkpt lat="45.813169911432894" lon="9.03469401995858"><ele>395.0</ele><time>2026-05-01T07:16:49Z</time></trkpt><trkpt lat="45.81308932046032" lon="9.034873598223923"><ele>395.5</ele><time>2026-05-01T07:16:49.999Z</time></trkpt><trkpt lat="45.81301172623198" lon="9.035040862738414"><ele>396.0</ele><time>2026-05-01T07:16:50.999Z</time></trkpt><trkpt lat="45.81293066126866" lon="9.035214818377614"><ele>396.5</ele><time>2026-05-01T07:16:51.999Z</time></trkpt><trkpt lat="45.81284801776066" lon="9.03538694906034"><ele>397.0</ele><time>2026-05-01T07:16:52.999Z</time></trkpt><trkpt lat="45.812772338346285" lon="9.03553927847947"><ele>397.0</ele><time>2026-05-01T07:16:53.999Z</time></trkpt><trkpt lat="45.81269839891644" lon="9.035688420813752"><ele>397.0</ele><time>2026-05-01T07:16:54.999Z</time></trkpt><trkpt lat="45.81262225959156" lon="9.03583652151953"><ele>397.0</ele><time>2026-05-01T07:16:55.999Z</time></trkpt><trkpt lat="45.812544732532224" lon="9.035979764179077"><ele>397.0</ele><time>2026-05-01T07:16:56.999Z</time></trkpt><trkpt lat="45.81247036334038" lon="9.036124253302864"><ele>396.0</ele><time>2026-05-01T07:16:57.999Z</time></trkpt><trkpt lat="45.81239210006583" lon="9.036266557228183"><ele>395.0</ele><time>2026-05-01T07:16:58.999Z</time></trkpt><trkpt lat="45.81230168411528" lon="9.03639927299411"><ele>394.0</ele><time>2026-05-01T07:16:59.999Z</time></trkpt><trkpt lat="45.81220325041332" lon="9.036516717971008"><ele>393.0</ele><time>2026-05-01T07:17:00.999Z</time></trkpt><trkpt lat="45.81210168848381" lon="9.036623891225116"><ele>393.0</ele><time>2026-05-01T07:17:01.999Z</time></trkpt><trkpt lat="45.812003141822444" lon="9.036735970581399"><ele>393.0</ele><time>2026-05-01T07:17:02.999Z</time></trkpt><trkpt lat="45.81190748906782" lon="9.036856537551527"><ele>393.0</ele><time>2026-05-01T07:17:03.999Z</time></trkpt><trkpt lat="45.81181827039158" lon="9.036985679791128"><ele>393.0</ele><time>2026-05-01T07:17:04.999Z</time></trkpt><trkpt lat="45.811731424708974" lon="9.037122997983651"><ele>393.0</ele><time>2026-05-01T07:17:05.999Z</time></trkpt><trkpt lat="45.81164202124683" lon="9.037265732624306"><ele>393.0</ele><time>2026-05-01T07:17:06.999Z</time></trkpt><trkpt lat="45.81155483147384" lon="9.037417188522403"><ele>393.0</ele><time>2026-05-01T07:17:07.999Z</time></trkpt><trkpt lat="45.81146663717582" lon="9.037564391186596"><ele>393.0</ele><time>2026-05-01T07:17:08.999Z</time></trkpt><trkpt lat="45.81137540574248" lon="9.037738302725828"><ele>395.66666666666663</ele><time>2026-05-01T07:17:09.999Z</time></trkpt><trkpt lat="45.81126313585747" lon="9.037926759996607"><ele>398.3333333333333</ele><time>2026-05-01T07:17:10.999Z</time></trkpt><trkpt lat="45.811134316583924" lon="9.03818630913151"><ele>401.0</ele><time>2026-05-01T07:17:11.999Z</time></trkpt><trkpt lat="45.81103899079469" lon="9.03840223951031"><ele>398.25</ele><time>2026-05-01T07:17:12.999Z</time></trkpt><trkpt lat="45.81095747360824" lon="9.038558872488567"><ele>395.5</ele><time>2026-05-01T07:17:13.999Z</time></trkpt><trkpt lat="45.81085912269282" lon="9.038741203807946"><ele>392.75</ele><time>2026-05-01T07:17:14.999Z</time></trkpt><trkpt lat="45.81077720733083" lon="9.038915587900252"><ele>390.0</ele><time>2026-05-01T07:17:15.999Z</time></trkpt><trkpt lat="45.81072036680881" lon="9.039078688811868"><ele>391.0</ele><time>2026-05-01T07:17:16.999Z</time></trkpt><trkpt lat="45.810664874024866" lon="9.039274515730355"><ele>392.0</ele><time>2026-05-01T07:17:17.999Z</time></trkpt><trkpt lat="45.810666468636256" lon="9.039471158006569"><ele>393.0</ele><time>2026-05-01T07:17:18.999Z</time></trkpt><trkpt lat="45.81070887902545" lon="9.039660862059662"><ele>394.0</ele><time>2026-05-01T07:17:19.999Z</time></trkpt><trkpt lat="45.810775513362685" lon="9.039866306242969"><ele>395.0</ele><time>2026-05-01T07:17:20.999Z</time></trkpt><trkpt lat="45.81084856848998" lon="9.040066687992654"><ele>396.0</ele><time>2026-05-01T07:17:21.999Z</time></trkpt><trkpt lat="45.81091362285533" lon="9.040244704896905"><ele>397.0</ele><time>2026-05-01T07:17:22.999Z</time></trkpt><trkpt lat="45.81095763569896" lon="9.04042706232733"><ele>398.0</ele><time>2026-05-01T07:17:23.999Z</time></trkpt><trkpt lat="45.810952580687264" lon="9.040630280007703"><ele>398.0</ele><time>2026-05-01T07:17:24.999Z</time></trkpt><trkpt lat="45.81088718784865" lon="9.040828208885463"><ele>398.0</ele><time>2026-05-01T07:17:25.999Z</time></trkpt><trkpt lat="45.81083198959655" lon="9.041037929781405"><ele>398.0</ele><time>2026-05-01T07:17:26.999Z</time></trkpt><trkpt lat="45.81074596478724" lon="9.041242968081727"><ele>398.0</ele><time>2026-05-01T07:17:27.999Z</time></trkpt><trkpt lat="45.810672222253416" lon="9.041453808800421"><ele>398.0</ele><time>2026-05-01T07:17:28.999Z</time></trkpt><trkpt lat="45.8106071927377" lon="9.041665789123671"><ele>398.0</ele><time>2026-05-01T07:17:29.999Z</time></trkpt><trkpt lat="45.810552918033835" lon="9.041840482145181"><ele>399.5</ele><time>2026-05-01T07:17:30.999Z</time></trkpt><trkpt lat="45.8105264572868" lon="9.041985244958664"><ele>401.0</ele><time>2026-05-01T07:17:31.999Z</time></trkpt><trkpt lat="45.81049036293746" lon="9.042178635070147"><ele>402.5</ele><time>2026-05-01T07:17:32.999Z</time></trkpt><trkpt lat="45.81050740071876" lon="9.042349480628157"><ele>404.0</ele><time>2026-05-01T07:17:33.999Z</time></trkpt><trkpt lat="45.810577579406385" lon="9.04251006009039"><ele>404.0</ele><time>2026-05-01T07:17:34.999Z</time></trkpt><trkpt lat="45.810671572316274" lon="9.042655973103825"><ele>404.0</ele><time>2026-05-01T07:17:35.999Z</time></trkpt><trkpt lat="45.810785298087794" lon="9.042807126304448"><ele>404.0</ele><time>2026-05-01T07:17:36.999Z</time></trkpt><trkpt lat="45.810884335906465" lon="9.042979850772989"><ele>404.0</ele><time>2026-05-01T07:17:37.999Z</time></trkpt><trkpt lat="45.81098389149396" lon="9.043120036286608"><ele>403.75</ele><time>2026-05-01T07:17:38.999Z</time></trkpt><trkpt lat="45.81104672290104" lon="9.043281672099193"><ele>403.5</ele><time>2026-05-01T07:17:39.999Z</time></trkpt><trkpt lat="45.8110678616287" lon="9.04346067400215"><ele>403.25</ele><time>2026-05-01T07:17:40.999Z</time></trkpt><trkpt lat="45.81106388604764" lon="9.04365124491611"><ele>403.0</ele><time>2026-05-01T07:17:41.999Z</time></trkpt><trkpt lat="45.81105196378278" lon="9.043843514973826"><ele>403.0</ele><time>2026-05-01T07:17:42.999Z</time></trkpt><trkpt lat="45.81104183534087" lon="9.044036489496028"><ele>403.0</ele><time>2026-05-01T07:17:43.999Z</time></trkpt><trkpt lat="45.8110322615006" lon="9.04422341215264"><ele>403.0</ele><time>2026-05-01T07:17:44.999Z</time></trkpt><trkpt lat="45.81101032890474" lon="9.044405492243781"><ele>403.0</ele><time>2026-05-01T07:17:45.999Z</time></trkpt><trkpt lat="45.81097017222893" lon="9.044583168450355"><ele>402.0</ele><time>2026-05-01T07:17:46.999Z</time></trkpt><trkpt lat="45.81090362429907" lon="9.04475401223561"><ele>401.0</ele><time>2026-05-01T07:17:47.999Z</time></trkpt><trkpt lat="45.81081943626267" lon="9.044914804138157"><ele>400.0</ele><time>2026-05-01T07:17:48.999Z</time></trkpt><trkpt lat="45.810732801670135" lon="9.045068064614563"><ele>399.0</ele><time>2026-05-01T07:17:49.999Z</time></trkpt><trkpt lat="45.810652545084224" lon="9.045220712203642"><ele>397.75</ele><time>2026-05-01T07:17:50.999Z</time></trkpt><trkpt lat="45.81057929712066" lon="9.04536960186948"><ele>396.5</ele><time>2026-05-01T07:17:51.999Z</time></trkpt><trkpt lat="45.81051029356933" lon="9.045511019888234"><ele>395.25</ele><time>2026-05-01T07:17:52.998Z</time></trkpt><trkpt lat="45.81044216133847" lon="9.045649709968128"><ele>394.0</ele><time>2026-05-01T07:17:53.998Z</time></trkpt><trkpt lat="45.81037012256502" lon="9.045782171592446"><ele>394.25</ele><time>2026-05-01T07:17:54.998Z</time></trkpt><trkpt lat="45.8103000624519" lon="9.045918645840946"><ele>394.5</ele><time>2026-05-01T07:17:55.998Z</time></trkpt><trkpt lat="45.81023010170705" lon="9.046056933311997"><ele>394.75</ele><time>2026-05-01T07:17:56.998Z</time></trkpt><trkpt lat="45.8101594522616" lon="9.046192094935655"><ele>395.0</ele><time>2026-05-01T07:17:57.998Z</time></trkpt><trkpt lat="45.81008892491388" lon="9.046325504552513"><ele>394.8</ele><time>2026-05-01T07:17:58.998Z</time></trkpt><trkpt lat="45.81001860255916" lon="9.046448487167094"><ele>394.6</ele><time>2026-05-01T07:17:59.998Z</time></trkpt><trkpt lat="45.80995475652703" lon="9.046563727169946"><ele>394.4</ele><time>2026-05-01T07:18:00.998Z</time></trkpt><trkpt lat="45.80988794013508" lon="9.046657963665991"><ele>394.2</ele><time>2026-05-01T07:18:01.998Z</time></trkpt><trkpt lat="45.80981477305792" lon="9.046724452601625"><ele>394.0</ele><time>2026-05-01T07:18:02.998Z</time></trkpt><trkpt lat="45.809740479742814" lon="9.046776084711329"><ele>394.0</ele><time>2026-05-01T07:18:03.998Z</time></trkpt><trkpt lat="45.809674997502164" lon="9.046819978663276"><ele>394.0</ele><time>2026-05-01T07:18:04.998Z</time></trkpt><trkpt lat="45.80963450731908" lon="9.04690663823264"><ele>394.0</ele><time>2026-05-01T07:18:05.998Z</time></trkpt><trkpt lat="45.80962088329193" lon="9.047032777294024"><ele>394.0</ele><time>2026-05-01T07:18:06.998Z</time></trkpt><trkpt lat="45.809597358687064" lon="9.047168109047963"><ele>394.0</ele><time>2026-05-01T07:18:07.998Z</time></trkpt><trkpt lat="45.80945473288522" lon="9.04741714199071"><ele>394.4</ele><time>2026-05-01T07:18:09.998Z</time></trkpt><trkpt lat="45.8093775399369" lon="9.047537076095868"><ele>394.79999999999995</ele><time>2026-05-01T07:18:10.998Z</time></trkpt><trkpt lat="45.809308846370556" lon="9.047647054166468"><ele>395.20000000000005</ele><time>2026-05-01T07:18:12Z</time></trkpt><trkpt lat="45.80923877624495" lon="9.047762613172752"><ele>395.6</ele><time>2026-05-01T07:18:13Z</time></trkpt><trkpt lat="45.80916225078723" lon="9.047878979168088"><ele>396.0</ele><time>2026-05-01T07:18:14Z</time></trkpt><trkpt lat="45.80909158356241" lon="9.04800222773488"><ele>396.0</ele><time>2026-05-01T07:18:15Z</time></trkpt><trkpt lat="45.809035086876804" lon="9.048098117256957"><ele>396.0</ele><time>2026-05-01T07:18:16Z</time></trkpt><trkpt lat="45.80896313773286" lon="9.048220345195448"><ele>396.0</ele><time>2026-05-01T07:18:17Z</time></trkpt><trkpt lat="45.808895147295615" lon="9.048330383398431"><ele>396.0</ele><time>2026-05-01T07:18:18Z</time></trkpt><trkpt lat="45.808841679245404" lon="9.04842332835857"><ele>396.0</ele><time>2026-05-01T07:18:19Z</time></trkpt><trkpt lat="45.80878859333143" lon="9.048509010504983"><ele>396.3333333333333</ele><time>2026-05-01T07:18:20Z</time></trkpt><trkpt lat="45.80874031788605" lon="9.048591086224185"><ele>396.66666666666663</ele><time>2026-05-01T07:18:21Z</time></trkpt><trkpt lat="45.808691073945454" lon="9.048659525850796"><ele>397.0</ele><time>2026-05-01T07:18:22Z</time></trkpt><trkpt lat="45.80864624990739" lon="9.048723184323283"><ele>397.3333333333333</ele><time>2026-05-01T07:18:23Z</time></trkpt><trkpt lat="45.80856493587449" lon="9.048829098699"><ele>397.66666666666663</ele><time>2026-05-01T07:18:25Z</time></trkpt><trkpt lat="45.80846798721202" lon="9.048912383489826"><ele>398.0</ele><time>2026-05-01T07:18:27Z</time></trkpt><trkpt lat="45.80834635445495" lon="9.048955916410888"><ele>397.99999999999994</ele><time>2026-05-01T07:18:29Z</time></trkpt><trkpt lat="45.808220930832796" lon="9.048982771613453"><ele>398.0</ele><time>2026-05-01T07:18:31Z</time></trkpt><trkpt lat="45.80816498313014" lon="9.04904345177968"><ele>398.0</ele><time>2026-05-01T07:18:32Z</time></trkpt><trkpt lat="45.80812843229563" lon="9.049132016053399"><ele>398.0</ele><time>2026-05-01T07:18:33Z</time></trkpt><trkpt lat="45.80810671108036" lon="9.049237050531177"><ele>397.99999999999994</ele><time>2026-05-01T07:18:34Z</time></trkpt><trkpt lat="45.80808354532666" lon="9.049345073316447"><ele>398.0</ele><time>2026-05-01T07:18:35Z</time></trkpt><trkpt lat="45.808050604051104" lon="9.0494548273807"><ele>398.3333333333333</ele><time>2026-05-01T07:18:36Z</time></trkpt><trkpt lat="45.80801611017167" lon="9.04956604903969"><ele>398.66666666666663</ele><time>2026-05-01T07:18:37Z</time></trkpt><trkpt lat="45.807990006104134" lon="9.049673538174964"><ele>399.0</ele><time>2026-05-01T07:18:38Z</time></trkpt><trkpt lat="45.80797279056137" lon="9.049787189460517"><ele>399.33333333333337</ele><time>2026-05-01T07:18:39Z</time></trkpt><trkpt lat="45.80795438555601" lon="9.049887548543673"><ele>399.6666666666667</ele><time>2026-05-01T07:18:40Z</time></trkpt><trkpt lat="45.80793746643254" lon="9.04999083446431"><ele>400.0</ele><time>2026-05-01T07:18:41Z</time></trkpt><trkpt lat="45.80791626245892" lon="9.050093587694162"><ele>400.1666666666667</ele><time>2026-05-01T07:18:42Z</time></trkpt><trkpt lat="45.80788941000162" lon="9.050193542100363"><ele>400.33333333333337</ele><time>2026-05-01T07:18:43Z</time></trkpt><trkpt lat="45.8078620725724" lon="9.050283795916066"><ele>400.5</ele><time>2026-05-01T07:18:44Z</time></trkpt><trkpt lat="45.80782532512566" lon="9.050369860248198"><ele>400.66666666666663</ele><time>2026-05-01T07:18:45Z</time></trkpt><trkpt lat="45.80778407928635" lon="9.050445140470723"><ele>400.8333333333333</ele><time>2026-05-01T07:18:46Z</time></trkpt><trkpt lat="45.807684968658286" lon="9.050539044229955"><ele>401.0</ele><time>2026-05-01T07:18:48Z</time></trkpt><trkpt lat="45.80756820569669" lon="9.05055117110393"><ele>398.8</ele><time>2026-05-01T07:18:50Z</time></trkpt><trkpt lat="45.807468623166656" lon="9.050577923406385"><ele>396.6</ele><time>2026-05-01T07:18:52Z</time></trkpt><trkpt lat="45.8074154401726" lon="9.050711807973792"><ele>394.4</ele><time>2026-05-01T07:18:53.999Z</time></trkpt><trkpt lat="45.80747507241342" lon="9.050866766877618"><ele>392.2</ele><time>2026-05-01T07:18:55.999Z</time></trkpt><trkpt lat="45.80757521284006" lon="9.050875974183148"><ele>390.0</ele><time>2026-05-01T07:18:56.999Z</time></trkpt><trkpt lat="45.80764806494308" lon="9.050920789279019"><ele>391.8</ele><time>2026-05-01T07:18:57.999Z</time></trkpt><trkpt lat="45.8077130746081" lon="9.051026597301876"><ele>393.6</ele><time>2026-05-01T07:18:58.999Z</time></trkpt><trkpt lat="45.807793949034256" lon="9.05112055901675"><ele>395.4</ele><time>2026-05-01T07:18:59.999Z</time></trkpt><trkpt lat="45.8078356658041" lon="9.051228559348182"><ele>397.2</ele><time>2026-05-01T07:19:00.999Z</time></trkpt><trkpt lat="45.80789760990876" lon="9.05133041778392"><ele>399.0</ele><time>2026-05-01T07:19:01.999Z</time></trkpt><trkpt lat="45.807968955021664" lon="9.051437990538522"><ele>399.0</ele><time>2026-05-01T07:19:02.999Z</time></trkpt><trkpt lat="45.8080503496651" lon="9.051556421194952"><ele>399.0</ele><time>2026-05-01T07:19:03.999Z</time></trkpt><trkpt lat="45.8081258495592" lon="9.051690151206605"><ele>399.0</ele><time>2026-05-01T07:19:04.999Z</time></trkpt><trkpt lat="45.80820675361852" lon="9.051833073509323"><ele>399.0</ele><time>2026-05-01T07:19:05.999Z</time></trkpt><trkpt lat="45.80830295403233" lon="9.051957251395727"><ele>399.25</ele><time>2026-05-01T07:19:06.999Z</time></trkpt><trkpt lat="45.808418423205" lon="9.052019981008748"><ele>399.5</ele><time>2026-05-01T07:19:07.999Z</time></trkpt><trkpt lat="45.808535533717475" lon="9.052079298865738"><ele>399.75</ele><time>2026-05-01T07:19:08.999Z</time></trkpt><trkpt lat="45.8086714755571" lon="9.05204842959663"><ele>400.0</ele><time>2026-05-01T07:19:09.999Z</time></trkpt><trkpt lat="45.80879527080926" lon="9.052094680939847"><ele>400.00000000000006</ele><time>2026-05-01T07:19:10.999Z</time></trkpt><trkpt lat="45.80889372489588" lon="9.052150380232906"><ele>400.0</ele><time>2026-05-01T07:19:11.999Z</time></trkpt><trkpt lat="45.80896857434262" lon="9.052227441880818"><ele>400.0</ele><time>2026-05-01T07:19:12.999Z</time></trkpt><trkpt lat="45.80903182875646" lon="9.052299140934638"><ele>400.0</ele><time>2026-05-01T07:19:13.999Z</time></trkpt><trkpt lat="45.80908669329702" lon="9.052369788525155"><ele>400.00000000000006</ele><time>2026-05-01T07:19:14.999Z</time></trkpt><trkpt lat="45.809166769235496" lon="9.052401354337134"><ele>400.0</ele><time>2026-05-01T07:19:15.999Z</time></trkpt><trkpt lat="45.809244446678846" lon="9.052459597088545"><ele>400.0</ele><time>2026-05-01T07:19:16.999Z</time></trkpt><trkpt lat="45.80930955576914" lon="9.052568921977638"><ele>400.0</ele><time>2026-05-01T07:19:17.999Z</time></trkpt><trkpt lat="45.80934462309605" lon="9.05270826948125"><ele>400.0</ele><time>2026-05-01T07:19:18.999Z</time></trkpt><trkpt lat="45.80938291692001" lon="9.052855071940694"><ele>400.0</ele><time>2026-05-01T07:19:19.999Z</time></trkpt><trkpt lat="45.80943459674226" lon="9.05301792678153"><ele>400.0</ele><time>2026-05-01T07:19:20.999Z</time></trkpt><trkpt lat="45.80947660000281" lon="9.053192302160951"><ele>402.0</ele><time>2026-05-01T07:19:21.999Z</time></trkpt><trkpt lat="45.80951790106071" lon="9.053372854641212"><ele>404.0</ele><time>2026-05-01T07:19:22.999Z</time></trkpt><trkpt lat="45.809559585914826" lon="9.053596171312858"><ele>406.0</ele><time>2026-05-01T07:19:23.999Z</time></trkpt><trkpt lat="45.80960804617317" lon="9.053775536258748"><ele>408.0</ele><time>2026-05-01T07:19:24.999Z</time></trkpt><trkpt lat="45.80965720055981" lon="9.053953321140368"><ele>408.0</ele><time>2026-05-01T07:19:25.999Z</time></trkpt><trkpt lat="45.8097022810823" lon="9.054112184241255"><ele>408.0</ele><time>2026-05-01T07:19:26.999Z</time></trkpt><trkpt lat="45.809735406207515" lon="9.05425198886402"><ele>408.0</ele><time>2026-05-01T07:19:27.999Z</time></trkpt><trkpt lat="45.80976511624711" lon="9.054356855968836"><ele>408.0</ele><time>2026-05-01T07:19:28.999Z</time></trkpt><trkpt lat="45.80979876222827" lon="9.054465817404525"><ele>408.0</ele><time>2026-05-01T07:19:29.999Z</time></trkpt><trkpt lat="45.80983565959863" lon="9.054587338994693"><ele>408.4</ele><time>2026-05-01T07:19:30.999Z</time></trkpt><trkpt lat="45.809866313597645" lon="9.054724855407713"><ele>408.79999999999995</ele><time>2026-05-01T07:19:31.999Z</time></trkpt><trkpt lat="45.8098924915209" lon="9.054869508929427"><ele>409.2</ele><time>2026-05-01T07:19:32.999Z</time></trkpt><trkpt lat="45.80990754967971" lon="9.05500394113888"><ele>409.6</ele><time>2026-05-01T07:19:33.999Z</time></trkpt><trkpt lat="45.80990803777649" lon="9.055135384005048"><ele>410.0</ele><time>2026-05-01T07:19:34.999Z</time></trkpt><trkpt lat="45.80988049525057" lon="9.055249026603947"><ele>408.6</ele><time>2026-05-01T07:19:35.999Z</time></trkpt><trkpt lat="45.80984534779749" lon="9.055356014379788"><ele>407.2</ele><time>2026-05-01T07:19:36.999Z</time></trkpt><trkpt lat="45.80982852731699" lon="9.055466353110338"><ele>405.79999999999995</ele><time>2026-05-01T07:19:37.999Z</time></trkpt><trkpt lat="45.80988596683996" lon="9.055709799237384"><ele>404.4</ele><time>2026-05-01T07:19:39.999Z</time></trkpt><trkpt lat="45.80994784423191" lon="9.055811933986945"><ele>403.0</ele><time>2026-05-01T07:19:40.999Z</time></trkpt><trkpt lat="45.81000583247796" lon="9.055913331026204"><ele>401.59999999999997</ele><time>2026-05-01T07:19:41.999Z</time></trkpt><trkpt lat="45.81003940797419" lon="9.05602725181701"><ele>400.2</ele><time>2026-05-01T07:19:42.999Z</time></trkpt><trkpt lat="45.81003379590573" lon="9.056160599498233"><ele>398.8</ele><time>2026-05-01T07:19:43.999Z</time></trkpt><trkpt lat="45.8099876462212" lon="9.056294428145083"><ele>397.4</ele><time>2026-05-01T07:19:44.999Z</time></trkpt><trkpt lat="45.80993079375736" lon="9.056416280216155"><ele>396.0</ele><time>2026-05-01T07:19:45.999Z</time></trkpt><trkpt lat="45.8098821794922" lon="9.056536225729085"><ele>395.20000000000005</ele><time>2026-05-01T07:19:46.999Z</time></trkpt><trkpt lat="45.80986529535503" lon="9.056672819071345"><ele>394.40000000000003</ele><time>2026-05-01T07:19:47.999Z</time></trkpt><trkpt lat="45.809879459064206" lon="9.056813702658296"><ele>393.6</ele><time>2026-05-01T07:19:48.999Z</time></trkpt><trkpt lat="45.80991878108766" lon="9.056941483951618"><ele>392.8</ele><time>2026-05-01T07:19:49.999Z</time></trkpt><trkpt lat="45.809990874716526" lon="9.057047094105732"><ele>392.0</ele><time>2026-05-01T07:19:50.999Z</time></trkpt><trkpt lat="45.81007329053407" lon="9.05713021513243"><ele>396.40000000000003</ele><time>2026-05-01T07:19:51.999Z</time></trkpt><trkpt lat="45.81015969049727" lon="9.057201317337716"><ele>400.8</ele><time>2026-05-01T07:19:52.999Z</time></trkpt><trkpt lat="45.810244512704074" lon="9.057282587834049"><ele>405.2</ele><time>2026-05-01T07:19:53.999Z</time></trkpt><trkpt lat="45.810388911363695" lon="9.05727059775508"><ele>409.6</ele><time>2026-05-01T07:19:54.999Z</time></trkpt><trkpt lat="45.81048100307958" lon="9.057320764123581"><ele>414.0</ele><time>2026-05-01T07:19:55.998Z</time></trkpt><trkpt lat="45.81055477964525" lon="9.05741026546153"><ele>410.75</ele><time>2026-05-01T07:19:56.998Z</time></trkpt><trkpt lat="45.810602650290804" lon="9.05769948878677"><ele>407.5</ele><time>2026-05-01T07:19:58.998Z</time></trkpt><trkpt lat="45.81060321860729" lon="9.057854294038009"><ele>404.25</ele><time>2026-05-01T07:19:59.998Z</time></trkpt><trkpt lat="45.81061026661714" lon="9.057982200879588"><ele>401.0</ele><time>2026-05-01T07:20:00.998Z</time></trkpt><trkpt lat="45.810624274210554" lon="9.05808510710564"><ele>400.99999999999994</ele><time>2026-05-01T07:20:01.998Z</time></trkpt><trkpt lat="45.81064477826142" lon="9.058172755902051"><ele>401.0</ele><time>2026-05-01T07:20:03.998Z</time></trkpt><trkpt lat="45.81063007493867" lon="9.058072230206681"><ele>401.0</ele><time>2026-05-01T07:20:11.998Z</time></trkpt><trkpt lat="45.81061077941425" lon="9.057938835211244"><ele>401.0</ele><time>2026-05-01T07:20:13.998Z</time></trkpt><trkpt lat="45.81061462172056" lon="9.057823055281917"><ele>400.99999999999994</ele><time>2026-05-01T07:20:14.998Z</time></trkpt><trkpt lat="45.81060222347046" lon="9.057684758764298"><ele>401.0</ele><time>2026-05-01T07:20:15.998Z</time></trkpt><trkpt lat="45.810588447846335" lon="9.05753385312746"><ele>404.25</ele><time>2026-05-01T07:20:16.998Z</time></trkpt><trkpt lat="45.8105638632791" lon="9.057392777347077"><ele>407.5</ele><time>2026-05-01T07:20:18Z</time></trkpt><trkpt lat="45.810497044086326" lon="9.05727261253062"><ele>410.75</ele><time>2026-05-01T07:20:19Z</time></trkpt><trkpt lat="45.81038045641429" lon="9.057162487530533"><ele>414.0</ele><time>2026-05-01T07:20:20Z</time></trkpt><trkpt lat="45.81020331414773" lon="9.057074960852727"><ele>408.5</ele><time>2026-05-01T07:20:21Z</time></trkpt><trkpt lat="45.81007742426945" lon="9.057055251873793"><ele>403.0</ele><time>2026-05-01T07:20:22Z</time></trkpt><trkpt lat="45.80995988276969" lon="9.05696590949007"><ele>397.5</ele><time>2026-05-01T07:20:23Z</time></trkpt><trkpt lat="45.80984747629217" lon="9.056850263356196"><ele>392.0</ele><time>2026-05-01T07:20:24Z</time></trkpt><trkpt lat="45.80973593362044" lon="9.056747670661997"><ele>393.3333333333333</ele><time>2026-05-01T07:20:25Z</time></trkpt><trkpt lat="45.80965310402382" lon="9.056612117077913"><ele>394.66666666666663</ele><time>2026-05-01T07:20:26Z</time></trkpt><trkpt lat="45.80988051239336" lon="9.056484729599543"><ele>396.0</ele><time>2026-05-01T07:20:27Z</time></trkpt><trkpt lat="45.81002543217145" lon="9.056253543128229"><ele>396.0</ele><time>2026-05-01T07:20:29Z</time></trkpt><trkpt lat="45.810048848028764" lon="9.056143079498822"><ele>396.0</ele><time>2026-05-01T07:20:30Z</time></trkpt><trkpt lat="45.81006256296194" lon="9.056040164360612"><ele>396.0</ele><time>2026-05-01T07:20:31Z</time></trkpt><trkpt lat="45.810043151890085" lon="9.055924979872072"><ele>396.0</ele><time>2026-05-01T07:20:32Z</time></trkpt><trkpt lat="45.809993121645235" lon="9.055806475997375"><ele>396.0</ele><time>2026-05-01T07:20:33Z</time></trkpt><trkpt lat="45.80993461415029" lon="9.055690039821496"><ele>396.0</ele><time>2026-05-01T07:20:34Z</time></trkpt><trkpt lat="45.809884130697405" lon="9.055590569889539"><ele>397.1666666666667</ele><time>2026-05-01T07:20:35Z</time></trkpt><trkpt lat="45.80985425891007" lon="9.055491188209531"><ele>398.33333333333337</ele><time>2026-05-01T07:20:36Z</time></trkpt><trkpt lat="45.80985403316727" lon="9.055373143744557"><ele>399.5</ele><time>2026-05-01T07:20:37Z</time></trkpt><trkpt lat="45.80988327406628" lon="9.055252375235"><ele>400.6666666666667</ele><time>2026-05-01T07:20:38Z</time></trkpt><trkpt lat="45.80990743865037" lon="9.055167590841382"><ele>401.83333333333337</ele><time>2026-05-01T07:20:39Z</time></trkpt><trkpt lat="45.809923332490015" lon="9.055066597536124"><ele>403.0</ele><time>2026-05-01T07:20:41Z</time></trkpt><trkpt lat="45.8099212875702" lon="9.054967867469797"><ele>404.4</ele><time>2026-05-01T07:20:43Z</time></trkpt><trkpt lat="45.80991253874566" lon="9.054860506862536"><ele>405.79999999999995</ele><time>2026-05-01T07:20:45Z</time></trkpt><trkpt lat="45.80989700250578" lon="9.054748788438689"><ele>407.2</ele><time>2026-05-01T07:20:50Z</time></trkpt><trkpt lat="45.80986220938499" lon="9.054603780494258"><ele>408.6</ele><time>2026-05-01T07:20:52Z</time></trkpt><trkpt lat="45.80983439207585" lon="9.054489920195275"><ele>410.0</ele><time>2026-05-01T07:20:53Z</time></trkpt><trkpt lat="45.80979580534221" lon="9.05434326444655"><ele>410.0</ele><time>2026-05-01T07:20:54Z</time></trkpt><trkpt lat="45.809758868227" lon="9.054199440002595"><ele>410.0</ele><time>2026-05-01T07:20:55Z</time></trkpt><trkpt lat="45.809720996018555" lon="9.05404100693726"><ele>410.0</ele><time>2026-05-01T07:20:56Z</time></trkpt><trkpt lat="45.80968201788866" lon="9.053887138725498"><ele>410.0</ele><time>2026-05-01T07:20:57Z</time></trkpt><trkpt lat="45.809644336667674" lon="9.053728022867336"><ele>409.5</ele><time>2026-05-01T07:20:58Z</time></trkpt><trkpt lat="45.809597823696656" lon="9.053541445142386"><ele>409.0</ele><time>2026-05-01T07:20:58.999Z</time></trkpt><trkpt lat="45.80954218572042" lon="9.053344211272599"><ele>408.5</ele><time>2026-05-01T07:20:59.999Z</time></trkpt><trkpt lat="45.80949268196163" lon="9.053143223171293"><ele>408.0</ele><time>2026-05-01T07:21:00.999Z</time></trkpt><trkpt lat="45.80944825154029" lon="9.052967057210624"><ele>407.59999999999997</ele><time>2026-05-01T07:21:01.999Z</time></trkpt><trkpt lat="45.809409743597904" lon="9.052801773914652"><ele>407.2</ele><time>2026-05-01T07:21:02.999Z</time></trkpt><trkpt lat="45.809376174957926" lon="9.05266054749929"><ele>406.8</ele><time>2026-05-01T07:21:03.999Z</time></trkpt><trkpt lat="45.80934161471987" lon="9.052540611746206"><ele>406.4</ele><time>2026-05-01T07:21:04.999Z</time></trkpt><trkpt lat="45.809311541364494" lon="9.052416423714604"><ele>406.0</ele><time>2026-05-01T07:21:05.999Z</time></trkpt><trkpt lat="45.80927810204959" lon="9.05229851856023"><ele>404.8</ele><time>2026-05-01T07:21:07.999Z</time></trkpt><trkpt lat="45.80923530944831" lon="9.052186986331263"><ele>403.6</ele><time>2026-05-01T07:21:09.999Z</time></trkpt><trkpt lat="45.80916500654317" lon="9.052073981139227"><ele>402.4</ele><time>2026-05-01T07:21:11.999Z</time></trkpt><trkpt lat="45.809055508219295" lon="9.05211292547417"><ele>401.2</ele><time>2026-05-01T07:21:13.999Z</time></trkpt><trkpt lat="45.80903367536678" lon="9.052281661843008"><ele>400.0</ele><time>2026-05-01T07:21:15.999Z</time></trkpt><trkpt lat="45.80906860682798" lon="9.052360743890231"><ele>400.00000000000006</ele><time>2026-05-01T07:21:16.999Z</time></trkpt><trkpt lat="45.80911056976115" lon="9.052439868811907"><ele>400.0</ele><time>2026-05-01T07:21:17.999Z</time></trkpt><trkpt lat="45.809138679218876" lon="9.05252949890469"><ele>400.0</ele><time>2026-05-01T07:21:18.999Z</time></trkpt><trkpt lat="45.80915775864123" lon="9.052643474600613"><ele>400.0</ele><time>2026-05-01T07:21:19.999Z</time></trkpt><trkpt lat="45.8091579094835" lon="9.052770500913898"><ele>400.00000000000006</ele><time>2026-05-01T07:21:20.999Z</time></trkpt><trkpt lat="45.8091454709876" lon="9.052880387499185"><ele>400.0</ele><time>2026-05-01T07:21:21.999Z</time></trkpt><trkpt lat="45.80910282755585" lon="9.0530246586677"><ele>400.0</ele><time>2026-05-01T07:21:22.999Z</time></trkpt><trkpt lat="45.80907185393713" lon="9.053169397068416"><ele>400.0</ele><time>2026-05-01T07:21:23.999Z</time></trkpt><trkpt lat="45.809040930034136" lon="9.053313903055292"><ele>400.0</ele><time>2026-05-01T07:21:24.999Z</time></trkpt><trkpt lat="45.809011957148826" lon="9.053444609835433"><ele>400.0</ele><time>2026-05-01T07:21:25.999Z</time></trkpt><trkpt lat="45.8089833525323" lon="9.053557249703776"><ele>400.0</ele><time>2026-05-01T07:21:26.999Z</time></trkpt><trkpt lat="45.808949186778996" lon="9.053657683959925"><ele>399.8</ele><time>2026-05-01T07:21:27.999Z</time></trkpt><trkpt lat="45.80889318546309" lon="9.05374610686614"><ele>399.6</ele><time>2026-05-01T07:21:28.999Z</time></trkpt><trkpt lat="45.80882457865287" lon="9.053853850265877"><ele>399.4</ele><time>2026-05-01T07:21:29.999Z</time></trkpt><trkpt lat="45.80872478841834" lon="9.053947421950046"><ele>399.2</ele><time>2026-05-01T07:21:30.999Z</time></trkpt><trkpt lat="45.80864526436895" lon="9.054050378866991"><ele>399.0</ele><time>2026-05-01T07:21:31.999Z</time></trkpt><trkpt lat="45.80857085150246" lon="9.054141069237213"><ele>399.0</ele><time>2026-05-01T07:21:32.999Z</time></trkpt><trkpt lat="45.808525044326124" lon="9.054213659803363"><ele>399.0</ele><time>2026-05-01T07:21:33.999Z</time></trkpt><trkpt lat="45.80848510617525" lon="9.054292495504638"><ele>399.0</ele><time>2026-05-01T07:21:34.999Z</time></trkpt><trkpt lat="45.80844100955171" lon="9.054360222805085"><ele>399.0</ele><time>2026-05-01T07:21:35.999Z</time></trkpt><trkpt lat="45.80839716916082" lon="9.054432453640159"><ele>399.0</ele><time>2026-05-01T07:21:37.999Z</time></trkpt><trkpt lat="45.80836096340288" lon="9.05451340660374"><ele>399.0</ele><time>2026-05-01T07:21:41.999Z</time></trkpt><trkpt lat="45.808435637558766" lon="9.05468125869669"><ele>399.0</ele><time>2026-05-01T07:21:42.999Z</time></trkpt><trkpt lat="45.80848387099205" lon="9.054793793354825"><ele>399.0</ele><time>2026-05-01T07:21:44.999Z</time></trkpt><trkpt lat="45.80850307758807" lon="9.054936246055666"><ele>399.0</ele><time>2026-05-01T07:21:46.999Z</time></trkpt><trkpt lat="45.80855202385019" lon="9.055092616202137"><ele>399.0</ele><time>2026-05-01T07:21:48.999Z</time></trkpt><trkpt lat="45.808605076302776" lon="9.055170337996064"><ele>399.0</ele><time>2026-05-01T07:21:49.999Z</time></trkpt><trkpt lat="45.80866682488464" lon="9.055249664468082"><ele>398.3333333333333</ele><time>2026-05-01T07:21:50.999Z</time></trkpt><trkpt lat="45.80873761362643" lon="9.055315407654291"><ele>397.66666666666663</ele><time>2026-05-01T07:21:51.999Z</time></trkpt><trkpt lat="45.80881633137089" lon="9.055382157519379"><ele>397.0</ele><time>2026-05-01T07:21:52.999Z</time></trkpt><trkpt lat="45.80889342755209" lon="9.055446501282566"><ele>396.3333333333333</ele><time>2026-05-01T07:21:53.999Z</time></trkpt><trkpt lat="45.80896439724375" lon="9.05550832100977"><ele>395.66666666666663</ele><time>2026-05-01T07:21:54.999Z</time></trkpt><trkpt lat="45.80904045999922" lon="9.05554810948149"><ele>395.0</ele><time>2026-05-01T07:21:55.999Z</time></trkpt><trkpt lat="45.80912458171401" lon="9.055558241553005"><ele>395.0</ele><time>2026-05-01T07:21:56.999Z</time></trkpt><trkpt lat="45.809214738013175" lon="9.055524524531261"><ele>395.0</ele><time>2026-05-01T07:21:57.999Z</time></trkpt><trkpt lat="45.80929321605007" lon="9.055493199915157"><ele>395.0</ele><time>2026-05-01T07:21:58.999Z</time></trkpt><trkpt lat="45.809380567644226" lon="9.055488466489086"><ele>395.0</ele><time>2026-05-01T07:21:59.999Z</time></trkpt><trkpt lat="45.80948835370822" lon="9.055492274801413"><ele>395.0</ele><time>2026-05-01T07:22:01.999Z</time></trkpt><trkpt lat="45.80951497627101" lon="9.055687272970154"><ele>395.16666666666663</ele><time>2026-05-01T07:22:03.999Z</time></trkpt><trkpt lat="45.80952924682219" lon="9.055795600188423"><ele>395.3333333333333</ele><time>2026-05-01T07:22:04.999Z</time></trkpt><trkpt lat="45.809540697687055" lon="9.055905655848171"><ele>395.5</ele><time>2026-05-01T07:22:05.999Z</time></trkpt><trkpt lat="45.809563373757136" lon="9.056013983519852"><ele>395.66666666666663</ele><time>2026-05-01T07:22:06.999Z</time></trkpt><trkpt lat="45.809620238555496" lon="9.056094836422533"><ele>395.8333333333333</ele><time>2026-05-01T07:22:07.999Z</time></trkpt><trkpt lat="45.80967616905028" lon="9.056158295850379"><ele>396.0</ele><time>2026-05-01T07:22:08.998Z</time></trkpt><trkpt lat="45.80968578196253" lon="9.056332500365798"><ele>396.0</ele><time>2026-05-01T07:22:10.998Z</time></trkpt><trkpt lat="45.80964073086066" lon="9.05642419767785"><ele>396.0</ele><time>2026-05-01T07:22:11.998Z</time></trkpt><trkpt lat="45.80959817516312" lon="9.056511057230525"><ele>396.0</ele><time>2026-05-01T07:22:12.998Z</time></trkpt><trkpt lat="45.80956754026137" lon="9.056604988250195"><ele>396.0</ele><time>2026-05-01T07:22:13.998Z</time></trkpt><trkpt lat="45.80950912078667" lon="9.056706409821919"><ele>396.0</ele><time>2026-05-01T07:22:15.998Z</time></trkpt><trkpt lat="45.80943173199594" lon="9.05668162869986"><ele>396.0</ele><time>2026-05-01T07:22:17.998Z</time></trkpt><trkpt lat="45.80941313731662" lon="9.056526002342723"><ele>396.0</ele><time>2026-05-01T07:22:19.998Z</time></trkpt><trkpt lat="45.80936416419966" lon="9.056445330203287"><ele>396.0</ele><time>2026-05-01T07:22:20.998Z</time></trkpt><trkpt lat="45.809324403574365" lon="9.05632663218915"><ele>396.0</ele><time>2026-05-01T07:22:21.998Z</time></trkpt><trkpt lat="45.80924462137019" lon="9.05623125978054"><ele>396.0</ele><time>2026-05-01T07:22:22.998Z</time></trkpt><trkpt lat="45.80910836406494" lon="9.056042243180148"><ele>391.6</ele><time>2026-05-01T07:22:24Z</time></trkpt><trkpt lat="45.80900363968215" lon="9.055941670988368"><ele>387.20000000000005</ele><time>2026-05-01T07:22:27Z</time></trkpt><trkpt lat="45.8089161634033" lon="9.055876709485235"><ele>382.79999999999995</ele><time>2026-05-01T07:22:28Z</time></trkpt><trkpt lat="45.80882470787477" lon="9.055838180064178"><ele>378.4</ele><time>2026-05-01T07:22:29Z</time></trkpt><trkpt lat="45.808743087227576" lon="9.055820980774193"><ele>374.0</ele><time>2026-05-01T07:22:30Z</time></trkpt><trkpt lat="45.80865621597465" lon="9.055805528681502"><ele>374.0</ele><time>2026-05-01T07:22:31Z</time></trkpt><trkpt lat="45.80857515166416" lon="9.055821600798629"><ele>374.0</ele><time>2026-05-01T07:22:32Z</time></trkpt><trkpt lat="45.80850991216086" lon="9.055876840413847"><ele>374.0</ele><time>2026-05-01T07:22:33Z</time></trkpt><trkpt lat="45.808481321072776" lon="9.055964879889231"><ele>374.0</ele><time>2026-05-01T07:22:34Z</time></trkpt><trkpt lat="45.80848369374796" lon="9.056096304324823"><ele>374.0</ele><time>2026-05-01T07:22:35Z</time></trkpt><trkpt lat="45.80851071389132" lon="9.056240453904243"><ele>374.0</ele><time>2026-05-01T07:22:36Z</time></trkpt><trkpt lat="45.80853026827883" lon="9.056391648814927"><ele>374.0</ele><time>2026-05-01T07:22:37Z</time></trkpt><trkpt lat="45.80852617847193" lon="9.056553615593254"><ele>374.0</ele><time>2026-05-01T07:22:38Z</time></trkpt><trkpt lat="45.808504706439415" lon="9.056699673375963"><ele>374.0</ele><time>2026-05-01T07:22:39Z</time></trkpt><trkpt lat="45.80846896263593" lon="9.056855525462998"><ele>374.0</ele><time>2026-05-01T07:22:40Z</time></trkpt><trkpt lat="45.80843484893519" lon="9.056986641714051"><ele>374.0</ele><time>2026-05-01T07:22:41Z</time></trkpt><trkpt lat="45.808401579274104" lon="9.057114257119618"><ele>375.6</ele><time>2026-05-01T07:22:42Z</time></trkpt><trkpt lat="45.80835711114113" lon="9.057257038153413"><ele>377.2</ele><time>2026-05-01T07:22:43Z</time></trkpt><trkpt lat="45.808308210550514" lon="9.05736785021926"><ele>378.8</ele><time>2026-05-01T07:22:44Z</time></trkpt><trkpt lat="45.80820552396032" lon="9.057388486783928"><ele>380.40000000000003</ele><time>2026-05-01T07:22:45Z</time></trkpt><trkpt lat="45.80813827592784" lon="9.057456786384005"><ele>382.0</ele><time>2026-05-01T07:22:46Z</time></trkpt><trkpt lat="45.80807985581629" lon="9.0575441930907"><ele>378.20000000000005</ele><time>2026-05-01T07:22:47Z</time></trkpt><trkpt lat="45.80805448390679" lon="9.0576458714401"><ele>374.4</ele><time>2026-05-01T07:22:48Z</time></trkpt><trkpt lat="45.80808446459033" lon="9.05777280376915"><ele>370.6</ele><time>2026-05-01T07:22:49Z</time></trkpt><trkpt lat="45.808171727034505" lon="9.05785246298245"><ele>366.79999999999995</ele><time>2026-05-01T07:22:50Z</time></trkpt><trkpt lat="45.80828104883401" lon="9.057907723659333"><ele>363.0</ele><time>2026-05-01T07:22:51Z</time></trkpt><trkpt lat="45.808354399439004" lon="9.057997492551335"><ele>363.0</ele><time>2026-05-01T07:22:52Z</time></trkpt><trkpt lat="45.80845265093245" lon="9.05808373940874"><ele>363.0</ele><time>2026-05-01T07:22:53Z</time></trkpt><trkpt lat="45.8085470176894" lon="9.058171429995458"><ele>363.0</ele><time>2026-05-01T07:22:54Z</time></trkpt><trkpt lat="45.80863354478624" lon="9.058257316511495"><ele>363.0</ele><time>2026-05-01T07:22:55Z</time></trkpt><trkpt lat="45.80871813583845" lon="9.05833321838276"><ele>363.0</ele><time>2026-05-01T07:22:56Z</time></trkpt><trkpt lat="45.80878514319742" lon="9.058419257672856"><ele>360.1666666666667</ele><time>2026-05-01T07:22:57Z</time></trkpt><trkpt lat="45.80885224576999" lon="9.058469014857183"><ele>357.3333333333333</ele><time>2026-05-01T07:22:58Z</time></trkpt><trkpt lat="45.808888130766185" lon="9.058566006120955"><ele>354.5</ele><time>2026-05-01T07:22:59Z</time></trkpt><trkpt lat="45.80890594551144" lon="9.058677357548438"><ele>351.66666666666663</ele><time>2026-05-01T07:23:00Z</time></trkpt><trkpt lat="45.80890815742076" lon="9.058778867601491"><ele>348.8333333333333</ele><time>2026-05-01T07:23:01Z</time></trkpt><trkpt lat="45.80891977520224" lon="9.05889864585374"><ele>346.0</ele><time>2026-05-01T07:23:02Z</time></trkpt><trkpt lat="45.80891682377915" lon="9.05900567054441"><ele>346.0</ele><time>2026-05-01T07:23:03Z</time></trkpt><trkpt lat="45.80888785955304" lon="9.059090961480498"><ele>346.0</ele><time>2026-05-01T07:23:04Z</time></trkpt><trkpt lat="45.80883106010269" lon="9.059151662422568"><ele>346.0</ele><time>2026-05-01T07:23:05Z</time></trkpt><trkpt lat="45.808754891365865" lon="9.05919001525449"><ele>346.0</ele><time>2026-05-01T07:23:05.999Z</time></trkpt><trkpt lat="45.8086912438785" lon="9.059241634289409"><ele>346.0</ele><time>2026-05-01T07:23:06.999Z</time></trkpt><trkpt lat="45.808652344226225" lon="9.05931898414843"><ele>346.0</ele><time>2026-05-01T07:23:07.999Z</time></trkpt><trkpt lat="45.80867658771706" lon="9.059419359493972"><ele>346.0</ele><time>2026-05-01T07:23:08.999Z</time></trkpt><trkpt lat="45.808740182037916" lon="9.059504683461878"><ele>344.3333333333333</ele><time>2026-05-01T07:23:09.999Z</time></trkpt><trkpt lat="45.808781202576625" lon="9.059601064001514"><ele>342.66666666666663</ele><time>2026-05-01T07:23:10.999Z</time></trkpt><trkpt lat="45.80883412465303" lon="9.059703252894291"><ele>341.0</ele><time>2026-05-01T07:23:11.999Z</time></trkpt><trkpt lat="45.808888293996795" lon="9.059810654930065"><ele>339.3333333333333</ele><time>2026-05-01T07:23:12.999Z</time></trkpt><trkpt lat="45.808934644915844" lon="9.059920780687023"><ele>337.6666666666667</ele><time>2026-05-01T07:23:13.999Z</time></trkpt><trkpt lat="45.808984846240385" lon="9.060030953377604"><ele>336.0</ele><time>2026-05-01T07:23:14.999Z</time></trkpt><trkpt lat="45.80901970307702" lon="9.060156834350424"><ele>335.0</ele><time>2026-05-01T07:23:15.999Z</time></trkpt><trkpt lat="45.80902757881531" lon="9.060287739245945"><ele>334.0</ele><time>2026-05-01T07:23:16.999Z</time></trkpt><trkpt lat="45.809039494449536" lon="9.060404016274472"><ele>333.0</ele><time>2026-05-01T07:23:17.999Z</time></trkpt><trkpt lat="45.80904383601621" lon="9.060514867838029"><ele>332.0</ele><time>2026-05-01T07:23:18.999Z</time></trkpt><trkpt lat="45.80905096429044" lon="9.060641597526757"><ele>331.0</ele><time>2026-05-01T07:23:19.999Z</time></trkpt><trkpt lat="45.80907218527187" lon="9.060764971583056"><ele>330.0</ele><time>2026-05-01T07:23:20.999Z</time></trkpt><trkpt lat="45.80910655585499" lon="9.060881319849143"><ele>330.0</ele><time>2026-05-01T07:23:21.999Z</time></trkpt><trkpt lat="45.80916885903456" lon="9.06097994926875"><ele>330.0</ele><time>2026-05-01T07:23:22.999Z</time></trkpt><trkpt lat="45.80922163317845" lon="9.061095687571498"><ele>330.0</ele><time>2026-05-01T07:23:23.999Z</time></trkpt><trkpt lat="45.80926920892212" lon="9.061222676871507"><ele>330.0</ele><time>2026-05-01T07:23:24.999Z</time></trkpt><trkpt lat="45.80930546248975" lon="9.061375032358498"><ele>330.0</ele><time>2026-05-01T07:23:25.999Z</time></trkpt><trkpt lat="45.8093475487666" lon="9.061539917463456"><ele>321.0</ele><time>2026-05-01T07:23:26.999Z</time></trkpt><trkpt lat="45.80942161057889" lon="9.061695083712127"><ele>312.0</ele><time>2026-05-01T07:23:27.999Z</time></trkpt><trkpt lat="45.80948604418365" lon="9.061853250420153"><ele>303.0</ele><time>2026-05-01T07:23:28.999Z</time></trkpt><trkpt lat="45.809542473078984" lon="9.062010244800925"><ele>294.0</ele><time>2026-05-01T07:23:29.999Z</time></trkpt><trkpt lat="45.80961738133018" lon="9.062153403966539"><ele>294.0</ele><time>2026-05-01T07:23:30.999Z</time></trkpt><trkpt lat="45.809677611028775" lon="9.06228507222334"><ele>294.0</ele><time>2026-05-01T07:23:31.999Z</time></trkpt><trkpt lat="45.80973133084362" lon="9.062398013072091"><ele>294.0</ele><time>2026-05-01T07:23:32.999Z</time></trkpt><trkpt lat="45.80976880013603" lon="9.062485881146827"><ele>294.0</ele><time>2026-05-01T07:23:33.999Z</time></trkpt><trkpt lat="45.80981299299348" lon="9.062576677902525"><ele>294.0</ele><time>2026-05-01T07:23:35.999Z</time></trkpt><trkpt lat="45.809880570371" lon="9.062359636643498"><ele>294.0</ele><time>2026-05-01T07:23:39.999Z</time></trkpt><trkpt lat="45.809843980516774" lon="9.062250992267774"><ele>294.0</ele><time>2026-05-01T07:23:40.999Z</time></trkpt><trkpt lat="45.809809262328564" lon="9.06213693310933"><ele>294.0</ele><time>2026-05-01T07:23:41.999Z</time></trkpt><trkpt lat="45.809770899480306" lon="9.06200157842207"><ele>294.0</ele><time>2026-05-01T07:23:42.999Z</time></trkpt><trkpt lat="45.8097327091689" lon="9.061873190513568"><ele>294.0</ele><time>2026-05-01T07:23:43.999Z</time></trkpt><trkpt lat="45.809693470964774" lon="9.061743177846118"><ele>295.0</ele><time>2026-05-01T07:23:44.999Z</time></trkpt><trkpt lat="45.80965750183258" lon="9.061604650898126"><ele>296.0</ele><time>2026-05-01T07:23:45.999Z</time></trkpt><trkpt lat="45.80961844993282" lon="9.061457655318288"><ele>297.0</ele><time>2026-05-01T07:23:46.999Z</time></trkpt><trkpt lat="45.80958175955115" lon="9.061322716377019"><ele>298.0</ele><time>2026-05-01T07:23:47.999Z</time></trkpt><trkpt lat="45.809544945278475" lon="9.061192678203343"><ele>299.0</ele><time>2026-05-01T07:23:48.999Z</time></trkpt><trkpt lat="45.80951640408582" lon="9.06106301862634"><ele>299.0</ele><time>2026-05-01T07:23:49.999Z</time></trkpt><trkpt lat="45.80952114572307" lon="9.060929465624701"><ele>299.0</ele><time>2026-05-01T07:23:50.999Z</time></trkpt><trkpt lat="45.80951405047928" lon="9.060811136123863"><ele>299.0</ele><time>2026-05-01T07:23:51.999Z</time></trkpt><trkpt lat="45.80958332786359" lon="9.060731751566587"><ele>299.0</ele><time>2026-05-01T07:23:52.999Z</time></trkpt><trkpt lat="45.80965694014089" lon="9.060711244251607"><ele>299.0</ele><time>2026-05-01T07:23:53.999Z</time></trkpt><trkpt lat="45.80977526436608" lon="9.060653143221003"><ele>299.0</ele><time>2026-05-01T07:23:55.999Z</time></trkpt><trkpt lat="45.80984042669536" lon="9.060712889225089"><ele>299.0</ele><time>2026-05-01T07:23:56.999Z</time></trkpt><trkpt lat="45.809898268522105" lon="9.060790699872298"><ele>299.0</ele><time>2026-05-01T07:23:57.999Z</time></trkpt><trkpt lat="45.809986340273234" lon="9.060842567334024"><ele>299.0</ele><time>2026-05-01T07:23:58.999Z</time></trkpt><trkpt lat="45.810065593428995" lon="9.060917021738383"><ele>299.0</ele><time>2026-05-01T07:23:59.999Z</time></trkpt><trkpt lat="45.81014869146087" lon="9.061013258541054"><ele>300.5</ele><time>2026-05-01T07:24:00.999Z</time></trkpt><trkpt lat="45.81024587226991" lon="9.06110919634236"><ele>302.0</ele><time>2026-05-01T07:24:01.999Z</time></trkpt><trkpt lat="45.810345479770916" lon="9.061197756398357"><ele>303.5</ele><time>2026-05-01T07:24:02.999Z</time></trkpt><trkpt lat="45.81045064043528" lon="9.061300851767223"><ele>305.0</ele><time>2026-05-01T07:24:03.999Z</time></trkpt><trkpt lat="45.81054392238884" lon="9.061396676733589"><ele>305.0</ele><time>2026-05-01T07:24:04.999Z</time></trkpt><trkpt lat="45.81064592316163" lon="9.061494526128525"><ele>305.0</ele><time>2026-05-01T07:24:05.999Z</time></trkpt><trkpt lat="45.810745929403836" lon="9.06159419058123"><ele>305.0</ele><time>2026-05-01T07:24:06.999Z</time></trkpt><trkpt lat="45.81084558528801" lon="9.06169070073923"><ele>305.0</ele><time>2026-05-01T07:24:07.999Z</time></trkpt><trkpt lat="45.810946668421515" lon="9.061781041932829"><ele>303.75</ele><time>2026-05-01T07:24:08.999Z</time></trkpt><trkpt lat="45.81105122768499" lon="9.061865172953716"><ele>302.5</ele><time>2026-05-01T07:24:09.999Z</time></trkpt><trkpt lat="45.81116158306242" lon="9.06198701162256"><ele>301.25</ele><time>2026-05-01T07:24:10.999Z</time></trkpt><trkpt lat="45.81125036207398" lon="9.062074556209055"><ele>300.0</ele><time>2026-05-01T07:24:11.999Z</time></trkpt><trkpt lat="45.81132466152139" lon="9.062156590080498"><ele>300.0</ele><time>2026-05-01T07:24:12.998Z</time></trkpt><trkpt lat="45.811379261237896" lon="9.062249143017668"><ele>300.0</ele><time>2026-05-01T07:24:13.998Z</time></trkpt><trkpt lat="45.811421465578235" lon="9.062361441719792"><ele>300.0</ele><time>2026-05-01T07:24:14.998Z</time></trkpt><trkpt lat="45.811461017559324" lon="9.062480089159937"><ele>300.0</ele><time>2026-05-01T07:24:15.998Z</time></trkpt><trkpt lat="45.81149964530902" lon="9.062605944913054"><ele>300.0</ele><time>2026-05-01T07:24:16.998Z</time></trkpt><trkpt lat="45.81155253590359" lon="9.062732808950402"><ele>297.6</ele><time>2026-05-01T07:24:17.998Z</time></trkpt><trkpt lat="45.811595203117925" lon="9.062849780364271"><ele>295.2</ele><time>2026-05-01T07:24:18.998Z</time></trkpt><trkpt lat="45.811626272974564" lon="9.062978789096427"><ele>292.8</ele><time>2026-05-01T07:24:19.998Z</time></trkpt><trkpt lat="45.811651236467185" lon="9.063111382140196"><ele>290.4</ele><time>2026-05-01T07:24:20.998Z</time></trkpt><trkpt lat="45.81167320397495" lon="9.06324205380033"><ele>288.0</ele><time>2026-05-01T07:24:21.998Z</time></trkpt><trkpt lat="45.811707050024204" lon="9.063362821554183"><ele>286.4</ele><time>2026-05-01T07:24:22.998Z</time></trkpt><trkpt lat="45.81175584208967" lon="9.063452835925945"><ele>284.8</ele><time>2026-05-01T07:24:23.998Z</time></trkpt><trkpt lat="45.811830942708234" lon="9.063511352381061"><ele>283.2</ele><time>2026-05-01T07:24:24.998Z</time></trkpt><trkpt lat="45.81192213737098" lon="9.063517590921139"><ele>281.6</ele><time>2026-05-01T07:24:25.998Z</time></trkpt><trkpt lat="45.81202249038921" lon="9.063476342655258"><ele>280.0</ele><time>2026-05-01T07:24:26.998Z</time></trkpt><trkpt lat="45.81213203735809" lon="9.063470453569355"><ele>280.0</ele><time>2026-05-01T07:24:27.998Z</time></trkpt><trkpt lat="45.81222733034986" lon="9.063463052304296"><ele>280.0</ele><time>2026-05-01T07:24:28.998Z</time></trkpt><trkpt lat="45.81231954143269" lon="9.063465349168496"><ele>280.0</ele><time>2026-05-01T07:24:30Z</time></trkpt><trkpt lat="45.812400721270784" lon="9.06350136995144"><ele>280.0</ele><time>2026-05-01T07:24:31Z</time></trkpt><trkpt lat="45.812474099255695" lon="9.063563835049612"><ele>280.0</ele><time>2026-05-01T07:24:32Z</time></trkpt><trkpt lat="45.812536158014616" lon="9.063590472340797"><ele>280.0</ele><time>2026-05-01T07:24:33Z</time></trkpt><trkpt lat="45.81257053874007" lon="9.063687991879034"><ele>280.0</ele><time>2026-05-01T07:24:35Z</time></trkpt><trkpt lat="45.81248406023584" lon="9.063742252239326"><ele>280.0</ele><time>2026-05-01T07:24:37Z</time></trkpt><trkpt lat="45.812417032475246" lon="9.063679339624654"><ele>280.0</ele><time>2026-05-01T07:24:38Z</time></trkpt><trkpt lat="45.81234352408535" lon="9.063691694930842"><ele>280.0</ele><time>2026-05-01T07:24:39Z</time></trkpt><trkpt lat="45.81225598299394" lon="9.06368599863475"><ele>280.0</ele><time>2026-05-01T07:24:40Z</time></trkpt><trkpt lat="45.81216256173266" lon="9.063690506358666"><ele>280.0</ele><time>2026-05-01T07:24:41Z</time></trkpt><trkpt lat="45.81207508673264" lon="9.063701148449923"><ele>280.0</ele><time>2026-05-01T07:24:42Z</time></trkpt><trkpt lat="45.81198466034259" lon="9.063692794267492"><ele>280.0</ele><time>2026-05-01T07:24:43Z</time></trkpt><trkpt lat="45.811902288867564" lon="9.063696759832144"><ele>280.0</ele><time>2026-05-01T07:24:44Z</time></trkpt><trkpt lat="45.811837854009454" lon="9.063705742918865"><ele>280.0</ele><time>2026-05-01T07:24:45Z</time></trkpt><trkpt lat="45.81176742911477" lon="9.063721129615585"><ele>280.0</ele><time>2026-05-01T07:24:47Z</time></trkpt><trkpt lat="45.81179625821668" lon="9.06384396743427"><ele>280.0</ele><time>2026-05-01T07:24:49Z</time></trkpt><trkpt lat="45.81186005624328" lon="9.063874300492314"><ele>280.0</ele><time>2026-05-01T07:24:50Z</time></trkpt><trkpt lat="45.81192216322306" lon="9.063918127093663"><ele>280.0</ele><time>2026-05-01T07:24:51Z</time></trkpt><trkpt lat="45.81198885529475" lon="9.063962230285382"><ele>280.0</ele><time>2026-05-01T07:24:52Z</time></trkpt><trkpt lat="45.81206786601088" lon="9.063994149042582"><ele>280.0</ele><time>2026-05-01T07:24:53Z</time></trkpt><trkpt lat="45.81213625248553" lon="9.064042041552854"><ele>280.0</ele><time>2026-05-01T07:24:54Z</time></trkpt><trkpt lat="45.812194953303376" lon="9.064101676934415"><ele>280.0</ele><time>2026-05-01T07:24:55Z</time></trkpt><trkpt lat="45.812246255590104" lon="9.064159376182829"><ele>280.0</ele><time>2026-05-01T07:24:56Z</time></trkpt><trkpt lat="45.8122966628637" lon="9.06425318260663"><ele>277.8</ele><time>2026-05-01T07:24:57Z</time></trkpt><trkpt lat="45.81233869189317" lon="9.064364114432466"><ele>275.6</ele><time>2026-05-01T07:24:58Z</time></trkpt><trkpt lat="45.81237516380622" lon="9.064494510533125"><ele>273.4</ele><time>2026-05-01T07:24:59Z</time></trkpt><trkpt lat="45.81240207885072" lon="9.064619327479779"><ele>271.2</ele><time>2026-05-01T07:25:00Z</time></trkpt><trkpt lat="45.81241844794476" lon="9.064748523586905"><ele>269.0</ele><time>2026-05-01T07:25:01Z</time></trkpt><trkpt lat="45.81242058946729" lon="9.064883375800042"><ele>267.59999999999997</ele><time>2026-05-01T07:25:02Z</time></trkpt><trkpt lat="45.81242932541772" lon="9.065030762912253"><ele>266.2</ele><time>2026-05-01T07:25:03Z</time></trkpt><trkpt lat="45.81245135570062" lon="9.065181728432659"><ele>264.79999999999995</ele><time>2026-05-01T07:25:04Z</time></trkpt><trkpt lat="45.812496378091616" lon="9.06532456903801"><ele>263.4</ele><time>2026-05-01T07:25:05Z</time></trkpt><trkpt lat="45.81255768597545" lon="9.065476144218515"><ele>262.0</ele><time>2026-05-01T07:25:06Z</time></trkpt><trkpt lat="45.81261250213225" lon="9.065621779960408"><ele>262.0</ele><time>2026-05-01T07:25:07Z</time></trkpt><trkpt lat="45.81261251948414" lon="9.065759845051375"><ele>262.0</ele><time>2026-05-01T07:25:08Z</time></trkpt><trkpt lat="45.81262227056099" lon="9.065894756835139"><ele>262.0</ele><time>2026-05-01T07:25:09Z</time></trkpt><trkpt lat="45.812690174432745" lon="9.066038150190307"><ele>262.0</ele><time>2026-05-01T07:25:10Z</time></trkpt><trkpt lat="45.8128240397037" lon="9.066187830741764"><ele>257.6</ele><time>2026-05-01T07:25:11Z</time></trkpt><trkpt lat="45.812871574104385" lon="9.06628977768362"><ele>253.2</ele><time>2026-05-01T07:25:12Z</time></trkpt><trkpt lat="45.81292232312715" lon="9.066355259528443"><ele>248.8</ele><time>2026-05-01T07:25:12.999Z</time></trkpt><trkpt lat="45.812992910075025" lon="9.066361034188642"><ele>244.4</ele><time>2026-05-01T07:25:13.999Z</time></trkpt><trkpt lat="45.81311719024345" lon="9.066205377308403"><ele>240.0</ele><time>2026-05-01T07:25:15.999Z</time></trkpt><trkpt lat="45.81317974399705" lon="9.066103059503481"><ele>240.0</ele><time>2026-05-01T07:25:16.999Z</time></trkpt><trkpt lat="45.81324340212729" lon="9.065970631925302"><ele>240.0</ele><time>2026-05-01T07:25:17.999Z</time></trkpt><trkpt lat="45.81331855380618" lon="9.065844883361926"><ele>240.0</ele><time>2026-05-01T07:25:18.999Z</time></trkpt><trkpt lat="45.81339867573089" lon="9.0657118674213"><ele>240.0</ele><time>2026-05-01T07:25:19.999Z</time></trkpt><trkpt lat="45.81347966491902" lon="9.065580185991871"><ele>238.2</ele><time>2026-05-01T07:25:20.999Z</time></trkpt><trkpt lat="45.8135529562095" lon="9.065465113698219"><ele>236.4</ele><time>2026-05-01T07:25:21.999Z</time></trkpt><trkpt lat="45.81362497409692" lon="9.065373238619541"><ele>234.60000000000002</ele><time>2026-05-01T07:25:22.999Z</time></trkpt><trkpt lat="45.81367932606429" lon="9.065287572707827"><ele>232.8</ele><time>2026-05-01T07:25:23.999Z</time></trkpt><trkpt lat="45.81374586807078" lon="9.065167961975707"><ele>231.0</ele><time>2026-05-01T07:25:25.999Z</time></trkpt><trkpt lat="45.813809637921416" lon="9.065102444570954"><ele>231.0</ele><time>2026-05-01T07:25:28.999Z</time></trkpt><trkpt lat="45.81386302317796" lon="9.065168999510185"><ele>231.00000000000003</ele><time>2026-05-01T07:25:31.999Z</time></trkpt><trkpt lat="45.8137504974385" lon="9.06534899055786"><ele>231.00000000000003</ele><time>2026-05-01T07:25:32.999Z</time></trkpt><trkpt lat="45.81369504248705" lon="9.065409079002427"><ele>231.0</ele><time>2026-05-01T07:25:33.999Z</time></trkpt><trkpt lat="45.813637528314715" lon="9.06550539182905"><ele>231.0</ele><time>2026-05-01T07:25:34.999Z</time></trkpt><trkpt lat="45.81357198823709" lon="9.065625619447365"><ele>231.0</ele><time>2026-05-01T07:25:35.999Z</time></trkpt><trkpt lat="45.81350327474378" lon="9.065751421265245"><ele>231.0</ele><time>2026-05-01T07:25:36.999Z</time></trkpt><trkpt lat="45.8134320964154" lon="9.06586436528185"><ele>231.0</ele><time>2026-05-01T07:25:37.999Z</time></trkpt><trkpt lat="45.81335726170534" lon="9.06601537879684"><ele>231.0</ele><time>2026-05-01T07:25:38.999Z</time></trkpt><trkpt lat="45.81323643772178" lon="9.066209860369257"><ele>233.25</ele><time>2026-05-01T07:25:39.999Z</time></trkpt><trkpt lat="45.813114908741" lon="9.066469204037212"><ele>235.5</ele><time>2026-05-01T07:25:40.999Z</time></trkpt><trkpt lat="45.81305286625516" lon="9.066545089301579"><ele>237.75</ele><time>2026-05-01T07:25:42.999Z</time></trkpt><trkpt lat="45.8129672077562" lon="9.066702034472664"><ele>240.0</ele><time>2026-05-01T07:25:43.999Z</time></trkpt><trkpt lat="45.812884858405106" lon="9.066864229874573"><ele>238.75</ele><time>2026-05-01T07:25:44.999Z</time></trkpt><trkpt lat="45.81279851844677" lon="9.06701488510323"><ele>237.5</ele><time>2026-05-01T07:25:45.999Z</time></trkpt><trkpt lat="45.81271234152597" lon="9.067159330784103"><ele>236.25</ele><time>2026-05-01T07:25:46.999Z</time></trkpt><trkpt lat="45.812625915731935" lon="9.067297526063848"><ele>235.0</ele><time>2026-05-01T07:25:47.999Z</time></trkpt><trkpt lat="45.812560558608006" lon="9.067457044092414"><ele>235.0</ele><time>2026-05-01T07:25:48.999Z</time></trkpt><trkpt lat="45.812481858580256" lon="9.067604225376927"><ele>235.0</ele><time>2026-05-01T07:25:49.999Z</time></trkpt><trkpt lat="45.81240043678448" lon="9.067757656396383"><ele>235.0</ele><time>2026-05-01T07:25:50.999Z</time></trkpt><trkpt lat="45.81231915508187" lon="9.067903621096354"><ele>235.0</ele><time>2026-05-01T07:25:51.999Z</time></trkpt><trkpt lat="45.81224165905357" lon="9.068053388009233"><ele>235.0</ele><time>2026-05-01T07:25:52.999Z</time></trkpt><trkpt lat="45.81216322984179" lon="9.068199299717365"><ele>235.0</ele><time>2026-05-01T07:25:53.999Z</time></trkpt><trkpt lat="45.81208919126153" lon="9.068339586829184"><ele>235.0</ele><time>2026-05-01T07:25:54.999Z</time></trkpt><trkpt lat="45.81201542362507" lon="9.06847634822066"><ele>235.0</ele><time>2026-05-01T07:25:55.999Z</time></trkpt><trkpt lat="45.81194153994072" lon="9.068605220998647"><ele>237.33333333333331</ele><time>2026-05-01T07:25:56.999Z</time></trkpt><trkpt lat="45.81187611305291" lon="9.06871443067482"><ele>239.66666666666666</ele><time>2026-05-01T07:25:57.999Z</time></trkpt><trkpt lat="45.81182227985767" lon="9.06881187723139"><ele>242.0</ele><time>2026-05-01T07:25:58.999Z</time></trkpt><trkpt lat="45.811771723054754" lon="9.068898510065791"><ele>244.33333333333331</ele><time>2026-05-01T07:25:59.999Z</time></trkpt><trkpt lat="45.81175990341016" lon="9.069006922721385"><ele>246.66666666666666</ele><time>2026-05-01T07:26:00.999Z</time></trkpt><trkpt lat="45.811762655860974" lon="9.069121110521733"><ele>249.0</ele><time>2026-05-01T07:26:01.999Z</time></trkpt><trkpt lat="45.81179999477034" lon="9.0691953893221"><ele>242.16666666666666</ele><time>2026-05-01T07:26:02.999Z</time></trkpt><trkpt lat="45.811832855088156" lon="9.06930472321062"><ele>235.33333333333331</ele><time>2026-05-01T07:26:03.999Z</time></trkpt><trkpt lat="45.81186650584451" lon="9.069403098027195"><ele>228.5</ele><time>2026-05-01T07:26:04.999Z</time></trkpt><trkpt lat="45.81190897681412" lon="9.069470762025023"><ele>221.66666666666666</ele><time>2026-05-01T07:26:05.999Z</time></trkpt><trkpt lat="45.811933394486964" lon="9.069561392371076"><ele>214.83333333333331</ele><time>2026-05-01T07:26:06.999Z</time></trkpt><trkpt lat="45.81195719432432" lon="9.069655075075636"><ele>208.0</ele><time>2026-05-01T07:26:07.999Z</time></trkpt><trkpt lat="45.81202372330209" lon="9.069805051564517"><ele>208.0</ele><time>2026-05-01T07:26:09.999Z</time></trkpt><trkpt lat="45.81208207211904" lon="9.069868393523072"><ele>208.0</ele><time>2026-05-01T07:26:11.999Z</time></trkpt><trkpt lat="45.812127991411046" lon="9.06994762143188"><ele>208.0</ele><time>2026-05-01T07:26:13.999Z</time></trkpt><trkpt lat="45.812204790968025" lon="9.07008628556975"><ele>208.0</ele><time>2026-05-01T07:26:15.999Z</time></trkpt><trkpt lat="45.81226496967494" lon="9.070308558990716"><ele>208.0</ele><time>2026-05-01T07:26:17.999Z</time></trkpt><trkpt lat="45.812257483816396" lon="9.0704100688791"><ele>207.83333333333331</ele><time>2026-05-01T07:26:18.998Z</time></trkpt><trkpt lat="45.812276862573874" lon="9.070575182676277"><ele>207.66666666666666</ele><time>2026-05-01T07:26:19.998Z</time></trkpt><trkpt lat="45.812314408660065" lon="9.07069669103746"><ele>207.5</ele><time>2026-05-01T07:26:20.998Z</time></trkpt><trkpt lat="45.81232553342235" lon="9.070804665686381"><ele>207.33333333333331</ele><time>2026-05-01T07:26:21.998Z</time></trkpt><trkpt lat="45.812342695650315" lon="9.070914214339725"><ele>207.16666666666666</ele><time>2026-05-01T07:26:22.998Z</time></trkpt><trkpt lat="45.81236059351495" lon="9.07102270745902"><ele>207.0</ele><time>2026-05-01T07:26:23.998Z</time></trkpt><trkpt lat="45.81237244329609" lon="9.071131819255665"><ele>207.0</ele><time>2026-05-01T07:26:24.998Z</time></trkpt><trkpt lat="45.812388485522355" lon="9.07124666187534"><ele>207.0</ele><time>2026-05-01T07:26:25.998Z</time></trkpt><trkpt lat="45.812400154634226" lon="9.071363404711828"><ele>207.0</ele><time>2026-05-01T07:26:26.998Z</time></trkpt><trkpt lat="45.81241110269119" lon="9.071462707730218"><ele>207.0</ele><time>2026-05-01T07:26:27.998Z</time></trkpt><trkpt lat="45.81242647739844" lon="9.07155823996368"><ele>207.0</ele><time>2026-05-01T07:26:28.998Z</time></trkpt><trkpt lat="45.81242638009364" lon="9.071722948258412"><ele>207.0</ele><time>2026-05-01T07:26:30.998Z</time></trkpt><trkpt lat="45.81238012485313" lon="9.071889814408522"><ele>207.0</ele><time>2026-05-01T07:26:32.998Z</time></trkpt><trkpt lat="45.8123414515714" lon="9.07196163429229"><ele>207.0</ele><time>2026-05-01T07:26:33.998Z</time></trkpt><trkpt lat="45.81229053134893" lon="9.072071633519283"><ele>207.0</ele><time>2026-05-01T07:26:36Z</time></trkpt><trkpt lat="45.81225578896977" lon="9.072160750613945"><ele>207.0</ele><time>2026-05-01T07:26:38Z</time></trkpt><trkpt lat="45.812170757126076" lon="9.072287015830799"><ele>207.0</ele><time>2026-05-01T07:26:40Z</time></trkpt><trkpt lat="45.8121183658096" lon="9.072367938714514"><ele>207.0</ele><time>2026-05-01T07:26:41Z</time></trkpt><trkpt lat="45.81204093730745" lon="9.072437129298654"><ele>206.75</ele><time>2026-05-01T07:26:42Z</time></trkpt><trkpt lat="45.811956572764686" lon="9.07255270687946"><ele>206.5</ele><time>2026-05-01T07:26:43Z</time></trkpt><trkpt lat="45.81186272562106" lon="9.072653580122726"><ele>206.25</ele><time>2026-05-01T07:26:44Z</time></trkpt><trkpt lat="45.81177516697562" lon="9.072736280969197"><ele>206.0</ele><time>2026-05-01T07:26:45Z</time></trkpt><trkpt lat="45.81168084239706" lon="9.072828790917848"><ele>206.0</ele><time>2026-05-01T07:26:46Z</time></trkpt><trkpt lat="45.811586682392225" lon="9.0729450546355"><ele>206.0</ele><time>2026-05-01T07:26:47Z</time></trkpt><trkpt lat="45.811477611383076" lon="9.073046980362493"><ele>206.0</ele><time>2026-05-01T07:26:48Z</time></trkpt><trkpt lat="45.811386244666224" lon="9.0731376009664"><ele>206.0</ele><time>2026-05-01T07:26:49Z</time></trkpt><trkpt lat="45.81131513525113" lon="9.073230072482072"><ele>206.33333333333334</ele><time>2026-05-01T07:26:50Z</time></trkpt><trkpt lat="45.81123562289677" lon="9.073313315243636"><ele>206.66666666666669</ele><time>2026-05-01T07:26:51Z</time></trkpt><trkpt lat="45.81116168830453" lon="9.073389961777549"><ele>207.0</ele><time>2026-05-01T07:26:52Z</time></trkpt><trkpt lat="45.81109392706975" lon="9.073454138480058"><ele>207.33333333333331</ele><time>2026-05-01T07:26:53Z</time></trkpt><trkpt lat="45.81104038314714" lon="9.073537270065223"><ele>207.66666666666666</ele><time>2026-05-01T07:26:54Z</time></trkpt><trkpt lat="45.810993669106665" lon="9.073631956655234"><ele>208.0</ele><time>2026-05-01T07:26:55Z</time></trkpt><trkpt lat="45.81093762660836" lon="9.07373439917837"><ele>208.0</ele><time>2026-05-01T07:26:56Z</time></trkpt><trkpt lat="45.81089876204066" lon="9.073846568059189"><ele>208.0</ele><time>2026-05-01T07:26:57Z</time></trkpt><trkpt lat="45.81083873375715" lon="9.073930831303514"><ele>208.0</ele><time>2026-05-01T07:26:58Z</time></trkpt><trkpt lat="45.8107784065187" lon="9.074028729396677"><ele>208.0</ele><time>2026-05-01T07:26:59Z</time></trkpt><trkpt lat="45.81068180113702" lon="9.07408809747248"><ele>208.0</ele><time>2026-05-01T07:27:00Z</time></trkpt><trkpt lat="45.81056750911479" lon="9.074075252047226"><ele>208.4</ele><time>2026-05-01T07:27:01Z</time></trkpt><trkpt lat="45.81046467676769" lon="9.074134098771646"><ele>208.8</ele><time>2026-05-01T07:27:02Z</time></trkpt><trkpt lat="45.81035969376046" lon="9.074186122442535"><ele>209.2</ele><time>2026-05-01T07:27:03Z</time></trkpt><trkpt lat="45.81024777725901" lon="9.074247003514234"><ele>209.6</ele><time>2026-05-01T07:27:04Z</time></trkpt><trkpt lat="45.81017038822172" lon="9.074334283983976"><ele>210.0</ele><time>2026-05-01T07:27:05Z</time></trkpt><trkpt lat="45.810100850486116" lon="9.074410490123597"><ele>210.0</ele><time>2026-05-01T07:27:06Z</time></trkpt><trkpt lat="45.81004017737689" lon="9.074473812724598"><ele>210.0</ele><time>2026-05-01T07:27:07Z</time></trkpt><trkpt lat="45.809973802062395" lon="9.074514090084934"><ele>210.0</ele><time>2026-05-01T07:27:08Z</time></trkpt><trkpt lat="45.80989673243235" lon="9.074626733327301"><ele>210.0</ele><time>2026-05-01T07:27:10Z</time></trkpt><trkpt lat="45.80984513375075" lon="9.074680357784276"><ele>210.0</ele><time>2026-05-01T07:27:12Z</time></trkpt><trkpt lat="45.80975781712415" lon="9.074752594714635"><ele>210.0</ele><time>2026-05-01T07:27:52.999Z</time></trkpt><trkpt lat="45.80969322246015" lon="9.074814917020957"><ele>210.0</ele><time>2026-05-01T07:27:53.999Z</time></trkpt><trkpt lat="45.809619104304154" lon="9.074888778205898"><ele>210.0</ele><time>2026-05-01T07:27:54.999Z</time></trkpt><trkpt lat="45.80953414779072" lon="9.074980437453988"><ele>210.0</ele><time>2026-05-01T07:27:55.999Z</time></trkpt><trkpt lat="45.8094470273899" lon="9.075074520697656"><ele>210.0</ele><time>2026-05-01T07:27:56.999Z</time></trkpt><trkpt lat="45.80934755484771" lon="9.075167325250488"><ele>210.0</ele><time>2026-05-01T07:27:57.999Z</time></trkpt><trkpt lat="45.80923037408573" lon="9.075289491504424"><ele>208.75</ele><time>2026-05-01T07:27:58.999Z</time></trkpt><trkpt lat="45.80908187757011" lon="9.075433568200046"><ele>207.5</ele><time>2026-05-01T07:27:59.999Z</time></trkpt><trkpt lat="45.80899783965786" lon="9.075508689549435"><ele>206.25</ele><time>2026-05-01T07:28:00.999Z</time></trkpt><trkpt lat="45.80888780087375" lon="9.075614246138588"><ele>205.0</ele><time>2026-05-01T07:28:01.999Z</time></trkpt><trkpt lat="45.80877338928611" lon="9.075722010928873"><ele>205.25</ele><time>2026-05-01T07:28:02.999Z</time></trkpt><trkpt lat="45.80865187228718" lon="9.075834112630998"><ele>205.5</ele><time>2026-05-01T07:28:03.999Z</time></trkpt><trkpt lat="45.808537486471174" lon="9.075938670776967"><ele>205.75</ele><time>2026-05-01T07:28:04.999Z</time></trkpt><trkpt lat="45.808429365723285" lon="9.07603504221167"><ele>206.0</ele><time>2026-05-01T07:28:05.999Z</time></trkpt><trkpt lat="45.80832787642087" lon="9.076126349388932"><ele>206.00000000000003</ele><time>2026-05-01T07:28:06.999Z</time></trkpt><trkpt lat="45.80823864046461" lon="9.076204275927521"><ele>206.0</ele><time>2026-05-01T07:28:07.999Z</time></trkpt><trkpt lat="45.80816550556099" lon="9.076269306159872"><ele>206.0</ele><time>2026-05-01T07:28:08.999Z</time></trkpt><trkpt lat="45.80809591152875" lon="9.076333575388574"><ele>206.0</ele><time>2026-05-01T07:28:09.999Z</time></trkpt><trkpt lat="45.808033020848065" lon="9.076393399562782"><ele>206.00000000000003</ele><time>2026-05-01T07:28:10.999Z</time></trkpt><trkpt lat="45.807975571100584" lon="9.076443908921247"><ele>206.0</ele><time>2026-05-01T07:28:11.999Z</time></trkpt><trkpt lat="45.80787252489619" lon="9.076537149387043"><ele>205.8</ele><time>2026-05-01T07:28:13.999Z</time></trkpt><trkpt lat="45.80775589850399" lon="9.076644042376351"><ele>205.60000000000002</ele><time>2026-05-01T07:28:16.999Z</time></trkpt><trkpt lat="45.80768453455308" lon="9.076705392293903"><ele>205.4</ele><time>2026-05-01T07:28:18.999Z</time></trkpt><trkpt lat="45.80762666526058" lon="9.076804596486491"><ele>205.2</ele><time>2026-05-01T07:28:20.999Z</time></trkpt><trkpt lat="45.80757372814212" lon="9.076862696662213"><ele>205.0</ele><time>2026-05-01T07:29:13Z</time></trkpt><trkpt lat="45.80769707485511" lon="9.077037950648206"><ele>205.0</ele><time>2026-05-01T07:29:16Z</time></trkpt><trkpt lat="45.807731668997214" lon="9.077141589340469"><ele>205.0</ele><time>2026-05-01T07:29:17Z</time></trkpt><trkpt lat="45.80779077456783" lon="9.077303936280282"><ele>205.0</ele><time>2026-05-01T07:29:18Z</time></trkpt><trkpt lat="45.807867100929606" lon="9.07755248247867"><ele>205.0</ele><time>2026-05-01T07:29:19Z</time></trkpt><trkpt lat="45.80795657010151" lon="9.07773741870405"><ele>205.49999999999997</ele><time>2026-05-01T07:29:22Z</time></trkpt><trkpt lat="45.80800710255289" lon="9.077871739344888"><ele>206.0</ele><time>2026-05-01T07:29:23Z</time></trkpt><trkpt lat="45.80805097620591" lon="9.077992968454284"><ele>206.5</ele><time>2026-05-01T07:29:24Z</time></trkpt><trkpt lat="45.80808734988527" lon="9.078101062057991"><ele>207.0</ele><time>2026-05-01T07:29:25Z</time></trkpt><trkpt lat="45.80811939663204" lon="9.078211650423448"><ele>207.49999999999997</ele><time>2026-05-01T07:29:26Z</time></trkpt><trkpt lat="45.80814993295297" lon="9.078300216937237"><ele>208.0</ele><time>2026-05-01T07:29:27Z</time></trkpt><trkpt lat="45.80818158834165" lon="9.078389198012932"><ele>208.2</ele><time>2026-05-01T07:29:28Z</time></trkpt><trkpt lat="45.80822657066861" lon="9.078530570319856"><ele>208.4</ele><time>2026-05-01T07:29:29.999Z</time></trkpt><trkpt lat="45.80816547899756" lon="9.078577854663878"><ele>208.6</ele><time>2026-05-01T07:29:31.999Z</time></trkpt><trkpt lat="45.80803916703899" lon="9.07863426080587"><ele>208.79999999999998</ele><time>2026-05-01T07:29:33.999Z</time></trkpt><trkpt lat="45.80798000664677" lon="9.07869910346745"><ele>209.0</ele><time>2026-05-01T07:29:34.999Z</time></trkpt><trkpt lat="45.8079038071549" lon="9.07875433780276"><ele>209.0</ele><time>2026-05-01T07:29:35.999Z</time></trkpt><trkpt lat="45.807833114763646" lon="9.078829897332398"><ele>209.0</ele><time>2026-05-01T07:29:36.999Z</time></trkpt><trkpt lat="45.807748340572324" lon="9.078899498695552"><ele>209.0</ele><time>2026-05-01T07:29:37.999Z</time></trkpt><trkpt lat="45.807662037469534" lon="9.078974927189023"><ele>209.0</ele><time>2026-05-01T07:29:38.999Z</time></trkpt><trkpt lat="45.807568779477215" lon="9.079046563530556"><ele>209.0</ele><time>2026-05-01T07:29:39.999Z</time></trkpt><trkpt lat="45.80747206794117" lon="9.079126004509954"><ele>208.6</ele><time>2026-05-01T07:29:40.999Z</time></trkpt><trkpt lat="45.8073751353101" lon="9.079206111077497"><ele>208.2</ele><time>2026-05-01T07:29:41.999Z</time></trkpt><trkpt lat="45.80727978270048" lon="9.079295177465736"><ele>207.79999999999998</ele><time>2026-05-01T07:29:42.999Z</time></trkpt><trkpt lat="45.80720345388041" lon="9.07938013986486"><ele>207.39999999999998</ele><time>2026-05-01T07:29:43.999Z</time></trkpt><trkpt lat="45.80711936572329" lon="9.079468126911236"><ele>207.0</ele><time>2026-05-01T07:29:44.999Z</time></trkpt><trkpt lat="45.80704027873364" lon="9.079556188243126"><ele>207.0</ele><time>2026-05-01T07:29:45.999Z</time></trkpt><trkpt lat="45.80693652320006" lon="9.079604177457604"><ele>207.0</ele><time>2026-05-01T07:29:46.999Z</time></trkpt><trkpt lat="45.80684878272833" lon="9.079681463880764"><ele>207.0</ele><time>2026-05-01T07:29:47.999Z</time></trkpt><trkpt lat="45.80675569833408" lon="9.07972681019392"><ele>207.0</ele><time>2026-05-01T07:29:48.999Z</time></trkpt><trkpt lat="45.80668618314506" lon="9.079786791911548"><ele>207.0</ele><time>2026-05-01T07:29:49.999Z</time></trkpt><trkpt lat="45.806623934647575" lon="9.079803785263314"><ele>207.0</ele><time>2026-05-01T07:29:51.999Z</time></trkpt><trkpt lat="45.806540129965086" lon="9.079792484931398"><ele>207.0</ele><time>2026-05-01T07:29:54.999Z</time></trkpt><trkpt lat="45.806640866825724" lon="9.080076333268597"><ele>207.0</ele><time>2026-05-01T07:29:55.999Z</time></trkpt><trkpt lat="45.806652261183935" lon="9.080185978952963"><ele>207.0</ele><time>2026-05-01T07:29:56.999Z</time></trkpt><trkpt lat="45.80668229931779" lon="9.08029855579366"><ele>207.0</ele><time>2026-05-01T07:29:57.999Z</time></trkpt><trkpt lat="45.806710957053156" lon="9.080413780292227"><ele>207.0</ele><time>2026-05-01T07:29:58.999Z</time></trkpt><trkpt lat="45.8067418744596" lon="9.080522897750546"><ele>207.0</ele><time>2026-05-01T07:29:59.999Z</time></trkpt><trkpt lat="45.80676666648438" lon="9.080609789043036"><ele>207.0</ele><time>2026-05-01T07:30:00.999Z</time></trkpt><trkpt lat="45.80678957367458" lon="9.080699887130583"><ele>207.0</ele><time>2026-05-01T07:30:01.999Z</time></trkpt><trkpt lat="45.806810219570465" lon="9.08085074929086"><ele>207.0</ele><time>2026-05-01T07:30:03.999Z</time></trkpt><trkpt lat="45.806815814792245" lon="9.080973766465851"><ele>207.0</ele><time>2026-05-01T07:30:05.999Z</time></trkpt><trkpt lat="45.80675683834193" lon="9.081078682017685"><ele>207.0</ele><time>2026-05-01T07:30:07.999Z</time></trkpt><trkpt lat="45.806694118149494" lon="9.081125951568064"><ele>207.0</ele><time>2026-05-01T07:30:08.999Z</time></trkpt><trkpt lat="45.806621667098455" lon="9.081181680326658"><ele>207.0</ele><time>2026-05-01T07:30:09.999Z</time></trkpt><trkpt lat="45.80653897159634" lon="9.081256826359871"><ele>207.0</ele><time>2026-05-01T07:30:10.999Z</time></trkpt><trkpt lat="45.806448581191134" lon="9.081348068909874"><ele>207.0</ele><time>2026-05-01T07:30:11.999Z</time></trkpt><trkpt lat="45.80636426242689" lon="9.081455712091499"><ele>207.0</ele><time>2026-05-01T07:30:12.999Z</time></trkpt><trkpt lat="45.80627303311356" lon="9.081547086367443"><ele>207.0</ele><time>2026-05-01T07:30:13.999Z</time></trkpt><trkpt lat="45.80617175182168" lon="9.081652053876706"><ele>207.0</ele><time>2026-05-01T07:30:14.999Z</time></trkpt><trkpt lat="45.80607137379566" lon="9.081757982237338"><ele>207.0</ele><time>2026-05-01T07:30:15.999Z</time></trkpt><trkpt lat="45.80596737670102" lon="9.081873539525114"><ele>207.0</ele><time>2026-05-01T07:30:16.999Z</time></trkpt><trkpt lat="45.805858618075355" lon="9.08198416646581"><ele>207.0</ele><time>2026-05-01T07:30:17.999Z</time></trkpt><trkpt lat="45.8057136814925" lon="9.08210236831978"><ele>207.0</ele><time>2026-05-01T07:30:18.999Z</time></trkpt><trkpt lat="45.805608068574315" lon="9.082217985565121"><ele>207.0</ele><time>2026-05-01T07:30:19.999Z</time></trkpt><trkpt lat="45.80551618303202" lon="9.08232069224421"><ele>207.0</ele><time>2026-05-01T07:30:20.999Z</time></trkpt><trkpt lat="45.80543431739763" lon="9.082426263851668"><ele>207.0</ele><time>2026-05-01T07:30:21.999Z</time></trkpt><trkpt lat="45.80536803489455" lon="9.082507222836174"><ele>207.0</ele><time>2026-05-01T07:30:22.999Z</time></trkpt><trkpt lat="45.80528990655471" lon="9.082590189429446"><ele>207.0</ele><time>2026-05-01T07:30:23.999Z</time></trkpt><trkpt lat="45.8052858223617" lon="9.08273973477855"><ele>207.39999999999998</ele><time>2026-05-01T07:30:24.999Z</time></trkpt><trkpt lat="45.80528211931799" lon="9.082886266719196"><ele>207.79999999999998</ele><time>2026-05-01T07:30:25.999Z</time></trkpt><trkpt lat="45.80529642199862" lon="9.083016269320689"><ele>208.2</ele><time>2026-05-01T07:30:26.999Z</time></trkpt><trkpt lat="45.805390955747676" lon="9.083137005272905"><ele>208.6</ele><time>2026-05-01T07:30:27.999Z</time></trkpt><trkpt lat="45.80547126648223" lon="9.083267736104787"><ele>209.0</ele><time>2026-05-01T07:30:28.999Z</time></trkpt><trkpt lat="45.805528052219735" lon="9.083407969652132"><ele>209.25</ele><time>2026-05-01T07:30:29.999Z</time></trkpt><trkpt lat="45.80559760870491" lon="9.083514303978015"><ele>209.5</ele><time>2026-05-01T07:30:30.999Z</time></trkpt><trkpt lat="45.80566675115267" lon="9.08364238119588"><ele>209.75</ele><time>2026-05-01T07:30:31.999Z</time></trkpt><trkpt lat="45.80573225533375" lon="9.083791223031776"><ele>210.0</ele><time>2026-05-01T07:30:32.999Z</time></trkpt><trkpt lat="45.80579897806071" lon="9.083929180647877"><ele>210.0</ele><time>2026-05-01T07:30:33.999Z</time></trkpt><trkpt lat="45.80587313094714" lon="9.084063715534834"><ele>210.0</ele><time>2026-05-01T07:30:34.999Z</time></trkpt><trkpt lat="45.80593652621235" lon="9.084197436178"><ele>210.0</ele><time>2026-05-01T07:30:35.998Z</time></trkpt><trkpt lat="45.80599851401001" lon="9.084323617486834"><ele>210.0</ele><time>2026-05-01T07:30:36.998Z</time></trkpt><trkpt lat="45.8060567086028" lon="9.084435002702472"><ele>210.0</ele><time>2026-05-01T07:30:37.998Z</time></trkpt><trkpt lat="45.80610948764461" lon="9.084538300217192"><ele>210.66666666666666</ele><time>2026-05-01T07:30:38.998Z</time></trkpt><trkpt lat="45.80615355788513" lon="9.084633489738701"><ele>211.33333333333331</ele><time>2026-05-01T07:30:39.998Z</time></trkpt><trkpt lat="45.80619664225298" lon="9.084722194361925"><ele>212.0</ele><time>2026-05-01T07:30:40.998Z</time></trkpt><trkpt lat="45.806230114881245" lon="9.084799231970965"><ele>212.66666666666666</ele><time>2026-05-01T07:30:41.998Z</time></trkpt><trkpt lat="45.8062845288801" lon="9.084918002022249"><ele>213.33333333333331</ele><time>2026-05-01T07:30:43.998Z</time></trkpt><trkpt lat="45.80632286902732" lon="9.085011169899524"><ele>214.0</ele><time>2026-05-01T07:30:46.998Z</time></trkpt><trkpt lat="45.80637983407441" lon="9.085152051806585"><ele>214.2</ele><time>2026-05-01T07:31:02Z</time></trkpt><trkpt lat="45.80641643654857" lon="9.085240153231592"><ele>214.39999999999998</ele><time>2026-05-01T07:31:03Z</time></trkpt><trkpt lat="45.806460578309206" lon="9.08534639929371"><ele>214.6</ele><time>2026-05-01T07:31:04Z</time></trkpt><trkpt lat="45.806521765913566" lon="9.085472405624225"><ele>214.8</ele><time>2026-05-01T07:31:05Z</time></trkpt><trkpt lat="45.806584320533126" lon="9.085584433862863"><ele>215.0</ele><time>2026-05-01T07:31:06Z</time></trkpt><trkpt lat="45.806631971807114" lon="9.08570503319564"><ele>214.75</ele><time>2026-05-01T07:31:07Z</time></trkpt><trkpt lat="45.80670267971596" lon="9.08583325638119"><ele>214.5</ele><time>2026-05-01T07:31:08Z</time></trkpt><trkpt lat="45.8067854352716" lon="9.085992081007099"><ele>214.25</ele><time>2026-05-01T07:31:09Z</time></trkpt><trkpt lat="45.806859577557674" lon="9.086154636193713"><ele>214.0</ele><time>2026-05-01T07:31:10Z</time></trkpt><trkpt lat="45.806940627586684" lon="9.08631366487468"><ele>214.0</ele><time>2026-05-01T07:31:11Z</time></trkpt><trkpt lat="45.80701229897119" lon="9.086479564904769"><ele>214.0</ele><time>2026-05-01T07:31:12Z</time></trkpt><trkpt lat="45.807089640289796" lon="9.086631507390962"><ele>214.0</ele><time>2026-05-01T07:31:13Z</time></trkpt><trkpt lat="45.80713324626011" lon="9.086721655248752"><ele>214.0</ele><time>2026-05-01T07:31:14Z</time></trkpt><trkpt lat="45.80721147183183" lon="9.086851387304938"><ele>214.2</ele><time>2026-05-01T07:31:41.999Z</time></trkpt><trkpt lat="45.80725667848782" lon="9.086933213367406"><ele>214.39999999999998</ele><time>2026-05-01T07:31:42.999Z</time></trkpt><trkpt lat="45.80730598436399" lon="9.087035802232899"><ele>214.6</ele><time>2026-05-01T07:31:43.999Z</time></trkpt><trkpt lat="45.80735660514718" lon="9.087141188236457"><ele>214.8</ele><time>2026-05-01T07:31:44.999Z</time></trkpt><trkpt lat="45.80741365987248" lon="9.087285362075345"><ele>215.0</ele><time>2026-05-01T07:31:45.999Z</time></trkpt><trkpt lat="45.80747204524422" lon="9.08740123427872"><ele>215.2</ele><time>2026-05-01T07:31:46.999Z</time></trkpt><trkpt lat="45.80752198651571" lon="9.08752993075548"><ele>215.4</ele><time>2026-05-01T07:31:47.999Z</time></trkpt><trkpt lat="45.80758181657801" lon="9.087664088450865"><ele>215.60000000000002</ele><time>2026-05-01T07:31:48.999Z</time></trkpt><trkpt lat="45.80764492789718" lon="9.087797792765668"><ele>215.8</ele><time>2026-05-01T07:31:49.999Z</time></trkpt><trkpt lat="45.80771124321028" lon="9.087938454525126"><ele>216.0</ele><time>2026-05-01T07:31:50.999Z</time></trkpt><trkpt lat="45.807782471733" lon="9.088066924547238"><ele>215.5</ele><time>2026-05-01T07:31:51.999Z</time></trkpt><trkpt lat="45.807837869213344" lon="9.08818373448691"><ele>215.0</ele><time>2026-05-01T07:31:52.999Z</time></trkpt><trkpt lat="45.80788215191682" lon="9.088276398218765"><ele>214.5</ele><time>2026-05-01T07:31:53.999Z</time></trkpt><trkpt lat="45.80791899691843" lon="9.088358912004134"><ele>214.0</ele><time>2026-05-01T07:31:54.999Z</time></trkpt><trkpt lat="45.807988309580864" lon="9.088479427361827"><ele>213.5</ele><time>2026-05-01T07:31:56.999Z</time></trkpt><trkpt lat="45.80803813343395" lon="9.088556425904176"><ele>213.0</ele><time>2026-05-01T07:31:58.999Z</time></trkpt><trkpt lat="45.808191632376754" lon="9.088401695019357"><ele>213.0</ele><time>2026-05-01T07:32:00.999Z</time></trkpt><trkpt lat="45.80825191261868" lon="9.088331458360635"><ele>213.0</ele><time>2026-05-01T07:32:01.999Z</time></trkpt><trkpt lat="45.80833124736489" lon="9.088245410379866"><ele>213.0</ele><time>2026-05-01T07:32:02.999Z</time></trkpt><trkpt lat="45.80841824973965" lon="9.08816981525822"><ele>213.0</ele><time>2026-05-01T07:32:03.999Z</time></trkpt><trkpt lat="45.808508210813876" lon="9.088095161354403"><ele>213.0</ele><time>2026-05-01T07:32:04.999Z</time></trkpt><trkpt lat="45.808601814817784" lon="9.088015937822172"><ele>212.5</ele><time>2026-05-01T07:32:05.999Z</time></trkpt><trkpt lat="45.80870290081785" lon="9.087927416042653"><ele>212.0</ele><time>2026-05-01T07:32:06.999Z</time></trkpt><trkpt lat="45.80880351828586" lon="9.08783387095935"><ele>211.5</ele><time>2026-05-01T07:32:07.999Z</time></trkpt><trkpt lat="45.8088941275079" lon="9.087747068378945"><ele>211.0</ele><time>2026-05-01T07:32:08.999Z</time></trkpt><trkpt lat="45.8090107398073" lon="9.087672050163896"><ele>211.0</ele><time>2026-05-01T07:32:10.999Z</time></trkpt><trkpt lat="45.80912823634855" lon="9.087565810970958"><ele>211.0</ele><time>2026-05-01T07:32:11.999Z</time></trkpt><trkpt lat="45.809309283539434" lon="9.08732690181467"><ele>211.0</ele><time>2026-05-01T07:32:12.999Z</time></trkpt><trkpt lat="45.809475967911446" lon="9.087202234303666"><ele>210.5</ele><time>2026-05-01T07:32:13.999Z</time></trkpt><trkpt lat="45.809605819870235" lon="9.08709316547717"><ele>210.0</ele><time>2026-05-01T07:32:14.999Z</time></trkpt><trkpt lat="45.809742857062275" lon="9.087002738803008"><ele>209.5</ele><time>2026-05-01T07:32:15.999Z</time></trkpt><trkpt lat="45.80980982504418" lon="9.08692468904246"><ele>209.0</ele><time>2026-05-01T07:32:16.999Z</time></trkpt><trkpt lat="45.809909511093224" lon="9.08683301476641"><ele>209.0</ele><time>2026-05-01T07:32:17.999Z</time></trkpt><trkpt lat="45.81001849368041" lon="9.086749037731892"><ele>209.0</ele><time>2026-05-01T07:32:18.999Z</time></trkpt><trkpt lat="45.810130917734135" lon="9.086655236963901"><ele>209.0</ele><time>2026-05-01T07:32:19.999Z</time></trkpt><trkpt lat="45.810244285240245" lon="9.086557964399312"><ele>209.0</ele><time>2026-05-01T07:32:20.999Z</time></trkpt><trkpt lat="45.810367166792055" lon="9.086471787971968"><ele>207.75</ele><time>2026-05-01T07:32:21.999Z</time></trkpt><trkpt lat="45.81048839266356" lon="9.086370086420951"><ele>206.5</ele><time>2026-05-01T07:32:22.999Z</time></trkpt><trkpt lat="45.81061398803805" lon="9.086290149478918"><ele>205.25</ele><time>2026-05-01T07:32:23.999Z</time></trkpt><trkpt lat="45.81073796044834" lon="9.086218152114919"><ele>204.0</ele><time>2026-05-01T07:32:24.999Z</time></trkpt><trkpt lat="45.81084870177707" lon="9.086144040349255"><ele>204.0</ele><time>2026-05-01T07:32:25.999Z</time></trkpt><trkpt lat="45.81094607314732" lon="9.086060419383902"><ele>204.0</ele><time>2026-05-01T07:32:26.999Z</time></trkpt><trkpt lat="45.81105035034937" lon="9.085997670671253"><ele>204.0</ele><time>2026-05-01T07:32:27.999Z</time></trkpt><trkpt lat="45.811149164920316" lon="9.085935705857077"><ele>204.0</ele><time>2026-05-01T07:32:28.999Z</time></trkpt><trkpt lat="45.81125027885141" lon="9.085863020467"><ele>204.0</ele><time>2026-05-01T07:32:29.999Z</time></trkpt><trkpt lat="45.811358905790655" lon="9.085783972652655"><ele>205.5</ele><time>2026-05-01T07:32:30.999Z</time></trkpt><trkpt lat="45.811474856728246" lon="9.085709556172095"><ele>207.0</ele><time>2026-05-01T07:32:31.999Z</time></trkpt><trkpt lat="45.8115859861643" lon="9.085630015457905"><ele>208.5</ele><time>2026-05-01T07:32:32.999Z</time></trkpt><trkpt lat="45.81169362154805" lon="9.085561584039418"><ele>210.0</ele><time>2026-05-01T07:32:33.999Z</time></trkpt><trkpt lat="45.8117907873896" lon="9.085492155874936"><ele>209.2</ele><time>2026-05-01T07:32:34.999Z</time></trkpt><trkpt lat="45.8118762650891" lon="9.085422361501637"><ele>208.4</ele><time>2026-05-01T07:32:35.999Z</time></trkpt><trkpt lat="45.81197901900178" lon="9.085423680277906"><ele>207.60000000000002</ele><time>2026-05-01T07:32:36.999Z</time></trkpt><trkpt lat="45.81204388610329" lon="9.0853922104154"><ele>206.8</ele><time>2026-05-01T07:32:37.999Z</time></trkpt><trkpt lat="45.81214479059875" lon="9.085349269082725"><ele>206.0</ele><time>2026-05-01T07:32:39.999Z</time></trkpt><trkpt lat="45.812232114102386" lon="9.085305153723972"><ele>206.0</ele><time>2026-05-01T07:32:41.999Z</time></trkpt><trkpt lat="45.81233497829828" lon="9.085260019319124"><ele>206.0</ele><time>2026-05-01T07:32:43.998Z</time></trkpt><trkpt lat="45.81245886502345" lon="9.08522865856844"><ele>206.0</ele><time>2026-05-01T07:32:45.998Z</time></trkpt><trkpt lat="45.81253263761504" lon="9.085208440926738"><ele>206.0</ele><time>2026-05-01T07:32:46.998Z</time></trkpt><trkpt lat="45.81261245174462" lon="9.085179363224404"><ele>206.0</ele><time>2026-05-01T07:32:47.998Z</time></trkpt><trkpt lat="45.81271094166835" lon="9.0851695113816"><ele>206.25</ele><time>2026-05-01T07:32:48.998Z</time></trkpt><trkpt lat="45.81284157883918" lon="9.085119508537307"><ele>206.5</ele><time>2026-05-01T07:32:49.998Z</time></trkpt><trkpt lat="45.81298009371781" lon="9.085065539337974"><ele>206.75</ele><time>2026-05-01T07:32:50.998Z</time></trkpt><trkpt lat="45.81313301804656" lon="9.084994945534675"><ele>207.0</ele><time>2026-05-01T07:32:51.998Z</time></trkpt><trkpt lat="45.8132954693706" lon="9.084937464170634"><ele>206.75</ele><time>2026-05-01T07:32:52.998Z</time></trkpt><trkpt lat="45.81345744044152" lon="9.084883565724205"><ele>206.5</ele><time>2026-05-01T07:32:54Z</time></trkpt><trkpt lat="45.81333452129055" lon="9.084922658813683"><ele>206.25</ele><time>2026-05-01T07:32:55Z</time></trkpt><trkpt lat="45.81344599064497" lon="9.084889178060799"><ele>206.0</ele><time>2026-05-01T07:32:56Z</time></trkpt><trkpt lat="45.81354329457928" lon="9.084845134314003"><ele>205.60000000000002</ele><time>2026-05-01T07:32:57Z</time></trkpt><trkpt lat="45.813645343144294" lon="9.084816697112952"><ele>205.2</ele><time>2026-05-01T07:32:58Z</time></trkpt><trkpt lat="45.81374432719864" lon="9.084775995779369"><ele>204.8</ele><time>2026-05-01T07:32:59Z</time></trkpt><trkpt lat="45.81384214694609" lon="9.084739613899046"><ele>204.39999999999998</ele><time>2026-05-01T07:33:00Z</time></trkpt><trkpt lat="45.81394961040219" lon="9.084710900432574"><ele>204.0</ele><time>2026-05-01T07:33:01Z</time></trkpt><trkpt lat="45.814033449297746" lon="9.084646245703935"><ele>204.0</ele><time>2026-05-01T07:33:02Z</time></trkpt><trkpt lat="45.814115814089064" lon="9.084622454888082"><ele>204.0</ele><time>2026-05-01T07:33:03Z</time></trkpt><trkpt lat="45.81419591925494" lon="9.084610641489656"><ele>204.0</ele><time>2026-05-01T07:33:04Z</time></trkpt><trkpt lat="45.814267087725135" lon="9.084650986058197"><ele>204.0</ele><time>2026-05-01T07:33:05Z</time></trkpt><trkpt lat="45.814335082564696" lon="9.084673938793927"><ele>204.0</ele><time>2026-05-01T07:33:06Z</time></trkpt><trkpt lat="45.81446042841598" lon="9.084714079857765"><ele>204.0</ele><time>2026-05-01T07:33:08Z</time></trkpt><trkpt lat="45.81453477350146" lon="9.084737450323498"><ele>204.33333333333334</ele><time>2026-05-01T07:33:09Z</time></trkpt><trkpt lat="45.814607112583005" lon="9.084759521834773"><ele>204.66666666666669</ele><time>2026-05-01T07:33:10Z</time></trkpt><trkpt lat="45.81469038923395" lon="9.08478765821127"><ele>205.0</ele><time>2026-05-01T07:33:11Z</time></trkpt><trkpt lat="45.81477998414568" lon="9.084809493030507"><ele>205.33333333333334</ele><time>2026-05-01T07:33:12Z</time></trkpt><trkpt lat="45.81484512134624" lon="9.084863830908208"><ele>205.66666666666669</ele><time>2026-05-01T07:33:13Z</time></trkpt><trkpt lat="45.814912535106764" lon="9.084915425804851"><ele>206.0</ele><time>2026-05-01T07:33:14Z</time></trkpt><trkpt lat="45.81497550674898" lon="9.084985193889"><ele>206.00000000000003</ele><time>2026-05-01T07:33:15Z</time></trkpt><trkpt lat="45.81502965810418" lon="9.085043757381161"><ele>206.0</ele><time>2026-05-01T07:33:16Z</time></trkpt><trkpt lat="45.815151877042645" lon="9.08504855202578"><ele>206.0</ele><time>2026-05-01T07:33:18Z</time></trkpt><trkpt lat="45.81519234851153" lon="9.084956004625054"><ele>206.0</ele><time>2026-05-01T07:33:19Z</time></trkpt><trkpt lat="45.81523902808381" lon="9.084856791220032"><ele>206.00000000000003</ele><time>2026-05-01T07:33:20Z</time></trkpt><trkpt lat="45.815299068575385" lon="9.0847712292854"><ele>206.0</ele><time>2026-05-01T07:33:21Z</time></trkpt><trkpt lat="45.815365070677565" lon="9.084693638686712"><ele>206.66666666666669</ele><time>2026-05-01T07:33:22Z</time></trkpt><trkpt lat="45.8154372894782" lon="9.084626769407048"><ele>207.33333333333334</ele><time>2026-05-01T07:33:23Z</time></trkpt><trkpt lat="45.815514915538564" lon="9.084580934068063"><ele>208.0</ele><time>2026-05-01T07:33:24Z</time></trkpt><trkpt lat="45.81560462069256" lon="9.0845651008642"><ele>208.66666666666669</ele><time>2026-05-01T07:33:25Z</time></trkpt><trkpt lat="45.815693137106" lon="9.084574915706776"><ele>209.33333333333334</ele><time>2026-05-01T07:33:26Z</time></trkpt><trkpt lat="45.81577926155024" lon="9.084609355962694"><ele>210.0</ele><time>2026-05-01T07:33:27Z</time></trkpt><trkpt lat="45.81587297812131" lon="9.084667445872496"><ele>210.0</ele><time>2026-05-01T07:33:28Z</time></trkpt><trkpt lat="45.81596698630761" lon="9.084705342365504"><ele>210.0</ele><time>2026-05-01T07:33:29Z</time></trkpt><trkpt lat="45.816054499733795" lon="9.08472133005356"><ele>210.0</ele><time>2026-05-01T07:33:30Z</time></trkpt><trkpt lat="45.81614231760108" lon="9.084694032293964"><ele>210.0</ele><time>2026-05-01T07:33:31Z</time></trkpt><trkpt lat="45.81624435982919" lon="9.084631286842326"><ele>210.0</ele><time>2026-05-01T07:33:32Z</time></trkpt><trkpt lat="45.816348615508254" lon="9.08454216872355"><ele>210.5</ele><time>2026-05-01T07:33:33Z</time></trkpt><trkpt lat="45.816451455644305" lon="9.084493094853125"><ele>211.0</ele><time>2026-05-01T07:33:34Z</time></trkpt><trkpt lat="45.81656838122849" lon="9.084450670330854"><ele>211.5</ele><time>2026-05-01T07:33:35Z</time></trkpt><trkpt lat="45.81670428809146" lon="9.084387993246368"><ele>212.0</ele><time>2026-05-01T07:33:36Z</time></trkpt><trkpt lat="45.81686295659628" lon="9.084295006693049"><ele>211.5</ele><time>2026-05-01T07:33:37Z</time></trkpt><trkpt lat="45.81694585161624" lon="9.084274676182883"><ele>211.0</ele><time>2026-05-01T07:33:37.999Z</time></trkpt><trkpt lat="45.81706292366123" lon="9.084216249560987"><ele>210.5</ele><time>2026-05-01T07:33:38.999Z</time></trkpt><trkpt lat="45.81718894498861" lon="9.0841500001177"><ele>210.0</ele><time>2026-05-01T07:33:39.999Z</time></trkpt><trkpt lat="45.817321481110966" lon="9.084078037463406"><ele>210.0</ele><time>2026-05-01T07:33:40.999Z</time></trkpt><trkpt lat="45.81745324924123" lon="9.0839828863332"><ele>210.0</ele><time>2026-05-01T07:33:41.999Z</time></trkpt><trkpt lat="45.817585632663565" lon="9.083869375766684"><ele>210.0</ele><time>2026-05-01T07:33:42.999Z</time></trkpt><trkpt lat="45.8177139531572" lon="9.083768444948747"><ele>210.0</ele><time>2026-05-01T07:33:43.999Z</time></trkpt><trkpt lat="45.81783799781552" lon="9.083656750709155"><ele>216.66666666666669</ele><time>2026-05-01T07:33:44.999Z</time></trkpt><trkpt lat="45.81796400971371" lon="9.08352984775038"><ele>223.33333333333334</ele><time>2026-05-01T07:33:45.999Z</time></trkpt><trkpt lat="45.818086755826855" lon="9.083405020135237"><ele>230.0</ele><time>2026-05-01T07:33:46.999Z</time></trkpt><trkpt lat="45.81822076804509" lon="9.083277836259661"><ele>233.25</ele><time>2026-05-01T07:33:47.999Z</time></trkpt><trkpt lat="45.81835036676271" lon="9.083168970261694"><ele>236.5</ele><time>2026-05-01T07:33:48.999Z</time></trkpt><trkpt lat="45.818465376550705" lon="9.08307500163692"><ele>239.75</ele><time>2026-05-01T07:33:49.999Z</time></trkpt><trkpt lat="45.81858089571853" lon="9.08297245707998"><ele>243.0</ele><time>2026-05-01T07:33:50.999Z</time></trkpt><trkpt lat="45.81869180981208" lon="9.082840229913677"><ele>243.0</ele><time>2026-05-01T07:33:51.999Z</time></trkpt><trkpt lat="45.81878836042644" lon="9.082693054535923"><ele>243.0</ele><time>2026-05-01T07:33:52.999Z</time></trkpt><trkpt lat="45.818860936312014" lon="9.082513861025886"><ele>243.0</ele><time>2026-05-01T07:33:53.999Z</time></trkpt><trkpt lat="45.818967580289424" lon="9.082352464827423"><ele>243.0</ele><time>2026-05-01T07:33:54.999Z</time></trkpt><trkpt lat="45.8190659996708" lon="9.082200040856774"><ele>243.2</ele><time>2026-05-01T07:33:55.999Z</time></trkpt><trkpt lat="45.81917339371644" lon="9.082082524707644"><ele>243.4</ele><time>2026-05-01T07:33:56.999Z</time></trkpt><trkpt lat="45.8192558315" lon="9.081979586713466"><ele>243.59999999999997</ele><time>2026-05-01T07:33:57.999Z</time></trkpt><trkpt lat="45.81932459428934" lon="9.08188552991669"><ele>243.79999999999998</ele><time>2026-05-01T07:33:58.999Z</time></trkpt><trkpt lat="45.819396477752065" lon="9.081808917738853"><ele>244.0</ele><time>2026-05-01T07:33:59.999Z</time></trkpt><trkpt lat="45.81948069219324" lon="9.081751610410807"><ele>244.0</ele><time>2026-05-01T07:34:00.999Z</time></trkpt><trkpt lat="45.81957705568002" lon="9.08169254764018"><ele>243.99999999999997</ele><time>2026-05-01T07:34:01.999Z</time></trkpt><trkpt lat="45.81968120764354" lon="9.081651666850552"><ele>243.99999999999997</ele><time>2026-05-01T07:34:02.999Z</time></trkpt><trkpt lat="45.81977106864372" lon="9.081593195443608"><ele>244.0</ele><time>2026-05-01T07:34:03.999Z</time></trkpt><trkpt lat="45.81985548497788" lon="9.081525756104766"><ele>244.0</ele><time>2026-05-01T07:34:04.999Z</time></trkpt><trkpt lat="45.81993899585428" lon="9.081460325109582"><ele>243.83333333333331</ele><time>2026-05-01T07:34:05.999Z</time></trkpt><trkpt lat="45.820021725098094" lon="9.0813910700319"><ele>243.66666666666666</ele><time>2026-05-01T07:34:06.999Z</time></trkpt><trkpt lat="45.82011848973151" lon="9.081381944361489"><ele>243.5</ele><time>2026-05-01T07:34:07.999Z</time></trkpt><trkpt lat="45.820182191570886" lon="9.081336331995812"><ele>243.33333333333331</ele><time>2026-05-01T07:34:08.999Z</time></trkpt><trkpt lat="45.820270441557156" lon="9.081290605225748"><ele>243.16666666666666</ele><time>2026-05-01T07:34:10.999Z</time></trkpt><trkpt lat="45.82035649700554" lon="9.081248634042346"><ele>243.0</ele><time>2026-05-01T07:34:13.999Z</time></trkpt><trkpt lat="45.82044135208911" lon="9.08119087750805"><ele>243.0</ele><time>2026-05-01T07:34:15.999Z</time></trkpt><trkpt lat="45.82054704481304" lon="9.081117142821112"><ele>243.0</ele><time>2026-05-01T07:34:17.999Z</time></trkpt><trkpt lat="45.82064382699212" lon="9.081034421835158"><ele>243.0</ele><time>2026-05-01T07:34:19.999Z</time></trkpt><trkpt lat="45.820699080506806" lon="9.080979814453555"><ele>243.0</ele><time>2026-05-01T07:34:20.999Z</time></trkpt><trkpt lat="45.82081272797953" lon="9.080890869966547"><ele>243.0</ele><time>2026-05-01T07:34:22.999Z</time></trkpt><trkpt lat="45.820869071512085" lon="9.080841013055245"><ele>243.0</ele><time>2026-05-01T07:34:23.999Z</time></trkpt><trkpt lat="45.82092834583788" lon="9.080787645402557"><ele>243.0</ele><time>2026-05-01T07:34:24.999Z</time></trkpt><trkpt lat="45.82099383900968" lon="9.08072379064918"><ele>243.0</ele><time>2026-05-01T07:34:25.999Z</time></trkpt><trkpt lat="45.82105980540752" lon="9.080665900905455"><ele>243.0</ele><time>2026-05-01T07:34:26.999Z</time></trkpt><trkpt lat="45.821119995263246" lon="9.080587781729147"><ele>243.0</ele><time>2026-05-01T07:34:27.999Z</time></trkpt><trkpt lat="45.82117674477733" lon="9.080502864949073"><ele>243.0</ele><time>2026-05-01T07:34:28.999Z</time></trkpt><trkpt lat="45.82123806559781" lon="9.080426192917997"><ele>244.8</ele><time>2026-05-01T07:34:29.999Z</time></trkpt><trkpt lat="45.82131433950013" lon="9.080319442160084"><ele>246.60000000000002</ele><time>2026-05-01T07:34:30.999Z</time></trkpt><trkpt lat="45.82138589171644" lon="9.080228589325456"><ele>248.39999999999998</ele><time>2026-05-01T07:34:31.999Z</time></trkpt><trkpt lat="45.82145243015023" lon="9.08013326203899"><ele>250.2</ele><time>2026-05-01T07:34:32.999Z</time></trkpt><trkpt lat="45.82150815752216" lon="9.080055492399294"><ele>252.0</ele><time>2026-05-01T07:34:33.999Z</time></trkpt><trkpt lat="45.82159905194913" lon="9.079945765658405"><ele>252.0</ele><time>2026-05-01T07:34:35.999Z</time></trkpt><trkpt lat="45.82165293504447" lon="9.07986679472789"><ele>252.0</ele><time>2026-05-01T07:34:36.999Z</time></trkpt><trkpt lat="45.8217146988882" lon="9.079807185298945"><ele>252.0</ele><time>2026-05-01T07:34:37.999Z</time></trkpt><trkpt lat="45.8217836777646" lon="9.079751174756382"><ele>252.0</ele><time>2026-05-01T07:34:38.999Z</time></trkpt><trkpt lat="45.82183555190939" lon="9.079666163512876"><ele>252.0</ele><time>2026-05-01T07:34:39.999Z</time></trkpt><trkpt lat="45.821890543267216" lon="9.079572877373216"><ele>252.0</ele><time>2026-05-01T07:34:40.999Z</time></trkpt><trkpt lat="45.82194433223431" lon="9.079480352617622"><ele>252.0</ele><time>2026-05-01T07:34:41.999Z</time></trkpt><trkpt lat="45.821999727891225" lon="9.079393301849661"><ele>252.0</ele><time>2026-05-01T07:34:42.999Z</time></trkpt><trkpt lat="45.82205394054605" lon="9.079311747247703"><ele>252.0</ele><time>2026-05-01T07:34:43.999Z</time></trkpt><trkpt lat="45.82210425502362" lon="9.079226622226225"><ele>252.0</ele><time>2026-05-01T07:34:44.999Z</time></trkpt><trkpt lat="45.82214864523503" lon="9.079146815059419"><ele>252.0</ele><time>2026-05-01T07:34:45.999Z</time></trkpt><trkpt lat="45.82220207952498" lon="9.079067281547022"><ele>252.0</ele><time>2026-05-01T07:34:46.999Z</time></trkpt><trkpt lat="45.82226583045982" lon="9.079001203585241"><ele>244.39999999999998</ele><time>2026-05-01T07:34:47.999Z</time></trkpt><trkpt lat="45.82234889088477" lon="9.078970044124095"><ele>236.79999999999998</ele><time>2026-05-01T07:34:48.999Z</time></trkpt><trkpt lat="45.822434795246004" lon="9.078946103885691"><ele>229.2</ele><time>2026-05-01T07:34:49.998Z</time></trkpt><trkpt lat="45.822524419600796" lon="9.078930169183455"><ele>221.6</ele><time>2026-05-01T07:34:50.998Z</time></trkpt><trkpt lat="45.82262172102066" lon="9.078928124147255"><ele>214.0</ele><time>2026-05-01T07:34:51.998Z</time></trkpt><trkpt lat="45.822718909251584" lon="9.07893002517139"><ele>214.0</ele><time>2026-05-01T07:34:52.998Z</time></trkpt><trkpt lat="45.82281548448836" lon="9.07893225114616"><ele>213.99999999999997</ele><time>2026-05-01T07:34:53.998Z</time></trkpt><trkpt lat="45.822915303554126" lon="9.07893029066425"><ele>213.99999999999997</ele><time>2026-05-01T07:34:54.998Z</time></trkpt><trkpt lat="45.82301153675758" lon="9.078934838980167"><ele>214.0</ele><time>2026-05-01T07:34:55.998Z</time></trkpt><trkpt lat="45.823107631752144" lon="9.078939694814606"><ele>214.0</ele><time>2026-05-01T07:34:56.998Z</time></trkpt><trkpt lat="45.82319614698936" lon="9.078967094159559"><ele>213.99999999999997</ele><time>2026-05-01T07:34:57.998Z</time></trkpt><trkpt lat="45.823285313997864" lon="9.078990390244439"><ele>214.0</ele><time>2026-05-01T07:34:58.998Z</time></trkpt><trkpt lat="45.82337173980139" lon="9.07901238868517"><ele>214.0</ele><time>2026-05-01T07:35:00Z</time></trkpt><trkpt lat="45.82345158328039" lon="9.07904149744655"><ele>214.0</ele><time>2026-05-01T07:35:01Z</time></trkpt><trkpt lat="45.82352625104266" lon="9.079074961678693"><ele>213.99999999999997</ele><time>2026-05-01T07:35:02Z</time></trkpt><trkpt lat="45.823592171662845" lon="9.07912102103007"><ele>214.0</ele><time>2026-05-01T07:35:03Z</time></trkpt><trkpt lat="45.82364067772647" lon="9.079194000630139"><ele>216.79999999999998</ele><time>2026-05-01T07:35:04Z</time></trkpt><trkpt lat="45.823683406154004" lon="9.079280937988115"><ele>219.59999999999997</ele><time>2026-05-01T07:35:05Z</time></trkpt><trkpt lat="45.82373600835117" lon="9.079392211742253"><ele>222.4</ele><time>2026-05-01T07:35:06Z</time></trkpt><trkpt lat="45.82379333317714" lon="9.079496803600822"><ele>225.2</ele><time>2026-05-01T07:35:07Z</time></trkpt><trkpt lat="45.82386196119242" lon="9.079598645339566"><ele>228.0</ele><time>2026-05-01T07:35:08Z</time></trkpt><trkpt lat="45.823925443074934" lon="9.079694703471988"><ele>228.0</ele><time>2026-05-01T07:35:09Z</time></trkpt><trkpt lat="45.82398452310204" lon="9.07978861906072"><ele>228.0</ele><time>2026-05-01T07:35:10Z</time></trkpt><trkpt lat="45.82405970216807" lon="9.079876796200733"><ele>228.0</ele><time>2026-05-01T07:35:11Z</time></trkpt><trkpt lat="45.82413236846061" lon="9.079979472512905"><ele>228.0</ele><time>2026-05-01T07:35:12Z</time></trkpt><trkpt lat="45.82421735196599" lon="9.080068301623017"><ele>228.0</ele><time>2026-05-01T07:35:13Z</time></trkpt><trkpt lat="45.824310913895246" lon="9.080117969183723"><ele>227.60000000000002</ele><time>2026-05-01T07:35:14Z</time></trkpt><trkpt lat="45.82440989395547" lon="9.08014750144007"><ele>227.20000000000002</ele><time>2026-05-01T07:35:15Z</time></trkpt><trkpt lat="45.82450091218965" lon="9.080192780956565"><ele>226.8</ele><time>2026-05-01T07:35:16Z</time></trkpt><trkpt lat="45.82458454484685" lon="9.080236213783895"><ele>226.4</ele><time>2026-05-01T07:35:17Z</time></trkpt><trkpt lat="45.82466288325858" lon="9.080279118733483"><ele>226.0</ele><time>2026-05-01T07:35:18Z</time></trkpt><trkpt lat="45.82473932051984" lon="9.080330117218274"><ele>225.99999999999997</ele><time>2026-05-01T07:35:19Z</time></trkpt><trkpt lat="45.82481125584586" lon="9.080393059742432"><ele>226.0</ele><time>2026-05-01T07:35:20Z</time></trkpt><trkpt lat="45.82487358747001" lon="9.080469678554644"><ele>226.0</ele><time>2026-05-01T07:35:21Z</time></trkpt><trkpt lat="45.82493898930651" lon="9.080550865649215"><ele>226.0</ele><time>2026-05-01T07:35:22Z</time></trkpt><trkpt lat="45.824998813884555" lon="9.080638775397055"><ele>225.99999999999997</ele><time>2026-05-01T07:35:23Z</time></trkpt><trkpt lat="45.82503688640842" lon="9.080736382854731"><ele>226.0</ele><time>2026-05-01T07:35:24Z</time></trkpt><trkpt lat="45.82506196338226" lon="9.080833394507788"><ele>223.60000000000002</ele><time>2026-05-01T07:35:25Z</time></trkpt><trkpt lat="45.82508371073565" lon="9.080918586494263"><ele>221.20000000000002</ele><time>2026-05-01T07:35:26Z</time></trkpt><trkpt lat="45.825145950048245" lon="9.081090892562788"><ele>218.79999999999998</ele><time>2026-05-01T07:35:28Z</time></trkpt><trkpt lat="45.82519138820813" lon="9.081192697717213"><ele>216.39999999999998</ele><time>2026-05-01T07:35:29Z</time></trkpt><trkpt lat="45.82526703853497" lon="9.081304343650032"><ele>214.0</ele><time>2026-05-01T07:35:30Z</time></trkpt><trkpt lat="45.825346404237195" lon="9.081389613078484"><ele>214.0</ele><time>2026-05-01T07:35:31Z</time></trkpt><trkpt lat="45.82541160106456" lon="9.081501320124847"><ele>213.99999999999997</ele><time>2026-05-01T07:35:32Z</time></trkpt><trkpt lat="45.8254527419395" lon="9.081627657855696"><ele>213.99999999999997</ele><time>2026-05-01T07:35:33Z</time></trkpt><trkpt lat="45.82550448318962" lon="9.081738319635075"><ele>214.0</ele><time>2026-05-01T07:35:34Z</time></trkpt><trkpt lat="45.8255536091246" lon="9.08186705438341"><ele>214.0</ele><time>2026-05-01T07:35:35Z</time></trkpt><trkpt lat="45.825598503889175" lon="9.082028517043257"><ele>216.49999999999997</ele><time>2026-05-01T07:35:36Z</time></trkpt><trkpt lat="45.82562880259354" lon="9.08215081264469"><ele>219.0</ele><time>2026-05-01T07:35:37Z</time></trkpt><trkpt lat="45.825658652772745" lon="9.082255350706271"><ele>221.5</ele><time>2026-05-01T07:35:38Z</time></trkpt><trkpt lat="45.82569134001319" lon="9.082350821570758"><ele>224.0</ele><time>2026-05-01T07:35:39Z</time></trkpt><trkpt lat="45.82572881318238" lon="9.082451590192134"><ele>226.49999999999997</ele><time>2026-05-01T07:35:40Z</time></trkpt><trkpt lat="45.825757642787785" lon="9.082570029723895"><ele>229.0</ele><time>2026-05-01T07:35:41Z</time></trkpt><trkpt lat="45.82578321274499" lon="9.082715355588286"><ele>234.25</ele><time>2026-05-01T07:35:42Z</time></trkpt><trkpt lat="45.82581890634313" lon="9.082867337396706"><ele>239.5</ele><time>2026-05-01T07:35:43Z</time></trkpt><trkpt lat="45.82585073958146" lon="9.083032687813905"><ele>244.75</ele><time>2026-05-01T07:35:44Z</time></trkpt><trkpt lat="45.82587708977436" lon="9.083221718998669"><ele>250.0</ele><time>2026-05-01T07:35:45Z</time></trkpt><trkpt lat="45.82590107606756" lon="9.083403373711791"><ele>255.25</ele><time>2026-05-01T07:35:46Z</time></trkpt><trkpt lat="45.82592809783005" lon="9.08361055764018"><ele>260.5</ele><time>2026-05-01T07:35:47Z</time></trkpt><trkpt lat="45.82596087639891" lon="9.083812729095312"><ele>265.75</ele><time>2026-05-01T07:35:48Z</time></trkpt><trkpt lat="45.825996923061105" lon="9.083993800797987"><ele>271.0</ele><time>2026-05-01T07:35:48.999Z</time></trkpt><trkpt lat="45.826015022462435" lon="9.084170655426279"><ele>262.2</ele><time>2026-05-01T07:35:49.999Z</time></trkpt><trkpt lat="45.82604723137781" lon="9.084320822902935"><ele>253.40000000000003</ele><time>2026-05-01T07:35:50.999Z</time></trkpt><trkpt lat="45.82607229129775" lon="9.084464870897365"><ele>244.6</ele><time>2026-05-01T07:35:51.999Z</time></trkpt><trkpt lat="45.82609507828533" lon="9.08461396164335"><ele>235.8</ele><time>2026-05-01T07:35:52.999Z</time></trkpt><trkpt lat="45.826108653275284" lon="9.084778016907253"><ele>227.0</ele><time>2026-05-01T07:35:53.999Z</time></trkpt><trkpt lat="45.82611084723179" lon="9.084951889119322"><ele>227.0</ele><time>2026-05-01T07:35:54.999Z</time></trkpt><trkpt lat="45.826100545863255" lon="9.085130710439302"><ele>227.0</ele><time>2026-05-01T07:35:55.999Z</time></trkpt><trkpt lat="45.82608107428932" lon="9.085266403206289"><ele>227.0</ele><time>2026-05-01T07:35:56.999Z</time></trkpt><trkpt lat="45.826058140926385" lon="9.085436875942923"><ele>227.0</ele><time>2026-05-01T07:35:57.999Z</time></trkpt><trkpt lat="45.826049796684366" lon="9.085578393434576"><ele>227.0</ele><time>2026-05-01T07:35:58.999Z</time></trkpt><trkpt lat="45.8260437334596" lon="9.085712396726434"><ele>227.8</ele><time>2026-05-01T07:35:59.999Z</time></trkpt><trkpt lat="45.82605234268779" lon="9.085853978589062"><ele>228.6</ele><time>2026-05-01T07:36:00.999Z</time></trkpt><trkpt lat="45.82609454807269" lon="9.086011820814894"><ele>229.40000000000003</ele><time>2026-05-01T07:36:01.999Z</time></trkpt><trkpt lat="45.82614436406223" lon="9.086165561686572"><ele>230.20000000000002</ele><time>2026-05-01T07:36:02.999Z</time></trkpt><trkpt lat="45.82615358163545" lon="9.08628783845811"><ele>231.0</ele><time>2026-05-01T07:36:03.999Z</time></trkpt><trkpt lat="45.826182001871764" lon="9.086374341120926"><ele>231.0</ele><time>2026-05-01T07:36:04.999Z</time></trkpt><trkpt lat="45.82623113588203" lon="9.086517277638613"><ele>231.0</ele><time>2026-05-01T07:36:05.999Z</time></trkpt><trkpt lat="45.826299133270105" lon="9.08670982035052"><ele>231.0</ele><time>2026-05-01T07:36:06.999Z</time></trkpt><trkpt lat="45.826404067853865" lon="9.086954347328648"><ele>234.5</ele><time>2026-05-01T07:36:07.999Z</time></trkpt><trkpt lat="45.82648465914547" lon="9.087112734657424"><ele>238.0</ele><time>2026-05-01T07:36:08.999Z</time></trkpt><trkpt lat="45.826549573712796" lon="9.087269037375584"><ele>241.5</ele><time>2026-05-01T07:36:09.999Z</time></trkpt><trkpt lat="45.82661470852873" lon="9.087425827035194"><ele>245.0</ele><time>2026-05-01T07:36:10.999Z</time></trkpt><trkpt lat="45.82668274408863" lon="9.087591797104855"><ele>250.75</ele><time>2026-05-01T07:36:11.999Z</time></trkpt><trkpt lat="45.82675181158454" lon="9.087762359129561"><ele>256.5</ele><time>2026-05-01T07:36:12.999Z</time></trkpt><trkpt lat="45.82684128768335" lon="9.087914411199346"><ele>262.25</ele><time>2026-05-01T07:36:13.999Z</time></trkpt><trkpt lat="45.82693236522955" lon="9.088056305029795"><ele>268.0</ele><time>2026-05-01T07:36:14.999Z</time></trkpt><trkpt lat="45.82701312801999" lon="9.088199369031488"><ele>261.75</ele><time>2026-05-01T07:36:15.999Z</time></trkpt><trkpt lat="45.82710068730802" lon="9.08833985552617"><ele>255.5</ele><time>2026-05-01T07:36:16.999Z</time></trkpt><trkpt lat="45.82717780149322" lon="9.088466638391058"><ele>249.25</ele><time>2026-05-01T07:36:17.999Z</time></trkpt><trkpt lat="45.82724764678484" lon="9.088610717092298"><ele>243.0</ele><time>2026-05-01T07:36:18.999Z</time></trkpt><trkpt lat="45.827325500203294" lon="9.088733707277141"><ele>243.0</ele><time>2026-05-01T07:36:19.999Z</time></trkpt><trkpt lat="45.827405377181705" lon="9.088849103320783"><ele>243.0</ele><time>2026-05-01T07:36:20.999Z</time></trkpt><trkpt lat="45.827495470654085" lon="9.088975296746677"><ele>243.0</ele><time>2026-05-01T07:36:21.999Z</time></trkpt><trkpt lat="45.827595905831224" lon="9.089101470277878"><ele>243.0</ele><time>2026-05-01T07:36:22.999Z</time></trkpt><trkpt lat="45.8276829252891" lon="9.089226383330534"><ele>238.4</ele><time>2026-05-01T07:36:23.999Z</time></trkpt><trkpt lat="45.82776912529389" lon="9.089341156517435"><ele>233.8</ele><time>2026-05-01T07:36:24.999Z</time></trkpt><trkpt lat="45.827830868070464" lon="9.089477490576488"><ele>229.2</ele><time>2026-05-01T07:36:25.999Z</time></trkpt><trkpt lat="45.82789235438916" lon="9.089615373200296"><ele>224.6</ele><time>2026-05-01T07:36:26.999Z</time></trkpt><trkpt lat="45.827928243411144" lon="9.089755475175913"><ele>220.0</ele><time>2026-05-01T07:36:27.999Z</time></trkpt><trkpt lat="45.82794829134392" lon="9.089902469567301"><ele>227.0</ele><time>2026-05-01T07:36:28.999Z</time></trkpt><trkpt lat="45.82799700826084" lon="9.090084728631174"><ele>234.0</ele><time>2026-05-01T07:36:29.999Z</time></trkpt><trkpt lat="45.82803088220008" lon="9.090241185533499"><ele>241.0</ele><time>2026-05-01T07:36:30.999Z</time></trkpt><trkpt lat="45.82807256077425" lon="9.09039960593324"><ele>248.0</ele><time>2026-05-01T07:36:31.999Z</time></trkpt><trkpt lat="45.828132163741465" lon="9.090556335089687"><ele>248.0</ele><time>2026-05-01T07:36:32.999Z</time></trkpt><trkpt lat="45.82817571853299" lon="9.090717649156375"><ele>248.0</ele><time>2026-05-01T07:36:33.999Z</time></trkpt><trkpt lat="45.82823285718447" lon="9.090865326280968"><ele>248.0</ele><time>2026-05-01T07:36:35.023Z</time></trkpt><trkpt lat="45.82828361563294" lon="9.090989610414093"><ele>248.0</ele><time>2026-05-01T07:36:36.024Z</time></trkpt><trkpt lat="45.82835031285527" lon="9.091134349729831"><ele>249.0</ele><time>2026-05-01T07:36:37.011Z</time></trkpt><trkpt lat="45.828415067358755" lon="9.091358356895244"><ele>250.0</ele><time>2026-05-01T07:36:38.023Z</time></trkpt><trkpt lat="45.828489166807294" lon="9.091592810652328"><ele>251.0</ele><time>2026-05-01T07:36:39.022Z</time></trkpt><trkpt lat="45.830513558799936" lon="9.093995265256634"><ele>244.0</ele><time>2026-05-01T07:36:43.739Z</time></trkpt><trkpt lat="45.83106647887909" lon="9.094427831322019"><ele>244.0</ele><time>2026-05-01T07:36:44.739Z</time></trkpt><trkpt lat="45.8315422" lon="9.0947992"><ele>245.0</ele><time>2026-05-01T07:36:45.743Z</time></trkpt><trkpt lat="45.83182413600928" lon="9.095065835871821"><ele>246.0</ele><time>2026-05-01T07:37:08.998Z</time></trkpt><trkpt lat="45.831943872855476" lon="9.095164261556782"><ele>246.0</ele><time>2026-05-01T07:37:09.998Z</time></trkpt><trkpt lat="45.83205182885378" lon="9.095254269469681"><ele>246.0</ele><time>2026-05-01T07:37:10.998Z</time></trkpt><trkpt lat="45.8321495751593" lon="9.09536231869589"><ele>246.0</ele><time>2026-05-01T07:37:11.998Z</time></trkpt><trkpt lat="45.832258666211196" lon="9.095426766714528"><ele>246.0</ele><time>2026-05-01T07:37:12.998Z</time></trkpt><trkpt lat="45.83236526707038" lon="9.09550628326591"><ele>246.0</ele><time>2026-05-01T07:37:13.998Z</time></trkpt><trkpt lat="45.83247002788701" lon="9.095587484962033"><ele>246.0</ele><time>2026-05-01T07:37:15Z</time></trkpt><trkpt lat="45.83259939471051" lon="9.095698680078023"><ele>246.0</ele><time>2026-05-01T07:37:16Z</time></trkpt><trkpt lat="45.832729220866426" lon="9.095786944981839"><ele>246.0</ele><time>2026-05-01T07:37:17Z</time></trkpt><trkpt lat="45.832894037495876" lon="9.095893047944902"><ele>248.66666666666669</ele><time>2026-05-01T07:37:18Z</time></trkpt><trkpt lat="45.833094523953335" lon="9.096058522828127"><ele>251.33333333333334</ele><time>2026-05-01T07:37:19Z</time></trkpt><trkpt lat="45.83326663408861" lon="9.096193405756877"><ele>254.0</ele><time>2026-05-01T07:37:20Z</time></trkpt><trkpt lat="45.833450612751086" lon="9.096303754119026"><ele>248.33333333333334</ele><time>2026-05-01T07:37:21Z</time></trkpt><trkpt lat="45.83363043316672" lon="9.096441721905189"><ele>242.66666666666669</ele><time>2026-05-01T07:37:22Z</time></trkpt><trkpt lat="45.83378724559977" lon="9.096564383676068"><ele>237.0</ele><time>2026-05-01T07:37:23Z</time></trkpt><trkpt lat="45.83396476437762" lon="9.096696179776613"><ele>235.0</ele><time>2026-05-01T07:37:24.018Z</time></trkpt><trkpt lat="45.83448233087159" lon="9.09713549540294"><ele>235.0</ele><time>2026-05-01T07:37:28Z</time></trkpt><trkpt lat="45.83460467974454" lon="9.097247843345102"><ele>235.0</ele><time>2026-05-01T07:37:29Z</time></trkpt><trkpt lat="45.83469335912137" lon="9.097375984818681"><ele>235.0</ele><time>2026-05-01T07:37:30Z</time></trkpt><trkpt lat="45.83476120774288" lon="9.097482090822389"><ele>235.0</ele><time>2026-05-01T07:37:31Z</time></trkpt><trkpt lat="45.83484124328411" lon="9.097584541839979"><ele>240.5</ele><time>2026-05-01T07:37:32Z</time></trkpt><trkpt lat="45.83489036674345" lon="9.097723297982848"><ele>246.0</ele><time>2026-05-01T07:37:33Z</time></trkpt><trkpt lat="45.834930015411786" lon="9.097880167968208"><ele>251.5</ele><time>2026-05-01T07:37:34Z</time></trkpt><trkpt lat="45.83494676827917" lon="9.098053943248495"><ele>257.0</ele><time>2026-05-01T07:37:35Z</time></trkpt><trkpt lat="45.83500214053593" lon="9.098209507926217"><ele>261.0</ele><time>2026-05-01T07:37:36Z</time></trkpt><trkpt lat="45.835055539186094" lon="9.098366608097942"><ele>265.0</ele><time>2026-05-01T07:37:37Z</time></trkpt><trkpt lat="45.83510344270122" lon="9.098512509734677"><ele>269.0</ele><time>2026-05-01T07:37:38Z</time></trkpt><trkpt lat="45.83514947477526" lon="9.098653316980686"><ele>273.0</ele><time>2026-05-01T07:37:39Z</time></trkpt><trkpt lat="45.83520269831551" lon="9.098775729813584"><ele>277.0</ele><time>2026-05-01T07:37:40Z</time></trkpt><trkpt lat="45.8352658220363" lon="9.098889054426495"><ele>271.8333333333333</ele><time>2026-05-01T07:37:41Z</time></trkpt><trkpt lat="45.83533484559111" lon="9.098986259527265"><ele>266.66666666666663</ele><time>2026-05-01T07:37:42Z</time></trkpt><trkpt lat="45.83539495965301" lon="9.09907610705424"><ele>261.5</ele><time>2026-05-01T07:37:43Z</time></trkpt><trkpt lat="45.835446290015675" lon="9.099163826020435"><ele>256.3333333333333</ele><time>2026-05-01T07:37:44Z</time></trkpt><trkpt lat="45.83549718428016" lon="9.09924241844659"><ele>251.16666666666666</ele><time>2026-05-01T07:37:45Z</time></trkpt><trkpt lat="45.835546452025454" lon="9.099321165817141"><ele>246.0</ele><time>2026-05-01T07:37:46Z</time></trkpt><trkpt lat="45.83558761596722" lon="9.09941180477379"><ele>246.0</ele><time>2026-05-01T07:37:47Z</time></trkpt><trkpt lat="45.83562283402361" lon="9.099513532049105"><ele>246.0</ele><time>2026-05-01T07:37:48Z</time></trkpt><trkpt lat="45.83565048325875" lon="9.09962255060415"><ele>246.0</ele><time>2026-05-01T07:37:49Z</time></trkpt><trkpt lat="45.835675535533646" lon="9.099724139453757"><ele>246.0</ele><time>2026-05-01T07:37:50Z</time></trkpt><trkpt lat="45.83568446086666" lon="9.09982570019285"><ele>246.0</ele><time>2026-05-01T07:37:51Z</time></trkpt><trkpt lat="45.8357066518875" lon="9.100002116578223"><ele>246.0</ele><time>2026-05-01T07:37:53Z</time></trkpt><trkpt lat="45.83572831518164" lon="9.10009828823167"><ele>248.33333333333334</ele><time>2026-05-01T07:37:54Z</time></trkpt><trkpt lat="45.83575774230093" lon="9.100187357001756"><ele>250.66666666666669</ele><time>2026-05-01T07:37:55Z</time></trkpt><trkpt lat="45.835785827162475" lon="9.100277857905903"><ele>253.0</ele><time>2026-05-01T07:37:56Z</time></trkpt><trkpt lat="45.83581288080713" lon="9.100366239669853"><ele>255.33333333333334</ele><time>2026-05-01T07:37:57Z</time></trkpt><trkpt lat="45.835852820544474" lon="9.100521293191353"><ele>257.6666666666667</ele><time>2026-05-01T07:37:59Z</time></trkpt><trkpt lat="45.8358732212309" lon="9.100667501309498"><ele>260.0</ele><time>2026-05-01T07:38:01Z</time></trkpt><trkpt lat="45.83589120508729" lon="9.100787585676272"><ele>261.6666666666667</ele><time>2026-05-01T07:38:03Z</time></trkpt><trkpt lat="45.83590540377115" lon="9.100890216637211"><ele>263.33333333333337</ele><time>2026-05-01T07:38:04.999Z</time></trkpt><trkpt lat="45.83592728536557" lon="9.10105685069618"><ele>265.0</ele><time>2026-05-01T07:38:06.999Z</time></trkpt><trkpt lat="45.83595890172056" lon="9.1011531009109"><ele>266.6666666666667</ele><time>2026-05-01T07:38:07.999Z</time></trkpt><trkpt lat="45.83601276128849" lon="9.101242060515691"><ele>268.3333333333333</ele><time>2026-05-01T07:38:08.999Z</time></trkpt><trkpt lat="45.83608624443864" lon="9.101337936711358"><ele>270.0</ele><time>2026-05-01T07:38:09.999Z</time></trkpt><trkpt lat="45.83616721906741" lon="9.101404425705057"><ele>266.8</ele><time>2026-05-01T07:38:10.999Z</time></trkpt><trkpt lat="45.83625577389841" lon="9.101453970319804"><ele>263.6</ele><time>2026-05-01T07:38:11.999Z</time></trkpt><trkpt lat="45.836348347306426" lon="9.101499453499933"><ele>260.4</ele><time>2026-05-01T07:38:12.999Z</time></trkpt><trkpt lat="45.83646762299062" lon="9.101518869477202"><ele>257.2</ele><time>2026-05-01T07:38:13.999Z</time></trkpt><trkpt lat="45.83657718821551" lon="9.101568351968144"><ele>254.0</ele><time>2026-05-01T07:38:14.999Z</time></trkpt><trkpt lat="45.83667022118427" lon="9.101638854888153"><ele>254.0</ele><time>2026-05-01T07:38:15.999Z</time></trkpt><trkpt lat="45.83675560208389" lon="9.101747268465067"><ele>253.99999999999997</ele><time>2026-05-01T07:38:16.999Z</time></trkpt><trkpt lat="45.83683737599549" lon="9.101856802681626"><ele>253.99999999999997</ele><time>2026-05-01T07:38:17.999Z</time></trkpt><trkpt lat="45.836911299242246" lon="9.101959286697596"><ele>254.0</ele><time>2026-05-01T07:38:18.999Z</time></trkpt><trkpt lat="45.83699402255837" lon="9.102029008657022"><ele>254.0</ele><time>2026-05-01T07:38:19.999Z</time></trkpt><trkpt lat="45.837083028168756" lon="9.102081402972882"><ele>251.79999999999998</ele><time>2026-05-01T07:38:20.999Z</time></trkpt><trkpt lat="45.83717178104974" lon="9.102102335884307"><ele>249.59999999999997</ele><time>2026-05-01T07:38:21.999Z</time></trkpt><trkpt lat="45.837262133738044" lon="9.102089994568686"><ele>247.4</ele><time>2026-05-01T07:38:22.999Z</time></trkpt><trkpt lat="45.837353539797185" lon="9.10206147620696"><ele>245.2</ele><time>2026-05-01T07:38:23.999Z</time></trkpt><trkpt lat="45.837444629469445" lon="9.102031619465238"><ele>243.0</ele><time>2026-05-01T07:38:24.999Z</time></trkpt><trkpt lat="45.837535399232074" lon="9.102005663448075"><ele>243.0</ele><time>2026-05-01T07:38:25.999Z</time></trkpt><trkpt lat="45.83761331423667" lon="9.101992940453362"><ele>243.0</ele><time>2026-05-01T07:38:26.999Z</time></trkpt><trkpt lat="45.83768185720277" lon="9.101974502791881"><ele>243.0</ele><time>2026-05-01T07:38:27.999Z</time></trkpt><trkpt lat="45.83775884214242" lon="9.101981299786292"><ele>243.0</ele><time>2026-05-01T07:38:28.999Z</time></trkpt><trkpt lat="45.837832911584975" lon="9.101981739997129"><ele>243.0</ele><time>2026-05-01T07:38:29.999Z</time></trkpt><trkpt lat="45.83790714332472" lon="9.102024479776448"><ele>243.0</ele><time>2026-05-01T07:38:30.999Z</time></trkpt><trkpt lat="45.83797147386381" lon="9.102081525189616"><ele>244.4</ele><time>2026-05-01T07:38:31.999Z</time></trkpt><trkpt lat="45.838038974691514" lon="9.10221066101534"><ele>245.8</ele><time>2026-05-01T07:38:33.999Z</time></trkpt><trkpt lat="45.83806458611349" lon="9.102330548873057"><ele>247.2</ele><time>2026-05-01T07:38:35.999Z</time></trkpt><trkpt lat="45.83808578341873" lon="9.102452508353768"><ele>248.6</ele><time>2026-05-01T07:38:37.999Z</time></trkpt><trkpt lat="45.838105394843744" lon="9.102608359341946"><ele>250.0</ele><time>2026-05-01T07:38:39.999Z</time></trkpt><trkpt lat="45.83813216919862" lon="9.10275014592713"><ele>250.0</ele><time>2026-05-01T07:38:41.999Z</time></trkpt><trkpt lat="45.83821065889037" lon="9.102851727122765"><ele>250.0</ele><time>2026-05-01T07:38:43.999Z</time></trkpt><trkpt lat="45.838332812369444" lon="9.102923916885794"><ele>250.0</ele><time>2026-05-01T07:38:45.999Z</time></trkpt><trkpt lat="45.838394859" lon="9.102957017630597"><ele>250.0</ele><time>2026-05-01T07:38:46.999Z</time></trkpt><trkpt lat="45.83847454721268" lon="9.10298302960351"><ele>250.0</ele><time>2026-05-01T07:38:47.999Z</time></trkpt><trkpt lat="45.838600030301286" lon="9.103025906092228"><ele>251.16666666666666</ele><time>2026-05-01T07:38:49.999Z</time></trkpt><trkpt lat="45.83868797034048" lon="9.103166809322975"><ele>252.33333333333331</ele><time>2026-05-01T07:38:51.999Z</time></trkpt><trkpt lat="45.83874415477836" lon="9.103232939152756"><ele>253.5</ele><time>2026-05-01T07:38:52.999Z</time></trkpt><trkpt lat="45.83880442896734" lon="9.103282933475912"><ele>254.66666666666669</ele><time>2026-05-01T07:38:53.999Z</time></trkpt><trkpt lat="45.83887333964255" lon="9.103322424514547"><ele>255.83333333333334</ele><time>2026-05-01T07:38:54.999Z</time></trkpt><trkpt lat="45.838950078919346" lon="9.10334338801683"><ele>257.0</ele><time>2026-05-01T07:38:55.999Z</time></trkpt><trkpt lat="45.83903156868986" lon="9.103352735282082"><ele>257.0</ele><time>2026-05-01T07:38:56.999Z</time></trkpt><trkpt lat="45.83910814773765" lon="9.103367214908648"><ele>257.0</ele><time>2026-05-01T07:38:57.999Z</time></trkpt><trkpt lat="45.83919257924635" lon="9.103374591453345"><ele>257.0</ele><time>2026-05-01T07:38:58.999Z</time></trkpt><trkpt lat="45.839267606412534" lon="9.103386382492822"><ele>257.0</ele><time>2026-05-01T07:38:59.999Z</time></trkpt><trkpt lat="45.83938191892064" lon="9.103441914757317"><ele>257.0</ele><time>2026-05-01T07:39:00.999Z</time></trkpt><trkpt lat="45.839438462277045" lon="9.103495301195291"><ele>257.0</ele><time>2026-05-01T07:39:01.999Z</time></trkpt><trkpt lat="45.83948853360848" lon="9.103589502387555"><ele>253.00000000000003</ele><time>2026-05-01T07:39:02.999Z</time></trkpt><trkpt lat="45.83952840831818" lon="9.10366786251413"><ele>249.0</ele><time>2026-05-01T07:39:03.999Z</time></trkpt><trkpt lat="45.83958630546447" lon="9.10372842854016"><ele>245.0</ele><time>2026-05-01T07:39:04.999Z</time></trkpt><trkpt lat="45.839628430590665" lon="9.103814210833457"><ele>241.0</ele><time>2026-05-01T07:39:05.999Z</time></trkpt><trkpt lat="45.839674162306665" lon="9.10392029395658"><ele>237.00000000000003</ele><time>2026-05-01T07:39:06.999Z</time></trkpt><trkpt lat="45.83976620117045" lon="9.103985672511222"><ele>233.0</ele><time>2026-05-01T07:39:07.999Z</time></trkpt><trkpt lat="45.83986561001603" lon="9.104031518025964"><ele>233.0</ele><time>2026-05-01T07:39:08.999Z</time></trkpt><trkpt lat="45.83996934541555" lon="9.104037422776214"><ele>233.0</ele><time>2026-05-01T07:39:09.999Z</time></trkpt><trkpt lat="45.84007372393918" lon="9.104013959367194"><ele>233.0</ele><time>2026-05-01T07:39:10.999Z</time></trkpt><trkpt lat="45.84016544859972" lon="9.103978042581728"><ele>233.0</ele><time>2026-05-01T07:39:11.999Z</time></trkpt><trkpt lat="45.84023666819853" lon="9.103951378948151"><ele>233.0</ele><time>2026-05-01T07:39:12.999Z</time></trkpt><trkpt lat="45.84031079133413" lon="9.103929813277746"><ele>230.33333333333334</ele><time>2026-05-01T07:39:14.999Z</time></trkpt><trkpt lat="45.84039840458768" lon="9.10389620681671"><ele>227.66666666666669</ele><time>2026-05-01T07:40:37.999Z</time></trkpt><trkpt lat="45.8404601257514" lon="9.1039164451318"><ele>225.0</ele><time>2026-05-01T07:40:38.999Z</time></trkpt><trkpt lat="45.84052738312719" lon="9.103961213667649"><ele>222.33333333333331</ele><time>2026-05-01T07:40:39.999Z</time></trkpt><trkpt lat="45.84060142665593" lon="9.104024838603111"><ele>219.66666666666666</ele><time>2026-05-01T07:40:40.999Z</time></trkpt><trkpt lat="45.84067832200233" lon="9.104101247735858"><ele>217.0</ele><time>2026-05-01T07:40:41.999Z</time></trkpt><trkpt lat="45.840742828688036" lon="9.104191063018254"><ele>222.2</ele><time>2026-05-01T07:40:42.999Z</time></trkpt><trkpt lat="45.84082095426706" lon="9.10427700687472"><ele>227.39999999999998</ele><time>2026-05-01T07:40:43.999Z</time></trkpt><trkpt lat="45.84090882977618" lon="9.104342044529782"><ele>232.60000000000002</ele><time>2026-05-01T07:40:44.999Z</time></trkpt><trkpt lat="45.840999958051206" lon="9.104362064747095"><ele>237.8</ele><time>2026-05-01T07:40:45.999Z</time></trkpt><trkpt lat="45.84111378241373" lon="9.10434518924184"><ele>243.0</ele><time>2026-05-01T07:40:46.999Z</time></trkpt><trkpt lat="45.841240356622386" lon="9.104312363148889"><ele>243.0</ele><time>2026-05-01T07:40:47.999Z</time></trkpt><trkpt lat="45.84134093900478" lon="9.104295840879272"><ele>243.0</ele><time>2026-05-01T07:40:48.999Z</time></trkpt><trkpt lat="45.84142384540933" lon="9.104281270125576"><ele>243.0</ele><time>2026-05-01T07:40:49.999Z</time></trkpt><trkpt lat="45.841509869294505" lon="9.104264245240758"><ele>243.0</ele><time>2026-05-01T07:40:50.999Z</time></trkpt><trkpt lat="45.841581236830514" lon="9.104280414968075"><ele>243.0</ele><time>2026-05-01T07:40:51.999Z</time></trkpt><trkpt lat="45.84168995966694" lon="9.104324373576617"><ele>243.0</ele><time>2026-05-01T07:40:52.999Z</time></trkpt><trkpt lat="45.84178842389507" lon="9.104444338533403"><ele>243.0</ele><time>2026-05-01T07:40:53.999Z</time></trkpt><trkpt lat="45.84188921569522" lon="9.104515435628285"><ele>243.0</ele><time>2026-05-01T07:40:54.999Z</time></trkpt><trkpt lat="45.84200628128589" lon="9.104566676770926"><ele>243.0</ele><time>2026-05-01T07:40:55.999Z</time></trkpt><trkpt lat="45.84214656936829" lon="9.104601587450436"><ele>241.5</ele><time>2026-05-01T07:40:56.999Z</time></trkpt><trkpt lat="45.8422800950079" lon="9.104635427733418"><ele>240.0</ele><time>2026-05-01T07:40:57.999Z</time></trkpt><trkpt lat="45.84242120489698" lon="9.104635767087014"><ele>238.5</ele><time>2026-05-01T07:40:58.999Z</time></trkpt><trkpt lat="45.842558341837545" lon="9.10462389397185"><ele>237.0</ele><time>2026-05-01T07:40:59.999Z</time></trkpt><trkpt lat="45.842681121530944" lon="9.104642456017256"><ele>238.0</ele><time>2026-05-01T07:41:00.999Z</time></trkpt><trkpt lat="45.842790797451535" lon="9.10468407939043"><ele>239.0</ele><time>2026-05-01T07:41:01.999Z</time></trkpt><trkpt lat="45.842899679581514" lon="9.10476490640027"><ele>240.0</ele><time>2026-05-01T07:41:02.999Z</time></trkpt><trkpt lat="45.84301680658979" lon="9.104912464155225"><ele>241.0</ele><time>2026-05-01T07:41:03.999Z</time></trkpt><trkpt lat="45.8431393444635" lon="9.105014745630852"><ele>241.0</ele><time>2026-05-01T07:41:04.999Z</time></trkpt><trkpt lat="45.84326601222372" lon="9.105105904118055"><ele>241.0</ele><time>2026-05-01T07:41:05.999Z</time></trkpt><trkpt lat="45.843398904038224" lon="9.105204351313114"><ele>241.0</ele><time>2026-05-01T07:41:06.999Z</time></trkpt><trkpt lat="45.84352107207234" lon="9.105295319832972"><ele>241.0</ele><time>2026-05-01T07:41:07.999Z</time></trkpt><trkpt lat="45.84364899899399" lon="9.105381937227676"><ele>242.75</ele><time>2026-05-01T07:41:08.999Z</time></trkpt><trkpt lat="45.8437678652174" lon="9.10546985671504"><ele>244.5</ele><time>2026-05-01T07:41:09.999Z</time></trkpt><trkpt lat="45.84388451426857" lon="9.105568776690468"><ele>246.25</ele><time>2026-05-01T07:41:10.999Z</time></trkpt><trkpt lat="45.84399272520311" lon="9.105670810426858"><ele>248.0</ele><time>2026-05-01T07:41:11.999Z</time></trkpt><trkpt lat="45.84410746215386" lon="9.10577083218719"><ele>248.0</ele><time>2026-05-01T07:41:12.999Z</time></trkpt><trkpt lat="45.84421761427174" lon="9.105898939917303"><ele>248.0</ele><time>2026-05-01T07:41:13.999Z</time></trkpt><trkpt lat="45.844328191598294" lon="9.105991748757464"><ele>248.0</ele><time>2026-05-01T07:41:14.999Z</time></trkpt><trkpt lat="45.8444382692494" lon="9.10608400422839"><ele>248.0</ele><time>2026-05-01T07:41:15.999Z</time></trkpt><trkpt lat="45.8445464000128" lon="9.106166435564068"><ele>243.25</ele><time>2026-05-01T07:41:16.999Z</time></trkpt><trkpt lat="45.84463966183511" lon="9.106279039097135"><ele>238.5</ele><time>2026-05-01T07:41:17.999Z</time></trkpt><trkpt lat="45.84478170623534" lon="9.10623654864345"><ele>233.75</ele><time>2026-05-01T07:41:18.999Z</time></trkpt><trkpt lat="45.84490716657931" lon="9.106235523087397"><ele>229.0</ele><time>2026-05-01T07:41:19.999Z</time></trkpt><trkpt lat="45.84500827561363" lon="9.106241952794962"><ele>227.0</ele><time>2026-05-01T07:41:20.999Z</time></trkpt><trkpt lat="45.845145962736524" lon="9.106259209431482"><ele>225.0</ele><time>2026-05-01T07:41:21.999Z</time></trkpt><trkpt lat="45.84526968158604" lon="9.10633325955614"><ele>223.0</ele><time>2026-05-01T07:41:22.999Z</time></trkpt><trkpt lat="45.84540527805713" lon="9.106427866674805"><ele>221.0</ele><time>2026-05-01T07:41:23.999Z</time></trkpt><trkpt lat="45.84551684805171" lon="9.106513073748978"><ele>221.0</ele><time>2026-05-01T07:41:24.998Z</time></trkpt><trkpt lat="45.84563797348948" lon="9.10655576156823"><ele>221.0</ele><time>2026-05-01T07:41:26Z</time></trkpt><trkpt lat="45.8457564987088" lon="9.106554268274746"><ele>221.0</ele><time>2026-05-01T07:41:27Z</time></trkpt><trkpt lat="45.8459019114545" lon="9.106515560843075"><ele>221.0</ele><time>2026-05-01T07:41:28Z</time></trkpt><trkpt lat="45.846056359119615" lon="9.10648391677699"><ele>219.75</ele><time>2026-05-01T07:41:29Z</time></trkpt><trkpt lat="45.84619695283294" lon="9.106505404161151"><ele>218.5</ele><time>2026-05-01T07:41:30Z</time></trkpt><trkpt lat="45.84632716505882" lon="9.106568860158907"><ele>217.25</ele><time>2026-05-01T07:41:31Z</time></trkpt><trkpt lat="45.84642207365884" lon="9.106660966655284"><ele>216.0</ele><time>2026-05-01T07:41:32Z</time></trkpt><trkpt lat="45.84648033009659" lon="9.106757131823562"><ele>219.4</ele><time>2026-05-01T07:41:33Z</time></trkpt><trkpt lat="45.84658601178025" lon="9.106835406373039"><ele>222.8</ele><time>2026-05-01T07:41:34Z</time></trkpt><trkpt lat="45.846683276836536" lon="9.106870607574685"><ele>226.20000000000002</ele><time>2026-05-01T07:41:35Z</time></trkpt><trkpt lat="45.84678617274287" lon="9.10689648766993"><ele>229.60000000000002</ele><time>2026-05-01T07:41:36Z</time></trkpt><trkpt lat="45.84691125704932" lon="9.10688204384161"><ele>233.0</ele><time>2026-05-01T07:41:37Z</time></trkpt><trkpt lat="45.84703296012508" lon="9.106893412474125"><ele>233.0</ele><time>2026-05-01T07:41:38Z</time></trkpt><trkpt lat="45.84715001946647" lon="9.106960399615383"><ele>233.0</ele><time>2026-05-01T07:41:39Z</time></trkpt><trkpt lat="45.8472610008541" lon="9.107054720279248"><ele>233.0</ele><time>2026-05-01T07:41:40Z</time></trkpt><trkpt lat="45.84736823195265" lon="9.107148433432549"><ele>233.0</ele><time>2026-05-01T07:41:41Z</time></trkpt><trkpt lat="45.84747461034433" lon="9.107209870699734"><ele>233.0</ele><time>2026-05-01T07:41:42Z</time></trkpt><trkpt lat="45.847588675446616" lon="9.10724620471501"><ele>233.0</ele><time>2026-05-01T07:41:43Z</time></trkpt><trkpt lat="45.847691495815546" lon="9.107243964388854"><ele>233.0</ele><time>2026-05-01T07:41:44Z</time></trkpt><trkpt lat="45.8477870806176" lon="9.10729107898237"><ele>233.0</ele><time>2026-05-01T07:41:45Z</time></trkpt><trkpt lat="45.84788010241299" lon="9.10737728067642"><ele>233.0</ele><time>2026-05-01T07:41:46Z</time></trkpt><trkpt lat="45.84796761921214" lon="9.107471825084534"><ele>235.25</ele><time>2026-05-01T07:41:47Z</time></trkpt><trkpt lat="45.84805989170427" lon="9.107605963011203"><ele>237.5</ele><time>2026-05-01T07:41:48Z</time></trkpt><trkpt lat="45.84816091871813" lon="9.107749062097016"><ele>239.75</ele><time>2026-05-01T07:41:49Z</time></trkpt><trkpt lat="45.84824875669131" lon="9.107930674338565"><ele>242.0</ele><time>2026-05-01T07:41:50Z</time></trkpt><trkpt lat="45.848321861016814" lon="9.108127238981705"><ele>242.0</ele><time>2026-05-01T07:41:51Z</time></trkpt><trkpt lat="45.84840734983708" lon="9.108236161588396"><ele>242.0</ele><time>2026-05-01T07:41:52Z</time></trkpt><trkpt lat="45.84848090867166" lon="9.108463186641842"><ele>242.0</ele><time>2026-05-01T07:41:53Z</time></trkpt><trkpt lat="45.84855495022419" lon="9.108699880538602"><ele>239.33333333333334</ele><time>2026-05-01T07:41:54Z</time></trkpt><trkpt lat="45.84862780427975" lon="9.10893748332"><ele>236.66666666666669</ele><time>2026-05-01T07:41:55Z</time></trkpt><trkpt lat="45.84870594861876" lon="9.109174832102395"><ele>234.0</ele><time>2026-05-01T07:41:56Z</time></trkpt><trkpt lat="45.848793740619115" lon="9.109390901253867"><ele>234.0</ele><time>2026-05-01T07:41:57Z</time></trkpt><trkpt lat="45.8488910321942" lon="9.109592552570087"><ele>234.0</ele><time>2026-05-01T07:41:58Z</time></trkpt><trkpt lat="45.84900529669807" lon="9.109765586548603"><ele>234.0</ele><time>2026-05-01T07:41:59Z</time></trkpt><trkpt lat="45.849109446027526" lon="9.109929871579121"><ele>229.0</ele><time>2026-05-01T07:42:00Z</time></trkpt><trkpt lat="45.84920491516255" lon="9.110084904290366"><ele>224.0</ele><time>2026-05-01T07:42:01Z</time></trkpt><trkpt lat="45.84928684242571" lon="9.110253983981163"><ele>219.0</ele><time>2026-05-01T07:42:02Z</time></trkpt><trkpt lat="45.84945297469398" lon="9.11036323931982"><ele>219.0</ele><time>2026-05-01T07:42:03Z</time></trkpt><trkpt lat="45.849600465231475" lon="9.110482920700589"><ele>219.0</ele><time>2026-05-01T07:42:04Z</time></trkpt><trkpt lat="45.84972528988698" lon="9.11059391452111"><ele>219.0</ele><time>2026-05-01T07:42:05Z</time></trkpt><trkpt lat="45.84984547040127" lon="9.110691068264133"><ele>227.0</ele><time>2026-05-01T07:42:06Z</time></trkpt><trkpt lat="45.84993349536319" lon="9.110845828398656"><ele>235.0</ele><time>2026-05-01T07:42:07Z</time></trkpt><trkpt lat="45.85005595321686" lon="9.110942415166248"><ele>243.0</ele><time>2026-05-01T07:42:08Z</time></trkpt><trkpt lat="45.850052655336945" lon="9.111151884895607"><ele>251.0</ele><time>2026-05-01T07:42:09Z</time></trkpt><trkpt lat="45.85007852526882" lon="9.11133390965743"><ele>251.0</ele><time>2026-05-01T07:42:10Z</time></trkpt><trkpt lat="45.85010155363897" lon="9.111525711952702"><ele>251.0</ele><time>2026-05-01T07:42:11Z</time></trkpt><trkpt lat="45.85013770039012" lon="9.111724583944369"><ele>251.0</ele><time>2026-05-01T07:42:12Z</time></trkpt><trkpt lat="45.850178751021204" lon="9.11193413598812"><ele>251.0</ele><time>2026-05-01T07:42:13Z</time></trkpt><trkpt lat="45.85021849274928" lon="9.112145707504043"><ele>246.66666666666669</ele><time>2026-05-01T07:42:14Z</time></trkpt><trkpt lat="45.8502579361563" lon="9.11236781316445"><ele>242.33333333333331</ele><time>2026-05-01T07:42:15Z</time></trkpt><trkpt lat="45.85029798859006" lon="9.11258828858798"><ele>238.0</ele><time>2026-05-01T07:42:16Z</time></trkpt><trkpt lat="45.8503401443156" lon="9.112812968703897"><ele>252.66666666666666</ele><time>2026-05-01T07:42:17.016Z</time></trkpt><trkpt lat="45.8503765664394" lon="9.113039248577305"><ele>267.3333333333333</ele><time>2026-05-01T07:42:18.011Z</time></trkpt><trkpt lat="45.850438519668884" lon="9.11327084137347"><ele>282.0</ele><time>2026-05-01T07:42:19.02Z</time></trkpt><trkpt lat="45.85056507453204" lon="9.113531712047658"><ele>301.5</ele><time>2026-05-01T07:42:20.019Z</time></trkpt><trkpt lat="45.85068309978835" lon="9.113722272310477"><ele>321.0</ele><time>2026-05-01T07:42:21.016Z</time></trkpt><trkpt lat="45.85118546228685" lon="9.114186361026544"><ele>321.0</ele><time>2026-05-01T07:42:24.738Z</time></trkpt><trkpt lat="45.851357304279624" lon="9.114244783245809"><ele>321.0</ele><time>2026-05-01T07:42:25.738Z</time></trkpt><trkpt lat="45.85150392119593" lon="9.114337696833761"><ele>321.0</ele><time>2026-05-01T07:42:26.739Z</time></trkpt><trkpt lat="45.85165660926683" lon="9.114408440431891"><ele>317.0</ele><time>2026-05-01T07:42:27.739Z</time></trkpt><trkpt lat="45.85180188813078" lon="9.114502013237955"><ele>313.0</ele><time>2026-05-01T07:42:28.737Z</time></trkpt><trkpt lat="45.85194676971841" lon="9.114598935500391"><ele>309.0</ele><time>2026-05-01T07:42:29.738Z</time></trkpt><trkpt lat="45.85208588919277" lon="9.114713611996763"><ele>309.0</ele><time>2026-05-01T07:42:30.736Z</time></trkpt><trkpt lat="45.852233832430606" lon="9.114799648407498"><ele>309.0</ele><time>2026-05-01T07:42:31.734Z</time></trkpt><trkpt lat="45.85238746090871" lon="9.114871212801182"><ele>309.0</ele><time>2026-05-01T07:42:32.736Z</time></trkpt><trkpt lat="45.85254578336336" lon="9.114916005096932"><ele>306.0</ele><time>2026-05-01T07:42:33.735Z</time></trkpt><trkpt lat="45.85270606590705" lon="9.114933016762809"><ele>303.0</ele><time>2026-05-01T07:42:34.734Z</time></trkpt><trkpt lat="45.85315958991689" lon="9.1148912558181"><ele>266.0</ele><time>2026-05-01T07:42:35.737Z</time></trkpt><trkpt lat="45.85360101088313" lon="9.114760962411543"><ele>266.0</ele><time>2026-05-01T07:42:36.739Z</time></trkpt><trkpt lat="45.85403623366912" lon="9.114607386041632"><ele>266.0</ele><time>2026-05-01T07:42:37.734Z</time></trkpt><trkpt lat="45.8543585" lon="9.1145118"><ele>222.0</ele><time>2026-05-01T07:42:38.734Z</time></trkpt><trkpt lat="45.854820054998484" lon="9.114522244789743"><ele>222.0</ele><time>2026-05-01T07:42:43.999Z</time></trkpt><trkpt lat="45.85494541824373" lon="9.114542140947943"><ele>222.0</ele><time>2026-05-01T07:42:44.999Z</time></trkpt><trkpt lat="45.85507417164933" lon="9.114675784627414"><ele>222.0</ele><time>2026-05-01T07:42:45.999Z</time></trkpt><trkpt lat="45.85517432653011" lon="9.114702637291561"><ele>222.0</ele><time>2026-05-01T07:42:46.999Z</time></trkpt><trkpt lat="45.855269552819934" lon="9.114808350782083"><ele>220.0</ele><time>2026-05-01T07:42:47.999Z</time></trkpt><trkpt lat="45.855390327064036" lon="9.11486655966644"><ele>218.0</ele><time>2026-05-01T07:42:48.999Z</time></trkpt><trkpt lat="45.855490269911314" lon="9.114950762544197"><ele>216.0</ele><time>2026-05-01T07:42:49.999Z</time></trkpt><trkpt lat="45.855591736854834" lon="9.115019537507008"><ele>214.0</ele><time>2026-05-01T07:42:50.999Z</time></trkpt><trkpt lat="45.855684032460424" lon="9.115062630558935"><ele>216.39999999999998</ele><time>2026-05-01T07:42:51.999Z</time></trkpt><trkpt lat="45.8557834427737" lon="9.115065864800812"><ele>218.79999999999998</ele><time>2026-05-01T07:42:52.999Z</time></trkpt><trkpt lat="45.855875848966555" lon="9.115098856079326"><ele>221.20000000000002</ele><time>2026-05-01T07:42:53.999Z</time></trkpt><trkpt lat="45.85600321912716" lon="9.1150349746793"><ele>223.60000000000002</ele><time>2026-05-01T07:42:54.999Z</time></trkpt><trkpt lat="45.85608804943134" lon="9.115061757048203"><ele>226.0</ele><time>2026-05-01T07:42:55.999Z</time></trkpt><trkpt lat="45.85619402051344" lon="9.115108037204816"><ele>226.0</ele><time>2026-05-01T07:42:56.999Z</time></trkpt><trkpt lat="45.856297476332074" lon="9.115171360184611"><ele>226.0</ele><time>2026-05-01T07:42:57.999Z</time></trkpt><trkpt lat="45.856407422488296" lon="9.115261200960063"><ele>226.0</ele><time>2026-05-01T07:42:58.999Z</time></trkpt><trkpt lat="45.856517124562856" lon="9.115367756648304"><ele>226.0</ele><time>2026-05-01T07:42:59.999Z</time></trkpt><trkpt lat="45.85663203724914" lon="9.115480553310135"><ele>226.0</ele><time>2026-05-01T07:43:00.999Z</time></trkpt><trkpt lat="45.85674218846558" lon="9.115589114604361"><ele>226.0</ele><time>2026-05-01T07:43:01.999Z</time></trkpt><trkpt lat="45.85685861953674" lon="9.115671295202562"><ele>226.0</ele><time>2026-05-01T07:43:02.999Z</time></trkpt><trkpt lat="45.85697203254547" lon="9.115740407140134"><ele>226.0</ele><time>2026-05-01T07:43:03.999Z</time></trkpt><trkpt lat="45.857084042579665" lon="9.115784485264896"><ele>226.0</ele><time>2026-05-01T07:43:04.999Z</time></trkpt><trkpt lat="45.85720219007788" lon="9.115817140348668"><ele>226.00000000000003</ele><time>2026-05-01T07:43:05.999Z</time></trkpt><trkpt lat="45.85730297364333" lon="9.115866397851086"><ele>226.00000000000003</ele><time>2026-05-01T07:43:06.999Z</time></trkpt><trkpt lat="45.85738993515416" lon="9.11593545011115"><ele>226.0</ele><time>2026-05-01T07:43:07.999Z</time></trkpt><trkpt lat="45.85747521065912" lon="9.11600820595317"><ele>226.0</ele><time>2026-05-01T07:43:08.999Z</time></trkpt><trkpt lat="45.85755058909111" lon="9.116093385546515"><ele>226.0</ele><time>2026-05-01T07:43:09.999Z</time></trkpt><trkpt lat="45.85760650322966" lon="9.11618639689899"><ele>226.00000000000003</ele><time>2026-05-01T07:43:10.999Z</time></trkpt><trkpt lat="45.857653614375785" lon="9.116298608183623"><ele>226.00000000000003</ele><time>2026-05-01T07:43:11.999Z</time></trkpt><trkpt lat="45.85768191138739" lon="9.116450489614916"><ele>226.0</ele><time>2026-05-01T07:43:12.999Z</time></trkpt><trkpt lat="45.85774653664277" lon="9.116573062823132"><ele>226.0</ele><time>2026-05-01T07:43:13.999Z</time></trkpt><trkpt lat="45.85781885141165" lon="9.11670934661646"><ele>223.75</ele><time>2026-05-01T07:43:14.999Z</time></trkpt><trkpt lat="45.85789521736264" lon="9.116860859117729"><ele>221.5</ele><time>2026-05-01T07:43:15.999Z</time></trkpt><trkpt lat="45.85795612151052" lon="9.117005942107514"><ele>219.25</ele><time>2026-05-01T07:43:16.999Z</time></trkpt><trkpt lat="45.85800937700632" lon="9.117169975750844"><ele>217.0</ele><time>2026-05-01T07:43:17.999Z</time></trkpt><trkpt lat="45.85804941055109" lon="9.117337482131962"><ele>218.2</ele><time>2026-05-01T07:43:18.999Z</time></trkpt><trkpt lat="45.858067921255014" lon="9.117504386830518"><ele>219.39999999999998</ele><time>2026-05-01T07:43:19.999Z</time></trkpt><trkpt lat="45.858084318333454" lon="9.117629263906144"><ele>220.60000000000002</ele><time>2026-05-01T07:43:20.999Z</time></trkpt><trkpt lat="45.858113618096176" lon="9.117758470022778"><ele>221.8</ele><time>2026-05-01T07:43:21.999Z</time></trkpt><trkpt lat="45.85810734985876" lon="9.117865952908742"><ele>223.0</ele><time>2026-05-01T07:43:22.999Z</time></trkpt><trkpt lat="45.85805560163013" lon="9.117978492461576"><ele>223.0</ele><time>2026-05-01T07:43:23.999Z</time></trkpt><trkpt lat="45.85799263685418" lon="9.118092545765402"><ele>223.0</ele><time>2026-05-01T07:43:24.999Z</time></trkpt><trkpt lat="45.857949898912594" lon="9.11821634907871"><ele>223.0</ele><time>2026-05-01T07:43:25.999Z</time></trkpt><trkpt lat="45.857957444468084" lon="9.118361276707057"><ele>223.0</ele><time>2026-05-01T07:43:26.999Z</time></trkpt><trkpt lat="45.85801147321639" lon="9.118509669086414"><ele>223.0</ele><time>2026-05-01T07:43:27.999Z</time></trkpt><trkpt lat="45.858079850993526" lon="9.118630028471188"><ele>225.4</ele><time>2026-05-01T07:43:28.999Z</time></trkpt><trkpt lat="45.85811171135747" lon="9.118751566276748"><ele>227.8</ele><time>2026-05-01T07:43:29.999Z</time></trkpt><trkpt lat="45.85810716588447" lon="9.118890662795666"><ele>230.2</ele><time>2026-05-01T07:43:30.999Z</time></trkpt><trkpt lat="45.85808346951475" lon="9.1190320506399"><ele>232.6</ele><time>2026-05-01T07:43:32Z</time></trkpt><trkpt lat="45.858030051206725" lon="9.119175899582244"><ele>235.0</ele><time>2026-05-01T07:43:33Z</time></trkpt><trkpt lat="45.85797725455963" lon="9.119335453256019"><ele>236.75</ele><time>2026-05-01T07:43:34Z</time></trkpt><trkpt lat="45.85793415248142" lon="9.11950600300956"><ele>238.5</ele><time>2026-05-01T07:43:35Z</time></trkpt><trkpt lat="45.857908124852415" lon="9.119667792835356"><ele>240.25</ele><time>2026-05-01T07:43:36Z</time></trkpt><trkpt lat="45.85786452231356" lon="9.119823993967149"><ele>242.0</ele><time>2026-05-01T07:43:37Z</time></trkpt><trkpt lat="45.85782136871503" lon="9.119988936024626"><ele>242.0</ele><time>2026-05-01T07:43:38Z</time></trkpt><trkpt lat="45.85778393616625" lon="9.120147976698512"><ele>242.0</ele><time>2026-05-01T07:43:39Z</time></trkpt><trkpt lat="45.857756038416454" lon="9.12028418282303"><ele>242.0</ele><time>2026-05-01T07:43:40Z</time></trkpt><trkpt lat="45.857758890605766" lon="9.120411654000115"><ele>242.0</ele><time>2026-05-01T07:43:41Z</time></trkpt><trkpt lat="45.857763696635" lon="9.120532787169328"><ele>242.0</ele><time>2026-05-01T07:43:42Z</time></trkpt><trkpt lat="45.85777909973345" lon="9.120676466805437"><ele>241.0</ele><time>2026-05-01T07:43:43Z</time></trkpt><trkpt lat="45.857811017106435" lon="9.120831337457117"><ele>240.0</ele><time>2026-05-01T07:43:44Z</time></trkpt><trkpt lat="45.85784007763146" lon="9.120990109270556"><ele>239.0</ele><time>2026-05-01T07:43:45Z</time></trkpt><trkpt lat="45.8578571473222" lon="9.121150321336472"><ele>238.0</ele><time>2026-05-01T07:43:46Z</time></trkpt><trkpt lat="45.8579052147163" lon="9.121210466403891"><ele>237.0</ele><time>2026-05-01T07:43:47Z</time></trkpt><trkpt lat="45.85788696044677" lon="9.121566308666948"><ele>236.5</ele><time>2026-05-01T07:43:49Z</time></trkpt><trkpt lat="45.85788143499383" lon="9.121710520168573"><ele>236.0</ele><time>2026-05-01T07:43:50Z</time></trkpt><trkpt lat="45.85778751622268" lon="9.121826166705363"><ele>235.5</ele><time>2026-05-01T07:43:51Z</time></trkpt><trkpt lat="45.85773600671354" lon="9.121983192567207"><ele>235.0</ele><time>2026-05-01T07:43:52Z</time></trkpt><trkpt lat="45.857695268966616" lon="9.122150291039771"><ele>235.0</ele><time>2026-05-01T07:43:53Z</time></trkpt><trkpt lat="45.85764885996303" lon="9.122295241056957"><ele>235.0</ele><time>2026-05-01T07:43:54Z</time></trkpt><trkpt lat="45.85763572744304" lon="9.122439836737584"><ele>235.0</ele><time>2026-05-01T07:43:55Z</time></trkpt><trkpt lat="45.857638026217835" lon="9.122596312756464"><ele>235.0</ele><time>2026-05-01T07:43:56Z</time></trkpt><trkpt lat="45.857669923170754" lon="9.122767319061557"><ele>235.0</ele><time>2026-05-01T07:43:57Z</time></trkpt><trkpt lat="45.85770864078111" lon="9.122939089545921"><ele>234.5</ele><time>2026-05-01T07:43:58Z</time></trkpt><trkpt lat="45.85774783974828" lon="9.12311804030041"><ele>234.0</ele><time>2026-05-01T07:43:59Z</time></trkpt><trkpt lat="45.8577748570379" lon="9.123285702463484"><ele>233.5</ele><time>2026-05-01T07:44:00Z</time></trkpt><trkpt lat="45.857779780323604" lon="9.123447182113283"><ele>233.0</ele><time>2026-05-01T07:44:01Z</time></trkpt><trkpt lat="45.857732740111" lon="9.123596639891913"><ele>232.0</ele><time>2026-05-01T07:44:02Z</time></trkpt><trkpt lat="45.857691101206576" lon="9.123769681084813"><ele>231.0</ele><time>2026-05-01T07:44:03Z</time></trkpt><trkpt lat="45.85764512086739" lon="9.123957070030082"><ele>230.0</ele><time>2026-05-01T07:44:04Z</time></trkpt><trkpt lat="45.85759643321449" lon="9.124147219825975"><ele>229.0</ele><time>2026-05-01T07:44:05Z</time></trkpt><trkpt lat="45.857554982049926" lon="9.124315951488038"><ele>237.6</ele><time>2026-05-01T07:44:06Z</time></trkpt><trkpt lat="45.857517734114374" lon="9.124454190397104"><ele>246.2</ele><time>2026-05-01T07:44:07Z</time></trkpt><trkpt lat="45.857505505921644" lon="9.124580349716913"><ele>254.79999999999998</ele><time>2026-05-01T07:44:08Z</time></trkpt><trkpt lat="45.85751301586523" lon="9.124717582199839"><ele>263.4</ele><time>2026-05-01T07:44:09Z</time></trkpt><trkpt lat="45.85754087608599" lon="9.1248716867918"><ele>272.0</ele><time>2026-05-01T07:44:10Z</time></trkpt><trkpt lat="45.85757319131995" lon="9.12504863756031"><ele>260.25</ele><time>2026-05-01T07:44:11Z</time></trkpt><trkpt lat="45.857632358500865" lon="9.125240961845218"><ele>248.5</ele><time>2026-05-01T07:44:12Z</time></trkpt><trkpt lat="45.857657222330616" lon="9.125415538234314"><ele>236.75</ele><time>2026-05-01T07:44:13Z</time></trkpt><trkpt lat="45.857683910468594" lon="9.125552897459706"><ele>225.0</ele><time>2026-05-01T07:44:14Z</time></trkpt><trkpt lat="45.857695117786065" lon="9.125715529075702"><ele>225.25</ele><time>2026-05-01T07:44:15Z</time></trkpt><trkpt lat="45.857674496649835" lon="9.125888116938556"><ele>225.5</ele><time>2026-05-01T07:44:16Z</time></trkpt><trkpt lat="45.85763629382907" lon="9.126102807501944"><ele>225.75</ele><time>2026-05-01T07:44:17Z</time></trkpt><trkpt lat="45.8576039925769" lon="9.126308099969425"><ele>226.0</ele><time>2026-05-01T07:44:18Z</time></trkpt><trkpt lat="45.85757345918306" lon="9.126473325492896"><ele>229.0</ele><time>2026-05-01T07:44:19Z</time></trkpt><trkpt lat="45.85754930491163" lon="9.126663981425066"><ele>232.0</ele><time>2026-05-01T07:44:20Z</time></trkpt><trkpt lat="45.85755110496443" lon="9.12685246351338"><ele>235.0</ele><time>2026-05-01T07:44:21Z</time></trkpt><trkpt lat="45.85759335830842" lon="9.127032905882833"><ele>238.0</ele><time>2026-05-01T07:44:21.999Z</time></trkpt><trkpt lat="45.85762774665041" lon="9.127219783443469"><ele>240.25</ele><time>2026-05-01T07:44:22.999Z</time></trkpt><trkpt lat="45.8576615958861" lon="9.127417764512101"><ele>242.5</ele><time>2026-05-01T07:44:23.999Z</time></trkpt><trkpt lat="45.857683639399774" lon="9.12763342116657"><ele>244.75</ele><time>2026-05-01T07:44:24.999Z</time></trkpt><trkpt lat="45.857717409235164" lon="9.12784200887879"><ele>247.0</ele><time>2026-05-01T07:44:25.999Z</time></trkpt><trkpt lat="45.8577458831013" lon="9.128025177681955"><ele>247.0</ele><time>2026-05-01T07:44:26.999Z</time></trkpt><trkpt lat="45.857766212420124" lon="9.12818629941559"><ele>247.0</ele><time>2026-05-01T07:44:27.999Z</time></trkpt><trkpt lat="45.857775548517004" lon="9.128356397714306"><ele>247.0</ele><time>2026-05-01T07:44:28.999Z</time></trkpt><trkpt lat="45.8577792040704" lon="9.128632218597708"><ele>247.0</ele><time>2026-05-01T07:44:29.999Z</time></trkpt><trkpt lat="45.85770627084476" lon="9.12889475971869"><ele>248.5</ele><time>2026-05-01T07:44:30.999Z</time></trkpt><trkpt lat="45.857658102063354" lon="9.129050815528064"><ele>250.0</ele><time>2026-05-01T07:44:32.999Z</time></trkpt><trkpt lat="45.857592000341434" lon="9.129215896576174"><ele>251.5</ele><time>2026-05-01T07:44:33.999Z</time></trkpt><trkpt lat="45.85752390293772" lon="9.129366757982526"><ele>253.0</ele><time>2026-05-01T07:44:34.999Z</time></trkpt><trkpt lat="45.85744980798977" lon="9.129546059723431"><ele>264.66666666666663</ele><time>2026-05-01T07:44:35.999Z</time></trkpt><trkpt lat="45.85737355247162" lon="9.129734326090645"><ele>276.3333333333333</ele><time>2026-05-01T07:44:36.999Z</time></trkpt><trkpt lat="45.85729056272522" lon="9.129932476887232"><ele>288.0</ele><time>2026-05-01T07:44:37.999Z</time></trkpt><trkpt lat="45.85720530703808" lon="9.130143787057904"><ele>288.0</ele><time>2026-05-01T07:44:38.999Z</time></trkpt><trkpt lat="45.85711730993984" lon="9.130356222875225"><ele>288.0</ele><time>2026-05-01T07:44:39.999Z</time></trkpt><trkpt lat="45.857029549525166" lon="9.130569767294974"><ele>288.0</ele><time>2026-05-01T07:44:40.999Z</time></trkpt><trkpt lat="45.856944064814286" lon="9.130776824168679"><ele>283.0</ele><time>2026-05-01T07:44:41.999Z</time></trkpt><trkpt lat="45.856878865500526" lon="9.130989390434152"><ele>278.0</ele><time>2026-05-01T07:44:42.999Z</time></trkpt><trkpt lat="45.85683081287041" lon="9.13118417043966"><ele>273.0</ele><time>2026-05-01T07:44:43.999Z</time></trkpt><trkpt lat="45.8567814066981" lon="9.131352610171211"><ele>268.0</ele><time>2026-05-01T07:44:44.999Z</time></trkpt><trkpt lat="45.85671554967931" lon="9.131489892964169"><ele>274.8</ele><time>2026-05-01T07:44:45.999Z</time></trkpt><trkpt lat="45.85662814269048" lon="9.131564419398464"><ele>281.6</ele><time>2026-05-01T07:44:46.999Z</time></trkpt><trkpt lat="45.856535381159155" lon="9.1316354272353"><ele>288.4</ele><time>2026-05-01T07:44:47.999Z</time></trkpt><trkpt lat="45.85644828553544" lon="9.131733188340133"><ele>295.2</ele><time>2026-05-01T07:44:48.999Z</time></trkpt><trkpt lat="45.856364198660756" lon="9.13184816722227"><ele>302.0</ele><time>2026-05-01T07:44:49.999Z</time></trkpt><trkpt lat="45.85631600988863" lon="9.132007216911255"><ele>302.0</ele><time>2026-05-01T07:44:50.999Z</time></trkpt><trkpt lat="45.856302887065596" lon="9.132191747175058"><ele>302.0</ele><time>2026-05-01T07:44:51.999Z</time></trkpt><trkpt lat="45.8563260871383" lon="9.132391381716955"><ele>302.0</ele><time>2026-05-01T07:44:52.999Z</time></trkpt><trkpt lat="45.85636790409216" lon="9.132600163783188"><ele>302.0</ele><time>2026-05-01T07:44:53.999Z</time></trkpt><trkpt lat="45.856415224581404" lon="9.132827652076708"><ele>302.0</ele><time>2026-05-01T07:44:54.999Z</time></trkpt><trkpt lat="45.856448648179615" lon="9.133076323427641"><ele>302.0</ele><time>2026-05-01T07:44:55.999Z</time></trkpt><trkpt lat="45.85647765200818" lon="9.133354930933162"><ele>302.0</ele><time>2026-05-01T07:44:56.999Z</time></trkpt><trkpt lat="45.85652231062712" lon="9.133638774224012"><ele>305.0</ele><time>2026-05-01T07:44:57.999Z</time></trkpt><trkpt lat="45.856565122980605" lon="9.13391532950139"><ele>308.0</ele><time>2026-05-01T07:44:58.999Z</time></trkpt><trkpt lat="45.856596064549954" lon="9.134165497640804"><ele>311.0</ele><time>2026-05-01T07:44:59.999Z</time></trkpt><trkpt lat="45.85662153476498" lon="9.13439811367643"><ele>312.33333333333337</ele><time>2026-05-01T07:45:00.999Z</time></trkpt><trkpt lat="45.856648286896615" lon="9.134623615384452"><ele>313.6666666666667</ele><time>2026-05-01T07:45:01.999Z</time></trkpt><trkpt lat="45.85666488357894" lon="9.134836854384941"><ele>315.0</ele><time>2026-05-01T07:45:02.999Z</time></trkpt><trkpt lat="45.85662729259284" lon="9.135054404993664"><ele>317.3333333333333</ele><time>2026-05-01T07:45:03.999Z</time></trkpt><trkpt lat="45.85658999660887" lon="9.135291785921655"><ele>319.66666666666663</ele><time>2026-05-01T07:45:04.999Z</time></trkpt><trkpt lat="45.856582388367904" lon="9.135550983085501"><ele>322.0</ele><time>2026-05-01T07:45:05.999Z</time></trkpt><trkpt lat="45.85657366096359" lon="9.135815149705772"><ele>322.0</ele><time>2026-05-01T07:45:06.999Z</time></trkpt><trkpt lat="45.85659837142902" lon="9.136084308649489"><ele>322.0</ele><time>2026-05-01T07:45:07.999Z</time></trkpt><trkpt lat="45.856634521567" lon="9.1363579053788"><ele>322.0</ele><time>2026-05-01T07:45:08.999Z</time></trkpt><trkpt lat="45.85666630877596" lon="9.13664243411102"><ele>324.66666666666663</ele><time>2026-05-01T07:45:09.999Z</time></trkpt><trkpt lat="45.856690415650924" lon="9.136943169988571"><ele>327.3333333333333</ele><time>2026-05-01T07:45:10.999Z</time></trkpt><trkpt lat="45.85671499963488" lon="9.137241492379308"><ele>330.0</ele><time>2026-05-01T07:45:11.999Z</time></trkpt><trkpt lat="45.85675482430728" lon="9.1375444885913"><ele>310.0</ele><time>2026-05-01T07:45:12.999Z</time></trkpt><trkpt lat="45.85681832349457" lon="9.137862095200955"><ele>290.0</ele><time>2026-05-01T07:45:13.999Z</time></trkpt><trkpt lat="45.85684697948387" lon="9.138120735846094"><ele>270.0</ele><time>2026-05-01T07:45:14.999Z</time></trkpt><trkpt lat="45.856872932907265" lon="9.138361514556799"><ele>270.0</ele><time>2026-05-01T07:45:15.999Z</time></trkpt><trkpt lat="45.85689317304657" lon="9.138572115508397"><ele>270.0</ele><time>2026-05-01T07:45:16.999Z</time></trkpt><trkpt lat="45.85688756158132" lon="9.138759258826068"><ele>270.0</ele><time>2026-05-01T07:45:17.999Z</time></trkpt><trkpt lat="45.856873271804496" lon="9.138906036878549"><ele>270.0</ele><time>2026-05-01T07:45:18.999Z</time></trkpt><trkpt lat="45.856854527908105" lon="9.13905670999476"><ele>270.25</ele><time>2026-05-01T07:45:19.999Z</time></trkpt><trkpt lat="45.856836443221525" lon="9.139243675693383"><ele>270.5</ele><time>2026-05-01T07:45:20.999Z</time></trkpt><trkpt lat="45.85682429887678" lon="9.13947639388793"><ele>270.75</ele><time>2026-05-01T07:45:21.999Z</time></trkpt><trkpt lat="45.856803873062944" lon="9.13964792102996"><ele>271.0</ele><time>2026-05-01T07:45:22.999Z</time></trkpt><trkpt lat="45.85689205210159" lon="9.139896205714658"><ele>272.3333333333333</ele><time>2026-05-01T07:45:23.999Z</time></trkpt><trkpt lat="45.85690102921569" lon="9.140050484140641"><ele>273.6666666666667</ele><time>2026-05-01T07:45:24.999Z</time></trkpt><trkpt lat="45.857164023131304" lon="9.140190604762646"><ele>275.0</ele><time>2026-05-01T07:45:25.999Z</time></trkpt><trkpt lat="45.85720232410423" lon="9.140410245317069"><ele>275.0</ele><time>2026-05-01T07:45:26.999Z</time></trkpt><trkpt lat="45.856833292674544" lon="9.140627826104632"><ele>275.0</ele><time>2026-05-01T07:45:27.999Z</time></trkpt><trkpt lat="45.85681257968467" lon="9.140753111849982"><ele>282.0</ele><time>2026-05-01T07:45:28.999Z</time></trkpt><trkpt lat="45.85680519484499" lon="9.140873693009492"><ele>289.0</ele><time>2026-05-01T07:45:29.999Z</time></trkpt><trkpt lat="45.85686502396155" lon="9.140958299541126"><ele>296.0</ele><time>2026-05-01T07:45:30.999Z</time></trkpt><trkpt lat="45.85692952180214" lon="9.141019346498016"><ele>303.0</ele><time>2026-05-01T07:45:31.999Z</time></trkpt><trkpt lat="45.85699760469834" lon="9.141055913553936"><ele>310.0</ele><time>2026-05-01T07:45:32.998Z</time></trkpt><trkpt lat="45.85712928049439" lon="9.141004680203075"><ele>310.0</ele><time>2026-05-01T07:45:33.998Z</time></trkpt><trkpt lat="45.85724957964186" lon="9.140959159104428"><ele>310.0</ele><time>2026-05-01T07:45:34.998Z</time></trkpt><trkpt lat="45.85734374246911" lon="9.140953133272786"><ele>310.0</ele><time>2026-05-01T07:45:35.998Z</time></trkpt><trkpt lat="45.85745780548866" lon="9.14100802438352"><ele>310.0</ele><time>2026-05-01T07:45:37Z</time></trkpt><trkpt lat="45.85754479890845" lon="9.141116273354804"><ele>310.0</ele><time>2026-05-01T07:45:38Z</time></trkpt><trkpt lat="45.857612829267154" lon="9.141243830886122"><ele>310.0</ele><time>2026-05-01T07:45:39Z</time></trkpt><trkpt lat="45.85769830699573" lon="9.14137279579615"><ele>310.0</ele><time>2026-05-01T07:45:40Z</time></trkpt><trkpt lat="45.85779446850408" lon="9.141516085088174"><ele>310.0</ele><time>2026-05-01T07:45:41Z</time></trkpt><trkpt lat="45.85789700852013" lon="9.141660431850525"><ele>301.25</ele><time>2026-05-01T07:45:42Z</time></trkpt><trkpt lat="45.85799498385419" lon="9.141810177581634"><ele>292.5</ele><time>2026-05-01T07:45:43Z</time></trkpt><trkpt lat="45.85809192945416" lon="9.141940939542174"><ele>283.75</ele><time>2026-05-01T07:45:44Z</time></trkpt><trkpt lat="45.85818757441198" lon="9.14208200952285"><ele>275.0</ele><time>2026-05-01T07:45:45Z</time></trkpt><trkpt lat="45.8582655012125" lon="9.142259633417353"><ele>283.0</ele><time>2026-05-01T07:45:46Z</time></trkpt><trkpt lat="45.85833192575795" lon="9.142461541302456"><ele>291.0</ele><time>2026-05-01T07:45:47Z</time></trkpt><trkpt lat="45.85837805748206" lon="9.14266854615796"><ele>299.0</ele><time>2026-05-01T07:45:48Z</time></trkpt><trkpt lat="45.85842799769832" lon="9.142856981280506"><ele>307.0</ele><time>2026-05-01T07:45:49Z</time></trkpt><trkpt lat="45.85851442759309" lon="9.143016497723204"><ele>295.3333333333333</ele><time>2026-05-01T07:45:50Z</time></trkpt><trkpt lat="45.85862967207963" lon="9.143170887882677"><ele>283.6666666666667</ele><time>2026-05-01T07:45:51Z</time></trkpt><trkpt lat="45.858752587255225" lon="9.143322715842586"><ele>272.0</ele><time>2026-05-01T07:45:52Z</time></trkpt><trkpt lat="45.8588562721842" lon="9.143463916075723"><ele>272.0</ele><time>2026-05-01T07:45:53Z</time></trkpt><trkpt lat="45.85895339657588" lon="9.143587152453094"><ele>272.0</ele><time>2026-05-01T07:45:54Z</time></trkpt><trkpt lat="45.859033705352324" lon="9.143691399376907"><ele>272.0</ele><time>2026-05-01T07:45:55Z</time></trkpt><trkpt lat="45.85910593649701" lon="9.143803285967818"><ele>272.0</ele><time>2026-05-01T07:45:56Z</time></trkpt><trkpt lat="45.85917556390343" lon="9.143925510156524"><ele>268.25</ele><time>2026-05-01T07:45:57Z</time></trkpt><trkpt lat="45.85925113557819" lon="9.144060660743902"><ele>264.5</ele><time>2026-05-01T07:45:58Z</time></trkpt><trkpt lat="45.859318630182884" lon="9.144202253789222"><ele>260.75</ele><time>2026-05-01T07:45:59Z</time></trkpt><trkpt lat="45.85937226785514" lon="9.144323038580273"><ele>257.0</ele><time>2026-05-01T07:46:00Z</time></trkpt><trkpt lat="45.85947479905347" lon="9.14458863186613"><ele>257.0</ele><time>2026-05-01T07:46:01Z</time></trkpt><trkpt lat="45.85956115950096" lon="9.144780188540214"><ele>257.0</ele><time>2026-05-01T07:46:02Z</time></trkpt><trkpt lat="45.85964791273011" lon="9.144961058782917"><ele>257.0</ele><time>2026-05-01T07:46:03Z</time></trkpt><trkpt lat="45.859744200321444" lon="9.145122429255483"><ele>263.0</ele><time>2026-05-01T07:46:04Z</time></trkpt><trkpt lat="45.859854995832585" lon="9.145278828989206"><ele>269.0</ele><time>2026-05-01T07:46:05Z</time></trkpt><trkpt lat="45.86000196942178" lon="9.145427191295703"><ele>275.0</ele><time>2026-05-01T07:46:06Z</time></trkpt><trkpt lat="45.860170013279195" lon="9.14566390521515"><ele>271.75</ele><time>2026-05-01T07:46:07Z</time></trkpt><trkpt lat="45.86031738297237" lon="9.145871564630832"><ele>268.5</ele><time>2026-05-01T07:46:08Z</time></trkpt><trkpt lat="45.860390487672824" lon="9.146020498867399"><ele>265.25</ele><time>2026-05-01T07:46:10Z</time></trkpt><trkpt lat="45.86047984394653" lon="9.14610514527827"><ele>262.0</ele><time>2026-05-01T07:46:11Z</time></trkpt><trkpt lat="45.860629294320134" lon="9.146196317191059"><ele>262.0</ele><time>2026-05-01T07:46:12Z</time></trkpt><trkpt lat="45.860778017187364" lon="9.146264062121203"><ele>262.0</ele><time>2026-05-01T07:46:13Z</time></trkpt><trkpt lat="45.86089452431574" lon="9.146359379464812"><ele>262.0</ele><time>2026-05-01T07:46:14Z</time></trkpt><trkpt lat="45.860999007801375" lon="9.146494246564789"><ele>262.0</ele><time>2026-05-01T07:46:15Z</time></trkpt><trkpt lat="45.86109622986452" lon="9.146664440013005"><ele>256.66666666666663</ele><time>2026-05-01T07:46:16Z</time></trkpt><trkpt lat="45.86121018876577" lon="9.146832717644523"><ele>251.33333333333331</ele><time>2026-05-01T07:46:17Z</time></trkpt><trkpt lat="45.8613372843713" lon="9.147009394953548"><ele>246.0</ele><time>2026-05-01T07:46:18Z</time></trkpt><trkpt lat="45.861466104406276" lon="9.147178116096"><ele>246.0</ele><time>2026-05-01T07:46:19Z</time></trkpt><trkpt lat="45.86158131928219" lon="9.147337468216131"><ele>246.0</ele><time>2026-05-01T07:46:20Z</time></trkpt><trkpt lat="45.86168717302829" lon="9.147472273770163"><ele>246.0</ele><time>2026-05-01T07:46:21Z</time></trkpt><trkpt lat="45.86175671665496" lon="9.147610631703403"><ele>246.0</ele><time>2026-05-01T07:46:22Z</time></trkpt><trkpt lat="45.86184507422296" lon="9.147775062577129"><ele>245.75</ele><time>2026-05-01T07:46:23Z</time></trkpt><trkpt lat="45.861875371567656" lon="9.147957820136185"><ele>245.5</ele><time>2026-05-01T07:46:24Z</time></trkpt><trkpt lat="45.86189061483382" lon="9.148151336497017"><ele>245.25</ele><time>2026-05-01T07:46:25Z</time></trkpt><trkpt lat="45.86191904362465" lon="9.148340491771348"><ele>245.0</ele><time>2026-05-01T07:46:26Z</time></trkpt><trkpt lat="45.86194910988549" lon="9.148528434803378"><ele>245.0</ele><time>2026-05-01T07:46:27Z</time></trkpt><trkpt lat="45.86199150991152" lon="9.14869736363544"><ele>245.0</ele><time>2026-05-01T07:46:28Z</time></trkpt><trkpt lat="45.86207045713824" lon="9.148838528724813"><ele>245.0</ele><time>2026-05-01T07:46:29Z</time></trkpt><trkpt lat="45.86217938650578" lon="9.148955519064444"><ele>245.0</ele><time>2026-05-01T07:46:29.999Z</time></trkpt><trkpt lat="45.86226931843878" lon="9.149094284484397"><ele>248.75</ele><time>2026-05-01T07:46:30.999Z</time></trkpt><trkpt lat="45.86232659942976" lon="9.1492744368287"><ele>252.5</ele><time>2026-05-01T07:46:31.999Z</time></trkpt><trkpt lat="45.862362568189766" lon="9.149463693235568"><ele>256.25</ele><time>2026-05-01T07:46:32.999Z</time></trkpt><trkpt lat="45.86240661662025" lon="9.149636128154134"><ele>260.0</ele><time>2026-05-01T07:46:33.999Z</time></trkpt><trkpt lat="45.86249446631412" lon="9.149786798509174"><ele>254.33333333333334</ele><time>2026-05-01T07:46:34.999Z</time></trkpt><trkpt lat="45.86261452995622" lon="9.149933240797122"><ele>248.66666666666669</ele><time>2026-05-01T07:46:35.999Z</time></trkpt><trkpt lat="45.86271899667219" lon="9.150088098480268"><ele>243.0</ele><time>2026-05-01T07:46:36.999Z</time></trkpt><trkpt lat="45.862807806191825" lon="9.150275071816827"><ele>243.0</ele><time>2026-05-01T07:46:37.999Z</time></trkpt><trkpt lat="45.86290159432139" lon="9.150448997442513"><ele>243.0</ele><time>2026-05-01T07:46:38.999Z</time></trkpt><trkpt lat="45.863006306757754" lon="9.150602808577942"><ele>243.0</ele><time>2026-05-01T07:46:39.999Z</time></trkpt><trkpt lat="45.86313068379153" lon="9.150739013708819"><ele>240.0</ele><time>2026-05-01T07:46:40.999Z</time></trkpt><trkpt lat="45.86326643369333" lon="9.150883479629428"><ele>237.0</ele><time>2026-05-01T07:46:41.999Z</time></trkpt><trkpt lat="45.86342215628632" lon="9.15106720218491"><ele>234.0</ele><time>2026-05-01T07:46:42.999Z</time></trkpt><trkpt lat="45.86351984319011" lon="9.151159557126126"><ele>234.0</ele><time>2026-05-01T07:46:43.999Z</time></trkpt><trkpt lat="45.86363759091436" lon="9.151290464744312"><ele>234.0</ele><time>2026-05-01T07:46:44.999Z</time></trkpt><trkpt lat="45.863758678609436" lon="9.151420021117646"><ele>234.0</ele><time>2026-05-01T07:46:45.999Z</time></trkpt><trkpt lat="45.863879132440076" lon="9.151555386442546"><ele>240.75</ele><time>2026-05-01T07:46:46.999Z</time></trkpt><trkpt lat="45.86398146860402" lon="9.151697031883351"><ele>247.5</ele><time>2026-05-01T07:46:47.999Z</time></trkpt><trkpt lat="45.86407298112218" lon="9.151833454418657"><ele>254.25</ele><time>2026-05-01T07:46:48.999Z</time></trkpt><trkpt lat="45.864132511360516" lon="9.151956516760361"><ele>261.0</ele><time>2026-05-01T07:46:49.999Z</time></trkpt><trkpt lat="45.86421212526457" lon="9.152050535439527"><ele>259.75</ele><time>2026-05-01T07:46:50.999Z</time></trkpt><trkpt lat="45.86428061055037" lon="9.15216202300568"><ele>258.5</ele><time>2026-05-01T07:46:51.999Z</time></trkpt><trkpt lat="45.86431557073456" lon="9.152316741639158"><ele>257.25</ele><time>2026-05-01T07:46:52.999Z</time></trkpt><trkpt lat="45.864347449377995" lon="9.152486465778884"><ele>256.0</ele><time>2026-05-01T07:46:53.999Z</time></trkpt><trkpt lat="45.864386994099284" lon="9.152637811071314"><ele>256.0</ele><time>2026-05-01T07:46:54.999Z</time></trkpt><trkpt lat="45.864446440688496" lon="9.152747866851387"><ele>256.0</ele><time>2026-05-01T07:46:55.999Z</time></trkpt><trkpt lat="45.86452997512158" lon="9.152838546305235"><ele>256.0</ele><time>2026-05-01T07:46:56.999Z</time></trkpt><trkpt lat="45.86463278777974" lon="9.152909322003781"><ele>256.0</ele><time>2026-05-01T07:46:57.999Z</time></trkpt><trkpt lat="45.864756169942446" lon="9.152958888862901"><ele>256.0</ele><time>2026-05-01T07:46:58.999Z</time></trkpt><trkpt lat="45.86486080696972" lon="9.153012804818134"><ele>256.0</ele><time>2026-05-01T07:46:59.999Z</time></trkpt><trkpt lat="45.86496999575103" lon="9.153053616687732"><ele>256.0</ele><time>2026-05-01T07:47:00.999Z</time></trkpt><trkpt lat="45.86504594045381" lon="9.153114145803738"><ele>256.0</ele><time>2026-05-01T07:47:01.999Z</time></trkpt><trkpt lat="45.865108820115324" lon="9.153192992518816"><ele>256.0</ele><time>2026-05-01T07:47:02.999Z</time></trkpt><trkpt lat="45.86516040856915" lon="9.153295405551926"><ele>256.0</ele><time>2026-05-01T07:47:03.999Z</time></trkpt><trkpt lat="45.86520628882261" lon="9.153410991921534"><ele>255.60000000000002</ele><time>2026-05-01T07:47:04.999Z</time></trkpt><trkpt lat="45.86525647424346" lon="9.153519304055044"><ele>255.20000000000002</ele><time>2026-05-01T07:47:05.999Z</time></trkpt><trkpt lat="45.86534234402476" lon="9.153600693146089"><ele>254.79999999999998</ele><time>2026-05-01T07:47:06.999Z</time></trkpt><trkpt lat="45.86545808839697" lon="9.153640976252099"><ele>254.39999999999998</ele><time>2026-05-01T07:47:07.999Z</time></trkpt><trkpt lat="45.86556221375804" lon="9.153719443974698"><ele>254.0</ele><time>2026-05-01T07:47:08.999Z</time></trkpt><trkpt lat="45.86565774789685" lon="9.153874401243502"><ele>254.0</ele><time>2026-05-01T07:47:09.999Z</time></trkpt><trkpt lat="45.86577511507092" lon="9.154026503584209"><ele>254.0</ele><time>2026-05-01T07:47:10.999Z</time></trkpt><trkpt lat="45.86590680771607" lon="9.154166749960696"><ele>254.0</ele><time>2026-05-01T07:47:11.999Z</time></trkpt><trkpt lat="45.86604064276816" lon="9.154296253413609"><ele>251.5</ele><time>2026-05-01T07:47:12.999Z</time></trkpt><trkpt lat="45.86621418265267" lon="9.15445064876716"><ele>249.0</ele><time>2026-05-01T07:47:13.999Z</time></trkpt><trkpt lat="45.866417532509246" lon="9.15465719700646"><ele>249.0</ele><time>2026-05-01T07:47:14.999Z</time></trkpt><trkpt lat="45.86658151455579" lon="9.154809352065568"><ele>249.0</ele><time>2026-05-01T07:47:16.999Z</time></trkpt><trkpt lat="45.86674803338078" lon="9.154940984546034"><ele>249.0</ele><time>2026-05-01T07:47:17.999Z</time></trkpt><trkpt lat="45.866905851148495" lon="9.155062941462646"><ele>253.33333333333331</ele><time>2026-05-01T07:47:18.999Z</time></trkpt><trkpt lat="45.86705061348653" lon="9.155182193191111"><ele>257.66666666666663</ele><time>2026-05-01T07:47:19.999Z</time></trkpt><trkpt lat="45.8671979429202" lon="9.155309690271197"><ele>262.0</ele><time>2026-05-01T07:47:20.999Z</time></trkpt><trkpt lat="45.86734045683216" lon="9.155462156116178"><ele>262.0</ele><time>2026-05-01T07:47:21.999Z</time></trkpt><trkpt lat="45.86747393772719" lon="9.155629289377206"><ele>262.0</ele><time>2026-05-01T07:47:22.999Z</time></trkpt><trkpt lat="45.86761648365064" lon="9.155817097681956"><ele>262.0</ele><time>2026-05-01T07:47:23.999Z</time></trkpt><trkpt lat="45.86777195771804" lon="9.1559857440044"><ele>263.66666666666663</ele><time>2026-05-01T07:47:24.999Z</time></trkpt><trkpt lat="45.867924130240326" lon="9.156155247039408"><ele>265.3333333333333</ele><time>2026-05-01T07:47:25.999Z</time></trkpt><trkpt lat="45.86808087262105" lon="9.156309441875022"><ele>267.0</ele><time>2026-05-01T07:47:26.999Z</time></trkpt><trkpt lat="45.86822441670779" lon="9.156436706559502"><ele>269.75</ele><time>2026-05-01T07:47:27.999Z</time></trkpt><trkpt lat="45.86836266962895" lon="9.15655253305453"><ele>272.5</ele><time>2026-05-01T07:47:28.999Z</time></trkpt><trkpt lat="45.86848098476184" lon="9.156666987787643"><ele>275.25</ele><time>2026-05-01T07:47:29.999Z</time></trkpt><trkpt lat="45.86857685022164" lon="9.156785699175275"><ele>278.0</ele><time>2026-05-01T07:47:30.999Z</time></trkpt><trkpt lat="45.86866019305686" lon="9.156900854589475"><ele>278.0</ele><time>2026-05-01T07:47:31.999Z</time></trkpt><trkpt lat="45.86875691887706" lon="9.15699181052549"><ele>278.0</ele><time>2026-05-01T07:47:32.999Z</time></trkpt><trkpt lat="45.86887739665732" lon="9.157032104968005"><ele>278.0</ele><time>2026-05-01T07:47:33.999Z</time></trkpt><trkpt lat="45.86899548091093" lon="9.157056904547716"><ele>278.0</ele><time>2026-05-01T07:47:34.999Z</time></trkpt><trkpt lat="45.86911165615481" lon="9.157107678944604"><ele>278.0</ele><time>2026-05-01T07:47:35.999Z</time></trkpt><trkpt lat="45.86921390036396" lon="9.157208902696466"><ele>278.0</ele><time>2026-05-01T07:47:36.999Z</time></trkpt><trkpt lat="45.86926467558041" lon="9.157358548647002"><ele>278.0</ele><time>2026-05-01T07:47:37.999Z</time></trkpt><trkpt lat="45.86932802631041" lon="9.157522399932082"><ele>278.0</ele><time>2026-05-01T07:47:38.999Z</time></trkpt><trkpt lat="45.86938619283537" lon="9.157649238037973"><ele>282.25</ele><time>2026-05-01T07:47:39.998Z</time></trkpt><trkpt lat="45.86945378865731" lon="9.15776245383205"><ele>286.5</ele><time>2026-05-01T07:47:40.998Z</time></trkpt><trkpt lat="45.86955228681377" lon="9.15780883702655"><ele>290.75</ele><time>2026-05-01T07:47:41.998Z</time></trkpt><trkpt lat="45.8696719539334" lon="9.157795943009335"><ele>295.0</ele><time>2026-05-01T07:47:43Z</time></trkpt><trkpt lat="45.869790750824194" lon="9.15773891798078"><ele>295.0</ele><time>2026-05-01T07:47:44Z</time></trkpt><trkpt lat="45.869920822678274" lon="9.157719739908837"><ele>295.0</ele><time>2026-05-01T07:47:45Z</time></trkpt><trkpt lat="45.87002894345233" lon="9.157786814472768"><ele>295.0</ele><time>2026-05-01T07:47:46Z</time></trkpt><trkpt lat="45.87014122988383" lon="9.157847411463134"><ele>295.0</ele><time>2026-05-01T07:47:47Z</time></trkpt><trkpt lat="45.87025992415907" lon="9.157891346515667"><ele>289.66666666666663</ele><time>2026-05-01T07:47:48Z</time></trkpt><trkpt lat="45.87040380991757" lon="9.157862146740099"><ele>284.3333333333333</ele><time>2026-05-01T07:47:49Z</time></trkpt><trkpt lat="45.870556409748396" lon="9.15783856872948"><ele>279.0</ele><time>2026-05-01T07:47:50Z</time></trkpt><trkpt lat="45.87072373065702" lon="9.157853093952507"><ele>279.0</ele><time>2026-05-01T07:47:51Z</time></trkpt><trkpt lat="45.870888733539275" lon="9.157896677313285"><ele>279.0</ele><time>2026-05-01T07:47:52Z</time></trkpt><trkpt lat="45.8710630307992" lon="9.157964065818181"><ele>279.0</ele><time>2026-05-01T07:47:53Z</time></trkpt><trkpt lat="45.87123326624872" lon="9.158037658958078"><ele>274.0</ele><time>2026-05-01T07:47:54Z</time></trkpt><trkpt lat="45.87139436711333" lon="9.15810889440394"><ele>269.0</ele><time>2026-05-01T07:47:55Z</time></trkpt><trkpt lat="45.87155254362806" lon="9.158178037523042"><ele>264.0</ele><time>2026-05-01T07:47:56Z</time></trkpt><trkpt lat="45.87169113086512" lon="9.158260919406347"><ele>271.5</ele><time>2026-05-01T07:47:57Z</time></trkpt><trkpt lat="45.87181598128107" lon="9.158350604474288"><ele>279.0</ele><time>2026-05-01T07:47:58Z</time></trkpt><trkpt lat="45.871933869266215" lon="9.158416416302144"><ele>286.5</ele><time>2026-05-01T07:47:59Z</time></trkpt><trkpt lat="45.87202243133553" lon="9.158466219329194"><ele>294.0</ele><time>2026-05-01T07:48:00Z</time></trkpt><trkpt lat="45.87211904239223" lon="9.158476962922286"><ele>294.0</ele><time>2026-05-01T07:48:01Z</time></trkpt><trkpt lat="45.87220802213413" lon="9.15841105822912"><ele>294.0</ele><time>2026-05-01T07:48:02Z</time></trkpt><trkpt lat="45.87224698569421" lon="9.158242532192627"><ele>294.0</ele><time>2026-05-01T07:48:03Z</time></trkpt><trkpt lat="45.87232625489032" lon="9.158126515499902"><ele>294.0</ele><time>2026-05-01T07:48:04Z</time></trkpt><trkpt lat="45.872438806497705" lon="9.158057906074204"><ele>286.25</ele><time>2026-05-01T07:48:05Z</time></trkpt><trkpt lat="45.87256430661511" lon="9.158034527510985"><ele>278.5</ele><time>2026-05-01T07:48:06Z</time></trkpt><trkpt lat="45.872705361189986" lon="9.158052011590714"><ele>270.75</ele><time>2026-05-01T07:48:07Z</time></trkpt><trkpt lat="45.872856062317986" lon="9.158056874398099"><ele>263.0</ele><time>2026-05-01T07:48:08Z</time></trkpt><trkpt lat="45.87301048636427" lon="9.158045507667609"><ele>263.0</ele><time>2026-05-01T07:48:09Z</time></trkpt><trkpt lat="45.87318136194213" lon="9.1580147730523"><ele>263.0</ele><time>2026-05-01T07:48:10Z</time></trkpt><trkpt lat="45.873362135413245" lon="9.157961902384192"><ele>263.0</ele><time>2026-05-01T07:48:11Z</time></trkpt><trkpt lat="45.87350015125059" lon="9.157948374149852"><ele>262.75</ele><time>2026-05-01T07:48:12Z</time></trkpt><trkpt lat="45.87363272881185" lon="9.157911394188078"><ele>262.5</ele><time>2026-05-01T07:48:13Z</time></trkpt><trkpt lat="45.87376160794133" lon="9.157875312837152"><ele>262.25</ele><time>2026-05-01T07:48:14Z</time></trkpt><trkpt lat="45.87388558527894" lon="9.157851821787691"><ele>262.0</ele><time>2026-05-01T07:48:15Z</time></trkpt><trkpt lat="45.87401581101225" lon="9.157865437104833"><ele>262.0</ele><time>2026-05-01T07:48:16Z</time></trkpt><trkpt lat="45.87414432781642" lon="9.157890232565318"><ele>262.0</ele><time>2026-05-01T07:48:17Z</time></trkpt><trkpt lat="45.87425742403281" lon="9.157945884115097"><ele>262.0</ele><time>2026-05-01T07:48:18Z</time></trkpt><trkpt lat="45.87435892474371" lon="9.158000293236142"><ele>262.0</ele><time>2026-05-01T07:48:19Z</time></trkpt><trkpt lat="45.874468376039424" lon="9.158029783789466"><ele>266.2</ele><time>2026-05-01T07:48:20Z</time></trkpt><trkpt lat="45.87456912696497" lon="9.158001026277327"><ele>270.4</ele><time>2026-05-01T07:48:21Z</time></trkpt><trkpt lat="45.874658801112965" lon="9.157896197284378"><ele>274.6</ele><time>2026-05-01T07:48:22Z</time></trkpt><trkpt lat="45.874722851170915" lon="9.157771395551363"><ele>278.8</ele><time>2026-05-01T07:48:23Z</time></trkpt><trkpt lat="45.87476935152225" lon="9.157656167759042"><ele>283.0</ele><time>2026-05-01T07:48:24Z</time></trkpt><trkpt lat="45.8748200764584" lon="9.157567332449574"><ele>283.0</ele><time>2026-05-01T07:48:25Z</time></trkpt><trkpt lat="45.87488073226172" lon="9.15750375286087"><ele>283.0</ele><time>2026-05-01T07:48:26Z</time></trkpt><trkpt lat="45.87493821494013" lon="9.157445707643296"><ele>283.0</ele><time>2026-05-01T07:48:27Z</time></trkpt><trkpt lat="45.874998169800136" lon="9.157399565593755"><ele>283.0</ele><time>2026-05-01T07:48:28Z</time></trkpt><trkpt lat="45.875115488658736" lon="9.15733558348338"><ele>283.0</ele><time>2026-05-01T07:48:30Z</time></trkpt><trkpt lat="45.8751859829399" lon="9.15730681226725"><ele>283.0</ele><time>2026-05-01T07:48:33.999Z</time></trkpt><trkpt lat="45.8752573273918" lon="9.15728134541099"><ele>280.4</ele><time>2026-05-01T07:48:36.999Z</time></trkpt><trkpt lat="45.875338614798736" lon="9.157229718009809"><ele>277.8</ele><time>2026-05-01T07:48:50.999Z</time></trkpt><trkpt lat="45.87547573528769" lon="9.157174391373859"><ele>275.2</ele><time>2026-05-01T07:48:52.999Z</time></trkpt><trkpt lat="45.87556532542632" lon="9.157153075417437"><ele>272.6</ele><time>2026-05-01T07:48:53.999Z</time></trkpt><trkpt lat="45.875662688615485" lon="9.157103159525166"><ele>270.0</ele><time>2026-05-01T07:48:54.999Z</time></trkpt><trkpt lat="45.875758297105406" lon="9.157050126375301"><ele>270.0</ele><time>2026-05-01T07:48:55.999Z</time></trkpt><trkpt lat="45.87586371845772" lon="9.157000360296243"><ele>270.0</ele><time>2026-05-01T07:48:56.999Z</time></trkpt><trkpt lat="45.87600079361522" lon="9.157001089790779"><ele>270.0</ele><time>2026-05-01T07:48:57.999Z</time></trkpt><trkpt lat="45.87613524281763" lon="9.157030231602699"><ele>270.0</ele><time>2026-05-01T07:48:58.999Z</time></trkpt><trkpt lat="45.876282349186276" lon="9.157066485933834"><ele>267.0</ele><time>2026-05-01T07:48:59.999Z</time></trkpt><trkpt lat="45.87640774101006" lon="9.157135403518502"><ele>264.0</ele><time>2026-05-01T07:49:00.999Z</time></trkpt><trkpt lat="45.87653749938647" lon="9.15721609824992"><ele>261.0</ele><time>2026-05-01T07:49:01.999Z</time></trkpt><trkpt lat="45.87664438173277" lon="9.157354030380562"><ele>258.0</ele><time>2026-05-01T07:49:02.999Z</time></trkpt><trkpt lat="45.87671393082358" lon="9.157522099425053"><ele>259.25</ele><time>2026-05-01T07:49:03.999Z</time></trkpt><trkpt lat="45.876742201581344" lon="9.157697378845407"><ele>260.5</ele><time>2026-05-01T07:49:04.999Z</time></trkpt><trkpt lat="45.8767512796613" lon="9.157869602487779"><ele>261.75</ele><time>2026-05-01T07:49:05.999Z</time></trkpt><trkpt lat="45.87678125715953" lon="9.158022465912309"><ele>263.0</ele><time>2026-05-01T07:49:06.999Z</time></trkpt><trkpt lat="45.876824592373445" lon="9.15815845540231"><ele>263.0</ele><time>2026-05-01T07:49:07.999Z</time></trkpt><trkpt lat="45.87691697142985" lon="9.15824550442747"><ele>263.0</ele><time>2026-05-01T07:49:08.999Z</time></trkpt><trkpt lat="45.877035968983535" lon="9.158254827720874"><ele>263.0</ele><time>2026-05-01T07:49:09.999Z</time></trkpt><trkpt lat="45.877149016977505" lon="9.158198120778032"><ele>263.0</ele><time>2026-05-01T07:49:10.999Z</time></trkpt><trkpt lat="45.87725348163795" lon="9.158064985462705"><ele>263.0</ele><time>2026-05-01T07:49:11.999Z</time></trkpt><trkpt lat="45.87736364632402" lon="9.1579302973984"><ele>263.0</ele><time>2026-05-01T07:49:12.999Z</time></trkpt><trkpt lat="45.87746574184246" lon="9.157812263069818"><ele>263.0</ele><time>2026-05-01T07:49:13.999Z</time></trkpt><trkpt lat="45.87756524714685" lon="9.15772917737324"><ele>263.0</ele><time>2026-05-01T07:49:14.999Z</time></trkpt><trkpt lat="45.87768444869502" lon="9.157697692558685"><ele>261.75</ele><time>2026-05-01T07:49:15.999Z</time></trkpt><trkpt lat="45.877809538044595" lon="9.157702647122125"><ele>260.5</ele><time>2026-05-01T07:49:16.999Z</time></trkpt><trkpt lat="45.87794472330204" lon="9.157763976508695"><ele>259.25</ele><time>2026-05-01T07:49:17.999Z</time></trkpt><trkpt lat="45.87809816572974" lon="9.157814445563405"><ele>258.0</ele><time>2026-05-01T07:49:18.999Z</time></trkpt><trkpt lat="45.87824379505828" lon="9.157869181444342"><ele>258.0</ele><time>2026-05-01T07:49:19.999Z</time></trkpt><trkpt lat="45.87840872444114" lon="9.157897286076954"><ele>258.0</ele><time>2026-05-01T07:49:20.999Z</time></trkpt><trkpt lat="45.87850707491468" lon="9.157935024736657"><ele>258.0</ele><time>2026-05-01T07:49:21.999Z</time></trkpt><trkpt lat="45.87861214787858" lon="9.157973373794862"><ele>258.0</ele><time>2026-05-01T07:49:22.999Z</time></trkpt><trkpt lat="45.87877112354098" lon="9.15797563949965"><ele>257.75</ele><time>2026-05-01T07:49:23.999Z</time></trkpt><trkpt lat="45.87891410343115" lon="9.158003103682832"><ele>257.5</ele><time>2026-05-01T07:49:24.999Z</time></trkpt><trkpt lat="45.87905129768611" lon="9.158008732144257"><ele>257.25</ele><time>2026-05-01T07:49:25.999Z</time></trkpt><trkpt lat="45.879164866137415" lon="9.157999284337391"><ele>257.0</ele><time>2026-05-01T07:49:26.999Z</time></trkpt><trkpt lat="45.87928128442342" lon="9.15796834953467"><ele>257.0</ele><time>2026-05-01T07:49:27.999Z</time></trkpt><trkpt lat="45.8793637852266" lon="9.15785523319568"><ele>257.0</ele><time>2026-05-01T07:49:28.999Z</time></trkpt><trkpt lat="45.87947508501279" lon="9.157801617562777"><ele>257.0</ele><time>2026-05-01T07:49:29.999Z</time></trkpt><trkpt lat="45.879588778276904" lon="9.157748632758688"><ele>257.0</ele><time>2026-05-01T07:49:30.999Z</time></trkpt><trkpt lat="45.879684035209685" lon="9.157708957392655"><ele>257.0</ele><time>2026-05-01T07:49:31.999Z</time></trkpt><trkpt lat="45.87978436874572" lon="9.157675435210722"><ele>257.0</ele><time>2026-05-01T07:49:32.999Z</time></trkpt><trkpt lat="45.87987639168928" lon="9.157625201820785"><ele>257.0</ele><time>2026-05-01T07:49:33.999Z</time></trkpt><trkpt lat="45.87997319512256" lon="9.157602529732586"><ele>257.0</ele><time>2026-05-01T07:49:34.999Z</time></trkpt><trkpt lat="45.88005749582004" lon="9.15762327689944"><ele>257.0</ele><time>2026-05-01T07:49:35.999Z</time></trkpt><trkpt lat="45.88013676065674" lon="9.157610883726846"><ele>256.4</ele><time>2026-05-01T07:49:36.999Z</time></trkpt><trkpt lat="45.88019968889705" lon="9.15762391921049"><ele>255.79999999999998</ele><time>2026-05-01T07:49:37.999Z</time></trkpt><trkpt lat="45.88031371274154" lon="9.15764331806392"><ele>255.2</ele><time>2026-05-01T07:49:39.999Z</time></trkpt><trkpt lat="45.88043946797756" lon="9.157644509882683"><ele>254.6</ele><time>2026-05-01T07:49:41.998Z</time></trkpt><trkpt lat="45.880513493183095" lon="9.157640968301319"><ele>254.0</ele><time>2026-05-01T07:49:42.998Z</time></trkpt><trkpt lat="45.88059948798801" lon="9.157660746315022"><ele>254.00000000000003</ele><time>2026-05-01T07:49:43.998Z</time></trkpt><trkpt lat="45.88068814939988" lon="9.157671600312394"><ele>254.0</ele><time>2026-05-01T07:49:44.998Z</time></trkpt><trkpt lat="45.880781949825526" lon="9.157694067499337"><ele>254.0</ele><time>2026-05-01T07:49:45.998Z</time></trkpt><trkpt lat="45.8808672469105" lon="9.157731866119189"><ele>254.0</ele><time>2026-05-01T07:49:46.998Z</time></trkpt><trkpt lat="45.88094287389366" lon="9.15777926336171"><ele>254.00000000000003</ele><time>2026-05-01T07:49:47.998Z</time></trkpt><trkpt lat="45.881016753168204" lon="9.157827252770208"><ele>254.0</ele><time>2026-05-01T07:49:49Z</time></trkpt><trkpt lat="45.8810887791644" lon="9.15786875199856"><ele>254.66666666666669</ele><time>2026-05-01T07:49:50Z</time></trkpt><trkpt lat="45.88115080955549" lon="9.15790536742126"><ele>255.33333333333334</ele><time>2026-05-01T07:49:51Z</time></trkpt><trkpt lat="45.881213386954435" lon="9.157939931795863"><ele>256.0</ele><time>2026-05-01T07:49:52Z</time></trkpt><trkpt lat="45.88128963561347" lon="9.157949139740396"><ele>256.6666666666667</ele><time>2026-05-01T07:49:53Z</time></trkpt><trkpt lat="45.881355749232036" lon="9.157952149501567"><ele>257.3333333333333</ele><time>2026-05-01T07:49:54Z</time></trkpt><trkpt lat="45.88142282727927" lon="9.157937291874687"><ele>258.0</ele><time>2026-05-01T07:49:55Z</time></trkpt><trkpt lat="45.88153441318001" lon="9.15783639664457"><ele>258.0</ele><time>2026-05-01T07:49:57Z</time></trkpt><trkpt lat="45.881602819954736" lon="9.157683358786537"><ele>258.0</ele><time>2026-05-01T07:49:59Z</time></trkpt><trkpt lat="45.88165282336378" lon="9.157602831764663"><ele>258.0</ele><time>2026-05-01T07:50:00Z</time></trkpt><trkpt lat="45.88171766530586" lon="9.1575240225745"><ele>258.0</ele><time>2026-05-01T07:50:01Z</time></trkpt><trkpt lat="45.881800298584785" lon="9.157464948085615"><ele>258.0</ele><time>2026-05-01T07:50:02Z</time></trkpt><trkpt lat="45.88187316596495" lon="9.157426613600094"><ele>259.0</ele><time>2026-05-01T07:50:03Z</time></trkpt><trkpt lat="45.88193980616223" lon="9.157399139000065"><ele>260.0</ele><time>2026-05-01T07:50:04Z</time></trkpt><trkpt lat="45.88200653415985" lon="9.157374835228053"><ele>261.0</ele><time>2026-05-01T07:50:05Z</time></trkpt><trkpt lat="45.88208073194105" lon="9.157347230011867"><ele>262.0</ele><time>2026-05-01T07:50:06Z</time></trkpt><trkpt lat="45.882155434582806" lon="9.157335197785793"><ele>263.0</ele><time>2026-05-01T07:50:07Z</time></trkpt><trkpt lat="45.882219675701336" lon="9.157337312991933"><ele>264.0</ele><time>2026-05-01T07:50:08Z</time></trkpt><trkpt lat="45.88234169851497" lon="9.157323609404404"><ele>262.59999999999997</ele><time>2026-05-01T07:50:10Z</time></trkpt><trkpt lat="45.88245743254502" lon="9.157351258334655"><ele>261.2</ele><time>2026-05-01T07:50:12Z</time></trkpt><trkpt lat="45.882524147718236" lon="9.157366642237424"><ele>259.79999999999995</ele><time>2026-05-01T07:50:13Z</time></trkpt><trkpt lat="45.882643626228614" lon="9.157405825110704"><ele>258.4</ele><time>2026-05-01T07:50:15Z</time></trkpt><trkpt lat="45.88271049659205" lon="9.157450754630027"><ele>257.0</ele><time>2026-05-01T07:50:16Z</time></trkpt><trkpt lat="45.8827676561175" lon="9.157517111380841"><ele>257.0</ele><time>2026-05-01T07:50:17Z</time></trkpt><trkpt lat="45.88281422929359" lon="9.157599498964485"><ele>257.0</ele><time>2026-05-01T07:50:18Z</time></trkpt><trkpt lat="45.88284760182203" lon="9.157692909092164"><ele>257.0</ele><time>2026-05-01T07:50:19Z</time></trkpt><trkpt lat="45.88288364951476" lon="9.157776760974512"><ele>257.0</ele><time>2026-05-01T07:50:20Z</time></trkpt><trkpt lat="45.8829210022666" lon="9.157850472234708"><ele>257.0</ele><time>2026-05-01T07:50:21Z</time></trkpt><trkpt lat="45.88302864354963" lon="9.157943520046617"><ele>257.0</ele><time>2026-05-01T07:50:23Z</time></trkpt><trkpt lat="45.88309090227088" lon="9.15795759073388"><ele>257.0</ele><time>2026-05-01T07:50:24Z</time></trkpt><trkpt lat="45.88321110574618" lon="9.157969032067571"><ele>257.0</ele><time>2026-05-01T07:50:26Z</time></trkpt><trkpt lat="45.88332638003773" lon="9.157984561445227"><ele>257.0</ele><time>2026-05-01T07:50:28Z</time></trkpt><trkpt lat="45.88343246633682" lon="9.157965797815354"><ele>257.0</ele><time>2026-05-01T07:50:30Z</time></trkpt><trkpt lat="45.88353076679145" lon="9.157854473111678"><ele>255.16666666666669</ele><time>2026-05-01T07:50:32Z</time></trkpt><trkpt lat="45.88356455328285" lon="9.157753818040446"><ele>253.33333333333334</ele><time>2026-05-01T07:50:33Z</time></trkpt><trkpt lat="45.883586046947215" lon="9.157657248029931"><ele>251.5</ele><time>2026-05-01T07:50:34Z</time></trkpt><trkpt lat="45.88362166981219" lon="9.157466331580675"><ele>249.66666666666669</ele><time>2026-05-01T07:50:36Z</time></trkpt><trkpt lat="45.883664708178266" lon="9.157390940462946"><ele>247.83333333333334</ele><time>2026-05-01T07:50:37Z</time></trkpt><trkpt lat="45.88371388461752" lon="9.157326104795718"><ele>246.0</ele><time>2026-05-01T07:50:38Z</time></trkpt><trkpt lat="45.883766916938455" lon="9.157267179179248"><ele>246.0</ele><time>2026-05-01T07:50:39Z</time></trkpt><trkpt lat="45.88382525501346" lon="9.157216501907612"><ele>246.00000000000003</ele><time>2026-05-01T07:50:40Z</time></trkpt><trkpt lat="45.88390836337966" lon="9.15717128978603"><ele>246.00000000000003</ele><time>2026-05-01T07:50:41Z</time></trkpt><trkpt lat="45.88400706639377" lon="9.15711597673265"><ele>246.0</ele><time>2026-05-01T07:50:41.999Z</time></trkpt><trkpt lat="45.884114809245204" lon="9.157052659387473"><ele>246.0</ele><time>2026-05-01T07:50:42.999Z</time></trkpt><trkpt lat="45.884241835758694" lon="9.156981538879496"><ele>248.0</ele><time>2026-05-01T07:50:43.999Z</time></trkpt><trkpt lat="45.884347111390596" lon="9.15693007835041"><ele>250.00000000000003</ele><time>2026-05-01T07:50:44.999Z</time></trkpt><trkpt lat="45.88443806536676" lon="9.15690838323242"><ele>252.00000000000003</ele><time>2026-05-01T07:50:45.999Z</time></trkpt><trkpt lat="45.88450545129023" lon="9.156932072621041"><ele>254.0</ele><time>2026-05-01T07:50:46.999Z</time></trkpt><trkpt lat="45.88458705481913" lon="9.156959917450324"><ele>256.0</ele><time>2026-05-01T07:50:48.999Z</time></trkpt><trkpt lat="45.884615862497505" lon="9.157221930683429"><ele>267.0</ele><time>2026-05-01T07:50:49.999Z</time></trkpt><trkpt lat="45.884622074259" lon="9.157402856587296"><ele>278.0</ele><time>2026-05-01T07:50:50.999Z</time></trkpt><trkpt lat="45.88459701688945" lon="9.157611293077604"><ele>289.0</ele><time>2026-05-01T07:50:51.999Z</time></trkpt><trkpt lat="45.884545169033935" lon="9.157867783532698"><ele>289.0</ele><time>2026-05-01T07:50:52.999Z</time></trkpt><trkpt lat="45.88445749048354" lon="9.158132101584778"><ele>289.0</ele><time>2026-05-01T07:50:53.999Z</time></trkpt><trkpt lat="45.88562042839887" lon="9.156838129268886"><ele>280.5</ele><time>2026-05-01T07:50:54.999Z</time></trkpt><trkpt lat="45.88572832346494" lon="9.15687433171486"><ele>272.0</ele><time>2026-05-01T07:50:55.999Z</time></trkpt><trkpt lat="45.88584036693193" lon="9.156926679873166"><ele>263.5</ele><time>2026-05-01T07:50:56.999Z</time></trkpt><trkpt lat="45.88596749454911" lon="9.156991102550695"><ele>255.0</ele><time>2026-05-01T07:50:57.999Z</time></trkpt><trkpt lat="45.88608505813651" lon="9.15703607840478"><ele>252.75</ele><time>2026-05-01T07:50:58.999Z</time></trkpt><trkpt lat="45.88620536878345" lon="9.157096596235213"><ele>250.5</ele><time>2026-05-01T07:50:59.999Z</time></trkpt><trkpt lat="45.886343159923875" lon="9.15716958124591"><ele>248.25</ele><time>2026-05-01T07:51:00.999Z</time></trkpt><trkpt lat="45.88649231080778" lon="9.15724566961784"><ele>246.0</ele><time>2026-05-01T07:51:01.999Z</time></trkpt><trkpt lat="45.886654616202044" lon="9.157327566558246"><ele>260.0</ele><time>2026-05-01T07:51:02.999Z</time></trkpt><trkpt lat="45.886818362915314" lon="9.157408226307474"><ele>274.0</ele><time>2026-05-01T07:51:03.999Z</time></trkpt><trkpt lat="45.886972236249996" lon="9.157478334235218"><ele>288.0</ele><time>2026-05-01T07:51:04.999Z</time></trkpt><trkpt lat="45.887112634350366" lon="9.157524410094148"><ele>288.0</ele><time>2026-05-01T07:51:05.999Z</time></trkpt><trkpt lat="45.88722800177232" lon="9.1576304756104"><ele>288.0</ele><time>2026-05-01T07:51:06.999Z</time></trkpt><trkpt lat="45.887322936920825" lon="9.157739978249106"><ele>288.0</ele><time>2026-05-01T07:51:07.999Z</time></trkpt><trkpt lat="45.887416194518636" lon="9.157826490479136"><ele>288.0</ele><time>2026-05-01T07:51:08.999Z</time></trkpt><trkpt lat="45.88749736921304" lon="9.157909573458102"><ele>288.0</ele><time>2026-05-01T07:51:09.999Z</time></trkpt><trkpt lat="45.88758405462973" lon="9.157936832879182"><ele>288.0</ele><time>2026-05-01T07:51:10.999Z</time></trkpt><trkpt lat="45.887676181317126" lon="9.157888352235348"><ele>288.0</ele><time>2026-05-01T07:51:11.999Z</time></trkpt><trkpt lat="45.887747088018834" lon="9.157784139885454"><ele>288.0</ele><time>2026-05-01T07:51:12.999Z</time></trkpt><trkpt lat="45.88778905207737" lon="9.157644365528629"><ele>288.0</ele><time>2026-05-01T07:51:13.999Z</time></trkpt><trkpt lat="45.88782684946326" lon="9.157474357844322"><ele>290.0</ele><time>2026-05-01T07:51:14.999Z</time></trkpt><trkpt lat="45.887883147587374" lon="9.157300850512646"><ele>292.0</ele><time>2026-05-01T07:51:15.999Z</time></trkpt><trkpt lat="45.88794345991791" lon="9.157108174941525"><ele>294.0</ele><time>2026-05-01T07:51:16.999Z</time></trkpt><trkpt lat="45.88800222717813" lon="9.156867970370563"><ele>294.0</ele><time>2026-05-01T07:51:17.999Z</time></trkpt><trkpt lat="45.888045132566596" lon="9.156668274267085"><ele>294.0</ele><time>2026-05-01T07:51:18.999Z</time></trkpt><trkpt lat="45.888067667144036" lon="9.156474121652764"><ele>294.0</ele><time>2026-05-01T07:51:19.999Z</time></trkpt><trkpt lat="45.888078772929106" lon="9.15630628013802"><ele>294.0</ele><time>2026-05-01T07:51:20.999Z</time></trkpt><trkpt lat="45.88809889114765" lon="9.156189330564393"><ele>289.5</ele><time>2026-05-01T07:51:21.999Z</time></trkpt><trkpt lat="45.888169658596645" lon="9.156093826596818"><ele>285.0</ele><time>2026-05-01T07:51:22.999Z</time></trkpt><trkpt lat="45.88827091296865" lon="9.156054181180584"><ele>280.5</ele><time>2026-05-01T07:51:23.999Z</time></trkpt><trkpt lat="45.888403204229384" lon="9.156056313215116"><ele>276.0</ele><time>2026-05-01T07:51:24.999Z</time></trkpt><trkpt lat="45.888535606738586" lon="9.156062200267566"><ele>276.0</ele><time>2026-05-01T07:51:25.999Z</time></trkpt><trkpt lat="45.88866617519293" lon="9.156069717872327"><ele>276.0</ele><time>2026-05-01T07:51:26.999Z</time></trkpt><trkpt lat="45.88880672349243" lon="9.15608317665103"><ele>276.0</ele><time>2026-05-01T07:51:27.999Z</time></trkpt><trkpt lat="45.888963198599846" lon="9.156109708504832"><ele>276.0</ele><time>2026-05-01T07:51:28.999Z</time></trkpt><trkpt lat="45.88911242149432" lon="9.156173186072046"><ele>276.0</ele><time>2026-05-01T07:51:29.999Z</time></trkpt><trkpt lat="45.889234697864374" lon="9.156200455931874"><ele>276.0</ele><time>2026-05-01T07:51:30.999Z</time></trkpt><trkpt lat="45.8893446428127" lon="9.156229342648388"><ele>276.0</ele><time>2026-05-01T07:51:31.999Z</time></trkpt><trkpt lat="45.889451449597374" lon="9.156220164716704"><ele>276.0</ele><time>2026-05-01T07:51:32.999Z</time></trkpt><trkpt lat="45.88956541233132" lon="9.156136764513219"><ele>276.5</ele><time>2026-05-01T07:51:33.999Z</time></trkpt><trkpt lat="45.889683737252774" lon="9.156035200706038"><ele>277.0</ele><time>2026-05-01T07:51:34.999Z</time></trkpt><trkpt lat="45.88980660919626" lon="9.155989338526826"><ele>277.5</ele><time>2026-05-01T07:51:35.999Z</time></trkpt><trkpt lat="45.889944500721676" lon="9.156022429216042"><ele>278.0</ele><time>2026-05-01T07:51:36.999Z</time></trkpt><trkpt lat="45.89008098379168" lon="9.156064507222283"><ele>282.0</ele><time>2026-05-01T07:51:37.999Z</time></trkpt><trkpt lat="45.890217208897674" lon="9.156126221699218"><ele>286.0</ele><time>2026-05-01T07:51:38.999Z</time></trkpt><trkpt lat="45.890346829846195" lon="9.156173849483183"><ele>290.0</ele><time>2026-05-01T07:51:39.999Z</time></trkpt><trkpt lat="45.890465416705084" lon="9.15621948046852"><ele>294.0</ele><time>2026-05-01T07:51:40.999Z</time></trkpt><trkpt lat="45.890581640856325" lon="9.156191808626602"><ele>294.0</ele><time>2026-05-01T07:51:41.999Z</time></trkpt><trkpt lat="45.890687228292244" lon="9.156102032824574"><ele>294.0</ele><time>2026-05-01T07:51:42.999Z</time></trkpt><trkpt lat="45.89076707369305" lon="9.155971277473236"><ele>294.0</ele><time>2026-05-01T07:51:43.999Z</time></trkpt><trkpt lat="45.89082818413519" lon="9.155820371125134"><ele>294.0</ele><time>2026-05-01T07:51:44.999Z</time></trkpt><trkpt lat="45.89092065070463" lon="9.15568938240137"><ele>288.5</ele><time>2026-05-01T07:51:45.999Z</time></trkpt><trkpt lat="45.89103557028784" lon="9.155592516349783"><ele>283.0</ele><time>2026-05-01T07:51:46.998Z</time></trkpt><trkpt lat="45.891152295438104" lon="9.1555124747308"><ele>277.5</ele><time>2026-05-01T07:51:47.998Z</time></trkpt><trkpt lat="45.891283234811205" lon="9.15546982149036"><ele>272.0</ele><time>2026-05-01T07:51:48.998Z</time></trkpt><trkpt lat="45.89140214955335" lon="9.155425518829588"><ele>272.0</ele><time>2026-05-01T07:51:49.998Z</time></trkpt><trkpt lat="45.89150640032147" lon="9.155373645821424"><ele>272.0</ele><time>2026-05-01T07:51:50.998Z</time></trkpt><trkpt lat="45.89161131844785" lon="9.155300481865858"><ele>272.0</ele><time>2026-05-01T07:51:51.998Z</time></trkpt><trkpt lat="45.89174546559929" lon="9.15526490145953"><ele>272.0</ele><time>2026-05-01T07:51:52.998Z</time></trkpt><trkpt lat="45.891880230994396" lon="9.15521030817555"><ele>274.25</ele><time>2026-05-01T07:51:53.998Z</time></trkpt><trkpt lat="45.892019363988766" lon="9.155154723054025"><ele>276.5</ele><time>2026-05-01T07:51:55Z</time></trkpt><trkpt lat="45.892166194850034" lon="9.15514164674799"><ele>278.75</ele><time>2026-05-01T07:51:56Z</time></trkpt><trkpt lat="45.892317575611145" lon="9.15513945400461"><ele>281.0</ele><time>2026-05-01T07:51:57Z</time></trkpt><trkpt lat="45.892473792606005" lon="9.155127659908084"><ele>281.25</ele><time>2026-05-01T07:51:58Z</time></trkpt><trkpt lat="45.89262145656572" lon="9.155115506406327"><ele>281.5</ele><time>2026-05-01T07:51:59Z</time></trkpt><trkpt lat="45.89276006893905" lon="9.155109829165754"><ele>281.75</ele><time>2026-05-01T07:52:00Z</time></trkpt><trkpt lat="45.89289445546048" lon="9.15510211615489"><ele>282.0</ele><time>2026-05-01T07:52:01Z</time></trkpt><trkpt lat="45.89302294205427" lon="9.15508718896041"><ele>282.0</ele><time>2026-05-01T07:52:02Z</time></trkpt><trkpt lat="45.89313320090245" lon="9.155075571916365"><ele>282.0</ele><time>2026-05-01T07:52:03Z</time></trkpt><trkpt lat="45.89322913802927" lon="9.155050313038869"><ele>282.0</ele><time>2026-05-01T07:52:04Z</time></trkpt><trkpt lat="45.89331504787662" lon="9.154990137610579"><ele>282.0</ele><time>2026-05-01T07:52:05Z</time></trkpt><trkpt lat="45.89338948535096" lon="9.154883609027557"><ele>282.0</ele><time>2026-05-01T07:52:06Z</time></trkpt><trkpt lat="45.89345699570371" lon="9.154754890703861"><ele>279.0</ele><time>2026-05-01T07:52:07Z</time></trkpt><trkpt lat="45.89353733738661" lon="9.154636564099851"><ele>276.0</ele><time>2026-05-01T07:52:08Z</time></trkpt><trkpt lat="45.89362370407721" lon="9.154528482095147"><ele>273.0</ele><time>2026-05-01T07:52:09Z</time></trkpt><trkpt lat="45.89371686234531" lon="9.154441841848772"><ele>270.0</ele><time>2026-05-01T07:52:10Z</time></trkpt><trkpt lat="45.89378890276065" lon="9.154337555884892"><ele>267.0</ele><time>2026-05-01T07:52:11Z</time></trkpt><trkpt lat="45.893863738378904" lon="9.154266075438551"><ele>267.0</ele><time>2026-05-01T07:52:12Z</time></trkpt><trkpt lat="45.893950223106124" lon="9.15422496601086"><ele>267.0</ele><time>2026-05-01T07:52:13Z</time></trkpt><trkpt lat="45.89403178708068" lon="9.154226512777011"><ele>267.0</ele><time>2026-05-01T07:52:14Z</time></trkpt><trkpt lat="45.8941297816919" lon="9.154263000168527"><ele>267.0</ele><time>2026-05-01T07:52:15Z</time></trkpt><trkpt lat="45.89421403977003" lon="9.154356830643447"><ele>267.0</ele><time>2026-05-01T07:52:16Z</time></trkpt><trkpt lat="45.89427492106443" lon="9.154481187760078"><ele>266.0</ele><time>2026-05-01T07:52:17Z</time></trkpt><trkpt lat="45.894332511691005" lon="9.154624206852079"><ele>265.0</ele><time>2026-05-01T07:52:18Z</time></trkpt><trkpt lat="45.894389068665106" lon="9.154779889698542"><ele>264.0</ele><time>2026-05-01T07:52:19Z</time></trkpt><trkpt lat="45.894438877770924" lon="9.154923059156895"><ele>263.0</ele><time>2026-05-01T07:52:20Z</time></trkpt><trkpt lat="45.894489259576716" lon="9.155050436958389"><ele>263.0</ele><time>2026-05-01T07:52:21Z</time></trkpt><trkpt lat="45.89456359693487" lon="9.15514914894572"><ele>263.0</ele><time>2026-05-01T07:52:22Z</time></trkpt><trkpt lat="45.89463463805766" lon="9.155259904044504"><ele>263.0</ele><time>2026-05-01T07:52:23Z</time></trkpt><trkpt lat="45.89471856077386" lon="9.1553316405929"><ele>263.0</ele><time>2026-05-01T07:52:24Z</time></trkpt><trkpt lat="45.894802365384855" lon="9.155395953253029"><ele>263.0</ele><time>2026-05-01T07:52:25Z</time></trkpt><trkpt lat="45.894881671740364" lon="9.155461138505531"><ele>263.0</ele><time>2026-05-01T07:52:26Z</time></trkpt><trkpt lat="45.89495755537885" lon="9.155532941365182"><ele>263.0</ele><time>2026-05-01T07:52:27Z</time></trkpt><trkpt lat="45.89502441115724" lon="9.155597742699037"><ele>263.0</ele><time>2026-05-01T07:52:28Z</time></trkpt><trkpt lat="45.895119959295265" lon="9.155644274257577"><ele>263.0</ele><time>2026-05-01T07:52:30Z</time></trkpt><trkpt lat="45.89522981501574" lon="9.155621199339974"><ele>263.0</ele><time>2026-05-01T07:52:32Z</time></trkpt><trkpt lat="45.89530189086508" lon="9.155577004466489"><ele>263.4</ele><time>2026-05-01T07:52:33Z</time></trkpt><trkpt lat="45.895384623122645" lon="9.155503859317976"><ele>263.8</ele><time>2026-05-01T07:52:34Z</time></trkpt><trkpt lat="45.895426930671" lon="9.155371104774302"><ele>264.2</ele><time>2026-05-01T07:52:35Z</time></trkpt><trkpt lat="45.89549251662432" lon="9.155255528943266"><ele>264.6</ele><time>2026-05-01T07:52:36Z</time></trkpt><trkpt lat="45.895560886674986" lon="9.155167111582925"><ele>265.0</ele><time>2026-05-01T07:52:36.999Z</time></trkpt><trkpt lat="45.89563308421079" lon="9.155110466005096"><ele>265.0</ele><time>2026-05-01T07:52:37.999Z</time></trkpt><trkpt lat="45.895703027583295" lon="9.155070022418041"><ele>265.0</ele><time>2026-05-01T07:52:38.999Z</time></trkpt><trkpt lat="45.89579929611765" lon="9.155062658680135"><ele>265.0</ele><time>2026-05-01T07:52:39.999Z</time></trkpt><trkpt lat="45.895901636843014" lon="9.155066198232076"><ele>265.0</ele><time>2026-05-01T07:52:40.999Z</time></trkpt><trkpt lat="45.89601463086552" lon="9.1550876856536"><ele>265.0</ele><time>2026-05-01T07:52:41.999Z</time></trkpt><trkpt lat="45.89612563475582" lon="9.15510732488999"><ele>267.8</ele><time>2026-05-01T07:52:42.999Z</time></trkpt><trkpt lat="45.896225898008176" lon="9.155105867411377"><ele>270.6</ele><time>2026-05-01T07:52:43.999Z</time></trkpt><trkpt lat="45.89632443821085" lon="9.155117947821806"><ele>273.4</ele><time>2026-05-01T07:52:44.999Z</time></trkpt><trkpt lat="45.89640872868066" lon="9.155099366543501"><ele>276.2</ele><time>2026-05-01T07:52:45.999Z</time></trkpt><trkpt lat="45.89649905241192" lon="9.155036389634981"><ele>279.0</ele><time>2026-05-01T07:52:46.999Z</time></trkpt><trkpt lat="45.896593280705844" lon="9.154949220366094"><ele>279.0</ele><time>2026-05-01T07:52:47.999Z</time></trkpt><trkpt lat="45.896676755747386" lon="9.154873738646513"><ele>279.0</ele><time>2026-05-01T07:52:48.999Z</time></trkpt><trkpt lat="45.89676817448595" lon="9.154825001176835"><ele>279.0</ele><time>2026-05-01T07:52:49.999Z</time></trkpt><trkpt lat="45.89686867083353" lon="9.154764731079895"><ele>279.0</ele><time>2026-05-01T07:52:50.999Z</time></trkpt><trkpt lat="45.89699774707369" lon="9.154694029449745"><ele>279.0</ele><time>2026-05-01T07:52:51.999Z</time></trkpt><trkpt lat="45.89713798870291" lon="9.154597472619384"><ele>269.5</ele><time>2026-05-01T07:52:52.999Z</time></trkpt><trkpt lat="45.8972726185938" lon="9.154473808438295"><ele>260.0</ele><time>2026-05-01T07:52:53.999Z</time></trkpt><trkpt lat="45.897482834687786" lon="9.154165022416189"><ele>262.0</ele><time>2026-05-01T07:52:56.999Z</time></trkpt><trkpt lat="45.89760916726149" lon="9.154091253683381"><ele>264.0</ele><time>2026-05-01T07:52:57.999Z</time></trkpt><trkpt lat="45.897734069248514" lon="9.15410973897745"><ele>266.0</ele><time>2026-05-01T07:52:58.999Z</time></trkpt><trkpt lat="45.897819385249164" lon="9.154125718397928"><ele>268.0</ele><time>2026-05-01T07:52:59.999Z</time></trkpt><trkpt lat="45.89792587486939" lon="9.154228960756834"><ele>268.0</ele><time>2026-05-01T07:53:00.999Z</time></trkpt><trkpt lat="45.89803345678748" lon="9.154303477689888"><ele>268.0</ele><time>2026-05-01T07:53:01.999Z</time></trkpt><trkpt lat="45.89817199946829" lon="9.154386580891794"><ele>268.0</ele><time>2026-05-01T07:53:02.999Z</time></trkpt><trkpt lat="45.898329943229456" lon="9.154458020725967"><ele>268.0</ele><time>2026-05-01T07:53:03.999Z</time></trkpt><trkpt lat="45.89849300926782" lon="9.154466016133645"><ele>269.66666666666663</ele><time>2026-05-01T07:53:04.999Z</time></trkpt><trkpt lat="45.89864964423294" lon="9.154439522467747"><ele>271.3333333333333</ele><time>2026-05-01T07:53:05.999Z</time></trkpt><trkpt lat="45.89882716671224" lon="9.154362940419734"><ele>273.0</ele><time>2026-05-01T07:53:06.999Z</time></trkpt><trkpt lat="45.89905964003522" lon="9.154238396606754"><ele>269.3333333333333</ele><time>2026-05-01T07:53:07.999Z</time></trkpt><trkpt lat="45.89931198233779" lon="9.15413577085279"><ele>265.66666666666663</ele><time>2026-05-01T07:53:08.999Z</time></trkpt><trkpt lat="45.89947266180275" lon="9.154053224745928"><ele>262.0</ele><time>2026-05-01T07:53:09.999Z</time></trkpt><trkpt lat="45.89961515956586" lon="9.153976954963303"><ele>262.0</ele><time>2026-05-01T07:53:11.999Z</time></trkpt><trkpt lat="45.89972181415736" lon="9.153890199935514"><ele>262.0</ele><time>2026-05-01T07:53:12.999Z</time></trkpt><trkpt lat="45.89978984581552" lon="9.153768674551543"><ele>262.0</ele><time>2026-05-01T07:53:13.999Z</time></trkpt><trkpt lat="45.89984906117263" lon="9.153624835207758"><ele>262.0</ele><time>2026-05-01T07:53:14.999Z</time></trkpt><trkpt lat="45.899922055657484" lon="9.153477296680876"><ele>262.0</ele><time>2026-05-01T07:53:15.999Z</time></trkpt><trkpt lat="45.90003873149062" lon="9.153380460657502"><ele>262.0</ele><time>2026-05-01T07:53:16.999Z</time></trkpt><trkpt lat="45.90016264434928" lon="9.153368472036831"><ele>262.0</ele><time>2026-05-01T07:53:17.999Z</time></trkpt><trkpt lat="45.90031236071067" lon="9.15333342932551"><ele>262.0</ele><time>2026-05-01T07:53:18.999Z</time></trkpt><trkpt lat="45.90047184577231" lon="9.153319137643802"><ele>264.0</ele><time>2026-05-01T07:53:19.999Z</time></trkpt><trkpt lat="45.90062626321256" lon="9.153292434694373"><ele>266.0</ele><time>2026-05-01T07:53:20.999Z</time></trkpt><trkpt lat="45.90077897413168" lon="9.15327149060371"><ele>268.0</ele><time>2026-05-01T07:53:21.999Z</time></trkpt><trkpt lat="45.90091878241802" lon="9.153264630357354"><ele>270.0</ele><time>2026-05-01T07:53:22.999Z</time></trkpt><trkpt lat="45.901026372625374" lon="9.153330256631554"><ele>264.0</ele><time>2026-05-01T07:53:23.999Z</time></trkpt><trkpt lat="45.901125614853356" lon="9.153406728395954"><ele>258.0</ele><time>2026-05-01T07:53:24.999Z</time></trkpt><trkpt lat="45.901183243205644" lon="9.153517407187518"><ele>252.0</ele><time>2026-05-01T07:53:25.999Z</time></trkpt><trkpt lat="45.90124881622065" lon="9.153672246191533"><ele>246.0</ele><time>2026-05-01T07:53:26.999Z</time></trkpt><trkpt lat="45.90130398457099" lon="9.15384657976947"><ele>246.0</ele><time>2026-05-01T07:53:27.999Z</time></trkpt><trkpt lat="45.901372612806234" lon="9.154033516948521"><ele>246.0</ele><time>2026-05-01T07:53:28.999Z</time></trkpt><trkpt lat="45.90144940620426" lon="9.154182586963707"><ele>246.0</ele><time>2026-05-01T07:53:29.999Z</time></trkpt><trkpt lat="45.90152161898217" lon="9.154302695362638"><ele>246.0</ele><time>2026-05-01T07:53:30.999Z</time></trkpt><trkpt lat="45.901645315795484" lon="9.154363926329072"><ele>254.33333333333331</ele><time>2026-05-01T07:53:31.999Z</time></trkpt><trkpt lat="45.901778444577864" lon="9.1543640145087"><ele>262.66666666666663</ele><time>2026-05-01T07:53:32.999Z</time></trkpt><trkpt lat="45.901949315990215" lon="9.154300354511603"><ele>271.0</ele><time>2026-05-01T07:53:33.999Z</time></trkpt><trkpt lat="45.902090916399395" lon="9.154325422861138"><ele>271.0</ele><time>2026-05-01T07:53:34.999Z</time></trkpt><trkpt lat="45.90221546044934" lon="9.154427950623468"><ele>271.0</ele><time>2026-05-01T07:53:35.999Z</time></trkpt><trkpt lat="45.902363557548206" lon="9.154521940854544"><ele>271.0</ele><time>2026-05-01T07:53:36.999Z</time></trkpt><trkpt lat="45.90252142511738" lon="9.154625841910734"><ele>262.66666666666663</ele><time>2026-05-01T07:53:37.999Z</time></trkpt><trkpt lat="45.902701165508965" lon="9.154697690265374"><ele>254.33333333333331</ele><time>2026-05-01T07:53:38.999Z</time></trkpt><trkpt lat="45.90287773169141" lon="9.154781741643868"><ele>246.0</ele><time>2026-05-01T07:53:39.998Z</time></trkpt><trkpt lat="45.90305789364207" lon="9.15487084098326"><ele>260.0</ele><time>2026-05-01T07:53:40.998Z</time></trkpt><trkpt lat="45.90323204787676" lon="9.154951744116422"><ele>274.0</ele><time>2026-05-01T07:53:41.998Z</time></trkpt><trkpt lat="45.9034015302584" lon="9.155019463486763"><ele>288.0</ele><time>2026-05-01T07:53:42.998Z</time></trkpt><trkpt lat="45.90356975051929" lon="9.155056828833844"><ele>288.0</ele><time>2026-05-01T07:53:43.998Z</time></trkpt><trkpt lat="45.90374430711882" lon="9.155064399337249"><ele>288.0</ele><time>2026-05-01T07:53:44.998Z</time></trkpt><trkpt lat="45.90392398740717" lon="9.155056638508203"><ele>288.0</ele><time>2026-05-01T07:53:45.998Z</time></trkpt><trkpt lat="45.90412178978347" lon="9.155076866735389"><ele>286.5</ele><time>2026-05-01T07:53:46.998Z</time></trkpt><trkpt lat="45.904368338896774" lon="9.15508825485511"><ele>285.0</ele><time>2026-05-01T07:53:47.998Z</time></trkpt><trkpt lat="45.90461782321563" lon="9.155109465223678"><ele>285.0</ele><time>2026-05-01T07:53:48.998Z</time></trkpt><trkpt lat="45.90469362641431" lon="9.155134833698613"><ele>285.0</ele><time>2026-05-01T07:53:49.998Z</time></trkpt><trkpt lat="45.90484623799464" lon="9.155166742543253"><ele>285.0</ele><time>2026-05-01T07:53:50.998Z</time></trkpt><trkpt lat="45.90497256582615" lon="9.155235952051774"><ele>285.0</ele><time>2026-05-01T07:53:51.998Z</time></trkpt><trkpt lat="45.905076623071075" lon="9.155298413872407"><ele>286.75</ele><time>2026-05-01T07:53:52.998Z</time></trkpt><trkpt lat="45.90523440892761" lon="9.155244240618638"><ele>288.5</ele><time>2026-05-01T07:53:53.998Z</time></trkpt><trkpt lat="45.905353328925656" lon="9.155131169024264"><ele>290.25</ele><time>2026-05-01T07:53:54.998Z</time></trkpt><trkpt lat="45.905478253294156" lon="9.155043847785493"><ele>292.0</ele><time>2026-05-01T07:53:55.998Z</time></trkpt><trkpt lat="45.90561956293442" lon="9.15497638500324"><ele>292.0</ele><time>2026-05-01T07:53:56.998Z</time></trkpt><trkpt lat="45.90578877037344" lon="9.15492476976022"><ele>292.0</ele><time>2026-05-01T07:53:57.998Z</time></trkpt><trkpt lat="45.905972405011255" lon="9.154895593769796"><ele>292.0</ele><time>2026-05-01T07:53:58.998Z</time></trkpt><trkpt lat="45.906156724553725" lon="9.154856426878917"><ele>280.0</ele><time>2026-05-01T07:53:59.998Z</time></trkpt><trkpt lat="45.90633722924978" lon="9.15479656434924"><ele>268.0</ele><time>2026-05-01T07:54:01Z</time></trkpt><trkpt lat="45.90650647788533" lon="9.154736535877088"><ele>256.0</ele><time>2026-05-01T07:54:02Z</time></trkpt><trkpt lat="45.90666548379818" lon="9.154675572917512"><ele>253.33333333333331</ele><time>2026-05-01T07:54:03Z</time></trkpt><trkpt lat="45.90682088461974" lon="9.154615346615957"><ele>250.66666666666669</ele><time>2026-05-01T07:54:04Z</time></trkpt><trkpt lat="45.90697463516858" lon="9.154625255692165"><ele>248.0</ele><time>2026-05-01T07:54:05Z</time></trkpt><trkpt lat="45.90712557102354" lon="9.154627596351158"><ele>248.0</ele><time>2026-05-01T07:54:06Z</time></trkpt><trkpt lat="45.90729197361526" lon="9.154626525752324"><ele>248.0</ele><time>2026-05-01T07:54:07Z</time></trkpt><trkpt lat="45.90745399232099" lon="9.15466651928094"><ele>248.0</ele><time>2026-05-01T07:54:08Z</time></trkpt><trkpt lat="45.90761106679693" lon="9.154688777631174"><ele>249.75</ele><time>2026-05-01T07:54:09Z</time></trkpt><trkpt lat="45.90774837546864" lon="9.154708563214818"><ele>251.5</ele><time>2026-05-01T07:54:10Z</time></trkpt><trkpt lat="45.90785029311639" lon="9.154705904133758"><ele>253.25</ele><time>2026-05-01T07:54:11Z</time></trkpt><trkpt lat="45.90802652559493" lon="9.154694556403971"><ele>255.0</ele><time>2026-05-01T07:54:12Z</time></trkpt><trkpt lat="45.908159157644754" lon="9.15463907119818"><ele>255.0</ele><time>2026-05-01T07:54:13Z</time></trkpt><trkpt lat="45.90827310242217" lon="9.154580416232612"><ele>255.0</ele><time>2026-05-01T07:54:14Z</time></trkpt><trkpt lat="45.90838667717683" lon="9.154560453157078"><ele>255.0</ele><time>2026-05-01T07:54:15Z</time></trkpt><trkpt lat="45.908489897405495" lon="9.154591222589627"><ele>255.0</ele><time>2026-05-01T07:54:16Z</time></trkpt><trkpt lat="45.90858540510517" lon="9.1546681563112"><ele>254.0</ele><time>2026-05-01T07:54:17Z</time></trkpt><trkpt lat="45.90870021766705" lon="9.154734175670422"><ele>253.0</ele><time>2026-05-01T07:54:18Z</time></trkpt><trkpt lat="45.9088014296118" lon="9.154802375326387"><ele>252.0</ele><time>2026-05-01T07:54:19Z</time></trkpt><trkpt lat="45.908906003973094" lon="9.154816898472555"><ele>251.0</ele><time>2026-05-01T07:54:20Z</time></trkpt><trkpt lat="45.90899815119587" lon="9.154751218252164"><ele>250.0</ele><time>2026-05-01T07:54:21Z</time></trkpt><trkpt lat="45.909073882609405" lon="9.154657916878422"><ele>250.0</ele><time>2026-05-01T07:54:22Z</time></trkpt><trkpt lat="45.90914293315421" lon="9.154584931303525"><ele>250.0</ele><time>2026-05-01T07:54:23Z</time></trkpt><trkpt lat="45.90924744131707" lon="9.154588938402457"><ele>250.0</ele><time>2026-05-01T07:54:24Z</time></trkpt><trkpt lat="45.90935551339378" lon="9.154612641721464"><ele>250.0</ele><time>2026-05-01T07:54:25Z</time></trkpt><trkpt lat="45.90946197887356" lon="9.154670011270806"><ele>250.0</ele><time>2026-05-01T07:54:26Z</time></trkpt><trkpt lat="45.909556481715136" lon="9.154727648684325"><ele>250.66666666666666</ele><time>2026-05-01T07:54:27Z</time></trkpt><trkpt lat="45.90964390100749" lon="9.154770336582137"><ele>251.33333333333331</ele><time>2026-05-01T07:54:28Z</time></trkpt><trkpt lat="45.909691015066024" lon="9.15484624776555"><ele>252.0</ele><time>2026-05-01T07:54:29Z</time></trkpt><trkpt lat="45.90974231585745" lon="9.154922296915467"><ele>252.66666666666669</ele><time>2026-05-01T07:54:30Z</time></trkpt><trkpt lat="45.90976095863099" lon="9.155020252526786"><ele>253.33333333333334</ele><time>2026-05-01T07:54:31Z</time></trkpt><trkpt lat="45.90978110116411" lon="9.15513960846964"><ele>254.0</ele><time>2026-05-01T07:54:32Z</time></trkpt><trkpt lat="45.90981015097314" lon="9.155261804810124"><ele>254.00000000000003</ele><time>2026-05-01T07:54:33Z</time></trkpt><trkpt lat="45.90983332855873" lon="9.155384505231138"><ele>254.0</ele><time>2026-05-01T07:54:34Z</time></trkpt><trkpt lat="45.90986089060812" lon="9.15551893629113"><ele>254.0</ele><time>2026-05-01T07:54:35Z</time></trkpt><trkpt lat="45.90988901584641" lon="9.15563956778909"><ele>254.0</ele><time>2026-05-01T07:54:36Z</time></trkpt><trkpt lat="45.909937155007114" lon="9.155719895654673"><ele>254.00000000000003</ele><time>2026-05-01T07:54:37Z</time></trkpt><trkpt lat="45.909969314271954" lon="9.155822360609042"><ele>254.0</ele><time>2026-05-01T07:54:38Z</time></trkpt><trkpt lat="45.91004718789641" lon="9.155874336629415"><ele>256.59999999999997</ele><time>2026-05-01T07:54:39Z</time></trkpt><trkpt lat="45.91014598521051" lon="9.155850060416101"><ele>259.2</ele><time>2026-05-01T07:54:40Z</time></trkpt><trkpt lat="45.9102346883241" lon="9.15582954672628"><ele>261.79999999999995</ele><time>2026-05-01T07:54:41Z</time></trkpt><trkpt lat="45.910333579644394" lon="9.15579995297347"><ele>264.4</ele><time>2026-05-01T07:54:42Z</time></trkpt><trkpt lat="45.91043919089845" lon="9.155782130082216"><ele>267.0</ele><time>2026-05-01T07:54:43Z</time></trkpt><trkpt lat="45.91054692049035" lon="9.15574731684265"><ele>267.0</ele><time>2026-05-01T07:54:44Z</time></trkpt><trkpt lat="45.910664364048685" lon="9.155720513114142"><ele>267.0</ele><time>2026-05-01T07:54:45Z</time></trkpt><trkpt lat="45.91077776466745" lon="9.155703372940208"><ele>267.0</ele><time>2026-05-01T07:54:46Z</time></trkpt><trkpt lat="45.91090153342599" lon="9.155634647733576"><ele>267.0</ele><time>2026-05-01T07:54:46.999Z</time></trkpt><trkpt lat="45.91111450439167" lon="9.155492740834086"><ele>259.5</ele><time>2026-05-01T07:54:47.999Z</time></trkpt><trkpt lat="45.91123985133918" lon="9.155392724909326"><ele>252.0</ele><time>2026-05-01T07:54:48.999Z</time></trkpt><trkpt lat="45.911350024136965" lon="9.155344881393933"><ele>244.5</ele><time>2026-05-01T07:54:49.999Z</time></trkpt><trkpt lat="45.911447793050165" lon="9.155275531067609"><ele>237.0</ele><time>2026-05-01T07:54:50.999Z</time></trkpt><trkpt lat="45.91154405936348" lon="9.155288500985797"><ele>237.0</ele><time>2026-05-01T07:54:51.999Z</time></trkpt><trkpt lat="45.91167564650061" lon="9.155298756991357"><ele>237.0</ele><time>2026-05-01T07:54:52.999Z</time></trkpt><trkpt lat="45.91178868691401" lon="9.155256029035522"><ele>237.0</ele><time>2026-05-01T07:54:53.999Z</time></trkpt><trkpt lat="45.911880411794876" lon="9.155228278887533"><ele>237.0</ele><time>2026-05-01T07:54:54.999Z</time></trkpt><trkpt lat="45.911962811554375" lon="9.155198651169176"><ele>237.0</ele><time>2026-05-01T07:54:55.999Z</time></trkpt><trkpt lat="45.912045828264624" lon="9.155155541718402"><ele>242.39999999999998</ele><time>2026-05-01T07:54:56.999Z</time></trkpt><trkpt lat="45.91214472485874" lon="9.15510727436541"><ele>247.79999999999998</ele><time>2026-05-01T07:54:57.999Z</time></trkpt><trkpt lat="45.91225736108289" lon="9.155080645910864"><ele>253.2</ele><time>2026-05-01T07:54:58.999Z</time></trkpt><trkpt lat="45.91236622086997" lon="9.155046548744636"><ele>258.59999999999997</ele><time>2026-05-01T07:54:59.999Z</time></trkpt><trkpt lat="45.91247330328688" lon="9.154995746018708"><ele>264.0</ele><time>2026-05-01T07:55:00.999Z</time></trkpt><trkpt lat="45.91258369446762" lon="9.154929052258838"><ele>260.5</ele><time>2026-05-01T07:55:01.999Z</time></trkpt><trkpt lat="45.91268624314195" lon="9.154829316251602"><ele>257.0</ele><time>2026-05-01T07:55:02.999Z</time></trkpt><trkpt lat="45.912789604678444" lon="9.154728534882693"><ele>253.5</ele><time>2026-05-01T07:55:03.999Z</time></trkpt><trkpt lat="45.91289888830189" lon="9.154631215274682"><ele>250.0</ele><time>2026-05-01T07:55:04.999Z</time></trkpt><trkpt lat="45.91300667763422" lon="9.154547606435077"><ele>250.0</ele><time>2026-05-01T07:55:05.999Z</time></trkpt><trkpt lat="45.913115192946044" lon="9.154455138888979"><ele>250.0</ele><time>2026-05-01T07:55:06.999Z</time></trkpt><trkpt lat="45.913225236258356" lon="9.154373088589773"><ele>250.0</ele><time>2026-05-01T07:55:07.999Z</time></trkpt><trkpt lat="45.91332774000488" lon="9.154300284979252"><ele>250.0</ele><time>2026-05-01T07:55:08.999Z</time></trkpt><trkpt lat="45.913428931672385" lon="9.154236485216305"><ele>251.6</ele><time>2026-05-01T07:55:09.999Z</time></trkpt><trkpt lat="45.91354122575357" lon="9.154190786423811"><ele>253.2</ele><time>2026-05-01T07:55:10.999Z</time></trkpt><trkpt lat="45.91365736923041" lon="9.154184083974394"><ele>254.8</ele><time>2026-05-01T07:55:11.999Z</time></trkpt><trkpt lat="45.91376236752457" lon="9.154190154644231"><ele>256.4</ele><time>2026-05-01T07:55:12.999Z</time></trkpt><trkpt lat="45.91386157665054" lon="9.154183007648912"><ele>258.0</ele><time>2026-05-01T07:55:13.999Z</time></trkpt><trkpt lat="45.91395889378659" lon="9.154223279013623"><ele>258.0</ele><time>2026-05-01T07:55:14.999Z</time></trkpt><trkpt lat="45.91406599933721" lon="9.154228508376432"><ele>258.0</ele><time>2026-05-01T07:55:15.999Z</time></trkpt><trkpt lat="45.91417305477435" lon="9.15426685867529"><ele>258.0</ele><time>2026-05-01T07:55:16.999Z</time></trkpt><trkpt lat="45.914274975238676" lon="9.15427216879955"><ele>258.0</ele><time>2026-05-01T07:55:17.999Z</time></trkpt><trkpt lat="45.91439072341126" lon="9.154225330046293"><ele>258.0</ele><time>2026-05-01T07:55:18.999Z</time></trkpt><trkpt lat="45.9145068993789" lon="9.15414146643447"><ele>258.75</ele><time>2026-05-01T07:55:19.999Z</time></trkpt><trkpt lat="45.914624714584924" lon="9.154067730057719"><ele>259.5</ele><time>2026-05-01T07:55:20.999Z</time></trkpt><trkpt lat="45.914750013346975" lon="9.154013744833945"><ele>260.25</ele><time>2026-05-01T07:55:21.999Z</time></trkpt><trkpt lat="45.91489505899915" lon="9.153971200967458"><ele>261.0</ele><time>2026-05-01T07:55:22.999Z</time></trkpt><trkpt lat="45.915045104728684" lon="9.153961025624756"><ele>254.0</ele><time>2026-05-01T07:55:23.999Z</time></trkpt><trkpt lat="45.91517530870345" lon="9.153915397770692"><ele>247.0</ele><time>2026-05-01T07:55:24.999Z</time></trkpt><trkpt lat="45.91530597913936" lon="9.153911160340703"><ele>240.0</ele><time>2026-05-01T07:55:25.999Z</time></trkpt><trkpt lat="45.91542932329267" lon="9.153943840962606"><ele>233.0</ele><time>2026-05-01T07:55:26.999Z</time></trkpt><trkpt lat="45.91554718291001" lon="9.153987685143488"><ele>233.0</ele><time>2026-05-01T07:55:27.999Z</time></trkpt><trkpt lat="45.91565634667338" lon="9.154029067771223"><ele>233.0</ele><time>2026-05-01T07:55:28.999Z</time></trkpt><trkpt lat="45.915789800071856" lon="9.154017400687835"><ele>233.0</ele><time>2026-05-01T07:55:29.999Z</time></trkpt><trkpt lat="45.91593016769496" lon="9.153954352904718"><ele>233.0</ele><time>2026-05-01T07:55:30.999Z</time></trkpt><trkpt lat="45.9160906747334" lon="9.153907915568368"><ele>231.33333333333334</ele><time>2026-05-01T07:55:31.999Z</time></trkpt><trkpt lat="45.91626656718863" lon="9.153855328813325"><ele>229.66666666666669</ele><time>2026-05-01T07:55:32.999Z</time></trkpt><trkpt lat="45.91647247090707" lon="9.153819952833608"><ele>228.0</ele><time>2026-05-01T07:55:33.999Z</time></trkpt><trkpt lat="45.91663248087393" lon="9.153781734693005"><ele>227.0</ele><time>2026-05-01T07:55:34.999Z</time></trkpt><trkpt lat="45.91679391252699" lon="9.153765413053708"><ele>226.0</ele><time>2026-05-01T07:55:35.999Z</time></trkpt><trkpt lat="45.916974575478314" lon="9.153749879632413"><ele>225.0</ele><time>2026-05-01T07:55:36.999Z</time></trkpt><trkpt lat="45.91712899713402" lon="9.153737346248564"><ele>225.0</ele><time>2026-05-01T07:55:38.999Z</time></trkpt><trkpt lat="45.91724868336436" lon="9.153726950520223"><ele>225.0</ele><time>2026-05-01T07:55:39.999Z</time></trkpt><trkpt lat="45.91736231576163" lon="9.153712749380015"><ele>225.0</ele><time>2026-05-01T07:55:40.999Z</time></trkpt><trkpt lat="45.917465699138425" lon="9.153707419005853"><ele>225.0</ele><time>2026-05-01T07:55:41.999Z</time></trkpt><trkpt lat="45.91756207774558" lon="9.153691506656813"><ele>225.0</ele><time>2026-05-01T07:55:42.999Z</time></trkpt><trkpt lat="45.91765796348479" lon="9.153684546860825"><ele>226.6</ele><time>2026-05-01T07:55:43.999Z</time></trkpt><trkpt lat="45.91774706760167" lon="9.153680067450361"><ele>228.2</ele><time>2026-05-01T07:55:44.999Z</time></trkpt><trkpt lat="45.917832693109204" lon="9.153671862474285"><ele>229.8</ele><time>2026-05-01T07:55:45.999Z</time></trkpt><trkpt lat="45.91791938961603" lon="9.153665403392"><ele>231.4</ele><time>2026-05-01T07:55:46.999Z</time></trkpt><trkpt lat="45.918016098570455" lon="9.153672565184579"><ele>233.0</ele><time>2026-05-01T07:55:47.999Z</time></trkpt><trkpt lat="45.918123301670384" lon="9.153676992581397"><ele>233.0</ele><time>2026-05-01T07:55:48.999Z</time></trkpt><trkpt lat="45.9182319253262" lon="9.153670121918235"><ele>233.0</ele><time>2026-05-01T07:55:49.999Z</time></trkpt><trkpt lat="45.91834604049122" lon="9.153652613583546"><ele>233.0</ele><time>2026-05-01T07:55:50.999Z</time></trkpt><trkpt lat="45.91845770945478" lon="9.153623051394968"><ele>233.0</ele><time>2026-05-01T07:55:51.998Z</time></trkpt><trkpt lat="45.918560633203924" lon="9.153592121963834"><ele>233.0</ele><time>2026-05-01T07:55:52.998Z</time></trkpt><trkpt lat="45.91864895461056" lon="9.153568572646142"><ele>233.28571428571428</ele><time>2026-05-01T07:55:53.998Z</time></trkpt><trkpt lat="45.91873016169856" lon="9.15354654345055"><ele>233.57142857142856</ele><time>2026-05-01T07:55:54.998Z</time></trkpt><trkpt lat="45.91880089605026" lon="9.153529332716396"><ele>233.85714285714283</ele><time>2026-05-01T07:55:55.998Z</time></trkpt><trkpt lat="45.91886651758175" lon="9.153513000549006"><ele>234.14285714285714</ele><time>2026-05-01T07:55:56.998Z</time></trkpt><trkpt lat="45.918928647563966" lon="9.153497421697086"><ele>234.4285714285714</ele><time>2026-05-01T07:55:57.998Z</time></trkpt><trkpt lat="45.91899991162705" lon="9.15349341109935"><ele>234.7142857142857</ele><time>2026-05-01T07:55:58.998Z</time></trkpt><trkpt lat="45.91906750481623" lon="9.153530373844198"><ele>235.0</ele><time>2026-05-01T07:55:59.998Z</time></trkpt><trkpt lat="45.91917806601099" lon="9.153596650072274"><ele>237.49999999999997</ele><time>2026-05-01T07:56:01.998Z</time></trkpt><trkpt lat="45.919244640446514" lon="9.15361078718336"><ele>240.0</ele><time>2026-05-01T07:56:02.998Z</time></trkpt><trkpt lat="45.91932357767812" lon="9.153594881805647"><ele>242.5</ele><time>2026-05-01T07:56:03.998Z</time></trkpt><trkpt lat="45.919414932911714" lon="9.15355375175522"><ele>245.0</ele><time>2026-05-01T07:56:04.998Z</time></trkpt><trkpt lat="45.91950786133817" lon="9.153507255845385"><ele>247.49999999999997</ele><time>2026-05-01T07:56:05.998Z</time></trkpt><trkpt lat="45.91958182757116" lon="9.15342387460468"><ele>250.0</ele><time>2026-05-01T07:56:07Z</time></trkpt><trkpt lat="45.919670305533316" lon="9.153354884433401"><ele>249.99999999999997</ele><time>2026-05-01T07:56:08Z</time></trkpt><trkpt lat="45.919741221181816" lon="9.153284542468095"><ele>250.0</ele><time>2026-05-01T07:56:09Z</time></trkpt><trkpt lat="45.91981075520279" lon="9.153226111043859"><ele>250.0</ele><time>2026-05-01T07:56:10Z</time></trkpt><trkpt lat="45.9198781848068" lon="9.153169104638108"><ele>250.0</ele><time>2026-05-01T07:56:11Z</time></trkpt><trkpt lat="45.91996257237176" lon="9.153132655344374"><ele>249.99999999999997</ele><time>2026-05-01T07:56:12Z</time></trkpt><trkpt lat="45.92004407282325" lon="9.153090868466869"><ele>250.0</ele><time>2026-05-01T07:56:13Z</time></trkpt><trkpt lat="45.920124302336006" lon="9.15305869441163"><ele>246.83333333333331</ele><time>2026-05-01T07:56:14Z</time></trkpt><trkpt lat="45.92020832571959" lon="9.153034870458931"><ele>243.66666666666666</ele><time>2026-05-01T07:56:15Z</time></trkpt><trkpt lat="45.92028563060325" lon="9.153009500218362"><ele>240.5</ele><time>2026-05-01T07:56:16Z</time></trkpt><trkpt lat="45.92036128204185" lon="9.152983420590823"><ele>237.33333333333331</ele><time>2026-05-01T07:56:17Z</time></trkpt><trkpt lat="45.920431358183194" lon="9.152969854128774"><ele>234.16666666666666</ele><time>2026-05-01T07:56:18Z</time></trkpt><trkpt lat="45.920505427598584" lon="9.152974260696165"><ele>231.0</ele><time>2026-05-01T07:56:19Z</time></trkpt><trkpt lat="45.92058672032009" lon="9.152991912396951"><ele>231.0</ele><time>2026-05-01T07:56:20Z</time></trkpt><trkpt lat="45.920668056223974" lon="9.153010465484758"><ele>231.0</ele><time>2026-05-01T07:56:21Z</time></trkpt><trkpt lat="45.92074575580009" lon="9.15300859076753"><ele>231.0</ele><time>2026-05-01T07:56:22Z</time></trkpt><trkpt lat="45.92081093818058" lon="9.153009567041936"><ele>231.0</ele><time>2026-05-01T07:56:23Z</time></trkpt><trkpt lat="45.920880001542436" lon="9.152977864618357"><ele>231.0</ele><time>2026-05-01T07:56:24Z</time></trkpt><trkpt lat="45.92095666901964" lon="9.152930311811268"><ele>231.0</ele><time>2026-05-01T07:56:25Z</time></trkpt><trkpt lat="45.92100138206306" lon="9.152840600484092"><ele>234.66666666666666</ele><time>2026-05-01T07:56:26Z</time></trkpt><trkpt lat="45.921057955183095" lon="9.152769317868964"><ele>238.33333333333331</ele><time>2026-05-01T07:56:27Z</time></trkpt><trkpt lat="45.921119657804844" lon="9.152704070642047"><ele>242.0</ele><time>2026-05-01T07:56:28Z</time></trkpt><trkpt lat="45.92118289931684" lon="9.152646476065993"><ele>245.66666666666666</ele><time>2026-05-01T07:56:29Z</time></trkpt><trkpt lat="45.92125546695208" lon="9.152599326697281"><ele>249.33333333333331</ele><time>2026-05-01T07:56:30Z</time></trkpt><trkpt lat="45.92132388315146" lon="9.152563123591532"><ele>253.0</ele><time>2026-05-01T07:56:31Z</time></trkpt><trkpt lat="45.92144194934529" lon="9.152512619635367"><ele>252.99999999999997</ele><time>2026-05-01T07:56:33Z</time></trkpt><trkpt lat="45.921516473300144" lon="9.152499237533577"><ele>253.0</ele><time>2026-05-01T07:56:34Z</time></trkpt><trkpt lat="45.92157959015887" lon="9.152465724003482"><ele>253.0</ele><time>2026-05-01T07:56:35Z</time></trkpt><trkpt lat="45.921667574490584" lon="9.152437502588668"><ele>253.0</ele><time>2026-05-01T07:56:36Z</time></trkpt><trkpt lat="45.921756648225156" lon="9.152413732290295"><ele>252.99999999999997</ele><time>2026-05-01T07:56:37Z</time></trkpt><trkpt lat="45.92184352983343" lon="9.152390176609826"><ele>253.0</ele><time>2026-05-01T07:56:38Z</time></trkpt><trkpt lat="45.921935131704345" lon="9.15236335633867"><ele>249.66666666666666</ele><time>2026-05-01T07:56:39Z</time></trkpt><trkpt lat="45.92201910354358" lon="9.152337413833726"><ele>246.33333333333331</ele><time>2026-05-01T07:56:40Z</time></trkpt><trkpt lat="45.92209365772876" lon="9.152319461297367"><ele>243.0</ele><time>2026-05-01T07:56:41Z</time></trkpt><trkpt lat="45.9221612482142" lon="9.152304768965918"><ele>239.66666666666669</ele><time>2026-05-01T07:56:42Z</time></trkpt><trkpt lat="45.92223033623899" lon="9.152282271215997"><ele>236.33333333333334</ele><time>2026-05-01T07:56:43Z</time></trkpt><trkpt lat="45.922357172558996" lon="9.152228633868747"><ele>233.0</ele><time>2026-05-01T07:56:45Z</time></trkpt><trkpt lat="45.92241774746213" lon="9.152198262232448"><ele>233.0</ele><time>2026-05-01T07:56:46Z</time></trkpt><trkpt lat="45.92250330762585" lon="9.152149216622318"><ele>233.0</ele><time>2026-05-01T07:56:47Z</time></trkpt><trkpt lat="45.92259726640056" lon="9.152082133946502"><ele>233.0</ele><time>2026-05-01T07:56:48Z</time></trkpt><trkpt lat="45.92268907150824" lon="9.151973639020149"><ele>233.0</ele><time>2026-05-01T07:56:49Z</time></trkpt><trkpt lat="45.922783283919536" lon="9.151898491909085"><ele>233.0</ele><time>2026-05-01T07:56:50Z</time></trkpt><trkpt lat="45.922903344482165" lon="9.151799823755294"><ele>238.33333333333334</ele><time>2026-05-01T07:56:51Z</time></trkpt><trkpt lat="45.92302752320999" lon="9.151751580096409"><ele>243.66666666666669</ele><time>2026-05-01T07:56:52Z</time></trkpt><trkpt lat="45.923202916392334" lon="9.151759488231109"><ele>249.0</ele><time>2026-05-01T07:56:53Z</time></trkpt><trkpt lat="45.923356950631124" lon="9.151709507558813"><ele>253.0</ele><time>2026-05-01T07:56:53.999Z</time></trkpt><trkpt lat="45.92352704226317" lon="9.151673392064069"><ele>257.0</ele><time>2026-05-01T07:56:54.999Z</time></trkpt><trkpt lat="45.9237164820007" lon="9.151660519567042"><ele>261.0</ele><time>2026-05-01T07:56:55.999Z</time></trkpt><trkpt lat="45.92392517528523" lon="9.151649336441082"><ele>261.0</ele><time>2026-05-01T07:56:56.999Z</time></trkpt><trkpt lat="45.92413396600243" lon="9.151609373598111"><ele>261.0</ele><time>2026-05-01T07:56:57.999Z</time></trkpt><trkpt lat="45.92433237213953" lon="9.15157700310483"><ele>261.0</ele><time>2026-05-01T07:56:58.999Z</time></trkpt><trkpt lat="45.92451264305071" lon="9.15154309987635"><ele>246.0</ele><time>2026-05-01T07:56:59.999Z</time></trkpt><trkpt lat="45.924683551437404" lon="9.151484112278512"><ele>231.0</ele><time>2026-05-01T07:57:00.999Z</time></trkpt><trkpt lat="45.92483991287687" lon="9.151398961165663"><ele>216.0</ele><time>2026-05-01T07:57:01.999Z</time></trkpt><trkpt lat="45.924990170832274" lon="9.151319501469642"><ele>219.5</ele><time>2026-05-01T07:57:02.999Z</time></trkpt><trkpt lat="45.925136471139155" lon="9.151300809079201"><ele>223.0</ele><time>2026-05-01T07:57:03.999Z</time></trkpt><trkpt lat="45.925286244572035" lon="9.151322320831795"><ele>226.5</ele><time>2026-05-01T07:57:04.999Z</time></trkpt><trkpt lat="45.925425114588414" lon="9.151353708715169"><ele>230.0</ele><time>2026-05-01T07:57:05.999Z</time></trkpt><trkpt lat="45.92554543029595" lon="9.151420297729764"><ele>230.0</ele><time>2026-05-01T07:57:06.999Z</time></trkpt><trkpt lat="45.925657378123226" lon="9.151523866185437"><ele>230.0</ele><time>2026-05-01T07:57:07.999Z</time></trkpt><trkpt lat="45.92577796160675" lon="9.151597336170855"><ele>230.0</ele><time>2026-05-01T07:57:08.999Z</time></trkpt><trkpt lat="45.92591314943443" lon="9.151588747202405"><ele>230.0</ele><time>2026-05-01T07:57:09.999Z</time></trkpt><trkpt lat="45.9260862381655" lon="9.151510963127487"><ele>232.33333333333334</ele><time>2026-05-01T07:57:10.999Z</time></trkpt><trkpt lat="45.92628746057307" lon="9.151430775486121"><ele>234.66666666666669</ele><time>2026-05-01T07:57:11.999Z</time></trkpt><trkpt lat="45.92649207281036" lon="9.151345635644786"><ele>237.0</ele><time>2026-05-01T07:57:12.999Z</time></trkpt><trkpt lat="45.9266340091864" lon="9.151194877822778"><ele>239.0</ele><time>2026-05-01T07:57:13.999Z</time></trkpt><trkpt lat="45.92682222956622" lon="9.151103464972502"><ele>241.0</ele><time>2026-05-01T07:57:14.999Z</time></trkpt><trkpt lat="45.9270151649068" lon="9.151024093123743"><ele>243.0</ele><time>2026-05-01T07:57:15.999Z</time></trkpt><trkpt lat="45.92719787101491" lon="9.150946330802197"><ele>243.0</ele><time>2026-05-01T07:57:16.999Z</time></trkpt><trkpt lat="45.92738133351038" lon="9.150891642226922"><ele>243.0</ele><time>2026-05-01T07:57:17.999Z</time></trkpt><trkpt lat="45.92753473379299" lon="9.150795781767766"><ele>243.0</ele><time>2026-05-01T07:57:18.999Z</time></trkpt><trkpt lat="45.92768247298554" lon="9.150681744306283"><ele>239.75</ele><time>2026-05-01T07:57:19.999Z</time></trkpt><trkpt lat="45.927830909659015" lon="9.150603125230095"><ele>236.5</ele><time>2026-05-01T07:57:20.999Z</time></trkpt><trkpt lat="45.92797286516261" lon="9.150569211770984"><ele>233.25</ele><time>2026-05-01T07:57:21.999Z</time></trkpt><trkpt lat="45.928115697255" lon="9.150586259626218"><ele>230.0</ele><time>2026-05-01T07:57:22.999Z</time></trkpt><trkpt lat="45.92826340602403" lon="9.150608310430812"><ele>230.66666666666669</ele><time>2026-05-01T07:57:23.999Z</time></trkpt><trkpt lat="45.92840031782221" lon="9.15055729084335"><ele>231.33333333333331</ele><time>2026-05-01T07:57:24.999Z</time></trkpt><trkpt lat="45.92854002893966" lon="9.150438269751232"><ele>232.0</ele><time>2026-05-01T07:57:25.999Z</time></trkpt><trkpt lat="45.92866450306855" lon="9.150305233631867"><ele>232.0</ele><time>2026-05-01T07:57:26.999Z</time></trkpt><trkpt lat="45.92879264086271" lon="9.15023434088085"><ele>232.0</ele><time>2026-05-01T07:57:27.999Z</time></trkpt><trkpt lat="45.92892896884769" lon="9.150203549889168"><ele>232.0</ele><time>2026-05-01T07:57:28.999Z</time></trkpt><trkpt lat="45.929077244485114" lon="9.150175083038642"><ele>232.0</ele><time>2026-05-01T07:57:29.999Z</time></trkpt><trkpt lat="45.929236116129395" lon="9.150161870111733"><ele>230.75</ele><time>2026-05-01T07:57:30.999Z</time></trkpt><trkpt lat="45.92938429647561" lon="9.150165517302117"><ele>229.5</ele><time>2026-05-01T07:57:31.999Z</time></trkpt><trkpt lat="45.92953508263872" lon="9.150158413582464"><ele>228.25</ele><time>2026-05-01T07:57:32.999Z</time></trkpt><trkpt lat="45.92968372983565" lon="9.150159802491983"><ele>227.0</ele><time>2026-05-01T07:57:33.999Z</time></trkpt><trkpt lat="45.92984130847323" lon="9.150179235190185"><ele>227.0</ele><time>2026-05-01T07:57:34.999Z</time></trkpt><trkpt lat="45.93000750782839" lon="9.1502254800973"><ele>227.0</ele><time>2026-05-01T07:57:35.999Z</time></trkpt><trkpt lat="45.93016473783083" lon="9.150283985650491"><ele>227.0</ele><time>2026-05-01T07:57:36.999Z</time></trkpt><trkpt lat="45.93029688505656" lon="9.150344713974922"><ele>225.66666666666669</ele><time>2026-05-01T07:57:37.999Z</time></trkpt><trkpt lat="45.930423398850394" lon="9.150449860597398"><ele>224.33333333333331</ele><time>2026-05-01T07:57:38.999Z</time></trkpt><trkpt lat="45.93054037908726" lon="9.150608454466415"><ele>223.0</ele><time>2026-05-01T07:57:39.999Z</time></trkpt><trkpt lat="45.93067380550084" lon="9.150750589679689"><ele>224.75</ele><time>2026-05-01T07:57:40.999Z</time></trkpt><trkpt lat="45.930791700842335" lon="9.150902994678987"><ele>226.5</ele><time>2026-05-01T07:57:41.999Z</time></trkpt><trkpt lat="45.93090432741435" lon="9.151039090241216"><ele>228.25</ele><time>2026-05-01T07:57:42.999Z</time></trkpt><trkpt lat="45.93100757694284" lon="9.151158400364546"><ele>230.0</ele><time>2026-05-01T07:57:43.999Z</time></trkpt><trkpt lat="45.93111250551837" lon="9.15124072743764"><ele>230.0</ele><time>2026-05-01T07:57:44.999Z</time></trkpt><trkpt lat="45.93122486669172" lon="9.151248728184195"><ele>230.0</ele><time>2026-05-01T07:57:45.999Z</time></trkpt><trkpt lat="45.93136442668729" lon="9.151201893716648"><ele>230.0</ele><time>2026-05-01T07:57:46.999Z</time></trkpt><trkpt lat="45.93150554482374" lon="9.151112197118595"><ele>230.0</ele><time>2026-05-01T07:57:47.999Z</time></trkpt><trkpt lat="45.93165374027826" lon="9.151016904197277"><ele>230.75</ele><time>2026-05-01T07:57:48.999Z</time></trkpt><trkpt lat="45.93180130436588" lon="9.150971662318794"><ele>231.5</ele><time>2026-05-01T07:57:49.999Z</time></trkpt><trkpt lat="45.931931312333425" lon="9.150964561290216"><ele>232.25</ele><time>2026-05-01T07:57:50.999Z</time></trkpt><trkpt lat="45.93205730124356" lon="9.150959796400903"><ele>233.0</ele><time>2026-05-01T07:57:51.999Z</time></trkpt><trkpt lat="45.93222304721266" lon="9.150960515644794"><ele>233.0</ele><time>2026-05-01T07:57:52.999Z</time></trkpt><trkpt lat="45.93237537659503" lon="9.150968133843977"><ele>233.0</ele><time>2026-05-01T07:57:53.999Z</time></trkpt><trkpt lat="45.93251544571288" lon="9.150970064051831"><ele>233.0</ele><time>2026-05-01T07:57:54.999Z</time></trkpt><trkpt lat="45.932648842390314" lon="9.15093894839174"><ele>233.0</ele><time>2026-05-01T07:57:55.999Z</time></trkpt><trkpt lat="45.93277935233632" lon="9.150946779518287"><ele>232.60000000000002</ele><time>2026-05-01T07:57:56.998Z</time></trkpt><trkpt lat="45.93289680253653" lon="9.150966553650496"><ele>232.20000000000002</ele><time>2026-05-01T07:57:57.998Z</time></trkpt><trkpt lat="45.93300789699948" lon="9.150980295835286"><ele>231.8</ele><time>2026-05-01T07:57:58.998Z</time></trkpt><trkpt lat="45.9331189684364" lon="9.150989991216736"><ele>231.4</ele><time>2026-05-01T07:57:59.998Z</time></trkpt><trkpt lat="45.93322617936188" lon="9.150996049666434"><ele>231.0</ele><time>2026-05-01T07:58:00.998Z</time></trkpt><trkpt lat="45.93332613482393" lon="9.15101019150651"><ele>224.4</ele><time>2026-05-01T07:58:01.998Z</time></trkpt><trkpt lat="45.93338955895734" lon="9.151062023741435"><ele>217.8</ele><time>2026-05-01T07:58:02.998Z</time></trkpt><trkpt lat="45.93348388219383" lon="9.151122244638271"><ele>211.20000000000002</ele><time>2026-05-01T07:58:03.998Z</time></trkpt><trkpt lat="45.93354959048299" lon="9.151211979159164"><ele>204.60000000000002</ele><time>2026-05-01T07:58:04.998Z</time></trkpt><trkpt lat="45.933584399348895" lon="9.15135061625581"><ele>198.0</ele><time>2026-05-01T07:58:05.998Z</time></trkpt><trkpt lat="45.933606048009295" lon="9.151503615166954"><ele>201.0</ele><time>2026-05-01T07:58:06.998Z</time></trkpt><trkpt lat="45.93363972445123" lon="9.15162841472081"><ele>204.0</ele><time>2026-05-01T07:58:07.998Z</time></trkpt><trkpt lat="45.93370193206195" lon="9.151750992711353"><ele>207.0</ele><time>2026-05-01T07:58:08.998Z</time></trkpt><trkpt lat="45.93383501004408" lon="9.151828979344192"><ele>210.0</ele><time>2026-05-01T07:58:09.998Z</time></trkpt><trkpt lat="45.933987379878026" lon="9.151906816197275"><ele>210.0</ele><time>2026-05-01T07:58:10.998Z</time></trkpt><trkpt lat="45.934162243179586" lon="9.152054234748254"><ele>210.0</ele><time>2026-05-01T07:58:11.998Z</time></trkpt><trkpt lat="45.934404348629926" lon="9.152225720287854"><ele>214.0</ele><time>2026-05-01T07:58:13Z</time></trkpt><trkpt lat="45.93464194880571" lon="9.152420770876478"><ele>218.0</ele><time>2026-05-01T07:58:14Z</time></trkpt><trkpt lat="45.93480303700899" lon="9.152579493881289"><ele>218.0</ele><time>2026-05-01T07:58:16Z</time></trkpt><trkpt lat="45.93494614016844" lon="9.152709884714309"><ele>218.0</ele><time>2026-05-01T07:58:17Z</time></trkpt><trkpt lat="45.93507371567533" lon="9.152847690776182"><ele>218.0</ele><time>2026-05-01T07:58:18Z</time></trkpt><trkpt lat="45.93517849832043" lon="9.153008043074836"><ele>217.5</ele><time>2026-05-01T07:58:19Z</time></trkpt><trkpt lat="45.93528074801393" lon="9.153146847026289"><ele>217.0</ele><time>2026-05-01T07:58:20Z</time></trkpt><trkpt lat="45.93539123262829" lon="9.153266763563758"><ele>216.5</ele><time>2026-05-01T07:58:21Z</time></trkpt><trkpt lat="45.935517813871165" lon="9.153329384347904"><ele>216.0</ele><time>2026-05-01T07:58:22Z</time></trkpt><trkpt lat="45.93563592990529" lon="9.153371868394727"><ele>216.0</ele><time>2026-05-01T07:58:23Z</time></trkpt><trkpt lat="45.93573328172581" lon="9.153450919803026"><ele>216.0</ele><time>2026-05-01T07:58:24Z</time></trkpt><trkpt lat="45.93580996308873" lon="9.153588737986718"><ele>216.0</ele><time>2026-05-01T07:58:25Z</time></trkpt><trkpt lat="45.93588387236642" lon="9.153758082586643"><ele>216.0</ele><time>2026-05-01T07:58:26Z</time></trkpt><trkpt lat="45.9359552093657" lon="9.15395600031838"><ele>214.33333333333331</ele><time>2026-05-01T07:58:27Z</time></trkpt><trkpt lat="45.93604135841938" lon="9.154166971045703"><ele>212.66666666666666</ele><time>2026-05-01T07:58:28Z</time></trkpt><trkpt lat="45.93613657344681" lon="9.154388226171376"><ele>211.0</ele><time>2026-05-01T07:58:29Z</time></trkpt><trkpt lat="45.93623009287703" lon="9.15462819366308"><ele>212.0</ele><time>2026-05-01T07:58:30Z</time></trkpt><trkpt lat="45.93631569241393" lon="9.15488031020789"><ele>213.0</ele><time>2026-05-01T07:58:31Z</time></trkpt><trkpt lat="45.93638526363625" lon="9.155127298668965"><ele>214.0</ele><time>2026-05-01T07:58:32Z</time></trkpt><trkpt lat="45.93646744427694" lon="9.155363324102852"><ele>214.0</ele><time>2026-05-01T07:58:33Z</time></trkpt><trkpt lat="45.93655613279222" lon="9.155592740848588"><ele>214.0</ele><time>2026-05-01T07:58:34Z</time></trkpt><trkpt lat="45.93664286827393" lon="9.1558270620571"><ele>214.0</ele><time>2026-05-01T07:58:35Z</time></trkpt><trkpt lat="45.93673870622365" lon="9.156036852660355"><ele>210.33333333333331</ele><time>2026-05-01T07:58:36Z</time></trkpt><trkpt lat="45.93685814044423" lon="9.156259170641203"><ele>206.66666666666669</ele><time>2026-05-01T07:58:37Z</time></trkpt><trkpt lat="45.93695362811111" lon="9.15646650218012"><ele>203.0</ele><time>2026-05-01T07:58:38Z</time></trkpt><trkpt lat="45.93705542748854" lon="9.156664155239312"><ele>203.0</ele><time>2026-05-01T07:58:39Z</time></trkpt><trkpt lat="45.93714016427717" lon="9.156862183401337"><ele>203.0</ele><time>2026-05-01T07:58:40Z</time></trkpt><trkpt lat="45.93721391451933" lon="9.157051081042496"><ele>203.0</ele><time>2026-05-01T07:58:41Z</time></trkpt><trkpt lat="45.93726694343695" lon="9.157232478920637"><ele>203.0</ele><time>2026-05-01T07:58:42Z</time></trkpt><trkpt lat="45.93729433847604" lon="9.157426912856883"><ele>205.5</ele><time>2026-05-01T07:58:43Z</time></trkpt><trkpt lat="45.93731364661349" lon="9.157615570605168"><ele>208.0</ele><time>2026-05-01T07:58:44Z</time></trkpt><trkpt lat="45.93729650497203" lon="9.157794906459827"><ele>210.5</ele><time>2026-05-01T07:58:45Z</time></trkpt><trkpt lat="45.9373186414038" lon="9.157965539988874"><ele>213.0</ele><time>2026-05-01T07:58:46Z</time></trkpt><trkpt lat="45.93733213103512" lon="9.158140369672184"><ele>214.25</ele><time>2026-05-01T07:58:47Z</time></trkpt><trkpt lat="45.937359401829724" lon="9.158320963083705"><ele>215.5</ele><time>2026-05-01T07:58:48Z</time></trkpt><trkpt lat="45.937401789296416" lon="9.158483102253822"><ele>216.75</ele><time>2026-05-01T07:58:49Z</time></trkpt><trkpt lat="45.937474446229075" lon="9.158637009486181"><ele>218.0</ele><time>2026-05-01T07:58:50Z</time></trkpt><trkpt lat="45.93754099489455" lon="9.158809174372184"><ele>213.33333333333334</ele><time>2026-05-01T07:58:51Z</time></trkpt><trkpt lat="45.93761845812707" lon="9.159023170672947"><ele>208.66666666666669</ele><time>2026-05-01T07:58:52Z</time></trkpt><trkpt lat="45.93769460369417" lon="9.15923251535398"><ele>204.0</ele><time>2026-05-01T07:58:53Z</time></trkpt><trkpt lat="45.93773232412548" lon="9.159484669349874"><ele>204.0</ele><time>2026-05-01T07:58:54Z</time></trkpt><trkpt lat="45.93782226892048" lon="9.159674314460226"><ele>204.0</ele><time>2026-05-01T07:58:55Z</time></trkpt><trkpt lat="45.9379214500614" lon="9.159785468327298"><ele>204.0</ele><time>2026-05-01T07:58:56Z</time></trkpt><trkpt lat="45.93816029474591" lon="9.159942410434311"><ele>203.66666666666669</ele><time>2026-05-01T07:58:57Z</time></trkpt><trkpt lat="45.93830985629755" lon="9.160076410979014"><ele>203.33333333333334</ele><time>2026-05-01T07:58:58Z</time></trkpt><trkpt lat="45.93843592629267" lon="9.160230730728776"><ele>203.0</ele><time>2026-05-01T07:58:59Z</time></trkpt><trkpt lat="45.93853605991799" lon="9.160381272054579"><ele>203.0</ele><time>2026-05-01T07:59:00Z</time></trkpt><trkpt lat="45.938583708714326" lon="9.160559105476198"><ele>203.0</ele><time>2026-05-01T07:59:01Z</time></trkpt><trkpt lat="45.938601997342786" lon="9.160739359530092"><ele>203.0</ele><time>2026-05-01T07:59:02Z</time></trkpt><trkpt lat="45.93861669146381" lon="9.160942281332353"><ele>203.0</ele><time>2026-05-01T07:59:03Z</time></trkpt><trkpt lat="45.93863140493349" lon="9.16115099225195"><ele>203.0</ele><time>2026-05-01T07:59:04Z</time></trkpt><trkpt lat="45.93867392074325" lon="9.16136990868471"><ele>203.0</ele><time>2026-05-01T07:59:04.999Z</time></trkpt><trkpt lat="45.93873443798477" lon="9.161599937027399"><ele>203.0</ele><time>2026-05-01T07:59:05.999Z</time></trkpt><trkpt lat="45.938803748575886" lon="9.161816958363682"><ele>205.0</ele><time>2026-05-01T07:59:06.999Z</time></trkpt><trkpt lat="45.93886381043931" lon="9.162016436179846"><ele>207.0</ele><time>2026-05-01T07:59:07.999Z</time></trkpt><trkpt lat="45.93888936073807" lon="9.16220839575382"><ele>209.0</ele><time>2026-05-01T07:59:08.999Z</time></trkpt><trkpt lat="45.938902729021116" lon="9.162403460443496"><ele>211.0</ele><time>2026-05-01T07:59:09.999Z</time></trkpt><trkpt lat="45.938920033716805" lon="9.16259939375874"><ele>213.0</ele><time>2026-05-01T07:59:10.999Z</time></trkpt><trkpt lat="45.93894818146691" lon="9.162761522653371"><ele>215.0</ele><time>2026-05-01T07:59:11.999Z</time></trkpt><trkpt lat="45.938995844920655" lon="9.162931070652789"><ele>217.0</ele><time>2026-05-01T07:59:12.999Z</time></trkpt><trkpt lat="45.9390788299815" lon="9.163108547279496"><ele>219.0</ele><time>2026-05-01T07:59:13.999Z</time></trkpt><trkpt lat="45.93918943315268" lon="9.16328001073661"><ele>213.0</ele><time>2026-05-01T07:59:14.999Z</time></trkpt><trkpt lat="45.93930410445829" lon="9.163469674758272"><ele>207.0</ele><time>2026-05-01T07:59:15.999Z</time></trkpt><trkpt lat="45.93940830831683" lon="9.16364961525969"><ele>201.0</ele><time>2026-05-01T07:59:16.999Z</time></trkpt><trkpt lat="45.93950213846894" lon="9.163811903021594"><ele>201.0</ele><time>2026-05-01T07:59:17.999Z</time></trkpt><trkpt lat="45.939577224225246" lon="9.163963030868791"><ele>201.0</ele><time>2026-05-01T07:59:18.999Z</time></trkpt><trkpt lat="45.93957824668554" lon="9.164160730204351"><ele>201.0</ele><time>2026-05-01T07:59:19.999Z</time></trkpt><trkpt lat="45.93958835972988" lon="9.164329488892568"><ele>201.0</ele><time>2026-05-01T07:59:20.999Z</time></trkpt><trkpt lat="45.93960583632508" lon="9.164442838216878"><ele>203.0</ele><time>2026-05-01T07:59:21.999Z</time></trkpt><trkpt lat="45.93964621724733" lon="9.16470473981381"><ele>205.0</ele><time>2026-05-01T07:59:22.999Z</time></trkpt><trkpt lat="45.93968899661182" lon="9.164968532840744"><ele>207.0</ele><time>2026-05-01T07:59:23.999Z</time></trkpt><trkpt lat="45.93974412254238" lon="9.165218265402602"><ele>209.33333333333331</ele><time>2026-05-01T07:59:24.999Z</time></trkpt><trkpt lat="45.93980155843915" lon="9.165387897852431"><ele>211.66666666666666</ele><time>2026-05-01T07:59:25.999Z</time></trkpt><trkpt lat="45.93990327239495" lon="9.165654649903349"><ele>214.0</ele><time>2026-05-01T07:59:26.999Z</time></trkpt><trkpt lat="45.93997377178478" lon="9.165907710611087"><ele>211.0</ele><time>2026-05-01T07:59:27.999Z</time></trkpt><trkpt lat="45.94004428121154" lon="9.166198620607227"><ele>208.0</ele><time>2026-05-01T07:59:28.999Z</time></trkpt><trkpt lat="45.94013271332844" lon="9.166430385243384"><ele>205.0</ele><time>2026-05-01T07:59:29.999Z</time></trkpt><trkpt lat="45.9402475910185" lon="9.166708895515017"><ele>205.0</ele><time>2026-05-01T07:59:30.999Z</time></trkpt><trkpt lat="45.940318116407695" lon="9.167012968061567"><ele>205.0</ele><time>2026-05-01T07:59:31.999Z</time></trkpt><trkpt lat="45.940367403852335" lon="9.167205349442316"><ele>205.0</ele><time>2026-05-01T07:59:32.999Z</time></trkpt><trkpt lat="45.940330437782755" lon="9.167381922524083"><ele>205.5</ele><time>2026-05-01T07:59:34.999Z</time></trkpt><trkpt lat="45.94030360425734" lon="9.167501111889047"><ele>206.0</ele><time>2026-05-01T07:59:35.999Z</time></trkpt><trkpt lat="45.94026596673574" lon="9.167661337058165"><ele>206.5</ele><time>2026-05-01T07:59:36.999Z</time></trkpt><trkpt lat="45.94026941539844" lon="9.16796492202561"><ele>207.0</ele><time>2026-05-01T07:59:37.999Z</time></trkpt><trkpt lat="45.940285220694605" lon="9.168227627080356"><ele>207.0</ele><time>2026-05-01T07:59:38.999Z</time></trkpt><trkpt lat="45.94029398153129" lon="9.168417391368488"><ele>207.0</ele><time>2026-05-01T07:59:39.999Z</time></trkpt><trkpt lat="45.9403473327376" lon="9.168644506266428"><ele>207.0</ele><time>2026-05-01T07:59:40.999Z</time></trkpt><trkpt lat="45.94041280141609" lon="9.168873338974171"><ele>207.66666666666669</ele><time>2026-05-01T07:59:41.999Z</time></trkpt><trkpt lat="45.940465400545925" lon="9.169113274807387"><ele>208.33333333333334</ele><time>2026-05-01T07:59:42.999Z</time></trkpt><trkpt lat="45.94051263558435" lon="9.169340297377216"><ele>209.0</ele><time>2026-05-01T07:59:43.999Z</time></trkpt><trkpt lat="45.94054933558083" lon="9.169545132551548"><ele>209.0</ele><time>2026-05-01T07:59:44.999Z</time></trkpt><trkpt lat="45.940578175827135" lon="9.16970966984576"><ele>209.0</ele><time>2026-05-01T07:59:45.999Z</time></trkpt><trkpt lat="45.940614343054165" lon="9.169848695117526"><ele>209.0</ele><time>2026-05-01T07:59:46.999Z</time></trkpt><trkpt lat="45.94068502748814" lon="9.1699775182769"><ele>209.0</ele><time>2026-05-01T07:59:47.999Z</time></trkpt><trkpt lat="45.940787724299156" lon="9.170109268016972"><ele>207.75</ele><time>2026-05-01T07:59:48.999Z</time></trkpt><trkpt lat="45.940889677030725" lon="9.170254412361512"><ele>206.5</ele><time>2026-05-01T07:59:49.999Z</time></trkpt><trkpt lat="45.94099010524061" lon="9.170402028880124"><ele>205.25</ele><time>2026-05-01T07:59:50.999Z</time></trkpt><trkpt lat="45.9410987200416" lon="9.170532662463732"><ele>204.0</ele><time>2026-05-01T07:59:51.999Z</time></trkpt><trkpt lat="45.941234719636974" lon="9.170637980786482"><ele>208.66666666666669</ele><time>2026-05-01T07:59:52.999Z</time></trkpt><trkpt lat="45.94138246934711" lon="9.170729553747965"><ele>213.33333333333334</ele><time>2026-05-01T07:59:53.999Z</time></trkpt><trkpt lat="45.941529353346525" lon="9.170816125930225"><ele>218.0</ele><time>2026-05-01T07:59:54.999Z</time></trkpt><trkpt lat="45.94165865706261" lon="9.170900899861161"><ele>213.75</ele><time>2026-05-01T07:59:55.999Z</time></trkpt><trkpt lat="45.94177027585848" lon="9.170980061581881"><ele>209.5</ele><time>2026-05-01T07:59:56.999Z</time></trkpt><trkpt lat="45.94187494017249" lon="9.171055173832174"><ele>205.25</ele><time>2026-05-01T07:59:57.999Z</time></trkpt><trkpt lat="45.94194469992564" lon="9.171177440680946"><ele>201.0</ele><time>2026-05-01T07:59:58.999Z</time></trkpt><trkpt lat="45.94197188440866" lon="9.171332693799966"><ele>201.0</ele><time>2026-05-01T07:59:59.999Z</time></trkpt><trkpt lat="45.94197871614165" lon="9.171497959204801"><ele>201.0</ele><time>2026-05-01T08:00:00.999Z</time></trkpt><trkpt lat="45.942006637364095" lon="9.17167732331592"><ele>201.0</ele><time>2026-05-01T08:00:01.999Z</time></trkpt><trkpt lat="45.942041653389396" lon="9.171877004802761"><ele>201.0</ele><time>2026-05-01T08:00:02.999Z</time></trkpt><trkpt lat="45.942117831766645" lon="9.172083301871984"><ele>202.33333333333331</ele><time>2026-05-01T08:00:03.999Z</time></trkpt><trkpt lat="45.94219968635593" lon="9.172295881177513"><ele>203.66666666666666</ele><time>2026-05-01T08:00:04.999Z</time></trkpt><trkpt lat="45.942284701791785" lon="9.172539931698928"><ele>205.0</ele><time>2026-05-01T08:00:05.999Z</time></trkpt><trkpt lat="45.94235786272435" lon="9.172753395293823"><ele>206.5</ele><time>2026-05-01T08:00:06.998Z</time></trkpt><trkpt lat="45.94241043910768" lon="9.17294933292967"><ele>208.0</ele><time>2026-05-01T08:00:07.998Z</time></trkpt><trkpt lat="45.94244949565847" lon="9.173143129633395"><ele>209.5</ele><time>2026-05-01T08:00:08.998Z</time></trkpt><trkpt lat="45.9424837405416" lon="9.173349495808019"><ele>211.0</ele><time>2026-05-01T08:00:09.998Z</time></trkpt><trkpt lat="45.94251969517328" lon="9.173554759423126"><ele>209.25</ele><time>2026-05-01T08:00:10.998Z</time></trkpt><trkpt lat="45.942561481194225" lon="9.173749496588554"><ele>207.5</ele><time>2026-05-01T08:00:11.998Z</time></trkpt><trkpt lat="45.94261015467528" lon="9.173920649197136"><ele>205.75</ele><time>2026-05-01T08:00:12.998Z</time></trkpt><trkpt lat="45.942651577866584" lon="9.174095320170638"><ele>204.0</ele><time>2026-05-01T08:00:13.998Z</time></trkpt><trkpt lat="45.942690291694305" lon="9.174255628430128"><ele>204.0</ele><time>2026-05-01T08:00:14.998Z</time></trkpt><trkpt lat="45.94271758434878" lon="9.174413438585894"><ele>204.0</ele><time>2026-05-01T08:00:15.998Z</time></trkpt><trkpt lat="45.94272283735313" lon="9.174581509848196"><ele>204.0</ele><time>2026-05-01T08:00:16.998Z</time></trkpt><trkpt lat="45.94273009986026" lon="9.17474313613465"><ele>204.0</ele><time>2026-05-01T08:00:17.998Z</time></trkpt><trkpt lat="45.942747503070414" lon="9.17490085424054"><ele>205.2</ele><time>2026-05-01T08:00:19Z</time></trkpt><trkpt lat="45.94277323593173" lon="9.175052393485936"><ele>206.39999999999998</ele><time>2026-05-01T08:00:20Z</time></trkpt><trkpt lat="45.94281194705551" lon="9.175191461596276"><ele>207.6</ele><time>2026-05-01T08:00:21Z</time></trkpt><trkpt lat="45.942857277027294" lon="9.175336938054102"><ele>208.8</ele><time>2026-05-01T08:00:22Z</time></trkpt><trkpt lat="45.94289564180172" lon="9.175479857230794"><ele>210.0</ele><time>2026-05-01T08:00:23Z</time></trkpt><trkpt lat="45.942936695859274" lon="9.175625127562274"><ele>211.0</ele><time>2026-05-01T08:00:24Z</time></trkpt><trkpt lat="45.94299491700744" lon="9.175769181534326"><ele>212.0</ele><time>2026-05-01T08:00:25Z</time></trkpt><trkpt lat="45.9430482370409" lon="9.175899178443277"><ele>213.0</ele><time>2026-05-01T08:00:26Z</time></trkpt><trkpt lat="45.943102896582545" lon="9.17600599338336"><ele>214.0</ele><time>2026-05-01T08:00:27Z</time></trkpt><trkpt lat="45.94315461622098" lon="9.176133806952219"><ele>215.0</ele><time>2026-05-01T08:00:28Z</time></trkpt><trkpt lat="45.94320727672644" lon="9.176255013031662"><ele>215.0</ele><time>2026-05-01T08:00:29Z</time></trkpt><trkpt lat="45.94326032722464" lon="9.176369053900066"><ele>215.0</ele><time>2026-05-01T08:00:30Z</time></trkpt><trkpt lat="45.94330982992337" lon="9.17648364657738"><ele>215.0</ele><time>2026-05-01T08:00:31Z</time></trkpt><trkpt lat="45.943372706796275" lon="9.176609059246465"><ele>215.0</ele><time>2026-05-01T08:00:32Z</time></trkpt><trkpt lat="45.9434322235611" lon="9.176782409515713"><ele>215.0</ele><time>2026-05-01T08:00:33Z</time></trkpt><trkpt lat="45.94348488946514" lon="9.176961844059157"><ele>212.66666666666669</ele><time>2026-05-01T08:00:34Z</time></trkpt><trkpt lat="45.94353816287268" lon="9.17715411473369"><ele>210.33333333333331</ele><time>2026-05-01T08:00:35Z</time></trkpt><trkpt lat="45.94360365394971" lon="9.177354912440384"><ele>208.0</ele><time>2026-05-01T08:00:36Z</time></trkpt><trkpt lat="45.943673551044434" lon="9.17757928529728"><ele>208.0</ele><time>2026-05-01T08:00:37Z</time></trkpt><trkpt lat="45.943734575546415" lon="9.17784115975457"><ele>208.0</ele><time>2026-05-01T08:00:38Z</time></trkpt><trkpt lat="45.943789787414985" lon="9.178073843697206"><ele>208.0</ele><time>2026-05-01T08:00:39Z</time></trkpt><trkpt lat="45.94384207030113" lon="9.178271425565052"><ele>209.0</ele><time>2026-05-01T08:00:40Z</time></trkpt><trkpt lat="45.943835269149965" lon="9.178456889967016"><ele>210.0</ele><time>2026-05-01T08:00:41Z</time></trkpt><trkpt lat="45.943843505663615" lon="9.17863656343948"><ele>211.0</ele><time>2026-05-01T08:00:42Z</time></trkpt><trkpt lat="45.94382190698058" lon="9.178836625480677"><ele>212.0</ele><time>2026-05-01T08:00:43Z</time></trkpt><trkpt lat="45.94381673633355" lon="9.179042399558051"><ele>212.0</ele><time>2026-05-01T08:00:44Z</time></trkpt><trkpt lat="45.943820817151014" lon="9.17925084546796"><ele>212.0</ele><time>2026-05-01T08:00:45Z</time></trkpt><trkpt lat="45.94382735870925" lon="9.179460191967944"><ele>212.0</ele><time>2026-05-01T08:00:46Z</time></trkpt><trkpt lat="45.94382108025954" lon="9.17966304505707"><ele>212.0</ele><time>2026-05-01T08:00:47Z</time></trkpt><trkpt lat="45.94383124082906" lon="9.179870310202597"><ele>214.0</ele><time>2026-05-01T08:00:48Z</time></trkpt><trkpt lat="45.9438856368736" lon="9.18009259651867"><ele>216.0</ele><time>2026-05-01T08:00:49Z</time></trkpt><trkpt lat="45.943945735587384" lon="9.180316874480777"><ele>218.0</ele><time>2026-05-01T08:00:50Z</time></trkpt><trkpt lat="45.943997791724854" lon="9.180519072209536"><ele>219.75</ele><time>2026-05-01T08:00:51Z</time></trkpt><trkpt lat="45.94405446367175" lon="9.180709277230466"><ele>221.5</ele><time>2026-05-01T08:00:52Z</time></trkpt><trkpt lat="45.94412111597679" lon="9.18087224400822"><ele>223.25</ele><time>2026-05-01T08:00:53Z</time></trkpt><trkpt lat="45.94419165693909" lon="9.181022226408864"><ele>225.0</ele><time>2026-05-01T08:00:54Z</time></trkpt><trkpt lat="45.94426531267342" lon="9.181154118316476"><ele>223.4</ele><time>2026-05-01T08:00:55Z</time></trkpt><trkpt lat="45.94435032367618" lon="9.181260454794309"><ele>221.8</ele><time>2026-05-01T08:00:56Z</time></trkpt><trkpt lat="45.94443706592065" lon="9.181355288365427"><ele>220.2</ele><time>2026-05-01T08:00:57Z</time></trkpt><trkpt lat="45.94452028588223" lon="9.181446119220563"><ele>218.6</ele><time>2026-05-01T08:00:58Z</time></trkpt><trkpt lat="45.9446064822415" lon="9.181560551943857"><ele>217.0</ele><time>2026-05-01T08:00:59Z</time></trkpt><trkpt lat="45.944678045244295" lon="9.181709986354248"><ele>217.0</ele><time>2026-05-01T08:01:00Z</time></trkpt><trkpt lat="45.94475205627456" lon="9.181860701193433"><ele>217.0</ele><time>2026-05-01T08:01:01Z</time></trkpt><trkpt lat="45.9448196006503" lon="9.182002429309874"><ele>217.0</ele><time>2026-05-01T08:01:02Z</time></trkpt><trkpt lat="45.94488394240338" lon="9.182124320622112"><ele>217.0</ele><time>2026-05-01T08:01:03Z</time></trkpt><trkpt lat="45.944933237861854" lon="9.182255321469574"><ele>217.8</ele><time>2026-05-01T08:01:04Z</time></trkpt><trkpt lat="45.94497482800713" lon="9.182376142410625"><ele>218.6</ele><time>2026-05-01T08:01:05Z</time></trkpt><trkpt lat="45.945006366202165" lon="9.182493283672152"><ele>219.40000000000003</ele><time>2026-05-01T08:01:06Z</time></trkpt><trkpt lat="45.94502320246696" lon="9.182617679936165"><ele>220.20000000000002</ele><time>2026-05-01T08:01:07Z</time></trkpt><trkpt lat="45.94502566436849" lon="9.182756582562881"><ele>221.0</ele><time>2026-05-01T08:01:08Z</time></trkpt><trkpt lat="45.94502882390735" lon="9.182890366704722"><ele>221.0</ele><time>2026-05-01T08:01:09Z</time></trkpt><trkpt lat="45.945035454881044" lon="9.183034772190764"><ele>221.00000000000003</ele><time>2026-05-01T08:01:09.999Z</time></trkpt><trkpt lat="45.94504628829841" lon="9.183177983125073"><ele>221.00000000000003</ele><time>2026-05-01T08:01:10.999Z</time></trkpt><trkpt lat="45.94506014220119" lon="9.183322042165521"><ele>221.0</ele><time>2026-05-01T08:01:11.999Z</time></trkpt><trkpt lat="45.94506888170029" lon="9.183485079124432"><ele>221.0</ele><time>2026-05-01T08:01:12.999Z</time></trkpt><trkpt lat="45.94506632862502" lon="9.183645142984885"><ele>221.0</ele><time>2026-05-01T08:01:13.999Z</time></trkpt><trkpt lat="45.945044489473005" lon="9.183806327289897"><ele>221.0</ele><time>2026-05-01T08:01:14.999Z</time></trkpt><trkpt lat="45.945038041893056" lon="9.184014749458873"><ele>221.0</ele><time>2026-05-01T08:01:15.999Z</time></trkpt><trkpt lat="45.945045749441235" lon="9.184225192756564"><ele>221.0</ele><time>2026-05-01T08:01:16.999Z</time></trkpt><trkpt lat="45.945056602357866" lon="9.184437646749918"><ele>217.25</ele><time>2026-05-01T08:01:17.999Z</time></trkpt><trkpt lat="45.9450526518837" lon="9.18464412512216"><ele>213.5</ele><time>2026-05-01T08:01:18.999Z</time></trkpt><trkpt lat="45.9450637283964" lon="9.184843717271347"><ele>209.75</ele><time>2026-05-01T08:01:19.999Z</time></trkpt><trkpt lat="45.94508395016498" lon="9.185030905490338"><ele>206.0</ele><time>2026-05-01T08:01:20.999Z</time></trkpt><trkpt lat="45.94509363065237" lon="9.185219025324024"><ele>206.0</ele><time>2026-05-01T08:01:21.999Z</time></trkpt><trkpt lat="45.94509861191899" lon="9.1853935961886"><ele>206.0</ele><time>2026-05-01T08:01:22.999Z</time></trkpt><trkpt lat="45.94510859890819" lon="9.185584859921288"><ele>206.0</ele><time>2026-05-01T08:01:23.999Z</time></trkpt><trkpt lat="45.94513536110767" lon="9.185795921996744"><ele>206.0</ele><time>2026-05-01T08:01:24.999Z</time></trkpt><trkpt lat="45.945169157334156" lon="9.186027050806121"><ele>206.0</ele><time>2026-05-01T08:01:25.999Z</time></trkpt><trkpt lat="45.94520619573618" lon="9.18625375784858"><ele>206.0</ele><time>2026-05-01T08:01:26.999Z</time></trkpt><trkpt lat="45.94522931726673" lon="9.186466625611986"><ele>206.0</ele><time>2026-05-01T08:01:27.999Z</time></trkpt><trkpt lat="45.94523814850472" lon="9.186658342043803"><ele>206.0</ele><time>2026-05-01T08:01:28.999Z</time></trkpt><trkpt lat="45.94522900402691" lon="9.186858085522859"><ele>205.75</ele><time>2026-05-01T08:01:29.999Z</time></trkpt><trkpt lat="45.945208584920834" lon="9.18706407564902"><ele>205.5</ele><time>2026-05-01T08:01:30.999Z</time></trkpt><trkpt lat="45.945180750323935" lon="9.187277280782574"><ele>205.25</ele><time>2026-05-01T08:01:31.999Z</time></trkpt><trkpt lat="45.94515225587352" lon="9.18749126401567"><ele>205.0</ele><time>2026-05-01T08:01:32.999Z</time></trkpt><trkpt lat="45.945115865615676" lon="9.18769803581764"><ele>204.5</ele><time>2026-05-01T08:01:33.999Z</time></trkpt><trkpt lat="45.9450801395251" lon="9.187888102707516"><ele>204.0</ele><time>2026-05-01T08:01:34.999Z</time></trkpt><trkpt lat="45.945056262339506" lon="9.188058878001893"><ele>203.5</ele><time>2026-05-01T08:01:35.999Z</time></trkpt><trkpt lat="45.94504364811144" lon="9.188225399920176"><ele>203.0</ele><time>2026-05-01T08:01:36.999Z</time></trkpt><trkpt lat="45.9450353364407" lon="9.188378697104282"><ele>203.2</ele><time>2026-05-01T08:01:37.999Z</time></trkpt><trkpt lat="45.945039459999435" lon="9.188534895051424"><ele>203.4</ele><time>2026-05-01T08:01:38.999Z</time></trkpt><trkpt lat="45.945054294484116" lon="9.188692168501893"><ele>203.6</ele><time>2026-05-01T08:01:39.999Z</time></trkpt><trkpt lat="45.94508347423786" lon="9.188846583780977"><ele>203.79999999999998</ele><time>2026-05-01T08:01:40.999Z</time></trkpt><trkpt lat="45.94512081700498" lon="9.188971863759459"><ele>204.0</ele><time>2026-05-01T08:01:41.999Z</time></trkpt><trkpt lat="45.945160652399835" lon="9.189098937190348"><ele>204.0</ele><time>2026-05-01T08:01:42.999Z</time></trkpt><trkpt lat="45.945198108449055" lon="9.189224082687858"><ele>204.0</ele><time>2026-05-01T08:01:43.999Z</time></trkpt><trkpt lat="45.945236217753916" lon="9.189355396406393"><ele>204.0</ele><time>2026-05-01T08:01:44.999Z</time></trkpt><trkpt lat="45.945270767781416" lon="9.189504734626075"><ele>204.0</ele><time>2026-05-01T08:01:45.999Z</time></trkpt><trkpt lat="45.94530373958955" lon="9.189700687273872"><ele>204.0</ele><time>2026-05-01T08:01:46.999Z</time></trkpt><trkpt lat="45.945299098996045" lon="9.189974241168523"><ele>206.0</ele><time>2026-05-01T08:01:47.999Z</time></trkpt><trkpt lat="45.94531974009228" lon="9.190295457596006"><ele>208.0</ele><time>2026-05-01T08:01:48.999Z</time></trkpt><trkpt lat="45.94536402708951" lon="9.190609407178169"><ele>210.0</ele><time>2026-05-01T08:01:49.999Z</time></trkpt><trkpt lat="45.945420139431306" lon="9.190868295058658"><ele>210.0</ele><time>2026-05-01T08:01:50.999Z</time></trkpt><trkpt lat="45.94551484684307" lon="9.191148529874313"><ele>210.0</ele><time>2026-05-01T08:01:51.999Z</time></trkpt><trkpt lat="45.94554936247034" lon="9.191361574024917"><ele>210.0</ele><time>2026-05-01T08:01:53.999Z</time></trkpt><trkpt lat="45.94557968528087" lon="9.191584522030839"><ele>211.33333333333331</ele><time>2026-05-01T08:01:54.999Z</time></trkpt><trkpt lat="45.94560157923106" lon="9.19182093372837"><ele>212.66666666666666</ele><time>2026-05-01T08:01:55.999Z</time></trkpt><trkpt lat="45.94563622802593" lon="9.192062399925994"><ele>214.0</ele><time>2026-05-01T08:01:56.999Z</time></trkpt><trkpt lat="45.94568805524604" lon="9.192294612737236"><ele>215.66666666666666</ele><time>2026-05-01T08:01:57.999Z</time></trkpt><trkpt lat="45.945761913054895" lon="9.192506741387248"><ele>217.33333333333331</ele><time>2026-05-01T08:01:58.999Z</time></trkpt><trkpt lat="45.94586196719583" lon="9.192692067817514"><ele>219.0</ele><time>2026-05-01T08:01:59.999Z</time></trkpt><trkpt lat="45.94597506459965" lon="9.192866568122037"><ele>215.0</ele><time>2026-05-01T08:02:00.999Z</time></trkpt><trkpt lat="45.94608910250677" lon="9.193027206436346"><ele>211.0</ele><time>2026-05-01T08:02:01.999Z</time></trkpt><trkpt lat="45.94619812402861" lon="9.19317513291833"><ele>207.0</ele><time>2026-05-01T08:02:02.999Z</time></trkpt><trkpt lat="45.94628847499642" lon="9.193323843327914"><ele>203.0</ele><time>2026-05-01T08:02:03.999Z</time></trkpt><trkpt lat="45.946358207871164" lon="9.193477547518093"><ele>203.0</ele><time>2026-05-01T08:02:04.999Z</time></trkpt><trkpt lat="45.946400058070374" lon="9.193649073902703"><ele>203.0</ele><time>2026-05-01T08:02:05.999Z</time></trkpt><trkpt lat="45.946428793824936" lon="9.193841392290283"><ele>203.0</ele><time>2026-05-01T08:02:06.999Z</time></trkpt><trkpt lat="45.94641451494142" lon="9.194021397839087"><ele>203.0</ele><time>2026-05-01T08:02:07.999Z</time></trkpt><trkpt lat="45.94642562142331" lon="9.194178817461104"><ele>203.60000000000002</ele><time>2026-05-01T08:02:08.999Z</time></trkpt><trkpt lat="45.9464276722997" lon="9.194327888984219"><ele>204.20000000000002</ele><time>2026-05-01T08:02:09.999Z</time></trkpt><trkpt lat="45.94642178350439" lon="9.194478457959633"><ele>204.8</ele><time>2026-05-01T08:02:10.998Z</time></trkpt><trkpt lat="45.946407841398376" lon="9.19461169925038"><ele>205.4</ele><time>2026-05-01T08:02:11.998Z</time></trkpt><trkpt lat="45.946395132505835" lon="9.194801410475895"><ele>206.0</ele><time>2026-05-01T08:02:12.998Z</time></trkpt><trkpt lat="45.946377466195514" lon="9.195004356677998"><ele>206.75</ele><time>2026-05-01T08:02:13.998Z</time></trkpt><trkpt lat="45.94634300982276" lon="9.195210352822027"><ele>207.5</ele><time>2026-05-01T08:02:14.998Z</time></trkpt><trkpt lat="45.94633219394621" lon="9.195427007580543"><ele>208.25</ele><time>2026-05-01T08:02:15.998Z</time></trkpt><trkpt lat="45.94631423395223" lon="9.195609370031953"><ele>209.0</ele><time>2026-05-01T08:02:16.998Z</time></trkpt><trkpt lat="45.946313365749994" lon="9.195805668797558"><ele>209.25</ele><time>2026-05-01T08:02:17.998Z</time></trkpt><trkpt lat="45.94630943985185" lon="9.195994232890223"><ele>209.5</ele><time>2026-05-01T08:02:18.998Z</time></trkpt><trkpt lat="45.94629011640419" lon="9.196139669821976"><ele>209.75</ele><time>2026-05-01T08:02:19.998Z</time></trkpt><trkpt lat="45.94631111070087" lon="9.19629677554276"><ele>210.0</ele><time>2026-05-01T08:02:20.998Z</time></trkpt><trkpt lat="45.94642045294553" lon="9.196436303889858"><ele>209.75</ele><time>2026-05-01T08:02:21.998Z</time></trkpt><trkpt lat="45.94647523488045" lon="9.196613504727589"><ele>209.5</ele><time>2026-05-01T08:02:22.998Z</time></trkpt><trkpt lat="45.9465119697303" lon="9.196817562676735"><ele>209.25</ele><time>2026-05-01T08:02:23.998Z</time></trkpt><trkpt lat="45.946542166126896" lon="9.196976631876153"><ele>209.0</ele><time>2026-05-01T08:02:25Z</time></trkpt><trkpt lat="45.94656485346008" lon="9.19706809679431"><ele>209.0</ele><time>2026-05-01T08:02:26Z</time></trkpt><trkpt lat="45.946442636518306" lon="9.197169087022603"><ele>209.0</ele><time>2026-05-01T08:02:27Z</time></trkpt><trkpt lat="45.94642185316307" lon="9.197346491005886"><ele>209.0</ele><time>2026-05-01T08:02:28Z</time></trkpt><trkpt lat="45.94639741292294" lon="9.197550228575889"><ele>209.0</ele><time>2026-05-01T08:02:29Z</time></trkpt><trkpt lat="45.94637243577894" lon="9.197766572165113"><ele>208.66666666666669</ele><time>2026-05-01T08:02:30Z</time></trkpt><trkpt lat="45.94634855403313" lon="9.197991200117068"><ele>208.33333333333331</ele><time>2026-05-01T08:02:31Z</time></trkpt><trkpt lat="45.94632701616636" lon="9.198209229514033"><ele>208.0</ele><time>2026-05-01T08:02:32Z</time></trkpt><trkpt lat="45.94631817432648" lon="9.19844891900071"><ele>207.0</ele><time>2026-05-01T08:02:33Z</time></trkpt><trkpt lat="45.946309932772614" lon="9.198680209138248"><ele>206.0</ele><time>2026-05-01T08:02:34Z</time></trkpt><trkpt lat="45.94631024338617" lon="9.198913180346665"><ele>205.0</ele><time>2026-05-01T08:02:35Z</time></trkpt><trkpt lat="45.94631608377003" lon="9.199158922655679"><ele>205.0</ele><time>2026-05-01T08:02:36Z</time></trkpt><trkpt lat="45.94633299638449" lon="9.199416015175771"><ele>205.0</ele><time>2026-05-01T08:02:37Z</time></trkpt><trkpt lat="45.94634979573557" lon="9.199660651425651"><ele>205.0</ele><time>2026-05-01T08:02:38Z</time></trkpt><trkpt lat="45.946368621749535" lon="9.199888338709917"><ele>205.25</ele><time>2026-05-01T08:02:39Z</time></trkpt><trkpt lat="45.94638841080146" lon="9.200067335015945"><ele>205.5</ele><time>2026-05-01T08:02:40Z</time></trkpt><trkpt lat="45.94641350054862" lon="9.200233514502907"><ele>205.75</ele><time>2026-05-01T08:02:41Z</time></trkpt><trkpt lat="45.94644741549824" lon="9.200392076914397"><ele>206.0</ele><time>2026-05-01T08:02:42Z</time></trkpt><trkpt lat="45.94647997024183" lon="9.200536396673332"><ele>205.75</ele><time>2026-05-01T08:02:43Z</time></trkpt><trkpt lat="45.946513746239724" lon="9.200680583058045"><ele>205.5</ele><time>2026-05-01T08:02:44Z</time></trkpt><trkpt lat="45.946549475413114" lon="9.200837781641038"><ele>205.25</ele><time>2026-05-01T08:02:45Z</time></trkpt><trkpt lat="45.946589887652124" lon="9.201011418592316"><ele>205.0</ele><time>2026-05-01T08:02:46Z</time></trkpt><trkpt lat="45.94662154696326" lon="9.20120849399313"><ele>205.0</ele><time>2026-05-01T08:02:47Z</time></trkpt><trkpt lat="45.946667480055005" lon="9.201412710139856"><ele>205.0</ele><time>2026-05-01T08:02:48Z</time></trkpt><trkpt lat="45.94671121841803" lon="9.201633338634641"><ele>205.0</ele><time>2026-05-01T08:02:49Z</time></trkpt><trkpt lat="45.94677752975896" lon="9.201865077459765"><ele>204.75</ele><time>2026-05-01T08:02:50Z</time></trkpt><trkpt lat="45.94683359447958" lon="9.202071135169568"><ele>204.5</ele><time>2026-05-01T08:02:51Z</time></trkpt><trkpt lat="45.946885343178515" lon="9.202259525778224"><ele>204.25</ele><time>2026-05-01T08:02:52Z</time></trkpt><trkpt lat="45.94692380372496" lon="9.20243611338574"><ele>204.0</ele><time>2026-05-01T08:02:53Z</time></trkpt><trkpt lat="45.94698612455666" lon="9.202575749852771"><ele>204.0</ele><time>2026-05-01T08:02:54Z</time></trkpt><trkpt lat="45.94705113397741" lon="9.202691748170897"><ele>204.0</ele><time>2026-05-01T08:02:55Z</time></trkpt><trkpt lat="45.94712529608049" lon="9.202797958682044"><ele>204.0</ele><time>2026-05-01T08:02:56Z</time></trkpt><trkpt lat="45.94722228155797" lon="9.202909968248843"><ele>204.0</ele><time>2026-05-01T08:02:57Z</time></trkpt><trkpt lat="45.94733282228285" lon="9.203025676554187"><ele>204.0</ele><time>2026-05-01T08:02:58Z</time></trkpt><trkpt lat="45.94746117263776" lon="9.20315644479761"><ele>204.0</ele><time>2026-05-01T08:02:59Z</time></trkpt><trkpt lat="45.947600055781585" lon="9.20329185417934"><ele>204.0</ele><time>2026-05-01T08:03:00Z</time></trkpt><trkpt lat="45.94773984301237" lon="9.203431615980467"><ele>203.33333333333331</ele><time>2026-05-01T08:03:01Z</time></trkpt><trkpt lat="45.94786705233175" lon="9.20356195480665"><ele>202.66666666666666</ele><time>2026-05-01T08:03:02Z</time></trkpt><trkpt lat="45.94800698535936" lon="9.203697284209372"><ele>202.0</ele><time>2026-05-01T08:03:03Z</time></trkpt><trkpt lat="45.94813315316287" lon="9.203796160914617"><ele>202.0</ele><time>2026-05-01T08:03:04Z</time></trkpt><trkpt lat="45.948240302742626" lon="9.203903993801902"><ele>202.0</ele><time>2026-05-01T08:03:05Z</time></trkpt><trkpt lat="45.94837109028096" lon="9.204051538186047"><ele>202.0</ele><time>2026-05-01T08:03:06Z</time></trkpt><trkpt lat="45.948484984556224" lon="9.20418920428429"><ele>202.0</ele><time>2026-05-01T08:03:07Z</time></trkpt><trkpt lat="45.94857923796016" lon="9.204321431122827"><ele>201.6</ele><time>2026-05-01T08:03:08Z</time></trkpt><trkpt lat="45.94862233141723" lon="9.204481642567691"><ele>201.2</ele><time>2026-05-01T08:03:09Z</time></trkpt><trkpt lat="45.94862776161367" lon="9.20461291641589"><ele>200.8</ele><time>2026-05-01T08:03:10Z</time></trkpt><trkpt lat="45.9485933413757" lon="9.204711863737375"><ele>200.4</ele><time>2026-05-01T08:03:11Z</time></trkpt><trkpt lat="45.948561303181194" lon="9.20480959780538"><ele>200.0</ele><time>2026-05-01T08:03:12Z</time></trkpt><trkpt lat="45.94851167270127" lon="9.204939514508844"><ele>201.0</ele><time>2026-05-01T08:03:12.999Z</time></trkpt><trkpt lat="45.948453394057886" lon="9.205099183211722"><ele>202.0</ele><time>2026-05-01T08:03:13.999Z</time></trkpt><trkpt lat="45.94839604325791" lon="9.205271994236016"><ele>203.0</ele><time>2026-05-01T08:03:14.999Z</time></trkpt><trkpt lat="45.94828741455199" lon="9.205394341410644"><ele>204.0</ele><time>2026-05-01T08:03:15.999Z</time></trkpt><trkpt lat="45.94822610482055" lon="9.205660045661547"><ele>209.66666666666669</ele><time>2026-05-01T08:03:16.999Z</time></trkpt><trkpt lat="45.94823122127285" lon="9.205951112825137"><ele>215.33333333333334</ele><time>2026-05-01T08:03:17.999Z</time></trkpt><trkpt lat="45.948207920455964" lon="9.206231728314851"><ele>221.0</ele><time>2026-05-01T08:03:18.999Z</time></trkpt><trkpt lat="45.94817224722942" lon="9.206348124900922"><ele>221.0</ele><time>2026-05-01T08:03:19.999Z</time></trkpt><trkpt lat="45.94813754967455" lon="9.206476314489404"><ele>221.00000000000003</ele><time>2026-05-01T08:03:20.999Z</time></trkpt><trkpt lat="45.94809671397432" lon="9.206620545492347"><ele>221.00000000000003</ele><time>2026-05-01T08:03:21.999Z</time></trkpt><trkpt lat="45.948069893971784" lon="9.206718049756752"><ele>221.0</ele><time>2026-05-01T08:03:22.999Z</time></trkpt><trkpt lat="45.948156949080136" lon="9.20686378962928"><ele>221.0</ele><time>2026-05-01T08:03:24.999Z</time></trkpt><trkpt lat="45.948288840892594" lon="9.207066827431152"><ele>217.66666666666669</ele><time>2026-05-01T08:03:25.999Z</time></trkpt><trkpt lat="45.94847832986924" lon="9.20714058364901"><ele>214.33333333333331</ele><time>2026-05-01T08:03:26.999Z</time></trkpt><trkpt lat="45.94866191342211" lon="9.207191130710475"><ele>211.0</ele><time>2026-05-01T08:03:27.999Z</time></trkpt><trkpt lat="45.948773541282826" lon="9.207229068802672"><ele>210.99999999999997</ele><time>2026-05-01T08:03:28.999Z</time></trkpt><trkpt lat="45.948841691871436" lon="9.207292157721191"><ele>211.0</ele><time>2026-05-01T08:03:29.999Z</time></trkpt><trkpt lat="45.94878176601737" lon="9.207250695500532"><ele>211.0</ele><time>2026-05-01T08:03:30.999Z</time></trkpt><trkpt lat="45.948841349111525" lon="9.207291918721305"><ele>211.0</ele><time>2026-05-01T08:03:32.999Z</time></trkpt><trkpt lat="45.9489136238078" lon="9.20734851677168"><ele>210.99999999999997</ele><time>2026-05-01T08:03:34.999Z</time></trkpt><trkpt lat="45.948999673917605" lon="9.20741792982288"><ele>211.0</ele><time>2026-05-01T08:03:36.999Z</time></trkpt><trkpt lat="45.94907317009706" lon="9.207490386371415"><ele>212.99999999999997</ele><time>2026-05-01T08:03:38.999Z</time></trkpt><trkpt lat="45.94912169296932" lon="9.207553072824686"><ele>215.0</ele><time>2026-05-01T08:03:40.999Z</time></trkpt><trkpt lat="45.94916022282668" lon="9.207646639606347"><ele>217.0</ele><time>2026-05-01T08:03:43.999Z</time></trkpt><trkpt lat="45.949183171795774" lon="9.207757725496581"><ele>219.0</ele><time>2026-05-01T08:03:45.999Z</time></trkpt><trkpt lat="45.94920260627892" lon="9.207892183623947"><ele>220.99999999999997</ele><time>2026-05-01T08:03:48.999Z</time></trkpt><trkpt lat="45.94919503346586" lon="9.207998099140541"><ele>223.0</ele><time>2026-05-01T08:03:50.999Z</time></trkpt><trkpt lat="45.949187211457044" lon="9.208114833701773"><ele>223.83333333333331</ele><time>2026-05-01T08:03:52.999Z</time></trkpt><trkpt lat="45.94916493678802" lon="9.208241380605845"><ele>224.66666666666666</ele><time>2026-05-01T08:03:55.999Z</time></trkpt><trkpt lat="45.94914505475592" lon="9.208333895207899"><ele>225.5</ele><time>2026-05-01T08:03:57.999Z</time></trkpt><trkpt lat="45.94907411508095" lon="9.208488132802483"><ele>226.33333333333331</ele><time>2026-05-01T08:03:59.999Z</time></trkpt><trkpt lat="45.94903580403875" lon="9.208588603899841"><ele>227.16666666666666</ele><time>2026-05-01T08:04:00.999Z</time></trkpt><trkpt lat="45.94900635469812" lon="9.208688160411297"><ele>228.0</ele><time>2026-05-01T08:04:01.999Z</time></trkpt><trkpt lat="45.9489931608569" lon="9.208795711935672"><ele>228.0</ele><time>2026-05-01T08:04:02.999Z</time></trkpt><trkpt lat="45.94903598993463" lon="9.20892096814469"><ele>228.0</ele><time>2026-05-01T08:04:03.999Z</time></trkpt><trkpt lat="45.949076355433505" lon="9.20906282499681"><ele>228.0</ele><time>2026-05-01T08:04:04.999Z</time></trkpt><trkpt lat="45.94911363719589" lon="9.20920058389528"><ele>228.0</ele><time>2026-05-01T08:04:05.999Z</time></trkpt><trkpt lat="45.949146564383206" lon="9.2093232817507"><ele>228.0</ele><time>2026-05-01T08:04:06.999Z</time></trkpt><trkpt lat="45.94914979502758" lon="9.209437999068129"><ele>228.60000000000002</ele><time>2026-05-01T08:04:07.999Z</time></trkpt><trkpt lat="45.94914090241068" lon="9.209546760096295"><ele>229.20000000000002</ele><time>2026-05-01T08:04:08.999Z</time></trkpt><trkpt lat="45.94913579266463" lon="9.209660270167932"><ele>229.8</ele><time>2026-05-01T08:04:09.999Z</time></trkpt><trkpt lat="45.94914845289421" lon="9.209797874789572"><ele>230.4</ele><time>2026-05-01T08:04:10.999Z</time></trkpt><trkpt lat="45.94919567011976" lon="9.209947885676995"><ele>231.0</ele><time>2026-05-01T08:04:11.999Z</time></trkpt><trkpt lat="45.94923671061563" lon="9.210139302026711"><ele>227.5</ele><time>2026-05-01T08:04:12.999Z</time></trkpt><trkpt lat="45.94929351798454" lon="9.21034764162252"><ele>224.0</ele><time>2026-05-01T08:04:13.998Z</time></trkpt><trkpt lat="45.949357097134474" lon="9.210539561845975"><ele>220.5</ele><time>2026-05-01T08:04:14.998Z</time></trkpt><trkpt lat="45.949381024665925" lon="9.210717650133747"><ele>217.0</ele><time>2026-05-01T08:04:15.998Z</time></trkpt><trkpt lat="45.949356878982606" lon="9.210856209871567"><ele>217.0</ele><time>2026-05-01T08:04:16.998Z</time></trkpt><trkpt lat="45.94931462263281" lon="9.210972717922218"><ele>217.0</ele><time>2026-05-01T08:04:17.998Z</time></trkpt><trkpt lat="45.949243874360334" lon="9.211108493097274"><ele>217.0</ele><time>2026-05-01T08:04:18.998Z</time></trkpt><trkpt lat="45.9492407207381" lon="9.211264431406558"><ele>217.0</ele><time>2026-05-01T08:04:19.998Z</time></trkpt><trkpt lat="45.9492622950498" lon="9.211408688219834"><ele>217.0</ele><time>2026-05-01T08:04:20.998Z</time></trkpt><trkpt lat="45.94932065344269" lon="9.211519754092096"><ele>224.5</ele><time>2026-05-01T08:04:21.998Z</time></trkpt><trkpt lat="45.94941565941038" lon="9.211583642943996"><ele>232.0</ele><time>2026-05-01T08:04:22.998Z</time></trkpt><trkpt lat="45.94954105203745" lon="9.211600497254262"><ele>239.5</ele><time>2026-05-01T08:04:23.998Z</time></trkpt><trkpt lat="45.94968334569705" lon="9.211602507762105"><ele>247.0</ele><time>2026-05-01T08:04:24.998Z</time></trkpt><trkpt lat="45.94983242741488" lon="9.211623938443356"><ele>247.0</ele><time>2026-05-01T08:04:25.998Z</time></trkpt><trkpt lat="45.94997795894355" lon="9.21164729164022"><ele>247.0</ele><time>2026-05-01T08:04:26.998Z</time></trkpt><trkpt lat="45.95011031548822" lon="9.21166666735185"><ele>247.0</ele><time>2026-05-01T08:04:27.998Z</time></trkpt><trkpt lat="45.95023983855688" lon="9.211699524898638"><ele>247.0</ele><time>2026-05-01T08:04:28.998Z</time></trkpt><trkpt lat="45.95035675599539" lon="9.21176640258264"><ele>243.5</ele><time>2026-05-01T08:04:29.998Z</time></trkpt><trkpt lat="45.95046882944071" lon="9.211836791837971"><ele>240.0</ele><time>2026-05-01T08:04:31Z</time></trkpt><trkpt lat="45.95060426926574" lon="9.211879191569416"><ele>236.5</ele><time>2026-05-01T08:04:32Z</time></trkpt><trkpt lat="45.950742541587" lon="9.211885899723557"><ele>233.0</ele><time>2026-05-01T08:04:33Z</time></trkpt><trkpt lat="45.950874946954904" lon="9.211916843430044"><ele>232.0</ele><time>2026-05-01T08:04:34Z</time></trkpt><trkpt lat="45.95094513289736" lon="9.212043335880129"><ele>231.0</ele><time>2026-05-01T08:04:35Z</time></trkpt><trkpt lat="45.95101913208808" lon="9.212186734410228"><ele>230.0</ele><time>2026-05-01T08:04:36Z</time></trkpt><trkpt lat="45.95110407588437" lon="9.21233805481401"><ele>229.0</ele><time>2026-05-01T08:04:37Z</time></trkpt><trkpt lat="45.951204245217404" lon="9.212518273065294"><ele>229.0</ele><time>2026-05-01T08:04:38Z</time></trkpt><trkpt lat="45.95130874015424" lon="9.212710100247026"><ele>229.0</ele><time>2026-05-01T08:04:39Z</time></trkpt><trkpt lat="45.95140386897756" lon="9.212889531154481"><ele>229.0</ele><time>2026-05-01T08:04:40Z</time></trkpt><trkpt lat="45.951498612427194" lon="9.213056220964013"><ele>225.5</ele><time>2026-05-01T08:04:41Z</time></trkpt><trkpt lat="45.951600308577426" lon="9.213207297026043"><ele>222.0</ele><time>2026-05-01T08:04:42Z</time></trkpt><trkpt lat="45.9517317270633" lon="9.213308307424253"><ele>218.5</ele><time>2026-05-01T08:04:43Z</time></trkpt><trkpt lat="45.95187560555977" lon="9.21337285524627"><ele>215.0</ele><time>2026-05-01T08:04:44Z</time></trkpt><trkpt lat="45.95199887484142" lon="9.213435171629074"><ele>215.0</ele><time>2026-05-01T08:04:45Z</time></trkpt><trkpt lat="45.952081776421934" lon="9.213567724575135"><ele>215.0</ele><time>2026-05-01T08:04:46Z</time></trkpt><trkpt lat="45.9521026843777" lon="9.213724810855426"><ele>215.0</ele><time>2026-05-01T08:04:47Z</time></trkpt><trkpt lat="45.95211460367482" lon="9.213881290172676"><ele>215.0</ele><time>2026-05-01T08:04:48Z</time></trkpt><trkpt lat="45.952158383403315" lon="9.214052965525003"><ele>215.0</ele><time>2026-05-01T08:04:49Z</time></trkpt><trkpt lat="45.95219441216806" lon="9.214210370721213"><ele>215.0</ele><time>2026-05-01T08:04:50Z</time></trkpt><trkpt lat="45.95225807934442" lon="9.214334458594166"><ele>215.0</ele><time>2026-05-01T08:04:51Z</time></trkpt><trkpt lat="45.95234688164289" lon="9.214434209135193"><ele>215.0</ele><time>2026-05-01T08:04:52Z</time></trkpt><trkpt lat="45.952446543522576" lon="9.21450341808024"><ele>215.0</ele><time>2026-05-01T08:04:53Z</time></trkpt><trkpt lat="45.95255269031988" lon="9.214591432342413"><ele>215.0</ele><time>2026-05-01T08:04:54Z</time></trkpt><trkpt lat="45.952612628943406" lon="9.214718074349324"><ele>215.0</ele><time>2026-05-01T08:04:55Z</time></trkpt><trkpt lat="45.95271579823025" lon="9.214827933048204"><ele>215.0</ele><time>2026-05-01T08:04:56Z</time></trkpt><trkpt lat="45.952807918359085" lon="9.214984696451255"><ele>215.0</ele><time>2026-05-01T08:04:57Z</time></trkpt><trkpt lat="45.95290896639499" lon="9.215155849219002"><ele>223.33333333333334</ele><time>2026-05-01T08:04:58Z</time></trkpt><trkpt lat="45.953023265989145" lon="9.215350967319466"><ele>231.66666666666669</ele><time>2026-05-01T08:04:59Z</time></trkpt><trkpt lat="45.95313088675038" lon="9.215581806324426"><ele>240.0</ele><time>2026-05-01T08:05:00Z</time></trkpt><trkpt lat="45.95328070541396" lon="9.21583861382741"><ele>233.66666666666669</ele><time>2026-05-01T08:05:01Z</time></trkpt><trkpt lat="45.95339817974738" lon="9.216052208009755"><ele>227.33333333333334</ele><time>2026-05-01T08:05:02Z</time></trkpt><trkpt lat="45.953516575396804" lon="9.216219494846909"><ele>221.0</ele><time>2026-05-01T08:05:03Z</time></trkpt><trkpt lat="45.95360454648267" lon="9.216384789601719"><ele>228.75</ele><time>2026-05-01T08:05:04Z</time></trkpt><trkpt lat="45.95363793510563" lon="9.216590369092904"><ele>236.5</ele><time>2026-05-01T08:05:05Z</time></trkpt><trkpt lat="45.953701938897844" lon="9.21674213095279"><ele>244.25</ele><time>2026-05-01T08:05:06Z</time></trkpt><trkpt lat="45.95377807538561" lon="9.21687436212643"><ele>252.0</ele><time>2026-05-01T08:05:07Z</time></trkpt><trkpt lat="45.95390807794113" lon="9.216948858924615"><ele>252.0</ele><time>2026-05-01T08:05:08Z</time></trkpt><trkpt lat="45.95406565358317" lon="9.216977695960226"><ele>252.0</ele><time>2026-05-01T08:05:09Z</time></trkpt><trkpt lat="45.95423325769128" lon="9.216951652337773"><ele>252.0</ele><time>2026-05-01T08:05:10Z</time></trkpt><trkpt lat="45.954378278893486" lon="9.216901717607252"><ele>249.0</ele><time>2026-05-01T08:05:11Z</time></trkpt><trkpt lat="45.95449600089817" lon="9.216879351011505"><ele>246.0</ele><time>2026-05-01T08:05:12Z</time></trkpt><trkpt lat="45.954596519845104" lon="9.216933679697911"><ele>243.0</ele><time>2026-05-01T08:05:13Z</time></trkpt><trkpt lat="45.95467186399207" lon="9.217076753088236"><ele>240.0</ele><time>2026-05-01T08:05:13.999Z</time></trkpt><trkpt lat="45.954822030675054" lon="9.217188884481219"><ele>240.0</ele><time>2026-05-01T08:05:14.999Z</time></trkpt><trkpt lat="45.95496173136728" lon="9.21726144508567"><ele>240.0</ele><time>2026-05-01T08:05:15.999Z</time></trkpt><trkpt lat="45.955065763717094" lon="9.217396874770431"><ele>240.0</ele><time>2026-05-01T08:05:16.999Z</time></trkpt><trkpt lat="45.95514361209516" lon="9.217579294775025"><ele>240.0</ele><time>2026-05-01T08:05:17.999Z</time></trkpt><trkpt lat="45.955252471168485" lon="9.217788255462205"><ele>238.0</ele><time>2026-05-01T08:05:18.999Z</time></trkpt><trkpt lat="45.955380168068245" lon="9.218026148411411"><ele>236.0</ele><time>2026-05-01T08:05:19.999Z</time></trkpt><trkpt lat="45.9554783784251" lon="9.218205526146935"><ele>234.0</ele><time>2026-05-01T08:05:20.999Z</time></trkpt><trkpt lat="45.955581015156426" lon="9.218382218552993"><ele>232.25</ele><time>2026-05-01T08:05:21.999Z</time></trkpt><trkpt lat="45.95567465727616" lon="9.218527495699256"><ele>230.5</ele><time>2026-05-01T08:05:22.999Z</time></trkpt><trkpt lat="45.955782362733395" lon="9.218627920761923"><ele>228.75</ele><time>2026-05-01T08:05:23.999Z</time></trkpt><trkpt lat="45.95591473883038" lon="9.21867104168279"><ele>227.0</ele><time>2026-05-01T08:05:24.999Z</time></trkpt><trkpt lat="45.95604789584919" lon="9.218700570112587"><ele>227.0</ele><time>2026-05-01T08:05:25.999Z</time></trkpt><trkpt lat="45.956157085010204" lon="9.218771458376962"><ele>227.0</ele><time>2026-05-01T08:05:26.999Z</time></trkpt><trkpt lat="45.9562325639744" lon="9.218895104118"><ele>227.0</ele><time>2026-05-01T08:05:27.999Z</time></trkpt><trkpt lat="45.95628988299023" lon="9.21906116188958"><ele>227.0</ele><time>2026-05-01T08:05:28.999Z</time></trkpt><trkpt lat="45.95634837744804" lon="9.219246565225054"><ele>233.66666666666669</ele><time>2026-05-01T08:05:29.999Z</time></trkpt><trkpt lat="45.95642685330151" lon="9.219448558766594"><ele>240.33333333333331</ele><time>2026-05-01T08:05:30.999Z</time></trkpt><trkpt lat="45.956519494873035" lon="9.219658150793899"><ele>247.0</ele><time>2026-05-01T08:05:31.999Z</time></trkpt><trkpt lat="45.95661287250268" lon="9.219868051390609"><ele>242.0</ele><time>2026-05-01T08:05:32.999Z</time></trkpt><trkpt lat="45.95671180884604" lon="9.220083194831167"><ele>237.0</ele><time>2026-05-01T08:05:33.999Z</time></trkpt><trkpt lat="45.95681658074479" lon="9.22028422968751"><ele>232.0</ele><time>2026-05-01T08:05:34.999Z</time></trkpt><trkpt lat="45.95693042770214" lon="9.22048097486989"><ele>237.33333333333331</ele><time>2026-05-01T08:05:35.999Z</time></trkpt><trkpt lat="45.95705027447763" lon="9.220655193757866"><ele>242.66666666666669</ele><time>2026-05-01T08:05:36.999Z</time></trkpt><trkpt lat="45.95717111455872" lon="9.220796315642497"><ele>248.0</ele><time>2026-05-01T08:05:37.999Z</time></trkpt><trkpt lat="45.95729665922884" lon="9.220948793106693"><ele>248.0</ele><time>2026-05-01T08:05:38.999Z</time></trkpt><trkpt lat="45.95746277911897" lon="9.221121988486"><ele>248.0</ele><time>2026-05-01T08:05:39.999Z</time></trkpt><trkpt lat="45.957539107836105" lon="9.221197422330329"><ele>248.0</ele><time>2026-05-01T08:05:40.999Z</time></trkpt><trkpt lat="45.957651050441655" lon="9.221344114384632"><ele>248.0</ele><time>2026-05-01T08:05:41.999Z</time></trkpt><trkpt lat="45.95774353693812" lon="9.221500100168583"><ele>249.25</ele><time>2026-05-01T08:05:42.999Z</time></trkpt><trkpt lat="45.957831669133746" lon="9.221637345699213"><ele>250.5</ele><time>2026-05-01T08:05:43.999Z</time></trkpt><trkpt lat="45.95795365169792" lon="9.221713817283703"><ele>251.75</ele><time>2026-05-01T08:05:44.999Z</time></trkpt><trkpt lat="45.958104270096136" lon="9.22174164738614"><ele>253.0</ele><time>2026-05-01T08:05:45.999Z</time></trkpt><trkpt lat="45.95826124979368" lon="9.221800557176675"><ele>251.33333333333331</ele><time>2026-05-01T08:05:46.999Z</time></trkpt><trkpt lat="45.95849104435984" lon="9.221831914531144"><ele>249.66666666666669</ele><time>2026-05-01T08:05:47.999Z</time></trkpt><trkpt lat="45.95868285786885" lon="9.22181122876579"><ele>248.0</ele><time>2026-05-01T08:05:48.999Z</time></trkpt><trkpt lat="45.95885040297029" lon="9.221833836774183"><ele>248.0</ele><time>2026-05-01T08:05:49.999Z</time></trkpt><trkpt lat="45.9590094369904" lon="9.221882395332948"><ele>248.0</ele><time>2026-05-01T08:05:50.999Z</time></trkpt><trkpt lat="45.95911146844666" lon="9.221969690010065"><ele>248.0</ele><time>2026-05-01T08:05:51.999Z</time></trkpt><trkpt lat="45.95923288943128" lon="9.2220258956616"><ele>248.0</ele><time>2026-05-01T08:05:52.999Z</time></trkpt><trkpt lat="45.959411367427194" lon="9.22199522868919"><ele>243.66666666666669</ele><time>2026-05-01T08:05:53.999Z</time></trkpt><trkpt lat="45.959579038125334" lon="9.221952363157953"><ele>239.33333333333331</ele><time>2026-05-01T08:05:54.999Z</time></trkpt><trkpt lat="45.9597315930751" lon="9.221925744909056"><ele>235.0</ele><time>2026-05-01T08:05:55.999Z</time></trkpt><trkpt lat="45.95986963677968" lon="9.22193583089299"><ele>235.0</ele><time>2026-05-01T08:05:56.999Z</time></trkpt><trkpt lat="45.959964166861795" lon="9.222032076413987"><ele>235.0</ele><time>2026-05-01T08:05:57.999Z</time></trkpt><trkpt lat="45.960039880351296" lon="9.22215580172058"><ele>235.0</ele><time>2026-05-01T08:05:58.999Z</time></trkpt><trkpt lat="45.96014761454921" lon="9.222303372255638"><ele>235.0</ele><time>2026-05-01T08:05:59.999Z</time></trkpt><trkpt lat="45.96026117727813" lon="9.222455122402065"><ele>236.0</ele><time>2026-05-01T08:06:00.999Z</time></trkpt><trkpt lat="45.9603882888978" lon="9.222594047568512"><ele>237.0</ele><time>2026-05-01T08:06:01.999Z</time></trkpt><trkpt lat="45.960488658867305" lon="9.222710480460265"><ele>238.0</ele><time>2026-05-01T08:06:02.999Z</time></trkpt><trkpt lat="45.96072258133533" lon="9.222841880486575"><ele>235.0</ele><time>2026-05-01T08:06:03.999Z</time></trkpt><trkpt lat="45.96089312884841" lon="9.222951114568373"><ele>232.0</ele><time>2026-05-01T08:06:04.999Z</time></trkpt><trkpt lat="45.96104529130967" lon="9.223074395361744"><ele>229.0</ele><time>2026-05-01T08:06:05.999Z</time></trkpt><trkpt lat="45.961173778022584" lon="9.223203276732452"><ele>229.0</ele><time>2026-05-01T08:06:06.999Z</time></trkpt><trkpt lat="45.961288735173554" lon="9.223326732533712"><ele>229.0</ele><time>2026-05-01T08:06:07.999Z</time></trkpt><trkpt lat="45.96137407394059" lon="9.223488810500214"><ele>229.0</ele><time>2026-05-01T08:06:08.999Z</time></trkpt><trkpt lat="45.96142007250851" lon="9.223627708262121"><ele>229.0</ele><time>2026-05-01T08:06:09.999Z</time></trkpt><trkpt lat="45.96142281804827" lon="9.223750825419426"><ele>229.0</ele><time>2026-05-01T08:06:10.999Z</time></trkpt><trkpt lat="45.96140561345653" lon="9.223865784217592"><ele>228.99999999999997</ele><time>2026-05-01T08:06:11.999Z</time></trkpt><trkpt lat="45.961388824376144" lon="9.224014577936863"><ele>228.99999999999997</ele><time>2026-05-01T08:06:12.999Z</time></trkpt><trkpt lat="45.961329822192845" lon="9.224153077882548"><ele>229.0</ele><time>2026-05-01T08:06:13.999Z</time></trkpt><trkpt lat="45.96127394083366" lon="9.22430079230446"><ele>229.0</ele><time>2026-05-01T08:06:14.998Z</time></trkpt><trkpt lat="45.961194812418526" lon="9.224441056967729"><ele>229.0</ele><time>2026-05-01T08:06:15.998Z</time></trkpt><trkpt lat="45.96111920597406" lon="9.224593212387836"><ele>229.0</ele><time>2026-05-01T08:06:16.998Z</time></trkpt><trkpt lat="45.96108061981289" lon="9.224770371895216"><ele>229.0</ele><time>2026-05-01T08:06:17.998Z</time></trkpt><trkpt lat="45.96104339435507" lon="9.224898781263342"><ele>229.0</ele><time>2026-05-01T08:06:18.998Z</time></trkpt><trkpt lat="45.96099628101451" lon="9.22503983226352"><ele>229.0</ele><time>2026-05-01T08:06:19.998Z</time></trkpt><trkpt lat="45.96103778432684" lon="9.22516751696248"><ele>228.99999999999997</ele><time>2026-05-01T08:06:20.998Z</time></trkpt><trkpt lat="45.961116627516894" lon="9.225286691251029"><ele>228.99999999999997</ele><time>2026-05-01T08:06:21.998Z</time></trkpt><trkpt lat="45.961211568519886" lon="9.225352044650709"><ele>229.0</ele><time>2026-05-01T08:06:22.998Z</time></trkpt><trkpt lat="45.96133266658289" lon="9.225387913008774"><ele>229.0</ele><time>2026-05-01T08:06:23.998Z</time></trkpt><trkpt lat="45.96144226057488" lon="9.225448696832583"><ele>229.0</ele><time>2026-05-01T08:06:24.998Z</time></trkpt><trkpt lat="45.961531043264884" lon="9.22555860242876"><ele>229.0</ele><time>2026-05-01T08:06:25.998Z</time></trkpt><trkpt lat="45.9615824637619" lon="9.225707832725615"><ele>229.0</ele><time>2026-05-01T08:06:26.998Z</time></trkpt><trkpt lat="45.96160105467771" lon="9.225913102288645"><ele>229.0</ele><time>2026-05-01T08:06:27.998Z</time></trkpt><trkpt lat="45.96160546274738" lon="9.226151049188907"><ele>233.25</ele><time>2026-05-01T08:06:28.998Z</time></trkpt><trkpt lat="45.96160251372227" lon="9.226338260689515"><ele>237.5</ele><time>2026-05-01T08:06:29.998Z</time></trkpt><trkpt lat="45.961557658125415" lon="9.22654120654025"><ele>241.75</ele><time>2026-05-01T08:06:30.998Z</time></trkpt><trkpt lat="45.96151789126563" lon="9.226729435434878"><ele>246.0</ele><time>2026-05-01T08:06:31.998Z</time></trkpt><trkpt lat="45.96149014697984" lon="9.226902877011831"><ele>247.0</ele><time>2026-05-01T08:06:32.998Z</time></trkpt><trkpt lat="45.9614858716745" lon="9.227044704203923"><ele>248.00000000000003</ele><time>2026-05-01T08:06:33.998Z</time></trkpt><trkpt lat="45.96151517648519" lon="9.227175839186819"><ele>249.00000000000003</ele><time>2026-05-01T08:06:34.998Z</time></trkpt><trkpt lat="45.9615924614435" lon="9.227294885654743"><ele>250.0</ele><time>2026-05-01T08:06:35.998Z</time></trkpt><trkpt lat="45.96169759857922" lon="9.227407134876733"><ele>251.0</ele><time>2026-05-01T08:06:37Z</time></trkpt><trkpt lat="45.96180667112314" lon="9.227515351089718"><ele>247.33333333333334</ele><time>2026-05-01T08:06:38Z</time></trkpt><trkpt lat="45.96190605927447" lon="9.227596151081869"><ele>243.66666666666669</ele><time>2026-05-01T08:06:39Z</time></trkpt><trkpt lat="45.96204050636698" lon="9.22766883539049"><ele>240.0</ele><time>2026-05-01T08:06:40Z</time></trkpt><trkpt lat="45.96226897985302" lon="9.227774104461067"><ele>240.0</ele><time>2026-05-01T08:06:41Z</time></trkpt><trkpt lat="45.96246970376372" lon="9.227870376249522"><ele>240.0</ele><time>2026-05-01T08:06:42Z</time></trkpt><trkpt lat="45.962656784666464" lon="9.227942125637753"><ele>240.0</ele><time>2026-05-01T08:06:43Z</time></trkpt><trkpt lat="45.962799362188264" lon="9.228044335923506"><ele>242.33333333333331</ele><time>2026-05-01T08:06:44Z</time></trkpt><trkpt lat="45.962983140955856" lon="9.228165125370733"><ele>244.66666666666666</ele><time>2026-05-01T08:06:45Z</time></trkpt><trkpt lat="45.963172866860205" lon="9.228296763542183"><ele>247.0</ele><time>2026-05-01T08:06:46Z</time></trkpt><trkpt lat="45.96335496608825" lon="9.228432839761417"><ele>238.66666666666666</ele><time>2026-05-01T08:06:47Z</time></trkpt><trkpt lat="45.96353265969642" lon="9.228553312438907"><ele>230.33333333333331</ele><time>2026-05-01T08:06:48Z</time></trkpt><trkpt lat="45.963690044265164" lon="9.228712817301785"><ele>222.0</ele><time>2026-05-01T08:06:49Z</time></trkpt><trkpt lat="45.96384938082453" lon="9.22891983373036"><ele>233.5</ele><time>2026-05-01T08:06:50Z</time></trkpt><trkpt lat="45.96401335899848" lon="9.229137069231953"><ele>245.0</ele><time>2026-05-01T08:06:51Z</time></trkpt><trkpt lat="45.96419375956995" lon="9.229340487003073"><ele>233.5</ele><time>2026-05-01T08:06:52Z</time></trkpt><trkpt lat="45.964371730261504" lon="9.22950762834937"><ele>222.0</ele><time>2026-05-01T08:06:53Z</time></trkpt><trkpt lat="45.96455845418472" lon="9.229719367401469"><ele>233.5</ele><time>2026-05-01T08:06:54Z</time></trkpt><trkpt lat="45.96472419077648" lon="9.229970118356562"><ele>245.0</ele><time>2026-05-01T08:06:55Z</time></trkpt><trkpt lat="45.964890196179326" lon="9.23022252350078"><ele>244.5</ele><time>2026-05-01T08:06:56Z</time></trkpt><trkpt lat="45.96507851660247" lon="9.230453701649717"><ele>244.0</ele><time>2026-05-01T08:06:57Z</time></trkpt><trkpt lat="45.96529949586866" lon="9.230649917308073"><ele>244.0</ele><time>2026-05-01T08:06:58Z</time></trkpt><trkpt lat="45.96553731220667" lon="9.230839784303312"><ele>244.0</ele><time>2026-05-01T08:06:59Z</time></trkpt><trkpt lat="45.96575352845139" lon="9.23102604095696"><ele>245.0</ele><time>2026-05-01T08:07:00Z</time></trkpt><trkpt lat="45.96594858161363" lon="9.231196103768447"><ele>246.0</ele><time>2026-05-01T08:07:01Z</time></trkpt><trkpt lat="45.966135978218595" lon="9.231360727130175"><ele>247.0</ele><time>2026-05-01T08:07:02Z</time></trkpt><trkpt lat="45.96630788093571" lon="9.231514276198855"><ele>247.0</ele><time>2026-05-01T08:07:03Z</time></trkpt><trkpt lat="45.966474848082214" lon="9.231665184647346"><ele>247.0</ele><time>2026-05-01T08:07:04Z</time></trkpt><trkpt lat="45.96661800340663" lon="9.23185424411392"><ele>247.0</ele><time>2026-05-01T08:07:05Z</time></trkpt><trkpt lat="45.96675466386678" lon="9.232086897792602"><ele>245.0</ele><time>2026-05-01T08:07:06Z</time></trkpt><trkpt lat="45.96690305109051" lon="9.23228678800682"><ele>243.0</ele><time>2026-05-01T08:07:07Z</time></trkpt><trkpt lat="45.96708194600871" lon="9.232498205818175"><ele>241.0</ele><time>2026-05-01T08:07:08Z</time></trkpt><trkpt lat="45.967287472968636" lon="9.232660643529895"><ele>241.0</ele><time>2026-05-01T08:07:09Z</time></trkpt><trkpt lat="45.96749856042232" lon="9.232799099058527"><ele>241.0</ele><time>2026-05-01T08:07:10Z</time></trkpt><trkpt lat="45.96769749735674" lon="9.232956934216086"><ele>242.5</ele><time>2026-05-01T08:07:11Z</time></trkpt><trkpt lat="45.96789468911277" lon="9.233156053935437"><ele>244.0</ele><time>2026-05-01T08:07:12Z</time></trkpt><trkpt lat="45.968079921881156" lon="9.233375093294404"><ele>244.0</ele><time>2026-05-01T08:07:13Z</time></trkpt><trkpt lat="45.96826156882314" lon="9.233596139130864"><ele>244.0</ele><time>2026-05-01T08:07:14Z</time></trkpt><trkpt lat="45.9684361467388" lon="9.233813704659905"><ele>246.66666666666666</ele><time>2026-05-01T08:07:15Z</time></trkpt><trkpt lat="45.968613520787706" lon="9.233988433355298"><ele>249.33333333333331</ele><time>2026-05-01T08:07:16Z</time></trkpt><trkpt lat="45.96876981258772" lon="9.234153557461072"><ele>252.0</ele><time>2026-05-01T08:07:17Z</time></trkpt><trkpt lat="45.9689152992188" lon="9.23430435072779"><ele>252.0</ele><time>2026-05-01T08:07:18Z</time></trkpt><trkpt lat="45.969044167394465" lon="9.234451864385303"><ele>252.0</ele><time>2026-05-01T08:07:19Z</time></trkpt><trkpt lat="45.969155703220395" lon="9.234583488076671"><ele>252.0</ele><time>2026-05-01T08:07:20Z</time></trkpt><trkpt lat="45.96925227203937" lon="9.234703767683264"><ele>252.0</ele><time>2026-05-01T08:07:21Z</time></trkpt><trkpt lat="45.96933420265355" lon="9.23480127814982"><ele>249.0</ele><time>2026-05-01T08:07:22Z</time></trkpt><trkpt lat="45.96940363977897" lon="9.234876787882849"><ele>246.0</ele><time>2026-05-01T08:07:23Z</time></trkpt><trkpt lat="45.96945857795214" lon="9.23494846656265"><ele>243.0</ele><time>2026-05-01T08:07:23.999Z</time></trkpt><trkpt lat="45.969522093411236" lon="9.235071689896097"><ele>240.0</ele><time>2026-05-01T08:07:25.999Z</time></trkpt><trkpt lat="45.96955421960815" lon="9.235198855390749"><ele>237.0</ele><time>2026-05-01T08:07:27.999Z</time></trkpt><trkpt lat="45.969567693189916" lon="9.235335561320014"><ele>237.0</ele><time>2026-05-01T08:07:29.999Z</time></trkpt><trkpt lat="45.96955422164034" lon="9.23545922501758"><ele>237.0</ele><time>2026-05-01T08:07:31.999Z</time></trkpt><trkpt lat="45.96953114843751" lon="9.235561546687393"><ele>237.0</ele><time>2026-05-01T08:07:33.999Z</time></trkpt><trkpt lat="45.96948996520091" lon="9.235690870042982"><ele>237.0</ele><time>2026-05-01T08:07:35.999Z</time></trkpt><trkpt lat="45.96943833540899" lon="9.235839640082599"><ele>237.0</ele><time>2026-05-01T08:07:37.999Z</time></trkpt><trkpt lat="45.96939530123972" lon="9.235974245989713"><ele>237.83333333333334</ele><time>2026-05-01T08:07:39.999Z</time></trkpt><trkpt lat="45.969365714915305" lon="9.236149205867097"><ele>238.66666666666669</ele><time>2026-05-01T08:07:41.999Z</time></trkpt><trkpt lat="45.96937169515039" lon="9.236260645352347"><ele>239.5</ele><time>2026-05-01T08:07:42.999Z</time></trkpt><trkpt lat="45.96939401748767" lon="9.236377507493454"><ele>240.33333333333334</ele><time>2026-05-01T08:07:43.999Z</time></trkpt><trkpt lat="45.969422331269556" lon="9.23649586036351"><ele>241.16666666666669</ele><time>2026-05-01T08:07:44.999Z</time></trkpt><trkpt lat="45.96945423764929" lon="9.236592058920444"><ele>242.0</ele><time>2026-05-01T08:07:45.999Z</time></trkpt><trkpt lat="45.9694865263527" lon="9.236685797169386"><ele>243.6</ele><time>2026-05-01T08:07:46.999Z</time></trkpt><trkpt lat="45.96951129454665" lon="9.236773497002623"><ele>245.2</ele><time>2026-05-01T08:07:47.999Z</time></trkpt><trkpt lat="45.969561687005815" lon="9.236945182181708"><ele>246.8</ele><time>2026-05-01T08:07:49.999Z</time></trkpt><trkpt lat="45.96960809130409" lon="9.237045280792655"><ele>248.4</ele><time>2026-05-01T08:07:50.999Z</time></trkpt><trkpt lat="45.96964643821327" lon="9.237161648724385"><ele>250.0</ele><time>2026-05-01T08:07:51.999Z</time></trkpt><trkpt lat="45.969689670166396" lon="9.237315523314145"><ele>253.33333333333331</ele><time>2026-05-01T08:07:52.999Z</time></trkpt><trkpt lat="45.9697381115784" lon="9.237482933368103"><ele>256.6666666666667</ele><time>2026-05-01T08:07:53.999Z</time></trkpt><trkpt lat="45.969797198978796" lon="9.237692802917747"><ele>260.0</ele><time>2026-05-01T08:07:54.999Z</time></trkpt><trkpt lat="45.96986125384883" lon="9.237923560698432"><ele>263.6666666666667</ele><time>2026-05-01T08:07:55.999Z</time></trkpt><trkpt lat="45.96993021269113" lon="9.238163471354623"><ele>267.3333333333333</ele><time>2026-05-01T08:07:56.999Z</time></trkpt><trkpt lat="45.970007704046104" lon="9.238410106087699"><ele>271.0</ele><time>2026-05-01T08:07:57.999Z</time></trkpt><trkpt lat="45.970093364159105" lon="9.238669485528927"><ele>263.0</ele><time>2026-05-01T08:07:58.999Z</time></trkpt><trkpt lat="45.97016279715658" lon="9.238930647135085"><ele>255.0</ele><time>2026-05-01T08:07:59.999Z</time></trkpt><trkpt lat="45.970219889448856" lon="9.23913265316301"><ele>247.0</ele><time>2026-05-01T08:08:00.999Z</time></trkpt><trkpt lat="45.970258059333396" lon="9.239315392395216"><ele>247.0</ele><time>2026-05-01T08:08:01.999Z</time></trkpt><trkpt lat="45.97029311435923" lon="9.239494443648905"><ele>247.0</ele><time>2026-05-01T08:08:02.999Z</time></trkpt><trkpt lat="45.9703168669619" lon="9.23966820985189"><ele>247.0</ele><time>2026-05-01T08:08:03.999Z</time></trkpt><trkpt lat="45.97035696562605" lon="9.239848693485479"><ele>247.0</ele><time>2026-05-01T08:08:04.999Z</time></trkpt><trkpt lat="45.970412357491526" lon="9.240005819466937"><ele>250.33333333333331</ele><time>2026-05-01T08:08:05.999Z</time></trkpt><trkpt lat="45.97050050943885" lon="9.240150474868418"><ele>253.66666666666669</ele><time>2026-05-01T08:08:06.999Z</time></trkpt><trkpt lat="45.97061303881262" lon="9.240307888646031"><ele>257.0</ele><time>2026-05-01T08:08:07.999Z</time></trkpt><trkpt lat="45.97073403904799" lon="9.24047736668608"><ele>252.66666666666669</ele><time>2026-05-01T08:08:08.999Z</time></trkpt><trkpt lat="45.97086733913668" lon="9.240656815372613"><ele>248.33333333333331</ele><time>2026-05-01T08:08:09.999Z</time></trkpt><trkpt lat="45.971003040036614" lon="9.240857167570029"><ele>244.0</ele><time>2026-05-01T08:08:10.999Z</time></trkpt><trkpt lat="45.97113393603913" lon="9.241067089063794"><ele>244.0</ele><time>2026-05-01T08:08:11.999Z</time></trkpt><trkpt lat="45.971249564975025" lon="9.241254741553217"><ele>244.0</ele><time>2026-05-01T08:08:12.999Z</time></trkpt><trkpt lat="45.971356442876" lon="9.24143955611183"><ele>244.0</ele><time>2026-05-01T08:08:13.999Z</time></trkpt><trkpt lat="45.97143567363631" lon="9.241637302042266"><ele>247.0</ele><time>2026-05-01T08:08:14.999Z</time></trkpt><trkpt lat="45.9715179683356" lon="9.241853078207779"><ele>250.0</ele><time>2026-05-01T08:08:15.999Z</time></trkpt><trkpt lat="45.97157481303255" lon="9.242074608906378"><ele>253.0</ele><time>2026-05-01T08:08:16.999Z</time></trkpt><trkpt lat="45.97162684596956" lon="9.242290422731383"><ele>254.33333333333331</ele><time>2026-05-01T08:08:17.999Z</time></trkpt><trkpt lat="45.97165855046576" lon="9.242518432810607"><ele>255.66666666666669</ele><time>2026-05-01T08:08:18.999Z</time></trkpt><trkpt lat="45.971664126317954" lon="9.242754896301523"><ele>257.0</ele><time>2026-05-01T08:08:19.999Z</time></trkpt><trkpt lat="45.97167325165337" lon="9.242959610105112"><ele>240.5</ele><time>2026-05-01T08:08:20.999Z</time></trkpt><trkpt lat="45.97171997194469" lon="9.24323557016679"><ele>224.0</ele><time>2026-05-01T08:08:21.999Z</time></trkpt><trkpt lat="45.97179373530826" lon="9.243586210591374"><ele>224.0</ele><time>2026-05-01T08:08:22.999Z</time></trkpt><trkpt lat="45.971850272913414" lon="9.243780897689657"><ele>224.0</ele><time>2026-05-01T08:08:24.999Z</time></trkpt><trkpt lat="45.97190327507632" lon="9.243940149111076"><ele>224.0</ele><time>2026-05-01T08:08:25.998Z</time></trkpt><trkpt lat="45.97194062291572" lon="9.244075881494785"><ele>224.0</ele><time>2026-05-01T08:08:26.998Z</time></trkpt><trkpt lat="45.9719690553326" lon="9.244217981373666"><ele>224.25</ele><time>2026-05-01T08:08:27.998Z</time></trkpt><trkpt lat="45.97198598076129" lon="9.2443844205203"><ele>224.5</ele><time>2026-05-01T08:08:28.998Z</time></trkpt><trkpt lat="45.97200556732745" lon="9.244582639854448"><ele>224.75</ele><time>2026-05-01T08:08:29.998Z</time></trkpt><trkpt lat="45.97199131034422" lon="9.244810739714833"><ele>225.0</ele><time>2026-05-01T08:08:30.998Z</time></trkpt><trkpt lat="45.97200802711851" lon="9.24505961415943"><ele>225.66666666666669</ele><time>2026-05-01T08:08:31.998Z</time></trkpt><trkpt lat="45.972036460230356" lon="9.245290433715107"><ele>226.33333333333334</ele><time>2026-05-01T08:08:32.998Z</time></trkpt><trkpt lat="45.972051438388675" lon="9.245506970338097"><ele>227.0</ele><time>2026-05-01T08:08:33.998Z</time></trkpt><trkpt lat="45.97205761035162" lon="9.245702321839504"><ele>228.75</ele><time>2026-05-01T08:08:34.998Z</time></trkpt><trkpt lat="45.972070552007075" lon="9.245873986061683"><ele>230.5</ele><time>2026-05-01T08:08:35.998Z</time></trkpt><trkpt lat="45.97210837224222" lon="9.246034218894469"><ele>232.25</ele><time>2026-05-01T08:08:36.998Z</time></trkpt><trkpt lat="45.97219238714719" lon="9.246187542995356"><ele>234.0</ele><time>2026-05-01T08:08:37.998Z</time></trkpt><trkpt lat="45.9723169117739" lon="9.24627899462038"><ele>234.0</ele><time>2026-05-01T08:08:38.998Z</time></trkpt><trkpt lat="45.97245954848176" lon="9.246294702919792"><ele>234.0</ele><time>2026-05-01T08:08:39.998Z</time></trkpt><trkpt lat="45.97259863001691" lon="9.24623299501163"><ele>234.0</ele><time>2026-05-01T08:08:40.998Z</time></trkpt><trkpt lat="45.972729893028706" lon="9.246126971061324"><ele>234.0</ele><time>2026-05-01T08:08:41.998Z</time></trkpt><trkpt lat="45.97285476741167" lon="9.24607202081934"><ele>231.5</ele><time>2026-05-01T08:08:43Z</time></trkpt><trkpt lat="45.97296169006891" lon="9.246062952343518"><ele>229.0</ele><time>2026-05-01T08:08:44Z</time></trkpt><trkpt lat="45.973064779286204" lon="9.246125729505085"><ele>226.5</ele><time>2026-05-01T08:08:45Z</time></trkpt><trkpt lat="45.97313326954358" lon="9.246271537816305"><ele>224.0</ele><time>2026-05-01T08:08:46Z</time></trkpt><trkpt lat="45.973212915350935" lon="9.246418604158764"><ele>224.0</ele><time>2026-05-01T08:08:47Z</time></trkpt><trkpt lat="45.97330027329329" lon="9.246561506336567"><ele>224.0</ele><time>2026-05-01T08:08:48Z</time></trkpt><trkpt lat="45.9733827192335" lon="9.246688546824329"><ele>224.0</ele><time>2026-05-01T08:08:49Z</time></trkpt><trkpt lat="45.97347071389138" lon="9.246788024837247"><ele>224.0</ele><time>2026-05-01T08:08:50Z</time></trkpt><trkpt lat="45.973590777187646" lon="9.246808664847181"><ele>224.0</ele><time>2026-05-01T08:08:51Z</time></trkpt><trkpt lat="45.97371626791459" lon="9.246752403985155"><ele>224.0</ele><time>2026-05-01T08:08:52Z</time></trkpt><trkpt lat="45.973817871154395" lon="9.246637748676312"><ele>224.0</ele><time>2026-05-01T08:08:53Z</time></trkpt><trkpt lat="45.97391692314568" lon="9.246537759054842"><ele>224.0</ele><time>2026-05-01T08:08:54Z</time></trkpt><trkpt lat="45.974031328236244" lon="9.246507662208007"><ele>224.0</ele><time>2026-05-01T08:08:55Z</time></trkpt><trkpt lat="45.97416529847434" lon="9.246540469191432"><ele>224.0</ele><time>2026-05-01T08:08:56Z</time></trkpt><trkpt lat="45.97428880548784" lon="9.246620098960962"><ele>224.0</ele><time>2026-05-01T08:08:57Z</time></trkpt><trkpt lat="45.97438658695656" lon="9.24674670031951"><ele>224.0</ele><time>2026-05-01T08:08:58Z</time></trkpt><trkpt lat="45.97445861068793" lon="9.246893904710175"><ele>221.75</ele><time>2026-05-01T08:08:59Z</time></trkpt><trkpt lat="45.97451240858603" lon="9.247053063370748"><ele>219.5</ele><time>2026-05-01T08:09:00Z</time></trkpt><trkpt lat="45.97452171026375" lon="9.247246901595465"><ele>217.25</ele><time>2026-05-01T08:09:01Z</time></trkpt><trkpt lat="45.97455222118248" lon="9.247454093005638"><ele>215.0</ele><time>2026-05-01T08:09:02Z</time></trkpt><trkpt lat="45.97458126481806" lon="9.247644181765919"><ele>215.0</ele><time>2026-05-01T08:09:03Z</time></trkpt><trkpt lat="45.97464144002674" lon="9.24780902581364"><ele>215.0</ele><time>2026-05-01T08:09:04Z</time></trkpt><trkpt lat="45.97474772619962" lon="9.247929279889613"><ele>215.0</ele><time>2026-05-01T08:09:05Z</time></trkpt><trkpt lat="45.97486745212915" lon="9.2480159414467"><ele>215.0</ele><time>2026-05-01T08:09:06Z</time></trkpt><trkpt lat="45.97500631534243" lon="9.2480572978156"><ele>214.33333333333334</ele><time>2026-05-01T08:09:07Z</time></trkpt><trkpt lat="45.97515842827242" lon="9.248068780466074"><ele>213.66666666666669</ele><time>2026-05-01T08:09:08Z</time></trkpt><trkpt lat="45.97531442070745" lon="9.24810084363767"><ele>213.0</ele><time>2026-05-01T08:09:09Z</time></trkpt><trkpt lat="45.97545426052533" lon="9.248122618930124"><ele>212.8</ele><time>2026-05-01T08:09:10Z</time></trkpt><trkpt lat="45.975567855131985" lon="9.248159700255629"><ele>212.60000000000002</ele><time>2026-05-01T08:09:11Z</time></trkpt><trkpt lat="45.975660661286604" lon="9.248243309244737"><ele>212.39999999999998</ele><time>2026-05-01T08:09:12Z</time></trkpt><trkpt lat="45.975713281619605" lon="9.248346412641185"><ele>212.2</ele><time>2026-05-01T08:09:13Z</time></trkpt><trkpt lat="45.97572361253881" lon="9.248484912357235"><ele>212.0</ele><time>2026-05-01T08:09:14Z</time></trkpt><trkpt lat="45.97572299769172" lon="9.248640170651948"><ele>212.0</ele><time>2026-05-01T08:09:15Z</time></trkpt><trkpt lat="45.975749819385605" lon="9.248791373823703"><ele>212.0</ele><time>2026-05-01T08:09:16Z</time></trkpt><trkpt lat="45.9757785536911" lon="9.24895322814401"><ele>212.0</ele><time>2026-05-01T08:09:17Z</time></trkpt><trkpt lat="45.975803147643674" lon="9.249120727666263"><ele>212.0</ele><time>2026-05-01T08:09:18Z</time></trkpt><trkpt lat="45.97583277680283" lon="9.249296883707746"><ele>212.0</ele><time>2026-05-01T08:09:19Z</time></trkpt><trkpt lat="45.97587611576394" lon="9.249460814359324"><ele>212.0</ele><time>2026-05-01T08:09:20Z</time></trkpt><trkpt lat="45.97591910889694" lon="9.249616722801244"><ele>212.0</ele><time>2026-05-01T08:09:21Z</time></trkpt><trkpt lat="45.975960683920526" lon="9.249773137240023"><ele>212.0</ele><time>2026-05-01T08:09:22Z</time></trkpt><trkpt lat="45.976000889755454" lon="9.24993303032454"><ele>212.0</ele><time>2026-05-01T08:09:23Z</time></trkpt><trkpt lat="45.97604603820276" lon="9.25009516746703"><ele>212.0</ele><time>2026-05-01T08:09:24Z</time></trkpt><trkpt lat="45.976091263504486" lon="9.25026011717845"><ele>212.0</ele><time>2026-05-01T08:09:25Z</time></trkpt><trkpt lat="45.97613851182486" lon="9.250437928042787"><ele>212.0</ele><time>2026-05-01T08:09:26Z</time></trkpt><trkpt lat="45.97618328650965" lon="9.250617859473708"><ele>213.25</ele><time>2026-05-01T08:09:26.999Z</time></trkpt><trkpt lat="45.97623131892948" lon="9.250797949389858"><ele>214.5</ele><time>2026-05-01T08:09:27.999Z</time></trkpt><trkpt lat="45.97628014724893" lon="9.25098208963326"><ele>215.75</ele><time>2026-05-01T08:09:28.999Z</time></trkpt><trkpt lat="45.97633438886569" lon="9.251167318111337"><ele>217.0</ele><time>2026-05-01T08:09:29.999Z</time></trkpt><trkpt lat="45.97639139075466" lon="9.251347302204339"><ele>221.0</ele><time>2026-05-01T08:09:30.999Z</time></trkpt><trkpt lat="45.9764361456019" lon="9.25156611649377"><ele>225.0</ele><time>2026-05-01T08:09:31.999Z</time></trkpt><trkpt lat="45.976502887564855" lon="9.251797539445011"><ele>229.0</ele><time>2026-05-01T08:09:32.999Z</time></trkpt><trkpt lat="45.97657648511693" lon="9.252108546129255"><ele>232.0</ele><time>2026-05-01T08:09:33.999Z</time></trkpt><trkpt lat="45.976650897472666" lon="9.252398138566056"><ele>235.0</ele><time>2026-05-01T08:09:34.999Z</time></trkpt><trkpt lat="45.97669132629816" lon="9.252540343114655"><ele>238.0</ele><time>2026-05-01T08:09:35.999Z</time></trkpt><trkpt lat="45.976745360278336" lon="9.252768924802695"><ele>234.75</ele><time>2026-05-01T08:09:36.999Z</time></trkpt><trkpt lat="45.97677682623943" lon="9.252963096950072"><ele>231.5</ele><time>2026-05-01T08:09:37.999Z</time></trkpt><trkpt lat="45.976851965851864" lon="9.25316701112989"><ele>228.25</ele><time>2026-05-01T08:09:38.999Z</time></trkpt><trkpt lat="45.97691194324614" lon="9.253336016558476"><ele>225.0</ele><time>2026-05-01T08:09:39.999Z</time></trkpt><trkpt lat="45.97701400770955" lon="9.253481949396175"><ele>225.0</ele><time>2026-05-01T08:09:40.999Z</time></trkpt><trkpt lat="45.97712916686606" lon="9.253612351182731"><ele>225.0</ele><time>2026-05-01T08:09:41.999Z</time></trkpt><trkpt lat="45.97725905821916" lon="9.25374078610347"><ele>225.0</ele><time>2026-05-01T08:09:42.999Z</time></trkpt><trkpt lat="45.97738953094765" lon="9.25389555055518"><ele>224.0</ele><time>2026-05-01T08:09:43.999Z</time></trkpt><trkpt lat="45.977499636630704" lon="9.254037709811678"><ele>223.0</ele><time>2026-05-01T08:09:44.999Z</time></trkpt><trkpt lat="45.9776075434169" lon="9.254159058422477"><ele>222.0</ele><time>2026-05-01T08:09:45.999Z</time></trkpt><trkpt lat="45.977714083252955" lon="9.254255108397789"><ele>221.0</ele><time>2026-05-01T08:09:46.999Z</time></trkpt><trkpt lat="45.97784296969027" lon="9.254332734823837"><ele>221.0</ele><time>2026-05-01T08:09:47.999Z</time></trkpt><trkpt lat="45.97799633965406" lon="9.25437164212141"><ele>221.0</ele><time>2026-05-01T08:09:48.999Z</time></trkpt><trkpt lat="45.9781583985781" lon="9.254377660871882"><ele>221.0</ele><time>2026-05-01T08:09:49.999Z</time></trkpt><trkpt lat="45.97832650877781" lon="9.254380158351282"><ele>223.33333333333334</ele><time>2026-05-01T08:09:50.999Z</time></trkpt><trkpt lat="45.97848967481863" lon="9.254393881418721"><ele>225.66666666666669</ele><time>2026-05-01T08:09:51.999Z</time></trkpt><trkpt lat="45.978644276034615" lon="9.254404301764893"><ele>228.0</ele><time>2026-05-01T08:09:52.999Z</time></trkpt><trkpt lat="45.97877856955492" lon="9.254417152463718"><ele>228.0</ele><time>2026-05-01T08:09:53.999Z</time></trkpt><trkpt lat="45.978903480607684" lon="9.254438390990229"><ele>228.0</ele><time>2026-05-01T08:09:54.999Z</time></trkpt><trkpt lat="45.979039966383255" lon="9.254461286551338"><ele>228.0</ele><time>2026-05-01T08:09:55.999Z</time></trkpt><trkpt lat="45.97917730381058" lon="9.254480128967018"><ele>228.0</ele><time>2026-05-01T08:09:56.999Z</time></trkpt><trkpt lat="45.97931545619714" lon="9.254485438872223"><ele>225.8</ele><time>2026-05-01T08:09:57.999Z</time></trkpt><trkpt lat="45.979434838927816" lon="9.254484373285687"><ele>223.60000000000002</ele><time>2026-05-01T08:09:58.999Z</time></trkpt><trkpt lat="45.979542161587126" lon="9.254492566244918"><ele>221.39999999999998</ele><time>2026-05-01T08:09:59.999Z</time></trkpt><trkpt lat="45.979659357575436" lon="9.254496798145624"><ele>219.2</ele><time>2026-05-01T08:10:00.999Z</time></trkpt><trkpt lat="45.9797516365694" lon="9.254543869480813"><ele>217.0</ele><time>2026-05-01T08:10:01.999Z</time></trkpt><trkpt lat="45.97985087313988" lon="9.254604703475435"><ele>217.0</ele><time>2026-05-01T08:10:02.999Z</time></trkpt><trkpt lat="45.979957234103196" lon="9.254653791230915"><ele>217.0</ele><time>2026-05-01T08:10:03.999Z</time></trkpt><trkpt lat="45.980068949453134" lon="9.254702652273037"><ele>217.0</ele><time>2026-05-01T08:10:04.999Z</time></trkpt><trkpt lat="45.980175822924146" lon="9.254757136004287"><ele>217.0</ele><time>2026-05-01T08:10:05.999Z</time></trkpt><trkpt lat="45.980272139437474" lon="9.254835172967686"><ele>219.6</ele><time>2026-05-01T08:10:06.999Z</time></trkpt><trkpt lat="45.980366139572226" lon="9.254903296632191"><ele>222.2</ele><time>2026-05-01T08:10:07.999Z</time></trkpt><trkpt lat="45.980451504332365" lon="9.254968062387732"><ele>224.8</ele><time>2026-05-01T08:10:08.999Z</time></trkpt><trkpt lat="45.98054788337503" lon="9.255021452722588"><ele>227.4</ele><time>2026-05-01T08:10:09.999Z</time></trkpt><trkpt lat="45.98063550934834" lon="9.255079582530463"><ele>230.0</ele><time>2026-05-01T08:10:10.999Z</time></trkpt><trkpt lat="45.98071414562372" lon="9.255142394376184"><ele>230.00000000000003</ele><time>2026-05-01T08:10:11.999Z</time></trkpt><trkpt lat="45.980803783539756" lon="9.25519379708173"><ele>230.0</ele><time>2026-05-01T08:10:12.999Z</time></trkpt><trkpt lat="45.98088206366282" lon="9.255251507749907"><ele>230.0</ele><time>2026-05-01T08:10:13.999Z</time></trkpt><trkpt lat="45.9809551551531" lon="9.255306934198673"><ele>230.0</ele><time>2026-05-01T08:10:14.999Z</time></trkpt><trkpt lat="45.98102847996267" lon="9.255357372038146"><ele>230.00000000000003</ele><time>2026-05-01T08:10:15.999Z</time></trkpt><trkpt lat="45.981102955252624" lon="9.255409770853463"><ele>230.0</ele><time>2026-05-01T08:10:16.999Z</time></trkpt><trkpt lat="45.9811786600222" lon="9.255464851936562"><ele>230.00000000000003</ele><time>2026-05-01T08:10:17.999Z</time></trkpt><trkpt lat="45.98125496327465" lon="9.255515852725713"><ele>230.0</ele><time>2026-05-01T08:10:18.999Z</time></trkpt><trkpt lat="45.9813255561241" lon="9.255569080862443"><ele>230.0</ele><time>2026-05-01T08:10:19.999Z</time></trkpt><trkpt lat="45.981394974809916" lon="9.255616863068575"><ele>230.0</ele><time>2026-05-01T08:10:20.999Z</time></trkpt><trkpt lat="45.9814554325297" lon="9.255667825435728"><ele>230.00000000000003</ele><time>2026-05-01T08:10:21.999Z</time></trkpt><trkpt lat="45.981509618290374" lon="9.255732090914597"><ele>230.0</ele><time>2026-05-01T08:10:22.999Z</time></trkpt><trkpt lat="45.98156110738951" lon="9.255802800390573"><ele>230.00000000000003</ele><time>2026-05-01T08:10:23.999Z</time></trkpt><trkpt lat="45.98161543950503" lon="9.255862475160466"><ele>230.0</ele><time>2026-05-01T08:10:24.999Z</time></trkpt><trkpt lat="45.98167123483753" lon="9.25597327460822"><ele>230.0</ele><time>2026-05-01T08:10:25.999Z</time></trkpt><trkpt lat="45.98174550784785" lon="9.256059163174537"><ele>230.0</ele><time>2026-05-01T08:10:26.999Z</time></trkpt><trkpt lat="45.98182174292199" lon="9.256126187780906"><ele>230.00000000000003</ele><time>2026-05-01T08:10:27.999Z</time></trkpt><trkpt lat="45.981906889624995" lon="9.256193254793464"><ele>230.0</ele><time>2026-05-01T08:10:28.998Z</time></trkpt><trkpt lat="45.98199698268456" lon="9.256257511037594"><ele>225.33333333333334</ele><time>2026-05-01T08:10:29.998Z</time></trkpt><trkpt lat="45.98208823836209" lon="9.256303331037591"><ele>220.66666666666669</ele><time>2026-05-01T08:10:30.998Z</time></trkpt><trkpt lat="45.98217904236788" lon="9.256318573526523"><ele>216.0</ele><time>2026-05-01T08:10:31.998Z</time></trkpt><trkpt lat="45.982254344091444" lon="9.256337969993973"><ele>211.33333333333331</ele><time>2026-05-01T08:10:32.998Z</time></trkpt><trkpt lat="45.98232646469856" lon="9.25635318413027"><ele>206.66666666666666</ele><time>2026-05-01T08:10:33.998Z</time></trkpt><trkpt lat="45.982420497327496" lon="9.256375290570183"><ele>202.0</ele><time>2026-05-01T08:10:34.998Z</time></trkpt><trkpt lat="45.98248003414198" lon="9.256408280127442"><ele>201.6</ele><time>2026-05-01T08:10:35.998Z</time></trkpt><trkpt lat="45.98258297770187" lon="9.256505279628499"><ele>201.2</ele><time>2026-05-01T08:10:37.998Z</time></trkpt><trkpt lat="45.98267273653628" lon="9.25661263003342"><ele>200.8</ele><time>2026-05-01T08:10:39.998Z</time></trkpt><trkpt lat="45.98272787535538" lon="9.256669131348982"><ele>200.4</ele><time>2026-05-01T08:10:40.998Z</time></trkpt><trkpt lat="45.98278811890128" lon="9.256738370235517"><ele>200.0</ele><time>2026-05-01T08:10:41.998Z</time></trkpt><trkpt lat="45.982846374577726" lon="9.256804979852339"><ele>200.00000000000003</ele><time>2026-05-01T08:10:42.998Z</time></trkpt><trkpt lat="45.98289726859453" lon="9.256864535384283"><ele>200.0</ele><time>2026-05-01T08:10:43.998Z</time></trkpt><trkpt lat="45.982947535804776" lon="9.256938553293192"><ele>200.0</ele><time>2026-05-01T08:10:45.998Z</time></trkpt><trkpt lat="45.982996015299015" lon="9.25701040711947"><ele>200.0</ele><time>2026-05-01T08:10:47.998Z</time></trkpt><trkpt lat="45.98304745825998" lon="9.257091887699156"><ele>200.00000000000003</ele><time>2026-05-01T08:10:50Z</time></trkpt><trkpt lat="45.98312122371714" lon="9.257182361494543"><ele>200.0</ele><time>2026-05-01T08:10:52Z</time></trkpt><trkpt lat="45.983209816362184" lon="9.257301359583016"><ele>200.16666666666669</ele><time>2026-05-01T08:10:54Z</time></trkpt><trkpt lat="45.983257295774855" lon="9.257373040161541"><ele>200.33333333333334</ele><time>2026-05-01T08:10:55Z</time></trkpt><trkpt lat="45.983308685828284" lon="9.257436760468519"><ele>200.5</ele><time>2026-05-01T08:10:56Z</time></trkpt><trkpt lat="45.98335557610384" lon="9.257504543190025"><ele>200.66666666666669</ele><time>2026-05-01T08:10:57Z</time></trkpt><trkpt lat="45.98343727151583" lon="9.257612106934747"><ele>200.83333333333334</ele><time>2026-05-01T08:10:59Z</time></trkpt><trkpt lat="45.983521887741034" lon="9.257728582486212"><ele>201.0</ele><time>2026-05-01T08:11:01Z</time></trkpt><trkpt lat="45.98356486181867" lon="9.257798635327791"><ele>201.0</ele><time>2026-05-01T08:11:02Z</time></trkpt><trkpt lat="45.98360680720551" lon="9.257875604227333"><ele>201.0</ele><time>2026-05-01T08:11:03Z</time></trkpt><trkpt lat="45.98365681809892" lon="9.257945884229919"><ele>201.0</ele><time>2026-05-01T08:11:04Z</time></trkpt><trkpt lat="45.983708195320375" lon="9.25802535371076"><ele>201.0</ele><time>2026-05-01T08:11:05Z</time></trkpt><trkpt lat="45.98377310588346" lon="9.258098663136751"><ele>201.0</ele><time>2026-05-01T08:11:06Z</time></trkpt><trkpt lat="45.98383721225867" lon="9.258156244834899"><ele>201.0</ele><time>2026-05-01T08:11:07Z</time></trkpt><trkpt lat="45.9839098316854" lon="9.258212308917997"><ele>200.8</ele><time>2026-05-01T08:11:08Z</time></trkpt><trkpt lat="45.98399652264363" lon="9.258261217870965"><ele>200.60000000000002</ele><time>2026-05-01T08:11:09Z</time></trkpt><trkpt lat="45.98407214352761" lon="9.258298302576957"><ele>200.4</ele><time>2026-05-01T08:11:10Z</time></trkpt><trkpt lat="45.98414047380642" lon="9.25832472216095"><ele>200.2</ele><time>2026-05-01T08:11:11Z</time></trkpt><trkpt lat="45.984246841541896" lon="9.258397869505732"><ele>200.0</ele><time>2026-05-01T08:11:13Z</time></trkpt><trkpt lat="45.98435397949628" lon="9.258459960893484"><ele>200.0</ele><time>2026-05-01T08:11:15Z</time></trkpt><trkpt lat="45.984458053887906" lon="9.258544752578839"><ele>200.0</ele><time>2026-05-01T08:11:17Z</time></trkpt><trkpt lat="45.98454091749475" lon="9.258641464844533"><ele>200.0</ele><time>2026-05-01T08:11:19Z</time></trkpt><trkpt lat="45.98460669242776" lon="9.258756073988337"><ele>200.0</ele><time>2026-05-01T08:11:21Z</time></trkpt><trkpt lat="45.98467401483741" lon="9.258870577323636"><ele>200.0</ele><time>2026-05-01T08:11:23Z</time></trkpt><trkpt lat="45.98475471408489" lon="9.258977884139048"><ele>199.8</ele><time>2026-05-01T08:11:25Z</time></trkpt><trkpt lat="45.98483247893885" lon="9.259082683752622"><ele>199.6</ele><time>2026-05-01T08:11:27Z</time></trkpt><trkpt lat="45.984894149218164" lon="9.259185612653212"><ele>199.39999999999998</ele><time>2026-05-01T08:11:29Z</time></trkpt><trkpt lat="45.98494940064391" lon="9.25926650233507"><ele>199.2</ele><time>2026-05-01T08:11:31Z</time></trkpt><trkpt lat="45.98500203036672" lon="9.25937063570858"><ele>199.0</ele><time>2026-05-01T08:11:32.999Z</time></trkpt><trkpt lat="45.98507489603525" lon="9.259487273700737"><ele>198.99999999999997</ele><time>2026-05-01T08:11:34.999Z</time></trkpt><trkpt lat="45.98514921358898" lon="9.25958816369443"><ele>199.0</ele><time>2026-05-01T08:11:36.999Z</time></trkpt><trkpt lat="45.98521469698871" lon="9.259690544101264"><ele>199.0</ele><time>2026-05-01T08:11:38.999Z</time></trkpt><trkpt lat="45.98527966919365" lon="9.259770856381861"><ele>199.0</ele><time>2026-05-01T08:11:40.999Z</time></trkpt><trkpt lat="45.985327258321554" lon="9.259840376211569"><ele>198.99999999999997</ele><time>2026-05-01T08:11:42.999Z</time></trkpt><trkpt lat="45.98535943081078" lon="9.259946211286792"><ele>199.0</ele><time>2026-05-01T08:11:44.999Z</time></trkpt><trkpt lat="45.98536276869525" lon="9.260058397802885"><ele>199.2</ele><time>2026-05-01T08:11:46.999Z</time></trkpt><trkpt lat="45.985298237680105" lon="9.260162631392367"><ele>199.39999999999998</ele><time>2026-05-01T08:11:48.999Z</time></trkpt><trkpt lat="45.98522675092149" lon="9.260259921378397"><ele>199.6</ele><time>2026-05-01T08:11:50.999Z</time></trkpt><trkpt lat="45.98520430049593" lon="9.260377468474621"><ele>199.8</ele><time>2026-05-01T08:11:52.999Z</time></trkpt><trkpt lat="45.98525463406755" lon="9.260506176144146"><ele>200.0</ele><time>2026-05-01T08:11:54.999Z</time></trkpt><trkpt lat="45.9853147974983" lon="9.260629859414"><ele>201.33333333333334</ele><time>2026-05-01T08:11:56.999Z</time></trkpt><trkpt lat="45.98525659386987" lon="9.260762408055932"><ele>202.66666666666669</ele><time>2026-05-01T08:11:58.999Z</time></trkpt><trkpt lat="45.98518839672386" lon="9.260762119738308"><ele>204.0</ele><time>2026-05-01T08:11:59.999Z</time></trkpt><trkpt lat="45.985121193599575" lon="9.260721315682014"><ele>205.33333333333331</ele><time>2026-05-01T08:12:00.999Z</time></trkpt><trkpt lat="45.985060763030916" lon="9.260653463587651"><ele>206.66666666666666</ele><time>2026-05-01T08:12:01.999Z</time></trkpt><trkpt lat="45.98499839387932" lon="9.260599319391517"><ele>208.0</ele><time>2026-05-01T08:12:02.999Z</time></trkpt><trkpt lat="45.984940791557904" lon="9.260547036225372"><ele>208.66666666666666</ele><time>2026-05-01T08:12:03.999Z</time></trkpt><trkpt lat="45.98487484512746" lon="9.260489463156805"><ele>209.33333333333331</ele><time>2026-05-01T08:12:04.999Z</time></trkpt><trkpt lat="45.98481133425671" lon="9.260432633538704"><ele>210.0</ele><time>2026-05-01T08:12:05.999Z</time></trkpt><trkpt lat="45.984758772834965" lon="9.260362787353444"><ele>210.66666666666669</ele><time>2026-05-01T08:12:06.999Z</time></trkpt><trkpt lat="45.984702119593415" lon="9.260296720211391"><ele>211.33333333333334</ele><time>2026-05-01T08:12:07.999Z</time></trkpt><trkpt lat="45.984630640214036" lon="9.260203402785866"><ele>212.0</ele><time>2026-05-01T08:12:09.999Z</time></trkpt><trkpt lat="45.98457751354889" lon="9.26012154375558"><ele>212.0</ele><time>2026-05-01T08:12:11.999Z</time></trkpt><trkpt lat="45.984516167916354" lon="9.26002062064304"><ele>212.0</ele><time>2026-05-01T08:12:13.999Z</time></trkpt><trkpt lat="45.98444860333383" lon="9.259944022626483"><ele>212.0</ele><time>2026-05-01T08:12:15.999Z</time></trkpt><trkpt lat="45.984364170421316" lon="9.259980311239575"><ele>212.0</ele><time>2026-05-01T08:12:17.999Z</time></trkpt><trkpt lat="45.98433263863394" lon="9.26011871133181"><ele>212.0</ele><time>2026-05-01T08:12:19.999Z</time></trkpt><trkpt lat="45.98433247200175" lon="9.260286213408905"><ele>212.0</ele><time>2026-05-01T08:12:21.999Z</time></trkpt><trkpt lat="45.98432543315114" lon="9.260440401288378"><ele>212.0</ele><time>2026-05-01T08:12:23.999Z</time></trkpt><trkpt lat="45.98434237869016" lon="9.260564543991864"><ele>212.0</ele><time>2026-05-01T08:12:25.999Z</time></trkpt><trkpt lat="45.98435620649774" lon="9.260701752696155"><ele>212.0</ele><time>2026-05-01T08:12:27.999Z</time></trkpt><trkpt lat="45.98439052929624" lon="9.26083843897626"><ele>212.0</ele><time>2026-05-01T08:12:29.999Z</time></trkpt><trkpt lat="45.98441543180301" lon="9.2609540461439"><ele>213.39999999999998</ele><time>2026-05-01T08:12:31.999Z</time></trkpt><trkpt lat="45.98444831052608" lon="9.26105889740681"><ele>214.79999999999998</ele><time>2026-05-01T08:12:33.999Z</time></trkpt><trkpt lat="45.984503459761235" lon="9.261212765517204"><ele>216.2</ele><time>2026-05-01T08:12:35.999Z</time></trkpt><trkpt lat="45.98456439483932" lon="9.261350673648378"><ele>217.6</ele><time>2026-05-01T08:12:37.998Z</time></trkpt><trkpt lat="45.9846416675679" lon="9.261479046048665"><ele>219.0</ele><time>2026-05-01T08:12:39.998Z</time></trkpt><trkpt lat="45.984718231410014" lon="9.261595184502214"><ele>219.6</ele><time>2026-05-01T08:12:41.998Z</time></trkpt><trkpt lat="45.98479589110244" lon="9.261667158908253"><ele>220.2</ele><time>2026-05-01T08:12:43.998Z</time></trkpt><trkpt lat="45.98487556239913" lon="9.261731350369182"><ele>220.79999999999998</ele><time>2026-05-01T08:12:45.998Z</time></trkpt><trkpt lat="45.98497024693362" lon="9.2618040096522"><ele>221.39999999999998</ele><time>2026-05-01T08:12:47.998Z</time></trkpt><trkpt lat="45.985058192347694" lon="9.261860926780068"><ele>222.0</ele><time>2026-05-01T08:12:49.998Z</time></trkpt><trkpt lat="45.985149095493455" lon="9.261919839122056"><ele>222.0</ele><time>2026-05-01T08:12:51.998Z</time></trkpt><trkpt lat="45.98520989868296" lon="9.262031359288335"><ele>222.0</ele><time>2026-05-01T08:12:53.998Z</time></trkpt><trkpt lat="45.985221982157356" lon="9.262166813036476"><ele>222.0</ele><time>2026-05-01T08:12:56Z</time></trkpt><trkpt lat="45.985202280718035" lon="9.262275805851717"><ele>222.0</ele><time>2026-05-01T08:12:58Z</time></trkpt><trkpt lat="45.985200301429025" lon="9.262368161093189"><ele>222.0</ele><time>2026-05-01T08:13:01Z</time></trkpt><trkpt lat="45.9852783653256" lon="9.262404107517588"><ele>222.0</ele><time>2026-05-01T08:13:18Z</time></trkpt><trkpt lat="45.985361207834025" lon="9.262440635945044"><ele>222.0</ele><time>2026-05-01T08:13:20Z</time></trkpt><trkpt lat="45.98543678182971" lon="9.262468034052725"><ele>222.0</ele><time>2026-05-01T08:13:24Z</time></trkpt><trkpt lat="45.985368775072125" lon="9.26243618571052"><ele>222.0</ele><time>2026-05-01T08:13:56.999Z</time></trkpt><trkpt lat="45.98529302392525" lon="9.262332222670333"><ele>222.0</ele><time>2026-05-01T08:13:58.999Z</time></trkpt><trkpt lat="45.98522558455417" lon="9.26229757583386"><ele>222.0</ele><time>2026-05-01T08:14:00.999Z</time></trkpt><trkpt lat="45.985158215535336" lon="9.262266069383712"><ele>222.0</ele><time>2026-05-01T08:14:02.999Z</time></trkpt><trkpt lat="45.98505081362404" lon="9.262211913647503"><ele>223.33333333333334</ele><time>2026-05-01T08:14:04.999Z</time></trkpt><trkpt lat="45.98498942224109" lon="9.262172756290981"><ele>224.66666666666669</ele><time>2026-05-01T08:14:05.999Z</time></trkpt><trkpt lat="45.98492449268304" lon="9.262138333171999"><ele>226.0</ele><time>2026-05-01T08:14:06.999Z</time></trkpt><trkpt lat="45.98485156289257" lon="9.262099176796697"><ele>227.33333333333334</ele><time>2026-05-01T08:14:07.999Z</time></trkpt><trkpt lat="45.984778057953775" lon="9.262057181220639"><ele>228.66666666666669</ele><time>2026-05-01T08:14:08.999Z</time></trkpt><trkpt lat="45.984697879188886" lon="9.262013734090177"><ele>230.0</ele><time>2026-05-01T08:14:09.999Z</time></trkpt><trkpt lat="45.98461775480361" lon="9.261973664183099"><ele>229.99999999999997</ele><time>2026-05-01T08:14:10.999Z</time></trkpt><trkpt lat="45.98454730743491" lon="9.26193080360934"><ele>230.0</ele><time>2026-05-01T08:14:11.999Z</time></trkpt><trkpt lat="45.984489327399096" lon="9.261870248730796"><ele>229.99999999999997</ele><time>2026-05-01T08:14:12.999Z</time></trkpt><trkpt lat="45.98441808423857" lon="9.261825463480589"><ele>229.99999999999997</ele><time>2026-05-01T08:14:13.999Z</time></trkpt><trkpt lat="45.984359107155186" lon="9.261765869379804"><ele>230.0</ele><time>2026-05-01T08:14:14.999Z</time></trkpt><trkpt lat="45.98430249238469" lon="9.261702934845243"><ele>229.99999999999997</ele><time>2026-05-01T08:14:15.999Z</time></trkpt><trkpt lat="45.98424864296198" lon="9.261648073425013"><ele>229.99999999999997</ele><time>2026-05-01T08:14:16.999Z</time></trkpt><trkpt lat="45.9841831137979" lon="9.261617795308657"><ele>231.83333333333334</ele><time>2026-05-01T08:14:17.999Z</time></trkpt><trkpt lat="45.98411949089508" lon="9.261613799695668"><ele>233.66666666666669</ele><time>2026-05-01T08:14:18.999Z</time></trkpt><trkpt lat="45.98405149307176" lon="9.261611218716594"><ele>235.5</ele><time>2026-05-01T08:14:19.999Z</time></trkpt><trkpt lat="45.98397774595416" lon="9.2616118105735"><ele>237.33333333333331</ele><time>2026-05-01T08:14:20.999Z</time></trkpt><trkpt lat="45.983855136512034" lon="9.261642990470776"><ele>239.16666666666666</ele><time>2026-05-01T08:14:22.999Z</time></trkpt><trkpt lat="45.983755071519425" lon="9.261713936071345"><ele>241.0</ele><time>2026-05-01T08:14:24.999Z</time></trkpt><trkpt lat="45.983683775720145" lon="9.261724928095528"><ele>240.99999999999997</ele><time>2026-05-01T08:14:25.999Z</time></trkpt><trkpt lat="45.983621617163244" lon="9.261749198865918"><ele>241.0</ele><time>2026-05-01T08:14:26.999Z</time></trkpt><trkpt lat="45.98351897864543" lon="9.261736439669619"><ele>241.0</ele><time>2026-05-01T08:14:28.999Z</time></trkpt><trkpt lat="45.98339788380393" lon="9.261717893399968"><ele>241.0</ele><time>2026-05-01T08:14:30.999Z</time></trkpt><trkpt lat="45.98332577911085" lon="9.261701852301634"><ele>240.99999999999997</ele><time>2026-05-01T08:14:31.999Z</time></trkpt><trkpt lat="45.98324838183283" lon="9.261678479893504"><ele>241.0</ele><time>2026-05-01T08:14:32.999Z</time></trkpt><trkpt lat="45.9831574718802" lon="9.261651302062464"><ele>241.66666666666666</ele><time>2026-05-01T08:14:33.999Z</time></trkpt><trkpt lat="45.98308551833762" lon="9.261678426412635"><ele>242.33333333333331</ele><time>2026-05-01T08:14:35.999Z</time></trkpt><trkpt lat="45.983167618864506" lon="9.261740085290766"><ele>243.0</ele><time>2026-05-01T08:14:38.999Z</time></trkpt><trkpt lat="45.98260144027217" lon="9.26151608232735"><ele>242.75</ele><time>2026-05-01T08:14:39.999Z</time></trkpt><trkpt lat="45.982480692684135" lon="9.261515670781565"><ele>242.5</ele><time>2026-05-01T08:14:40.999Z</time></trkpt><trkpt lat="45.982370073234605" lon="9.261513231454966"><ele>242.25</ele><time>2026-05-01T08:14:41.999Z</time></trkpt><trkpt lat="45.98225770478522" lon="9.261499612775726"><ele>242.0</ele><time>2026-05-01T08:14:42.999Z</time></trkpt><trkpt lat="45.98215047499487" lon="9.261502231919478"><ele>242.0</ele><time>2026-05-01T08:14:43.999Z</time></trkpt><trkpt lat="45.98204893345239" lon="9.261499924317702"><ele>242.0</ele><time>2026-05-01T08:14:44.999Z</time></trkpt><trkpt lat="45.98194976341225" lon="9.261486973090351"><ele>242.0</ele><time>2026-05-01T08:14:45.998Z</time></trkpt><trkpt lat="45.98184948323811" lon="9.261450324412284"><ele>242.0</ele><time>2026-05-01T08:14:46.998Z</time></trkpt><trkpt lat="45.98176273581987" lon="9.261402672002598"><ele>242.0</ele><time>2026-05-01T08:14:47.998Z</time></trkpt><trkpt lat="45.98169046042983" lon="9.261343976327495"><ele>242.83333333333334</ele><time>2026-05-01T08:14:48.998Z</time></trkpt><trkpt lat="45.981628307868554" lon="9.26128670214202"><ele>243.66666666666669</ele><time>2026-05-01T08:14:49.998Z</time></trkpt><trkpt lat="45.98155850747216" lon="9.26124084485574"><ele>244.5</ele><time>2026-05-01T08:14:50.998Z</time></trkpt><trkpt lat="45.98147526094968" lon="9.261229455226271"><ele>245.33333333333331</ele><time>2026-05-01T08:14:51.998Z</time></trkpt><trkpt lat="45.98137755778205" lon="9.261267553091084"><ele>246.16666666666666</ele><time>2026-05-01T08:14:52.998Z</time></trkpt><trkpt lat="45.98127642550854" lon="9.261337167957837"><ele>247.0</ele><time>2026-05-01T08:14:53.998Z</time></trkpt><trkpt lat="45.98117329339343" lon="9.26141817627423"><ele>246.2</ele><time>2026-05-01T08:14:54.998Z</time></trkpt><trkpt lat="45.98105949318583" lon="9.261482286343574"><ele>245.39999999999998</ele><time>2026-05-01T08:14:55.998Z</time></trkpt><trkpt lat="45.98095013441668" lon="9.261532080508854"><ele>244.60000000000002</ele><time>2026-05-01T08:14:56.998Z</time></trkpt><trkpt lat="45.98084685325575" lon="9.26158274866936"><ele>243.8</ele><time>2026-05-01T08:14:57.998Z</time></trkpt><trkpt lat="45.980757994126954" lon="9.261626387163234"><ele>243.0</ele><time>2026-05-01T08:14:58.998Z</time></trkpt><trkpt lat="45.98069288260021" lon="9.26165577841547"><ele>243.0</ele><time>2026-05-01T08:14:59.998Z</time></trkpt><trkpt lat="45.98059107572017" lon="9.261706265697422"><ele>243.0</ele><time>2026-05-01T08:15:02Z</time></trkpt><trkpt lat="45.98048200209134" lon="9.26169244689733"><ele>243.0</ele><time>2026-05-01T08:15:04Z</time></trkpt><trkpt lat="45.98039985298024" lon="9.261722479799866"><ele>243.0</ele><time>2026-05-01T08:15:05Z</time></trkpt><trkpt lat="45.98031781412255" lon="9.261758299568337"><ele>243.0</ele><time>2026-05-01T08:15:06Z</time></trkpt><trkpt lat="45.98022349820387" lon="9.261791471152256"><ele>243.0</ele><time>2026-05-01T08:15:07Z</time></trkpt><trkpt lat="45.98012490884933" lon="9.261832874528354"><ele>243.0</ele><time>2026-05-01T08:15:08Z</time></trkpt><trkpt lat="45.98002591408014" lon="9.261859071528365"><ele>243.0</ele><time>2026-05-01T08:15:09Z</time></trkpt><trkpt lat="45.97992833392593" lon="9.26189803845988"><ele>243.0</ele><time>2026-05-01T08:15:10Z</time></trkpt><trkpt lat="45.97984744059751" lon="9.261942732859076"><ele>243.0</ele><time>2026-05-01T08:15:11Z</time></trkpt><trkpt lat="45.97976162616402" lon="9.261988179225312"><ele>244.66666666666666</ele><time>2026-05-01T08:15:12Z</time></trkpt><trkpt lat="45.979673480908154" lon="9.262040374627842"><ele>246.33333333333331</ele><time>2026-05-01T08:15:13Z</time></trkpt><trkpt lat="45.97958435078793" lon="9.26208630619601"><ele>248.0</ele><time>2026-05-01T08:15:14Z</time></trkpt><trkpt lat="45.97951189057558" lon="9.26213777934511"><ele>249.66666666666666</ele><time>2026-05-01T08:15:15Z</time></trkpt><trkpt lat="45.979427152756415" lon="9.262149741163029"><ele>251.33333333333331</ele><time>2026-05-01T08:15:16Z</time></trkpt><trkpt lat="45.97934493374073" lon="9.262148068105143"><ele>253.0</ele><time>2026-05-01T08:15:17Z</time></trkpt><trkpt lat="45.979279615502236" lon="9.262122702740207"><ele>252.99999999999997</ele><time>2026-05-01T08:15:18Z</time></trkpt><trkpt lat="45.979219604664685" lon="9.262070649886205"><ele>253.0</ele><time>2026-05-01T08:15:19Z</time></trkpt><trkpt lat="45.97917040154053" lon="9.261990889919224"><ele>253.0</ele><time>2026-05-01T08:15:20Z</time></trkpt><trkpt lat="45.9791323259538" lon="9.261909426882081"><ele>253.0</ele><time>2026-05-01T08:15:21Z</time></trkpt><trkpt lat="45.97911168117221" lon="9.261819755481788"><ele>252.99999999999997</ele><time>2026-05-01T08:15:23Z</time></trkpt><trkpt lat="45.979038992588094" lon="9.261746653659463"><ele>253.0</ele><time>2026-05-01T08:15:26Z</time></trkpt><trkpt lat="45.97890652087423" lon="9.261642081578682"><ele>253.75</ele><time>2026-05-01T08:15:28Z</time></trkpt><trkpt lat="45.978808448885225" lon="9.26157901162061"><ele>254.5</ele><time>2026-05-01T08:15:29Z</time></trkpt><trkpt lat="45.97868951473264" lon="9.261500614379361"><ele>255.25</ele><time>2026-05-01T08:15:30Z</time></trkpt><trkpt lat="45.97856678813107" lon="9.261405077386689"><ele>256.0</ele><time>2026-05-01T08:15:31Z</time></trkpt><trkpt lat="45.9784171478356" lon="9.261272503372677"><ele>254.0</ele><time>2026-05-01T08:15:32Z</time></trkpt><trkpt lat="45.978343507941574" lon="9.261192957604582"><ele>252.0</ele><time>2026-05-01T08:15:33Z</time></trkpt><trkpt lat="45.97826655888966" lon="9.261098238485145"><ele>250.0</ele><time>2026-05-01T08:15:34Z</time></trkpt><trkpt lat="45.97816258315836" lon="9.260967868502815"><ele>248.0</ele><time>2026-05-01T08:15:35Z</time></trkpt><trkpt lat="45.978062682032544" lon="9.260842612701474"><ele>248.0</ele><time>2026-05-01T08:15:36Z</time></trkpt><trkpt lat="45.97797256011869" lon="9.260720537074572"><ele>248.0</ele><time>2026-05-01T08:15:37Z</time></trkpt><trkpt lat="45.97789506839176" lon="9.260598593082795"><ele>248.0</ele><time>2026-05-01T08:15:38Z</time></trkpt><trkpt lat="45.97783332813202" lon="9.260496393160153"><ele>248.0</ele><time>2026-05-01T08:15:39Z</time></trkpt><trkpt lat="45.977780489018805" lon="9.260407375402059"><ele>248.0</ele><time>2026-05-01T08:15:40Z</time></trkpt><trkpt lat="45.977719907206435" lon="9.260319642364093"><ele>248.2</ele><time>2026-05-01T08:15:42Z</time></trkpt><trkpt lat="45.977769558196805" lon="9.260177514395636"><ele>248.4</ele><time>2026-05-01T08:15:45.999Z</time></trkpt><trkpt lat="45.97788345435724" lon="9.260078461366183"><ele>248.59999999999997</ele><time>2026-05-01T08:15:47.999Z</time></trkpt><trkpt lat="45.9779332805303" lon="9.259987672677301"><ele>248.79999999999998</ele><time>2026-05-01T08:15:48.999Z</time></trkpt><trkpt lat="45.977982298451515" lon="9.259885447940855"><ele>249.0</ele><time>2026-05-01T08:15:49.999Z</time></trkpt><trkpt lat="45.978023474177974" lon="9.259762326615022"><ele>249.0</ele><time>2026-05-01T08:15:50.999Z</time></trkpt><trkpt lat="45.97805850940756" lon="9.259637610774073"><ele>248.99999999999997</ele><time>2026-05-01T08:15:51.999Z</time></trkpt><trkpt lat="45.97809498057848" lon="9.259493826801748"><ele>248.99999999999997</ele><time>2026-05-01T08:15:52.999Z</time></trkpt><trkpt lat="45.97813624934029" lon="9.2593431535439"><ele>249.0</ele><time>2026-05-01T08:15:53.999Z</time></trkpt><trkpt lat="45.978177436128185" lon="9.259182962512845"><ele>249.0</ele><time>2026-05-01T08:15:54.999Z</time></trkpt><trkpt lat="45.97822024599971" lon="9.25902091585344"><ele>248.25</ele><time>2026-05-01T08:15:55.999Z</time></trkpt><trkpt lat="45.978272751903475" lon="9.258827920417474"><ele>247.5</ele><time>2026-05-01T08:15:56.999Z</time></trkpt><trkpt lat="45.978325448165435" lon="9.258625315383785"><ele>246.75</ele><time>2026-05-01T08:15:57.999Z</time></trkpt><trkpt lat="45.97838035646384" lon="9.25845095541939"><ele>246.0</ele><time>2026-05-01T08:15:58.999Z</time></trkpt><trkpt lat="45.9784198321495" lon="9.258282806300778"><ele>248.25</ele><time>2026-05-01T08:15:59.999Z</time></trkpt><trkpt lat="45.9784580012767" lon="9.258107486981848"><ele>250.5</ele><time>2026-05-01T08:16:00.999Z</time></trkpt><trkpt lat="45.97849430338883" lon="9.257926387251104"><ele>252.75</ele><time>2026-05-01T08:16:01.999Z</time></trkpt><trkpt lat="45.97852693871861" lon="9.25772928331505"><ele>255.0</ele><time>2026-05-01T08:16:02.999Z</time></trkpt><trkpt lat="45.97856008404237" lon="9.25752605307934"><ele>255.0</ele><time>2026-05-01T08:16:03.999Z</time></trkpt><trkpt lat="45.97859585268561" lon="9.257317802972942"><ele>255.0</ele><time>2026-05-01T08:16:04.999Z</time></trkpt><trkpt lat="45.97863076357599" lon="9.2571146515597"><ele>255.0</ele><time>2026-05-01T08:16:05.999Z</time></trkpt><trkpt lat="45.978665406275155" lon="9.256917851738814"><ele>255.0</ele><time>2026-05-01T08:16:06.999Z</time></trkpt><trkpt lat="45.97869511563855" lon="9.256737996720256"><ele>254.5</ele><time>2026-05-01T08:16:07.999Z</time></trkpt><trkpt lat="45.978716737646096" lon="9.256561658695759"><ele>254.0</ele><time>2026-05-01T08:16:08.999Z</time></trkpt><trkpt lat="45.978715872573936" lon="9.256389233903036"><ele>253.5</ele><time>2026-05-01T08:16:09.999Z</time></trkpt><trkpt lat="45.97872808563284" lon="9.256222060353522"><ele>253.0</ele><time>2026-05-01T08:16:10.999Z</time></trkpt><trkpt lat="45.97874070477242" lon="9.256036292809299"><ele>251.66666666666666</ele><time>2026-05-01T08:16:11.999Z</time></trkpt><trkpt lat="45.97879011004001" lon="9.255738764235208"><ele>250.33333333333331</ele><time>2026-05-01T08:16:12.999Z</time></trkpt><trkpt lat="45.978799976929274" lon="9.255548076857071"><ele>249.0</ele><time>2026-05-01T08:16:14.999Z</time></trkpt><trkpt lat="45.978823656202415" lon="9.255369771552752"><ele>247.2</ele><time>2026-05-01T08:16:15.999Z</time></trkpt><trkpt lat="45.97885210326722" lon="9.255194194448253"><ele>245.39999999999998</ele><time>2026-05-01T08:16:16.999Z</time></trkpt><trkpt lat="45.978876582809555" lon="9.25503832864538"><ele>243.6</ele><time>2026-05-01T08:16:17.999Z</time></trkpt><trkpt lat="45.97891149463567" lon="9.254898127962065"><ele>241.8</ele><time>2026-05-01T08:16:18.999Z</time></trkpt><trkpt lat="45.97897288905105" lon="9.254790308465473"><ele>240.0</ele><time>2026-05-01T08:16:19.999Z</time></trkpt><trkpt lat="45.97903630651571" lon="9.254697436521381"><ele>238.0</ele><time>2026-05-01T08:16:20.999Z</time></trkpt><trkpt lat="45.97911816353657" lon="9.254626514640314"><ele>236.0</ele><time>2026-05-01T08:16:21.999Z</time></trkpt><trkpt lat="45.979200406646015" lon="9.25457317110224"><ele>234.0</ele><time>2026-05-01T08:16:22.999Z</time></trkpt><trkpt lat="45.97926638679721" lon="9.254539978476073"><ele>232.0</ele><time>2026-05-01T08:16:23.999Z</time></trkpt><trkpt lat="45.97934751757151" lon="9.254513590295785"><ele>230.0</ele><time>2026-05-01T08:16:25.999Z</time></trkpt><trkpt lat="45.979425232903395" lon="9.254492126243989"><ele>228.0</ele><time>2026-05-01T08:16:27.999Z</time></trkpt><trkpt lat="45.97953673388743" lon="9.254467215059712"><ele>225.8</ele><time>2026-05-01T08:16:29.999Z</time></trkpt><trkpt lat="45.97960934200688" lon="9.254474225579326"><ele>223.60000000000002</ele><time>2026-05-01T08:16:30.999Z</time></trkpt><trkpt lat="45.97972681052669" lon="9.254549823922401"><ele>221.39999999999998</ele><time>2026-05-01T08:16:32.999Z</time></trkpt><trkpt lat="45.97978913822472" lon="9.254576256961151"><ele>219.2</ele><time>2026-05-01T08:16:33.999Z</time></trkpt><trkpt lat="45.97990951284148" lon="9.254625547160227"><ele>217.0</ele><time>2026-05-01T08:16:35.999Z</time></trkpt><trkpt lat="45.979970606439565" lon="9.25466460109119"><ele>215.6</ele><time>2026-05-01T08:16:36.999Z</time></trkpt><trkpt lat="45.980084590489696" lon="9.254724371540089"><ele>214.2</ele><time>2026-05-01T08:16:38.999Z</time></trkpt><trkpt lat="45.980184079736674" lon="9.254794631670832"><ele>212.8</ele><time>2026-05-01T08:16:40.999Z</time></trkpt><trkpt lat="45.98028908391001" lon="9.254871388827112"><ele>211.4</ele><time>2026-05-01T08:16:42.999Z</time></trkpt><trkpt lat="45.98035197306417" lon="9.25490644052138"><ele>210.0</ele><time>2026-05-01T08:16:43.999Z</time></trkpt><trkpt lat="45.98041251355745" lon="9.254954705303051"><ele>213.33333333333334</ele><time>2026-05-01T08:16:44.999Z</time></trkpt><trkpt lat="45.98048075046456" lon="9.255001714698372"><ele>216.66666666666669</ele><time>2026-05-01T08:16:45.999Z</time></trkpt><trkpt lat="45.98055337287969" lon="9.255044262749859"><ele>220.0</ele><time>2026-05-01T08:16:46.999Z</time></trkpt><trkpt lat="45.98063069973989" lon="9.2550957567267"><ele>223.33333333333334</ele><time>2026-05-01T08:16:47.998Z</time></trkpt><trkpt lat="45.98070427898254" lon="9.25515134342595"><ele>226.66666666666669</ele><time>2026-05-01T08:16:48.998Z</time></trkpt><trkpt lat="45.98077291498272" lon="9.255194577151054"><ele>230.0</ele><time>2026-05-01T08:16:49.998Z</time></trkpt><trkpt lat="45.98083647366151" lon="9.255241593495422"><ele>226.57142857142853</ele><time>2026-05-01T08:16:50.998Z</time></trkpt><trkpt lat="45.98090117342306" lon="9.255290357132326"><ele>223.14285714285714</ele><time>2026-05-01T08:16:51.998Z</time></trkpt><trkpt lat="45.98096517602897" lon="9.255333267383412"><ele>219.7142857142857</ele><time>2026-05-01T08:16:52.998Z</time></trkpt><trkpt lat="45.981025905887115" lon="9.255376340482574"><ele>216.28571428571428</ele><time>2026-05-01T08:16:53.998Z</time></trkpt><trkpt lat="45.981087742494154" lon="9.255418242209648"><ele>212.85714285714283</ele><time>2026-05-01T08:16:54.998Z</time></trkpt><trkpt lat="45.981154298582396" lon="9.255462720480406"><ele>209.42857142857142</ele><time>2026-05-01T08:16:55.998Z</time></trkpt><trkpt lat="45.98122513454337" lon="9.25551313740224"><ele>206.0</ele><time>2026-05-01T08:16:56.998Z</time></trkpt><trkpt lat="45.98129590989288" lon="9.255565473247374"><ele>206.00000000000003</ele><time>2026-05-01T08:16:57.998Z</time></trkpt><trkpt lat="45.98136997187681" lon="9.255617012506983"><ele>206.0</ele><time>2026-05-01T08:16:58.998Z</time></trkpt><trkpt lat="45.98143596493982" lon="9.255672932795607"><ele>206.0</ele><time>2026-05-01T08:16:59.998Z</time></trkpt><trkpt lat="45.981496128177795" lon="9.255737138768778"><ele>206.0</ele><time>2026-05-01T08:17:00.998Z</time></trkpt><trkpt lat="45.9815529689841" lon="9.255811193104936"><ele>206.00000000000003</ele><time>2026-05-01T08:17:01.998Z</time></trkpt><trkpt lat="45.98161620161114" lon="9.255884045889356"><ele>206.0</ele><time>2026-05-01T08:17:02.998Z</time></trkpt><trkpt lat="45.98167288829087" lon="9.255972950991527"><ele>205.20000000000002</ele><time>2026-05-01T08:17:03.998Z</time></trkpt><trkpt lat="45.98174005434803" lon="9.256065141345376"><ele>204.4</ele><time>2026-05-01T08:17:04.998Z</time></trkpt><trkpt lat="45.981822812520264" lon="9.25614048251141"><ele>203.6</ele><time>2026-05-01T08:17:05.998Z</time></trkpt><trkpt lat="45.981908968592656" lon="9.256213179360998"><ele>202.8</ele><time>2026-05-01T08:17:07Z</time></trkpt><trkpt lat="45.98199140396144" lon="9.256267844075003"><ele>202.0</ele><time>2026-05-01T08:17:08Z</time></trkpt><trkpt lat="45.9820835433027" lon="9.256299309257981"><ele>201.99999999999997</ele><time>2026-05-01T08:17:09Z</time></trkpt><trkpt lat="45.98217241543988" lon="9.256313248136827"><ele>202.0</ele><time>2026-05-01T08:17:10Z</time></trkpt><trkpt lat="45.98224620785191" lon="9.256334504712973"><ele>202.0</ele><time>2026-05-01T08:17:11Z</time></trkpt><trkpt lat="45.982319636774044" lon="9.256350002482797"><ele>202.0</ele><time>2026-05-01T08:17:12Z</time></trkpt><trkpt lat="45.98240104095299" lon="9.25636166516651"><ele>201.99999999999997</ele><time>2026-05-01T08:17:13Z</time></trkpt><trkpt lat="45.982488049137004" lon="9.256414647300426"><ele>202.0</ele><time>2026-05-01T08:17:15Z</time></trkpt><trkpt lat="45.982563160981975" lon="9.256474497508137"><ele>201.6</ele><time>2026-05-01T08:17:17Z</time></trkpt><trkpt lat="45.9826377232599" lon="9.25657270966605"><ele>201.2</ele><time>2026-05-01T08:17:19Z</time></trkpt><trkpt lat="45.982715296538174" lon="9.256667818283612"><ele>200.8</ele><time>2026-05-01T08:17:21Z</time></trkpt><trkpt lat="45.98278507629241" lon="9.256747593906242"><ele>200.4</ele><time>2026-05-01T08:17:23Z</time></trkpt><trkpt lat="45.98285089450008" lon="9.256833616916525"><ele>200.0</ele><time>2026-05-01T08:17:25Z</time></trkpt><trkpt lat="45.98291286464532" lon="9.256908745336107"><ele>200.00000000000003</ele><time>2026-05-01T08:17:27Z</time></trkpt><trkpt lat="45.98296470183532" lon="9.25696953394331"><ele>200.0</ele><time>2026-05-01T08:17:29Z</time></trkpt><trkpt lat="45.983014338495515" lon="9.257030284939193"><ele>200.0</ele><time>2026-05-01T08:17:32Z</time></trkpt><trkpt lat="45.98307484184152" lon="9.257110178797666"><ele>200.0</ele><time>2026-05-01T08:17:35Z</time></trkpt><trkpt lat="45.983133499776905" lon="9.257187322659039"><ele>200.00000000000003</ele><time>2026-05-01T08:17:37Z</time></trkpt><trkpt lat="45.983199577981615" lon="9.257278196786435"><ele>200.0</ele><time>2026-05-01T08:17:39Z</time></trkpt><trkpt lat="45.983278773372646" lon="9.257389361167427"><ele>200.14285714285717</ele><time>2026-05-01T08:17:41Z</time></trkpt><trkpt lat="45.9833243193444" lon="9.257454816931325"><ele>200.28571428571428</ele><time>2026-05-01T08:17:42Z</time></trkpt><trkpt lat="45.98336951565163" lon="9.257527062110695"><ele>200.42857142857144</ele><time>2026-05-01T08:17:43Z</time></trkpt><trkpt lat="45.98342353952542" lon="9.257598990563842"><ele>200.57142857142858</ele><time>2026-05-01T08:17:44Z</time></trkpt><trkpt lat="45.983475584300805" lon="9.257678018732577"><ele>200.71428571428572</ele><time>2026-05-01T08:17:45Z</time></trkpt><trkpt lat="45.983532272235" lon="9.257754947802882"><ele>200.85714285714286</ele><time>2026-05-01T08:17:46Z</time></trkpt><trkpt lat="45.98358060983334" lon="9.257838716513792"><ele>201.0</ele><time>2026-05-01T08:17:47Z</time></trkpt><trkpt lat="45.983637097541255" lon="9.257924466830339"><ele>201.0</ele><time>2026-05-01T08:17:47.999Z</time></trkpt><trkpt lat="45.98369570638737" lon="9.258005643282361"><ele>201.0</ele><time>2026-05-01T08:17:48.999Z</time></trkpt><trkpt lat="45.98377885053281" lon="9.25802717285914"><ele>201.0</ele><time>2026-05-01T08:17:49.999Z</time></trkpt><trkpt lat="45.983847868388146" lon="9.258138432675896"><ele>201.0</ele><time>2026-05-01T08:17:51.999Z</time></trkpt><trkpt lat="45.983922559734786" lon="9.258195192799064"><ele>201.0</ele><time>2026-05-01T08:17:52.999Z</time></trkpt><trkpt lat="45.984038427012955" lon="9.258221903525703"><ele>200.8</ele><time>2026-05-01T08:17:53.999Z</time></trkpt><trkpt lat="45.984168928210806" lon="9.258284100517935"><ele>200.60000000000002</ele><time>2026-05-01T08:17:54.999Z</time></trkpt><trkpt lat="45.984102339597" lon="9.258331396104772"><ele>200.4</ele><time>2026-05-01T08:17:55.999Z</time></trkpt><trkpt lat="45.9841984020217" lon="9.25838992363969"><ele>200.2</ele><time>2026-05-01T08:17:57.999Z</time></trkpt><trkpt lat="45.98427440845649" lon="9.258437633045313"><ele>200.0</ele><time>2026-05-01T08:17:59.999Z</time></trkpt><trkpt lat="45.98437029832661" lon="9.258488634969419"><ele>200.0</ele><time>2026-05-01T08:18:01.999Z</time></trkpt><trkpt lat="45.984443914711484" lon="9.258546808217673"><ele>200.0</ele><time>2026-05-01T08:18:03.999Z</time></trkpt><trkpt lat="45.98449602780073" lon="9.258599368835485"><ele>200.0</ele><time>2026-05-01T08:18:04.999Z</time></trkpt><trkpt lat="45.98459315228456" lon="9.258703120177262"><ele>200.0</ele><time>2026-05-01T08:18:06.999Z</time></trkpt><trkpt lat="45.98466752276977" lon="9.258839927314138"><ele>200.0</ele><time>2026-05-01T08:18:08.999Z</time></trkpt><trkpt lat="45.98471003649667" lon="9.258908332038017"><ele>199.8</ele><time>2026-05-01T08:18:09.999Z</time></trkpt><trkpt lat="45.98478281180713" lon="9.259028550737122"><ele>199.6</ele><time>2026-05-01T08:18:11.999Z</time></trkpt><trkpt lat="45.98485252588246" lon="9.259143036961873"><ele>199.39999999999998</ele><time>2026-05-01T08:18:13.999Z</time></trkpt><trkpt lat="45.98491826291763" lon="9.259255935475009"><ele>199.2</ele><time>2026-05-01T08:18:15.999Z</time></trkpt><trkpt lat="45.98498405888357" lon="9.259360380631193"><ele>199.0</ele><time>2026-05-01T08:18:17.999Z</time></trkpt><trkpt lat="45.98505377611618" lon="9.259457381698907"><ele>199.0</ele><time>2026-05-01T08:18:19.999Z</time></trkpt><trkpt lat="45.98513284358307" lon="9.25956783916979"><ele>199.0</ele><time>2026-05-01T08:18:21.999Z</time></trkpt><trkpt lat="45.985208803887346" lon="9.259679781992475"><ele>199.0</ele><time>2026-05-01T08:18:23.999Z</time></trkpt><trkpt lat="45.985269578062294" lon="9.259768148109954"><ele>199.0</ele><time>2026-05-01T08:18:25.999Z</time></trkpt><trkpt lat="45.985338275021356" lon="9.259856636751385"><ele>199.0</ele><time>2026-05-01T08:18:28.999Z</time></trkpt><trkpt lat="45.98537658702803" lon="9.259947362736066"><ele>199.16666666666666</ele><time>2026-05-01T08:18:31.999Z</time></trkpt><trkpt lat="45.98534894756072" lon="9.260052853133626"><ele>199.33333333333331</ele><time>2026-05-01T08:18:33.999Z</time></trkpt><trkpt lat="45.985292610332785" lon="9.260142935272963"><ele>199.5</ele><time>2026-05-01T08:18:36.999Z</time></trkpt><trkpt lat="45.98523904805001" lon="9.260236453625252"><ele>199.66666666666669</ele><time>2026-05-01T08:18:39.999Z</time></trkpt><trkpt lat="45.98523396811838" lon="9.260351973902036"><ele>199.83333333333334</ele><time>2026-05-01T08:18:42.999Z</time></trkpt><trkpt lat="45.98530033520052" lon="9.260461598303714"><ele>200.0</ele><time>2026-05-01T08:18:44.999Z</time></trkpt><trkpt lat="45.98534369303496" lon="9.260535195428256"><ele>200.0</ele><time>2026-05-01T08:18:45.999Z</time></trkpt><trkpt lat="45.9854161717102" lon="9.260564350557326"><ele>200.0</ele><time>2026-05-01T08:18:46.999Z</time></trkpt><trkpt lat="45.98551542354915" lon="9.260665142081498"><ele>200.0</ele><time>2026-05-01T08:18:48.999Z</time></trkpt><trkpt lat="45.98559142610993" lon="9.26073306340026"><ele>200.0</ele><time>2026-05-01T08:18:50.999Z</time></trkpt><trkpt lat="45.9856646456458" lon="9.260777771144422"><ele>200.0</ele><time>2026-05-01T08:18:52.999Z</time></trkpt><trkpt lat="45.985723660513976" lon="9.260667314349577"><ele>200.00000000000003</ele><time>2026-05-01T08:18:56.998Z</time></trkpt><trkpt lat="45.98565961167407" lon="9.260556466036391"><ele>200.0</ele><time>2026-05-01T08:18:57.998Z</time></trkpt><trkpt lat="45.985609755221105" lon="9.260453495470998"><ele>200.0</ele><time>2026-05-01T08:18:59.998Z</time></trkpt><trkpt lat="45.98558283054499" lon="9.260343353914367"><ele>200.0</ele><time>2026-05-01T08:19:07.998Z</time></trkpt><trkpt lat="45.98555671949941" lon="9.260236538093846"><ele>200.00000000000003</ele><time>2026-05-01T08:19:13Z</time></trkpt><trkpt lat="45.98552838816754" lon="9.260128798899705"><ele>200.0</ele><time>2026-05-01T08:19:16Z</time></trkpt><trkpt lat="45.98552275910897" lon="9.260033627772241"><ele>200.0</ele><time>2026-05-01T08:19:29Z</time></trkpt><trkpt lat="45.98547894580088" lon="9.25994610146374"><ele>200.0</ele><time>2026-05-01T08:19:32Z</time></trkpt><trkpt lat="45.98543272199983" lon="9.259884592727696"><ele>200.0</ele><time>2026-05-01T08:19:35Z</time></trkpt><trkpt lat="45.98548836769843" lon="9.259840780903739"><ele>200.0</ele><time>2026-05-01T08:19:40Z</time></trkpt><trkpt lat="45.985413200975486" lon="9.259919313297598"><ele>200.0</ele><time>2026-05-01T08:21:32Z</time></trkpt><trkpt lat="45.985498930894195" lon="9.259852020729738"><ele>200.0</ele><time>2026-05-01T08:25:48Z</time></trkpt></trkseg><trkseg><trkpt lat="45.98552677160749" lon="9.260001978202986"><ele>200.00000000000003</ele><time>2026-05-01T08:39:03Z</time></trkpt><trkpt lat="45.98549290990875" lon="9.259894256885246"><ele>200.0</ele><time>2026-05-01T08:39:04Z</time></trkpt><trkpt lat="45.98550270989214" lon="9.26000287638327"><ele>200.0</ele><time>2026-05-01T08:54:06.999Z</time></trkpt><trkpt lat="45.985492256689895" lon="9.259848567350721"><ele>200.0</ele><time>2026-05-01T08:54:08.999Z</time></trkpt><trkpt lat="45.985484449900945" lon="9.259949130041912"><ele>200.00000000000003</ele><time>2026-05-01T09:06:05Z</time></trkpt><trkpt lat="45.98555799809441" lon="9.259971071172053"><ele>200.0</ele><time>2026-05-01T09:06:09Z</time></trkpt><trkpt lat="45.98563813932349" lon="9.259941727183632"><ele>200.00000000000003</ele><time>2026-05-01T09:06:13Z</time></trkpt><trkpt lat="45.985705369265766" lon="9.259917630075664"><ele>200.0</ele><time>2026-05-01T09:06:20Z</time></trkpt><trkpt lat="45.985768961366055" lon="9.259926199021141"><ele>200.0</ele><time>2026-05-01T09:06:23Z</time></trkpt><trkpt lat="45.9858424516201" lon="9.259958861741953"><ele>200.0</ele><time>2026-05-01T09:06:32Z</time></trkpt><trkpt lat="45.98594560585768" lon="9.259966525407462"><ele>200.0</ele><time>2026-05-01T09:06:35Z</time></trkpt><trkpt lat="45.9860054433163" lon="9.259995034510874"><ele>200.00000000000003</ele><time>2026-05-01T09:06:38Z</time></trkpt><trkpt lat="45.98607415241293" lon="9.259960919648705"><ele>200.0</ele><time>2026-05-01T09:06:40.999Z</time></trkpt><trkpt lat="45.986184328875474" lon="9.259946349059279"><ele>199.71428571428572</ele><time>2026-05-01T09:06:46.999Z</time></trkpt><trkpt lat="45.986260114222304" lon="9.259957577435575"><ele>199.42857142857144</ele><time>2026-05-01T09:06:52.999Z</time></trkpt><trkpt lat="45.986261015967685" lon="9.259864531003661"><ele>199.14285714285717</ele><time>2026-05-01T09:07:02.999Z</time></trkpt><trkpt lat="45.98622878531653" lon="9.25994574484797"><ele>198.85714285714286</ele><time>2026-05-01T09:07:21.999Z</time></trkpt><trkpt lat="45.98620174731124" lon="9.260032728424516"><ele>198.57142857142856</ele><time>2026-05-01T09:07:35.999Z</time></trkpt><trkpt lat="45.986206707757766" lon="9.259916531332617"><ele>198.2857142857143</ele><time>2026-05-01T09:08:00Z</time></trkpt><trkpt lat="45.986175810589806" lon="9.259824396253613"><ele>198.0</ele><time>2026-05-01T09:08:11Z</time></trkpt><trkpt lat="45.986176238763" lon="9.259722189815676"><ele>198.0</ele><time>2026-05-01T09:08:21Z</time></trkpt><trkpt lat="45.986229209804634" lon="9.259811127962568"><ele>198.0</ele><time>2026-05-01T09:08:31Z</time></trkpt><trkpt lat="45.98625879541915" lon="9.25989553339473"><ele>198.0</ele><time>2026-05-01T09:08:38Z</time></trkpt><trkpt lat="45.98618700840156" lon="9.259926294012729"><ele>198.0</ele><time>2026-05-01T09:09:14.999Z</time></trkpt><trkpt lat="45.98616936771165" lon="9.26009917336822"><ele>198.0</ele><time>2026-05-01T09:09:35.999Z</time></trkpt><trkpt lat="45.985484449900945" lon="9.259949130041912"><ele>198.0</ele><time>2026-05-01T09:06:05Z</time></trkpt><trkpt lat="45.98555799809441" lon="9.259971071172053"><ele>198.0</ele><time>2026-05-01T09:06:09Z</time></trkpt><trkpt lat="45.98563813932349" lon="9.259941727183632"><ele>198.0</ele><time>2026-05-01T09:06:13Z</time></trkpt><trkpt lat="45.985705369265766" lon="9.259917630075664"><ele>198.0</ele><time>2026-05-01T09:06:20Z</time></trkpt><trkpt lat="45.985768961366055" lon="9.259926199021141"><ele>198.0</ele><time>2026-05-01T09:06:23Z</time></trkpt><trkpt lat="45.9858424516201" lon="9.259958861741953"><ele>198.0</ele><time>2026-05-01T09:06:32Z</time></trkpt><trkpt lat="45.98594560585768" lon="9.259966525407462"><ele>198.0</ele><time>2026-05-01T09:06:35Z</time></trkpt><trkpt lat="45.9860054433163" lon="9.259995034510874"><ele>198.0</ele><time>2026-05-01T09:06:38Z</time></trkpt><trkpt lat="45.98607415241293" lon="9.259960919648705"><ele>198.0</ele><time>2026-05-01T09:06:40.999Z</time></trkpt><trkpt lat="45.986184328875474" lon="9.259946349059279"><ele>198.0</ele><time>2026-05-01T09:06:46.999Z</time></trkpt><trkpt lat="45.986260114222304" lon="9.259957577435575"><ele>198.0</ele><time>2026-05-01T09:06:52.999Z</time></trkpt><trkpt lat="45.986261015967685" lon="9.259864531003661"><ele>198.0</ele><time>2026-05-01T09:07:02.999Z</time></trkpt><trkpt lat="45.98622878531653" lon="9.25994574484797"><ele>198.0</ele><time>2026-05-01T09:07:21.999Z</time></trkpt><trkpt lat="45.98620174731124" lon="9.260032728424516"><ele>198.0</ele><time>2026-05-01T09:07:35.999Z</time></trkpt><trkpt lat="45.986206707757766" lon="9.259916531332617"><ele>198.0</ele><time>2026-05-01T09:08:00Z</time></trkpt><trkpt lat="45.986175810589806" lon="9.259824396253613"><ele>198.0</ele><time>2026-05-01T09:08:11Z</time></trkpt><trkpt lat="45.986176238763" lon="9.259722189815676"><ele>198.0</ele><time>2026-05-01T09:08:21Z</time></trkpt><trkpt lat="45.986229209804634" lon="9.259811127962568"><ele>198.0</ele><time>2026-05-01T09:08:31Z</time></trkpt><trkpt lat="45.98625879541915" lon="9.25989553339473"><ele>198.0</ele><time>2026-05-01T09:08:38Z</time></trkpt><trkpt lat="45.98618700840156" lon="9.259926294012729"><ele>198.0</ele><time>2026-05-01T09:09:14.999Z</time></trkpt><trkpt lat="45.98616936771165" lon="9.26009917336822"><ele>198.0</ele><time>2026-05-01T09:09:35.999Z</time></trkpt><trkpt lat="45.98627221399927" lon="9.259875289185349"><ele>198.0</ele><time>2026-05-01T09:11:49.999Z</time></trkpt><trkpt lat="45.98637794725215" lon="9.259839012342036"><ele>198.0</ele><time>2026-05-01T09:11:55.999Z</time></trkpt><trkpt lat="45.98652897327504" lon="9.259784692995515"><ele>198.0</ele><time>2026-05-01T09:12:06.999Z</time></trkpt><trkpt lat="45.98662465554274" lon="9.259784436726441"><ele>198.0</ele><time>2026-05-01T09:12:09Z</time></trkpt><trkpt lat="45.986752887434584" lon="9.25975907801766"><ele>198.0</ele><time>2026-05-01T09:12:15Z</time></trkpt><trkpt lat="45.986994930574234" lon="9.25954061286271"><ele>198.0</ele><time>2026-05-01T09:12:16Z</time></trkpt><trkpt lat="45.987169970801354" lon="9.259552974262515"><ele>198.0</ele><time>2026-05-01T09:12:28Z</time></trkpt><trkpt lat="45.98764357161701" lon="9.259491532425413"><ele>198.0</ele><time>2026-05-01T09:12:34Z</time></trkpt><trkpt lat="45.98777289272316" lon="9.259479714676043"><ele>198.0</ele><time>2026-05-01T09:12:35Z</time></trkpt><trkpt lat="45.988073974565786" lon="9.259504471903318"><ele>198.0</ele><time>2026-05-01T09:12:42Z</time></trkpt><trkpt lat="45.988250832143486" lon="9.25947143881164"><ele>198.0</ele><time>2026-05-01T09:12:48Z</time></trkpt><trkpt lat="45.98833808438441" lon="9.25939847609351"><ele>198.0</ele><time>2026-05-01T09:12:51Z</time></trkpt><trkpt lat="45.988466333415026" lon="9.259367118198261"><ele>198.0</ele><time>2026-05-01T09:12:54Z</time></trkpt><trkpt lat="45.98855030763978" lon="9.259334216479953"><ele>198.0</ele><time>2026-05-01T09:12:56Z</time></trkpt><trkpt lat="45.98861459362188" lon="9.259280739380996"><ele>198.0</ele><time>2026-05-01T09:12:58Z</time></trkpt><trkpt lat="45.98867570547083" lon="9.259256159329755"><ele>198.0</ele><time>2026-05-01T09:12:59Z</time></trkpt><trkpt lat="45.98877452350961" lon="9.259225976219772"><ele>198.0</ele><time>2026-05-01T09:13:01Z</time></trkpt><trkpt lat="45.98894994870497" lon="9.259250997549703"><ele>198.0</ele><time>2026-05-01T09:13:03Z</time></trkpt><trkpt lat="45.98895069534193" lon="9.259342271960312"><ele>198.0</ele><time>2026-05-01T09:13:04Z</time></trkpt><trkpt lat="45.98740887892008" lon="9.259926796079755"><ele>199.0</ele><time>2026-05-01T09:13:06Z</time></trkpt><trkpt lat="45.987764555217765" lon="9.260193669599431"><ele>200.0</ele><time>2026-05-01T09:13:08Z</time></trkpt><trkpt lat="45.98793003926159" lon="9.26003454997561"><ele>200.0</ele><time>2026-05-01T09:13:10Z</time></trkpt><trkpt lat="45.988019946074594" lon="9.259873563076106"><ele>200.0</ele><time>2026-05-01T09:13:11Z</time></trkpt><trkpt lat="45.98828239994846" lon="9.259867784768774"><ele>200.0</ele><time>2026-05-01T09:13:12Z</time></trkpt><trkpt lat="45.98838341209404" lon="9.259828971054908"><ele>198.0</ele><time>2026-05-01T09:13:14Z</time></trkpt><trkpt lat="45.98953106275551" lon="9.259056237404511"><ele>198.0</ele><time>2026-05-01T09:13:16Z</time></trkpt><trkpt lat="45.98959450449373" lon="9.259041000746079"><ele>198.0</ele><time>2026-05-01T09:13:17Z</time></trkpt><trkpt lat="45.98884661682534" lon="9.25946775746411"><ele>198.0</ele><time>2026-05-01T09:13:18Z</time></trkpt><trkpt lat="45.98894278291526" lon="9.259456841198858"><ele>198.0</ele><time>2026-05-01T09:13:19Z</time></trkpt><trkpt lat="45.98902165780147" lon="9.259429791846904"><ele>198.0</ele><time>2026-05-01T09:13:20Z</time></trkpt><trkpt lat="45.98912955695934" lon="9.259395513193311"><ele>198.0</ele><time>2026-05-01T09:13:21Z</time></trkpt><trkpt lat="45.98921456262862" lon="9.259375085378407"><ele>198.0</ele><time>2026-05-01T09:13:21.999Z</time></trkpt><trkpt lat="45.989292998802114" lon="9.259347838419338"><ele>198.0</ele><time>2026-05-01T09:13:22.999Z</time></trkpt><trkpt lat="45.989477635303956" lon="9.259290895571844"><ele>198.0</ele><time>2026-05-01T09:13:23.999Z</time></trkpt><trkpt lat="45.98975012903564" lon="9.259177872601793"><ele>198.0</ele><time>2026-05-01T09:13:24.999Z</time></trkpt><trkpt lat="45.98996241699397" lon="9.259178237741757"><ele>198.0</ele><time>2026-05-01T09:13:27.999Z</time></trkpt><trkpt lat="45.99007995256332" lon="9.259200315503588"><ele>198.0</ele><time>2026-05-01T09:13:31.999Z</time></trkpt><trkpt lat="45.99052609923245" lon="9.259207263044695"><ele>198.0</ele><time>2026-05-01T09:13:38.999Z</time></trkpt><trkpt lat="45.99095303092767" lon="9.259179347027022"><ele>198.0</ele><time>2026-05-01T09:13:44.999Z</time></trkpt><trkpt lat="45.99106015019321" lon="9.259203142701804"><ele>198.0</ele><time>2026-05-01T09:13:46.999Z</time></trkpt><trkpt lat="45.99112924950647" lon="9.25922020528918"><ele>198.0</ele><time>2026-05-01T09:13:47.999Z</time></trkpt><trkpt lat="45.99123369016365" lon="9.259410719126048"><ele>198.0</ele><time>2026-05-01T09:13:52.999Z</time></trkpt><trkpt lat="45.99134785222758" lon="9.259465461141257"><ele>198.0</ele><time>2026-05-01T09:13:54.999Z</time></trkpt><trkpt lat="45.99146994857775" lon="9.25949307125465"><ele>198.0</ele><time>2026-05-01T09:13:57.999Z</time></trkpt><trkpt lat="45.99153487100928" lon="9.259538817100502"><ele>198.0</ele><time>2026-05-01T09:13:58.999Z</time></trkpt><trkpt lat="45.99162162370339" lon="9.259592070263452"><ele>198.0</ele><time>2026-05-01T09:14:00.999Z</time></trkpt><trkpt lat="45.991688673511334" lon="9.259614682289305"><ele>198.0</ele><time>2026-05-01T09:14:01.999Z</time></trkpt><trkpt lat="45.99173335867666" lon="9.259727363652367"><ele>198.0</ele><time>2026-05-01T09:14:03.999Z</time></trkpt><trkpt lat="45.99184634638037" lon="9.259815350198116"><ele>198.0</ele><time>2026-05-01T09:14:06.999Z</time></trkpt><trkpt lat="45.991931780077834" lon="9.259832082114592"><ele>198.0</ele><time>2026-05-01T09:14:07.999Z</time></trkpt><trkpt lat="45.99199968030998" lon="9.259921031481863"><ele>198.0</ele><time>2026-05-01T09:14:09.999Z</time></trkpt><trkpt lat="45.992065655616514" lon="9.259974082660882"><ele>198.0</ele><time>2026-05-01T09:14:11.999Z</time></trkpt><trkpt lat="45.992206049509555" lon="9.260001504456916"><ele>198.0</ele><time>2026-05-01T09:14:16Z</time></trkpt><trkpt lat="45.99230789423271" lon="9.260050874341326"><ele>198.0</ele><time>2026-05-01T09:14:18Z</time></trkpt><trkpt lat="45.99238635186881" lon="9.260110984686033"><ele>198.0</ele><time>2026-05-01T09:14:22Z</time></trkpt><trkpt lat="45.992464788169805" lon="9.260163601082375"><ele>198.0</ele><time>2026-05-01T09:14:24Z</time></trkpt><trkpt lat="45.9925374253474" lon="9.2601847621792"><ele>198.0</ele><time>2026-05-01T09:14:25Z</time></trkpt><trkpt lat="45.99262797060187" lon="9.26024415609207"><ele>198.0</ele><time>2026-05-01T09:14:27Z</time></trkpt><trkpt lat="45.99271306341994" lon="9.26030463489988"><ele>198.0</ele><time>2026-05-01T09:14:29Z</time></trkpt><trkpt lat="45.99272646420146" lon="9.260413028052035"><ele>198.0</ele><time>2026-05-01T09:14:30Z</time></trkpt><trkpt lat="45.99277832209544" lon="9.260489401766105"><ele>198.0</ele><time>2026-05-01T09:14:32Z</time></trkpt><trkpt lat="45.99281414538236" lon="9.26056743260139"><ele>198.0</ele><time>2026-05-01T09:14:33Z</time></trkpt><trkpt lat="45.99289712422152" lon="9.260661744831094"><ele>198.0</ele><time>2026-05-01T09:14:35Z</time></trkpt><trkpt lat="45.99299378488234" lon="9.26072754936283"><ele>198.0</ele><time>2026-05-01T09:14:37Z</time></trkpt><trkpt lat="45.99312217051649" lon="9.26074526654052"><ele>198.0</ele><time>2026-05-01T09:14:40Z</time></trkpt><trkpt lat="45.99323091456251" lon="9.260805370894"><ele>198.0</ele><time>2026-05-01T09:14:42Z</time></trkpt><trkpt lat="45.99331540282587" lon="9.260863780445677"><ele>198.0</ele><time>2026-05-01T09:14:44Z</time></trkpt><trkpt lat="45.993369197320874" lon="9.260923638477307"><ele>198.0</ele><time>2026-05-01T09:14:46Z</time></trkpt><trkpt lat="45.993441807610864" lon="9.260982327948941"><ele>198.0</ele><time>2026-05-01T09:14:48Z</time></trkpt><trkpt lat="45.99349969581762" lon="9.261051540470676"><ele>198.0</ele><time>2026-05-01T09:14:50Z</time></trkpt><trkpt lat="45.993614851889674" lon="9.261131670655654"><ele>198.0</ele><time>2026-05-01T09:14:52Z</time></trkpt><trkpt lat="45.99369766287179" lon="9.261160593318296"><ele>198.0</ele><time>2026-05-01T09:14:54Z</time></trkpt><trkpt lat="45.99385364442049" lon="9.261253409095463"><ele>198.0</ele><time>2026-05-01T09:14:56Z</time></trkpt><trkpt lat="45.99396493286819" lon="9.26133367205664"><ele>198.0</ele><time>2026-05-01T09:14:58Z</time></trkpt><trkpt lat="45.99411486270705" lon="9.26150247321745"><ele>198.0</ele><time>2026-05-01T09:15:03Z</time></trkpt><trkpt lat="45.99417986910253" lon="9.261553991902463"><ele>198.0</ele><time>2026-05-01T09:15:05Z</time></trkpt><trkpt lat="45.994260350202886" lon="9.261639836405802"><ele>198.0</ele><time>2026-05-01T09:15:07Z</time></trkpt><trkpt lat="45.9943446066726" lon="9.261707052707246"><ele>198.0</ele><time>2026-05-01T09:15:09Z</time></trkpt><trkpt lat="45.99442500294678" lon="9.261765563338203"><ele>198.0</ele><time>2026-05-01T09:15:11Z</time></trkpt><trkpt lat="45.994533210514724" lon="9.261848266010764"><ele>198.0</ele><time>2026-05-01T09:15:13Z</time></trkpt><trkpt lat="45.9946317732711" lon="9.262073204808578"><ele>198.0</ele><time>2026-05-01T09:15:15Z</time></trkpt><trkpt lat="45.99471931469249" lon="9.26210924427736"><ele>198.0</ele><time>2026-05-01T09:15:18Z</time></trkpt><trkpt lat="45.99481045850732" lon="9.26219483825206"><ele>198.0</ele><time>2026-05-01T09:15:20Z</time></trkpt><trkpt lat="45.9949175055801" lon="9.262256652954795"><ele>198.0</ele><time>2026-05-01T09:15:22.999Z</time></trkpt><trkpt lat="45.9949909849827" lon="9.262339315848637"><ele>198.0</ele><time>2026-05-01T09:15:24.999Z</time></trkpt><trkpt lat="45.99506429790573" lon="9.262387550862645"><ele>198.0</ele><time>2026-05-01T09:15:26.999Z</time></trkpt><trkpt lat="45.99514621935884" lon="9.262471970024343"><ele>198.0</ele><time>2026-05-01T09:15:28.999Z</time></trkpt><trkpt lat="45.99522733681167" lon="9.262535990898243"><ele>198.0</ele><time>2026-05-01T09:15:30.999Z</time></trkpt><trkpt lat="45.99528456586532" lon="9.262594441482692"><ele>198.0</ele><time>2026-05-01T09:15:31.999Z</time></trkpt><trkpt lat="45.995397725298076" lon="9.262678927265853"><ele>198.0</ele><time>2026-05-01T09:15:34.999Z</time></trkpt><trkpt lat="45.99549449770266" lon="9.262726182611162"><ele>198.0</ele><time>2026-05-01T09:15:37.999Z</time></trkpt><trkpt lat="45.995566481487415" lon="9.262785590258863"><ele>198.0</ele><time>2026-05-01T09:15:39.999Z</time></trkpt><trkpt lat="45.99561083324626" lon="9.262851543567347"><ele>198.0</ele><time>2026-05-01T09:15:40.999Z</time></trkpt><trkpt lat="45.99568337560792" lon="9.262912523065005"><ele>198.0</ele><time>2026-05-01T09:15:42.999Z</time></trkpt><trkpt lat="45.99576471604879" lon="9.262951652849118"><ele>198.0</ele><time>2026-05-01T09:15:44.999Z</time></trkpt><trkpt lat="45.99583493309298" lon="9.263006383112694"><ele>198.0</ele><time>2026-05-01T09:15:45.999Z</time></trkpt><trkpt lat="45.99589737294627" lon="9.26306940937832"><ele>198.0</ele><time>2026-05-01T09:15:46.999Z</time></trkpt><trkpt lat="45.99599893345867" lon="9.263123221430329"><ele>198.0</ele><time>2026-05-01T09:15:48.999Z</time></trkpt><trkpt lat="45.99607717114473" lon="9.263133912091234"><ele>198.0</ele><time>2026-05-01T09:15:49.999Z</time></trkpt><trkpt lat="45.99608871759824" lon="9.263243191486463"><ele>198.0</ele><time>2026-05-01T09:15:50.999Z</time></trkpt><trkpt lat="45.99616594690233" lon="9.263257860150244"><ele>198.0</ele><time>2026-05-01T09:15:51.999Z</time></trkpt><trkpt lat="45.99618237267326" lon="9.263366031622853"><ele>198.0</ele><time>2026-05-01T09:15:52.999Z</time></trkpt><trkpt lat="45.99624312398792" lon="9.263448617409205"><ele>198.0</ele><time>2026-05-01T09:15:54.999Z</time></trkpt><trkpt lat="45.99630927606422" lon="9.2634824376881"><ele>198.0</ele><time>2026-05-01T09:15:55.999Z</time></trkpt><trkpt lat="45.996375208334214" lon="9.263551311632407"><ele>198.0</ele><time>2026-05-01T09:15:56.999Z</time></trkpt><trkpt lat="45.996455705940264" lon="9.263595207930823"><ele>198.0</ele><time>2026-05-01T09:15:58.999Z</time></trkpt><trkpt lat="45.99654073432801" lon="9.263662340677977"><ele>198.0</ele><time>2026-05-01T09:16:00.999Z</time></trkpt><trkpt lat="45.99661621335785" lon="9.2637092522749"><ele>198.0</ele><time>2026-05-01T09:16:01.999Z</time></trkpt><trkpt lat="45.996698083456806" lon="9.26380013736119"><ele>198.0</ele><time>2026-05-01T09:16:03.999Z</time></trkpt><trkpt lat="45.99678447006116" lon="9.263877457761133"><ele>198.0</ele><time>2026-05-01T09:16:05.999Z</time></trkpt><trkpt lat="45.99681645655816" lon="9.263966315903353"><ele>198.0</ele><time>2026-05-01T09:16:07.999Z</time></trkpt><trkpt lat="45.99690292553374" lon="9.263984225128908"><ele>198.0</ele><time>2026-05-01T09:16:09.999Z</time></trkpt><trkpt lat="45.99699769987403" lon="9.264058598375133"><ele>198.0</ele><time>2026-05-01T09:16:10.999Z</time></trkpt><trkpt lat="45.99707471026257" lon="9.264108064652257"><ele>198.0</ele><time>2026-05-01T09:16:12.999Z</time></trkpt><trkpt lat="45.99714064658891" lon="9.264171996776508"><ele>198.0</ele><time>2026-05-01T09:16:14.999Z</time></trkpt><trkpt lat="45.997199624563095" lon="9.264240709374532"><ele>198.0</ele><time>2026-05-01T09:16:16.999Z</time></trkpt><trkpt lat="45.99729437586966" lon="9.264309703798498"><ele>198.0</ele><time>2026-05-01T09:16:18.999Z</time></trkpt><trkpt lat="45.997391180396164" lon="9.264343281021446"><ele>198.0</ele><time>2026-05-01T09:16:22Z</time></trkpt><trkpt lat="45.99747013310758" lon="9.264404378576197"><ele>198.0</ele><time>2026-05-01T09:16:24Z</time></trkpt><trkpt lat="45.99759067383759" lon="9.26450848299041"><ele>198.0</ele><time>2026-05-01T09:16:28Z</time></trkpt><trkpt lat="45.99764579846563" lon="9.264591052719133"><ele>198.0</ele><time>2026-05-01T09:16:30Z</time></trkpt><trkpt lat="45.997728825707064" lon="9.26467880643394"><ele>198.0</ele><time>2026-05-01T09:16:32Z</time></trkpt><trkpt lat="45.99786841545268" lon="9.264794951071835"><ele>198.0</ele><time>2026-05-01T09:16:35Z</time></trkpt><trkpt lat="45.997954277662814" lon="9.264869154863085"><ele>198.0</ele><time>2026-05-01T09:16:37Z</time></trkpt><trkpt lat="45.99807029656462" lon="9.265054915137386"><ele>198.0</ele><time>2026-05-01T09:16:41Z</time></trkpt><trkpt lat="45.99813218042898" lon="9.265115299220888"><ele>198.0</ele><time>2026-05-01T09:16:42Z</time></trkpt><trkpt lat="45.998282587363754" lon="9.265235167393707"><ele>198.0</ele><time>2026-05-01T09:16:44Z</time></trkpt><trkpt lat="45.99837083331902" lon="9.265296290543588"><ele>198.0</ele><time>2026-05-01T09:16:45Z</time></trkpt><trkpt lat="45.99843593912751" lon="9.265339584671356"><ele>198.0</ele><time>2026-05-01T09:16:46Z</time></trkpt><trkpt lat="45.99855616505217" lon="9.265370500527307"><ele>198.0</ele><time>2026-05-01T09:16:48Z</time></trkpt><trkpt lat="45.998666253843886" lon="9.265444890145202"><ele>198.0</ele><time>2026-05-01T09:16:50Z</time></trkpt><trkpt lat="45.998770744336994" lon="9.265516469945826"><ele>198.0</ele><time>2026-05-01T09:16:52Z</time></trkpt><trkpt lat="45.998834291576266" lon="9.265579667998255"><ele>198.0</ele><time>2026-05-01T09:16:55Z</time></trkpt><trkpt lat="45.99891929565631" lon="9.265643636405317"><ele>198.0</ele><time>2026-05-01T09:16:57Z</time></trkpt><trkpt lat="45.99892398566178" lon="9.265747430006588"><ele>198.0</ele><time>2026-05-01T09:17:01Z</time></trkpt><trkpt lat="45.99900699231081" lon="9.265769544667405"><ele>198.0</ele><time>2026-05-01T09:17:02Z</time></trkpt><trkpt lat="45.99904866264079" lon="9.265844081349089"><ele>198.0</ele><time>2026-05-01T09:17:04Z</time></trkpt><trkpt lat="45.999121896778455" lon="9.26587540974927"><ele>198.0</ele><time>2026-05-01T09:17:05Z</time></trkpt><trkpt lat="45.999257954731284" lon="9.265848023380839"><ele>198.0</ele><time>2026-05-01T09:17:07Z</time></trkpt><trkpt lat="45.999277898927176" lon="9.265945988581867"><ele>198.0</ele><time>2026-05-01T09:17:08Z</time></trkpt><trkpt lat="45.99942129078953" lon="9.266004279171126"><ele>198.0</ele><time>2026-05-01T09:17:09Z</time></trkpt><trkpt lat="45.999455215335146" lon="9.266089296121232"><ele>198.0</ele><time>2026-05-01T09:17:11Z</time></trkpt><trkpt lat="45.999541495302374" lon="9.266167715353133"><ele>198.0</ele><time>2026-05-01T09:17:13Z</time></trkpt><trkpt lat="45.999775659134656" lon="9.266315446696407"><ele>198.0</ele><time>2026-05-01T09:17:15Z</time></trkpt><trkpt lat="45.999881229434955" lon="9.266397642176177"><ele>198.0</ele><time>2026-05-01T09:17:17Z</time></trkpt><trkpt lat="45.99988612865505" lon="9.266510781108499"><ele>198.0</ele><time>2026-05-01T09:17:19Z</time></trkpt><trkpt lat="45.99998721651276" lon="9.266541227920225"><ele>198.0</ele><time>2026-05-01T09:17:21Z</time></trkpt><trkpt lat="46.00006983375926" lon="9.26661571754491"><ele>198.0</ele><time>2026-05-01T09:17:23Z</time></trkpt><trkpt lat="45.99998769840459" lon="9.266585838912736"><ele>198.0</ele><time>2026-05-01T09:17:24Z</time></trkpt><trkpt lat="46.000088613004365" lon="9.266711142083174"><ele>198.0</ele><time>2026-05-01T09:17:25.999Z</time></trkpt><trkpt lat="46.000204847087524" lon="9.266789184390005"><ele>198.0</ele><time>2026-05-01T09:17:29.999Z</time></trkpt><trkpt lat="46.000259615588035" lon="9.266854477497548"><ele>198.0</ele><time>2026-05-01T09:17:30.999Z</time></trkpt><trkpt lat="46.00042503897901" lon="9.266943023716204"><ele>198.0</ele><time>2026-05-01T09:17:35.999Z</time></trkpt><trkpt lat="46.000491214223175" lon="9.267017907009775"><ele>198.0</ele><time>2026-05-01T09:17:37.999Z</time></trkpt><trkpt lat="46.00058423412011" lon="9.267091688344726"><ele>198.0</ele><time>2026-05-01T09:17:40.999Z</time></trkpt><trkpt lat="46.00065478619523" lon="9.267158115193505"><ele>198.0</ele><time>2026-05-01T09:17:41.999Z</time></trkpt><trkpt lat="46.00074348149687" lon="9.267226542992196"><ele>198.0</ele><time>2026-05-01T09:17:43.999Z</time></trkpt><trkpt lat="46.00082886479206" lon="9.267299144170488"><ele>198.0</ele><time>2026-05-01T09:17:46.999Z</time></trkpt><trkpt lat="46.00089909201751" lon="9.267339570683259"><ele>198.0</ele><time>2026-05-01T09:17:47.999Z</time></trkpt><trkpt lat="46.00097587931173" lon="9.267405310890119"><ele>198.0</ele><time>2026-05-01T09:17:48.999Z</time></trkpt><trkpt lat="46.00103309076105" lon="9.267488235132202"><ele>198.0</ele><time>2026-05-01T09:17:49.999Z</time></trkpt><trkpt lat="46.00112740769876" lon="9.267590764851843"><ele>198.0</ele><time>2026-05-01T09:17:51.999Z</time></trkpt><trkpt lat="46.00123707243652" lon="9.267634466254538"><ele>198.0</ele><time>2026-05-01T09:17:52.999Z</time></trkpt><trkpt lat="46.00123774748313" lon="9.267737083149957"><ele>198.0</ele><time>2026-05-01T09:17:53.999Z</time></trkpt><trkpt lat="46.00130237747228" lon="9.26780691697442"><ele>198.0</ele><time>2026-05-01T09:17:54.999Z</time></trkpt><trkpt lat="46.00140514660385" lon="9.267929816057878"><ele>198.0</ele><time>2026-05-01T09:17:58.999Z</time></trkpt><trkpt lat="46.001488674991144" lon="9.268082397332968"><ele>198.0</ele><time>2026-05-01T09:18:00.999Z</time></trkpt><trkpt lat="46.00088979326717" lon="9.267086723675591"><ele>198.0</ele><time>2026-05-01T09:18:01.999Z</time></trkpt><trkpt lat="46.000910343612176" lon="9.267477442517572"><ele>198.0</ele><time>2026-05-01T09:18:08.999Z</time></trkpt><trkpt lat="46.00104427203913" lon="9.26749463858969"><ele>198.0</ele><time>2026-05-01T09:18:10.999Z</time></trkpt><trkpt lat="46.00144448959415" lon="9.26773471401707"><ele>198.0</ele><time>2026-05-01T09:18:14.999Z</time></trkpt><trkpt lat="46.00153940842554" lon="9.267787896544057"><ele>198.0</ele><time>2026-05-01T09:18:16.999Z</time></trkpt><trkpt lat="46.00209594530369" lon="9.26885141468595"><ele>198.0</ele><time>2026-05-01T09:18:18.999Z</time></trkpt><trkpt lat="46.0021684418405" lon="9.268957413433947"><ele>198.0</ele><time>2026-05-01T09:18:20.999Z</time></trkpt><trkpt lat="46.00230668479605" lon="9.269006524692045"><ele>198.0</ele><time>2026-05-01T09:18:25.999Z</time></trkpt><trkpt lat="46.00240469889566" lon="9.269094398778599"><ele>198.0</ele><time>2026-05-01T09:18:28Z</time></trkpt><trkpt lat="46.00249439837375" lon="9.269185463138239"><ele>198.0</ele><time>2026-05-01T09:18:30Z</time></trkpt><trkpt lat="46.002573428003714" lon="9.2692225114162"><ele>198.0</ele><time>2026-05-01T09:18:31Z</time></trkpt><trkpt lat="46.0026528281025" lon="9.26930958645488"><ele>198.0</ele><time>2026-05-01T09:18:32Z</time></trkpt><trkpt lat="46.00271475965537" lon="9.269357610228937"><ele>198.0</ele><time>2026-05-01T09:18:34Z</time></trkpt><trkpt lat="46.002760522809126" lon="9.269477758694467"><ele>198.0</ele><time>2026-05-01T09:18:36Z</time></trkpt><trkpt lat="46.00281689712557" lon="9.269524643104576"><ele>198.0</ele><time>2026-05-01T09:18:37Z</time></trkpt><trkpt lat="46.00289164460254" lon="9.26960718284088"><ele>198.0</ele><time>2026-05-01T09:18:38Z</time></trkpt><trkpt lat="46.00298943280343" lon="9.269723126404521"><ele>198.0</ele><time>2026-05-01T09:18:40Z</time></trkpt><trkpt lat="46.002477386503536" lon="9.26889474288654"><ele>198.0</ele><time>2026-05-01T09:18:41Z</time></trkpt><trkpt lat="46.0025562887244" lon="9.268899305012692"><ele>198.0</ele><time>2026-05-01T09:18:42Z</time></trkpt><trkpt lat="46.00262083196721" lon="9.268988260099512"><ele>198.0</ele><time>2026-05-01T09:18:43Z</time></trkpt><trkpt lat="46.0026809103857" lon="9.269033737751402"><ele>198.0</ele><time>2026-05-01T09:18:44Z</time></trkpt><trkpt lat="46.002732921318106" lon="9.269150206530265"><ele>198.0</ele><time>2026-05-01T09:18:45Z</time></trkpt><trkpt lat="46.002783980302056" lon="9.269217361266314"><ele>198.0</ele><time>2026-05-01T09:18:46Z</time></trkpt><trkpt lat="46.00283225625512" lon="9.269302888281059"><ele>198.0</ele><time>2026-05-01T09:18:47Z</time></trkpt><trkpt lat="46.0029187037191" lon="9.269407516971375"><ele>198.0</ele><time>2026-05-01T09:18:48Z</time></trkpt><trkpt lat="46.00297418937819" lon="9.269533047872033"><ele>198.0</ele><time>2026-05-01T09:18:49Z</time></trkpt><trkpt lat="46.00305731539786" lon="9.269650604834904"><ele>198.0</ele><time>2026-05-01T09:18:51Z</time></trkpt><trkpt lat="46.003140134460125" lon="9.269825549564302"><ele>198.0</ele><time>2026-05-01T09:18:52Z</time></trkpt><trkpt lat="46.00320165096436" lon="9.269908020668446"><ele>198.0</ele><time>2026-05-01T09:18:53Z</time></trkpt><trkpt lat="46.00325956262615" lon="9.269948328456655"><ele>198.0</ele><time>2026-05-01T09:18:54Z</time></trkpt><trkpt lat="46.00333360210348" lon="9.270034391628439"><ele>198.0</ele><time>2026-05-01T09:18:55Z</time></trkpt><trkpt lat="46.003494005804015" lon="9.270238625138411"><ele>198.0</ele><time>2026-05-01T09:18:56Z</time></trkpt><trkpt lat="46.00359559003076" lon="9.27035913913219"><ele>198.0</ele><time>2026-05-01T09:18:58Z</time></trkpt><trkpt lat="46.00366998471888" lon="9.270447679385962"><ele>198.0</ele><time>2026-05-01T09:19:00Z</time></trkpt><trkpt lat="46.00372053302055" lon="9.270508621999822"><ele>198.0</ele><time>2026-05-01T09:19:01Z</time></trkpt><trkpt lat="46.00376578883874" lon="9.27057539519866"><ele>198.0</ele><time>2026-05-01T09:19:02Z</time></trkpt><trkpt lat="46.003866628103246" lon="9.270676759768781"><ele>198.0</ele><time>2026-05-01T09:19:04Z</time></trkpt><trkpt lat="46.00398224348597" lon="9.270756252643832"><ele>198.0</ele><time>2026-05-01T09:19:07Z</time></trkpt><trkpt lat="46.00427284732838" lon="9.271004560502238"><ele>198.0</ele><time>2026-05-01T09:19:11Z</time></trkpt><trkpt lat="46.00432063310076" lon="9.271093595870171"><ele>198.0</ele><time>2026-05-01T09:19:12Z</time></trkpt><trkpt lat="46.00437259811892" lon="9.271180878847455"><ele>198.0</ele><time>2026-05-01T09:19:14Z</time></trkpt><trkpt lat="46.0044203663411" lon="9.271245967990616"><ele>198.0</ele><time>2026-05-01T09:19:16Z</time></trkpt><trkpt lat="46.004497022545074" lon="9.27134571975708"><ele>198.0</ele><time>2026-05-01T09:19:18Z</time></trkpt><trkpt lat="46.004559599607624" lon="9.271387415303819"><ele>198.0</ele><time>2026-05-01T09:19:20Z</time></trkpt><trkpt lat="46.0046437037874" lon="9.271474348982757"><ele>198.0</ele><time>2026-05-01T09:19:21Z</time></trkpt><trkpt lat="46.00471420078199" lon="9.271479032477037"><ele>198.0</ele><time>2026-05-01T09:19:23Z</time></trkpt><trkpt lat="46.0047812627151" lon="9.271555398588266"><ele>198.0</ele><time>2026-05-01T09:19:24Z</time></trkpt><trkpt lat="46.004875411773135" lon="9.271653389903472"><ele>198.0</ele><time>2026-05-01T09:19:26Z</time></trkpt><trkpt lat="46.00493557589045" lon="9.271716330474984"><ele>198.0</ele><time>2026-05-01T09:19:28Z</time></trkpt><trkpt lat="46.004984426937135" lon="9.271781579991254"><ele>198.0</ele><time>2026-05-01T09:19:29Z</time></trkpt><trkpt lat="46.005039858335174" lon="9.27187551440837"><ele>198.0</ele><time>2026-05-01T09:19:31Z</time></trkpt><trkpt lat="46.00513862659937" lon="9.271934035313782"><ele>198.0</ele><time>2026-05-01T09:19:32.999Z</time></trkpt><trkpt lat="46.005203992775925" lon="9.271999198200728"><ele>198.0</ele><time>2026-05-01T09:19:34.999Z</time></trkpt><trkpt lat="46.00527153519229" lon="9.272147527170606"><ele>198.0</ele><time>2026-05-01T09:19:36.999Z</time></trkpt><trkpt lat="46.00532596662132" lon="9.27227051299993"><ele>198.0</ele><time>2026-05-01T09:19:38.999Z</time></trkpt><trkpt lat="46.00539077975808" lon="9.272349975953489"><ele>198.0</ele><time>2026-05-01T09:19:40.999Z</time></trkpt><trkpt lat="46.00547665839964" lon="9.272415420339163"><ele>198.0</ele><time>2026-05-01T09:19:42.999Z</time></trkpt><trkpt lat="46.005547858847386" lon="9.272519751590625"><ele>198.0</ele><time>2026-05-01T09:19:44.999Z</time></trkpt><trkpt lat="46.00559594041917" lon="9.272610343115078"><ele>198.0</ele><time>2026-05-01T09:19:46.999Z</time></trkpt><trkpt lat="46.00566396039478" lon="9.272703915560783"><ele>198.0</ele><time>2026-05-01T09:19:48.999Z</time></trkpt><trkpt lat="46.005761279314726" lon="9.27280119688719"><ele>198.0</ele><time>2026-05-01T09:19:50.999Z</time></trkpt><trkpt lat="46.00583573899446" lon="9.272891562214873"><ele>198.0</ele><time>2026-05-01T09:19:52.999Z</time></trkpt><trkpt lat="46.00589113575632" lon="9.27297595530209"><ele>198.0</ele><time>2026-05-01T09:19:53.999Z</time></trkpt><trkpt lat="46.00598124848744" lon="9.273045515446261"><ele>198.0</ele><time>2026-05-01T09:19:55.999Z</time></trkpt><trkpt lat="46.00605037734289" lon="9.273114065250123"><ele>198.0</ele><time>2026-05-01T09:19:57.999Z</time></trkpt><trkpt lat="46.006109256463226" lon="9.273181178156069"><ele>198.0</ele><time>2026-05-01T09:19:59.999Z</time></trkpt><trkpt lat="46.006186622686286" lon="9.273287156007827"><ele>198.0</ele><time>2026-05-01T09:20:01.999Z</time></trkpt><trkpt lat="46.00625262172308" lon="9.273334874662849"><ele>198.0</ele><time>2026-05-01T09:20:02.999Z</time></trkpt><trkpt lat="46.00631229694498" lon="9.273366256853155"><ele>198.0</ele><time>2026-05-01T09:20:03.999Z</time></trkpt><trkpt lat="46.006399426126954" lon="9.273467902794213"><ele>198.0</ele><time>2026-05-01T09:20:05.999Z</time></trkpt><trkpt lat="46.006469597219215" lon="9.273561669922753"><ele>198.0</ele><time>2026-05-01T09:20:07.999Z</time></trkpt><trkpt lat="46.00654821771257" lon="9.273647724149496"><ele>198.0</ele><time>2026-05-01T09:20:09.999Z</time></trkpt><trkpt lat="46.00662367880703" lon="9.273742008077472"><ele>198.0</ele><time>2026-05-01T09:20:11.999Z</time></trkpt><trkpt lat="46.00670179018191" lon="9.273833853500395"><ele>198.0</ele><time>2026-05-01T09:20:13.999Z</time></trkpt><trkpt lat="46.00678147554595" lon="9.27392179098794"><ele>198.0</ele><time>2026-05-01T09:20:15.999Z</time></trkpt><trkpt lat="46.006843159260555" lon="9.273973542625018"><ele>198.0</ele><time>2026-05-01T09:20:16.999Z</time></trkpt><trkpt lat="46.00691688255313" lon="9.274059079914773"><ele>198.0</ele><time>2026-05-01T09:20:18.999Z</time></trkpt><trkpt lat="46.00697079677486" lon="9.274140826378751"><ele>198.0</ele><time>2026-05-01T09:20:21.999Z</time></trkpt><trkpt lat="46.007056209760016" lon="9.274258722145111"><ele>198.0</ele><time>2026-05-01T09:20:23.999Z</time></trkpt><trkpt lat="46.007133894935535" lon="9.274344096294977"><ele>198.0</ele><time>2026-05-01T09:20:25.999Z</time></trkpt><trkpt lat="46.007210544848604" lon="9.274448800071422"><ele>198.0</ele><time>2026-05-01T09:20:27.999Z</time></trkpt><trkpt lat="46.007293831999036" lon="9.274543167138464"><ele>198.0</ele><time>2026-05-01T09:20:29.999Z</time></trkpt><trkpt lat="46.00735274039892" lon="9.274604209244231"><ele>198.0</ele><time>2026-05-01T09:20:31.999Z</time></trkpt><trkpt lat="46.00742028867736" lon="9.274717719482284"><ele>198.0</ele><time>2026-05-01T09:20:34Z</time></trkpt><trkpt lat="46.007518680262656" lon="9.274800084609975"><ele>198.0</ele><time>2026-05-01T09:20:36Z</time></trkpt><trkpt lat="46.00759604176512" lon="9.274889096039912"><ele>198.0</ele><time>2026-05-01T09:20:38Z</time></trkpt><trkpt lat="46.0076847062696" lon="9.274985912542585"><ele>198.0</ele><time>2026-05-01T09:20:40Z</time></trkpt><trkpt lat="46.00775618328399" lon="9.275081088589626"><ele>198.0</ele><time>2026-05-01T09:20:43Z</time></trkpt><trkpt lat="46.00786386666103" lon="9.275225834112067"><ele>198.0</ele><time>2026-05-01T09:20:47Z</time></trkpt><trkpt lat="46.00795987515204" lon="9.275334611062691"><ele>198.0</ele><time>2026-05-01T09:20:49Z</time></trkpt><trkpt lat="46.0080481892302" lon="9.275405755627713"><ele>198.0</ele><time>2026-05-01T09:20:52Z</time></trkpt><trkpt lat="46.00809628285994" lon="9.275468900254758"><ele>198.0</ele><time>2026-05-01T09:20:53Z</time></trkpt><trkpt lat="46.008177815455895" lon="9.275550756571958"><ele>198.0</ele><time>2026-05-01T09:20:55Z</time></trkpt><trkpt lat="46.00823599495549" lon="9.27560487915228"><ele>198.0</ele><time>2026-05-01T09:20:56Z</time></trkpt><trkpt lat="46.00829735340363" lon="9.275687418019016"><ele>198.0</ele><time>2026-05-01T09:20:57Z</time></trkpt><trkpt lat="46.00837847180653" lon="9.275749769720779"><ele>198.0</ele><time>2026-05-01T09:20:59Z</time></trkpt><trkpt lat="46.00847215238622" lon="9.27584402237972"><ele>198.0</ele><time>2026-05-01T09:21:01Z</time></trkpt><trkpt lat="46.0085643918295" lon="9.275914371201019"><ele>198.0</ele><time>2026-05-01T09:21:02Z</time></trkpt><trkpt lat="46.00863199567343" lon="9.275981576385432"><ele>198.0</ele><time>2026-05-01T09:21:04Z</time></trkpt><trkpt lat="46.00871765011816" lon="9.276072560027918"><ele>198.0</ele><time>2026-05-01T09:21:06Z</time></trkpt><trkpt lat="46.00880209513061" lon="9.276165477666014"><ele>198.0</ele><time>2026-05-01T09:21:08Z</time></trkpt><trkpt lat="46.008885667385734" lon="9.27627028579575"><ele>198.0</ele><time>2026-05-01T09:21:10Z</time></trkpt><trkpt lat="46.00895780256153" lon="9.276375271223786"><ele>198.0</ele><time>2026-05-01T09:21:12Z</time></trkpt><trkpt lat="46.00904048816421" lon="9.276470561735174"><ele>198.0</ele><time>2026-05-01T09:21:14Z</time></trkpt><trkpt lat="46.00913131646711" lon="9.276576017770514"><ele>198.0</ele><time>2026-05-01T09:21:16Z</time></trkpt><trkpt lat="46.00921207156459" lon="9.276657645881505"><ele>198.0</ele><time>2026-05-01T09:21:18Z</time></trkpt><trkpt lat="46.009283352391336" lon="9.27676715146397"><ele>198.0</ele><time>2026-05-01T09:21:20Z</time></trkpt><trkpt lat="46.00936769934798" lon="9.27685992687974"><ele>198.0</ele><time>2026-05-01T09:21:22Z</time></trkpt><trkpt lat="46.00943415009137" lon="9.276959222233481"><ele>198.0</ele><time>2026-05-01T09:21:24Z</time></trkpt><trkpt lat="46.009525273354924" lon="9.277039847615965"><ele>198.0</ele><time>2026-05-01T09:21:26Z</time></trkpt><trkpt lat="46.00960796409456" lon="9.27715621741888"><ele>198.0</ele><time>2026-05-01T09:21:28Z</time></trkpt><trkpt lat="46.009673748311904" lon="9.2772608818944"><ele>198.0</ele><time>2026-05-01T09:21:30Z</time></trkpt><trkpt lat="46.00974950449997" lon="9.277363285719511"><ele>198.0</ele><time>2026-05-01T09:21:32Z</time></trkpt><trkpt lat="46.00981058901343" lon="9.277460143495682"><ele>198.0</ele><time>2026-05-01T09:21:34Z</time></trkpt><trkpt lat="46.00988771474599" lon="9.277543361107002"><ele>198.0</ele><time>2026-05-01T09:21:36Z</time></trkpt><trkpt lat="46.00994082914339" lon="9.277602269702227"><ele>198.0</ele><time>2026-05-01T09:21:37Z</time></trkpt><trkpt lat="46.010029329505265" lon="9.277679984284154"><ele>198.0</ele><time>2026-05-01T09:21:39Z</time></trkpt><trkpt lat="46.010108768645026" lon="9.277750919660104"><ele>198.0</ele><time>2026-05-01T09:21:41Z</time></trkpt><trkpt lat="46.01016642218304" lon="9.27785758269584"><ele>198.0</ele><time>2026-05-01T09:21:42.999Z</time></trkpt><trkpt lat="46.01025397385186" lon="9.27794343648115"><ele>198.0</ele><time>2026-05-01T09:21:44.999Z</time></trkpt><trkpt lat="46.01033135768035" lon="9.278014487814431"><ele>198.0</ele><time>2026-05-01T09:21:46.999Z</time></trkpt><trkpt lat="46.01040278738814" lon="9.278108845690765"><ele>198.0</ele><time>2026-05-01T09:21:48.999Z</time></trkpt><trkpt lat="46.01047825280906" lon="9.278215528707104"><ele>198.0</ele><time>2026-05-01T09:21:50.999Z</time></trkpt><trkpt lat="46.01052591236007" lon="9.278297881190241"><ele>198.0</ele><time>2026-05-01T09:21:54.999Z</time></trkpt><trkpt lat="46.01055328509701" lon="9.278381487794249"><ele>198.0</ele><time>2026-05-01T09:21:56.999Z</time></trkpt><trkpt lat="46.01061159305711" lon="9.278479448016277"><ele>198.0</ele><time>2026-05-01T09:21:58.999Z</time></trkpt><trkpt lat="46.01064409803266" lon="9.278597851329678"><ele>198.0</ele><time>2026-05-01T09:22:01.999Z</time></trkpt><trkpt lat="46.010704057896376" lon="9.278702761383071"><ele>198.0</ele><time>2026-05-01T09:22:03.999Z</time></trkpt><trkpt lat="46.01076046102604" lon="9.278796440313636"><ele>198.0</ele><time>2026-05-01T09:22:06.999Z</time></trkpt><trkpt lat="46.01081867251175" lon="9.278876046860853"><ele>198.0</ele><time>2026-05-01T09:22:07.999Z</time></trkpt><trkpt lat="46.01089088876154" lon="9.2789937718507"><ele>198.0</ele><time>2026-05-01T09:22:09.999Z</time></trkpt><trkpt lat="46.01094167462676" lon="9.279066743765492"><ele>198.0</ele><time>2026-05-01T09:22:10.999Z</time></trkpt><trkpt lat="46.01102054708345" lon="9.279185751094893"><ele>198.0</ele><time>2026-05-01T09:22:12.999Z</time></trkpt><trkpt lat="46.01110140553433" lon="9.279309050377794"><ele>198.0</ele><time>2026-05-01T09:22:14.999Z</time></trkpt><trkpt lat="46.011184698651576" lon="9.279431038529097"><ele>198.0</ele><time>2026-05-01T09:22:16.999Z</time></trkpt><trkpt lat="46.01127213239332" lon="9.279548124143506"><ele>198.0</ele><time>2026-05-01T09:22:18.999Z</time></trkpt><trkpt lat="46.01134579765139" lon="9.279673366711622"><ele>198.0</ele><time>2026-05-01T09:22:20.999Z</time></trkpt><trkpt lat="46.01140989949914" lon="9.279754297774106"><ele>198.0</ele><time>2026-05-01T09:22:22.999Z</time></trkpt><trkpt lat="46.01149658247413" lon="9.279853608491887"><ele>198.0</ele><time>2026-05-01T09:22:24.999Z</time></trkpt><trkpt lat="46.01157100122516" lon="9.27991639280895"><ele>198.0</ele><time>2026-05-01T09:22:26.999Z</time></trkpt><trkpt lat="46.01163539068332" lon="9.279983628245512"><ele>198.0</ele><time>2026-05-01T09:22:28.999Z</time></trkpt><trkpt lat="46.0116849969365" lon="9.280039943202393"><ele>198.0</ele><time>2026-05-01T09:22:29.999Z</time></trkpt><trkpt lat="46.01173761870255" lon="9.280154528322788"><ele>198.0</ele><time>2026-05-01T09:22:31.999Z</time></trkpt><trkpt lat="46.011813129447795" lon="9.280216683438914"><ele>198.0</ele><time>2026-05-01T09:22:33.999Z</time></trkpt><trkpt lat="46.011881740782655" lon="9.28032403146581"><ele>198.0</ele><time>2026-05-01T09:22:35.999Z</time></trkpt><trkpt lat="46.01194150712648" lon="9.280422023108343"><ele>198.0</ele><time>2026-05-01T09:22:37.999Z</time></trkpt><trkpt lat="46.0119986250795" lon="9.28051937675886"><ele>198.0</ele><time>2026-05-01T09:22:40Z</time></trkpt><trkpt lat="46.012073423454154" lon="9.280608914207399"><ele>198.0</ele><time>2026-05-01T09:22:42Z</time></trkpt><trkpt lat="46.012127019621616" lon="9.280702249377374"><ele>198.0</ele><time>2026-05-01T09:22:44Z</time></trkpt><trkpt lat="46.01218204051905" lon="9.280797374452883"><ele>198.0</ele><time>2026-05-01T09:22:46Z</time></trkpt><trkpt lat="46.01224184411939" lon="9.280894731447871"><ele>198.0</ele><time>2026-05-01T09:22:48Z</time></trkpt><trkpt lat="46.012282760936564" lon="9.280993578104708"><ele>198.0</ele><time>2026-05-01T09:22:50Z</time></trkpt><trkpt lat="46.012340201244" lon="9.281065844153758"><ele>198.0</ele><time>2026-05-01T09:22:52Z</time></trkpt><trkpt lat="46.012385399315704" lon="9.281165903536738"><ele>198.0</ele><time>2026-05-01T09:22:54Z</time></trkpt><trkpt lat="46.012433906188534" lon="9.28126593595757"><ele>198.0</ele><time>2026-05-01T09:22:56Z</time></trkpt><trkpt lat="46.01248498084222" lon="9.281357866346436"><ele>198.0</ele><time>2026-05-01T09:22:58Z</time></trkpt><trkpt lat="46.012528596587" lon="9.28143820891709"><ele>198.0</ele><time>2026-05-01T09:23:00Z</time></trkpt><trkpt lat="46.01256810591961" lon="9.281516229450373"><ele>198.0</ele><time>2026-05-01T09:23:02Z</time></trkpt><trkpt lat="46.012611394834394" lon="9.281583606162526"><ele>198.0</ele><time>2026-05-01T09:23:04Z</time></trkpt><trkpt lat="46.012666095589445" lon="9.281649467263248"><ele>198.0</ele><time>2026-05-01T09:23:06Z</time></trkpt><trkpt lat="46.01269711970932" lon="9.281729880212255"><ele>198.0</ele><time>2026-05-01T09:23:08Z</time></trkpt><trkpt lat="46.01275760833046" lon="9.281825759645043"><ele>198.0</ele><time>2026-05-01T09:23:11Z</time></trkpt><trkpt lat="46.01282062815451" lon="9.281920485642091"><ele>198.0</ele><time>2026-05-01T09:23:14Z</time></trkpt><trkpt lat="46.01288178633463" lon="9.282009674928318"><ele>198.0</ele><time>2026-05-01T09:23:17Z</time></trkpt><trkpt lat="46.01294122318389" lon="9.282107327845253"><ele>198.0</ele><time>2026-05-01T09:23:20Z</time></trkpt><trkpt lat="46.01299101395433" lon="9.282195365286757"><ele>198.0</ele><time>2026-05-01T09:23:23Z</time></trkpt><trkpt lat="46.01303481428004" lon="9.282268180464216"><ele>198.0</ele><time>2026-05-01T09:23:26Z</time></trkpt><trkpt lat="46.01307771351883" lon="9.282336236059523"><ele>198.0</ele><time>2026-05-01T09:23:29Z</time></trkpt><trkpt lat="46.013129966570546" lon="9.282416504456354"><ele>198.0</ele><time>2026-05-01T09:23:33Z</time></trkpt><trkpt lat="46.01317914513142" lon="9.282484314799712"><ele>198.0</ele><time>2026-05-01T09:23:37Z</time></trkpt><trkpt lat="46.01323868698494" lon="9.282547422284475"><ele>198.25</ele><time>2026-05-01T09:23:41Z</time></trkpt><trkpt lat="46.01343565204187" lon="9.28267112726086"><ele>198.5</ele><time>2026-05-01T09:25:07Z</time></trkpt><trkpt lat="46.01349182330459" lon="9.282769424755674"><ele>198.75</ele><time>2026-05-01T09:25:22Z</time></trkpt><trkpt lat="46.01353939972515" lon="9.282867368103261"><ele>199.0</ele><time>2026-05-01T09:25:25Z</time></trkpt><trkpt lat="46.01361469489497" lon="9.282945449912784"><ele>198.99999999999997</ele><time>2026-05-01T09:25:27.999Z</time></trkpt><trkpt lat="46.01367603791884" lon="9.282975900494558"><ele>199.0</ele><time>2026-05-01T09:25:29.999Z</time></trkpt><trkpt lat="46.0137591984274" lon="9.282999500196844"><ele>199.0</ele><time>2026-05-01T09:25:32.999Z</time></trkpt><trkpt lat="46.01382550673744" lon="9.282969682629055"><ele>199.0</ele><time>2026-05-01T09:25:35.999Z</time></trkpt><trkpt lat="46.01389055868394" lon="9.28293913631731"><ele>198.99999999999997</ele><time>2026-05-01T09:25:38.999Z</time></trkpt><trkpt lat="46.01396409285839" lon="9.282919172969109"><ele>199.0</ele><time>2026-05-01T09:25:42.999Z</time></trkpt><trkpt lat="46.01410385739432" lon="9.282939443785514"><ele>198.99999999999997</ele><time>2026-05-01T09:25:54.999Z</time></trkpt><trkpt lat="46.014182514444336" lon="9.282942239602745"><ele>199.0</ele><time>2026-05-01T09:25:59.999Z</time></trkpt><trkpt lat="46.01425180510659" lon="9.28297258705901"><ele>199.0</ele><time>2026-05-01T09:26:02.999Z</time></trkpt><trkpt lat="46.01431347555385" lon="9.283002918600646"><ele>199.0</ele><time>2026-05-01T09:26:04.999Z</time></trkpt><trkpt lat="46.01439686455217" lon="9.283022717519065"><ele>198.99999999999997</ele><time>2026-05-01T09:26:06.999Z</time></trkpt><trkpt lat="46.01448442830191" lon="9.283037181453166"><ele>199.0</ele><time>2026-05-01T09:26:08.999Z</time></trkpt><trkpt lat="46.01454635247273" lon="9.283066259959629"><ele>200.39999999999998</ele><time>2026-05-01T09:26:10.999Z</time></trkpt><trkpt lat="46.01460888258687" lon="9.28315484079322"><ele>201.8</ele><time>2026-05-01T09:26:13.999Z</time></trkpt><trkpt lat="46.01462956878523" lon="9.283251512437612"><ele>203.2</ele><time>2026-05-01T09:26:15.999Z</time></trkpt><trkpt lat="46.01463352995276" lon="9.283397536281205"><ele>204.60000000000002</ele><time>2026-05-01T09:26:17.999Z</time></trkpt><trkpt lat="46.01461343950666" lon="9.283582252352144"><ele>206.0</ele><time>2026-05-01T09:26:19.999Z</time></trkpt><trkpt lat="46.01461709872815" lon="9.283682918273179"><ele>205.99999999999997</ele><time>2026-05-01T09:26:20.999Z</time></trkpt><trkpt lat="46.01462085041727" lon="9.283786128019768"><ele>206.0</ele><time>2026-05-01T09:26:21.999Z</time></trkpt><trkpt lat="46.0146245739549" lon="9.28388856328321"><ele>206.0</ele><time>2026-05-01T09:26:22.999Z</time></trkpt><trkpt lat="46.01462796209469" lon="9.283981771654478"><ele>206.0</ele><time>2026-05-01T09:26:23.999Z</time></trkpt><trkpt lat="46.01464303544398" lon="9.28411686875202"><ele>206.0</ele><time>2026-05-01T09:26:25.999Z</time></trkpt><trkpt lat="46.014647209285435" lon="9.284212250050116"><ele>205.99999999999997</ele><time>2026-05-01T09:26:27.999Z</time></trkpt><trkpt lat="46.01463005088836" lon="9.284311653245227"><ele>206.0</ele><time>2026-05-01T09:26:36.999Z</time></trkpt><trkpt lat="46.014681956326186" lon="9.284404816780308"><ele>206.16666666666669</ele><time>2026-05-01T09:26:52Z</time></trkpt><trkpt lat="46.014757574486104" lon="9.284448042245453"><ele>206.33333333333334</ele><time>2026-05-01T09:26:55Z</time></trkpt><trkpt lat="46.01482690670922" lon="9.284495174522322"><ele>206.5</ele><time>2026-05-01T09:26:59Z</time></trkpt><trkpt lat="46.01489110907688" lon="9.284530604761978"><ele>206.66666666666669</ele><time>2026-05-01T09:27:01Z</time></trkpt><trkpt lat="46.01497191720131" lon="9.284571159026433"><ele>206.83333333333334</ele><time>2026-05-01T09:27:03Z</time></trkpt><trkpt lat="46.01505501837999" lon="9.28460751002575"><ele>207.0</ele><time>2026-05-01T09:27:05Z</time></trkpt><trkpt lat="46.01513485891674" lon="9.284656600371566"><ele>207.0</ele><time>2026-05-01T09:27:07Z</time></trkpt><trkpt lat="46.01523892186852" lon="9.284709577470498"><ele>207.0</ele><time>2026-05-01T09:27:09Z</time></trkpt><trkpt lat="46.01535514997597" lon="9.28477235821273"><ele>207.0</ele><time>2026-05-01T09:27:11Z</time></trkpt><trkpt lat="46.01541831771578" lon="9.284799882539096"><ele>207.0</ele><time>2026-05-01T09:27:12Z</time></trkpt><trkpt lat="46.015481036295846" lon="9.284829652267602"><ele>207.0</ele><time>2026-05-01T09:27:13Z</time></trkpt><trkpt lat="46.01553899168943" lon="9.284874112305511"><ele>207.0</ele><time>2026-05-01T09:27:14Z</time></trkpt><trkpt lat="46.01560171554388" lon="9.284917507150395"><ele>207.57142857142858</ele><time>2026-05-01T09:27:15Z</time></trkpt><trkpt lat="46.01566562010167" lon="9.284969323102391"><ele>208.14285714285714</ele><time>2026-05-01T09:27:16Z</time></trkpt><trkpt lat="46.01572377010905" lon="9.28503948827612"><ele>208.71428571428572</ele><time>2026-05-01T09:27:17Z</time></trkpt><trkpt lat="46.01577417775947" lon="9.285114118359479"><ele>209.28571428571428</ele><time>2026-05-01T09:27:18Z</time></trkpt><trkpt lat="46.01581742523481" lon="9.285196982333293"><ele>209.85714285714286</ele><time>2026-05-01T09:27:19Z</time></trkpt><trkpt lat="46.01585907168352" lon="9.28528383947977"><ele>210.42857142857144</ele><time>2026-05-01T09:27:20Z</time></trkpt><trkpt lat="46.015898092302784" lon="9.285378565440839"><ele>211.0</ele><time>2026-05-01T09:27:21Z</time></trkpt><trkpt lat="46.01593094965149" lon="9.285461001957636"><ele>211.66666666666666</ele><time>2026-05-01T09:27:22Z</time></trkpt><trkpt lat="46.0159840054634" lon="9.285603157662248"><ele>212.33333333333331</ele><time>2026-05-01T09:27:24Z</time></trkpt><trkpt lat="46.01601799509898" lon="9.28568128499021"><ele>213.0</ele><time>2026-05-01T09:27:25Z</time></trkpt><trkpt lat="46.01605583765113" lon="9.285761149052616"><ele>213.66666666666669</ele><time>2026-05-01T09:27:26Z</time></trkpt><trkpt lat="46.016094079857254" lon="9.285845510346947"><ele>214.33333333333334</ele><time>2026-05-01T09:27:27Z</time></trkpt><trkpt lat="46.01613732625709" lon="9.285971803866046"><ele>215.0</ele><time>2026-05-01T09:27:29Z</time></trkpt><trkpt lat="46.01619190879074" lon="9.286101320947527"><ele>215.0</ele><time>2026-05-01T09:27:31Z</time></trkpt><trkpt lat="46.01624543237335" lon="9.286243523369937"><ele>215.0</ele><time>2026-05-01T09:27:33Z</time></trkpt><trkpt lat="46.016304430423766" lon="9.286381334640138"><ele>215.0</ele><time>2026-05-01T09:27:35Z</time></trkpt><trkpt lat="46.01637079946559" lon="9.286535064708714"><ele>215.0</ele><time>2026-05-01T09:27:37Z</time></trkpt><trkpt lat="46.01640555233898" lon="9.286625619949024"><ele>215.0</ele><time>2026-05-01T09:27:38Z</time></trkpt><trkpt lat="46.016444069310204" lon="9.286707586004033"><ele>215.83333333333334</ele><time>2026-05-01T09:27:39Z</time></trkpt><trkpt lat="46.01648695073903" lon="9.286792326449373"><ele>216.66666666666669</ele><time>2026-05-01T09:27:40Z</time></trkpt><trkpt lat="46.016540462413815" lon="9.286864910679977"><ele>217.5</ele><time>2026-05-01T09:27:41Z</time></trkpt><trkpt lat="46.016597354338515" lon="9.286932574322723"><ele>218.33333333333331</ele><time>2026-05-01T09:27:42Z</time></trkpt><trkpt lat="46.01665391311922" lon="9.286999003860895"><ele>219.16666666666666</ele><time>2026-05-01T09:27:43Z</time></trkpt><trkpt lat="46.016735183521256" lon="9.287110180125381"><ele>220.0</ele><time>2026-05-01T09:27:45Z</time></trkpt><trkpt lat="46.01678374893921" lon="9.287203176846287"><ele>219.99999999999997</ele><time>2026-05-01T09:27:47Z</time></trkpt><trkpt lat="46.01683828801615" lon="9.287262916304305"><ele>220.0</ele><time>2026-05-01T09:27:49.999Z</time></trkpt><trkpt lat="46.01679621781687" lon="9.287152872722311"><ele>220.0</ele><time>2026-05-01T09:27:54.017Z</time></trkpt><trkpt lat="46.01671226993536" lon="9.287089448110924"><ele>220.0</ele><time>2026-05-01T09:27:55.009Z</time></trkpt><trkpt lat="46.01662896646733" lon="9.287040680488259"><ele>219.99999999999997</ele><time>2026-05-01T09:27:56.012Z</time></trkpt><trkpt lat="46.016549632305924" lon="9.286992083474574"><ele>220.0</ele><time>2026-05-01T09:27:57.017Z</time></trkpt><trkpt lat="46.01645650262691" lon="9.28693846972518"><ele>237.0</ele><time>2026-05-01T09:27:58.014Z</time></trkpt><trkpt lat="46.017938596239325" lon="9.287344012418098"><ele>237.0</ele><time>2026-05-01T09:28:03.999Z</time></trkpt><trkpt lat="46.01802399948687" lon="9.287365009563242"><ele>237.0</ele><time>2026-05-01T09:28:05.999Z</time></trkpt><trkpt lat="46.0181151334092" lon="9.287338081951505"><ele>237.0</ele><time>2026-05-01T09:28:08.999Z</time></trkpt><trkpt lat="46.0182361620279" lon="9.287342269169185"><ele>237.0</ele><time>2026-05-01T09:28:10.999Z</time></trkpt><trkpt lat="46.01831156489476" lon="9.287313435067423"><ele>237.0</ele><time>2026-05-01T09:28:11.999Z</time></trkpt><trkpt lat="46.01839727404779" lon="9.28725040393605"><ele>229.8</ele><time>2026-05-01T09:28:12.999Z</time></trkpt><trkpt lat="46.01849043357951" lon="9.2871700059947"><ele>222.6</ele><time>2026-05-01T09:28:13.999Z</time></trkpt><trkpt lat="46.018576212604394" lon="9.28708512280936"><ele>215.4</ele><time>2026-05-01T09:28:14.999Z</time></trkpt><trkpt lat="46.01866340718573" lon="9.287010616442876"><ele>208.20000000000002</ele><time>2026-05-01T09:28:15.999Z</time></trkpt><trkpt lat="46.01875874488849" lon="9.286938043263568"><ele>201.0</ele><time>2026-05-01T09:28:16.999Z</time></trkpt><trkpt lat="46.018876078919554" lon="9.286861250304005"><ele>201.0</ele><time>2026-05-01T09:28:17.999Z</time></trkpt><trkpt lat="46.01900721567494" lon="9.286806554581862"><ele>201.0</ele><time>2026-05-01T09:28:18.999Z</time></trkpt><trkpt lat="46.01914069293945" lon="9.286768392578212"><ele>201.0</ele><time>2026-05-01T09:28:19.999Z</time></trkpt><trkpt lat="46.01927240531431" lon="9.286751234523932"><ele>201.0</ele><time>2026-05-01T09:28:20.999Z</time></trkpt><trkpt lat="46.019410852050264" lon="9.286748608101918"><ele>202.25</ele><time>2026-05-01T09:28:21.999Z</time></trkpt><trkpt lat="46.01953441626071" lon="9.286794800957813"><ele>203.5</ele><time>2026-05-01T09:28:22.999Z</time></trkpt><trkpt lat="46.01966170072759" lon="9.286826566161944"><ele>204.75</ele><time>2026-05-01T09:28:23.999Z</time></trkpt><trkpt lat="46.01978584190478" lon="9.286850101478954"><ele>206.0</ele><time>2026-05-01T09:28:24.999Z</time></trkpt><trkpt lat="46.019917066156545" lon="9.28687735434625"><ele>210.0</ele><time>2026-05-01T09:28:26.011Z</time></trkpt><trkpt lat="46.020043027227665" lon="9.286901742936976"><ele>214.0</ele><time>2026-05-01T09:28:27.02Z</time></trkpt><trkpt lat="46.020167887897685" lon="9.286926504787976"><ele>218.0</ele><time>2026-05-01T09:28:28.01Z</time></trkpt><trkpt lat="46.020339804755295" lon="9.287061301922794"><ele>222.0</ele><time>2026-05-01T09:28:29.012Z</time></trkpt><trkpt lat="46.02048865387708" lon="9.287098402345373"><ele>321.0</ele><time>2026-05-01T09:28:30.02Z</time></trkpt><trkpt lat="46.021879326831026" lon="9.286664998852375"><ele>321.0</ele><time>2026-05-01T09:28:33.104Z</time></trkpt><trkpt lat="46.02231974937326" lon="9.286528403998568"><ele>275.5</ele><time>2026-05-01T09:28:34.106Z</time></trkpt><trkpt lat="46.02273801571041" lon="9.286293325337937"><ele>230.0</ele><time>2026-05-01T09:28:35.105Z</time></trkpt><trkpt lat="46.02314816079652" lon="9.286032520423799"><ele>222.0</ele><time>2026-05-01T09:28:36.103Z</time></trkpt><trkpt lat="46.023497370173786" lon="9.28562744265932"><ele>214.0</ele><time>2026-05-01T09:28:37.102Z</time></trkpt><trkpt lat="46.02505235433688" lon="9.284431402016544"><ele>214.0</ele><time>2026-05-01T09:28:41.106Z</time></trkpt><trkpt lat="46.02547935147943" lon="9.284232359529675"><ele>214.0</ele><time>2026-05-01T09:28:42.104Z</time></trkpt><trkpt lat="46.025908369032166" lon="9.284041612387131"><ele>234.0</ele><time>2026-05-01T09:28:43.102Z</time></trkpt><trkpt lat="46.02417645672956" lon="9.284792244091658"><ele>234.0</ele><time>2026-05-01T09:28:55.999Z</time></trkpt><trkpt lat="46.02433201580617" lon="9.284779043141555"><ele>234.0</ele><time>2026-05-01T09:28:56.999Z</time></trkpt><trkpt lat="46.02448067197682" lon="9.284714365959289"><ele>234.0</ele><time>2026-05-01T09:28:57.999Z</time></trkpt><trkpt lat="46.02465941059952" lon="9.284634978150683"><ele>227.33333333333331</ele><time>2026-05-01T09:28:58.999Z</time></trkpt><trkpt lat="46.02483412511937" lon="9.284556461800943"><ele>220.66666666666666</ele><time>2026-05-01T09:28:59.999Z</time></trkpt><trkpt lat="46.02500272287586" lon="9.28448848174941"><ele>214.0</ele><time>2026-05-01T09:29:01Z</time></trkpt><trkpt lat="46.025186406026094" lon="9.28441581473259"><ele>214.0</ele><time>2026-05-01T09:29:02Z</time></trkpt><trkpt lat="46.025377576918125" lon="9.284341552121258"><ele>214.0</ele><time>2026-05-01T09:29:03Z</time></trkpt><trkpt lat="46.025565728977035" lon="9.284261937365129"><ele>214.0</ele><time>2026-05-01T09:29:04.017Z</time></trkpt><trkpt lat="46.02575141245357" lon="9.284184587963827"><ele>213.0</ele><time>2026-05-01T09:29:05.013Z</time></trkpt><trkpt lat="46.02594189400047" lon="9.28411030497682"><ele>212.0</ele><time>2026-05-01T09:29:06.018Z</time></trkpt><trkpt lat="46.02613109932985" lon="9.284035081300845"><ele>211.0</ele><time>2026-05-01T09:29:07.011Z</time></trkpt><trkpt lat="46.02626752156092" lon="9.284120126347082"><ele>211.0</ele><time>2026-05-01T09:29:08Z</time></trkpt><trkpt lat="46.02628789728192" lon="9.284309362998808"><ele>211.0</ele><time>2026-05-01T09:29:11Z</time></trkpt><trkpt lat="46.02635249332897" lon="9.284449601249872"><ele>211.0</ele><time>2026-05-01T09:29:12Z</time></trkpt><trkpt lat="46.026417887251995" lon="9.284624563712017"><ele>211.0</ele><time>2026-05-01T09:29:13Z</time></trkpt><trkpt lat="46.02649557303034" lon="9.284797324348421"><ele>212.66666666666666</ele><time>2026-05-01T09:29:14Z</time></trkpt><trkpt lat="46.026581184125085" lon="9.28498439945988"><ele>214.33333333333331</ele><time>2026-05-01T09:29:15Z</time></trkpt><trkpt lat="46.02665543600827" lon="9.285174949044755"><ele>216.0</ele><time>2026-05-01T09:29:16Z</time></trkpt><trkpt lat="46.026746642511256" lon="9.28538475356298"><ele>216.0</ele><time>2026-05-01T09:29:17Z</time></trkpt><trkpt lat="46.02687056527948" lon="9.285579968185932"><ele>216.0</ele><time>2026-05-01T09:29:18Z</time></trkpt><trkpt lat="46.0270000248734" lon="9.285751892588388"><ele>216.0</ele><time>2026-05-01T09:29:19Z</time></trkpt><trkpt lat="46.02713955761257" lon="9.285922487257587"><ele>220.0</ele><time>2026-05-01T09:29:20Z</time></trkpt><trkpt lat="46.02727497521755" lon="9.28609895053289"><ele>224.0</ele><time>2026-05-01T09:29:21Z</time></trkpt><trkpt lat="46.027402177670446" lon="9.286275692379416"><ele>228.0</ele><time>2026-05-01T09:29:22Z</time></trkpt><trkpt lat="46.027525036498915" lon="9.286448311566843"><ele>228.0</ele><time>2026-05-01T09:29:23Z</time></trkpt><trkpt lat="46.02763191099345" lon="9.286611938556264"><ele>228.0</ele><time>2026-05-01T09:29:24Z</time></trkpt><trkpt lat="46.02772729465451" lon="9.286797331642079"><ele>228.0</ele><time>2026-05-01T09:29:25Z</time></trkpt><trkpt lat="46.02782306396415" lon="9.286998638777687"><ele>228.0</ele><time>2026-05-01T09:29:26Z</time></trkpt><trkpt lat="46.02784727487884" lon="9.287124726742542"><ele>228.0</ele><time>2026-05-01T09:29:27Z</time></trkpt><trkpt lat="46.02787339020648" lon="9.287284888128932"><ele>228.0</ele><time>2026-05-01T09:29:28Z</time></trkpt><trkpt lat="46.02793344898452" lon="9.287431613172028"><ele>228.0</ele><time>2026-05-01T09:29:29Z</time></trkpt><trkpt lat="46.02798134117529" lon="9.287572631769718"><ele>228.0</ele><time>2026-05-01T09:29:30Z</time></trkpt><trkpt lat="46.02802953971934" lon="9.28770109259138"><ele>228.2</ele><time>2026-05-01T09:29:31Z</time></trkpt><trkpt lat="46.028083300145006" lon="9.287820458310033"><ele>228.4</ele><time>2026-05-01T09:29:32Z</time></trkpt><trkpt lat="46.02814746493647" lon="9.287918060035773"><ele>228.59999999999997</ele><time>2026-05-01T09:29:33Z</time></trkpt><trkpt lat="46.02823322357248" lon="9.287997712062088"><ele>228.79999999999998</ele><time>2026-05-01T09:29:34Z</time></trkpt><trkpt lat="46.02834355530627" lon="9.288066682338368"><ele>229.0</ele><time>2026-05-01T09:29:35Z</time></trkpt><trkpt lat="46.02846549991186" lon="9.28814281815093"><ele>229.0</ele><time>2026-05-01T09:29:36Z</time></trkpt><trkpt lat="46.0285945503153" lon="9.288232803017765"><ele>229.0</ele><time>2026-05-01T09:29:37Z</time></trkpt><trkpt lat="46.028735743852174" lon="9.28834206025879"><ele>229.0</ele><time>2026-05-01T09:29:38Z</time></trkpt><trkpt lat="46.028848970461915" lon="9.288484707367232"><ele>229.0</ele><time>2026-05-01T09:29:39Z</time></trkpt><trkpt lat="46.02893459931318" lon="9.288581555763379"><ele>229.0</ele><time>2026-05-01T09:29:40Z</time></trkpt><trkpt lat="46.029076724324355" lon="9.288753935067234"><ele>229.0</ele><time>2026-05-01T09:29:41Z</time></trkpt><trkpt lat="46.029247890320285" lon="9.288951768942857"><ele>227.66666666666666</ele><time>2026-05-01T09:29:42Z</time></trkpt><trkpt lat="46.0293879730544" lon="9.289116160553107"><ele>226.33333333333331</ele><time>2026-05-01T09:29:43Z</time></trkpt><trkpt lat="46.02952307217462" lon="9.289255973433347"><ele>225.0</ele><time>2026-05-01T09:29:44Z</time></trkpt><trkpt lat="46.02964386494101" lon="9.289370221310115"><ele>225.0</ele><time>2026-05-01T09:29:45Z</time></trkpt><trkpt lat="46.02975541152973" lon="9.289465201772337"><ele>225.0</ele><time>2026-05-01T09:29:46Z</time></trkpt><trkpt lat="46.02985553618215" lon="9.289560389188143"><ele>225.0</ele><time>2026-05-01T09:29:47Z</time></trkpt><trkpt lat="46.02993527359431" lon="9.289668525274275"><ele>225.0</ele><time>2026-05-01T09:29:48Z</time></trkpt><trkpt lat="46.03000259560778" lon="9.289756052295902"><ele>224.42857142857147</ele><time>2026-05-01T09:29:49Z</time></trkpt><trkpt lat="46.03004996555955" lon="9.28985338026304"><ele>223.85714285714286</ele><time>2026-05-01T09:29:50Z</time></trkpt><trkpt lat="46.030088320319024" lon="9.289946307572857"><ele>223.2857142857143</ele><time>2026-05-01T09:29:51Z</time></trkpt><trkpt lat="46.030114812961045" lon="9.290029194405225"><ele>222.71428571428572</ele><time>2026-05-01T09:29:52Z</time></trkpt><trkpt lat="46.03015712665485" lon="9.29009680502502"><ele>222.14285714285717</ele><time>2026-05-01T09:29:53Z</time></trkpt><trkpt lat="46.030200581995736" lon="9.290165518171388"><ele>221.57142857142858</ele><time>2026-05-01T09:29:54Z</time></trkpt><trkpt lat="46.03025127849789" lon="9.290248620299119"><ele>221.0</ele><time>2026-05-01T09:29:55Z</time></trkpt><trkpt lat="46.030305587474245" lon="9.290351560840373"><ele>221.0</ele><time>2026-05-01T09:29:56Z</time></trkpt><trkpt lat="46.030351332433405" lon="9.290475152263399"><ele>221.00000000000003</ele><time>2026-05-01T09:29:57Z</time></trkpt><trkpt lat="46.03039899201082" lon="9.290627747162397"><ele>221.00000000000003</ele><time>2026-05-01T09:29:58Z</time></trkpt><trkpt lat="46.030427522229026" lon="9.290787307436986"><ele>221.0</ele><time>2026-05-01T09:29:59Z</time></trkpt><trkpt lat="46.03042878998107" lon="9.290916127457894"><ele>221.0</ele><time>2026-05-01T09:30:00Z</time></trkpt><trkpt lat="46.03044125441859" lon="9.291068258301818"><ele>227.33333333333334</ele><time>2026-05-01T09:30:01Z</time></trkpt><trkpt lat="46.03047813429696" lon="9.291392734364312"><ele>233.66666666666669</ele><time>2026-05-01T09:30:02Z</time></trkpt><trkpt lat="46.03047673376729" lon="9.29164464426928"><ele>240.0</ele><time>2026-05-01T09:30:03Z</time></trkpt><trkpt lat="46.03052524827881" lon="9.291811824714559"><ele>247.33333333333331</ele><time>2026-05-01T09:30:04Z</time></trkpt><trkpt lat="46.03059859952457" lon="9.292007791306292"><ele>254.66666666666666</ele><time>2026-05-01T09:30:05Z</time></trkpt><trkpt lat="46.03069090264932" lon="9.292217819994319"><ele>262.0</ele><time>2026-05-01T09:30:06Z</time></trkpt><trkpt lat="46.03079481005103" lon="9.292411486047136"><ele>251.33333333333331</ele><time>2026-05-01T09:30:07Z</time></trkpt><trkpt lat="46.0308979197361" lon="9.292609633575143"><ele>240.66666666666669</ele><time>2026-05-01T09:30:08Z</time></trkpt><trkpt lat="46.030996716170904" lon="9.292828427899417"><ele>230.0</ele><time>2026-05-01T09:30:09Z</time></trkpt><trkpt lat="46.031122090671595" lon="9.293003767789576"><ele>236.66666666666669</ele><time>2026-05-01T09:30:10Z</time></trkpt><trkpt lat="46.031252922110475" lon="9.293170335348766"><ele>243.33333333333331</ele><time>2026-05-01T09:30:11Z</time></trkpt><trkpt lat="46.03137234295594" lon="9.293323312008084"><ele>250.0</ele><time>2026-05-01T09:30:12Z</time></trkpt><trkpt lat="46.03149320523413" lon="9.29348472805578"><ele>250.0</ele><time>2026-05-01T09:30:13Z</time></trkpt><trkpt lat="46.0316211134888" lon="9.293687333117141"><ele>250.0</ele><time>2026-05-01T09:30:14Z</time></trkpt><trkpt lat="46.03172958675388" lon="9.293900357458234"><ele>250.0</ele><time>2026-05-01T09:30:15Z</time></trkpt><trkpt lat="46.03177225817714" lon="9.293991840177943"><ele>245.75</ele><time>2026-05-01T09:30:16Z</time></trkpt><trkpt lat="46.03182308176474" lon="9.294100782906416"><ele>241.5</ele><time>2026-05-01T09:30:17Z</time></trkpt><trkpt lat="46.03189578103899" lon="9.294256638086983"><ele>237.25</ele><time>2026-05-01T09:30:18Z</time></trkpt><trkpt lat="46.0319840851181" lon="9.294403237545527"><ele>233.0</ele><time>2026-05-01T09:30:19Z</time></trkpt><trkpt lat="46.03204350038893" lon="9.294570096426288"><ele>233.0</ele><time>2026-05-01T09:30:20Z</time></trkpt><trkpt lat="46.032118288912784" lon="9.29472500705988"><ele>233.0</ele><time>2026-05-01T09:30:21Z</time></trkpt><trkpt lat="46.0321935499628" lon="9.294874100363021"><ele>233.0</ele><time>2026-05-01T09:30:22Z</time></trkpt><trkpt lat="46.03228266548917" lon="9.295018824064005"><ele>233.0</ele><time>2026-05-01T09:30:23Z</time></trkpt><trkpt lat="46.03237736463902" lon="9.295170437041163"><ele>232.75</ele><time>2026-05-01T09:30:24Z</time></trkpt><trkpt lat="46.03246943240614" lon="9.295327248002229"><ele>232.5</ele><time>2026-05-01T09:30:25.011Z</time></trkpt><trkpt lat="46.03255356645753" lon="9.295490454831395"><ele>232.25</ele><time>2026-05-01T09:30:26.022Z</time></trkpt><trkpt lat="46.03262355519049" lon="9.295630457676973"><ele>232.0</ele><time>2026-05-01T09:30:27.017Z</time></trkpt><trkpt lat="46.03269535070694" lon="9.29577520209211"><ele>251.0</ele><time>2026-05-01T09:30:28.016Z</time></trkpt><trkpt lat="46.032938514879" lon="9.29613310844572"><ele>270.0</ele><time>2026-05-01T09:30:30Z</time></trkpt><trkpt lat="46.03303559686899" lon="9.2962795100553"><ele>270.0</ele><time>2026-05-01T09:30:31Z</time></trkpt><trkpt lat="46.03317675015607" lon="9.29641799879721"><ele>270.0</ele><time>2026-05-01T09:30:32Z</time></trkpt><trkpt lat="46.03332502603552" lon="9.296540145643878"><ele>270.0</ele><time>2026-05-01T09:30:33Z</time></trkpt><trkpt lat="46.03347965915092" lon="9.296739126731257"><ele>263.3333333333333</ele><time>2026-05-01T09:30:34Z</time></trkpt><trkpt lat="46.03362233408287" lon="9.296904256320838"><ele>256.66666666666663</ele><time>2026-05-01T09:30:35Z</time></trkpt><trkpt lat="46.03370506586057" lon="9.297045002305254"><ele>250.0</ele><time>2026-05-01T09:30:36Z</time></trkpt><trkpt lat="46.03383851874727" lon="9.297225479908823"><ele>259.0</ele><time>2026-05-01T09:30:36.999Z</time></trkpt><trkpt lat="46.033977979735134" lon="9.297410336535785"><ele>268.0</ele><time>2026-05-01T09:30:37.999Z</time></trkpt><trkpt lat="46.03411241671333" lon="9.297602390026716"><ele>277.0</ele><time>2026-05-01T09:30:38.999Z</time></trkpt><trkpt lat="46.03423132110922" lon="9.29784162986199"><ele>269.0</ele><time>2026-05-01T09:30:39.999Z</time></trkpt><trkpt lat="46.03434417671845" lon="9.298036123106883"><ele>261.0</ele><time>2026-05-01T09:30:40.999Z</time></trkpt><trkpt lat="46.03444976242428" lon="9.298179370042423"><ele>253.0</ele><time>2026-05-01T09:30:41.999Z</time></trkpt><trkpt lat="46.034569241743625" lon="9.298303342642503"><ele>253.0</ele><time>2026-05-01T09:30:42.999Z</time></trkpt><trkpt lat="46.03471553379461" lon="9.298430603128162"><ele>253.0</ele><time>2026-05-01T09:30:43.999Z</time></trkpt><trkpt lat="46.034834076600234" lon="9.298570895087463"><ele>253.0</ele><time>2026-05-01T09:30:44.999Z</time></trkpt><trkpt lat="46.0349212009423" lon="9.298744122518238"><ele>248.5</ele><time>2026-05-01T09:30:45.999Z</time></trkpt><trkpt lat="46.03500018725471" lon="9.298926517679702"><ele>244.0</ele><time>2026-05-01T09:30:46.999Z</time></trkpt><trkpt lat="46.03506508804362" lon="9.299102030720185"><ele>239.5</ele><time>2026-05-01T09:30:47.999Z</time></trkpt><trkpt lat="46.03515537775921" lon="9.299199590156924"><ele>235.0</ele><time>2026-05-01T09:30:48.999Z</time></trkpt><trkpt lat="46.035261156877674" lon="9.299338813304749"><ele>235.0</ele><time>2026-05-01T09:30:49.999Z</time></trkpt><trkpt lat="46.03539001250052" lon="9.299417439821115"><ele>235.0</ele><time>2026-05-01T09:30:50.999Z</time></trkpt><trkpt lat="46.035558636893875" lon="9.299483746158232"><ele>235.0</ele><time>2026-05-01T09:30:51.999Z</time></trkpt><trkpt lat="46.035712034950336" lon="9.299496163034945"><ele>226.33333333333331</ele><time>2026-05-01T09:30:52.999Z</time></trkpt><trkpt lat="46.03590486805172" lon="9.299562527702662"><ele>217.66666666666669</ele><time>2026-05-01T09:30:53.999Z</time></trkpt><trkpt lat="46.036051674761424" lon="9.299525383036906"><ele>209.0</ele><time>2026-05-01T09:30:54.999Z</time></trkpt><trkpt lat="46.03620265409325" lon="9.299520947307753"><ele>209.0</ele><time>2026-05-01T09:30:55.999Z</time></trkpt><trkpt lat="46.03632795055718" lon="9.299622830293949"><ele>209.0</ele><time>2026-05-01T09:30:56.999Z</time></trkpt><trkpt lat="46.03646738612439" lon="9.299742416179686"><ele>209.0</ele><time>2026-05-01T09:30:57.999Z</time></trkpt><trkpt lat="46.036609905033224" lon="9.299859542894469"><ele>210.66666666666669</ele><time>2026-05-01T09:30:58.999Z</time></trkpt><trkpt lat="46.03675876588578" lon="9.299984494315304"><ele>212.33333333333331</ele><time>2026-05-01T09:30:59.999Z</time></trkpt><trkpt lat="46.0369077871755" lon="9.300117060514625"><ele>214.0</ele><time>2026-05-01T09:31:00.999Z</time></trkpt><trkpt lat="46.03705234853936" lon="9.300254192208214"><ele>214.0</ele><time>2026-05-01T09:31:01.999Z</time></trkpt><trkpt lat="46.03719537191118" lon="9.300379615395629"><ele>214.0</ele><time>2026-05-01T09:31:02.999Z</time></trkpt><trkpt lat="46.03731829175425" lon="9.300489658474094"><ele>214.0</ele><time>2026-05-01T09:31:03.999Z</time></trkpt><trkpt lat="46.03744079151066" lon="9.300588966331496"><ele>215.0</ele><time>2026-05-01T09:31:04.999Z</time></trkpt><trkpt lat="46.03750267317563" lon="9.300755422297653"><ele>216.0</ele><time>2026-05-01T09:31:05.999Z</time></trkpt><trkpt lat="46.03754526867529" lon="9.300911231167317"><ele>217.0</ele><time>2026-05-01T09:31:07Z</time></trkpt><trkpt lat="46.03759602963635" lon="9.30107979200253"><ele>218.0</ele><time>2026-05-01T09:31:08Z</time></trkpt><trkpt lat="46.03765180591166" lon="9.301265829588049"><ele>224.25</ele><time>2026-05-01T09:31:09Z</time></trkpt><trkpt lat="46.03771031943541" lon="9.301461221534225"><ele>230.5</ele><time>2026-05-01T09:31:10Z</time></trkpt><trkpt lat="46.037770261496696" lon="9.301658966873829"><ele>236.75</ele><time>2026-05-01T09:31:11Z</time></trkpt><trkpt lat="46.03784339602157" lon="9.301833833983517"><ele>243.0</ele><time>2026-05-01T09:31:12Z</time></trkpt><trkpt lat="46.037911169309176" lon="9.302000484431243"><ele>243.0</ele><time>2026-05-01T09:31:13Z</time></trkpt><trkpt lat="46.03800934768385" lon="9.302132539657787"><ele>243.0</ele><time>2026-05-01T09:31:14Z</time></trkpt><trkpt lat="46.03813292513895" lon="9.302227182961634"><ele>243.0</ele><time>2026-05-01T09:31:15Z</time></trkpt><trkpt lat="46.038290468513864" lon="9.302229128624143"><ele>243.0</ele><time>2026-05-01T09:31:16Z</time></trkpt><trkpt lat="46.03843448641104" lon="9.302243322165376"><ele>230.33333333333331</ele><time>2026-05-01T09:31:17Z</time></trkpt><trkpt lat="46.03859385948435" lon="9.30221687111431"><ele>217.66666666666666</ele><time>2026-05-01T09:31:18Z</time></trkpt><trkpt lat="46.03874142561856" lon="9.302223517265904"><ele>205.0</ele><time>2026-05-01T09:31:19Z</time></trkpt><trkpt lat="46.038885446436986" lon="9.302229454310098"><ele>205.0</ele><time>2026-05-01T09:31:20Z</time></trkpt><trkpt lat="46.03902579656536" lon="9.302228880034335"><ele>205.0</ele><time>2026-05-01T09:31:21Z</time></trkpt><trkpt lat="46.03915109541683" lon="9.30223197349052"><ele>205.0</ele><time>2026-05-01T09:31:22Z</time></trkpt><trkpt lat="46.039271204430605" lon="9.302234304798347"><ele>205.0</ele><time>2026-05-01T09:31:23Z</time></trkpt><trkpt lat="46.0393795732228" lon="9.302240927769642"><ele>205.2</ele><time>2026-05-01T09:31:24Z</time></trkpt><trkpt lat="46.03948462436119" lon="9.302247830035054"><ele>205.4</ele><time>2026-05-01T09:31:25Z</time></trkpt><trkpt lat="46.03958771733212" lon="9.302242474757357"><ele>205.60000000000002</ele><time>2026-05-01T09:31:26Z</time></trkpt><trkpt lat="46.03970817714831" lon="9.302194218098288"><ele>205.8</ele><time>2026-05-01T09:31:27Z</time></trkpt><trkpt lat="46.03979713956063" lon="9.302197170700225"><ele>206.0</ele><time>2026-05-01T09:31:28Z</time></trkpt><trkpt lat="46.0399068865038" lon="9.302209865313463"><ele>206.0</ele><time>2026-05-01T09:31:29Z</time></trkpt><trkpt lat="46.04002089442738" lon="9.302218153766269"><ele>206.0</ele><time>2026-05-01T09:31:30Z</time></trkpt><trkpt lat="46.040142241078264" lon="9.302235127217292"><ele>206.0</ele><time>2026-05-01T09:31:31Z</time></trkpt><trkpt lat="46.04026838688328" lon="9.302217472412206"><ele>206.0</ele><time>2026-05-01T09:31:32Z</time></trkpt><trkpt lat="46.04039819535294" lon="9.302216617046735"><ele>206.0</ele><time>2026-05-01T09:31:33Z</time></trkpt><trkpt lat="46.04050882280073" lon="9.302226004847538"><ele>206.0</ele><time>2026-05-01T09:31:34Z</time></trkpt><trkpt lat="46.0406279326895" lon="9.302229213544017"><ele>206.0</ele><time>2026-05-01T09:31:35Z</time></trkpt><trkpt lat="46.040737733198824" lon="9.302231363659411"><ele>206.0</ele><time>2026-05-01T09:31:36Z</time></trkpt><trkpt lat="46.04083711889884" lon="9.302236175554384"><ele>206.0</ele><time>2026-05-01T09:31:37Z</time></trkpt><trkpt lat="46.04093254398434" lon="9.302241246712954"><ele>206.16666666666669</ele><time>2026-05-01T09:31:38Z</time></trkpt><trkpt lat="46.04101868787827" lon="9.30225238379103"><ele>206.33333333333334</ele><time>2026-05-01T09:31:39Z</time></trkpt><trkpt lat="46.04109556481148" lon="9.302259988327277"><ele>206.5</ele><time>2026-05-01T09:31:40Z</time></trkpt><trkpt lat="46.04117154625824" lon="9.302263767595974"><ele>206.66666666666669</ele><time>2026-05-01T09:31:41Z</time></trkpt><trkpt lat="46.04124755945855" lon="9.302264437402942"><ele>206.83333333333334</ele><time>2026-05-01T09:31:42Z</time></trkpt><trkpt lat="46.04134757973218" lon="9.302283675686626"><ele>207.0</ele><time>2026-05-01T09:31:44Z</time></trkpt><trkpt lat="46.04140657140803" lon="9.302167699746224"><ele>207.0</ele><time>2026-05-01T09:31:47Z</time></trkpt><trkpt lat="46.04137163412012" lon="9.302078083909024"><ele>207.0</ele><time>2026-05-01T09:31:49Z</time></trkpt><trkpt lat="46.041264639827304" lon="9.302123538005995"><ele>207.0</ele><time>2026-05-01T09:31:51Z</time></trkpt><trkpt lat="46.041242826622536" lon="9.302221896746653"><ele>207.0</ele><time>2026-05-01T09:31:53Z</time></trkpt><trkpt lat="46.041154562303184" lon="9.302236863062843"><ele>207.0</ele><time>2026-05-01T09:31:56Z</time></trkpt><trkpt lat="46.041090905995404" lon="9.302279489115685"><ele>207.0</ele><time>2026-05-01T09:31:58Z</time></trkpt><trkpt lat="46.041075846949006" lon="9.302378709852501"><ele>207.0</ele><time>2026-05-01T09:32:00Z</time></trkpt><trkpt lat="46.04107162993035" lon="9.302511173622865"><ele>207.0</ele><time>2026-05-01T09:32:08Z</time></trkpt><trkpt lat="46.04106835667834" lon="9.302680414647579"><ele>207.0</ele><time>2026-05-01T09:32:10Z</time></trkpt><trkpt lat="46.04106835668003" lon="9.302792339224965"><ele>207.0</ele><time>2026-05-01T09:32:11Z</time></trkpt><trkpt lat="46.041100631202845" lon="9.302928871241553"><ele>207.0</ele><time>2026-05-01T09:32:12Z</time></trkpt><trkpt lat="46.041154544340536" lon="9.303055430512623"><ele>207.0</ele><time>2026-05-01T09:32:13Z</time></trkpt><trkpt lat="46.041239057610575" lon="9.303141561537366"><ele>207.0</ele><time>2026-05-01T09:32:14Z</time></trkpt><trkpt lat="46.04132354234109" lon="9.303214594135508"><ele>207.0</ele><time>2026-05-01T09:32:15Z</time></trkpt><trkpt lat="46.04141828689476" lon="9.303292441961943"><ele>207.0</ele><time>2026-05-01T09:32:16Z</time></trkpt><trkpt lat="46.0415262664331" lon="9.303385976781389"><ele>207.0</ele><time>2026-05-01T09:32:17Z</time></trkpt><trkpt lat="46.0416381951324" lon="9.303487889191187"><ele>207.0</ele><time>2026-05-01T09:32:18Z</time></trkpt><trkpt lat="46.04175723516889" lon="9.30359366104659"><ele>207.0</ele><time>2026-05-01T09:32:19Z</time></trkpt><trkpt lat="46.041864404838805" lon="9.303689633171013"><ele>207.0</ele><time>2026-05-01T09:32:20Z</time></trkpt><trkpt lat="46.04194902533311" lon="9.303774001645143"><ele>207.0</ele><time>2026-05-01T09:32:21Z</time></trkpt><trkpt lat="46.04201561271618" lon="9.303865602955478"><ele>208.33333333333334</ele><time>2026-05-01T09:32:22Z</time></trkpt><trkpt lat="46.04203160716247" lon="9.303984678042124"><ele>209.66666666666669</ele><time>2026-05-01T09:32:23Z</time></trkpt><trkpt lat="46.04203075299103" lon="9.304092777057457"><ele>211.0</ele><time>2026-05-01T09:32:24Z</time></trkpt><trkpt lat="46.04202732127693" lon="9.304186316924417"><ele>212.33333333333334</ele><time>2026-05-01T09:32:25Z</time></trkpt><trkpt lat="46.04199170576413" lon="9.304323381855905"><ele>213.66666666666669</ele><time>2026-05-01T09:32:27Z</time></trkpt><trkpt lat="46.04191879172709" lon="9.304363928025753"><ele>215.0</ele><time>2026-05-01T09:32:29Z</time></trkpt><trkpt lat="46.04179985122177" lon="9.304301271986924"><ele>215.0</ele><time>2026-05-01T09:32:31Z</time></trkpt><trkpt lat="46.04173372539058" lon="9.304238715660079"><ele>215.0</ele><time>2026-05-01T09:32:32Z</time></trkpt><trkpt lat="46.04164608260446" lon="9.304186839083778"><ele>215.0</ele><time>2026-05-01T09:32:33Z</time></trkpt><trkpt lat="46.04155134322355" lon="9.304131996444644"><ele>215.0</ele><time>2026-05-01T09:32:34Z</time></trkpt><trkpt lat="46.041444531503124" lon="9.30413136994541"><ele>215.0</ele><time>2026-05-01T09:32:35Z</time></trkpt><trkpt lat="46.041346339392284" lon="9.304117081296546"><ele>217.6</ele><time>2026-05-01T09:32:36Z</time></trkpt><trkpt lat="46.04124055940065" lon="9.304128773134495"><ele>220.2</ele><time>2026-05-01T09:32:37Z</time></trkpt><trkpt lat="46.041125122723976" lon="9.304132604107021"><ele>222.8</ele><time>2026-05-01T09:32:38Z</time></trkpt><trkpt lat="46.04101077491578" lon="9.304116657458579"><ele>225.4</ele><time>2026-05-01T09:32:39Z</time></trkpt><trkpt lat="46.04094373328849" lon="9.304066660510003"><ele>228.0</ele><time>2026-05-01T09:32:40Z</time></trkpt><trkpt lat="46.04086386772883" lon="9.304001768313068"><ele>225.75</ele><time>2026-05-01T09:32:41Z</time></trkpt><trkpt lat="46.04068604516462" lon="9.30393127804784"><ele>223.5</ele><time>2026-05-01T09:32:42Z</time></trkpt><trkpt lat="46.04056234236138" lon="9.303844581307613"><ele>221.25</ele><time>2026-05-01T09:32:43Z</time></trkpt><trkpt lat="46.04045645160708" lon="9.303776852277592"><ele>219.0</ele><time>2026-05-01T09:32:44Z</time></trkpt><trkpt lat="46.040346550657" lon="9.303712057752373"><ele>219.0</ele><time>2026-05-01T09:32:45Z</time></trkpt><trkpt lat="46.040201172802696" lon="9.303691174744651"><ele>219.0</ele><time>2026-05-01T09:32:46Z</time></trkpt><trkpt lat="46.04005038859858" lon="9.303670049356144"><ele>219.0</ele><time>2026-05-01T09:32:47Z</time></trkpt><trkpt lat="46.0399213420211" lon="9.303597596979593"><ele>219.0</ele><time>2026-05-01T09:32:48Z</time></trkpt><trkpt lat="46.039797498678155" lon="9.303528469800074"><ele>226.0</ele><time>2026-05-01T09:32:49Z</time></trkpt><trkpt lat="46.039668542226146" lon="9.30345810379061"><ele>233.0</ele><time>2026-05-01T09:32:50Z</time></trkpt><trkpt lat="46.03952953969899" lon="9.303400377821838"><ele>240.0</ele><time>2026-05-01T09:32:51Z</time></trkpt><trkpt lat="46.03940126788896" lon="9.303376158633316"><ele>247.0</ele><time>2026-05-01T09:32:52Z</time></trkpt><trkpt lat="46.039266188447456" lon="9.303358981192266"><ele>247.0</ele><time>2026-05-01T09:32:52.999Z</time></trkpt><trkpt lat="46.039146582596366" lon="9.303340415808185"><ele>247.0</ele><time>2026-05-01T09:32:53.999Z</time></trkpt><trkpt lat="46.03905507748495" lon="9.303269723712527"><ele>247.0</ele><time>2026-05-01T09:32:54.999Z</time></trkpt><trkpt lat="46.0389766006302" lon="9.303195831000405"><ele>247.0</ele><time>2026-05-01T09:32:55.999Z</time></trkpt><trkpt lat="46.038920252141004" lon="9.303057917948275"><ele>247.0</ele><time>2026-05-01T09:32:56.999Z</time></trkpt><trkpt lat="46.03889498264596" lon="9.302932603868681"><ele>243.33333333333331</ele><time>2026-05-01T09:32:57.999Z</time></trkpt><trkpt lat="46.03887649462661" lon="9.302842293216834"><ele>239.66666666666666</ele><time>2026-05-01T09:32:58.999Z</time></trkpt><trkpt lat="46.03875745528476" lon="9.302810196976798"><ele>236.0</ele><time>2026-05-01T09:33:00.999Z</time></trkpt><trkpt lat="46.038713174151304" lon="9.302895189777614"><ele>232.33333333333331</ele><time>2026-05-01T09:33:01.999Z</time></trkpt><trkpt lat="46.03871441244778" lon="9.303010053213399"><ele>228.66666666666666</ele><time>2026-05-01T09:33:02.999Z</time></trkpt><trkpt lat="46.03877918291293" lon="9.303107161521979"><ele>225.0</ele><time>2026-05-01T09:33:03.999Z</time></trkpt><trkpt lat="46.038842830595854" lon="9.303200719109995"><ele>230.5</ele><time>2026-05-01T09:33:04.999Z</time></trkpt><trkpt lat="46.038918533440324" lon="9.303313316550092"><ele>236.0</ele><time>2026-05-01T09:33:05.999Z</time></trkpt><trkpt lat="46.03902350740769" lon="9.30340047194399"><ele>241.5</ele><time>2026-05-01T09:33:06.999Z</time></trkpt><trkpt lat="46.039126051351474" lon="9.30349448390691"><ele>247.0</ele><time>2026-05-01T09:33:07.999Z</time></trkpt><trkpt lat="46.03927719939816" lon="9.303555597842712"><ele>247.0</ele><time>2026-05-01T09:33:08.999Z</time></trkpt><trkpt lat="46.039451613945424" lon="9.303636264105767"><ele>247.0</ele><time>2026-05-01T09:33:09.999Z</time></trkpt><trkpt lat="46.03960538347366" lon="9.303736562052576"><ele>247.0</ele><time>2026-05-01T09:33:10.999Z</time></trkpt><trkpt lat="46.039734406234004" lon="9.303819703618876"><ele>248.5</ele><time>2026-05-01T09:33:13Z</time></trkpt><trkpt lat="46.03982874694917" lon="9.303938522673985"><ele>250.0</ele><time>2026-05-01T09:33:14Z</time></trkpt><trkpt lat="46.039942318311866" lon="9.304068585631587"><ele>251.5</ele><time>2026-05-01T09:33:15Z</time></trkpt><trkpt lat="46.04007902650739" lon="9.304178062220295"><ele>253.0</ele><time>2026-05-01T09:33:16Z</time></trkpt><trkpt lat="46.040213784154" lon="9.304265526801537"><ele>253.0</ele><time>2026-05-01T09:33:17Z</time></trkpt><trkpt lat="46.04032961218746" lon="9.304327178961628"><ele>253.0</ele><time>2026-05-01T09:33:18Z</time></trkpt><trkpt lat="46.04043105543471" lon="9.304399567933917"><ele>253.0</ele><time>2026-05-01T09:33:19Z</time></trkpt><trkpt lat="46.040520774490695" lon="9.304500778272978"><ele>253.0</ele><time>2026-05-01T09:33:20Z</time></trkpt><trkpt lat="46.04061076636865" lon="9.304623872357896"><ele>253.0</ele><time>2026-05-01T09:33:21Z</time></trkpt><trkpt lat="46.04069837018897" lon="9.304716046342271"><ele>253.0</ele><time>2026-05-01T09:33:22Z</time></trkpt><trkpt lat="46.040813957845764" lon="9.304776465960925"><ele>253.0</ele><time>2026-05-01T09:33:23Z</time></trkpt><trkpt lat="46.04093896583536" lon="9.304836109655215"><ele>253.0</ele><time>2026-05-01T09:33:24Z</time></trkpt><trkpt lat="46.041052351399244" lon="9.304973068911018"><ele>256.5</ele><time>2026-05-01T09:33:25Z</time></trkpt><trkpt lat="46.041190888360774" lon="9.305070117681527"><ele>260.0</ele><time>2026-05-01T09:33:26Z</time></trkpt><trkpt lat="46.04130354788387" lon="9.305179903626438"><ele>263.5</ele><time>2026-05-01T09:33:27Z</time></trkpt><trkpt lat="46.04142353464879" lon="9.30526713605144"><ele>267.0</ele><time>2026-05-01T09:33:28Z</time></trkpt><trkpt lat="46.041527128267155" lon="9.3053104813557"><ele>267.0</ele><time>2026-05-01T09:33:29Z</time></trkpt><trkpt lat="46.0416300095182" lon="9.305347138595728"><ele>267.0</ele><time>2026-05-01T09:33:30Z</time></trkpt><trkpt lat="46.04171946049665" lon="9.305371030207876"><ele>267.0</ele><time>2026-05-01T09:33:31Z</time></trkpt><trkpt lat="46.04178646386071" lon="9.30540028518456"><ele>267.0</ele><time>2026-05-01T09:33:32Z</time></trkpt><trkpt lat="46.041831630577825" lon="9.305523038010241"><ele>267.0</ele><time>2026-05-01T09:33:34Z</time></trkpt><trkpt lat="46.041720028096975" lon="9.305559700264391"><ele>267.0</ele><time>2026-05-01T09:33:36Z</time></trkpt><trkpt lat="46.04167083065045" lon="9.305501421120333"><ele>267.0</ele><time>2026-05-01T09:33:37Z</time></trkpt><trkpt lat="46.04160699040852" lon="9.305452096244855"><ele>267.0</ele><time>2026-05-01T09:33:38Z</time></trkpt><trkpt lat="46.041527807923885" lon="9.305394183128032"><ele>267.0</ele><time>2026-05-01T09:33:39Z</time></trkpt><trkpt lat="46.04143058340983" lon="9.305355914723313"><ele>267.0</ele><time>2026-05-01T09:33:40Z</time></trkpt><trkpt lat="46.041353861399855" lon="9.305293932371738"><ele>267.0</ele><time>2026-05-01T09:33:41Z</time></trkpt><trkpt lat="46.04128456525144" lon="9.30526242627358"><ele>267.0</ele><time>2026-05-01T09:33:42Z</time></trkpt><trkpt lat="46.04117890570986" lon="9.305198452565628"><ele>267.0</ele><time>2026-05-01T09:33:43Z</time></trkpt><trkpt lat="46.04106788494425" lon="9.305134582990735"><ele>267.0</ele><time>2026-05-01T09:33:44Z</time></trkpt><trkpt lat="46.04094723311467" lon="9.30506149330822"><ele>267.0</ele><time>2026-05-01T09:33:45Z</time></trkpt><trkpt lat="46.04082304337033" lon="9.304983124762101"><ele>263.5</ele><time>2026-05-01T09:33:46Z</time></trkpt><trkpt lat="46.0406917065263" lon="9.304901221883982"><ele>260.0</ele><time>2026-05-01T09:33:47Z</time></trkpt><trkpt lat="46.04055271961073" lon="9.304818651851237"><ele>256.5</ele><time>2026-05-01T09:33:48Z</time></trkpt><trkpt lat="46.0404094591135" lon="9.304732968164547"><ele>253.0</ele><time>2026-05-01T09:33:49Z</time></trkpt><trkpt lat="46.04026224422264" lon="9.304646471817648"><ele>253.0</ele><time>2026-05-01T09:33:50Z</time></trkpt><trkpt lat="46.04011152643172" lon="9.30456025712956"><ele>253.0</ele><time>2026-05-01T09:33:51Z</time></trkpt><trkpt lat="46.03996868224852" lon="9.304477216225111"><ele>253.0</ele><time>2026-05-01T09:33:52Z</time></trkpt><trkpt lat="46.039847688598115" lon="9.304403447022123"><ele>253.0</ele><time>2026-05-01T09:33:53Z</time></trkpt><trkpt lat="46.03974469178963" lon="9.30431886593111"><ele>257.8333333333333</ele><time>2026-05-01T09:33:54Z</time></trkpt><trkpt lat="46.03966725584942" lon="9.304224965612573"><ele>262.66666666666663</ele><time>2026-05-01T09:33:55Z</time></trkpt><trkpt lat="46.03960026358713" lon="9.304148028557096"><ele>267.5</ele><time>2026-05-01T09:33:56Z</time></trkpt><trkpt lat="46.03953329939933" lon="9.304093000054612"><ele>272.3333333333333</ele><time>2026-05-01T09:33:57Z</time></trkpt><trkpt lat="46.03946923118775" lon="9.304073232303876"><ele>277.1666666666667</ele><time>2026-05-01T09:33:58Z</time></trkpt><trkpt lat="46.039413840988985" lon="9.304120434863442"><ele>282.0</ele><time>2026-05-01T09:33:59Z</time></trkpt><trkpt lat="46.0394272111379" lon="9.304308781053313"><ele>282.0</ele><time>2026-05-01T09:34:01Z</time></trkpt><trkpt lat="46.03948775797822" lon="9.304375790118334"><ele>282.0</ele><time>2026-05-01T09:34:02Z</time></trkpt><trkpt lat="46.03957336671687" lon="9.30442564617632"><ele>282.0</ele><time>2026-05-01T09:34:03Z</time></trkpt><trkpt lat="46.03974617958837" lon="9.30449830423668"><ele>282.0</ele><time>2026-05-01T09:34:04Z</time></trkpt><trkpt lat="46.03985226567471" lon="9.30457912776577"><ele>286.0</ele><time>2026-05-01T09:34:05Z</time></trkpt><trkpt lat="46.03999477791955" lon="9.304653517506063"><ele>290.0</ele><time>2026-05-01T09:34:06Z</time></trkpt><trkpt lat="46.04012815966658" lon="9.304764785996511"><ele>294.0</ele><time>2026-05-01T09:34:07Z</time></trkpt><trkpt lat="46.040271542371386" lon="9.3048570329983"><ele>294.0</ele><time>2026-05-01T09:34:08Z</time></trkpt><trkpt lat="46.04040964982804" lon="9.304964730257884"><ele>294.0</ele><time>2026-05-01T09:34:09Z</time></trkpt><trkpt lat="46.04050411963689" lon="9.305060027203085"><ele>294.0</ele><time>2026-05-01T09:34:10Z</time></trkpt><trkpt lat="46.040623539556506" lon="9.305157847888573"><ele>294.0</ele><time>2026-05-01T09:34:11Z</time></trkpt><trkpt lat="46.04067390331786" lon="9.305287558454117"><ele>294.0</ele><time>2026-05-01T09:34:12Z</time></trkpt><trkpt lat="46.04072924450274" lon="9.305426321962948"><ele>294.0</ele><time>2026-05-01T09:34:13Z</time></trkpt><trkpt lat="46.040783792996805" lon="9.305568022374166"><ele>294.0</ele><time>2026-05-01T09:34:14Z</time></trkpt><trkpt lat="46.04082851225024" lon="9.305705304999092"><ele>294.0</ele><time>2026-05-01T09:34:15Z</time></trkpt><trkpt lat="46.04087344124519" lon="9.305812396203242"><ele>294.0</ele><time>2026-05-01T09:34:16Z</time></trkpt><trkpt lat="46.04092035094169" lon="9.305912724705701"><ele>293.3333333333333</ele><time>2026-05-01T09:34:17Z</time></trkpt><trkpt lat="46.04095401307212" lon="9.306021258471986"><ele>292.6666666666667</ele><time>2026-05-01T09:34:18Z</time></trkpt><trkpt lat="46.040950208815374" lon="9.306123393000354"><ele>292.0</ele><time>2026-05-01T09:34:19Z</time></trkpt><trkpt lat="46.040942315472805" lon="9.30622353771335"><ele>291.33333333333337</ele><time>2026-05-01T09:34:20Z</time></trkpt><trkpt lat="46.04092486042048" lon="9.30636916175743"><ele>290.6666666666667</ele><time>2026-05-01T09:34:22Z</time></trkpt><trkpt lat="46.04088124626711" lon="9.306454547519342"><ele>290.0</ele><time>2026-05-01T09:34:24Z</time></trkpt><trkpt lat="46.04079444242407" lon="9.306420235093684"><ele>289.2</ele><time>2026-05-01T09:34:26Z</time></trkpt><trkpt lat="46.040802463162244" lon="9.30626515743364"><ele>288.4</ele><time>2026-05-01T09:34:28Z</time></trkpt><trkpt lat="46.04080932495941" lon="9.306174086220468"><ele>287.6</ele><time>2026-05-01T09:34:29Z</time></trkpt><trkpt lat="46.040796327794354" lon="9.306050467338904"><ele>286.8</ele><time>2026-05-01T09:34:30Z</time></trkpt><trkpt lat="46.04079148271191" lon="9.305906888735098"><ele>286.0</ele><time>2026-05-01T09:34:31Z</time></trkpt><trkpt lat="46.040759950749404" lon="9.30573133711197"><ele>287.3333333333333</ele><time>2026-05-01T09:34:32Z</time></trkpt><trkpt lat="46.0407199146174" lon="9.305657464531429"><ele>288.66666666666663</ele><time>2026-05-01T09:34:33Z</time></trkpt><trkpt lat="46.040683895496926" lon="9.305548934784962"><ele>290.0</ele><time>2026-05-01T09:34:33.999Z</time></trkpt><trkpt lat="46.04064910847479" lon="9.305469916120645"><ele>291.3333333333333</ele><time>2026-05-01T09:34:34.999Z</time></trkpt><trkpt lat="46.04058154150352" lon="9.305347561199346"><ele>292.6666666666667</ele><time>2026-05-01T09:34:36.999Z</time></trkpt><trkpt lat="46.04052949776351" lon="9.305260465228773"><ele>294.0</ele><time>2026-05-01T09:34:37.999Z</time></trkpt><trkpt lat="46.040464295757495" lon="9.305255350903005"><ele>294.0</ele><time>2026-05-01T09:34:38.999Z</time></trkpt><trkpt lat="46.04039657644277" lon="9.305378453645233"><ele>294.0</ele><time>2026-05-01T09:34:40.999Z</time></trkpt><trkpt lat="46.040410762948035" lon="9.30548121795375"><ele>294.0</ele><time>2026-05-01T09:34:41.999Z</time></trkpt><trkpt lat="46.040464318500895" lon="9.305571963559542"><ele>294.0</ele><time>2026-05-01T09:34:42.999Z</time></trkpt><trkpt lat="46.04052962276483" lon="9.305646619147021"><ele>294.0</ele><time>2026-05-01T09:34:43.999Z</time></trkpt><trkpt lat="46.040602369479274" lon="9.305723810586105"><ele>294.0</ele><time>2026-05-01T09:34:44.999Z</time></trkpt><trkpt lat="46.04066270898695" lon="9.305832087387172"><ele>297.8</ele><time>2026-05-01T09:34:45.999Z</time></trkpt><trkpt lat="46.0406909892169" lon="9.305958406090426"><ele>301.59999999999997</ele><time>2026-05-01T09:34:46.999Z</time></trkpt><trkpt lat="46.04069598622222" lon="9.306113288715064"><ele>305.4</ele><time>2026-05-01T09:34:47.999Z</time></trkpt><trkpt lat="46.04068930267388" lon="9.306264171937904"><ele>309.2</ele><time>2026-05-01T09:34:48.999Z</time></trkpt><trkpt lat="46.04067783565432" lon="9.306396362617146"><ele>313.0</ele><time>2026-05-01T09:34:49.999Z</time></trkpt><trkpt lat="46.04067444419574" lon="9.30652623554973"><ele>312.66666666666663</ele><time>2026-05-01T09:34:50.999Z</time></trkpt><trkpt lat="46.040673879440995" lon="9.306675210645245"><ele>312.3333333333333</ele><time>2026-05-01T09:34:51.999Z</time></trkpt><trkpt lat="46.04067800060573" lon="9.306814031667107"><ele>312.0</ele><time>2026-05-01T09:34:52.999Z</time></trkpt><trkpt lat="46.040677878713886" lon="9.306944854898488"><ele>311.6666666666667</ele><time>2026-05-01T09:34:53.999Z</time></trkpt><trkpt lat="46.04067836434137" lon="9.307058644135072"><ele>311.33333333333337</ele><time>2026-05-01T09:34:54.999Z</time></trkpt><trkpt lat="46.04067401621128" lon="9.307150456392453"><ele>311.0</ele><time>2026-05-01T09:34:55.999Z</time></trkpt><trkpt lat="46.040654718287804" lon="9.30731115286171"><ele>311.0</ele><time>2026-05-01T09:34:57.999Z</time></trkpt><trkpt lat="46.04063450796649" lon="9.307456902242503"><ele>311.0</ele><time>2026-05-01T09:34:59.999Z</time></trkpt><trkpt lat="46.04055256881596" lon="9.307609959880692"><ele>311.0</ele><time>2026-05-01T09:35:01.999Z</time></trkpt><trkpt lat="46.04047274640967" lon="9.307659572499613"><ele>311.0</ele><time>2026-05-01T09:35:02.999Z</time></trkpt><trkpt lat="46.04038773945714" lon="9.307645509987431"><ele>311.0</ele><time>2026-05-01T09:35:03.999Z</time></trkpt><trkpt lat="46.04031584339265" lon="9.307666853530076"><ele>311.0</ele><time>2026-05-01T09:35:04.999Z</time></trkpt><trkpt lat="46.04026071561368" lon="9.30760541890226"><ele>311.0</ele><time>2026-05-01T09:35:06.999Z</time></trkpt><trkpt lat="46.040089506743655" lon="9.307693228277818"><ele>311.0</ele><time>2026-05-01T09:35:07.999Z</time></trkpt><trkpt lat="46.03999936864841" lon="9.307763410583933"><ele>311.0</ele><time>2026-05-01T09:35:08.999Z</time></trkpt><trkpt lat="46.03989107194506" lon="9.307864692637079"><ele>311.2</ele><time>2026-05-01T09:35:09.999Z</time></trkpt><trkpt lat="46.03984064854378" lon="9.307950858227143"><ele>311.40000000000003</ele><time>2026-05-01T09:35:11.999Z</time></trkpt><trkpt lat="46.03975266718208" lon="9.308065184898194"><ele>311.6</ele><time>2026-05-01T09:35:13.999Z</time></trkpt><trkpt lat="46.039666018618775" lon="9.308123129845718"><ele>311.8</ele><time>2026-05-01T09:35:15.999Z</time></trkpt><trkpt lat="46.03956984321552" lon="9.30815570550733"><ele>312.0</ele><time>2026-05-01T09:35:17.999Z</time></trkpt><trkpt lat="46.03950039016532" lon="9.308155775705202"><ele>312.0</ele><time>2026-05-01T09:35:19Z</time></trkpt><trkpt lat="46.03940610006849" lon="9.30814731088921"><ele>312.0</ele><time>2026-05-01T09:35:20Z</time></trkpt><trkpt lat="46.039282171681776" lon="9.308115869101819"><ele>312.0</ele><time>2026-05-01T09:35:21Z</time></trkpt><trkpt lat="46.03920558437689" lon="9.308087331540818"><ele>312.0</ele><time>2026-05-01T09:35:22Z</time></trkpt><trkpt lat="46.03912003160767" lon="9.308070362333934"><ele>312.0</ele><time>2026-05-01T09:35:23Z</time></trkpt><trkpt lat="46.03903497161472" lon="9.30809999220446"><ele>315.6</ele><time>2026-05-01T09:35:24Z</time></trkpt><trkpt lat="46.03896300127844" lon="9.308186750948673"><ele>319.2</ele><time>2026-05-01T09:35:25Z</time></trkpt><trkpt lat="46.03889792941648" lon="9.30830260161771"><ele>322.8</ele><time>2026-05-01T09:35:26Z</time></trkpt><trkpt lat="46.03884182806479" lon="9.308432724747313"><ele>326.4</ele><time>2026-05-01T09:35:27Z</time></trkpt><trkpt lat="46.03878179542689" lon="9.308571706787781"><ele>330.0</ele><time>2026-05-01T09:35:28Z</time></trkpt><trkpt lat="46.038714949982094" lon="9.308715489370918"><ele>330.0</ele><time>2026-05-01T09:35:29Z</time></trkpt><trkpt lat="46.0386517929203" lon="9.308836283330926"><ele>330.0</ele><time>2026-05-01T09:35:30Z</time></trkpt><trkpt lat="46.03859050321963" lon="9.308921595207341"><ele>330.0</ele><time>2026-05-01T09:35:31Z</time></trkpt><trkpt lat="46.0385195452694" lon="9.308968273798191"><ele>330.0</ele><time>2026-05-01T09:35:32Z</time></trkpt><trkpt lat="46.03844565747248" lon="9.30898613928725"><ele>330.0</ele><time>2026-05-01T09:35:33Z</time></trkpt><trkpt lat="46.03836529389365" lon="9.308995447645188"><ele>330.0</ele><time>2026-05-01T09:35:34Z</time></trkpt><trkpt lat="46.03828550179895" lon="9.308982275061524"><ele>331.6666666666667</ele><time>2026-05-01T09:35:35Z</time></trkpt><trkpt lat="46.038207808169766" lon="9.308966708926352"><ele>333.3333333333333</ele><time>2026-05-01T09:35:36Z</time></trkpt><trkpt lat="46.038127771797996" lon="9.308979370479296"><ele>335.0</ele><time>2026-05-01T09:35:37Z</time></trkpt><trkpt lat="46.03805036814227" lon="9.308971547830705"><ele>336.66666666666663</ele><time>2026-05-01T09:35:38Z</time></trkpt><trkpt lat="46.03795439255384" lon="9.309012897401805"><ele>338.3333333333333</ele><time>2026-05-01T09:35:40Z</time></trkpt><trkpt lat="46.03792807500603" lon="9.309132248281724"><ele>340.0</ele><time>2026-05-01T09:35:42Z</time></trkpt><trkpt lat="46.03800452735791" lon="9.3092653923071"><ele>340.0</ele><time>2026-05-01T09:35:44Z</time></trkpt><trkpt lat="46.037986878146484" lon="9.309444032603883"><ele>340.0</ele><time>2026-05-01T09:35:46Z</time></trkpt><trkpt lat="46.03791119898806" lon="9.309530403988743"><ele>340.0</ele><time>2026-05-01T09:35:47Z</time></trkpt><trkpt lat="46.037827453683605" lon="9.309627721672094"><ele>340.0</ele><time>2026-05-01T09:35:48Z</time></trkpt><trkpt lat="46.03775171682007" lon="9.309729309002906"><ele>340.0</ele><time>2026-05-01T09:35:49Z</time></trkpt><trkpt lat="46.037672615743766" lon="9.309839940052"><ele>336.5</ele><time>2026-05-01T09:35:50Z</time></trkpt><trkpt lat="46.03758117235891" lon="9.30997539858204"><ele>333.0</ele><time>2026-05-01T09:35:51Z</time></trkpt><trkpt lat="46.0374856637426" lon="9.310117382596218"><ele>329.5</ele><time>2026-05-01T09:35:52Z</time></trkpt><trkpt lat="46.03738741706486" lon="9.310251214636233"><ele>326.0</ele><time>2026-05-01T09:35:53Z</time></trkpt><trkpt lat="46.03729936050661" lon="9.310370117758495"><ele>328.25</ele><time>2026-05-01T09:35:54Z</time></trkpt><trkpt lat="46.0372299054158" lon="9.310490699215237"><ele>330.5</ele><time>2026-05-01T09:35:55Z</time></trkpt><trkpt lat="46.0371701114897" lon="9.310631828124764"><ele>332.75</ele><time>2026-05-01T09:35:56Z</time></trkpt><trkpt lat="46.03715697896928" lon="9.310800444974502"><ele>335.0</ele><time>2026-05-01T09:35:57Z</time></trkpt><trkpt lat="46.03717681418466" lon="9.310991221885923"><ele>335.0</ele><time>2026-05-01T09:35:58Z</time></trkpt><trkpt lat="46.037221760398374" lon="9.31116885260552"><ele>335.0</ele><time>2026-05-01T09:35:59Z</time></trkpt><trkpt lat="46.03729653053228" lon="9.311338842491358"><ele>335.0</ele><time>2026-05-01T09:36:00Z</time></trkpt><trkpt lat="46.03737341929585" lon="9.311392578914758"><ele>335.0</ele><time>2026-05-01T09:36:01Z</time></trkpt><trkpt lat="46.03746655369772" lon="9.311450146474767"><ele>330.4</ele><time>2026-05-01T09:36:02Z</time></trkpt><trkpt lat="46.03757083771272" lon="9.311479015318335"><ele>325.8</ele><time>2026-05-01T09:36:03Z</time></trkpt><trkpt lat="46.03768149061603" lon="9.311475384776166"><ele>321.2</ele><time>2026-05-01T09:36:04Z</time></trkpt><trkpt lat="46.03778741496562" lon="9.311435872522525"><ele>316.6</ele><time>2026-05-01T09:36:05Z</time></trkpt><trkpt lat="46.03787810606238" lon="9.311353691973563"><ele>312.0</ele><time>2026-05-01T09:36:06Z</time></trkpt><trkpt lat="46.03795639110726" lon="9.31124336610079"><ele>312.0</ele><time>2026-05-01T09:36:07Z</time></trkpt><trkpt lat="46.0380148040468" lon="9.311110985247074"><ele>312.0</ele><time>2026-05-01T09:36:08Z</time></trkpt><trkpt lat="46.03805496283263" lon="9.31096796921276"><ele>312.0</ele><time>2026-05-01T09:36:09Z</time></trkpt><trkpt lat="46.038088758271584" lon="9.310829759558395"><ele>312.0</ele><time>2026-05-01T09:36:10Z</time></trkpt><trkpt lat="46.03815516956773" lon="9.310719277266548"><ele>312.0</ele><time>2026-05-01T09:36:11Z</time></trkpt><trkpt lat="46.03824938647123" lon="9.310637549526184"><ele>307.0</ele><time>2026-05-01T09:36:12Z</time></trkpt><trkpt lat="46.03835939913305" lon="9.310593196653178"><ele>302.0</ele><time>2026-05-01T09:36:13Z</time></trkpt><trkpt lat="46.03850419486386" lon="9.310599806216517"><ele>297.0</ele><time>2026-05-01T09:36:14Z</time></trkpt><trkpt lat="46.03873270368186" lon="9.310595450686394"><ele>297.0</ele><time>2026-05-01T09:36:15Z</time></trkpt><trkpt lat="46.0388674651498" lon="9.310765317263147"><ele>297.0</ele><time>2026-05-01T09:36:17Z</time></trkpt><trkpt lat="46.03902653412876" lon="9.31085090378227"><ele>297.0</ele><time>2026-05-01T09:36:18Z</time></trkpt><trkpt lat="46.03922111042844" lon="9.310942242487545"><ele>294.0</ele><time>2026-05-01T09:36:19Z</time></trkpt><trkpt lat="46.03944373137804" lon="9.311041612153735"><ele>291.0</ele><time>2026-05-01T09:36:20Z</time></trkpt><trkpt lat="46.03970130708023" lon="9.311146752364728"><ele>291.0</ele><time>2026-05-01T09:36:21Z</time></trkpt><trkpt lat="46.039961379772336" lon="9.311262076913897"><ele>291.0</ele><time>2026-05-01T09:36:22Z</time></trkpt><trkpt lat="46.04019016190181" lon="9.311353634857587"><ele>308.0</ele><time>2026-05-01T09:36:23Z</time></trkpt><trkpt lat="46.04042457208276" lon="9.311449892840429"><ele>325.0</ele><time>2026-05-01T09:36:24Z</time></trkpt><trkpt lat="46.04066389702241" lon="9.311548158786849"><ele>336.5</ele><time>2026-05-01T09:36:25.021Z</time></trkpt><trkpt lat="46.04089684711321" lon="9.311643827650867"><ele>348.0</ele><time>2026-05-01T09:36:26.017Z</time></trkpt><trkpt lat="46.04112711641919" lon="9.31173870239356"><ele>348.0</ele><time>2026-05-01T09:36:27.012Z</time></trkpt><trkpt lat="46.04136079825962" lon="9.31183473899857"><ele>348.0</ele><time>2026-05-01T09:36:28.012Z</time></trkpt><trkpt lat="46.04331480265987" lon="9.312543743232379"><ele>430.0</ele><time>2026-05-01T09:36:31.102Z</time></trkpt><trkpt lat="46.04411425596466" lon="9.312704652523893"><ele>447.0</ele><time>2026-05-01T09:36:32.099Z</time></trkpt><trkpt lat="46.04491492406396" lon="9.312873434954234"><ele>457.0</ele><time>2026-05-01T09:36:33.099Z</time></trkpt><trkpt lat="46.045717032418814" lon="9.313040539222293"><ele>467.0</ele><time>2026-05-01T09:36:34.1Z</time></trkpt><trkpt lat="46.04652009392784" lon="9.313206145586905"><ele>417.0</ele><time>2026-05-01T09:36:35.102Z</time></trkpt><trkpt lat="46.04732002859984" lon="9.313371190628942"><ele>385.0</ele><time>2026-05-01T09:36:36.1Z</time></trkpt><trkpt lat="46.04811952074901" lon="9.313537329619077"><ele>359.0</ele><time>2026-05-01T09:36:37.097Z</time></trkpt><trkpt lat="46.04892410362794" lon="9.313709496609285"><ele>373.0</ele><time>2026-05-01T09:36:38.102Z</time></trkpt><trkpt lat="46.049716698696265" lon="9.313944426166119"><ele>350.0</ele><time>2026-05-01T09:36:39.102Z</time></trkpt><trkpt lat="46.05048097842364" lon="9.314317360068765"><ele>342.0</ele><time>2026-05-01T09:36:40.1Z</time></trkpt><trkpt lat="46.052196879272145" lon="9.315841582492594"><ele>362.0</ele><time>2026-05-01T09:36:43.098Z</time></trkpt><trkpt lat="46.05283914366457" lon="9.316553852134742"><ele>370.0</ele><time>2026-05-01T09:36:44.1Z</time></trkpt><trkpt lat="46.053506591791226" lon="9.317208362411876"><ele>399.0</ele><time>2026-05-01T09:36:45.099Z</time></trkpt><trkpt lat="46.05422730185892" lon="9.317732904658465"><ele>433.0</ele><time>2026-05-01T09:36:46.097Z</time></trkpt><trkpt lat="46.05498972078894" lon="9.31812295819016"><ele>433.0</ele><time>2026-05-01T09:36:47.098Z</time></trkpt><trkpt lat="46.05578288769944" lon="9.318367943185526"><ele>446.0</ele><time>2026-05-01T09:36:48.101Z</time></trkpt><trkpt lat="46.056590037294114" lon="9.318468700089044"><ele>449.0</ele><time>2026-05-01T09:36:49.102Z</time></trkpt><trkpt lat="46.05739549077066" lon="9.318427254151397"><ele>453.0</ele><time>2026-05-01T09:36:50.098Z</time></trkpt><trkpt lat="46.058201814572165" lon="9.318312170387694"><ele>466.0</ele><time>2026-05-01T09:36:51.099Z</time></trkpt><trkpt lat="46.059005968074814" lon="9.318190615125864"><ele>467.0</ele><time>2026-05-01T09:36:52.097Z</time></trkpt><trkpt lat="46.05981453099046" lon="9.3180687824415"><ele>432.0</ele><time>2026-05-01T09:36:53.101Z</time></trkpt><trkpt lat="46.060620175734655" lon="9.317946695802789"><ele>474.0</ele><time>2026-05-01T09:36:54.102Z</time></trkpt><trkpt lat="46.06142433577074" lon="9.317826944211504"><ele>521.0</ele><time>2026-05-01T09:36:55.1Z</time></trkpt><trkpt lat="46.062230934196094" lon="9.317707486399469"><ele>552.0</ele><time>2026-05-01T09:36:56.102Z</time></trkpt><trkpt lat="46.063034824334814" lon="9.317589613144586"><ele>572.0</ele><time>2026-05-01T09:36:57.1Z</time></trkpt><trkpt lat="46.06384098735196" lon="9.317472885940118"><ele>577.0</ele><time>2026-05-01T09:36:58.101Z</time></trkpt><trkpt lat="46.06464636348874" lon="9.317352898316184"><ele>538.0</ele><time>2026-05-01T09:36:59.101Z</time></trkpt><trkpt lat="46.065451451466686" lon="9.31723557970687"><ele>538.0</ele><time>2026-05-01T09:37:00.1Z</time></trkpt><trkpt lat="46.0656085" lon="9.3172124"><ele>538.0</ele><time>2026-05-01T09:37:01.101Z</time></trkpt><trkpt lat="46.06641332965611" lon="9.317092029647378"><ele>506.0</ele><time>2026-05-01T09:37:06.1Z</time></trkpt><trkpt lat="46.0672202192622" lon="9.316969483428906"><ele>313.0</ele><time>2026-05-01T09:37:07.102Z</time></trkpt><trkpt lat="46.05168828745005" lon="9.315203614541623"><ele>313.0</ele><time>2026-05-01T09:37:07.999Z</time></trkpt><trkpt lat="46.0518503408685" lon="9.31539409635331"><ele>313.0</ele><time>2026-05-01T09:37:08.999Z</time></trkpt><trkpt lat="46.05206631326175" lon="9.315599737779273"><ele>327.5</ele><time>2026-05-01T09:37:09.999Z</time></trkpt><trkpt lat="46.05224444480222" lon="9.31583153907146"><ele>342.0</ele><time>2026-05-01T09:37:10.999Z</time></trkpt><trkpt lat="46.052426715150375" lon="9.31607376617626"><ele>338.5</ele><time>2026-05-01T09:37:11.999Z</time></trkpt><trkpt lat="46.05261506085029" lon="9.316310537106858"><ele>335.0</ele><time>2026-05-01T09:37:12.999Z</time></trkpt><trkpt lat="46.052802128296996" lon="9.316539420499645"><ele>348.5</ele><time>2026-05-01T09:37:13.999Z</time></trkpt><trkpt lat="46.052984561035565" lon="9.316780777381922"><ele>362.0</ele><time>2026-05-01T09:37:14.999Z</time></trkpt><trkpt lat="46.05317344241981" lon="9.317027174864924"><ele>366.0</ele><time>2026-05-01T09:37:15.999Z</time></trkpt><trkpt lat="46.053486846082734" lon="9.317152707178952"><ele>370.0</ele><time>2026-05-01T09:37:16.999Z</time></trkpt><trkpt lat="46.05368768869636" lon="9.317370140117466"><ele>387.0</ele><time>2026-05-01T09:37:17.999Z</time></trkpt><trkpt lat="46.053888124412715" lon="9.31758724332857"><ele>404.0</ele><time>2026-05-01T09:37:18.999Z</time></trkpt><trkpt lat="46.05410359599196" lon="9.317758998356794"><ele>402.3333333333333</ele><time>2026-05-01T09:37:19.999Z</time></trkpt><trkpt lat="46.05425290257782" lon="9.317851978341448"><ele>400.66666666666663</ele><time>2026-05-01T09:37:20.999Z</time></trkpt><trkpt lat="46.05445631864283" lon="9.317968690996425"><ele>399.0</ele><time>2026-05-01T09:37:21.999Z</time></trkpt><trkpt lat="46.054670356754414" lon="9.318083238218899"><ele>449.0</ele><time>2026-05-01T09:37:23.02Z</time></trkpt><trkpt lat="46.05668186972045" lon="9.318470684790297"><ele>453.0</ele><time>2026-05-01T09:37:26.102Z</time></trkpt><trkpt lat="46.057490310236425" lon="9.318415170786091"><ele>466.0</ele><time>2026-05-01T09:37:27.102Z</time></trkpt><trkpt lat="46.058294014346465" lon="9.318298452183278"><ele>466.0</ele><time>2026-05-01T09:37:28.099Z</time></trkpt><trkpt lat="46.05909937659191" lon="9.318176259940898"><ele>437.0</ele><time>2026-05-01T09:37:29.099Z</time></trkpt><trkpt lat="46.05990643573014" lon="9.318055137788589"><ele>432.0</ele><time>2026-05-01T09:37:30.102Z</time></trkpt><trkpt lat="46.06070895498576" lon="9.317932892624814"><ele>474.0</ele><time>2026-05-01T09:37:31.098Z</time></trkpt><trkpt lat="46.061517017633996" lon="9.317813217960309"><ele>521.0</ele><time>2026-05-01T09:37:32.102Z</time></trkpt><trkpt lat="46.06231994743693" lon="9.317694303473916"><ele>552.0</ele><time>2026-05-01T09:37:33.098Z</time></trkpt><trkpt lat="46.06312749064031" lon="9.317576123666116"><ele>572.0</ele><time>2026-05-01T09:37:34.101Z</time></trkpt><trkpt lat="46.06393348420741" lon="9.317458964627061"><ele>577.0</ele><time>2026-05-01T09:37:35.101Z</time></trkpt><trkpt lat="46.064738957869096" lon="9.31733980292976"><ele>538.0</ele><time>2026-05-01T09:37:36.101Z</time></trkpt><trkpt lat="46.06554388863324" lon="9.317221936367583"><ele>507.0</ele><time>2026-05-01T09:37:37.101Z</time></trkpt><trkpt lat="46.06634587325935" lon="9.317102329973034"><ele>506.0</ele><time>2026-05-01T09:37:38.097Z</time></trkpt><trkpt lat="46.0671550044157" lon="9.316979161629959"><ele>565.0</ele><time>2026-05-01T09:37:39.101Z</time></trkpt><trkpt lat="46.068765908232194" lon="9.31674009565263"><ele>601.0</ele><time>2026-05-01T09:37:41.102Z</time></trkpt><trkpt lat="46.06957125627117" lon="9.316620978658664"><ele>618.0</ele><time>2026-05-01T09:37:42.101Z</time></trkpt><trkpt lat="46.070373435966765" lon="9.316503689564707"><ele>598.0</ele><time>2026-05-01T09:37:43.097Z</time></trkpt><trkpt lat="46.0710402" lon="9.3164062"><ele>302.0</ele><time>2026-05-01T09:37:44.098Z</time></trkpt><trkpt lat="46.07687724758505" lon="9.315519193196032"><ele>302.0</ele><time>2026-05-01T09:38:40.998Z</time></trkpt><trkpt lat="46.077088890640134" lon="9.315471081071827"><ele>302.0</ele><time>2026-05-01T09:38:41.998Z</time></trkpt><trkpt lat="46.07733611487418" lon="9.315418777996037"><ele>307.5</ele><time>2026-05-01T09:38:42.998Z</time></trkpt><trkpt lat="46.07755240988552" lon="9.315360188492868"><ele>313.0</ele><time>2026-05-01T09:38:43.998Z</time></trkpt><trkpt lat="46.08457066123009" lon="9.313072096565099"><ele>290.5</ele><time>2026-05-01T09:39:06.998Z</time></trkpt><trkpt lat="46.08488025330534" lon="9.312887907226779"><ele>268.0</ele><time>2026-05-01T09:39:07.998Z</time></trkpt><trkpt lat="46.085169439841216" lon="9.312787997555983"><ele>268.0</ele><time>2026-05-01T09:39:08.998Z</time></trkpt><trkpt lat="46.08546467476219" lon="9.312730213509848"><ele>268.0</ele><time>2026-05-01T09:39:09.998Z</time></trkpt><trkpt lat="46.08575752678125" lon="9.312702380815438"><ele>270.5</ele><time>2026-05-01T09:39:10.998Z</time></trkpt><trkpt lat="46.086054837249506" lon="9.312687870901739"><ele>273.0</ele><time>2026-05-01T09:39:11.998Z</time></trkpt><trkpt lat="46.08635232757658" lon="9.312693694126441"><ele>273.0</ele><time>2026-05-01T09:39:13.001Z</time></trkpt><trkpt lat="46.086637382045446" lon="9.312727281961514"><ele>273.0</ele><time>2026-05-01T09:39:14.001Z</time></trkpt><trkpt lat="46.08691495699111" lon="9.312799866836102"><ele>273.0</ele><time>2026-05-01T09:39:15.001Z</time></trkpt><trkpt lat="46.08719813078605" lon="9.312889967878721"><ele>273.0</ele><time>2026-05-01T09:39:16.001Z</time></trkpt><trkpt lat="46.08748234805785" lon="9.312977469010663"><ele>286.5</ele><time>2026-05-01T09:39:17.001Z</time></trkpt><trkpt lat="46.0877677788938" lon="9.313067890959866"><ele>300.0</ele><time>2026-05-01T09:39:18.013Z</time></trkpt><trkpt lat="46.088049581465725" lon="9.313157004279905"><ele>328.0</ele><time>2026-05-01T09:39:19.01Z</time></trkpt><trkpt lat="46.08833063778458" lon="9.313242282367687"><ele>356.0</ele><time>2026-05-01T09:39:20.01Z</time></trkpt><trkpt lat="46.08861606674385" lon="9.313335402602052"><ele>272.0</ele><time>2026-05-01T09:39:21.019Z</time></trkpt><trkpt lat="46.1047287192625" lon="9.322645654910545"><ele>275.5</ele><time>2026-05-01T09:40:31.999Z</time></trkpt><trkpt lat="46.104953931563344" lon="9.322737397611643"><ele>279.0</ele><time>2026-05-01T09:40:32.999Z</time></trkpt><trkpt lat="46.10525886093588" lon="9.32272744071011"><ele>279.0</ele><time>2026-05-01T09:40:33.999Z</time></trkpt><trkpt lat="46.105490233576894" lon="9.322819700861887"><ele>279.0</ele><time>2026-05-01T09:40:35.013Z</time></trkpt><trkpt lat="46.10571571830121" lon="9.322908841291609"><ele>299.0</ele><time>2026-05-01T09:40:36.013Z</time></trkpt><trkpt lat="46.10593624672085" lon="9.322997352071196"><ele>319.0</ele><time>2026-05-01T09:40:37.013Z</time></trkpt><trkpt lat="46.10616125379258" lon="9.3230941655596"><ele>229.0</ele><time>2026-05-01T09:40:38.012Z</time></trkpt><trkpt lat="46.117520760787755" lon="9.350233012819057"><ele>229.0</ele><time>2026-05-01T09:42:02.998Z</time></trkpt><trkpt lat="46.117686075450415" lon="9.350488912032276"><ele>229.0</ele><time>2026-05-01T09:42:03.998Z</time></trkpt><trkpt lat="46.117779022404946" lon="9.350729057259848"><ele>229.0</ele><time>2026-05-01T09:42:04.998Z</time></trkpt><trkpt lat="46.1179688703469" lon="9.350976560723398"><ele>228.0</ele><time>2026-05-01T09:42:05.998Z</time></trkpt><trkpt lat="46.11816130343152" lon="9.351206945151397"><ele>227.0</ele><time>2026-05-01T09:42:06.998Z</time></trkpt><trkpt lat="46.11834312605471" lon="9.351425046806712"><ele>227.0</ele><time>2026-05-01T09:42:07.998Z</time></trkpt><trkpt lat="46.118534931393484" lon="9.351674916057544"><ele>227.0</ele><time>2026-05-01T09:42:09.001Z</time></trkpt><trkpt lat="46.118738794675274" lon="9.351909139209415"><ele>227.0</ele><time>2026-05-01T09:42:10.001Z</time></trkpt><trkpt lat="46.11894332568128" lon="9.352145354535033"><ele>227.0</ele><time>2026-05-01T09:42:11.001Z</time></trkpt><trkpt lat="46.11915722650006" lon="9.3523729495054"><ele>230.5</ele><time>2026-05-01T09:42:12.001Z</time></trkpt><trkpt lat="46.11937574098171" lon="9.352615277538396"><ele>234.0</ele><time>2026-05-01T09:42:13.001Z</time></trkpt><trkpt lat="46.11959392265017" lon="9.352851783161698"><ele>236.5</ele><time>2026-05-01T09:42:14.001Z</time></trkpt><trkpt lat="46.11981952174326" lon="9.3530858411952"><ele>239.0</ele><time>2026-05-01T09:42:15.001Z</time></trkpt><trkpt lat="46.12004742478478" lon="9.35332113892789"><ele>239.0</ele><time>2026-05-01T09:42:16.012Z</time></trkpt><trkpt lat="46.12026737388967" lon="9.353555995657686"><ele>239.0</ele><time>2026-05-01T09:42:17.015Z</time></trkpt><trkpt lat="46.12049173800265" lon="9.353790358965359"><ele>241.5</ele><time>2026-05-01T09:42:18.02Z</time></trkpt><trkpt lat="46.12071991688743" lon="9.354019399075211"><ele>244.0</ele><time>2026-05-01T09:42:19.013Z</time></trkpt><trkpt lat="46.122335274620504" lon="9.355764140617634"><ele>255.0</ele><time>2026-05-01T09:42:22.094Z</time></trkpt><trkpt lat="46.12300055653752" lon="9.356434202205946"><ele>255.0</ele><time>2026-05-01T09:42:23.098Z</time></trkpt><trkpt lat="46.1232255" lon="9.3566604"><ele>255.0</ele><time>2026-05-01T09:42:24.097Z</time></trkpt><trkpt lat="46.123889186074706" lon="9.35732990185691"><ele>251.0</ele><time>2026-05-01T09:42:38.097Z</time></trkpt><trkpt lat="46.12455198316433" lon="9.357998506938692"><ele>252.0</ele><time>2026-05-01T09:42:39.097Z</time></trkpt><trkpt lat="46.125211288024104" lon="9.358673499113664"><ele>250.0</ele><time>2026-05-01T09:42:40.097Z</time></trkpt><trkpt lat="46.125813048796736" lon="9.359450124447251"><ele>256.0</ele><time>2026-05-01T09:42:41.097Z</time></trkpt><trkpt lat="46.12630563162018" lon="9.360371866163808"><ele>256.0</ele><time>2026-05-01T09:42:42.097Z</time></trkpt><trkpt lat="46.126685092007925" lon="9.361399771710374"><ele>262.0</ele><time>2026-05-01T09:42:43.097Z</time></trkpt><trkpt lat="46.12713350453053" lon="9.362744260588068"><ele>262.0</ele><time>2026-05-01T09:42:54Z</time></trkpt><trkpt lat="46.12726006149107" lon="9.363079320850739"><ele>262.0</ele><time>2026-05-01T09:42:55Z</time></trkpt><trkpt lat="46.12735315693472" lon="9.363436410007541"><ele>259.0</ele><time>2026-05-01T09:42:56Z</time></trkpt><trkpt lat="46.12744582279783" lon="9.363800212202102"><ele>256.0</ele><time>2026-05-01T09:42:57Z</time></trkpt><trkpt lat="46.127531972601844" lon="9.364169771520425"><ele>256.0</ele><time>2026-05-01T09:42:58Z</time></trkpt><trkpt lat="46.127602969069756" lon="9.364534105901663"><ele>256.0</ele><time>2026-05-01T09:42:59Z</time></trkpt><trkpt lat="46.127662349451526" lon="9.36490774147239"><ele>256.5</ele><time>2026-05-01T09:43:00Z</time></trkpt><trkpt lat="46.12772742340275" lon="9.365289804179456"><ele>257.0</ele><time>2026-05-01T09:43:01Z</time></trkpt><trkpt lat="46.12778589483723" lon="9.3656806007231"><ele>257.5</ele><time>2026-05-01T09:43:02Z</time></trkpt><trkpt lat="46.12784047092139" lon="9.36607181053204"><ele>258.0</ele><time>2026-05-01T09:43:03Z</time></trkpt><trkpt lat="46.12790675647371" lon="9.366465913453274"><ele>259.5</ele><time>2026-05-01T09:43:04Z</time></trkpt><trkpt lat="46.127969127654985" lon="9.366862596487783"><ele>261.0</ele><time>2026-05-01T09:43:05Z</time></trkpt><trkpt lat="46.128030938246866" lon="9.36725778846951"><ele>263.0</ele><time>2026-05-01T09:43:06Z</time></trkpt><trkpt lat="46.12808584228084" lon="9.367628989482357"><ele>265.0</ele><time>2026-05-01T09:43:07Z</time></trkpt><trkpt lat="46.128135156554016" lon="9.367978691938509"><ele>266.3333333333333</ele><time>2026-05-01T09:43:08Z</time></trkpt><trkpt lat="46.12818316388498" lon="9.368300221530856"><ele>267.6666666666667</ele><time>2026-05-01T09:43:09Z</time></trkpt><trkpt lat="46.12822239647891" lon="9.368594260961206"><ele>269.0</ele><time>2026-05-01T09:43:10Z</time></trkpt><trkpt lat="46.12826512792828" lon="9.36885105039666"><ele>266.33333333333337</ele><time>2026-05-01T09:43:11Z</time></trkpt><trkpt lat="46.12830076795706" lon="9.369103581486213"><ele>263.6666666666667</ele><time>2026-05-01T09:43:12Z</time></trkpt><trkpt lat="46.12833873900437" lon="9.36936049017778"><ele>261.0</ele><time>2026-05-01T09:43:13Z</time></trkpt><trkpt lat="46.12837770471958" lon="9.369615427458232"><ele>262.3333333333333</ele><time>2026-05-01T09:43:14Z</time></trkpt><trkpt lat="46.12841751841953" lon="9.369874691188487"><ele>263.66666666666663</ele><time>2026-05-01T09:43:15Z</time></trkpt><trkpt lat="46.12845730888776" lon="9.370140304318754"><ele>265.0</ele><time>2026-05-01T09:43:16Z</time></trkpt><trkpt lat="46.128499114979675" lon="9.370413195936292"><ele>265.0</ele><time>2026-05-01T09:43:17Z</time></trkpt><trkpt lat="46.12854343067485" lon="9.370699202221017"><ele>265.0</ele><time>2026-05-01T09:43:17.999Z</time></trkpt><trkpt lat="46.12858236881377" lon="9.370968018869618"><ele>265.0</ele><time>2026-05-01T09:43:18.999Z</time></trkpt><trkpt lat="46.12862279502291" lon="9.371246682624925"><ele>265.66666666666663</ele><time>2026-05-01T09:43:19.999Z</time></trkpt><trkpt lat="46.1286679635071" lon="9.371534824861174"><ele>266.3333333333333</ele><time>2026-05-01T09:43:20.999Z</time></trkpt><trkpt lat="46.12871183599442" lon="9.371822549037452"><ele>267.0</ele><time>2026-05-01T09:43:21.999Z</time></trkpt><trkpt lat="46.12875570608822" lon="9.372104668783264"><ele>267.3333333333333</ele><time>2026-05-01T09:43:22.999Z</time></trkpt><trkpt lat="46.1287955089803" lon="9.37237762839258"><ele>267.66666666666663</ele><time>2026-05-01T09:43:23.999Z</time></trkpt><trkpt lat="46.128832064964264" lon="9.372635788593977"><ele>268.0</ele><time>2026-05-01T09:43:24.999Z</time></trkpt><trkpt lat="46.128873084461574" lon="9.372892901651634"><ele>267.66666666666663</ele><time>2026-05-01T09:43:25.999Z</time></trkpt><trkpt lat="46.128918004556944" lon="9.373154133085979"><ele>267.3333333333333</ele><time>2026-05-01T09:43:26.999Z</time></trkpt><trkpt lat="46.12896530467895" lon="9.373420728815214"><ele>267.0</ele><time>2026-05-01T09:43:27.999Z</time></trkpt><trkpt lat="46.12901632996776" lon="9.37368697330143"><ele>266.6666666666667</ele><time>2026-05-01T09:43:28.999Z</time></trkpt><trkpt lat="46.12907443571358" lon="9.373955496647273"><ele>266.33333333333337</ele><time>2026-05-01T09:43:29.999Z</time></trkpt><trkpt lat="46.1291502153176" lon="9.374209910670906"><ele>266.0</ele><time>2026-05-01T09:43:30.999Z</time></trkpt><trkpt lat="46.12922709452685" lon="9.374460615861482"><ele>268.0</ele><time>2026-05-01T09:43:31.999Z</time></trkpt><trkpt lat="46.12930808200425" lon="9.374715453768648"><ele>270.0</ele><time>2026-05-01T09:43:33.022Z</time></trkpt><trkpt lat="46.12938897362386" lon="9.374982891558833"><ele>272.0</ele><time>2026-05-01T09:43:34.022Z</time></trkpt><trkpt lat="46.12947591112393" lon="9.375296034555149"><ele>273.5</ele><time>2026-05-01T09:43:35.028Z</time></trkpt><trkpt lat="46.12955045952239" lon="9.375561386130515"><ele>275.0</ele><time>2026-05-01T09:43:36.022Z</time></trkpt><trkpt lat="46.13103526982901" lon="9.379010060294425"><ele>286.0</ele><time>2026-05-01T09:43:40.096Z</time></trkpt><trkpt lat="46.13149693981911" lon="9.379966870093"><ele>279.0</ele><time>2026-05-01T09:43:41.096Z</time></trkpt><trkpt lat="46.131879966749" lon="9.380816314378176"><ele>279.0</ele><time>2026-05-01T09:43:52.999Z</time></trkpt><trkpt lat="46.132038374844804" lon="9.381144085679997"><ele>279.0</ele><time>2026-05-01T09:43:53.999Z</time></trkpt><trkpt lat="46.132231528713724" lon="9.381438282589215"><ele>282.0</ele><time>2026-05-01T09:43:54.999Z</time></trkpt><trkpt lat="46.132359888549246" lon="9.381762907269218"><ele>285.0</ele><time>2026-05-01T09:43:55.999Z</time></trkpt><trkpt lat="46.13249926927753" lon="9.382090418408671"><ele>280.5</ele><time>2026-05-01T09:43:56.999Z</time></trkpt><trkpt lat="46.13265040971525" lon="9.382406220545796"><ele>276.0</ele><time>2026-05-01T09:43:57.999Z</time></trkpt><trkpt lat="46.13280067407242" lon="9.382737777298255"><ele>279.5</ele><time>2026-05-01T09:43:58.999Z</time></trkpt><trkpt lat="46.13295251306303" lon="9.383074202062001"><ele>283.0</ele><time>2026-05-01T09:43:59.999Z</time></trkpt><trkpt lat="46.13310132866307" lon="9.38341578074766"><ele>276.5</ele><time>2026-05-01T09:44:00.999Z</time></trkpt><trkpt lat="46.1332324901957" lon="9.383781317077863"><ele>270.0</ele><time>2026-05-01T09:44:01.999Z</time></trkpt><trkpt lat="46.13335332223279" lon="9.384158496850416"><ele>270.0</ele><time>2026-05-01T09:44:02.999Z</time></trkpt><trkpt lat="46.133460750007835" lon="9.384548628313025"><ele>270.0</ele><time>2026-05-01T09:44:03.999Z</time></trkpt><trkpt lat="46.133552871040415" lon="9.384944258763207"><ele>271.0</ele><time>2026-05-01T09:44:04.999Z</time></trkpt><trkpt lat="46.13363328493967" lon="9.385331970376917"><ele>272.0</ele><time>2026-05-01T09:44:05.999Z</time></trkpt><trkpt lat="46.1336912849504" lon="9.385732160484368"><ele>274.0</ele><time>2026-05-01T09:44:06.999Z</time></trkpt><trkpt lat="46.13374000240977" lon="9.386141185726574"><ele>276.0</ele><time>2026-05-01T09:44:07.999Z</time></trkpt><trkpt lat="46.133754065043995" lon="9.386563364399178"><ele>276.0</ele><time>2026-05-01T09:44:08.999Z</time></trkpt><trkpt lat="46.13376752803128" lon="9.38697552122144"><ele>276.0</ele><time>2026-05-01T09:44:09.999Z</time></trkpt><trkpt lat="46.13375996106761" lon="9.387395179511282"><ele>277.0</ele><time>2026-05-01T09:44:10.999Z</time></trkpt><trkpt lat="46.13374579539184" lon="9.387808844989918"><ele>278.0</ele><time>2026-05-01T09:44:11.999Z</time></trkpt><trkpt lat="46.13367263507363" lon="9.388237849086028"><ele>278.0</ele><time>2026-05-01T09:44:12.999Z</time></trkpt><trkpt lat="46.13362282243489" lon="9.388649436808047"><ele>278.0</ele><time>2026-05-01T09:44:13.999Z</time></trkpt><trkpt lat="46.13355643880744" lon="9.389068085742359"><ele>278.0</ele><time>2026-05-01T09:44:15Z</time></trkpt><trkpt lat="46.13348472367085" lon="9.389481262564633"><ele>278.0</ele><time>2026-05-01T09:44:16Z</time></trkpt><trkpt lat="46.13340453818459" lon="9.389892226699864"><ele>277.0</ele><time>2026-05-01T09:44:17Z</time></trkpt><trkpt lat="46.13333166564084" lon="9.390302251605544"><ele>276.0</ele><time>2026-05-01T09:44:18Z</time></trkpt><trkpt lat="46.1332617766953" lon="9.39071123377062"><ele>280.5</ele><time>2026-05-01T09:44:19Z</time></trkpt><trkpt lat="46.13319008056275" lon="9.391129080804308"><ele>285.0</ele><time>2026-05-01T09:44:20Z</time></trkpt><trkpt lat="46.133117901611314" lon="9.391551898115361"><ele>285.0</ele><time>2026-05-01T09:44:21Z</time></trkpt><trkpt lat="46.1330445978763" lon="9.391983188903483"><ele>285.0</ele><time>2026-05-01T09:44:22.016Z</time></trkpt><trkpt lat="46.13297345501907" lon="9.39240195826367"><ele>283.5</ele><time>2026-05-01T09:44:23.013Z</time></trkpt><trkpt lat="46.132904381039744" lon="9.392830632273663"><ele>282.0</ele><time>2026-05-01T09:44:24.017Z</time></trkpt><trkpt lat="46.13283444770388" lon="9.393255978583236"><ele>280.0</ele><time>2026-05-01T09:44:25.014Z</time></trkpt><trkpt lat="46.13226431891893" lon="9.397465456285884"><ele>280.0</ele><time>2026-05-01T09:44:35Z</time></trkpt><trkpt lat="46.132252644960445" lon="9.397856129908794"><ele>280.0</ele><time>2026-05-01T09:44:36Z</time></trkpt><trkpt lat="46.13225838148378" lon="9.398254324732084"><ele>285.0</ele><time>2026-05-01T09:44:37Z</time></trkpt><trkpt lat="46.13229091699558" lon="9.398636995185443"><ele>290.0</ele><time>2026-05-01T09:44:38Z</time></trkpt><trkpt lat="46.132335316492494" lon="9.39903267598396"><ele>270.5</ele><time>2026-05-01T09:44:39Z</time></trkpt><trkpt lat="46.13240693323013" lon="9.399414672098226"><ele>251.0</ele><time>2026-05-01T09:44:40Z</time></trkpt><trkpt lat="46.13249366673805" lon="9.399790658496782"><ele>250.5</ele><time>2026-05-01T09:44:41Z</time></trkpt><trkpt lat="46.132599849284546" lon="9.400162567800164"><ele>250.0</ele><time>2026-05-01T09:44:42Z</time></trkpt><trkpt lat="46.13271082180412" lon="9.400527161296807"><ele>249.5</ele><time>2026-05-01T09:44:43Z</time></trkpt><trkpt lat="46.13283304235471" lon="9.400890243016962"><ele>249.0</ele><time>2026-05-01T09:44:44Z</time></trkpt><trkpt lat="46.132952585081625" lon="9.401256628751016"><ele>252.0</ele><time>2026-05-01T09:44:45Z</time></trkpt><trkpt lat="46.13307244864469" lon="9.401619808557214"><ele>255.0</ele><time>2026-05-01T09:44:46Z</time></trkpt><trkpt lat="46.13318723043466" lon="9.401975088777395"><ele>251.0</ele><time>2026-05-01T09:44:47Z</time></trkpt><trkpt lat="46.133291941060115" lon="9.402317799134734"><ele>247.0</ele><time>2026-05-01T09:44:48Z</time></trkpt><trkpt lat="46.133396987629915" lon="9.402653987089344"><ele>247.0</ele><time>2026-05-01T09:44:49Z</time></trkpt><trkpt lat="46.13350038839245" lon="9.402984929607564"><ele>247.0</ele><time>2026-05-01T09:44:50Z</time></trkpt><trkpt lat="46.13360641315015" lon="9.403315731384724"><ele>250.5</ele><time>2026-05-01T09:44:51Z</time></trkpt><trkpt lat="46.13371348881032" lon="9.403651561326505"><ele>254.0</ele><time>2026-05-01T09:44:52.015Z</time></trkpt><trkpt lat="46.13384533458132" lon="9.403951147148753"><ele>256.5</ele><time>2026-05-01T09:44:53.012Z</time></trkpt><trkpt lat="46.13399315378243" lon="9.404242981858392"><ele>259.0</ele><time>2026-05-01T09:44:54.015Z</time></trkpt><trkpt lat="46.134146228358325" lon="9.404521237790567"><ele>232.0</ele><time>2026-05-01T09:44:55.026Z</time></trkpt><trkpt lat="46.13520896532213" lon="9.405733784669456"><ele>232.0</ele><time>2026-05-01T09:45:01Z</time></trkpt><trkpt lat="46.135388091737134" lon="9.405924880019246"><ele>232.0</ele><time>2026-05-01T09:45:02Z</time></trkpt><trkpt lat="46.13558162993772" lon="9.406142894056286"><ele>227.66666666666666</ele><time>2026-05-01T09:45:03Z</time></trkpt><trkpt lat="46.135759793693914" lon="9.406323362503395"><ele>223.33333333333331</ele><time>2026-05-01T09:45:04Z</time></trkpt><trkpt lat="46.13593204320757" lon="9.406520020960226"><ele>219.0</ele><time>2026-05-01T09:45:05Z</time></trkpt><trkpt lat="46.13611143211708" lon="9.406685989980124"><ele>219.0</ele><time>2026-05-01T09:45:05.999Z</time></trkpt><trkpt lat="46.13623403553539" lon="9.406862022178657"><ele>219.0</ele><time>2026-05-01T09:45:06.999Z</time></trkpt><trkpt lat="46.136404972482694" lon="9.407033952293068"><ele>219.0</ele><time>2026-05-01T09:45:07.999Z</time></trkpt><trkpt lat="46.13656435258736" lon="9.407197578396113"><ele>216.0</ele><time>2026-05-01T09:45:08.999Z</time></trkpt><trkpt lat="46.136721755836334" lon="9.407364029359206"><ele>213.0</ele><time>2026-05-01T09:45:09.999Z</time></trkpt><trkpt lat="46.136887177364564" lon="9.40753465139535"><ele>210.0</ele><time>2026-05-01T09:45:10.999Z</time></trkpt><trkpt lat="46.13706252638053" lon="9.407709395224783"><ele>210.0</ele><time>2026-05-01T09:45:11.999Z</time></trkpt><trkpt lat="46.13723029039312" lon="9.407889647523435"><ele>210.0</ele><time>2026-05-01T09:45:12.999Z</time></trkpt><trkpt lat="46.13740334485816" lon="9.408077837945523"><ele>210.0</ele><time>2026-05-01T09:45:13.999Z</time></trkpt><trkpt lat="46.13757139513858" lon="9.408260341742716"><ele>209.0</ele><time>2026-05-01T09:45:14.999Z</time></trkpt><trkpt lat="46.137756113259464" lon="9.408447264742522"><ele>208.0</ele><time>2026-05-01T09:45:15.999Z</time></trkpt><trkpt lat="46.13792929115845" lon="9.408635870119262"><ele>207.0</ele><time>2026-05-01T09:45:16.999Z</time></trkpt><trkpt lat="46.13811140819209" lon="9.408828624308969"><ele>205.66666666666669</ele><time>2026-05-01T09:45:17.999Z</time></trkpt><trkpt lat="46.138289407557664" lon="9.409019785711498"><ele>204.33333333333334</ele><time>2026-05-01T09:45:18.999Z</time></trkpt><trkpt lat="46.13846857948716" lon="9.409210352429776"><ele>203.0</ele><time>2026-05-01T09:45:19.999Z</time></trkpt><trkpt lat="46.13863661835427" lon="9.40940532927784"><ele>203.0</ele><time>2026-05-01T09:45:20.999Z</time></trkpt><trkpt lat="46.138798472602375" lon="9.409596845451029"><ele>203.0</ele><time>2026-05-01T09:45:21.999Z</time></trkpt><trkpt lat="46.138960895006775" lon="9.409782741772496"><ele>203.0</ele><time>2026-05-01T09:45:22.999Z</time></trkpt><trkpt lat="46.139131281632956" lon="9.409965198096433"><ele>202.66666666666669</ele><time>2026-05-01T09:45:23.999Z</time></trkpt><trkpt lat="46.13929015750366" lon="9.410136868207243"><ele>202.33333333333331</ele><time>2026-05-01T09:45:24.999Z</time></trkpt><trkpt lat="46.13945125579687" lon="9.410297948424832"><ele>202.0</ele><time>2026-05-01T09:45:25.999Z</time></trkpt><trkpt lat="46.139598445797006" lon="9.410456785230494"><ele>201.66666666666666</ele><time>2026-05-01T09:45:26.999Z</time></trkpt><trkpt lat="46.13974299440473" lon="9.410612314325281"><ele>201.33333333333331</ele><time>2026-05-01T09:45:27.999Z</time></trkpt><trkpt lat="46.139885307008505" lon="9.41075181024374"><ele>201.0</ele><time>2026-05-01T09:45:28.999Z</time></trkpt><trkpt lat="46.14002490985974" lon="9.41088519920183"><ele>200.75</ele><time>2026-05-01T09:45:29.999Z</time></trkpt><trkpt lat="46.140155330598816" lon="9.41101152579828"><ele>200.5</ele><time>2026-05-01T09:45:30.999Z</time></trkpt><trkpt lat="46.14027601092298" lon="9.411135337552297"><ele>200.25</ele><time>2026-05-01T09:45:31.999Z</time></trkpt><trkpt lat="46.140388124858546" lon="9.411248991623648"><ele>200.0</ele><time>2026-05-01T09:45:32.999Z</time></trkpt><trkpt lat="46.14048213131797" lon="9.411341341296929"><ele>200.00000000000003</ele><time>2026-05-01T09:45:33.999Z</time></trkpt><trkpt lat="46.14056047949217" lon="9.411416683392904"><ele>200.0</ele><time>2026-05-01T09:45:34.999Z</time></trkpt><trkpt lat="46.14062654728944" lon="9.411483229573244"><ele>200.0</ele><time>2026-05-01T09:45:35.999Z</time></trkpt><trkpt lat="46.14068918132939" lon="9.411552659188715"><ele>200.0</ele><time>2026-05-01T09:45:36.999Z</time></trkpt><trkpt lat="46.14075136768079" lon="9.41161654394066"><ele>200.00000000000003</ele><time>2026-05-01T09:45:37.999Z</time></trkpt><trkpt lat="46.14081001447742" lon="9.41166974751233"><ele>200.0</ele><time>2026-05-01T09:45:38.999Z</time></trkpt><trkpt lat="46.140895864460894" lon="9.411766368678784"><ele>200.50000000000003</ele><time>2026-05-01T09:45:40.999Z</time></trkpt><trkpt lat="46.140971886734086" lon="9.41182400667013"><ele>201.0</ele><time>2026-05-01T09:45:43.999Z</time></trkpt><trkpt lat="46.141044728858155" lon="9.411856120786208"><ele>201.5</ele><time>2026-05-01T09:45:46.999Z</time></trkpt><trkpt lat="46.14110799704537" lon="9.411871829745868"><ele>202.0</ele><time>2026-05-01T09:45:49.999Z</time></trkpt><trkpt lat="46.14119578222486" lon="9.411915757818468"><ele>202.50000000000003</ele><time>2026-05-01T09:45:52.999Z</time></trkpt><trkpt lat="46.141264428686384" lon="9.411959659584305"><ele>203.0</ele><time>2026-05-01T09:45:54.999Z</time></trkpt><trkpt lat="46.141328438778885" lon="9.412021656979205"><ele>203.00000000000003</ele><time>2026-05-01T09:46:06.999Z</time></trkpt><trkpt lat="46.14138941974085" lon="9.412087060504202"><ele>203.0</ele><time>2026-05-01T09:46:26Z</time></trkpt><trkpt lat="46.14143538629505" lon="9.412171943215252"><ele>203.0</ele><time>2026-05-01T09:46:28Z</time></trkpt><trkpt lat="46.14146041200368" lon="9.412262650070137"><ele>203.0</ele><time>2026-05-01T09:46:29Z</time></trkpt><trkpt lat="46.14149510667142" lon="9.412376686564196"><ele>203.00000000000003</ele><time>2026-05-01T09:46:30Z</time></trkpt><trkpt lat="46.14153328609697" lon="9.412485786353779"><ele>203.0</ele><time>2026-05-01T09:46:31Z</time></trkpt><trkpt lat="46.141597514861" lon="9.412612857482333"><ele>202.60000000000002</ele><time>2026-05-01T09:46:32Z</time></trkpt><trkpt lat="46.1416641287822" lon="9.412722136827162"><ele>202.20000000000002</ele><time>2026-05-01T09:46:33Z</time></trkpt><trkpt lat="46.14174502634549" lon="9.412840710493773"><ele>201.8</ele><time>2026-05-01T09:46:34Z</time></trkpt><trkpt lat="46.1418318043446" lon="9.412916396441322"><ele>201.4</ele><time>2026-05-01T09:46:35Z</time></trkpt><trkpt lat="46.14191712421002" lon="9.412822352917516"><ele>201.0</ele><time>2026-05-01T09:46:37Z</time></trkpt><trkpt lat="46.14217060139078" lon="9.413173697006728"><ele>201.0</ele><time>2026-05-01T09:46:38Z</time></trkpt><trkpt lat="46.14228853708569" lon="9.413172303913678"><ele>201.0</ele><time>2026-05-01T09:46:39Z</time></trkpt><trkpt lat="46.14240327913624" lon="9.4131745543808"><ele>201.0</ele><time>2026-05-01T09:46:40Z</time></trkpt><trkpt lat="46.14251921618935" lon="9.413162759939896"><ele>201.0</ele><time>2026-05-01T09:46:41Z</time></trkpt><trkpt lat="46.1426381722679" lon="9.413128495855037"><ele>201.25</ele><time>2026-05-01T09:46:42Z</time></trkpt><trkpt lat="46.142746342834535" lon="9.413077530769515"><ele>201.5</ele><time>2026-05-01T09:46:43Z</time></trkpt><trkpt lat="46.142849387360904" lon="9.413004012730976"><ele>201.75</ele><time>2026-05-01T09:46:44Z</time></trkpt><trkpt lat="46.1429620586872" lon="9.412897420300348"><ele>202.0</ele><time>2026-05-01T09:46:45Z</time></trkpt><trkpt lat="46.14306144968616" lon="9.412771244735655"><ele>201.5</ele><time>2026-05-01T09:46:46Z</time></trkpt><trkpt lat="46.14315198661068" lon="9.41264703350908"><ele>201.0</ele><time>2026-05-01T09:46:47Z</time></trkpt><trkpt lat="46.14322817750596" lon="9.412487295637366"><ele>200.5</ele><time>2026-05-01T09:46:48Z</time></trkpt><trkpt lat="46.14327595796133" lon="9.412327719680533"><ele>200.0</ele><time>2026-05-01T09:46:49Z</time></trkpt><trkpt lat="46.14338237265567" lon="9.412231494626019"><ele>201.0</ele><time>2026-05-01T09:46:50Z</time></trkpt><trkpt lat="46.143494477019054" lon="9.412143539703273"><ele>202.0</ele><time>2026-05-01T09:46:51Z</time></trkpt><trkpt lat="46.143623208592984" lon="9.412092679687417"><ele>203.0</ele><time>2026-05-01T09:46:52Z</time></trkpt><trkpt lat="46.143766820535234" lon="9.412080778028546"><ele>204.0</ele><time>2026-05-01T09:46:53Z</time></trkpt><trkpt lat="46.143914636538824" lon="9.412078008078918"><ele>204.33333333333331</ele><time>2026-05-01T09:46:54Z</time></trkpt><trkpt lat="46.1440723348701" lon="9.412073580955035"><ele>204.66666666666666</ele><time>2026-05-01T09:46:55Z</time></trkpt><trkpt lat="46.14423624645412" lon="9.412074677682451"><ele>205.0</ele><time>2026-05-01T09:46:56Z</time></trkpt><trkpt lat="46.1443863300728" lon="9.412062549459323"><ele>205.0</ele><time>2026-05-01T09:46:57Z</time></trkpt><trkpt lat="46.144520772924615" lon="9.412056760857688"><ele>205.0</ele><time>2026-05-01T09:46:58Z</time></trkpt><trkpt lat="46.14464314402002" lon="9.412048554115328"><ele>205.0</ele><time>2026-05-01T09:46:59Z</time></trkpt><trkpt lat="46.14476684994813" lon="9.412050788787166"><ele>205.0</ele><time>2026-05-01T09:47:00Z</time></trkpt><trkpt lat="46.14487058985102" lon="9.412075945194118"><ele>204.66666666666666</ele><time>2026-05-01T09:47:01Z</time></trkpt><trkpt lat="46.14493766584248" lon="9.412098266642985"><ele>204.33333333333331</ele><time>2026-05-01T09:47:02Z</time></trkpt><trkpt lat="46.145059767691734" lon="9.412113007923194"><ele>204.0</ele><time>2026-05-01T09:47:03Z</time></trkpt><trkpt lat="46.14512692217639" lon="9.412129515811252"><ele>203.66666666666669</ele><time>2026-05-01T09:47:04Z</time></trkpt><trkpt lat="46.14520730677149" lon="9.412149522776925"><ele>203.33333333333334</ele><time>2026-05-01T09:47:06Z</time></trkpt><trkpt lat="46.14527971783549" lon="9.41214433015016"><ele>203.0</ele><time>2026-05-01T09:47:09.999Z</time></trkpt><trkpt lat="46.14535464587932" lon="9.412147711759296"><ele>203.00000000000003</ele><time>2026-05-01T09:47:11.999Z</time></trkpt><trkpt lat="46.14547380960415" lon="9.412138269884865"><ele>203.0</ele><time>2026-05-01T09:47:13.999Z</time></trkpt><trkpt lat="46.14559784195518" lon="9.412147755856303"><ele>203.0</ele><time>2026-05-01T09:47:15.999Z</time></trkpt><trkpt lat="46.145664565933515" lon="9.412156311100004"><ele>203.0</ele><time>2026-05-01T09:47:16.999Z</time></trkpt><trkpt lat="46.14573091933486" lon="9.412164392973263"><ele>203.00000000000003</ele><time>2026-05-01T09:47:17.999Z</time></trkpt><trkpt lat="46.14579550746502" lon="9.412172378801463"><ele>203.0</ele><time>2026-05-01T09:47:18.999Z</time></trkpt><trkpt lat="46.14592270697923" lon="9.412183233753858"><ele>202.85714285714286</ele><time>2026-05-01T09:47:20.999Z</time></trkpt><trkpt lat="46.145989319947695" lon="9.41218727062543"><ele>202.71428571428572</ele><time>2026-05-01T09:47:21.999Z</time></trkpt><trkpt lat="46.146054620607" lon="9.412192209366706"><ele>202.57142857142856</ele><time>2026-05-01T09:47:22.999Z</time></trkpt><trkpt lat="46.14615801113585" lon="9.412201754081162"><ele>202.42857142857144</ele><time>2026-05-01T09:47:24.999Z</time></trkpt><trkpt lat="46.14623131769415" lon="9.412203861180176"><ele>202.28571428571428</ele><time>2026-05-01T09:47:28.999Z</time></trkpt><trkpt lat="46.1462988105391" lon="9.412208334635155"><ele>202.14285714285714</ele><time>2026-05-01T09:47:32.999Z</time></trkpt><trkpt lat="46.146366426036444" lon="9.41221125854979"><ele>202.0</ele><time>2026-05-01T09:47:36.999Z</time></trkpt><trkpt lat="46.14645565897178" lon="9.412216542796177"><ele>201.99999999999997</ele><time>2026-05-01T09:47:41.999Z</time></trkpt><trkpt lat="46.14653816797351" lon="9.412228568239435"><ele>202.0</ele><time>2026-05-01T09:47:43.999Z</time></trkpt><trkpt lat="46.14663058310565" lon="9.41222138655715"><ele>202.0</ele><time>2026-05-01T09:47:45.999Z</time></trkpt><trkpt lat="46.146703780584254" lon="9.412225741368651"><ele>202.0</ele><time>2026-05-01T09:47:47.999Z</time></trkpt><trkpt lat="46.14677636832984" lon="9.412235810628294"><ele>201.99999999999997</ele><time>2026-05-01T09:47:50.999Z</time></trkpt><trkpt lat="46.14683953806931" lon="9.41224732112465"><ele>202.0</ele><time>2026-05-01T09:47:54.999Z</time></trkpt><trkpt lat="46.146917863246344" lon="9.412271594673417"><ele>202.16666666666666</ele><time>2026-05-01T09:47:57.999Z</time></trkpt><trkpt lat="46.14699449947414" lon="9.41229073560113"><ele>202.33333333333331</ele><time>2026-05-01T09:48:00.999Z</time></trkpt><trkpt lat="46.14708328525661" lon="9.412290187982512"><ele>202.5</ele><time>2026-05-01T09:48:03.999Z</time></trkpt><trkpt lat="46.147171492839604" lon="9.412322971013719"><ele>202.66666666666669</ele><time>2026-05-01T09:48:05.999Z</time></trkpt><trkpt lat="46.14725549673572" lon="9.41237196282331"><ele>202.83333333333334</ele><time>2026-05-01T09:48:07.999Z</time></trkpt><trkpt lat="46.147319040288046" lon="9.412416734656347"><ele>203.0</ele><time>2026-05-01T09:48:09.999Z</time></trkpt><trkpt lat="46.147371708832246" lon="9.412479209935835"><ele>203.33333333333334</ele><time>2026-05-01T09:48:11.999Z</time></trkpt><trkpt lat="46.14740894721189" lon="9.412569645266274"><ele>203.66666666666669</ele><time>2026-05-01T09:48:13.999Z</time></trkpt><trkpt lat="46.147440296709696" lon="9.412651681694504"><ele>204.0</ele><time>2026-05-01T09:48:15.999Z</time></trkpt><trkpt lat="46.14750486446258" lon="9.412724593081755"><ele>204.33333333333331</ele><time>2026-05-01T09:48:18.999Z</time></trkpt><trkpt lat="46.14757500871443" lon="9.412752696501732"><ele>204.66666666666666</ele><time>2026-05-01T09:48:24.998Z</time></trkpt><trkpt lat="46.147668696309545" lon="9.412728953775899"><ele>205.0</ele><time>2026-05-01T09:48:28Z</time></trkpt><trkpt lat="46.147739363940104" lon="9.41263462295271"><ele>204.99999999999997</ele><time>2026-05-01T09:48:31Z</time></trkpt><trkpt lat="46.147818983883134" lon="9.412527510890422"><ele>205.0</ele><time>2026-05-01T09:48:33Z</time></trkpt><trkpt lat="46.14787208777351" lon="9.412466733655634"><ele>205.0</ele><time>2026-05-01T09:48:34Z</time></trkpt><trkpt lat="46.1479258701968" lon="9.41241710557089"><ele>205.0</ele><time>2026-05-01T09:48:35Z</time></trkpt><trkpt lat="46.14798904431477" lon="9.41237729042009"><ele>204.99999999999997</ele><time>2026-05-01T09:48:36Z</time></trkpt><trkpt lat="46.14810415857899" lon="9.412340614733429"><ele>205.0</ele><time>2026-05-01T09:48:38Z</time></trkpt><trkpt lat="46.14822910261343" lon="9.41232038789117"><ele>204.83333333333331</ele><time>2026-05-01T09:48:40Z</time></trkpt><trkpt lat="46.14830177151287" lon="9.412310939873082"><ele>204.66666666666666</ele><time>2026-05-01T09:48:41Z</time></trkpt><trkpt lat="46.14837879456777" lon="9.412310608285939"><ele>204.5</ele><time>2026-05-01T09:48:42Z</time></trkpt><trkpt lat="46.14846688971923" lon="9.412311321343601"><ele>204.33333333333331</ele><time>2026-05-01T09:48:43Z</time></trkpt><trkpt lat="46.148565492765464" lon="9.412315059376853"><ele>204.16666666666666</ele><time>2026-05-01T09:48:44Z</time></trkpt><trkpt lat="46.14865550254465" lon="9.412322034975778"><ele>204.0</ele><time>2026-05-01T09:48:45Z</time></trkpt><trkpt lat="46.148759748680284" lon="9.412326096893903"><ele>204.0</ele><time>2026-05-01T09:48:46Z</time></trkpt><trkpt lat="46.14887770052596" lon="9.412336547603829"><ele>204.0</ele><time>2026-05-01T09:48:47Z</time></trkpt><trkpt lat="46.149012415885835" lon="9.412361040869621"><ele>204.0</ele><time>2026-05-01T09:48:48Z</time></trkpt><trkpt lat="46.1491765108832" lon="9.412374223743111"><ele>204.0</ele><time>2026-05-01T09:48:49Z</time></trkpt><trkpt lat="46.14927759047955" lon="9.412366139634853"><ele>203.75</ele><time>2026-05-01T09:48:50Z</time></trkpt><trkpt lat="46.149405594689505" lon="9.412384724985056"><ele>203.5</ele><time>2026-05-01T09:48:51Z</time></trkpt><trkpt lat="46.14953686094419" lon="9.412394731223031"><ele>203.25</ele><time>2026-05-01T09:48:52Z</time></trkpt><trkpt lat="46.14966871136978" lon="9.412402484596734"><ele>203.0</ele><time>2026-05-01T09:48:53Z</time></trkpt><trkpt lat="46.14980267563446" lon="9.412417980922145"><ele>201.25</ele><time>2026-05-01T09:48:54Z</time></trkpt><trkpt lat="46.14993805727656" lon="9.412429457691264"><ele>199.5</ele><time>2026-05-01T09:48:55Z</time></trkpt><trkpt lat="46.15007258910246" lon="9.412439741894138"><ele>197.75</ele><time>2026-05-01T09:48:56Z</time></trkpt><trkpt lat="46.15019796281556" lon="9.41245026024228"><ele>196.0</ele><time>2026-05-01T09:48:57Z</time></trkpt><trkpt lat="46.15031168859432" lon="9.412463162682483"><ele>196.0</ele><time>2026-05-01T09:48:58Z</time></trkpt><trkpt lat="46.15042054698515" lon="9.412476436815327"><ele>196.0</ele><time>2026-05-01T09:48:59Z</time></trkpt><trkpt lat="46.150519507559935" lon="9.412487788703611"><ele>196.0</ele><time>2026-05-01T09:49:00Z</time></trkpt><trkpt lat="46.15061690146753" lon="9.412506750366761"><ele>196.0</ele><time>2026-05-01T09:49:01Z</time></trkpt><trkpt lat="46.150718333818375" lon="9.412542000751841"><ele>196.0</ele><time>2026-05-01T09:49:02Z</time></trkpt><trkpt lat="46.15082162927179" lon="9.412594522212792"><ele>197.5</ele><time>2026-05-01T09:49:03Z</time></trkpt><trkpt lat="46.15092728996315" lon="9.41265989108826"><ele>199.0</ele><time>2026-05-01T09:49:04Z</time></trkpt><trkpt lat="46.1510319952603" lon="9.412737965742165"><ele>200.5</ele><time>2026-05-01T09:49:04.999Z</time></trkpt><trkpt lat="46.15113712152281" lon="9.412831097349477"><ele>202.0</ele><time>2026-05-01T09:49:05.999Z</time></trkpt><trkpt lat="46.15123954275252" lon="9.412936748248036"><ele>201.75</ele><time>2026-05-01T09:49:06.999Z</time></trkpt><trkpt lat="46.15134625944713" lon="9.413042210681748"><ele>201.5</ele><time>2026-05-01T09:49:07.999Z</time></trkpt><trkpt lat="46.15145398754941" lon="9.413144979548125"><ele>201.25</ele><time>2026-05-01T09:49:08.999Z</time></trkpt><trkpt lat="46.15156002725255" lon="9.413243016511275"><ele>201.0</ele><time>2026-05-01T09:49:09.999Z</time></trkpt><trkpt lat="46.151660008609056" lon="9.413339942691717"><ele>200.60000000000002</ele><time>2026-05-01T09:49:10.999Z</time></trkpt><trkpt lat="46.15174839990221" lon="9.41343270791637"><ele>200.2</ele><time>2026-05-01T09:49:11.999Z</time></trkpt><trkpt lat="46.15184020553784" lon="9.413516258608713"><ele>199.8</ele><time>2026-05-01T09:49:12.999Z</time></trkpt><trkpt lat="46.15192494959823" lon="9.413595775845216"><ele>199.39999999999998</ele><time>2026-05-01T09:49:13.999Z</time></trkpt><trkpt lat="46.1520007264714" lon="9.41367527789102"><ele>199.0</ele><time>2026-05-01T09:49:14.999Z</time></trkpt><trkpt lat="46.152068853028936" lon="9.413752993598143"><ele>198.79999999999998</ele><time>2026-05-01T09:49:15.999Z</time></trkpt><trkpt lat="46.15213432504333" lon="9.413823096082398"><ele>198.6</ele><time>2026-05-01T09:49:16.999Z</time></trkpt><trkpt lat="46.152199451243405" lon="9.413882560207892"><ele>198.4</ele><time>2026-05-01T09:49:17.999Z</time></trkpt><trkpt lat="46.15227015846841" lon="9.4139445470941"><ele>198.2</ele><time>2026-05-01T09:49:18.999Z</time></trkpt><trkpt lat="46.15235941327294" lon="9.414022488018823"><ele>198.0</ele><time>2026-05-01T09:49:19.999Z</time></trkpt><trkpt lat="46.15245444962477" lon="9.41411758377915"><ele>198.4</ele><time>2026-05-01T09:49:20.999Z</time></trkpt><trkpt lat="46.152548945781355" lon="9.414217073608215"><ele>198.8</ele><time>2026-05-01T09:49:21.999Z</time></trkpt><trkpt lat="46.15263644185171" lon="9.414299954856439"><ele>199.2</ele><time>2026-05-01T09:49:22.999Z</time></trkpt><trkpt lat="46.15272870819903" lon="9.414380579664742"><ele>199.6</ele><time>2026-05-01T09:49:23.999Z</time></trkpt><trkpt lat="46.152811554695795" lon="9.414467970305184"><ele>200.0</ele><time>2026-05-01T09:49:24.999Z</time></trkpt><trkpt lat="46.15289606636838" lon="9.41456398737367"><ele>200.00000000000003</ele><time>2026-05-01T09:49:25.999Z</time></trkpt><trkpt lat="46.15296766939219" lon="9.414634110479927"><ele>200.0</ele><time>2026-05-01T09:49:26.999Z</time></trkpt><trkpt lat="46.15303665073599" lon="9.414694952441588"><ele>200.0</ele><time>2026-05-01T09:49:27.999Z</time></trkpt><trkpt lat="46.153104488815394" lon="9.414760031223182"><ele>200.0</ele><time>2026-05-01T09:49:28.999Z</time></trkpt><trkpt lat="46.153177857298935" lon="9.414834831641977"><ele>200.00000000000003</ele><time>2026-05-01T09:49:29.999Z</time></trkpt><trkpt lat="46.15325553462157" lon="9.414897885513685"><ele>200.0</ele><time>2026-05-01T09:49:30.999Z</time></trkpt><trkpt lat="46.15333253052078" lon="9.414972422013973"><ele>200.2</ele><time>2026-05-01T09:49:31.999Z</time></trkpt><trkpt lat="46.15341039389267" lon="9.415053938209804"><ele>200.4</ele><time>2026-05-01T09:49:32.999Z</time></trkpt><trkpt lat="46.15349415931921" lon="9.4151365938571"><ele>200.60000000000002</ele><time>2026-05-01T09:49:33.999Z</time></trkpt><trkpt lat="46.15358429906704" lon="9.415220576225051"><ele>200.8</ele><time>2026-05-01T09:49:34.999Z</time></trkpt><trkpt lat="46.15368154659373" lon="9.415312272682762"><ele>201.0</ele><time>2026-05-01T09:49:35.999Z</time></trkpt><trkpt lat="46.15378037694425" lon="9.415408607640115"><ele>200.75</ele><time>2026-05-01T09:49:36.999Z</time></trkpt><trkpt lat="46.15387425655503" lon="9.415504732933124"><ele>200.5</ele><time>2026-05-01T09:49:37.999Z</time></trkpt><trkpt lat="46.1539716761921" lon="9.415601215623758"><ele>200.25</ele><time>2026-05-01T09:49:38.999Z</time></trkpt><trkpt lat="46.15407568063678" lon="9.415715979167938"><ele>200.0</ele><time>2026-05-01T09:49:39.999Z</time></trkpt><trkpt lat="46.1542006419148" lon="9.415809185920734"><ele>200.66666666666669</ele><time>2026-05-01T09:49:40.999Z</time></trkpt><trkpt lat="46.15432126277357" lon="9.415934693856482"><ele>201.33333333333331</ele><time>2026-05-01T09:49:41.999Z</time></trkpt><trkpt lat="46.15445028896196" lon="9.416057330241404"><ele>202.0</ele><time>2026-05-01T09:49:42.999Z</time></trkpt><trkpt lat="46.15457455474255" lon="9.416193194917533"><ele>202.0</ele><time>2026-05-01T09:49:43.999Z</time></trkpt><trkpt lat="46.15442148149446" lon="9.416042851587967"><ele>202.0</ele><time>2026-05-01T09:49:44.999Z</time></trkpt><trkpt lat="46.154482179870165" lon="9.416102697485217"><ele>202.0</ele><time>2026-05-01T09:49:45.999Z</time></trkpt><trkpt lat="46.15454316214829" lon="9.416167129930107"><ele>202.0</ele><time>2026-05-01T09:49:46.999Z</time></trkpt><trkpt lat="46.1545994852226" lon="9.41622572059684"><ele>202.0</ele><time>2026-05-01T09:49:47.999Z</time></trkpt><trkpt lat="46.15466610004422" lon="9.416288306873653"><ele>202.0</ele><time>2026-05-01T09:49:48.999Z</time></trkpt><trkpt lat="46.154728301925566" lon="9.41635449475395"><ele>202.0</ele><time>2026-05-01T09:49:49.999Z</time></trkpt><trkpt lat="46.154789072059934" lon="9.41641630141181"><ele>202.0</ele><time>2026-05-01T09:49:50.999Z</time></trkpt><trkpt lat="46.15484301423564" lon="9.416472478296164"><ele>202.0</ele><time>2026-05-01T09:49:51.999Z</time></trkpt><trkpt lat="46.15489953408352" lon="9.416524954158184"><ele>202.0</ele><time>2026-05-01T09:49:52.999Z</time></trkpt><trkpt lat="46.154960017345914" lon="9.416579355922964"><ele>202.0</ele><time>2026-05-01T09:49:53.999Z</time></trkpt><trkpt lat="46.155012913226656" lon="9.416631803437696"><ele>202.0</ele><time>2026-05-01T09:49:54.999Z</time></trkpt><trkpt lat="46.155076013971644" lon="9.416697972984583"><ele>201.6</ele><time>2026-05-01T09:49:55.999Z</time></trkpt><trkpt lat="46.15514689676794" lon="9.416764773000667"><ele>201.2</ele><time>2026-05-01T09:49:56.999Z</time></trkpt><trkpt lat="46.15522006656159" lon="9.416836635676006"><ele>200.8</ele><time>2026-05-01T09:49:57.999Z</time></trkpt><trkpt lat="46.15529719595071" lon="9.416908684761724"><ele>200.4</ele><time>2026-05-01T09:49:58.999Z</time></trkpt><trkpt lat="46.15537982201839" lon="9.41698982007658"><ele>200.0</ele><time>2026-05-01T09:49:59.999Z</time></trkpt><trkpt lat="46.155468147763756" lon="9.417078322189823"><ele>200.0</ele><time>2026-05-01T09:50:00.999Z</time></trkpt><trkpt lat="46.15556423692261" lon="9.4171708480211"><ele>200.0</ele><time>2026-05-01T09:50:01.999Z</time></trkpt><trkpt lat="46.155669539197795" lon="9.41726899143748"><ele>200.0</ele><time>2026-05-01T09:50:02.999Z</time></trkpt><trkpt lat="46.15578751418985" lon="9.417375223038176"><ele>200.0</ele><time>2026-05-01T09:50:03.999Z</time></trkpt><trkpt lat="46.15590187726656" lon="9.417503784311949"><ele>200.0</ele><time>2026-05-01T09:50:04.999Z</time></trkpt><trkpt lat="46.15603078329519" lon="9.417636733375614"><ele>200.0</ele><time>2026-05-01T09:50:05.999Z</time></trkpt><trkpt lat="46.15615484366967" lon="9.417762365551413"><ele>200.0</ele><time>2026-05-01T09:50:06.999Z</time></trkpt><trkpt lat="46.156282925913665" lon="9.417891547872296"><ele>199.66666666666669</ele><time>2026-05-01T09:50:07.999Z</time></trkpt><trkpt lat="46.15637932298506" lon="9.418043273426129"><ele>199.33333333333331</ele><time>2026-05-01T09:50:08.999Z</time></trkpt><trkpt lat="46.15652661862283" lon="9.418152798814235"><ele>199.0</ele><time>2026-05-01T09:50:09.999Z</time></trkpt><trkpt lat="46.1566538318906" lon="9.418242909604894"><ele>199.0</ele><time>2026-05-01T09:50:10.999Z</time></trkpt><trkpt lat="46.15674952921098" lon="9.418339408718019"><ele>199.0</ele><time>2026-05-01T09:50:11.999Z</time></trkpt><trkpt lat="46.15682518340072" lon="9.418417862474499"><ele>199.0</ele><time>2026-05-01T09:50:12.999Z</time></trkpt><trkpt lat="46.15687350690684" lon="9.418479920205133"><ele>199.0</ele><time>2026-05-01T09:50:13.999Z</time></trkpt><trkpt lat="46.15691696421631" lon="9.418560958364283"><ele>199.0</ele><time>2026-05-01T09:50:14.999Z</time></trkpt><trkpt lat="46.15696220918797" lon="9.41877665197273"><ele>199.0</ele><time>2026-05-01T09:50:16.999Z</time></trkpt><trkpt lat="46.15696159825802" lon="9.418950863439267"><ele>199.0</ele><time>2026-05-01T09:50:17.999Z</time></trkpt><trkpt lat="46.156964305790886" lon="9.419108399183981"><ele>199.0</ele><time>2026-05-01T09:50:18.999Z</time></trkpt><trkpt lat="46.15719477287543" lon="9.41891470534139"><ele>199.0</ele><time>2026-05-01T09:50:19.999Z</time></trkpt><trkpt lat="46.157297934182424" lon="9.41892186169694"><ele>199.0</ele><time>2026-05-01T09:50:20.999Z</time></trkpt><trkpt lat="46.157409748280045" lon="9.41897829654556"><ele>199.0</ele><time>2026-05-01T09:50:21.999Z</time></trkpt><trkpt lat="46.15751918141472" lon="9.419083255757622"><ele>199.0</ele><time>2026-05-01T09:50:22.999Z</time></trkpt><trkpt lat="46.157633682689365" lon="9.419208557335606"><ele>199.33333333333331</ele><time>2026-05-01T09:50:23.998Z</time></trkpt><trkpt lat="46.157757516986415" lon="9.419330499518862"><ele>199.66666666666669</ele><time>2026-05-01T09:50:24.998Z</time></trkpt><trkpt lat="46.15788262269827" lon="9.419453068233477"><ele>200.0</ele><time>2026-05-01T09:50:25.998Z</time></trkpt><trkpt lat="46.15801933325185" lon="9.419594950362683"><ele>200.0</ele><time>2026-05-01T09:50:26.998Z</time></trkpt><trkpt lat="46.15816447060746" lon="9.419736535891783"><ele>200.0</ele><time>2026-05-01T09:50:27.998Z</time></trkpt><trkpt lat="46.15832373577915" lon="9.41988885766838"><ele>200.0</ele><time>2026-05-01T09:50:28.998Z</time></trkpt><trkpt lat="46.158495853455626" lon="9.420053151978614"><ele>200.0</ele><time>2026-05-01T09:50:29.998Z</time></trkpt><trkpt lat="46.158655967738866" lon="9.420207415555666"><ele>200.0</ele><time>2026-05-01T09:50:30.998Z</time></trkpt><trkpt lat="46.15882249178504" lon="9.420369341750686"><ele>200.0</ele><time>2026-05-01T09:50:31.998Z</time></trkpt><trkpt lat="46.15899892155455" lon="9.42054186398891"><ele>200.5</ele><time>2026-05-01T09:50:32.999Z</time></trkpt><trkpt lat="46.15917898523857" lon="9.420723849290829"><ele>201.0</ele><time>2026-05-01T09:50:33.999Z</time></trkpt><trkpt lat="46.15936609605425" lon="9.420919957304244"><ele>201.0</ele><time>2026-05-01T09:50:34.999Z</time></trkpt><trkpt lat="46.15956080250995" lon="9.42110918473927"><ele>201.0</ele><time>2026-05-01T09:50:35.999Z</time></trkpt><trkpt lat="46.15975643464235" lon="9.421301978760928"><ele>202.0</ele><time>2026-05-01T09:50:36.999Z</time></trkpt><trkpt lat="46.159962826908625" lon="9.421502252911138"><ele>203.0</ele><time>2026-05-01T09:50:37.999Z</time></trkpt><trkpt lat="46.16017247369737" lon="9.421699808758875"><ele>203.0</ele><time>2026-05-01T09:50:38.999Z</time></trkpt><trkpt lat="46.16037704024541" lon="9.42189679077288"><ele>203.0</ele><time>2026-05-01T09:50:39.999Z</time></trkpt><trkpt lat="46.160577353797045" lon="9.422094460296593"><ele>202.5</ele><time>2026-05-01T09:50:40.999Z</time></trkpt><trkpt lat="46.16077894151556" lon="9.422288919561652"><ele>202.0</ele><time>2026-05-01T09:50:41.999Z</time></trkpt><trkpt lat="46.1609925735138" lon="9.422487484911775"><ele>202.0</ele><time>2026-05-01T09:50:42.999Z</time></trkpt><trkpt lat="46.16118609304601" lon="9.422678565939707"><ele>202.0</ele><time>2026-05-01T09:50:43.999Z</time></trkpt><trkpt lat="46.16138217512376" lon="9.422870370058545"><ele>202.5</ele><time>2026-05-01T09:50:44.999Z</time></trkpt><trkpt lat="46.16157406641878" lon="9.423058666975065"><ele>203.0</ele><time>2026-05-01T09:50:45.999Z</time></trkpt><trkpt lat="46.16176557561541" lon="9.423245522748187"><ele>203.0</ele><time>2026-05-01T09:50:46.999Z</time></trkpt><trkpt lat="46.16195336375655" lon="9.423433461631959"><ele>203.0</ele><time>2026-05-01T09:50:47.999Z</time></trkpt><trkpt lat="46.16213903620406" lon="9.4236118333185"><ele>203.0</ele><time>2026-05-01T09:50:48.999Z</time></trkpt><trkpt lat="46.16232053221933" lon="9.423787652450507"><ele>203.0</ele><time>2026-05-01T09:50:49.999Z</time></trkpt><trkpt lat="46.16250519943798" lon="9.423964782711323"><ele>203.0</ele><time>2026-05-01T09:50:50.999Z</time></trkpt><trkpt lat="46.162689445263005" lon="9.424138572392707"><ele>202.66666666666669</ele><time>2026-05-01T09:50:51.999Z</time></trkpt><trkpt lat="46.1628633519179" lon="9.424333630174552"><ele>202.33333333333331</ele><time>2026-05-01T09:50:52.999Z</time></trkpt><trkpt lat="46.16304651101033" lon="9.424513928426881"><ele>202.0</ele><time>2026-05-01T09:50:53.999Z</time></trkpt><trkpt lat="46.16323208403478" lon="9.42468035595355"><ele>202.0</ele><time>2026-05-01T09:50:54.999Z</time></trkpt><trkpt lat="46.1633981679027" lon="9.424856620519476"><ele>202.0</ele><time>2026-05-01T09:50:55.999Z</time></trkpt><trkpt lat="46.163561900805405" lon="9.425017671950412"><ele>202.0</ele><time>2026-05-01T09:50:56.999Z</time></trkpt><trkpt lat="46.16371285789729" lon="9.425165036762523"><ele>202.0</ele><time>2026-05-01T09:50:57.999Z</time></trkpt><trkpt lat="46.16386841838559" lon="9.425317674746712"><ele>202.0</ele><time>2026-05-01T09:50:58.999Z</time></trkpt><trkpt lat="46.16401193766438" lon="9.425458721626391"><ele>202.0</ele><time>2026-05-01T09:50:59.999Z</time></trkpt><trkpt lat="46.164148829359064" lon="9.42560144885169"><ele>202.0</ele><time>2026-05-01T09:51:00.999Z</time></trkpt><trkpt lat="46.16428659003929" lon="9.42572538308805"><ele>202.0</ele><time>2026-05-01T09:51:01.999Z</time></trkpt><trkpt lat="46.164421421017245" lon="9.42585308037576"><ele>202.0</ele><time>2026-05-01T09:51:02.999Z</time></trkpt><trkpt lat="46.164553091309756" lon="9.425980136965196"><ele>202.0</ele><time>2026-05-01T09:51:03.999Z</time></trkpt><trkpt lat="46.16467991606153" lon="9.426104832259107"><ele>202.0</ele><time>2026-05-01T09:51:04.999Z</time></trkpt><trkpt lat="46.16480226342559" lon="9.426226298545245"><ele>202.0</ele><time>2026-05-01T09:51:05.999Z</time></trkpt><trkpt lat="46.16492659696752" lon="9.4263557699652"><ele>201.66666666666666</ele><time>2026-05-01T09:51:06.999Z</time></trkpt><trkpt lat="46.16505614534654" lon="9.426480679676741"><ele>201.33333333333331</ele><time>2026-05-01T09:51:07.999Z</time></trkpt><trkpt lat="46.165189047168624" lon="9.42660856165431"><ele>201.0</ele><time>2026-05-01T09:51:08.999Z</time></trkpt><trkpt lat="46.16532228502508" lon="9.426741991628372"><ele>201.0</ele><time>2026-05-01T09:51:09.999Z</time></trkpt><trkpt lat="46.16546026571161" lon="9.426883932250053"><ele>201.0</ele><time>2026-05-01T09:51:10.999Z</time></trkpt><trkpt lat="46.16560222014452" lon="9.427028211710446"><ele>201.0</ele><time>2026-05-01T09:51:11.999Z</time></trkpt><trkpt lat="46.165743411234715" lon="9.427163537600034"><ele>201.66666666666669</ele><time>2026-05-01T09:51:12.999Z</time></trkpt><trkpt lat="46.16587644656836" lon="9.427287324237323"><ele>202.33333333333334</ele><time>2026-05-01T09:51:13.999Z</time></trkpt><trkpt lat="46.166009704288506" lon="9.427408690551937"><ele>203.0</ele><time>2026-05-01T09:51:14.999Z</time></trkpt><trkpt lat="46.166146583764046" lon="9.42752894987328"><ele>203.0</ele><time>2026-05-01T09:51:15.999Z</time></trkpt><trkpt lat="46.16628623550747" lon="9.427642235087799"><ele>203.0</ele><time>2026-05-01T09:51:16.999Z</time></trkpt><trkpt lat="46.16643425374487" lon="9.427745316843096"><ele>203.0</ele><time>2026-05-01T09:51:17.999Z</time></trkpt><trkpt lat="46.16659000458431" lon="9.427845020354969"><ele>203.33333333333334</ele><time>2026-05-01T09:51:18.999Z</time></trkpt><trkpt lat="46.16674465943747" lon="9.427934012758596"><ele>203.66666666666669</ele><time>2026-05-01T09:51:19.999Z</time></trkpt><trkpt lat="46.166891489883035" lon="9.428018222622931"><ele>204.0</ele><time>2026-05-01T09:51:20.999Z</time></trkpt><trkpt lat="46.16703522009857" lon="9.428103960095154"><ele>204.0</ele><time>2026-05-01T09:51:21.999Z</time></trkpt><trkpt lat="46.16716710106164" lon="9.428184651458855"><ele>204.0</ele><time>2026-05-01T09:51:22.999Z</time></trkpt><trkpt lat="46.16729441317582" lon="9.42825995574653"><ele>204.0</ele><time>2026-05-01T09:51:23.999Z</time></trkpt><trkpt lat="46.16741622148563" lon="9.428332867758085"><ele>204.0</ele><time>2026-05-01T09:51:24.999Z</time></trkpt><trkpt lat="46.167542894237" lon="9.42840451890362"><ele>204.0</ele><time>2026-05-01T09:51:25.999Z</time></trkpt><trkpt lat="46.167675915003706" lon="9.428482600479692"><ele>204.0</ele><time>2026-05-01T09:51:26.999Z</time></trkpt><trkpt lat="46.16781730995985" lon="9.428564168736976"><ele>204.0</ele><time>2026-05-01T09:51:27.999Z</time></trkpt><trkpt lat="46.16796895373227" lon="9.428651430487008"><ele>204.0</ele><time>2026-05-01T09:51:28.999Z</time></trkpt><trkpt lat="46.168128728563325" lon="9.428744307048335"><ele>204.0</ele><time>2026-05-01T09:51:29.999Z</time></trkpt><trkpt lat="46.16828602338811" lon="9.428841575381659"><ele>204.0</ele><time>2026-05-01T09:51:30.999Z</time></trkpt><trkpt lat="46.16845598985369" lon="9.4289428944742"><ele>203.66666666666669</ele><time>2026-05-01T09:51:31.999Z</time></trkpt><trkpt lat="46.168612425955935" lon="9.4290469101613"><ele>203.33333333333334</ele><time>2026-05-01T09:51:32.999Z</time></trkpt><trkpt lat="46.16876687246907" lon="9.429144673586427"><ele>203.0</ele><time>2026-05-01T09:51:33.999Z</time></trkpt><trkpt lat="46.16892819708467" lon="9.429240274004199"><ele>203.0</ele><time>2026-05-01T09:51:34.999Z</time></trkpt><trkpt lat="46.169092980332366" lon="9.429341660122727"><ele>203.0</ele><time>2026-05-01T09:51:35.999Z</time></trkpt><trkpt lat="46.16924361976527" lon="9.429442628548559"><ele>203.0</ele><time>2026-05-01T09:51:36.999Z</time></trkpt><trkpt lat="46.16939319758138" lon="9.429551748312491"><ele>203.0</ele><time>2026-05-01T09:51:37.999Z</time></trkpt><trkpt lat="46.169527433770355" lon="9.429674099207165"><ele>203.0</ele><time>2026-05-01T09:51:38.999Z</time></trkpt><trkpt lat="46.16964573055344" lon="9.429805021361956"><ele>203.0</ele><time>2026-05-01T09:51:39.999Z</time></trkpt><trkpt lat="46.169751899849174" lon="9.429955999851762"><ele>203.0</ele><time>2026-05-01T09:51:40.999Z</time></trkpt><trkpt lat="46.16985870643262" lon="9.430114137919874"><ele>203.0</ele><time>2026-05-01T09:51:41.999Z</time></trkpt><trkpt lat="46.16996418419525" lon="9.430273250471537"><ele>203.0</ele><time>2026-05-01T09:51:42.999Z</time></trkpt><trkpt lat="46.1700589705104" lon="9.4304253748804"><ele>203.0</ele><time>2026-05-01T09:51:43.999Z</time></trkpt><trkpt lat="46.170155408553875" lon="9.430572693809248"><ele>203.0</ele><time>2026-05-01T09:51:44.999Z</time></trkpt><trkpt lat="46.170267289254525" lon="9.430724053838475"><ele>203.0</ele><time>2026-05-01T09:51:45.999Z</time></trkpt><trkpt lat="46.17037170514469" lon="9.430905120323983"><ele>203.0</ele><time>2026-05-01T09:51:46.999Z</time></trkpt><trkpt lat="46.170497245766036" lon="9.431071873451181"><ele>203.0</ele><time>2026-05-01T09:51:47.999Z</time></trkpt><trkpt lat="46.170611564105435" lon="9.431266326515821"><ele>203.0</ele><time>2026-05-01T09:51:48.999Z</time></trkpt><trkpt lat="46.17072041063022" lon="9.43144373751937"><ele>203.0</ele><time>2026-05-01T09:51:49.999Z</time></trkpt><trkpt lat="46.1708204539825" lon="9.4315996050323"><ele>203.0</ele><time>2026-05-01T09:51:50.999Z</time></trkpt><trkpt lat="46.170909562009534" lon="9.431734599832579"><ele>203.0</ele><time>2026-05-01T09:51:51.999Z</time></trkpt><trkpt lat="46.1709801118848" lon="9.431848645662273"><ele>203.0</ele><time>2026-05-01T09:51:52.999Z</time></trkpt><trkpt lat="46.17103748258132" lon="9.431940802701583"><ele>203.0</ele><time>2026-05-01T09:51:53.999Z</time></trkpt><trkpt lat="46.171094365832566" lon="9.432039882511553"><ele>203.0</ele><time>2026-05-01T09:51:55.999Z</time></trkpt><trkpt lat="46.17113011912758" lon="9.4321401243193"><ele>203.16666666666669</ele><time>2026-05-01T09:51:59.999Z</time></trkpt><trkpt lat="46.171124692706506" lon="9.432275748322834"><ele>203.33333333333334</ele><time>2026-05-01T09:52:01.999Z</time></trkpt><trkpt lat="46.171112153135006" lon="9.432426870713618"><ele>203.5</ele><time>2026-05-01T09:52:03.999Z</time></trkpt><trkpt lat="46.17120371975595" lon="9.432526067475639"><ele>203.66666666666669</ele><time>2026-05-01T09:52:05.999Z</time></trkpt><trkpt lat="46.171267139392896" lon="9.432527388050259"><ele>203.83333333333334</ele><time>2026-05-01T09:52:06.999Z</time></trkpt><trkpt lat="46.171337586192216" lon="9.432525856543204"><ele>204.0</ele><time>2026-05-01T09:52:07.999Z</time></trkpt><trkpt lat="46.17140960918379" lon="9.43255857753581"><ele>204.0</ele><time>2026-05-01T09:52:08.999Z</time></trkpt><trkpt lat="46.17147491221871" lon="9.43263537596716"><ele>204.0</ele><time>2026-05-01T09:52:09.999Z</time></trkpt><trkpt lat="46.171533234058565" lon="9.43273463213323"><ele>204.0</ele><time>2026-05-01T09:52:10.999Z</time></trkpt><trkpt lat="46.1715972794536" lon="9.432837412263305"><ele>204.0</ele><time>2026-05-01T09:52:11.999Z</time></trkpt><trkpt lat="46.171666074871546" lon="9.432924017161984"><ele>204.0</ele><time>2026-05-01T09:52:12.999Z</time></trkpt><trkpt lat="46.17174190773302" lon="9.433003368904714"><ele>203.39999999999998</ele><time>2026-05-01T09:52:13.999Z</time></trkpt><trkpt lat="46.171830377123236" lon="9.433083820357536"><ele>202.8</ele><time>2026-05-01T09:52:14.999Z</time></trkpt><trkpt lat="46.17192737784004" lon="9.433162602268062"><ele>202.2</ele><time>2026-05-01T09:52:15.999Z</time></trkpt><trkpt lat="46.172023706698766" lon="9.433238354344729"><ele>201.60000000000002</ele><time>2026-05-01T09:52:16.999Z</time></trkpt><trkpt lat="46.17211735047693" lon="9.433297508902728"><ele>201.0</ele><time>2026-05-01T09:52:17.999Z</time></trkpt><trkpt lat="46.17219826316963" lon="9.433340914125303"><ele>201.0</ele><time>2026-05-01T09:52:18.999Z</time></trkpt><trkpt lat="46.17227508662044" lon="9.433375203260642"><ele>201.0</ele><time>2026-05-01T09:52:19.999Z</time></trkpt><trkpt lat="46.172358986148204" lon="9.433404341910085"><ele>201.0</ele><time>2026-05-01T09:52:20.999Z</time></trkpt><trkpt lat="46.172465285969146" lon="9.433447318132814"><ele>201.0</ele><time>2026-05-01T09:52:21.999Z</time></trkpt><trkpt lat="46.172598348321" lon="9.43350688495842"><ele>201.0</ele><time>2026-05-01T09:52:22.999Z</time></trkpt><trkpt lat="46.172742840214504" lon="9.433575294677002"><ele>200.66666666666669</ele><time>2026-05-01T09:52:23.999Z</time></trkpt><trkpt lat="46.172887297633075" lon="9.433643599639614"><ele>200.33333333333334</ele><time>2026-05-01T09:52:24.999Z</time></trkpt><trkpt lat="46.17302549784837" lon="9.433703125712391"><ele>200.0</ele><time>2026-05-01T09:52:25.999Z</time></trkpt><trkpt lat="46.17317501197046" lon="9.433764786296946"><ele>200.33333333333334</ele><time>2026-05-01T09:52:26.999Z</time></trkpt><trkpt lat="46.17328090984816" lon="9.433831729509382"><ele>200.66666666666669</ele><time>2026-05-01T09:52:27.999Z</time></trkpt><trkpt lat="46.1733929626651" lon="9.43390499986964"><ele>201.0</ele><time>2026-05-01T09:52:28.999Z</time></trkpt><trkpt lat="46.17360588178201" lon="9.433964678232874"><ele>201.0</ele><time>2026-05-01T09:52:29.999Z</time></trkpt><trkpt lat="46.17375004742961" lon="9.434024243148905"><ele>201.0</ele><time>2026-05-01T09:52:30.999Z</time></trkpt><trkpt lat="46.1738946282677" lon="9.434083714755516"><ele>201.0</ele><time>2026-05-01T09:52:31.999Z</time></trkpt><trkpt lat="46.1740361455236" lon="9.434141074295177"><ele>201.0</ele><time>2026-05-01T09:52:32.999Z</time></trkpt><trkpt lat="46.17417314202155" lon="9.434202322947876"><ele>200.33333333333331</ele><time>2026-05-01T09:52:33.999Z</time></trkpt><trkpt lat="46.174319747623166" lon="9.434269006561438"><ele>199.66666666666666</ele><time>2026-05-01T09:52:34.999Z</time></trkpt><trkpt lat="46.174480298051584" lon="9.434341286047253"><ele>199.0</ele><time>2026-05-01T09:52:35.999Z</time></trkpt><trkpt lat="46.17466357961847" lon="9.434411269568542"><ele>199.0</ele><time>2026-05-01T09:52:36.999Z</time></trkpt><trkpt lat="46.1748031374222" lon="9.434513103498583"><ele>199.0</ele><time>2026-05-01T09:52:37.998Z</time></trkpt><trkpt lat="46.174970965893344" lon="9.434629008369523"><ele>199.0</ele><time>2026-05-01T09:52:38.999Z</time></trkpt><trkpt lat="46.17513760363241" lon="9.434750536238221"><ele>200.33333333333331</ele><time>2026-05-01T09:52:39.999Z</time></trkpt><trkpt lat="46.17529104565296" lon="9.434876439124238"><ele>201.66666666666669</ele><time>2026-05-01T09:52:40.999Z</time></trkpt><trkpt lat="46.17544274630932" lon="9.435012921541738"><ele>203.0</ele><time>2026-05-01T09:52:41.999Z</time></trkpt><trkpt lat="46.17559235013" lon="9.435155789921016"><ele>202.66666666666669</ele><time>2026-05-01T09:52:42.999Z</time></trkpt><trkpt lat="46.1757379585206" lon="9.435308135403007"><ele>202.33333333333331</ele><time>2026-05-01T09:52:43.999Z</time></trkpt><trkpt lat="46.17588797762909" lon="9.435461432730584"><ele>202.0</ele><time>2026-05-01T09:52:44.999Z</time></trkpt><trkpt lat="46.17603858708903" lon="9.435615801122655"><ele>201.66666666666666</ele><time>2026-05-01T09:52:45.999Z</time></trkpt><trkpt lat="46.17619552780527" lon="9.435773795782227"><ele>201.33333333333331</ele><time>2026-05-01T09:52:46.999Z</time></trkpt><trkpt lat="46.176361631542264" lon="9.435933619158419"><ele>201.0</ele><time>2026-05-01T09:52:47.999Z</time></trkpt><trkpt lat="46.17653292788927" lon="9.43609283414709"><ele>201.0</ele><time>2026-05-01T09:52:48.999Z</time></trkpt><trkpt lat="46.17670720092801" lon="9.436251497733737"><ele>201.0</ele><time>2026-05-01T09:52:49.999Z</time></trkpt><trkpt lat="46.17688635097605" lon="9.436414963522003"><ele>201.0</ele><time>2026-05-01T09:52:50.999Z</time></trkpt><trkpt lat="46.17706491930881" lon="9.436590688620903"><ele>201.0</ele><time>2026-05-01T09:52:51.999Z</time></trkpt><trkpt lat="46.17724791283094" lon="9.436781891473343"><ele>201.0</ele><time>2026-05-01T09:52:52.999Z</time></trkpt><trkpt lat="46.17742488961026" lon="9.436976231298155"><ele>201.0</ele><time>2026-05-01T09:52:53.999Z</time></trkpt><trkpt lat="46.17759164271482" lon="9.437156946437574"><ele>200.33333333333331</ele><time>2026-05-01T09:52:54.999Z</time></trkpt><trkpt lat="46.17775813894863" lon="9.437326641474261"><ele>199.66666666666666</ele><time>2026-05-01T09:52:55.999Z</time></trkpt><trkpt lat="46.177918457365635" lon="9.437486223909492"><ele>199.0</ele><time>2026-05-01T09:52:56.999Z</time></trkpt><trkpt lat="46.178092569340954" lon="9.437657119773705"><ele>199.0</ele><time>2026-05-01T09:52:57.999Z</time></trkpt><trkpt lat="46.17826293736431" lon="9.437829604057052"><ele>199.0</ele><time>2026-05-01T09:52:58.999Z</time></trkpt><trkpt lat="46.17843281759921" lon="9.438000008232223"><ele>199.0</ele><time>2026-05-01T09:52:59.999Z</time></trkpt><trkpt lat="46.17860233082912" lon="9.438168176848999"><ele>199.33333333333331</ele><time>2026-05-01T09:53:00.999Z</time></trkpt><trkpt lat="46.17875788727438" lon="9.438318925588373"><ele>199.66666666666669</ele><time>2026-05-01T09:53:01.999Z</time></trkpt><trkpt lat="46.17891609260859" lon="9.438469360867197"><ele>200.0</ele><time>2026-05-01T09:53:02.999Z</time></trkpt><trkpt lat="46.17908067194342" lon="9.438622177584248"><ele>200.0</ele><time>2026-05-01T09:53:03.999Z</time></trkpt><trkpt lat="46.179250432287866" lon="9.438789349966607"><ele>200.0</ele><time>2026-05-01T09:53:04.999Z</time></trkpt><trkpt lat="46.17940342983063" lon="9.438974847079182"><ele>200.0</ele><time>2026-05-01T09:53:05.999Z</time></trkpt><trkpt lat="46.17952777002149" lon="9.439154926743507"><ele>200.33333333333334</ele><time>2026-05-01T09:53:06.999Z</time></trkpt><trkpt lat="46.17963510420347" lon="9.439312248055312"><ele>200.66666666666669</ele><time>2026-05-01T09:53:07.999Z</time></trkpt><trkpt lat="46.179794190116816" lon="9.43946778158046"><ele>201.0</ele><time>2026-05-01T09:53:08.999Z</time></trkpt><trkpt lat="46.17998588796336" lon="9.43958829121806"><ele>200.5</ele><time>2026-05-01T09:53:09.999Z</time></trkpt><trkpt lat="46.18022596793944" lon="9.439709608280516"><ele>200.0</ele><time>2026-05-01T09:53:10.999Z</time></trkpt><trkpt lat="46.18041991904053" lon="9.439988121485111"><ele>200.0</ele><time>2026-05-01T09:53:11.999Z</time></trkpt><trkpt lat="46.18050537212598" lon="9.440027937057451"><ele>200.0</ele><time>2026-05-01T09:53:12.999Z</time></trkpt><trkpt lat="46.1806680828563" lon="9.440208074453409"><ele>200.0</ele><time>2026-05-01T09:53:13.999Z</time></trkpt><trkpt lat="46.18084017466614" lon="9.44038848808448"><ele>201.0</ele><time>2026-05-01T09:53:14.999Z</time></trkpt><trkpt lat="46.18101170873871" lon="9.440563506586813"><ele>202.0</ele><time>2026-05-01T09:53:15.999Z</time></trkpt><trkpt lat="46.18118960064293" lon="9.44073743083421"><ele>203.0</ele><time>2026-05-01T09:53:16.999Z</time></trkpt><trkpt lat="46.181367361795274" lon="9.440914319310831"><ele>202.0</ele><time>2026-05-01T09:53:17.999Z</time></trkpt><trkpt lat="46.18154260618373" lon="9.441089791105147"><ele>201.0</ele><time>2026-05-01T09:53:18.999Z</time></trkpt><trkpt lat="46.18172101634818" lon="9.441264387916652"><ele>200.0</ele><time>2026-05-01T09:53:19.999Z</time></trkpt><trkpt lat="46.18190436018128" lon="9.44144617306357"><ele>200.0</ele><time>2026-05-01T09:53:20.999Z</time></trkpt><trkpt lat="46.182092155914134" lon="9.441635127384796"><ele>200.0</ele><time>2026-05-01T09:53:21.999Z</time></trkpt><trkpt lat="46.182294525452974" lon="9.441835900327376"><ele>200.5</ele><time>2026-05-01T09:53:22.999Z</time></trkpt><trkpt lat="46.18251288024875" lon="9.442044880974837"><ele>201.0</ele><time>2026-05-01T09:53:23.999Z</time></trkpt><trkpt lat="46.18272691728588" lon="9.442297998992746"><ele>201.5</ele><time>2026-05-01T09:53:24.999Z</time></trkpt><trkpt lat="46.182948692538325" lon="9.442518529066097"><ele>202.0</ele><time>2026-05-01T09:53:25.999Z</time></trkpt><trkpt lat="46.1831566618171" lon="9.442706593220064"><ele>201.0</ele><time>2026-05-01T09:53:26.999Z</time></trkpt><trkpt lat="46.18334726097808" lon="9.442910769314052"><ele>200.0</ele><time>2026-05-01T09:53:27.999Z</time></trkpt><trkpt lat="46.18353110318146" lon="9.443093063135425"><ele>200.0</ele><time>2026-05-01T09:53:28.999Z</time></trkpt><trkpt lat="46.18370874190949" lon="9.443258138367222"><ele>200.0</ele><time>2026-05-01T09:53:29.999Z</time></trkpt><trkpt lat="46.18388463554982" lon="9.443404581640072"><ele>200.0</ele><time>2026-05-01T09:53:30.999Z</time></trkpt><trkpt lat="46.18405655107748" lon="9.443532359678617"><ele>199.66666666666669</ele><time>2026-05-01T09:53:31.999Z</time></trkpt><trkpt lat="46.18421602858808" lon="9.443639280620259"><ele>199.33333333333331</ele><time>2026-05-01T09:53:32.999Z</time></trkpt><trkpt lat="46.18435166256665" lon="9.443718711220361"><ele>199.0</ele><time>2026-05-01T09:53:33.999Z</time></trkpt><trkpt lat="46.18447183788875" lon="9.44378484338753"><ele>199.5</ele><time>2026-05-01T09:53:34.999Z</time></trkpt><trkpt lat="46.18457116449417" lon="9.443824854780017"><ele>200.0</ele><time>2026-05-01T09:53:35.999Z</time></trkpt><trkpt lat="46.184691282302985" lon="9.443886118990749"><ele>200.5</ele><time>2026-05-01T09:53:36.999Z</time></trkpt><trkpt lat="46.18481368552494" lon="9.443936052288906"><ele>201.0</ele><time>2026-05-01T09:53:37.999Z</time></trkpt><trkpt lat="46.18493660846062" lon="9.443983951270525"><ele>202.5</ele><time>2026-05-01T09:53:38.999Z</time></trkpt><trkpt lat="46.185062997193114" lon="9.444030645139772"><ele>204.0</ele><time>2026-05-01T09:53:39.999Z</time></trkpt><trkpt lat="46.18519544716451" lon="9.444072362192466"><ele>205.5</ele><time>2026-05-01T09:53:40.999Z</time></trkpt><trkpt lat="46.185332548851676" lon="9.44410568715797"><ele>207.0</ele><time>2026-05-01T09:53:41.999Z</time></trkpt><trkpt lat="46.18547122525897" lon="9.44413395523154"><ele>207.0</ele><time>2026-05-01T09:53:42.999Z</time></trkpt><trkpt lat="46.185620968530195" lon="9.444151476153742"><ele>207.0</ele><time>2026-05-01T09:53:43.999Z</time></trkpt><trkpt lat="46.1857885119045" lon="9.444174664584738"><ele>207.0</ele><time>2026-05-01T09:53:44.999Z</time></trkpt><trkpt lat="46.18600527621961" lon="9.44422865557342"><ele>207.5</ele><time>2026-05-01T09:53:45.999Z</time></trkpt><trkpt lat="46.18622871097453" lon="9.444305736690616"><ele>208.0</ele><time>2026-05-01T09:53:46.999Z</time></trkpt><trkpt lat="46.18646550646002" lon="9.444369296676804"><ele>207.0</ele><time>2026-05-01T09:53:47.999Z</time></trkpt><trkpt lat="46.186682129845785" lon="9.444414920527656"><ele>206.0</ele><time>2026-05-01T09:53:48.999Z</time></trkpt><trkpt lat="46.1868829411659" lon="9.44447513933895"><ele>205.0</ele><time>2026-05-01T09:53:49.999Z</time></trkpt><trkpt lat="46.187081339723086" lon="9.44457364366419"><ele>210.0</ele><time>2026-05-01T09:53:50.999Z</time></trkpt><trkpt lat="46.18726905747102" lon="9.44470275581859"><ele>215.0</ele><time>2026-05-01T09:53:51.999Z</time></trkpt><trkpt lat="46.18745288504082" lon="9.444846053135612"><ele>220.0</ele><time>2026-05-01T09:53:52.999Z</time></trkpt><trkpt lat="46.18763154800272" lon="9.444996727320419"><ele>220.0</ele><time>2026-05-01T09:53:53.999Z</time></trkpt><trkpt lat="46.187792802079805" lon="9.445155566900757"><ele>220.0</ele><time>2026-05-01T09:53:54.999Z</time></trkpt><trkpt lat="46.187941244723646" lon="9.4453337170507"><ele>220.0</ele><time>2026-05-01T09:53:55.999Z</time></trkpt><trkpt lat="46.18808325347505" lon="9.445509505910216"><ele>219.66666666666666</ele><time>2026-05-01T09:53:56.999Z</time></trkpt><trkpt lat="46.188200921517705" lon="9.44569936456551"><ele>219.33333333333331</ele><time>2026-05-01T09:53:57.999Z</time></trkpt><trkpt lat="46.188314844628025" lon="9.445913169973634"><ele>219.0</ele><time>2026-05-01T09:53:58.999Z</time></trkpt><trkpt lat="46.1884168534478" lon="9.44612061861463"><ele>231.33333333333331</ele><time>2026-05-01T09:53:59.999Z</time></trkpt><trkpt lat="46.18851979265133" lon="9.446324162732047"><ele>243.66666666666666</ele><time>2026-05-01T09:54:00.999Z</time></trkpt><trkpt lat="46.188663695676574" lon="9.446607208037019"><ele>256.0</ele><time>2026-05-01T09:54:01.999Z</time></trkpt><trkpt lat="46.18879037666509" lon="9.446858119786208"><ele>256.0</ele><time>2026-05-01T09:54:02.999Z</time></trkpt><trkpt lat="46.18892319915062" lon="9.447114742896234"><ele>256.0</ele><time>2026-05-01T09:54:03.999Z</time></trkpt><trkpt lat="46.18905895792105" lon="9.447378891361888"><ele>250.66666666666666</ele><time>2026-05-01T09:54:05.023Z</time></trkpt><trkpt lat="46.18916987142555" lon="9.447615676498224"><ele>245.33333333333331</ele><time>2026-05-01T09:54:06.012Z</time></trkpt><trkpt lat="46.18928344089277" lon="9.44786639641958"><ele>240.0</ele><time>2026-05-01T09:54:07.012Z</time></trkpt><trkpt lat="46.189410484036934" lon="9.448123201407219"><ele>203.0</ele><time>2026-05-01T09:54:08.013Z</time></trkpt><trkpt lat="46.195180715988556" lon="9.450961246207555"><ele>203.0</ele><time>2026-05-01T09:54:48.999Z</time></trkpt><trkpt lat="46.19537075558557" lon="9.451040146993916"><ele>203.0</ele><time>2026-05-01T09:54:49.999Z</time></trkpt><trkpt lat="46.195540276170796" lon="9.451147066815038"><ele>203.0</ele><time>2026-05-01T09:54:50.999Z</time></trkpt><trkpt lat="46.19568536547103" lon="9.451251666333384"><ele>203.0</ele><time>2026-05-01T09:54:51.999Z</time></trkpt><trkpt lat="46.195839928115326" lon="9.451344132585762"><ele>203.0</ele><time>2026-05-01T09:54:52.999Z</time></trkpt><trkpt lat="46.195982003073496" lon="9.45140558661051"><ele>203.0</ele><time>2026-05-01T09:54:54Z</time></trkpt><trkpt lat="46.196121216680076" lon="9.451453523015424"><ele>203.0</ele><time>2026-05-01T09:54:55Z</time></trkpt><trkpt lat="46.1962695291251" lon="9.451495908025832"><ele>203.0</ele><time>2026-05-01T09:54:56Z</time></trkpt><trkpt lat="46.19642093166797" lon="9.451522131283317"><ele>203.0</ele><time>2026-05-01T09:54:57Z</time></trkpt><trkpt lat="46.19658025585224" lon="9.451531261360133"><ele>203.0</ele><time>2026-05-01T09:54:58Z</time></trkpt><trkpt lat="46.19674973425904" lon="9.45153002865118"><ele>203.0</ele><time>2026-05-01T09:54:59Z</time></trkpt><trkpt lat="46.196923555516165" lon="9.451522054563195"><ele>203.0</ele><time>2026-05-01T09:55:00Z</time></trkpt><trkpt lat="46.19710111785949" lon="9.45151634387314"><ele>203.0</ele><time>2026-05-01T09:55:01Z</time></trkpt><trkpt lat="46.197286088746026" lon="9.451508783148041"><ele>203.0</ele><time>2026-05-01T09:55:02Z</time></trkpt><trkpt lat="46.19747046744762" lon="9.45149820808328"><ele>203.0</ele><time>2026-05-01T09:55:03Z</time></trkpt><trkpt lat="46.19764961178865" lon="9.451485679822966"><ele>203.66666666666669</ele><time>2026-05-01T09:55:04Z</time></trkpt><trkpt lat="46.19783389918585" lon="9.451481345220277"><ele>204.33333333333331</ele><time>2026-05-01T09:55:05Z</time></trkpt><trkpt lat="46.19801588851951" lon="9.451470192880048"><ele>205.0</ele><time>2026-05-01T09:55:06Z</time></trkpt><trkpt lat="46.19819385206962" lon="9.451463681920659"><ele>205.33333333333331</ele><time>2026-05-01T09:55:07Z</time></trkpt><trkpt lat="46.198368761705716" lon="9.451462325294774"><ele>205.66666666666669</ele><time>2026-05-01T09:55:08Z</time></trkpt><trkpt lat="46.198539160196866" lon="9.451477665562676"><ele>206.0</ele><time>2026-05-01T09:55:09Z</time></trkpt><trkpt lat="46.19871250956207" lon="9.451506802341497"><ele>206.0</ele><time>2026-05-01T09:55:10Z</time></trkpt><trkpt lat="46.19888478322761" lon="9.451550878344054"><ele>206.0</ele><time>2026-05-01T09:55:11Z</time></trkpt><trkpt lat="46.19905988975871" lon="9.451608281669868"><ele>206.0</ele><time>2026-05-01T09:55:12Z</time></trkpt><trkpt lat="46.19923871843375" lon="9.451680657258928"><ele>206.0</ele><time>2026-05-01T09:55:13Z</time></trkpt><trkpt lat="46.1994253513787" lon="9.451777178093169"><ele>206.0</ele><time>2026-05-01T09:55:14Z</time></trkpt><trkpt lat="46.19961316948216" lon="9.451894566135978"><ele>206.0</ele><time>2026-05-01T09:55:15Z</time></trkpt><trkpt lat="46.19981113339139" lon="9.452018084599688"><ele>205.5</ele><time>2026-05-01T09:55:16Z</time></trkpt><trkpt lat="46.20001656146323" lon="9.452146901932068"><ele>205.0</ele><time>2026-05-01T09:55:17Z</time></trkpt><trkpt lat="46.200222511773475" lon="9.45228915358566"><ele>205.0</ele><time>2026-05-01T09:55:18Z</time></trkpt><trkpt lat="46.20040466069922" lon="9.452460034231752"><ele>205.0</ele><time>2026-05-01T09:55:19Z</time></trkpt><trkpt lat="46.20056229264158" lon="9.452640089595187"><ele>205.0</ele><time>2026-05-01T09:55:20Z</time></trkpt><trkpt lat="46.200707651380625" lon="9.45283410560597"><ele>205.33333333333331</ele><time>2026-05-01T09:55:21Z</time></trkpt><trkpt lat="46.20084446366294" lon="9.453047993588934"><ele>205.66666666666669</ele><time>2026-05-01T09:55:22Z</time></trkpt><trkpt lat="46.20096988156407" lon="9.453282527575098"><ele>206.0</ele><time>2026-05-01T09:55:23Z</time></trkpt><trkpt lat="46.20106844670121" lon="9.45354310522771"><ele>206.0</ele><time>2026-05-01T09:55:24Z</time></trkpt><trkpt lat="46.20117360700234" lon="9.453800462539009"><ele>206.0</ele><time>2026-05-01T09:55:25Z</time></trkpt><trkpt lat="46.20127461642972" lon="9.454065301094504"><ele>206.0</ele><time>2026-05-01T09:55:26Z</time></trkpt><trkpt lat="46.20138994335579" lon="9.454332082497858"><ele>206.0</ele><time>2026-05-01T09:55:27Z</time></trkpt><trkpt lat="46.201481769311926" lon="9.454604398039857"><ele>206.0</ele><time>2026-05-01T09:55:28Z</time></trkpt><trkpt lat="46.201578457051724" lon="9.454885068800166"><ele>206.0</ele><time>2026-05-01T09:55:29Z</time></trkpt><trkpt lat="46.201648261774444" lon="9.455182399135609"><ele>205.66666666666669</ele><time>2026-05-01T09:55:30Z</time></trkpt><trkpt lat="46.20173418859144" lon="9.455460768812396"><ele>205.33333333333331</ele><time>2026-05-01T09:55:31Z</time></trkpt><trkpt lat="46.201800875539426" lon="9.455735829039533"><ele>205.0</ele><time>2026-05-01T09:55:32Z</time></trkpt><trkpt lat="46.20185498836805" lon="9.456015291488933"><ele>205.0</ele><time>2026-05-01T09:55:33Z</time></trkpt><trkpt lat="46.20193482556283" lon="9.456273896874166"><ele>205.0</ele><time>2026-05-01T09:55:34Z</time></trkpt><trkpt lat="46.20199663874948" lon="9.456535651011771"><ele>205.0</ele><time>2026-05-01T09:55:35Z</time></trkpt><trkpt lat="46.202057803579166" lon="9.45679086357968"><ele>205.66666666666666</ele><time>2026-05-01T09:55:36Z</time></trkpt><trkpt lat="46.20212114596272" lon="9.457050610252086"><ele>206.33333333333331</ele><time>2026-05-01T09:55:37Z</time></trkpt><trkpt lat="46.20218724034497" lon="9.457314153882702"><ele>207.0</ele><time>2026-05-01T09:55:38Z</time></trkpt><trkpt lat="46.20225219579047" lon="9.457571109320119"><ele>207.0</ele><time>2026-05-01T09:55:39Z</time></trkpt><trkpt lat="46.20231482531619" lon="9.457825808657306"><ele>207.0</ele><time>2026-05-01T09:55:40Z</time></trkpt><trkpt lat="46.202369633031964" lon="9.45804404757774"><ele>207.0</ele><time>2026-05-01T09:55:41Z</time></trkpt><trkpt lat="46.20239047587382" lon="9.458231014460722"><ele>207.0</ele><time>2026-05-01T09:55:42Z</time></trkpt><trkpt lat="46.202409685224644" lon="9.458459243535845"><ele>207.0</ele><time>2026-05-01T09:55:43Z</time></trkpt><trkpt lat="46.202541147958485" lon="9.458828880260812"><ele>207.0</ele><time>2026-05-01T09:55:44Z</time></trkpt><trkpt lat="46.20259739425038" lon="9.459053590224334"><ele>213.0</ele><time>2026-05-01T09:55:45Z</time></trkpt><trkpt lat="46.2026679708524" lon="9.45926262690273"><ele>219.0</ele><time>2026-05-01T09:55:46Z</time></trkpt><trkpt lat="46.20277078260309" lon="9.459504380715684"><ele>225.0</ele><time>2026-05-01T09:55:47Z</time></trkpt><trkpt lat="46.20287937327227" lon="9.459703398870563"><ele>239.33333333333331</ele><time>2026-05-01T09:55:48Z</time></trkpt><trkpt lat="46.20301294945684" lon="9.459827083585115"><ele>253.66666666666666</ele><time>2026-05-01T09:55:49.014Z</time></trkpt><trkpt lat="46.20314161493277" lon="9.45993268232958"><ele>268.0</ele><time>2026-05-01T09:55:50.012Z</time></trkpt><trkpt lat="46.203275766133736" lon="9.460041895311008"><ele>268.5</ele><time>2026-05-01T09:55:51.013Z</time></trkpt><trkpt lat="46.203405971411485" lon="9.460163949606974"><ele>269.0</ele><time>2026-05-01T09:55:52.014Z</time></trkpt><trkpt lat="46.20468608563661" lon="9.460872613038607"><ele>317.0</ele><time>2026-05-01T09:55:55.085Z</time></trkpt><trkpt lat="46.20512621924032" lon="9.461006375774899"><ele>317.0</ele><time>2026-05-01T09:55:56.085Z</time></trkpt><trkpt lat="46.205574983317625" lon="9.461053534668117"><ele>305.5</ele><time>2026-05-01T09:55:57.086Z</time></trkpt><trkpt lat="46.20602320775322" lon="9.461013541249354"><ele>294.0</ele><time>2026-05-01T09:55:58.085Z</time></trkpt><trkpt lat="46.20646542491294" lon="9.460887129796664"><ele>228.0</ele><time>2026-05-01T09:55:59.089Z</time></trkpt><trkpt lat="46.207095184406455" lon="9.460635334262122"><ele>228.0</ele><time>2026-05-01T09:56:08.999Z</time></trkpt><trkpt lat="46.20728419928171" lon="9.460567140712802"><ele>228.0</ele><time>2026-05-01T09:56:09.999Z</time></trkpt><trkpt lat="46.20749268492666" lon="9.460542735690916"><ele>228.0</ele><time>2026-05-01T09:56:10.999Z</time></trkpt><trkpt lat="46.20766026648569" lon="9.460554492701581"><ele>222.33333333333331</ele><time>2026-05-01T09:56:11.999Z</time></trkpt><trkpt lat="46.207833742158144" lon="9.460589139430114"><ele>216.66666666666666</ele><time>2026-05-01T09:56:12.999Z</time></trkpt><trkpt lat="46.20801025193418" lon="9.460611825215663"><ele>211.0</ele><time>2026-05-01T09:56:13.999Z</time></trkpt><trkpt lat="46.20819033307466" lon="9.460587902832446"><ele>210.0</ele><time>2026-05-01T09:56:14.999Z</time></trkpt><trkpt lat="46.208354338973976" lon="9.460502727890749"><ele>209.0</ele><time>2026-05-01T09:56:15.999Z</time></trkpt><trkpt lat="46.2085151234472" lon="9.460400310132385"><ele>208.0</ele><time>2026-05-01T09:56:16.999Z</time></trkpt><trkpt lat="46.208665738977295" lon="9.460289695216572"><ele>207.0</ele><time>2026-05-01T09:56:17.999Z</time></trkpt><trkpt lat="46.20879425723729" lon="9.460160018732862"><ele>206.0</ele><time>2026-05-01T09:56:18.999Z</time></trkpt><trkpt lat="46.20890336307955" lon="9.460041439867297"><ele>205.0</ele><time>2026-05-01T09:56:19.999Z</time></trkpt><trkpt lat="46.209023466485725" lon="9.459896015561919"><ele>205.0</ele><time>2026-05-01T09:56:20.999Z</time></trkpt><trkpt lat="46.20910998203493" lon="9.459744923627042"><ele>205.0</ele><time>2026-05-01T09:56:21.999Z</time></trkpt><trkpt lat="46.20920284346544" lon="9.459595205860621"><ele>205.0</ele><time>2026-05-01T09:56:22.999Z</time></trkpt><trkpt lat="46.20930118290731" lon="9.45944158284752"><ele>205.0</ele><time>2026-05-01T09:56:23.999Z</time></trkpt><trkpt lat="46.209363096396594" lon="9.459260109083806"><ele>204.5</ele><time>2026-05-01T09:56:24.999Z</time></trkpt><trkpt lat="46.209426494609446" lon="9.459080580957034"><ele>204.0</ele><time>2026-05-01T09:56:25.999Z</time></trkpt><trkpt lat="46.20947082845187" lon="9.458891469301573"><ele>203.5</ele><time>2026-05-01T09:56:26.999Z</time></trkpt><trkpt lat="46.20950547010445" lon="9.458694342380957"><ele>203.0</ele><time>2026-05-01T09:56:27.999Z</time></trkpt><trkpt lat="46.20953526449763" lon="9.458497429477497"><ele>202.66666666666669</ele><time>2026-05-01T09:56:28.999Z</time></trkpt><trkpt lat="46.209535761714925" lon="9.458250795400316"><ele>202.33333333333331</ele><time>2026-05-01T09:56:29.999Z</time></trkpt><trkpt lat="46.20959811448322" lon="9.458056943607396"><ele>202.0</ele><time>2026-05-01T09:56:30.999Z</time></trkpt><trkpt lat="46.2096174861411" lon="9.457821065069309"><ele>201.33333333333331</ele><time>2026-05-01T09:56:31.999Z</time></trkpt><trkpt lat="46.209634953067024" lon="9.457567050682242"><ele>200.66666666666669</ele><time>2026-05-01T09:56:32.999Z</time></trkpt><trkpt lat="46.2096430564258" lon="9.457291721203427"><ele>200.0</ele><time>2026-05-01T09:56:33.999Z</time></trkpt><trkpt lat="46.20966335817838" lon="9.45703817763265"><ele>200.0</ele><time>2026-05-01T09:56:34.999Z</time></trkpt><trkpt lat="46.20968782471441" lon="9.45680536446736"><ele>200.0</ele><time>2026-05-01T09:56:35.999Z</time></trkpt><trkpt lat="46.20971257065075" lon="9.45657420031949"><ele>200.0</ele><time>2026-05-01T09:56:36.999Z</time></trkpt><trkpt lat="46.209741920062946" lon="9.456331587713091"><ele>200.66666666666669</ele><time>2026-05-01T09:56:37.999Z</time></trkpt><trkpt lat="46.20975832700909" lon="9.456113338480083"><ele>201.33333333333331</ele><time>2026-05-01T09:56:38.999Z</time></trkpt><trkpt lat="46.20978242654741" lon="9.455882084227156"><ele>202.0</ele><time>2026-05-01T09:56:39.999Z</time></trkpt><trkpt lat="46.209801916809496" lon="9.455617100908652"><ele>202.25</ele><time>2026-05-01T09:56:40.999Z</time></trkpt><trkpt lat="46.20981874580991" lon="9.455396689286324"><ele>202.5</ele><time>2026-05-01T09:56:41.999Z</time></trkpt><trkpt lat="46.20983372267471" lon="9.455227795998013"><ele>202.75</ele><time>2026-05-01T09:56:42.999Z</time></trkpt><trkpt lat="46.209854131525816" lon="9.45498406981334"><ele>203.0</ele><time>2026-05-01T09:56:43.999Z</time></trkpt><trkpt lat="46.20989010391884" lon="9.454718350728028"><ele>204.66666666666669</ele><time>2026-05-01T09:56:44.999Z</time></trkpt><trkpt lat="46.2099288298811" lon="9.454443208828623"><ele>206.33333333333331</ele><time>2026-05-01T09:56:45.999Z</time></trkpt><trkpt lat="46.20996563256737" lon="9.454156471073496"><ele>208.0</ele><time>2026-05-01T09:56:46.999Z</time></trkpt><trkpt lat="46.210007353190605" lon="9.453871780402075"><ele>207.33333333333331</ele><time>2026-05-01T09:56:47.999Z</time></trkpt><trkpt lat="46.210048422216644" lon="9.453598966714054"><ele>206.66666666666669</ele><time>2026-05-01T09:56:48.999Z</time></trkpt><trkpt lat="46.21009621513559" lon="9.45332001343502"><ele>206.0</ele><time>2026-05-01T09:56:49.999Z</time></trkpt><trkpt lat="46.21015327331116" lon="9.453039450893845"><ele>205.33333333333334</ele><time>2026-05-01T09:56:50.999Z</time></trkpt><trkpt lat="46.210217419337745" lon="9.45275705790303"><ele>204.66666666666669</ele><time>2026-05-01T09:56:51.999Z</time></trkpt><trkpt lat="46.210283368434204" lon="9.45246748346672"><ele>204.0</ele><time>2026-05-01T09:56:52.999Z</time></trkpt><trkpt lat="46.21035536612347" lon="9.452177264754425"><ele>203.33333333333331</ele><time>2026-05-01T09:56:53.999Z</time></trkpt><trkpt lat="46.21043661379684" lon="9.45188856790631"><ele>202.66666666666666</ele><time>2026-05-01T09:56:54.999Z</time></trkpt><trkpt lat="46.210526703626485" lon="9.451594355532416"><ele>202.0</ele><time>2026-05-01T09:56:55.999Z</time></trkpt><trkpt lat="46.21062532306073" lon="9.45129440325505"><ele>203.0</ele><time>2026-05-01T09:56:56.999Z</time></trkpt><trkpt lat="46.21073292316825" lon="9.450990149582141"><ele>204.0</ele><time>2026-05-01T09:56:57.999Z</time></trkpt><trkpt lat="46.210848426069056" lon="9.450681767016187"><ele>202.5</ele><time>2026-05-01T09:56:58.999Z</time></trkpt><trkpt lat="46.210964189255186" lon="9.450378708999333"><ele>201.0</ele><time>2026-05-01T09:57:00Z</time></trkpt><trkpt lat="46.21107632898347" lon="9.450089951075448"><ele>201.0</ele><time>2026-05-01T09:57:01Z</time></trkpt><trkpt lat="46.21118694405547" lon="9.449813643400415"><ele>201.0</ele><time>2026-05-01T09:57:02Z</time></trkpt><trkpt lat="46.21131221552499" lon="9.449548832044503"><ele>201.0</ele><time>2026-05-01T09:57:03Z</time></trkpt><trkpt lat="46.21145246245441" lon="9.449299960621833"><ele>202.0</ele><time>2026-05-01T09:57:04Z</time></trkpt><trkpt lat="46.21160530582777" lon="9.44906260688513"><ele>203.0</ele><time>2026-05-01T09:57:05Z</time></trkpt><trkpt lat="46.21177068594617" lon="9.448841426265087"><ele>202.0</ele><time>2026-05-01T09:57:06Z</time></trkpt><trkpt lat="46.211951496820525" lon="9.448628478662295"><ele>201.0</ele><time>2026-05-01T09:57:07Z</time></trkpt><trkpt lat="46.212149088720956" lon="9.448460323956448"><ele>203.0</ele><time>2026-05-01T09:57:08Z</time></trkpt><trkpt lat="46.21233412696019" lon="9.448258364778551"><ele>205.0</ele><time>2026-05-01T09:57:09Z</time></trkpt><trkpt lat="46.21253121239211" lon="9.44808076813067"><ele>204.5</ele><time>2026-05-01T09:57:10Z</time></trkpt><trkpt lat="46.212725997637335" lon="9.44789543414502"><ele>204.0</ele><time>2026-05-01T09:57:11Z</time></trkpt><trkpt lat="46.21291712320521" lon="9.447707791361786"><ele>204.0</ele><time>2026-05-01T09:57:12Z</time></trkpt><trkpt lat="46.21310648132793" lon="9.447539183008862"><ele>204.0</ele><time>2026-05-01T09:57:13Z</time></trkpt><trkpt lat="46.213292361875986" lon="9.44739361390288"><ele>204.0</ele><time>2026-05-01T09:57:14Z</time></trkpt><trkpt lat="46.21348278651761" lon="9.447304594483382"><ele>203.66666666666669</ele><time>2026-05-01T09:57:15Z</time></trkpt><trkpt lat="46.21366294521094" lon="9.447209063218821"><ele>203.33333333333334</ele><time>2026-05-01T09:57:16Z</time></trkpt><trkpt lat="46.213852690309615" lon="9.447158939431802"><ele>203.0</ele><time>2026-05-01T09:57:17Z</time></trkpt><trkpt lat="46.2140482433587" lon="9.447118525338158"><ele>203.0</ele><time>2026-05-01T09:57:18Z</time></trkpt><trkpt lat="46.214249325200235" lon="9.447085748383746"><ele>203.0</ele><time>2026-05-01T09:57:19Z</time></trkpt><trkpt lat="46.21444923312182" lon="9.4470500059468"><ele>203.0</ele><time>2026-05-01T09:57:20Z</time></trkpt><trkpt lat="46.21464270667533" lon="9.447019664542445"><ele>204.0</ele><time>2026-05-01T09:57:21Z</time></trkpt><trkpt lat="46.21483514011499" lon="9.447000944836494"><ele>205.0</ele><time>2026-05-01T09:57:22Z</time></trkpt><trkpt lat="46.215021777288555" lon="9.447011077078686"><ele>206.0</ele><time>2026-05-01T09:57:23Z</time></trkpt><trkpt lat="46.215189933027126" lon="9.447047016287017"><ele>206.0</ele><time>2026-05-01T09:57:24Z</time></trkpt><trkpt lat="46.21532563570001" lon="9.447088457728253"><ele>206.0</ele><time>2026-05-01T09:57:25Z</time></trkpt><trkpt lat="46.21542478783747" lon="9.447128025386485"><ele>206.0</ele><time>2026-05-01T09:57:26Z</time></trkpt><trkpt lat="46.21549910477169" lon="9.447168317029602"><ele>206.0</ele><time>2026-05-01T09:57:27Z</time></trkpt><trkpt lat="46.215584995209284" lon="9.44730048835742"><ele>206.0</ele><time>2026-05-01T09:57:29Z</time></trkpt><trkpt lat="46.215625488432934" lon="9.447396506702706"><ele>206.00000000000003</ele><time>2026-05-01T09:57:30Z</time></trkpt><trkpt lat="46.21568641472121" lon="9.447452979786965"><ele>206.0</ele><time>2026-05-01T09:57:31Z</time></trkpt><trkpt lat="46.215760046512756" lon="9.447430977579991"><ele>206.0</ele><time>2026-05-01T09:57:32Z</time></trkpt><trkpt lat="46.21582751268611" lon="9.447358694020357"><ele>206.0</ele><time>2026-05-01T09:57:33Z</time></trkpt><trkpt lat="46.21588391903644" lon="9.447246790378697"><ele>206.00000000000003</ele><time>2026-05-01T09:57:34Z</time></trkpt><trkpt lat="46.215961386377664" lon="9.447148899775858"><ele>206.0</ele><time>2026-05-01T09:57:35Z</time></trkpt><trkpt lat="46.21608185423145" lon="9.44711870433917"><ele>206.0</ele><time>2026-05-01T09:57:36Z</time></trkpt><trkpt lat="46.21622635731796" lon="9.44713394975996"><ele>206.0</ele><time>2026-05-01T09:57:37Z</time></trkpt><trkpt lat="46.21638404364645" lon="9.447134216176861"><ele>206.0</ele><time>2026-05-01T09:57:38Z</time></trkpt><trkpt lat="46.21655420968952" lon="9.44708625007061"><ele>206.0</ele><time>2026-05-01T09:57:39Z</time></trkpt><trkpt lat="46.216718436255796" lon="9.447009161443077"><ele>206.0</ele><time>2026-05-01T09:57:40Z</time></trkpt><trkpt lat="46.21688138018163" lon="9.446911956766881"><ele>206.0</ele><time>2026-05-01T09:57:41Z</time></trkpt><trkpt lat="46.217053342274326" lon="9.44679575999659"><ele>206.0</ele><time>2026-05-01T09:57:42Z</time></trkpt><trkpt lat="46.21723974313587" lon="9.44669227105842"><ele>206.0</ele><time>2026-05-01T09:57:43Z</time></trkpt><trkpt lat="46.21744742546817" lon="9.446628260209904"><ele>206.0</ele><time>2026-05-01T09:57:44Z</time></trkpt><trkpt lat="46.21766160626802" lon="9.446586795124562"><ele>207.0</ele><time>2026-05-01T09:57:45Z</time></trkpt><trkpt lat="46.217860084778266" lon="9.446558627246784"><ele>208.0</ele><time>2026-05-01T09:57:46Z</time></trkpt><trkpt lat="46.21803794459834" lon="9.446532278551993"><ele>209.0</ele><time>2026-05-01T09:57:47Z</time></trkpt><trkpt lat="46.21820689650479" lon="9.44651047053232"><ele>207.0</ele><time>2026-05-01T09:57:48Z</time></trkpt><trkpt lat="46.218370432613234" lon="9.446487911203025"><ele>205.0</ele><time>2026-05-01T09:57:49Z</time></trkpt><trkpt lat="46.21852187040599" lon="9.44647105781082"><ele>203.0</ele><time>2026-05-01T09:57:50Z</time></trkpt><trkpt lat="46.218678565642094" lon="9.44644799995909"><ele>203.0</ele><time>2026-05-01T09:57:51Z</time></trkpt><trkpt lat="46.218818415852866" lon="9.44642764154017"><ele>203.0</ele><time>2026-05-01T09:57:52Z</time></trkpt><trkpt lat="46.218952146382286" lon="9.44641423727751"><ele>203.0</ele><time>2026-05-01T09:57:53Z</time></trkpt><trkpt lat="46.21907808114177" lon="9.44639632014369"><ele>203.0</ele><time>2026-05-01T09:57:54Z</time></trkpt><trkpt lat="46.21920216798491" lon="9.446377241112586"><ele>203.5</ele><time>2026-05-01T09:57:55Z</time></trkpt><trkpt lat="46.21932515389692" lon="9.446360437394006"><ele>204.0</ele><time>2026-05-01T09:57:56Z</time></trkpt><trkpt lat="46.21944594442856" lon="9.446343386115666"><ele>204.5</ele><time>2026-05-01T09:57:57Z</time></trkpt><trkpt lat="46.219562130811674" lon="9.44632680720028"><ele>205.0</ele><time>2026-05-01T09:57:58Z</time></trkpt><trkpt lat="46.21968095739067" lon="9.446310922291419"><ele>204.25</ele><time>2026-05-01T09:57:59Z</time></trkpt><trkpt lat="46.21979976417039" lon="9.446291569400117"><ele>203.5</ele><time>2026-05-01T09:58:00Z</time></trkpt><trkpt lat="46.21991834958333" lon="9.446272133353395"><ele>202.75</ele><time>2026-05-01T09:58:01Z</time></trkpt><trkpt lat="46.220040529752865" lon="9.446257434043929"><ele>202.0</ele><time>2026-05-01T09:58:02Z</time></trkpt><trkpt lat="46.22016875594381" lon="9.446238818045723"><ele>202.0</ele><time>2026-05-01T09:58:03Z</time></trkpt><trkpt lat="46.22029966506095" lon="9.44621618392997"><ele>202.0</ele><time>2026-05-01T09:58:04Z</time></trkpt><trkpt lat="46.22043172342059" lon="9.446199145241891"><ele>202.0</ele><time>2026-05-01T09:58:05Z</time></trkpt><trkpt lat="46.220565920646095" lon="9.446182699772764"><ele>202.0</ele><time>2026-05-01T09:58:06Z</time></trkpt><trkpt lat="46.220700935985356" lon="9.446162463080174"><ele>202.75</ele><time>2026-05-01T09:58:07Z</time></trkpt><trkpt lat="46.220838647249415" lon="9.446141276082274"><ele>203.5</ele><time>2026-05-01T09:58:08Z</time></trkpt><trkpt lat="46.220982158276534" lon="9.446125874276"><ele>204.25</ele><time>2026-05-01T09:58:09Z</time></trkpt><trkpt lat="46.22113000572416" lon="9.446110019265731"><ele>205.0</ele><time>2026-05-01T09:58:10Z</time></trkpt><trkpt lat="46.22126180482024" lon="9.44610930080748"><ele>205.0</ele><time>2026-05-01T09:58:11Z</time></trkpt><trkpt lat="46.22138633016693" lon="9.446124147621921"><ele>205.0</ele><time>2026-05-01T09:58:12Z</time></trkpt><trkpt lat="46.22150716080761" lon="9.44614740822908"><ele>205.0</ele><time>2026-05-01T09:58:13Z</time></trkpt><trkpt lat="46.221628319457615" lon="9.44616832935729"><ele>205.0</ele><time>2026-05-01T09:58:14Z</time></trkpt><trkpt lat="46.221751689789286" lon="9.446190866506575"><ele>204.5</ele><time>2026-05-01T09:58:14.999Z</time></trkpt><trkpt lat="46.22188031793644" lon="9.446220056499097"><ele>204.0</ele><time>2026-05-01T09:58:15.999Z</time></trkpt><trkpt lat="46.22201597382083" lon="9.446264690406904"><ele>203.5</ele><time>2026-05-01T09:58:16.999Z</time></trkpt><trkpt lat="46.22216755661301" lon="9.446321661543765"><ele>203.0</ele><time>2026-05-01T09:58:17.999Z</time></trkpt><trkpt lat="46.22231944007176" lon="9.446386998801735"><ele>204.33333333333334</ele><time>2026-05-01T09:58:18.999Z</time></trkpt><trkpt lat="46.22248683225407" lon="9.446463176622622"><ele>205.66666666666669</ele><time>2026-05-01T09:58:19.999Z</time></trkpt><trkpt lat="46.22266464414117" lon="9.446551662987282"><ele>207.0</ele><time>2026-05-01T09:58:20.999Z</time></trkpt><trkpt lat="46.22285452290896" lon="9.44665299847229"><ele>207.0</ele><time>2026-05-01T09:58:21.999Z</time></trkpt><trkpt lat="46.22304485568623" lon="9.446774056161821"><ele>207.0</ele><time>2026-05-01T09:58:22.999Z</time></trkpt><trkpt lat="46.223224755953794" lon="9.44689146713029"><ele>207.0</ele><time>2026-05-01T09:58:23.999Z</time></trkpt><trkpt lat="46.223409173382365" lon="9.446992316577374"><ele>207.0</ele><time>2026-05-01T09:58:24.999Z</time></trkpt><trkpt lat="46.2236079325463" lon="9.447082197107653"><ele>207.0</ele><time>2026-05-01T09:58:25.999Z</time></trkpt><trkpt lat="46.22382356537071" lon="9.4471795935616"><ele>207.0</ele><time>2026-05-01T09:58:26.999Z</time></trkpt><trkpt lat="46.22404575184144" lon="9.447311512056457"><ele>207.66666666666669</ele><time>2026-05-01T09:58:27.999Z</time></trkpt><trkpt lat="46.22424925023705" lon="9.447451726699796"><ele>208.33333333333334</ele><time>2026-05-01T09:58:28.999Z</time></trkpt><trkpt lat="46.22443741073354" lon="9.44757005023186"><ele>209.0</ele><time>2026-05-01T09:58:29.999Z</time></trkpt><trkpt lat="46.224616809219036" lon="9.447664608921505"><ele>209.0</ele><time>2026-05-01T09:58:30.999Z</time></trkpt><trkpt lat="46.22478471357987" lon="9.447746234319096"><ele>209.0</ele><time>2026-05-01T09:58:31.999Z</time></trkpt><trkpt lat="46.22495548400583" lon="9.447812700757057"><ele>209.0</ele><time>2026-05-01T09:58:32.999Z</time></trkpt><trkpt lat="46.225128843829275" lon="9.447861030771618"><ele>209.0</ele><time>2026-05-01T09:58:33.999Z</time></trkpt><trkpt lat="46.2253112180142" lon="9.447881471999164"><ele>209.0</ele><time>2026-05-01T09:58:34.999Z</time></trkpt><trkpt lat="46.22549570851251" lon="9.447873564267248"><ele>209.0</ele><time>2026-05-01T09:58:35.999Z</time></trkpt><trkpt lat="46.22568378944232" lon="9.447835767057917"><ele>210.33333333333334</ele><time>2026-05-01T09:58:36.999Z</time></trkpt><trkpt lat="46.22586949069182" lon="9.447766015198676"><ele>211.66666666666669</ele><time>2026-05-01T09:58:37.999Z</time></trkpt><trkpt lat="46.22605877492401" lon="9.447672605284097"><ele>213.0</ele><time>2026-05-01T09:58:38.999Z</time></trkpt><trkpt lat="46.22623936499086" lon="9.447540433267303"><ele>213.0</ele><time>2026-05-01T09:58:39.999Z</time></trkpt><trkpt lat="46.226423726238714" lon="9.447381325603505"><ele>213.0</ele><time>2026-05-01T09:58:40.999Z</time></trkpt><trkpt lat="46.226602974288696" lon="9.447222161719946"><ele>213.0</ele><time>2026-05-01T09:58:41.999Z</time></trkpt><trkpt lat="46.22678481295837" lon="9.447061966427357"><ele>209.66666666666669</ele><time>2026-05-01T09:58:42.999Z</time></trkpt><trkpt lat="46.226973211893416" lon="9.446908854905073"><ele>206.33333333333334</ele><time>2026-05-01T09:58:43.999Z</time></trkpt><trkpt lat="46.22715308342672" lon="9.446718673438019"><ele>203.0</ele><time>2026-05-01T09:58:44.999Z</time></trkpt><trkpt lat="46.22732534877973" lon="9.446510003620757"><ele>204.66666666666669</ele><time>2026-05-01T09:58:45.999Z</time></trkpt><trkpt lat="46.227490096405916" lon="9.446286694958298"><ele>206.33333333333331</ele><time>2026-05-01T09:58:46.999Z</time></trkpt><trkpt lat="46.22763339634769" lon="9.446042002571978"><ele>208.0</ele><time>2026-05-01T09:58:47.999Z</time></trkpt><trkpt lat="46.22776382415783" lon="9.445774615354463"><ele>208.0</ele><time>2026-05-01T09:58:48.999Z</time></trkpt><trkpt lat="46.22787279693014" lon="9.445489319654351"><ele>208.0</ele><time>2026-05-01T09:58:49.999Z</time></trkpt><trkpt lat="46.227967382106215" lon="9.445186542969072"><ele>210.5</ele><time>2026-05-01T09:58:50.999Z</time></trkpt><trkpt lat="46.22806015336571" lon="9.444884964811003"><ele>213.0</ele><time>2026-05-01T09:58:51.999Z</time></trkpt><trkpt lat="46.22815055545017" lon="9.444585146315397"><ele>213.0</ele><time>2026-05-01T09:58:52.999Z</time></trkpt><trkpt lat="46.22823297266274" lon="9.444272545137315"><ele>213.0</ele><time>2026-05-01T09:58:53.999Z</time></trkpt><trkpt lat="46.228323711540654" lon="9.443967000938981"><ele>206.5</ele><time>2026-05-01T09:58:54.999Z</time></trkpt><trkpt lat="46.22841181511927" lon="9.443660300331377"><ele>200.0</ele><time>2026-05-01T09:58:55.999Z</time></trkpt><trkpt lat="46.22849821836463" lon="9.443363545525889"><ele>200.0</ele><time>2026-05-01T09:58:56.999Z</time></trkpt><trkpt lat="46.22858339877864" lon="9.443072107897212"><ele>200.0</ele><time>2026-05-01T09:58:57.999Z</time></trkpt><trkpt lat="46.2286654555769" lon="9.442802403366299"><ele>200.0</ele><time>2026-05-01T09:58:58.999Z</time></trkpt><trkpt lat="46.228735685462645" lon="9.44253910038839"><ele>198.66666666666669</ele><time>2026-05-01T09:58:59.999Z</time></trkpt><trkpt lat="46.228803110020756" lon="9.442287298900188"><ele>197.33333333333331</ele><time>2026-05-01T09:59:00.999Z</time></trkpt><trkpt lat="46.22887796259074" lon="9.442037266099048"><ele>196.0</ele><time>2026-05-01T09:59:01.999Z</time></trkpt><trkpt lat="46.22896568801133" lon="9.441799128482558"><ele>197.33333333333331</ele><time>2026-05-01T09:59:02.999Z</time></trkpt><trkpt lat="46.229067605135846" lon="9.44156108129368"><ele>198.66666666666669</ele><time>2026-05-01T09:59:03.999Z</time></trkpt><trkpt lat="46.22917938927774" lon="9.441327299014795"><ele>200.0</ele><time>2026-05-01T09:59:04.999Z</time></trkpt><trkpt lat="46.22930455797266" lon="9.441117237202285"><ele>200.0</ele><time>2026-05-01T09:59:06Z</time></trkpt><trkpt lat="46.22942964146157" lon="9.44092095522381"><ele>200.0</ele><time>2026-05-01T09:59:07Z</time></trkpt><trkpt lat="46.22958689993613" lon="9.440719816962172"><ele>200.0</ele><time>2026-05-01T09:59:08Z</time></trkpt><trkpt lat="46.229794235996415" lon="9.440503515512095"><ele>198.5</ele><time>2026-05-01T09:59:09Z</time></trkpt><trkpt lat="46.22997314234094" lon="9.440307879901495"><ele>197.0</ele><time>2026-05-01T09:59:10Z</time></trkpt><trkpt lat="46.230189410635255" lon="9.440077181302376"><ele>197.0</ele><time>2026-05-01T09:59:11Z</time></trkpt><trkpt lat="46.23034902362213" lon="9.439907152523208"><ele>197.0</ele><time>2026-05-01T09:59:13Z</time></trkpt><trkpt lat="46.23052469914259" lon="9.439720665405485"><ele>197.0</ele><time>2026-05-01T09:59:14Z</time></trkpt><trkpt lat="46.23071174125943" lon="9.439524517947364"><ele>197.5</ele><time>2026-05-01T09:59:15Z</time></trkpt><trkpt lat="46.2309109956171" lon="9.439315563719388"><ele>198.0</ele><time>2026-05-01T09:59:16Z</time></trkpt><trkpt lat="46.231106787168" lon="9.43908367346073"><ele>198.0</ele><time>2026-05-01T09:59:17Z</time></trkpt><trkpt lat="46.231319594038744" lon="9.43888103674008"><ele>198.0</ele><time>2026-05-01T09:59:18Z</time></trkpt><trkpt lat="46.23152986093808" lon="9.4386625910749"><ele>197.5</ele><time>2026-05-01T09:59:19Z</time></trkpt><trkpt lat="46.231740216311486" lon="9.438450428362593"><ele>197.0</ele><time>2026-05-01T09:59:20Z</time></trkpt><trkpt lat="46.231954209638104" lon="9.438248160187504"><ele>197.0</ele><time>2026-05-01T09:59:21Z</time></trkpt><trkpt lat="46.23216391424364" lon="9.438060935620346"><ele>197.0</ele><time>2026-05-01T09:59:22Z</time></trkpt><trkpt lat="46.232384174930154" lon="9.43787583831171"><ele>198.5</ele><time>2026-05-01T09:59:23Z</time></trkpt><trkpt lat="46.232602597035275" lon="9.437694011404938"><ele>200.0</ele><time>2026-05-01T09:59:24Z</time></trkpt><trkpt lat="46.232802452485664" lon="9.43752471263527"><ele>200.0</ele><time>2026-05-01T09:59:25Z</time></trkpt><trkpt lat="46.23299048163497" lon="9.437356313262592"><ele>200.0</ele><time>2026-05-01T09:59:26Z</time></trkpt><trkpt lat="46.23317244844204" lon="9.437202912634126"><ele>200.0</ele><time>2026-05-01T09:59:27Z</time></trkpt><trkpt lat="46.23334760756809" lon="9.437057644790046"><ele>199.33333333333334</ele><time>2026-05-01T09:59:28Z</time></trkpt><trkpt lat="46.23351547618727" lon="9.436918587690345"><ele>198.66666666666669</ele><time>2026-05-01T09:59:29Z</time></trkpt><trkpt lat="46.233686061269964" lon="9.436784839088057"><ele>198.0</ele><time>2026-05-01T09:59:30Z</time></trkpt><trkpt lat="46.23385118553231" lon="9.436641712310736"><ele>198.66666666666669</ele><time>2026-05-01T09:59:31Z</time></trkpt><trkpt lat="46.234008372567025" lon="9.436500715052723"><ele>199.33333333333334</ele><time>2026-05-01T09:59:32Z</time></trkpt><trkpt lat="46.2341653165269" lon="9.436366064300172"><ele>200.0</ele><time>2026-05-01T09:59:33Z</time></trkpt><trkpt lat="46.23430753190586" lon="9.436247902805993"><ele>200.0</ele><time>2026-05-01T09:59:34Z</time></trkpt><trkpt lat="46.2344707093346" lon="9.436094629443062"><ele>200.0</ele><time>2026-05-01T09:59:35Z</time></trkpt><trkpt lat="46.234617649860006" lon="9.435953992660613"><ele>200.0</ele><time>2026-05-01T09:59:36Z</time></trkpt><trkpt lat="46.234769004682825" lon="9.43581375805123"><ele>200.0</ele><time>2026-05-01T09:59:37Z</time></trkpt><trkpt lat="46.23487209406769" lon="9.435710777973526"><ele>200.0</ele><time>2026-05-01T09:59:38Z</time></trkpt><trkpt lat="46.23499230916352" lon="9.435587152517224"><ele>200.0</ele><time>2026-05-01T09:59:39Z</time></trkpt><trkpt lat="46.23516145045893" lon="9.435361652863689"><ele>200.5</ele><time>2026-05-01T09:59:40Z</time></trkpt><trkpt lat="46.23540715678887" lon="9.435064953785393"><ele>201.0</ele><time>2026-05-01T09:59:41Z</time></trkpt><trkpt lat="46.23563384035622" lon="9.434810706966863"><ele>200.0</ele><time>2026-05-01T09:59:42Z</time></trkpt><trkpt lat="46.235840854497795" lon="9.434586619784834"><ele>199.0</ele><time>2026-05-01T09:59:43Z</time></trkpt><trkpt lat="46.23601556600597" lon="9.434369319006073"><ele>199.0</ele><time>2026-05-01T09:59:44Z</time></trkpt><trkpt lat="46.23611319061642" lon="9.43424135658182"><ele>199.0</ele><time>2026-05-01T09:59:45Z</time></trkpt><trkpt lat="46.236232288498556" lon="9.434091349593459"><ele>199.0</ele><time>2026-05-01T09:59:46Z</time></trkpt><trkpt lat="46.23637093909733" lon="9.433922728750206"><ele>199.0</ele><time>2026-05-01T09:59:47Z</time></trkpt><trkpt lat="46.236503413744245" lon="9.43376008090275"><ele>199.0</ele><time>2026-05-01T09:59:48Z</time></trkpt><trkpt lat="46.236634631870395" lon="9.433606511331982"><ele>199.0</ele><time>2026-05-01T09:59:49Z</time></trkpt><trkpt lat="46.2367637487018" lon="9.433461082070353"><ele>199.0</ele><time>2026-05-01T09:59:50Z</time></trkpt><trkpt lat="46.236897141261416" lon="9.433318453289008"><ele>199.0</ele><time>2026-05-01T09:59:51Z</time></trkpt><trkpt lat="46.23703495315763" lon="9.433176975924797"><ele>199.0</ele><time>2026-05-01T09:59:52Z</time></trkpt><trkpt lat="46.23719390023764" lon="9.43302443754123"><ele>199.33333333333331</ele><time>2026-05-01T09:59:53Z</time></trkpt><trkpt lat="46.237317617195586" lon="9.432884009746685"><ele>199.66666666666669</ele><time>2026-05-01T09:59:54Z</time></trkpt><trkpt lat="46.237478145548344" lon="9.432766783250253"><ele>200.0</ele><time>2026-05-01T09:59:55Z</time></trkpt><trkpt lat="46.2376785532716" lon="9.432566109297856"><ele>200.0</ele><time>2026-05-01T09:59:56Z</time></trkpt><trkpt lat="46.237924410777616" lon="9.432339948366726"><ele>200.0</ele><time>2026-05-01T09:59:57Z</time></trkpt><trkpt lat="46.238144000889555" lon="9.432161617316417"><ele>199.0</ele><time>2026-05-01T09:59:58Z</time></trkpt><trkpt lat="46.238362005278475" lon="9.431980414735637"><ele>198.0</ele><time>2026-05-01T09:59:59Z</time></trkpt><trkpt lat="46.23856524806225" lon="9.431796336958682"><ele>198.0</ele><time>2026-05-01T10:00:00Z</time></trkpt><trkpt lat="46.238761765027895" lon="9.431608006830654"><ele>198.0</ele><time>2026-05-01T10:00:01Z</time></trkpt><trkpt lat="46.23895946005365" lon="9.431424618781515"><ele>199.5</ele><time>2026-05-01T10:00:02Z</time></trkpt><trkpt lat="46.239157437965396" lon="9.431238869358339"><ele>201.0</ele><time>2026-05-01T10:00:03Z</time></trkpt><trkpt lat="46.23934664692351" lon="9.431063505064454"><ele>201.0</ele><time>2026-05-01T10:00:04Z</time></trkpt><trkpt lat="46.23952963414308" lon="9.430898248873238"><ele>201.0</ele><time>2026-05-01T10:00:05Z</time></trkpt><trkpt lat="46.23971117470506" lon="9.430736156036195"><ele>201.0</ele><time>2026-05-01T10:00:06Z</time></trkpt><trkpt lat="46.23989206956772" lon="9.430570315940367"><ele>201.0</ele><time>2026-05-01T10:00:07Z</time></trkpt><trkpt lat="46.24007304940378" lon="9.430401395058121"><ele>201.0</ele><time>2026-05-01T10:00:08Z</time></trkpt><trkpt lat="46.24025940829907" lon="9.430214237922357"><ele>201.0</ele><time>2026-05-01T10:00:09Z</time></trkpt><trkpt lat="46.24045238075078" lon="9.43001833536712"><ele>201.5</ele><time>2026-05-01T10:00:10Z</time></trkpt><trkpt lat="46.240655517860034" lon="9.429829949951413"><ele>202.0</ele><time>2026-05-01T10:00:11Z</time></trkpt><trkpt lat="46.24087419600826" lon="9.429650036632967"><ele>201.0</ele><time>2026-05-01T10:00:12Z</time></trkpt><trkpt lat="46.24110527019178" lon="9.42946147876585"><ele>200.0</ele><time>2026-05-01T10:00:13Z</time></trkpt><trkpt lat="46.24133647213694" lon="9.429257599305663"><ele>200.0</ele><time>2026-05-01T10:00:14Z</time></trkpt><trkpt lat="46.24157193515555" lon="9.429033975816642"><ele>200.0</ele><time>2026-05-01T10:00:15Z</time></trkpt><trkpt lat="46.2418174135891" lon="9.428803888067991"><ele>200.0</ele><time>2026-05-01T10:00:16Z</time></trkpt><trkpt lat="46.24206552777186" lon="9.42858346267639"><ele>200.0</ele><time>2026-05-01T10:00:17Z</time></trkpt><trkpt lat="46.242307851968405" lon="9.428365902196107"><ele>200.0</ele><time>2026-05-01T10:00:17.999Z</time></trkpt><trkpt lat="46.2425488341471" lon="9.42814662637519"><ele>200.0</ele><time>2026-05-01T10:00:18.999Z</time></trkpt><trkpt lat="46.24278293065245" lon="9.427929906883765"><ele>200.0</ele><time>2026-05-01T10:00:19.999Z</time></trkpt><trkpt lat="46.24302104901822" lon="9.427713803131596"><ele>200.0</ele><time>2026-05-01T10:00:20.999Z</time></trkpt><trkpt lat="46.243255039562165" lon="9.427494689207851"><ele>200.0</ele><time>2026-05-01T10:00:21.999Z</time></trkpt><trkpt lat="46.243484550155856" lon="9.427266148223488"><ele>200.0</ele><time>2026-05-01T10:00:22.999Z</time></trkpt><trkpt lat="46.24370353222229" lon="9.427025978781318"><ele>200.0</ele><time>2026-05-01T10:00:23.999Z</time></trkpt><trkpt lat="46.24391564551071" lon="9.42677429401855"><ele>200.0</ele><time>2026-05-01T10:00:24.999Z</time></trkpt><trkpt lat="46.24412522197466" lon="9.426520658504879"><ele>201.5</ele><time>2026-05-01T10:00:25.999Z</time></trkpt><trkpt lat="46.244330285885304" lon="9.42627737169642"><ele>203.0</ele><time>2026-05-01T10:00:26.999Z</time></trkpt><trkpt lat="46.24452559310089" lon="9.426052059887073"><ele>203.0</ele><time>2026-05-01T10:00:27.999Z</time></trkpt><trkpt lat="46.24471155349039" lon="9.425835008027185"><ele>203.0</ele><time>2026-05-01T10:00:28.999Z</time></trkpt><trkpt lat="46.24489455920811" lon="9.425632291638937"><ele>202.66666666666669</ele><time>2026-05-01T10:00:29.999Z</time></trkpt><trkpt lat="46.245075249642746" lon="9.425461011208156"><ele>202.33333333333331</ele><time>2026-05-01T10:00:30.999Z</time></trkpt><trkpt lat="46.245250816009225" lon="9.425322547091968"><ele>202.0</ele><time>2026-05-01T10:00:31.999Z</time></trkpt><trkpt lat="46.24541868466238" lon="9.425201061209275"><ele>202.0</ele><time>2026-05-01T10:00:32.999Z</time></trkpt><trkpt lat="46.24557573218237" lon="9.425085468594666"><ele>202.0</ele><time>2026-05-01T10:00:33.999Z</time></trkpt><trkpt lat="46.245722374734974" lon="9.424972613913368"><ele>202.0</ele><time>2026-05-01T10:00:34.999Z</time></trkpt><trkpt lat="46.245863413482724" lon="9.42486502861142"><ele>202.0</ele><time>2026-05-01T10:00:35.999Z</time></trkpt><trkpt lat="46.245995993513674" lon="9.424764474340412"><ele>202.0</ele><time>2026-05-01T10:00:36.999Z</time></trkpt><trkpt lat="46.246127861313006" lon="9.424662567681581"><ele>202.0</ele><time>2026-05-01T10:00:37.999Z</time></trkpt><trkpt lat="46.246257344640284" lon="9.424550883363501"><ele>202.0</ele><time>2026-05-01T10:00:38.999Z</time></trkpt><trkpt lat="46.246393951535126" lon="9.424433967068817"><ele>202.0</ele><time>2026-05-01T10:00:39.999Z</time></trkpt><trkpt lat="46.246540453636264" lon="9.424320875587831"><ele>202.0</ele><time>2026-05-01T10:00:40.999Z</time></trkpt><trkpt lat="46.24669819982118" lon="9.424206735632872"><ele>202.66666666666666</ele><time>2026-05-01T10:00:41.999Z</time></trkpt><trkpt lat="46.246855657532606" lon="9.424089043049449"><ele>203.33333333333331</ele><time>2026-05-01T10:00:42.999Z</time></trkpt><trkpt lat="46.247007596041904" lon="9.424009854644622"><ele>204.0</ele><time>2026-05-01T10:00:43.999Z</time></trkpt><trkpt lat="46.247135240133815" lon="9.423889396325013"><ele>203.75</ele><time>2026-05-01T10:00:44.999Z</time></trkpt><trkpt lat="46.24725909499672" lon="9.423797568624904"><ele>203.5</ele><time>2026-05-01T10:00:45.999Z</time></trkpt><trkpt lat="46.24737212111378" lon="9.423709077688274"><ele>203.25</ele><time>2026-05-01T10:00:46.999Z</time></trkpt><trkpt lat="46.24748130059031" lon="9.423632189017743"><ele>203.0</ele><time>2026-05-01T10:00:47.999Z</time></trkpt><trkpt lat="46.2475802481064" lon="9.423570309672051"><ele>203.50000000000003</ele><time>2026-05-01T10:00:48.999Z</time></trkpt><trkpt lat="46.24766772059183" lon="9.42353847113707"><ele>204.0</ele><time>2026-05-01T10:00:49.999Z</time></trkpt><trkpt lat="46.24774793685407" lon="9.423520157458224"><ele>204.5</ele><time>2026-05-01T10:00:50.999Z</time></trkpt><trkpt lat="46.247832632358154" lon="9.423520546188733"><ele>205.0</ele><time>2026-05-01T10:00:51.999Z</time></trkpt><trkpt lat="46.247904855460646" lon="9.423541773017956"><ele>205.50000000000003</ele><time>2026-05-01T10:00:52.999Z</time></trkpt><trkpt lat="46.247977007264794" lon="9.423580150624367"><ele>206.0</ele><time>2026-05-01T10:00:53.999Z</time></trkpt><trkpt lat="46.248050862740726" lon="9.423615808035885"><ele>206.0</ele><time>2026-05-01T10:00:54.999Z</time></trkpt><trkpt lat="46.248130273525426" lon="9.423629249866675"><ele>206.0</ele><time>2026-05-01T10:00:55.999Z</time></trkpt><trkpt lat="46.248215077386405" lon="9.423583741539687"><ele>206.0</ele><time>2026-05-01T10:00:56.999Z</time></trkpt><trkpt lat="46.24830079470835" lon="9.423512917034806"><ele>206.0</ele><time>2026-05-01T10:00:57.999Z</time></trkpt><trkpt lat="46.248398895007554" lon="9.423456622352532"><ele>206.0</ele><time>2026-05-01T10:00:58.999Z</time></trkpt><trkpt lat="46.248505986790406" lon="9.42344363512548"><ele>206.0</ele><time>2026-05-01T10:00:59.999Z</time></trkpt><trkpt lat="46.24861534673933" lon="9.423499822662263"><ele>206.0</ele><time>2026-05-01T10:01:00.999Z</time></trkpt><trkpt lat="46.24873654654392" lon="9.423517630940344"><ele>206.0</ele><time>2026-05-01T10:01:01.999Z</time></trkpt><trkpt lat="46.248871009614454" lon="9.423574196905593"><ele>206.0</ele><time>2026-05-01T10:01:02.999Z</time></trkpt><trkpt lat="46.249010227099234" lon="9.423617072012558"><ele>206.20000000000002</ele><time>2026-05-01T10:01:03.999Z</time></trkpt><trkpt lat="46.2491338063423" lon="9.423649796936377"><ele>206.4</ele><time>2026-05-01T10:01:04.999Z</time></trkpt><trkpt lat="46.24923779839947" lon="9.423679521350115"><ele>206.6</ele><time>2026-05-01T10:01:05.999Z</time></trkpt><trkpt lat="46.24933123110063" lon="9.42370623962238"><ele>206.8</ele><time>2026-05-01T10:01:06.999Z</time></trkpt><trkpt lat="46.24942836119163" lon="9.423737307245567"><ele>207.0</ele><time>2026-05-01T10:01:07.999Z</time></trkpt><trkpt lat="46.24952609205373" lon="9.42376035241002"><ele>207.0</ele><time>2026-05-01T10:01:08.999Z</time></trkpt><trkpt lat="46.24963183391322" lon="9.423789029063391"><ele>207.0</ele><time>2026-05-01T10:01:09.999Z</time></trkpt><trkpt lat="46.24973499140234" lon="9.42381848240468"><ele>207.0</ele><time>2026-05-01T10:01:10.999Z</time></trkpt><trkpt lat="46.24985138500661" lon="9.423851992452892"><ele>207.0</ele><time>2026-05-01T10:01:12Z</time></trkpt><trkpt lat="46.249981066156074" lon="9.423890480576338"><ele>207.5</ele><time>2026-05-01T10:01:13Z</time></trkpt><trkpt lat="46.250146081314384" lon="9.423926961962534"><ele>208.0</ele><time>2026-05-01T10:01:14Z</time></trkpt><trkpt lat="46.25025357342207" lon="9.423968503517639"><ele>208.5</ele><time>2026-05-01T10:01:15Z</time></trkpt><trkpt lat="46.250362871351015" lon="9.424005868090319"><ele>209.0</ele><time>2026-05-01T10:01:16Z</time></trkpt><trkpt lat="46.250455265033935" lon="9.424045659519685"><ele>209.0</ele><time>2026-05-01T10:01:17Z</time></trkpt><trkpt lat="46.25059747287768" lon="9.424077830585944"><ele>209.0</ele><time>2026-05-01T10:01:18Z</time></trkpt><trkpt lat="46.25070300773795" lon="9.424112807851804"><ele>209.0</ele><time>2026-05-01T10:01:19Z</time></trkpt><trkpt lat="46.250786532552304" lon="9.424137096301768"><ele>209.0</ele><time>2026-05-01T10:01:20Z</time></trkpt><trkpt lat="46.25088063093954" lon="9.424164733798921"><ele>209.0</ele><time>2026-05-01T10:01:22Z</time></trkpt><trkpt lat="46.250910769876675" lon="9.4239703959553"><ele>209.2</ele><time>2026-05-01T10:01:24Z</time></trkpt><trkpt lat="46.25090468783971" lon="9.423854738082508"><ele>209.39999999999998</ele><time>2026-05-01T10:01:25Z</time></trkpt><trkpt lat="46.250902372271966" lon="9.423724359191615"><ele>209.6</ele><time>2026-05-01T10:01:26Z</time></trkpt><trkpt lat="46.25090689348361" lon="9.423566070858465"><ele>209.8</ele><time>2026-05-01T10:01:27Z</time></trkpt><trkpt lat="46.25091385839304" lon="9.423407635187669"><ele>210.0</ele><time>2026-05-01T10:01:28Z</time></trkpt><trkpt lat="46.25091699410486" lon="9.423262393559302"><ele>209.4</ele><time>2026-05-01T10:01:29Z</time></trkpt><trkpt lat="46.25092168220403" lon="9.423059030205302"><ele>208.8</ele><time>2026-05-01T10:01:31Z</time></trkpt><trkpt lat="46.25096232738498" lon="9.422976458310133"><ele>208.2</ele><time>2026-05-01T10:01:34Z</time></trkpt><trkpt lat="46.25105650821025" lon="9.423000830056862"><ele>207.6</ele><time>2026-05-01T10:01:36Z</time></trkpt><trkpt lat="46.25112882134185" lon="9.422993729824022"><ele>207.0</ele><time>2026-05-01T10:01:37Z</time></trkpt><trkpt lat="46.25120786913608" lon="9.423011509996307"><ele>207.0</ele><time>2026-05-01T10:01:38Z</time></trkpt><trkpt lat="46.25130993777363" lon="9.423021646334165"><ele>207.0</ele><time>2026-05-01T10:01:39Z</time></trkpt><trkpt lat="46.25141155945656" lon="9.423028676213542"><ele>207.0</ele><time>2026-05-01T10:01:40Z</time></trkpt><trkpt lat="46.25151547553989" lon="9.4230302849233"><ele>207.0</ele><time>2026-05-01T10:01:41Z</time></trkpt><trkpt lat="46.25163970993015" lon="9.42301350350703"><ele>207.0</ele><time>2026-05-01T10:01:42Z</time></trkpt><trkpt lat="46.251777114916706" lon="9.422973628273084"><ele>207.0</ele><time>2026-05-01T10:01:43Z</time></trkpt><trkpt lat="46.25188233688723" lon="9.422927886689658"><ele>207.0</ele><time>2026-05-01T10:01:44Z</time></trkpt><trkpt lat="46.2520256062457" lon="9.422865529732956"><ele>207.0</ele><time>2026-05-01T10:01:45Z</time></trkpt><trkpt lat="46.25214816489246" lon="9.422804851658016"><ele>207.0</ele><time>2026-05-01T10:01:46Z</time></trkpt><trkpt lat="46.252246243105326" lon="9.422751544380365"><ele>206.8</ele><time>2026-05-01T10:01:47Z</time></trkpt><trkpt lat="46.25231800596906" lon="9.422715882739848"><ele>206.6</ele><time>2026-05-01T10:01:48Z</time></trkpt><trkpt lat="46.252435945515366" lon="9.422658762672299"><ele>206.4</ele><time>2026-05-01T10:01:50Z</time></trkpt><trkpt lat="46.25251790194264" lon="9.422622227466753"><ele>206.20000000000002</ele><time>2026-05-01T10:01:51Z</time></trkpt><trkpt lat="46.25260449486369" lon="9.422576328785965"><ele>206.0</ele><time>2026-05-01T10:01:52Z</time></trkpt><trkpt lat="46.25272027559247" lon="9.422523216326459"><ele>206.0</ele><time>2026-05-01T10:01:53Z</time></trkpt><trkpt lat="46.252851055125525" lon="9.422476587391614"><ele>206.0</ele><time>2026-05-01T10:01:54Z</time></trkpt><trkpt lat="46.25299824688655" lon="9.422477110247707"><ele>206.0</ele><time>2026-05-01T10:01:55Z</time></trkpt><trkpt lat="46.25314532459445" lon="9.422487805921127"><ele>206.0</ele><time>2026-05-01T10:01:56Z</time></trkpt><trkpt lat="46.253299385760975" lon="9.42250641208424"><ele>206.5</ele><time>2026-05-01T10:01:57Z</time></trkpt><trkpt lat="46.25344550365261" lon="9.42252957479532"><ele>207.0</ele><time>2026-05-01T10:01:58Z</time></trkpt><trkpt lat="46.25359013895642" lon="9.422559251143602"><ele>207.5</ele><time>2026-05-01T10:01:59Z</time></trkpt><trkpt lat="46.25372115123126" lon="9.422587776447038"><ele>208.0</ele><time>2026-05-01T10:02:00Z</time></trkpt><trkpt lat="46.25382218672606" lon="9.422613905491179"><ele>208.0</ele><time>2026-05-01T10:02:01Z</time></trkpt><trkpt lat="46.25389691502448" lon="9.42263918844443"><ele>208.0</ele><time>2026-05-01T10:02:02Z</time></trkpt><trkpt lat="46.253975145743226" lon="9.422693839837155"><ele>208.0</ele><time>2026-05-01T10:02:04Z</time></trkpt><trkpt lat="46.25403500087988" lon="9.42275789821145"><ele>208.0</ele><time>2026-05-01T10:02:16.999Z</time></trkpt><trkpt lat="46.25414279468545" lon="9.42265814103623"><ele>208.0</ele><time>2026-05-01T10:02:17.999Z</time></trkpt><trkpt lat="46.25423206304214" lon="9.42262223347966"><ele>208.75</ele><time>2026-05-01T10:02:18.999Z</time></trkpt><trkpt lat="46.25433638417057" lon="9.4225346583002"><ele>209.5</ele><time>2026-05-01T10:02:19.999Z</time></trkpt><trkpt lat="46.25443719270779" lon="9.422456561288048"><ele>210.25</ele><time>2026-05-01T10:02:20.999Z</time></trkpt><trkpt lat="46.25454843226845" lon="9.422400662871743"><ele>211.0</ele><time>2026-05-01T10:02:21.999Z</time></trkpt><trkpt lat="46.25467935938575" lon="9.422329024219895"><ele>211.25</ele><time>2026-05-01T10:02:22.999Z</time></trkpt><trkpt lat="46.25481384301502" lon="9.422257676668917"><ele>211.5</ele><time>2026-05-01T10:02:23.999Z</time></trkpt><trkpt lat="46.254952611887525" lon="9.422206452063516"><ele>211.75</ele><time>2026-05-01T10:02:24.999Z</time></trkpt><trkpt lat="46.25508935921628" lon="9.422141848867057"><ele>212.0</ele><time>2026-05-01T10:02:25.999Z</time></trkpt><trkpt lat="46.25536120950727" lon="9.422015990879899"><ele>211.0</ele><time>2026-05-01T10:02:27.999Z</time></trkpt><trkpt lat="46.25552279547392" lon="9.421954667868022"><ele>210.0</ele><time>2026-05-01T10:02:28.999Z</time></trkpt><trkpt lat="46.25565067321642" lon="9.421906196486553"><ele>209.0</ele><time>2026-05-01T10:02:29.999Z</time></trkpt><trkpt lat="46.2557999724248" lon="9.421829645125706"><ele>209.0</ele><time>2026-05-01T10:02:30.999Z</time></trkpt><trkpt lat="46.25596346726529" lon="9.421752996616144"><ele>209.0</ele><time>2026-05-01T10:02:31.999Z</time></trkpt><trkpt lat="46.256136620390556" lon="9.421683617633434"><ele>209.0</ele><time>2026-05-01T10:02:32.999Z</time></trkpt><trkpt lat="46.256312940965046" lon="9.421609601267967"><ele>210.33333333333334</ele><time>2026-05-01T10:02:33.999Z</time></trkpt><trkpt lat="46.256488740904565" lon="9.421524186770267"><ele>211.66666666666669</ele><time>2026-05-01T10:02:34.999Z</time></trkpt><trkpt lat="46.25666292439968" lon="9.421423128126628"><ele>213.0</ele><time>2026-05-01T10:02:35.999Z</time></trkpt><trkpt lat="46.25683796182515" lon="9.421289710408058"><ele>210.33333333333331</ele><time>2026-05-01T10:02:36.999Z</time></trkpt><trkpt lat="46.25699328703039" lon="9.42112762180713"><ele>207.66666666666666</ele><time>2026-05-01T10:02:37.999Z</time></trkpt><trkpt lat="46.25712374157824" lon="9.42095668586895"><ele>205.0</ele><time>2026-05-01T10:02:38.999Z</time></trkpt><trkpt lat="46.257228232029874" lon="9.42077726518862"><ele>207.66666666666666</ele><time>2026-05-01T10:02:39.999Z</time></trkpt><trkpt lat="46.25732660935201" lon="9.420608292908257"><ele>210.33333333333331</ele><time>2026-05-01T10:02:40.999Z</time></trkpt><trkpt lat="46.257426888346174" lon="9.4204323920539"><ele>213.0</ele><time>2026-05-01T10:02:41.999Z</time></trkpt><trkpt lat="46.25756324844405" lon="9.420235119099496"><ele>213.0</ele><time>2026-05-01T10:02:42.999Z</time></trkpt><trkpt lat="46.25770647769141" lon="9.420046789114563"><ele>213.0</ele><time>2026-05-01T10:02:43.999Z</time></trkpt><trkpt lat="46.25782232638947" lon="9.419876416635033"><ele>213.0</ele><time>2026-05-01T10:02:44.999Z</time></trkpt><trkpt lat="46.25785279820938" lon="9.419729056793372"><ele>211.0</ele><time>2026-05-01T10:02:45.999Z</time></trkpt><trkpt lat="46.25796048748954" lon="9.419541190666646"><ele>209.0</ele><time>2026-05-01T10:02:46.999Z</time></trkpt><trkpt lat="46.25807697943333" lon="9.419341926700877"><ele>207.0</ele><time>2026-05-01T10:02:47.999Z</time></trkpt><trkpt lat="46.25819983631306" lon="9.419139327697522"><ele>206.66666666666669</ele><time>2026-05-01T10:02:48.999Z</time></trkpt><trkpt lat="46.258323852574925" lon="9.41893107045773"><ele>206.33333333333334</ele><time>2026-05-01T10:02:49.999Z</time></trkpt><trkpt lat="46.258439886384075" lon="9.418731165265608"><ele>206.0</ele><time>2026-05-01T10:02:50.999Z</time></trkpt><trkpt lat="46.25856221676656" lon="9.418524363115676"><ele>206.0</ele><time>2026-05-01T10:02:51.999Z</time></trkpt><trkpt lat="46.25868982828778" lon="9.418310684592303"><ele>206.0</ele><time>2026-05-01T10:02:52.999Z</time></trkpt><trkpt lat="46.25881784363999" lon="9.418073318199424"><ele>206.0</ele><time>2026-05-01T10:02:53.999Z</time></trkpt><trkpt lat="46.258967177789664" lon="9.41783961197692"><ele>207.0</ele><time>2026-05-01T10:02:54.999Z</time></trkpt><trkpt lat="46.259119218638084" lon="9.417583919397561"><ele>208.0</ele><time>2026-05-01T10:02:55.999Z</time></trkpt><trkpt lat="46.25926668254607" lon="9.417307405647584"><ele>207.5</ele><time>2026-05-01T10:02:56.999Z</time></trkpt><trkpt lat="46.25942746861913" lon="9.417059339185002"><ele>207.0</ele><time>2026-05-01T10:02:57.999Z</time></trkpt><trkpt lat="46.25958465314431" lon="9.416800962545077"><ele>207.0</ele><time>2026-05-01T10:02:58.999Z</time></trkpt><trkpt lat="46.25975058863784" lon="9.416533325089427"><ele>207.0</ele><time>2026-05-01T10:02:59.999Z</time></trkpt><trkpt lat="46.259917037970546" lon="9.416254488081037"><ele>207.5</ele><time>2026-05-01T10:03:00.999Z</time></trkpt><trkpt lat="46.260087883575174" lon="9.415966385486122"><ele>208.0</ele><time>2026-05-01T10:03:01.999Z</time></trkpt><trkpt lat="46.26026129040459" lon="9.415674073846581"><ele>206.0</ele><time>2026-05-01T10:03:02.999Z</time></trkpt><trkpt lat="46.260440325580454" lon="9.415382580062735"><ele>204.0</ele><time>2026-05-01T10:03:03.999Z</time></trkpt><trkpt lat="46.260613436157904" lon="9.415090248393879"><ele>205.0</ele><time>2026-05-01T10:03:04.999Z</time></trkpt><trkpt lat="46.26077508825273" lon="9.414810474608759"><ele>206.0</ele><time>2026-05-01T10:03:05.999Z</time></trkpt><trkpt lat="46.26092684175815" lon="9.414549921772462"><ele>206.66666666666669</ele><time>2026-05-01T10:03:06.999Z</time></trkpt><trkpt lat="46.261073226081386" lon="9.4143070152337"><ele>207.33333333333331</ele><time>2026-05-01T10:03:07.999Z</time></trkpt><trkpt lat="46.26121190861557" lon="9.41407189218516"><ele>208.0</ele><time>2026-05-01T10:03:08.999Z</time></trkpt><trkpt lat="46.26134323430302" lon="9.413845178461235"><ele>207.66666666666666</ele><time>2026-05-01T10:03:09.999Z</time></trkpt><trkpt lat="46.261456743011706" lon="9.413615833773944"><ele>207.33333333333331</ele><time>2026-05-01T10:03:10.999Z</time></trkpt><trkpt lat="46.26153693268802" lon="9.413357825718657"><ele>207.0</ele><time>2026-05-01T10:03:11.999Z</time></trkpt><trkpt lat="46.261578405425674" lon="9.413067494646876"><ele>207.33333333333331</ele><time>2026-05-01T10:03:12.999Z</time></trkpt><trkpt lat="46.26159574192979" lon="9.412768810730402"><ele>207.66666666666666</ele><time>2026-05-01T10:03:13.999Z</time></trkpt><trkpt lat="46.26162430676538" lon="9.41247089314413"><ele>208.0</ele><time>2026-05-01T10:03:14.999Z</time></trkpt><trkpt lat="46.261659734294795" lon="9.412190717147258"><ele>207.66666666666666</ele><time>2026-05-01T10:03:15.999Z</time></trkpt><trkpt lat="46.261697467046446" lon="9.411927750683322"><ele>207.33333333333331</ele><time>2026-05-01T10:03:16.999Z</time></trkpt><trkpt lat="46.26175014875268" lon="9.411673780904069"><ele>207.0</ele><time>2026-05-01T10:03:18Z</time></trkpt><trkpt lat="46.261860241312576" lon="9.411439087052434"><ele>207.33333333333331</ele><time>2026-05-01T10:03:19Z</time></trkpt><trkpt lat="46.261992650251955" lon="9.411208614131484"><ele>207.66666666666666</ele><time>2026-05-01T10:03:20Z</time></trkpt><trkpt lat="46.2621245361739" lon="9.410959193100641"><ele>208.0</ele><time>2026-05-01T10:03:21Z</time></trkpt><trkpt lat="46.26227452297311" lon="9.41072370635295"><ele>208.0</ele><time>2026-05-01T10:03:22Z</time></trkpt><trkpt lat="46.26242146076132" lon="9.410481551744029"><ele>208.0</ele><time>2026-05-01T10:03:23Z</time></trkpt><trkpt lat="46.262560726368974" lon="9.410243861437145"><ele>208.0</ele><time>2026-05-01T10:03:24Z</time></trkpt><trkpt lat="46.26269850026767" lon="9.410014766071619"><ele>208.0</ele><time>2026-05-01T10:03:25Z</time></trkpt><trkpt lat="46.2628380228234" lon="9.40978029328779"><ele>208.0</ele><time>2026-05-01T10:03:26Z</time></trkpt><trkpt lat="46.262973426255776" lon="9.409550527086683"><ele>208.0</ele><time>2026-05-01T10:03:27Z</time></trkpt><trkpt lat="46.263099734791794" lon="9.409337449186733"><ele>208.33333333333331</ele><time>2026-05-01T10:03:28Z</time></trkpt><trkpt lat="46.26322127694675" lon="9.409132011966642"><ele>208.66666666666669</ele><time>2026-05-01T10:03:29Z</time></trkpt><trkpt lat="46.263340731186865" lon="9.408953005109154"><ele>209.0</ele><time>2026-05-01T10:03:30Z</time></trkpt><trkpt lat="46.263489137478636" lon="9.408789292810793"><ele>209.0</ele><time>2026-05-01T10:03:31Z</time></trkpt><trkpt lat="46.263625978961464" lon="9.40862967656769"><ele>209.0</ele><time>2026-05-01T10:03:32Z</time></trkpt><trkpt lat="46.26374927556991" lon="9.408543587206228"><ele>209.0</ele><time>2026-05-01T10:03:33Z</time></trkpt><trkpt lat="46.26388865657663" lon="9.408494805967816"><ele>209.33333333333334</ele><time>2026-05-01T10:03:34Z</time></trkpt><trkpt lat="46.26412626674056" lon="9.408323295091362"><ele>209.66666666666669</ele><time>2026-05-01T10:03:35Z</time></trkpt><trkpt lat="46.26428611612179" lon="9.40824725253433"><ele>210.0</ele><time>2026-05-01T10:03:36Z</time></trkpt><trkpt lat="46.26443913759859" lon="9.408161930427184"><ele>210.0</ele><time>2026-05-01T10:03:37Z</time></trkpt><trkpt lat="46.26458225552556" lon="9.408080170183226"><ele>210.0</ele><time>2026-05-01T10:03:38Z</time></trkpt><trkpt lat="46.264714904068725" lon="9.407999931883039"><ele>210.0</ele><time>2026-05-01T10:03:39Z</time></trkpt><trkpt lat="46.26484572258178" lon="9.407925872583622"><ele>210.0</ele><time>2026-05-01T10:03:40Z</time></trkpt><trkpt lat="46.26497811726467" lon="9.40785159121122"><ele>210.0</ele><time>2026-05-01T10:03:41Z</time></trkpt><trkpt lat="46.26512036920429" lon="9.407777513542413"><ele>210.0</ele><time>2026-05-01T10:03:42Z</time></trkpt><trkpt lat="46.26527169457828" lon="9.407686431432065"><ele>210.0</ele><time>2026-05-01T10:03:43Z</time></trkpt><trkpt lat="46.26542426363986" lon="9.407588372728664"><ele>210.0</ele><time>2026-05-01T10:03:44Z</time></trkpt><trkpt lat="46.26557657044895" lon="9.407485969080913"><ele>210.0</ele><time>2026-05-01T10:03:45Z</time></trkpt><trkpt lat="46.265725169652455" lon="9.407379298660102"><ele>210.0</ele><time>2026-05-01T10:03:46Z</time></trkpt><trkpt lat="46.2658734432612" lon="9.40726759190184"><ele>211.33333333333331</ele><time>2026-05-01T10:03:47Z</time></trkpt><trkpt lat="46.26601356856745" lon="9.40715245340612"><ele>212.66666666666666</ele><time>2026-05-01T10:03:48Z</time></trkpt><trkpt lat="46.266151837036425" lon="9.407029962079047"><ele>214.0</ele><time>2026-05-01T10:03:49Z</time></trkpt><trkpt lat="46.26628590380995" lon="9.406906325580746"><ele>214.0</ele><time>2026-05-01T10:03:50Z</time></trkpt><trkpt lat="46.2664170420009" lon="9.406781353122634"><ele>214.0</ele><time>2026-05-01T10:03:51Z</time></trkpt><trkpt lat="46.2665486168966" lon="9.406658428622364"><ele>214.0</ele><time>2026-05-01T10:03:52Z</time></trkpt><trkpt lat="46.26666953065187" lon="9.40651926382032"><ele>215.0</ele><time>2026-05-01T10:03:53Z</time></trkpt><trkpt lat="46.26679262771889" lon="9.406374704386058"><ele>216.0</ele><time>2026-05-01T10:03:54Z</time></trkpt><trkpt lat="46.266921633022434" lon="9.406233165313848"><ele>217.0</ele><time>2026-05-01T10:03:55Z</time></trkpt><trkpt lat="46.267046840796404" lon="9.40608609943145"><ele>217.0</ele><time>2026-05-01T10:03:56Z</time></trkpt><trkpt lat="46.26716558788691" lon="9.405925592400472"><ele>217.0</ele><time>2026-05-01T10:03:57Z</time></trkpt><trkpt lat="46.26727673822858" lon="9.40576940631302"><ele>217.0</ele><time>2026-05-01T10:03:58Z</time></trkpt><trkpt lat="46.26737655391121" lon="9.405605311329127"><ele>217.0</ele><time>2026-05-01T10:03:59Z</time></trkpt><trkpt lat="46.267478931232205" lon="9.405444303228778"><ele>217.0</ele><time>2026-05-01T10:04:00Z</time></trkpt><trkpt lat="46.26757977121332" lon="9.405284816888487"><ele>217.0</ele><time>2026-05-01T10:04:01Z</time></trkpt><trkpt lat="46.2676766630046" lon="9.405124760364316"><ele>217.0</ele><time>2026-05-01T10:04:02Z</time></trkpt><trkpt lat="46.26777682188688" lon="9.404945412301554"><ele>217.0</ele><time>2026-05-01T10:04:03Z</time></trkpt><trkpt lat="46.267881280384415" lon="9.404750992702818"><ele>217.0</ele><time>2026-05-01T10:04:04Z</time></trkpt><trkpt lat="46.2680018326744" lon="9.404549969006908"><ele>217.0</ele><time>2026-05-01T10:04:05Z</time></trkpt><trkpt lat="46.26813557680877" lon="9.404337390817258"><ele>217.33333333333331</ele><time>2026-05-01T10:04:06Z</time></trkpt><trkpt lat="46.26827466693901" lon="9.404120709285397"><ele>217.66666666666669</ele><time>2026-05-01T10:04:06.999Z</time></trkpt><trkpt lat="46.26841496754596" lon="9.403900780086332"><ele>218.0</ele><time>2026-05-01T10:04:07.999Z</time></trkpt><trkpt lat="46.26856460941977" lon="9.403670802871368"><ele>217.0</ele><time>2026-05-01T10:04:08.999Z</time></trkpt><trkpt lat="46.26871880233675" lon="9.40342049443739"><ele>216.0</ele><time>2026-05-01T10:04:09.999Z</time></trkpt><trkpt lat="46.26887366474058" lon="9.40315823224741"><ele>216.33333333333331</ele><time>2026-05-01T10:04:10.999Z</time></trkpt><trkpt lat="46.26902957340897" lon="9.402911135041126"><ele>216.66666666666666</ele><time>2026-05-01T10:04:11.999Z</time></trkpt><trkpt lat="46.26917557579482" lon="9.4026844867216"><ele>217.0</ele><time>2026-05-01T10:04:12.999Z</time></trkpt><trkpt lat="46.26931737323583" lon="9.40247090513455"><ele>217.0</ele><time>2026-05-01T10:04:13.999Z</time></trkpt><trkpt lat="46.26945028108768" lon="9.402266328713484"><ele>217.0</ele><time>2026-05-01T10:04:14.999Z</time></trkpt><trkpt lat="46.26957600779824" lon="9.402064424782306"><ele>217.0</ele><time>2026-05-01T10:04:15.999Z</time></trkpt><trkpt lat="46.269689675197306" lon="9.401877698070898"><ele>218.0</ele><time>2026-05-01T10:04:16.999Z</time></trkpt><trkpt lat="46.269802785226304" lon="9.401705990404288"><ele>219.0</ele><time>2026-05-01T10:04:17.999Z</time></trkpt><trkpt lat="46.269910539502845" lon="9.40153728660177"><ele>220.0</ele><time>2026-05-01T10:04:18.999Z</time></trkpt><trkpt lat="46.270020579141026" lon="9.40137338040145"><ele>219.66666666666666</ele><time>2026-05-01T10:04:19.999Z</time></trkpt><trkpt lat="46.27013347649248" lon="9.401221180957009"><ele>219.33333333333331</ele><time>2026-05-01T10:04:20.999Z</time></trkpt><trkpt lat="46.27024807621975" lon="9.401082992821102"><ele>219.0</ele><time>2026-05-01T10:04:21.999Z</time></trkpt><trkpt lat="46.270368327040956" lon="9.400950350942873"><ele>219.0</ele><time>2026-05-01T10:04:22.999Z</time></trkpt><trkpt lat="46.270488613964005" lon="9.400818772089625"><ele>219.0</ele><time>2026-05-01T10:04:23.999Z</time></trkpt><trkpt lat="46.27061140969825" lon="9.40068813215968"><ele>219.0</ele><time>2026-05-01T10:04:24.999Z</time></trkpt><trkpt lat="46.27074226243698" lon="9.400552614992854"><ele>219.0</ele><time>2026-05-01T10:04:25.999Z</time></trkpt><trkpt lat="46.27087741011934" lon="9.400414505130598"><ele>219.0</ele><time>2026-05-01T10:04:26.999Z</time></trkpt><trkpt lat="46.27100102875561" lon="9.400287718263785"><ele>219.0</ele><time>2026-05-01T10:04:27.999Z</time></trkpt><trkpt lat="46.271122735353785" lon="9.400164768737366"><ele>219.0</ele><time>2026-05-01T10:04:28.999Z</time></trkpt><trkpt lat="46.2712408927675" lon="9.400041571350153"><ele>219.0</ele><time>2026-05-01T10:04:29.999Z</time></trkpt><trkpt lat="46.27135726350289" lon="9.39991679501101"><ele>219.0</ele><time>2026-05-01T10:04:30.999Z</time></trkpt><trkpt lat="46.27145859943775" lon="9.399783192172261"><ele>219.0</ele><time>2026-05-01T10:04:31.999Z</time></trkpt><trkpt lat="46.271534728980335" lon="9.399631512990517"><ele>219.5</ele><time>2026-05-01T10:04:32.999Z</time></trkpt><trkpt lat="46.27158393660433" lon="9.399459880326079"><ele>220.0</ele><time>2026-05-01T10:04:33.999Z</time></trkpt><trkpt lat="46.27160618510642" lon="9.399274742595846"><ele>220.5</ele><time>2026-05-01T10:04:34.999Z</time></trkpt><trkpt lat="46.2716164723455" lon="9.39908681323457"><ele>221.0</ele><time>2026-05-01T10:04:35.999Z</time></trkpt><trkpt lat="46.27166121430001" lon="9.398924432677465"><ele>220.5</ele><time>2026-05-01T10:04:36.999Z</time></trkpt><trkpt lat="46.27167630094116" lon="9.398750529415596"><ele>220.0</ele><time>2026-05-01T10:04:37.999Z</time></trkpt><trkpt lat="46.2717073115044" lon="9.398581877968523"><ele>219.5</ele><time>2026-05-01T10:04:38.999Z</time></trkpt><trkpt lat="46.27176104783719" lon="9.398424847155807"><ele>219.0</ele><time>2026-05-01T10:04:39.999Z</time></trkpt><trkpt lat="46.27184012022997" lon="9.398284264253975"><ele>219.0</ele><time>2026-05-01T10:04:40.999Z</time></trkpt><trkpt lat="46.27193544526661" lon="9.3981570429456"><ele>219.0</ele><time>2026-05-01T10:04:41.999Z</time></trkpt><trkpt lat="46.27205923498805" lon="9.398108222111023"><ele>219.0</ele><time>2026-05-01T10:04:42.999Z</time></trkpt><trkpt lat="46.27217306595885" lon="9.398057336022658"><ele>219.0</ele><time>2026-05-01T10:04:43.999Z</time></trkpt><trkpt lat="46.272306834653364" lon="9.39801901135641"><ele>219.0</ele><time>2026-05-01T10:04:44.999Z</time></trkpt><trkpt lat="46.272457611006764" lon="9.39796561791394"><ele>219.0</ele><time>2026-05-01T10:04:45.999Z</time></trkpt><trkpt lat="46.272621554378" lon="9.397911495481733"><ele>219.0</ele><time>2026-05-01T10:04:46.999Z</time></trkpt><trkpt lat="46.27279880088568" lon="9.397852981304268"><ele>219.0</ele><time>2026-05-01T10:04:47.999Z</time></trkpt><trkpt lat="46.27297813004022" lon="9.3977940661626"><ele>219.0</ele><time>2026-05-01T10:04:48.999Z</time></trkpt><trkpt lat="46.27317174612412" lon="9.397730696038742"><ele>219.0</ele><time>2026-05-01T10:04:49.999Z</time></trkpt><trkpt lat="46.273374727251" lon="9.397664260782904"><ele>220.0</ele><time>2026-05-01T10:04:50.999Z</time></trkpt><trkpt lat="46.27356625704098" lon="9.397601710541224"><ele>221.0</ele><time>2026-05-01T10:04:51.999Z</time></trkpt><trkpt lat="46.27374137745295" lon="9.397543713276974"><ele>222.0</ele><time>2026-05-01T10:04:52.999Z</time></trkpt><trkpt lat="46.27390394552167" lon="9.397487463176681"><ele>223.33333333333331</ele><time>2026-05-01T10:04:53.999Z</time></trkpt><trkpt lat="46.2740599794929" lon="9.397413951870274"><ele>224.66666666666666</ele><time>2026-05-01T10:04:54.999Z</time></trkpt><trkpt lat="46.274208967747654" lon="9.397375311439758"><ele>226.0</ele><time>2026-05-01T10:04:55.999Z</time></trkpt><trkpt lat="46.27435400219512" lon="9.397341963411378"><ele>226.0</ele><time>2026-05-01T10:04:56.999Z</time></trkpt><trkpt lat="46.27448888485885" lon="9.397309588173192"><ele>226.0</ele><time>2026-05-01T10:04:57.999Z</time></trkpt><trkpt lat="46.27463165670869" lon="9.397282454928861"><ele>226.0</ele><time>2026-05-01T10:04:58.999Z</time></trkpt><trkpt lat="46.27478383843824" lon="9.397245887905322"><ele>226.0</ele><time>2026-05-01T10:04:59.999Z</time></trkpt><trkpt lat="46.27494056270158" lon="9.3972351064506"><ele>225.66666666666666</ele><time>2026-05-01T10:05:00.999Z</time></trkpt><trkpt lat="46.27509678959718" lon="9.39720167576871"><ele>225.33333333333331</ele><time>2026-05-01T10:05:01.999Z</time></trkpt><trkpt lat="46.27527483065758" lon="9.397163577104989"><ele>225.0</ele><time>2026-05-01T10:05:02.999Z</time></trkpt><trkpt lat="46.275458365131996" lon="9.397124302944277"><ele>225.0</ele><time>2026-05-01T10:05:03.999Z</time></trkpt><trkpt lat="46.27563824259232" lon="9.397064404964361"><ele>225.0</ele><time>2026-05-01T10:05:04.999Z</time></trkpt><trkpt lat="46.27580583978967" lon="9.39703539763797"><ele>225.0</ele><time>2026-05-01T10:05:05.999Z</time></trkpt><trkpt lat="46.275961595045885" lon="9.397004750202015"><ele>225.0</ele><time>2026-05-01T10:05:06.999Z</time></trkpt><trkpt lat="46.27611430713277" lon="9.39698177805614"><ele>225.0</ele><time>2026-05-01T10:05:07.999Z</time></trkpt><trkpt lat="46.2762593248471" lon="9.39696495186382"><ele>225.0</ele><time>2026-05-01T10:05:08.999Z</time></trkpt><trkpt lat="46.27640616709594" lon="9.396946179046203"><ele>225.0</ele><time>2026-05-01T10:05:09.999Z</time></trkpt><trkpt lat="46.27655698129635" lon="9.396933814212662"><ele>225.5</ele><time>2026-05-01T10:05:10.999Z</time></trkpt><trkpt lat="46.27670547222622" lon="9.396934904497535"><ele>226.0</ele><time>2026-05-01T10:05:11.999Z</time></trkpt><trkpt lat="46.276856055034045" lon="9.396926660674117"><ele>226.5</ele><time>2026-05-01T10:05:12.999Z</time></trkpt><trkpt lat="46.277003041901914" lon="9.396918493931597"><ele>227.0</ele><time>2026-05-01T10:05:13.999Z</time></trkpt><trkpt lat="46.27714665462636" lon="9.396906601908062"><ele>226.75</ele><time>2026-05-01T10:05:14.999Z</time></trkpt><trkpt lat="46.27729477003752" lon="9.396896713938704"><ele>226.5</ele><time>2026-05-01T10:05:15.999Z</time></trkpt><trkpt lat="46.27744877011039" lon="9.396886837079494"><ele>226.25</ele><time>2026-05-01T10:05:16.999Z</time></trkpt><trkpt lat="46.27758890985115" lon="9.396877225349092"><ele>226.0</ele><time>2026-05-01T10:05:17.999Z</time></trkpt><trkpt lat="46.27772133371152" lon="9.39686612805699"><ele>226.0</ele><time>2026-05-01T10:05:18.999Z</time></trkpt><trkpt lat="46.2778558540833" lon="9.396844143469146"><ele>226.0</ele><time>2026-05-01T10:05:19.999Z</time></trkpt><trkpt lat="46.27798990958009" lon="9.396812185523341"><ele>226.0</ele><time>2026-05-01T10:05:20.999Z</time></trkpt><trkpt lat="46.278127809304195" lon="9.396761335582232"><ele>226.0</ele><time>2026-05-01T10:05:21.999Z</time></trkpt><trkpt lat="46.278266709383495" lon="9.396675324709252"><ele>226.33333333333331</ele><time>2026-05-01T10:05:22.999Z</time></trkpt><trkpt lat="46.278435210695456" lon="9.396600000847421"><ele>226.66666666666669</ele><time>2026-05-01T10:05:24Z</time></trkpt><trkpt lat="46.27863240864045" lon="9.396462907311202"><ele>227.0</ele><time>2026-05-01T10:05:25Z</time></trkpt><trkpt lat="46.27881562237708" lon="9.396368671624769"><ele>227.0</ele><time>2026-05-01T10:05:26Z</time></trkpt><trkpt lat="46.278928085682836" lon="9.396291864022315"><ele>227.0</ele><time>2026-05-01T10:05:27Z</time></trkpt><trkpt lat="46.27907967129619" lon="9.396195508098723"><ele>227.0</ele><time>2026-05-01T10:05:28Z</time></trkpt><trkpt lat="46.27924979282387" lon="9.396073679081297"><ele>227.33333333333334</ele><time>2026-05-01T10:05:29Z</time></trkpt><trkpt lat="46.27941736086599" lon="9.395975910392268"><ele>227.66666666666669</ele><time>2026-05-01T10:05:30Z</time></trkpt><trkpt lat="46.27957208152449" lon="9.395886073737817"><ele>228.0</ele><time>2026-05-01T10:05:31Z</time></trkpt><trkpt lat="46.27971697425256" lon="9.395798891873756"><ele>228.0</ele><time>2026-05-01T10:05:32Z</time></trkpt><trkpt lat="46.279855656769406" lon="9.395710727651101"><ele>228.0</ele><time>2026-05-01T10:05:33Z</time></trkpt><trkpt lat="46.280004684870725" lon="9.395615663207284"><ele>228.0</ele><time>2026-05-01T10:05:34Z</time></trkpt><trkpt lat="46.28015575866604" lon="9.395520760888482"><ele>227.66666666666669</ele><time>2026-05-01T10:05:35Z</time></trkpt><trkpt lat="46.28030828164383" lon="9.395420904324585"><ele>227.33333333333334</ele><time>2026-05-01T10:05:36Z</time></trkpt><trkpt lat="46.280467997244244" lon="9.395309938698814"><ele>227.0</ele><time>2026-05-01T10:05:37Z</time></trkpt><trkpt lat="46.280642837483825" lon="9.395214377091472"><ele>228.33333333333334</ele><time>2026-05-01T10:05:38Z</time></trkpt><trkpt lat="46.28081323045405" lon="9.395081748870375"><ele>229.66666666666669</ele><time>2026-05-01T10:05:39Z</time></trkpt><trkpt lat="46.28099620691132" lon="9.394982091601497"><ele>231.0</ele><time>2026-05-01T10:05:40Z</time></trkpt><trkpt lat="46.28116702329892" lon="9.394883551497148"><ele>231.0</ele><time>2026-05-01T10:05:41Z</time></trkpt><trkpt lat="46.28132602416522" lon="9.394782964515711"><ele>231.0</ele><time>2026-05-01T10:05:42Z</time></trkpt><trkpt lat="46.281480933752434" lon="9.394685051940687"><ele>231.0</ele><time>2026-05-01T10:05:43Z</time></trkpt><trkpt lat="46.281630003574676" lon="9.394591485166366"><ele>231.0</ele><time>2026-05-01T10:05:44Z</time></trkpt><trkpt lat="46.28177928757969" lon="9.394495400249985"><ele>231.0</ele><time>2026-05-01T10:05:45Z</time></trkpt><trkpt lat="46.281929471036264" lon="9.394395373008667"><ele>231.0</ele><time>2026-05-01T10:05:46Z</time></trkpt><trkpt lat="46.28209244550219" lon="9.394280569444108"><ele>230.33333333333331</ele><time>2026-05-01T10:05:47Z</time></trkpt><trkpt lat="46.28227238691454" lon="9.394189969672576"><ele>229.66666666666666</ele><time>2026-05-01T10:05:48Z</time></trkpt><trkpt lat="46.282455293372884" lon="9.394075156148666"><ele>229.0</ele><time>2026-05-01T10:05:49Z</time></trkpt><trkpt lat="46.28263942673499" lon="9.393954253426372"><ele>229.0</ele><time>2026-05-01T10:05:50Z</time></trkpt><trkpt lat="46.282822165851975" lon="9.39385248769872"><ele>229.0</ele><time>2026-05-01T10:05:51Z</time></trkpt><trkpt lat="46.283012798629365" lon="9.393744910097114"><ele>229.0</ele><time>2026-05-01T10:05:52Z</time></trkpt><trkpt lat="46.28321445815433" lon="9.393642810774676"><ele>230.33333333333331</ele><time>2026-05-01T10:05:53Z</time></trkpt><trkpt lat="46.28342086724975" lon="9.393544079311916"><ele>231.66666666666669</ele><time>2026-05-01T10:05:54Z</time></trkpt><trkpt lat="46.283629221927654" lon="9.393453610106516"><ele>233.0</ele><time>2026-05-01T10:05:55Z</time></trkpt><trkpt lat="46.28383851576189" lon="9.39336237734298"><ele>232.66666666666669</ele><time>2026-05-01T10:05:56Z</time></trkpt><trkpt lat="46.28404471452362" lon="9.393272200861214"><ele>232.33333333333331</ele><time>2026-05-01T10:05:57Z</time></trkpt><trkpt lat="46.284251480694536" lon="9.393171817819628"><ele>232.0</ele><time>2026-05-01T10:05:58Z</time></trkpt><trkpt lat="46.284455773740085" lon="9.393065558594168"><ele>232.0</ele><time>2026-05-01T10:05:59Z</time></trkpt><trkpt lat="46.28465626827623" lon="9.392943215723768"><ele>232.0</ele><time>2026-05-01T10:06:00Z</time></trkpt><trkpt lat="46.28485152368761" lon="9.39280958893669"><ele>232.0</ele><time>2026-05-01T10:06:01Z</time></trkpt><trkpt lat="46.28504524042966" lon="9.392668406550515"><ele>232.66666666666666</ele><time>2026-05-01T10:06:02Z</time></trkpt><trkpt lat="46.2852456906497" lon="9.392553018016326"><ele>233.33333333333331</ele><time>2026-05-01T10:06:03Z</time></trkpt><trkpt lat="46.28544411190556" lon="9.392422893101756"><ele>234.0</ele><time>2026-05-01T10:06:04Z</time></trkpt><trkpt lat="46.28564750194898" lon="9.392289978015416"><ele>235.33333333333331</ele><time>2026-05-01T10:06:05Z</time></trkpt><trkpt lat="46.28584636607591" lon="9.392137820399135"><ele>236.66666666666666</ele><time>2026-05-01T10:06:06Z</time></trkpt><trkpt lat="46.28605228955111" lon="9.392022445796048"><ele>238.0</ele><time>2026-05-01T10:06:07Z</time></trkpt><trkpt lat="46.28625634015748" lon="9.391892019817817"><ele>238.33333333333331</ele><time>2026-05-01T10:06:08Z</time></trkpt><trkpt lat="46.286458039707924" lon="9.3917572186062"><ele>238.66666666666669</ele><time>2026-05-01T10:06:09Z</time></trkpt><trkpt lat="46.28666055264972" lon="9.391619117005519"><ele>239.0</ele><time>2026-05-01T10:06:10Z</time></trkpt><trkpt lat="46.28686602360318" lon="9.391483316586918"><ele>239.0</ele><time>2026-05-01T10:06:11Z</time></trkpt><trkpt lat="46.287069855022736" lon="9.391349190356399"><ele>239.0</ele><time>2026-05-01T10:06:12Z</time></trkpt><trkpt lat="46.2872609321134" lon="9.391226454496355"><ele>239.0</ele><time>2026-05-01T10:06:13Z</time></trkpt><trkpt lat="46.28743706927201" lon="9.39110890703026"><ele>240.0</ele><time>2026-05-01T10:06:14Z</time></trkpt><trkpt lat="46.287607045173914" lon="9.390993797331728"><ele>241.0</ele><time>2026-05-01T10:06:15Z</time></trkpt><trkpt lat="46.28777292899155" lon="9.390878045292578"><ele>242.0</ele><time>2026-05-01T10:06:16Z</time></trkpt><trkpt lat="46.28793450060371" lon="9.39077348806762"><ele>242.0</ele><time>2026-05-01T10:06:17Z</time></trkpt><trkpt lat="46.288050441321964" lon="9.390683226531277"><ele>242.0</ele><time>2026-05-01T10:06:18Z</time></trkpt><trkpt lat="46.28817980363961" lon="9.390597437971715"><ele>242.0</ele><time>2026-05-01T10:06:19Z</time></trkpt><trkpt lat="46.288291591845486" lon="9.390541089938251"><ele>242.0</ele><time>2026-05-01T10:06:19.999Z</time></trkpt><trkpt lat="46.288397665599426" lon="9.390540972338961"><ele>242.0</ele><time>2026-05-01T10:06:20.999Z</time></trkpt><trkpt lat="46.28849709175035" lon="9.390530064795254"><ele>242.0</ele><time>2026-05-01T10:06:21.999Z</time></trkpt><trkpt lat="46.28858464218446" lon="9.390453230410218"><ele>242.0</ele><time>2026-05-01T10:06:22.999Z</time></trkpt><trkpt lat="46.28866868882985" lon="9.390337958412138"><ele>242.0</ele><time>2026-05-01T10:06:23.999Z</time></trkpt><trkpt lat="46.288778118781295" lon="9.390219797490353"><ele>241.66666666666669</ele><time>2026-05-01T10:06:24.999Z</time></trkpt><trkpt lat="46.288913630647706" lon="9.390131905998182"><ele>241.33333333333331</ele><time>2026-05-01T10:06:25.999Z</time></trkpt><trkpt lat="46.289082247909654" lon="9.39003459574108"><ele>241.0</ele><time>2026-05-01T10:06:26.999Z</time></trkpt><trkpt lat="46.28927288071984" lon="9.389909430399626"><ele>242.66666666666666</ele><time>2026-05-01T10:06:27.999Z</time></trkpt><trkpt lat="46.28941725257392" lon="9.389818111376183"><ele>244.33333333333331</ele><time>2026-05-01T10:06:28.999Z</time></trkpt><trkpt lat="46.289595607888536" lon="9.389687643425026"><ele>246.0</ele><time>2026-05-01T10:06:29.999Z</time></trkpt><trkpt lat="46.28977848233819" lon="9.389530269207995"><ele>246.66666666666669</ele><time>2026-05-01T10:06:30.999Z</time></trkpt><trkpt lat="46.28996110319375" lon="9.389351036543472"><ele>247.33333333333334</ele><time>2026-05-01T10:06:31.999Z</time></trkpt><trkpt lat="46.290128470545994" lon="9.38916444933169"><ele>248.0</ele><time>2026-05-01T10:06:32.999Z</time></trkpt><trkpt lat="46.29030371784492" lon="9.388965220512812"><ele>248.0</ele><time>2026-05-01T10:06:33.999Z</time></trkpt><trkpt lat="46.29048814630431" lon="9.388763645552427"><ele>248.0</ele><time>2026-05-01T10:06:34.999Z</time></trkpt><trkpt lat="46.290675643726914" lon="9.388566597940999"><ele>248.0</ele><time>2026-05-01T10:06:35.999Z</time></trkpt><trkpt lat="46.29085883283552" lon="9.388373658260253"><ele>248.0</ele><time>2026-05-01T10:06:36.999Z</time></trkpt><trkpt lat="46.2910366053564" lon="9.388183747557052"><ele>248.0</ele><time>2026-05-01T10:06:37.999Z</time></trkpt><trkpt lat="46.29121391262992" lon="9.387998051011802"><ele>248.0</ele><time>2026-05-01T10:06:38.999Z</time></trkpt><trkpt lat="46.291383377157395" lon="9.387819499743296"><ele>248.0</ele><time>2026-05-01T10:06:39.999Z</time></trkpt><trkpt lat="46.29154692033713" lon="9.387644600394388"><ele>248.0</ele><time>2026-05-01T10:06:40.999Z</time></trkpt><trkpt lat="46.29170219426588" lon="9.387472570483888"><ele>248.0</ele><time>2026-05-01T10:06:41.999Z</time></trkpt><trkpt lat="46.291860820893504" lon="9.387300692296405"><ele>248.0</ele><time>2026-05-01T10:06:42.999Z</time></trkpt><trkpt lat="46.29201118960714" lon="9.387138653490315"><ele>248.0</ele><time>2026-05-01T10:06:43.999Z</time></trkpt><trkpt lat="46.29214663667318" lon="9.386993902073561"><ele>250.0</ele><time>2026-05-01T10:06:44.999Z</time></trkpt><trkpt lat="46.29228550774803" lon="9.386841282008984"><ele>252.0</ele><time>2026-05-01T10:06:45.999Z</time></trkpt><trkpt lat="46.292419438621316" lon="9.386703406973057"><ele>254.0</ele><time>2026-05-01T10:06:46.999Z</time></trkpt><trkpt lat="46.29255329302005" lon="9.386567658644319"><ele>254.0</ele><time>2026-05-01T10:06:47.999Z</time></trkpt><trkpt lat="46.29268708533498" lon="9.386436633265788"><ele>254.0</ele><time>2026-05-01T10:06:48.999Z</time></trkpt><trkpt lat="46.29281256667277" lon="9.386311224928214"><ele>254.0</ele><time>2026-05-01T10:06:49.999Z</time></trkpt><trkpt lat="46.29295391033144" lon="9.386196659048387"><ele>255.0</ele><time>2026-05-01T10:06:50.999Z</time></trkpt><trkpt lat="46.293104384284064" lon="9.386095446723653"><ele>256.0</ele><time>2026-05-01T10:06:51.999Z</time></trkpt><trkpt lat="46.29326142038365" lon="9.386005268990589"><ele>257.0</ele><time>2026-05-01T10:06:52.999Z</time></trkpt><trkpt lat="46.29342079537632" lon="9.38592992410126"><ele>257.0</ele><time>2026-05-01T10:06:53.999Z</time></trkpt><trkpt lat="46.293583604160986" lon="9.385874278734011"><ele>257.0</ele><time>2026-05-01T10:06:54.999Z</time></trkpt><trkpt lat="46.293746400557474" lon="9.385835767235893"><ele>257.0</ele><time>2026-05-01T10:06:55.999Z</time></trkpt><trkpt lat="46.29392455662956" lon="9.385808492368911"><ele>257.0</ele><time>2026-05-01T10:06:56.999Z</time></trkpt><trkpt lat="46.294100725074706" lon="9.385797332368472"><ele>257.0</ele><time>2026-05-01T10:06:57.999Z</time></trkpt><trkpt lat="46.29428100809022" lon="9.385800322304227"><ele>257.0</ele><time>2026-05-01T10:06:58.999Z</time></trkpt><trkpt lat="46.29446584465155" lon="9.385814694422818"><ele>257.0</ele><time>2026-05-01T10:06:59.999Z</time></trkpt><trkpt lat="46.29465738420282" lon="9.385866429737922"><ele>257.0</ele><time>2026-05-01T10:07:00.999Z</time></trkpt><trkpt lat="46.294885321302026" lon="9.385908195561896"><ele>257.0</ele><time>2026-05-01T10:07:01.999Z</time></trkpt><trkpt lat="46.29511195991263" lon="9.385950189083417"><ele>258.0</ele><time>2026-05-01T10:07:02.999Z</time></trkpt><trkpt lat="46.29526693183534" lon="9.38597863127426"><ele>259.0</ele><time>2026-05-01T10:07:03.999Z</time></trkpt><trkpt lat="46.29548519844692" lon="9.385996805367688"><ele>260.0</ele><time>2026-05-01T10:07:04.999Z</time></trkpt><trkpt lat="46.29570509921231" lon="9.386054238673772"><ele>261.5</ele><time>2026-05-01T10:07:05.999Z</time></trkpt><trkpt lat="46.295939084768534" lon="9.386101334461264"><ele>263.0</ele><time>2026-05-01T10:07:06.999Z</time></trkpt><trkpt lat="46.29618293565092" lon="9.386149952101878"><ele>263.0</ele><time>2026-05-01T10:07:07.999Z</time></trkpt><trkpt lat="46.29643604422983" lon="9.38619617191596"><ele>263.0</ele><time>2026-05-01T10:07:08.999Z</time></trkpt><trkpt lat="46.2966904616136" lon="9.386241073918761"><ele>263.0</ele><time>2026-05-01T10:07:09.999Z</time></trkpt><trkpt lat="46.29693803885534" lon="9.386286395811304"><ele>263.0</ele><time>2026-05-01T10:07:10.999Z</time></trkpt><trkpt lat="46.297182842267894" lon="9.386325823292143"><ele>267.5</ele><time>2026-05-01T10:07:11.999Z</time></trkpt><trkpt lat="46.297431510710894" lon="9.386370098670188"><ele>272.0</ele><time>2026-05-01T10:07:12.999Z</time></trkpt><trkpt lat="46.2976801793456" lon="9.386416231856918"><ele>272.0</ele><time>2026-05-01T10:07:13.999Z</time></trkpt><trkpt lat="46.297928002982864" lon="9.38646497657301"><ele>272.0</ele><time>2026-05-01T10:07:14.999Z</time></trkpt><trkpt lat="46.29817851313586" lon="9.386516568397266"><ele>273.0</ele><time>2026-05-01T10:07:15.999Z</time></trkpt><trkpt lat="46.29842955946363" lon="9.38656184163547"><ele>274.0</ele><time>2026-05-01T10:07:16.999Z</time></trkpt><trkpt lat="46.29867484357592" lon="9.386605937651247"><ele>274.0</ele><time>2026-05-01T10:07:17.999Z</time></trkpt><trkpt lat="46.29890790386896" lon="9.386651049434295"><ele>274.0</ele><time>2026-05-01T10:07:18.999Z</time></trkpt><trkpt lat="46.299125613242744" lon="9.3866906310664"><ele>274.0</ele><time>2026-05-01T10:07:19.999Z</time></trkpt><trkpt lat="46.29933361993963" lon="9.386725092870655"><ele>274.0</ele><time>2026-05-01T10:07:20.999Z</time></trkpt><trkpt lat="46.29954712708875" lon="9.386760930561298"><ele>274.0</ele><time>2026-05-01T10:07:21.999Z</time></trkpt><trkpt lat="46.29981277432875" lon="9.386866435048155"><ele>274.0</ele><time>2026-05-01T10:07:22.999Z</time></trkpt><trkpt lat="46.29995184065397" lon="9.386939875054129"><ele>274.0</ele><time>2026-05-01T10:07:23.999Z</time></trkpt><trkpt lat="46.30016107388277" lon="9.387071386080846"><ele>274.0</ele><time>2026-05-01T10:07:24.999Z</time></trkpt><trkpt lat="46.300369496045306" lon="9.387206542033828"><ele>276.5</ele><time>2026-05-01T10:07:25.999Z</time></trkpt><trkpt lat="46.30058413249818" lon="9.387344133767714"><ele>279.0</ele><time>2026-05-01T10:07:26.999Z</time></trkpt><trkpt lat="46.30080464940387" lon="9.387485275164982"><ele>279.0</ele><time>2026-05-01T10:07:27.999Z</time></trkpt><trkpt lat="46.30102405533843" lon="9.387625815783178"><ele>279.0</ele><time>2026-05-01T10:07:28.999Z</time></trkpt><trkpt lat="46.301249235412804" lon="9.38774902659869"><ele>278.5</ele><time>2026-05-01T10:07:30Z</time></trkpt><trkpt lat="46.30146223542684" lon="9.387889158668667"><ele>278.0</ele><time>2026-05-01T10:07:31Z</time></trkpt><trkpt lat="46.30167864871104" lon="9.388034620452592"><ele>280.0</ele><time>2026-05-01T10:07:32Z</time></trkpt><trkpt lat="46.30189853736317" lon="9.388179439090703"><ele>282.0</ele><time>2026-05-01T10:07:33Z</time></trkpt><trkpt lat="46.30211423999078" lon="9.388328657930119"><ele>283.0</ele><time>2026-05-01T10:07:34Z</time></trkpt><trkpt lat="46.30233589849088" lon="9.388471659396872"><ele>284.0</ele><time>2026-05-01T10:07:35Z</time></trkpt><trkpt lat="46.30255718923038" lon="9.388608651983727"><ele>284.0</ele><time>2026-05-01T10:07:36Z</time></trkpt><trkpt lat="46.302780958795" lon="9.388746891007505"><ele>284.0</ele><time>2026-05-01T10:07:37Z</time></trkpt><trkpt lat="46.30300817733566" lon="9.388879622339083"><ele>285.0</ele><time>2026-05-01T10:07:38Z</time></trkpt><trkpt lat="46.30322691869083" lon="9.389018618995806"><ele>286.0</ele><time>2026-05-01T10:07:39Z</time></trkpt><trkpt lat="46.30344180221288" lon="9.389162381814572"><ele>286.0</ele><time>2026-05-01T10:07:40Z</time></trkpt><trkpt lat="46.30364826010142" lon="9.389306522912248"><ele>286.0</ele><time>2026-05-01T10:07:41Z</time></trkpt><trkpt lat="46.303863546217386" lon="9.389432915302223"><ele>286.5</ele><time>2026-05-01T10:07:42Z</time></trkpt><trkpt lat="46.304090847737584" lon="9.389531902026594"><ele>287.0</ele><time>2026-05-01T10:07:43Z</time></trkpt><trkpt lat="46.30432008804339" lon="9.389608140040552"><ele>289.5</ele><time>2026-05-01T10:07:44Z</time></trkpt><trkpt lat="46.304549096848234" lon="9.389678049360382"><ele>292.0</ele><time>2026-05-01T10:07:45Z</time></trkpt><trkpt lat="46.30478051794786" lon="9.389745218557518"><ele>292.0</ele><time>2026-05-01T10:07:46Z</time></trkpt><trkpt lat="46.3050028432475" lon="9.389858700036909"><ele>292.0</ele><time>2026-05-01T10:07:47Z</time></trkpt><trkpt lat="46.305220890821914" lon="9.389983866475307"><ele>292.0</ele><time>2026-05-01T10:07:48Z</time></trkpt><trkpt lat="46.30543684108888" lon="9.390122965971365"><ele>292.0</ele><time>2026-05-01T10:07:49Z</time></trkpt><trkpt lat="46.305649707327944" lon="9.390271748126494"><ele>293.5</ele><time>2026-05-01T10:07:50Z</time></trkpt><trkpt lat="46.30585783256138" lon="9.390434456047771"><ele>295.0</ele><time>2026-05-01T10:07:51Z</time></trkpt><trkpt lat="46.306060241308096" lon="9.390609605878952"><ele>295.0</ele><time>2026-05-01T10:07:52Z</time></trkpt><trkpt lat="46.306247273205024" lon="9.390775884635248"><ele>295.0</ele><time>2026-05-01T10:07:53Z</time></trkpt><trkpt lat="46.30642318860626" lon="9.390940534040345"><ele>295.0</ele><time>2026-05-01T10:07:54Z</time></trkpt><trkpt lat="46.3065840958986" lon="9.391100587956563"><ele>294.66666666666663</ele><time>2026-05-01T10:07:55Z</time></trkpt><trkpt lat="46.30676129989774" lon="9.391272044827085"><ele>294.3333333333333</ele><time>2026-05-01T10:07:56Z</time></trkpt><trkpt lat="46.30693423121485" lon="9.391439133789179"><ele>294.0</ele><time>2026-05-01T10:07:57Z</time></trkpt><trkpt lat="46.307127744598084" lon="9.391615751263288"><ele>292.0</ele><time>2026-05-01T10:07:58Z</time></trkpt><trkpt lat="46.30733249142465" lon="9.391821801930496"><ele>290.0</ele><time>2026-05-01T10:07:59Z</time></trkpt><trkpt lat="46.307471366674974" lon="9.39194611728832"><ele>288.0</ele><time>2026-05-01T10:08:00Z</time></trkpt><trkpt lat="46.30763125549845" lon="9.392103611933388"><ele>288.0</ele><time>2026-05-01T10:08:01Z</time></trkpt><trkpt lat="46.307786752483004" lon="9.392263780872806"><ele>288.0</ele><time>2026-05-01T10:08:02Z</time></trkpt><trkpt lat="46.307940292937786" lon="9.392441392887632"><ele>288.0</ele><time>2026-05-01T10:08:03Z</time></trkpt><trkpt lat="46.308084165094265" lon="9.392649595853097"><ele>288.0</ele><time>2026-05-01T10:08:04Z</time></trkpt><trkpt lat="46.30820499805034" lon="9.392895531306577"><ele>288.0</ele><time>2026-05-01T10:08:05Z</time></trkpt><trkpt lat="46.30830477629079" lon="9.393164306894882"><ele>288.0</ele><time>2026-05-01T10:08:06Z</time></trkpt><trkpt lat="46.308375536834724" lon="9.39336128104442"><ele>289.3333333333333</ele><time>2026-05-01T10:08:07Z</time></trkpt><trkpt lat="46.30842362439329" lon="9.39352403814356"><ele>290.66666666666663</ele><time>2026-05-01T10:08:08Z</time></trkpt><trkpt lat="46.30848673845761" lon="9.393714363048261"><ele>292.0</ele><time>2026-05-01T10:08:09Z</time></trkpt><trkpt lat="46.30859166098694" lon="9.39407493797762"><ele>292.75</ele><time>2026-05-01T10:08:10Z</time></trkpt><trkpt lat="46.30866825197842" lon="9.394277689853778"><ele>293.5</ele><time>2026-05-01T10:08:11Z</time></trkpt><trkpt lat="46.30872734728622" lon="9.394456991186901"><ele>294.25</ele><time>2026-05-01T10:08:12Z</time></trkpt><trkpt lat="46.308787057738634" lon="9.394623333173113"><ele>295.0</ele><time>2026-05-01T10:08:13Z</time></trkpt><trkpt lat="46.30884331599816" lon="9.394775689206687"><ele>295.75</ele><time>2026-05-01T10:08:14Z</time></trkpt><trkpt lat="46.30889699166621" lon="9.39492520268658"><ele>296.5</ele><time>2026-05-01T10:08:15Z</time></trkpt><trkpt lat="46.30895403950671" lon="9.395076065480481"><ele>297.25</ele><time>2026-05-01T10:08:16Z</time></trkpt><trkpt lat="46.30902013076708" lon="9.395232619893177"><ele>298.0</ele><time>2026-05-01T10:08:17Z</time></trkpt><trkpt lat="46.309095480452584" lon="9.395377245637112"><ele>297.25</ele><time>2026-05-01T10:08:18Z</time></trkpt><trkpt lat="46.309174714381804" lon="9.395516875978831"><ele>296.5</ele><time>2026-05-01T10:08:19Z</time></trkpt><trkpt lat="46.30926697498971" lon="9.39565323963243"><ele>295.75</ele><time>2026-05-01T10:08:20Z</time></trkpt><trkpt lat="46.30937058691008" lon="9.39576943080796"><ele>295.0</ele><time>2026-05-01T10:08:21Z</time></trkpt><trkpt lat="46.30948729640714" lon="9.395875229106956"><ele>295.0</ele><time>2026-05-01T10:08:22Z</time></trkpt><trkpt lat="46.30961231635626" lon="9.395975436821388"><ele>295.0</ele><time>2026-05-01T10:08:23Z</time></trkpt><trkpt lat="46.309739969094615" lon="9.39606149346447"><ele>295.0</ele><time>2026-05-01T10:08:24Z</time></trkpt><trkpt lat="46.3098571986443" lon="9.39612407140486"><ele>295.0</ele><time>2026-05-01T10:08:25Z</time></trkpt><trkpt lat="46.30997013951673" lon="9.396172346512095"><ele>295.0</ele><time>2026-05-01T10:08:26Z</time></trkpt><trkpt lat="46.310085637842185" lon="9.396215328707545"><ele>295.0</ele><time>2026-05-01T10:08:27Z</time></trkpt><trkpt lat="46.310190304013304" lon="9.396251969443545"><ele>295.0</ele><time>2026-05-01T10:08:28Z</time></trkpt><trkpt lat="46.31030059553718" lon="9.396290860353592"><ele>295.0</ele><time>2026-05-01T10:08:29Z</time></trkpt><trkpt lat="46.31039894357252" lon="9.396326417373329"><ele>295.0</ele><time>2026-05-01T10:08:30Z</time></trkpt><trkpt lat="46.310483624808334" lon="9.396362163334855"><ele>295.00000000000006</ele><time>2026-05-01T10:08:30.999Z</time></trkpt><trkpt lat="46.310560738143344" lon="9.396395030336961"><ele>295.0</ele><time>2026-05-01T10:08:31.999Z</time></trkpt><trkpt lat="46.31063223207761" lon="9.396439925472603"><ele>295.0</ele><time>2026-05-01T10:08:32.999Z</time></trkpt><trkpt lat="46.31068470945519" lon="9.396511674756816"><ele>295.0</ele><time>2026-05-01T10:08:33.999Z</time></trkpt><trkpt lat="46.310727268784326" lon="9.396591632528338"><ele>295.0</ele><time>2026-05-01T10:08:34.999Z</time></trkpt><trkpt lat="46.310775710085984" lon="9.39666283501267"><ele>295.00000000000006</ele><time>2026-05-01T10:08:35.999Z</time></trkpt><trkpt lat="46.31084485425656" lon="9.396719198789901"><ele>295.0</ele><time>2026-05-01T10:08:36.999Z</time></trkpt><trkpt lat="46.31093998769549" lon="9.39669832697739"><ele>294.5</ele><time>2026-05-01T10:08:37.999Z</time></trkpt><trkpt lat="46.31102874502436" lon="9.396646141920277"><ele>294.0</ele><time>2026-05-01T10:08:38.999Z</time></trkpt><trkpt lat="46.31112433313988" lon="9.396605679062004"><ele>293.5</ele><time>2026-05-01T10:08:39.999Z</time></trkpt><trkpt lat="46.31122505790828" lon="9.396774211134073"><ele>293.0</ele><time>2026-05-01T10:08:40.999Z</time></trkpt><trkpt lat="46.3113170512524" lon="9.396645789148595"><ele>293.4</ele><time>2026-05-01T10:08:41.999Z</time></trkpt><trkpt lat="46.311411946503995" lon="9.396688232361502"><ele>293.8</ele><time>2026-05-01T10:08:42.999Z</time></trkpt><trkpt lat="46.31151245252649" lon="9.396729242328355"><ele>294.2</ele><time>2026-05-01T10:08:43.999Z</time></trkpt><trkpt lat="46.31161422642769" lon="9.39676584522851"><ele>294.6</ele><time>2026-05-01T10:08:44.999Z</time></trkpt><trkpt lat="46.311721455414826" lon="9.396805844112608"><ele>295.0</ele><time>2026-05-01T10:08:45.999Z</time></trkpt><trkpt lat="46.31182590159078" lon="9.396845979014715"><ele>295.0</ele><time>2026-05-01T10:08:46.999Z</time></trkpt><trkpt lat="46.31193840718094" lon="9.396887783588237"><ele>295.0</ele><time>2026-05-01T10:08:47.999Z</time></trkpt><trkpt lat="46.31205164729635" lon="9.39693047630243"><ele>295.0</ele><time>2026-05-01T10:08:48.999Z</time></trkpt><trkpt lat="46.312160265614686" lon="9.396970434735316"><ele>295.0</ele><time>2026-05-01T10:08:49.999Z</time></trkpt><trkpt lat="46.312259961540185" lon="9.39700642285391"><ele>295.0</ele><time>2026-05-01T10:08:50.999Z</time></trkpt><trkpt lat="46.31235570796733" lon="9.397038411329534"><ele>294.8333333333333</ele><time>2026-05-01T10:08:51.999Z</time></trkpt><trkpt lat="46.312444026258156" lon="9.397073681650161"><ele>294.66666666666663</ele><time>2026-05-01T10:08:52.999Z</time></trkpt><trkpt lat="46.31252537588815" lon="9.397108423684788"><ele>294.5</ele><time>2026-05-01T10:08:53.999Z</time></trkpt><trkpt lat="46.31260060670291" lon="9.39713839538793"><ele>294.3333333333333</ele><time>2026-05-01T10:08:54.999Z</time></trkpt><trkpt lat="46.31268299904042" lon="9.39716839614275"><ele>294.1666666666667</ele><time>2026-05-01T10:08:55.999Z</time></trkpt><trkpt lat="46.312772341728305" lon="9.397199927570467"><ele>294.0</ele><time>2026-05-01T10:08:56.999Z</time></trkpt><trkpt lat="46.31286260724642" lon="9.397231999039318"><ele>294.8</ele><time>2026-05-01T10:08:57.999Z</time></trkpt><trkpt lat="46.31295271535934" lon="9.397263246333273"><ele>295.59999999999997</ele><time>2026-05-01T10:08:58.999Z</time></trkpt><trkpt lat="46.3130485044057" lon="9.397295884703482"><ele>296.4</ele><time>2026-05-01T10:08:59.999Z</time></trkpt><trkpt lat="46.31314944661511" lon="9.397335236394936"><ele>297.2</ele><time>2026-05-01T10:09:00.999Z</time></trkpt><trkpt lat="46.313263162192975" lon="9.397371996212348"><ele>298.0</ele><time>2026-05-01T10:09:01.999Z</time></trkpt><trkpt lat="46.313373411786564" lon="9.397415467493227"><ele>298.0</ele><time>2026-05-01T10:09:02.999Z</time></trkpt><trkpt lat="46.313484926015654" lon="9.397463847175956"><ele>298.0</ele><time>2026-05-01T10:09:03.999Z</time></trkpt><trkpt lat="46.3136081445617" lon="9.3975072955761"><ele>298.0</ele><time>2026-05-01T10:09:04.999Z</time></trkpt><trkpt lat="46.31370749611229" lon="9.397549285967397"><ele>298.0</ele><time>2026-05-01T10:09:05.999Z</time></trkpt><trkpt lat="46.31379535678279" lon="9.397605820632402"><ele>298.0</ele><time>2026-05-01T10:09:06.999Z</time></trkpt><trkpt lat="46.31396087992775" lon="9.39763799463289"><ele>298.0</ele><time>2026-05-01T10:09:07.999Z</time></trkpt><trkpt lat="46.31408893701045" lon="9.39768393603387"><ele>298.0</ele><time>2026-05-01T10:09:08.999Z</time></trkpt><trkpt lat="46.3142166147139" lon="9.397727915396962"><ele>298.0</ele><time>2026-05-01T10:09:09.999Z</time></trkpt><trkpt lat="46.31433041728707" lon="9.39776934798538"><ele>298.0</ele><time>2026-05-01T10:09:10.999Z</time></trkpt><trkpt lat="46.31442524327781" lon="9.397806626666062"><ele>298.0</ele><time>2026-05-01T10:09:11.999Z</time></trkpt><trkpt lat="46.314513650121754" lon="9.397845473069635"><ele>298.0</ele><time>2026-05-01T10:09:12.999Z</time></trkpt><trkpt lat="46.31459566807791" lon="9.397875367501914"><ele>298.0</ele><time>2026-05-01T10:09:13.999Z</time></trkpt><trkpt lat="46.31466977594342" lon="9.397899651119875"><ele>298.0</ele><time>2026-05-01T10:09:14.999Z</time></trkpt><trkpt lat="46.31473760796158" lon="9.397938650482981"><ele>298.0</ele><time>2026-05-01T10:09:15.999Z</time></trkpt><trkpt lat="46.314811253462395" lon="9.397966921607496"><ele>298.0</ele><time>2026-05-01T10:09:16.999Z</time></trkpt><trkpt lat="46.31489353638872" lon="9.39800226829875"><ele>298.2</ele><time>2026-05-01T10:09:17.999Z</time></trkpt><trkpt lat="46.314984380201174" lon="9.398032796355285"><ele>298.4</ele><time>2026-05-01T10:09:18.999Z</time></trkpt><trkpt lat="46.315079775507414" lon="9.398061483415567"><ele>298.59999999999997</ele><time>2026-05-01T10:09:19.999Z</time></trkpt><trkpt lat="46.315169661231586" lon="9.398091398088383"><ele>298.8</ele><time>2026-05-01T10:09:20.999Z</time></trkpt><trkpt lat="46.31525833537186" lon="9.398127292122401"><ele>299.0</ele><time>2026-05-01T10:09:21.999Z</time></trkpt><trkpt lat="46.3153479286716" lon="9.398167735034539"><ele>299.0</ele><time>2026-05-01T10:09:22.999Z</time></trkpt><trkpt lat="46.31544554097684" lon="9.39821361400683"><ele>299.0</ele><time>2026-05-01T10:09:23.999Z</time></trkpt><trkpt lat="46.315543690668854" lon="9.398260275150335"><ele>299.0</ele><time>2026-05-01T10:09:24.999Z</time></trkpt><trkpt lat="46.31564304800006" lon="9.39830671369811"><ele>299.0</ele><time>2026-05-01T10:09:25.999Z</time></trkpt><trkpt lat="46.31574001547633" lon="9.398363912968321"><ele>299.0</ele><time>2026-05-01T10:09:26.999Z</time></trkpt><trkpt lat="46.31583496338187" lon="9.39842257512148"><ele>300.0</ele><time>2026-05-01T10:09:27.999Z</time></trkpt><trkpt lat="46.315934475844244" lon="9.398487962331231"><ele>301.0</ele><time>2026-05-01T10:09:28.999Z</time></trkpt><trkpt lat="46.316034476832144" lon="9.398554599236098"><ele>302.0</ele><time>2026-05-01T10:09:29.999Z</time></trkpt><trkpt lat="46.316140758277925" lon="9.398627970539902"><ele>303.0</ele><time>2026-05-01T10:09:30.999Z</time></trkpt><trkpt lat="46.31624439771179" lon="9.398702030477097"><ele>303.0</ele><time>2026-05-01T10:09:31.999Z</time></trkpt><trkpt lat="46.316329665296834" lon="9.3987798629998"><ele>303.0</ele><time>2026-05-01T10:09:32.999Z</time></trkpt><trkpt lat="46.31634766191536" lon="9.398895287795838"><ele>303.0</ele><time>2026-05-01T10:09:33.999Z</time></trkpt><trkpt lat="46.31642645608757" lon="9.398980806334869"><ele>303.0</ele><time>2026-05-01T10:09:34.999Z</time></trkpt><trkpt lat="46.31655229943267" lon="9.399099511880861"><ele>303.0</ele><time>2026-05-01T10:09:36Z</time></trkpt><trkpt lat="46.31673770092997" lon="9.399216482883554"><ele>307.0</ele><time>2026-05-01T10:09:37Z</time></trkpt><trkpt lat="46.31691261911872" lon="9.39931165439547"><ele>311.0</ele><time>2026-05-01T10:09:38Z</time></trkpt><trkpt lat="46.317053206956594" lon="9.399440715244838"><ele>315.0</ele><time>2026-05-01T10:09:39Z</time></trkpt><trkpt lat="46.31715619522991" lon="9.399518646010556"><ele>315.0</ele><time>2026-05-01T10:09:40Z</time></trkpt><trkpt lat="46.31722062143165" lon="9.399616250723344"><ele>315.0</ele><time>2026-05-01T10:09:41Z</time></trkpt><trkpt lat="46.31732082053541" lon="9.399684348158482"><ele>315.0</ele><time>2026-05-01T10:09:42Z</time></trkpt><trkpt lat="46.31741066293729" lon="9.39973573062055"><ele>315.0</ele><time>2026-05-01T10:09:43Z</time></trkpt><trkpt lat="46.31749170534839" lon="9.399769875572147"><ele>315.0</ele><time>2026-05-01T10:09:44Z</time></trkpt><trkpt lat="46.31756759075975" lon="9.39979824439215"><ele>316.4</ele><time>2026-05-01T10:09:45Z</time></trkpt><trkpt lat="46.317644098516425" lon="9.39982520659502"><ele>317.8</ele><time>2026-05-01T10:09:46Z</time></trkpt><trkpt lat="46.31771303220815" lon="9.399840085998946"><ele>319.20000000000005</ele><time>2026-05-01T10:09:47Z</time></trkpt><trkpt lat="46.317815583954534" lon="9.39988425190967"><ele>320.6</ele><time>2026-05-01T10:09:49Z</time></trkpt><trkpt lat="46.31791225374746" lon="9.399894638996098"><ele>322.0</ele><time>2026-05-01T10:09:53Z</time></trkpt><trkpt lat="46.31802205438958" lon="9.399886229933728"><ele>322.3333333333333</ele><time>2026-05-01T10:09:55Z</time></trkpt><trkpt lat="46.3181262297155" lon="9.399885143037313"><ele>322.66666666666663</ele><time>2026-05-01T10:09:57Z</time></trkpt><trkpt lat="46.3181968563239" lon="9.39987463180458"><ele>323.0</ele><time>2026-05-01T10:09:59Z</time></trkpt><trkpt lat="46.318269317687566" lon="9.399883484410996"><ele>323.3333333333333</ele><time>2026-05-01T10:10:01Z</time></trkpt><trkpt lat="46.31834880996848" lon="9.399910779734448"><ele>323.6666666666667</ele><time>2026-05-01T10:10:03Z</time></trkpt><trkpt lat="46.318407762950976" lon="9.399943248957833"><ele>324.0</ele><time>2026-05-01T10:10:05Z</time></trkpt><trkpt lat="46.31848475705241" lon="9.399980459243567"><ele>324.0</ele><time>2026-05-01T10:10:08Z</time></trkpt><trkpt lat="46.318561864552095" lon="9.399969769026372"><ele>324.0</ele><time>2026-05-01T10:10:11Z</time></trkpt><trkpt lat="46.31860809640368" lon="9.399832265282413"><ele>324.0</ele><time>2026-05-01T10:10:14Z</time></trkpt><trkpt lat="46.31864548567758" lon="9.399730728302577"><ele>324.0</ele><time>2026-05-01T10:10:17Z</time></trkpt><trkpt lat="46.31868937845023" lon="9.399653056097657"><ele>324.0</ele><time>2026-05-01T10:10:20Z</time></trkpt><trkpt lat="46.318775937400936" lon="9.39959408934926"><ele>324.0</ele><time>2026-05-01T10:10:23Z</time></trkpt><trkpt lat="46.31885498663078" lon="9.399501712574788"><ele>323.2857142857143</ele><time>2026-05-01T10:10:25Z</time></trkpt><trkpt lat="46.318908018980075" lon="9.399451720464718"><ele>322.57142857142856</ele><time>2026-05-01T10:10:26Z</time></trkpt><trkpt lat="46.31896869279608" lon="9.39939846728668"><ele>321.8571428571429</ele><time>2026-05-01T10:10:27Z</time></trkpt><trkpt lat="46.31903258248315" lon="9.399346105088163"><ele>321.1428571428571</ele><time>2026-05-01T10:10:28Z</time></trkpt><trkpt lat="46.3190901439835" lon="9.399308195821067"><ele>320.4285714285714</ele><time>2026-05-01T10:10:29Z</time></trkpt><trkpt lat="46.319151231245684" lon="9.399255556756286"><ele>319.7142857142857</ele><time>2026-05-01T10:10:31Z</time></trkpt><trkpt lat="46.31922130806927" lon="9.399193218742553"><ele>319.0</ele><time>2026-05-01T10:10:35Z</time></trkpt><trkpt lat="46.31927493513555" lon="9.399142259367615"><ele>319.0</ele><time>2026-05-01T10:10:37Z</time></trkpt><trkpt lat="46.319357553666244" lon="9.399056298815866"><ele>319.0</ele><time>2026-05-01T10:10:39Z</time></trkpt><trkpt lat="46.31946424001244" lon="9.398965432552341"><ele>319.0</ele><time>2026-05-01T10:10:41Z</time></trkpt><trkpt lat="46.319520395009704" lon="9.39891775910843"><ele>319.0</ele><time>2026-05-01T10:10:42Z</time></trkpt><trkpt lat="46.319583409658485" lon="9.398875048587408"><ele>319.0</ele><time>2026-05-01T10:10:43Z</time></trkpt><trkpt lat="46.31964294659026" lon="9.398828099948176"><ele>319.0</ele><time>2026-05-01T10:10:44Z</time></trkpt><trkpt lat="46.31969959586252" lon="9.398778323249534"><ele>320.0</ele><time>2026-05-01T10:10:45Z</time></trkpt><trkpt lat="46.31975895036056" lon="9.398730971855585"><ele>321.0</ele><time>2026-05-01T10:10:46Z</time></trkpt><trkpt lat="46.319817420714024" lon="9.398678166351218"><ele>322.0</ele><time>2026-05-01T10:10:46.999Z</time></trkpt><trkpt lat="46.319876504234394" lon="9.398629703650673"><ele>323.0</ele><time>2026-05-01T10:10:47.999Z</time></trkpt><trkpt lat="46.31993697069029" lon="9.398574332716503"><ele>324.0</ele><time>2026-05-01T10:10:48.999Z</time></trkpt><trkpt lat="46.32000160527517" lon="9.398506419653808"><ele>325.0</ele><time>2026-05-01T10:10:49.999Z</time></trkpt><trkpt lat="46.32008702799793" lon="9.398417227056598"><ele>325.0</ele><time>2026-05-01T10:10:50.999Z</time></trkpt><trkpt lat="46.32023371505564" lon="9.398312873254891"><ele>325.0</ele><time>2026-05-01T10:10:51.999Z</time></trkpt><trkpt lat="46.320388605792495" lon="9.398176887971427"><ele>325.0</ele><time>2026-05-01T10:10:52.999Z</time></trkpt><trkpt lat="46.32028389899736" lon="9.398268816817932"><ele>325.0</ele><time>2026-05-01T10:10:53.999Z</time></trkpt><trkpt lat="46.32034115489745" lon="9.398218547512839"><ele>325.0</ele><time>2026-05-01T10:10:54.999Z</time></trkpt><trkpt lat="46.32040346270057" lon="9.398163844318574"><ele>325.0</ele><time>2026-05-01T10:10:55.999Z</time></trkpt><trkpt lat="46.320468384461094" lon="9.398106845932658"><ele>325.0</ele><time>2026-05-01T10:10:56.999Z</time></trkpt><trkpt lat="46.32052587975064" lon="9.398042544065747"><ele>325.0</ele><time>2026-05-01T10:10:57.999Z</time></trkpt><trkpt lat="46.32060661912688" lon="9.3979715741328"><ele>325.0</ele><time>2026-05-01T10:10:59.999Z</time></trkpt><trkpt lat="46.32067074759591" lon="9.397924525979368"><ele>325.2</ele><time>2026-05-01T10:11:07.999Z</time></trkpt><trkpt lat="46.32075684128622" lon="9.39784793096394"><ele>325.4</ele><time>2026-05-01T10:11:09.999Z</time></trkpt><trkpt lat="46.320853199850966" lon="9.397821190272577"><ele>325.6</ele><time>2026-05-01T10:11:11.999Z</time></trkpt><trkpt lat="46.320947104033394" lon="9.397801135478394"><ele>325.8</ele><time>2026-05-01T10:11:13.999Z</time></trkpt><trkpt lat="46.32105802259343" lon="9.397762651677292"><ele>326.0</ele><time>2026-05-01T10:11:15.999Z</time></trkpt><trkpt lat="46.321124526047356" lon="9.39777301325556"><ele>326.0</ele><time>2026-05-01T10:11:16.999Z</time></trkpt><trkpt lat="46.32119355306368" lon="9.397811669799655"><ele>326.0</ele><time>2026-05-01T10:11:17.999Z</time></trkpt><trkpt lat="46.32127216517087" lon="9.397844227650946"><ele>326.0</ele><time>2026-05-01T10:11:18.999Z</time></trkpt><trkpt lat="46.321348858209085" lon="9.397882034844802"><ele>326.0</ele><time>2026-05-01T10:11:19.999Z</time></trkpt><trkpt lat="46.32143164337222" lon="9.397898630607171"><ele>326.0</ele><time>2026-05-01T10:11:20.999Z</time></trkpt><trkpt lat="46.32157034512533" lon="9.398006610469817"><ele>326.25</ele><time>2026-05-01T10:11:22.999Z</time></trkpt><trkpt lat="46.321671941689296" lon="9.398131452859424"><ele>326.5</ele><time>2026-05-01T10:11:23.999Z</time></trkpt><trkpt lat="46.32175544114439" lon="9.398206356160857"><ele>326.75</ele><time>2026-05-01T10:11:24.999Z</time></trkpt><trkpt lat="46.32184763845809" lon="9.398292694807092"><ele>327.0</ele><time>2026-05-01T10:11:25.999Z</time></trkpt><trkpt lat="46.32194122263735" lon="9.398394925147059"><ele>327.0</ele><time>2026-05-01T10:11:26.999Z</time></trkpt><trkpt lat="46.3220330588968" lon="9.398504576400363"><ele>327.0</ele><time>2026-05-01T10:11:27.999Z</time></trkpt><trkpt lat="46.322121110284826" lon="9.398659360929443"><ele>327.0</ele><time>2026-05-01T10:11:28.999Z</time></trkpt><trkpt lat="46.322185853856155" lon="9.398813951529503"><ele>327.0</ele><time>2026-05-01T10:11:29.999Z</time></trkpt><trkpt lat="46.32226234692071" lon="9.398917853551737"><ele>329.0</ele><time>2026-05-01T10:11:30.999Z</time></trkpt><trkpt lat="46.322324392522006" lon="9.399063814161478"><ele>331.0</ele><time>2026-05-01T10:11:31.999Z</time></trkpt><trkpt lat="46.32238538312494" lon="9.399225640066694"><ele>333.0</ele><time>2026-05-01T10:11:32.999Z</time></trkpt><trkpt lat="46.322456784171024" lon="9.399397829486498"><ele>335.0</ele><time>2026-05-01T10:11:33.999Z</time></trkpt><trkpt lat="46.322537506819366" lon="9.399566492143565"><ele>334.0</ele><time>2026-05-01T10:11:34.999Z</time></trkpt><trkpt lat="46.322605855222065" lon="9.399734275764548"><ele>333.0</ele><time>2026-05-01T10:11:35.999Z</time></trkpt><trkpt lat="46.322677828893056" lon="9.399905603489144"><ele>332.0</ele><time>2026-05-01T10:11:36.999Z</time></trkpt><trkpt lat="46.32275710432046" lon="9.400110648288086"><ele>331.0</ele><time>2026-05-01T10:11:37.999Z</time></trkpt><trkpt lat="46.32284326062381" lon="9.400336902603984"><ele>329.5</ele><time>2026-05-01T10:11:38.999Z</time></trkpt><trkpt lat="46.32295651311006" lon="9.400576743374199"><ele>328.0</ele><time>2026-05-01T10:11:39.999Z</time></trkpt><trkpt lat="46.322974660043926" lon="9.400669505598746"><ele>326.5</ele><time>2026-05-01T10:11:40.999Z</time></trkpt><trkpt lat="46.323038038237186" lon="9.400824928766202"><ele>325.0</ele><time>2026-05-01T10:11:41.999Z</time></trkpt><trkpt lat="46.3230930269983" lon="9.400950424998712"><ele>325.5</ele><time>2026-05-01T10:11:42.999Z</time></trkpt><trkpt lat="46.323138085295135" lon="9.401060606684178"><ele>326.0</ele><time>2026-05-01T10:11:43.999Z</time></trkpt><trkpt lat="46.32317531994215" lon="9.40116326411645"><ele>326.5</ele><time>2026-05-01T10:11:44.999Z</time></trkpt><trkpt lat="46.32321785722443" lon="9.401246791004667"><ele>327.0</ele><time>2026-05-01T10:11:45.999Z</time></trkpt><trkpt lat="46.323255600078845" lon="9.401343310076758"><ele>327.5</ele><time>2026-05-01T10:11:46.999Z</time></trkpt><trkpt lat="46.323301701735886" lon="9.401455013729493"><ele>328.0</ele><time>2026-05-01T10:11:47.999Z</time></trkpt><trkpt lat="46.32335175255073" lon="9.40157385471197"><ele>328.0</ele><time>2026-05-01T10:11:48.999Z</time></trkpt><trkpt lat="46.32339910225291" lon="9.401690552147086"><ele>328.0</ele><time>2026-05-01T10:11:49.999Z</time></trkpt><trkpt lat="46.323441281867346" lon="9.401798112575852"><ele>328.0</ele><time>2026-05-01T10:11:50.999Z</time></trkpt><trkpt lat="46.32348248750793" lon="9.40189698603106"><ele>328.0</ele><time>2026-05-01T10:11:51.999Z</time></trkpt><trkpt lat="46.32353321124287" lon="9.4020108015084"><ele>328.0</ele><time>2026-05-01T10:11:52.999Z</time></trkpt><trkpt lat="46.323585107042945" lon="9.402154730361655"><ele>327.5</ele><time>2026-05-01T10:11:53.999Z</time></trkpt><trkpt lat="46.323644883113964" lon="9.402313464686843"><ele>327.0</ele><time>2026-05-01T10:11:54.999Z</time></trkpt><trkpt lat="46.32370460496039" lon="9.402468592509994"><ele>326.5</ele><time>2026-05-01T10:11:55.999Z</time></trkpt><trkpt lat="46.3237830440378" lon="9.40265416629691"><ele>326.0</ele><time>2026-05-01T10:11:56.999Z</time></trkpt><trkpt lat="46.323858963724796" lon="9.40284118115377"><ele>327.6666666666667</ele><time>2026-05-01T10:11:57.999Z</time></trkpt><trkpt lat="46.323935050958596" lon="9.40303353720442"><ele>329.3333333333333</ele><time>2026-05-01T10:11:58.999Z</time></trkpt><trkpt lat="46.32401075469593" lon="9.403220628772006"><ele>331.0</ele><time>2026-05-01T10:11:59.999Z</time></trkpt><trkpt lat="46.32408811901545" lon="9.403411465123959"><ele>331.0</ele><time>2026-05-01T10:12:00.999Z</time></trkpt><trkpt lat="46.324192060590725" lon="9.403628862913743"><ele>331.0</ele><time>2026-05-01T10:12:01.999Z</time></trkpt><trkpt lat="46.32425914819941" lon="9.403838140794651"><ele>331.0</ele><time>2026-05-01T10:12:03Z</time></trkpt><trkpt lat="46.324352571744456" lon="9.404083351149973"><ele>331.0</ele><time>2026-05-01T10:12:04Z</time></trkpt><trkpt lat="46.32444754065038" lon="9.40433947735106"><ele>331.0</ele><time>2026-05-01T10:12:05Z</time></trkpt><trkpt lat="46.324551603568" lon="9.40460587712038"><ele>331.0</ele><time>2026-05-01T10:12:06Z</time></trkpt><trkpt lat="46.32466952806612" lon="9.404866341060249"><ele>333.66666666666663</ele><time>2026-05-01T10:12:07Z</time></trkpt><trkpt lat="46.32478079614997" lon="9.405130893406787"><ele>336.3333333333333</ele><time>2026-05-01T10:12:08Z</time></trkpt><trkpt lat="46.32486637247885" lon="9.405385932895921"><ele>339.0</ele><time>2026-05-01T10:12:09Z</time></trkpt><trkpt lat="46.324949928921825" lon="9.405625774577667"><ele>339.0</ele><time>2026-05-01T10:12:10Z</time></trkpt><trkpt lat="46.32503768530403" lon="9.40586449730261"><ele>339.0</ele><time>2026-05-01T10:12:11Z</time></trkpt><trkpt lat="46.32512617290383" lon="9.406101987207702"><ele>339.0</ele><time>2026-05-01T10:12:12Z</time></trkpt><trkpt lat="46.3251990200464" lon="9.406357085925043"><ele>339.3333333333333</ele><time>2026-05-01T10:12:13Z</time></trkpt><trkpt lat="46.325262209911436" lon="9.406628344017602"><ele>339.66666666666663</ele><time>2026-05-01T10:12:14Z</time></trkpt><trkpt lat="46.32532581055132" lon="9.406906250555876"><ele>340.0</ele><time>2026-05-01T10:12:15Z</time></trkpt><trkpt lat="46.325399040755975" lon="9.407180364126024"><ele>340.0</ele><time>2026-05-01T10:12:16Z</time></trkpt><trkpt lat="46.325463109911645" lon="9.40743542841165"><ele>340.0</ele><time>2026-05-01T10:12:17Z</time></trkpt><trkpt lat="46.325543363121696" lon="9.407674966325523"><ele>340.0</ele><time>2026-05-01T10:12:18Z</time></trkpt><trkpt lat="46.325646866035456" lon="9.407886779972465"><ele>342.0</ele><time>2026-05-01T10:12:19Z</time></trkpt><trkpt lat="46.325789164301696" lon="9.408080513534752"><ele>344.0</ele><time>2026-05-01T10:12:20Z</time></trkpt><trkpt lat="46.32594351840761" lon="9.40825571620642"><ele>346.0</ele><time>2026-05-01T10:12:21Z</time></trkpt><trkpt lat="46.326084719130954" lon="9.408395309126513"><ele>346.0</ele><time>2026-05-01T10:12:22Z</time></trkpt><trkpt lat="46.32624247927785" lon="9.408502064180471"><ele>346.0</ele><time>2026-05-01T10:12:23Z</time></trkpt><trkpt lat="46.32642929982368" lon="9.408564095413107"><ele>346.0</ele><time>2026-05-01T10:12:24Z</time></trkpt><trkpt lat="46.32662889511026" lon="9.408615120591321"><ele>347.3333333333333</ele><time>2026-05-01T10:12:25Z</time></trkpt><trkpt lat="46.32681243532233" lon="9.408712862255934"><ele>348.6666666666667</ele><time>2026-05-01T10:12:26Z</time></trkpt><trkpt lat="46.32695886532854" lon="9.408867406203804"><ele>350.0</ele><time>2026-05-01T10:12:26.999Z</time></trkpt><trkpt lat="46.32705678976436" lon="9.409097573185027"><ele>350.0</ele><time>2026-05-01T10:12:27.999Z</time></trkpt><trkpt lat="46.32714975874982" lon="9.409358589867594"><ele>350.0</ele><time>2026-05-01T10:12:28.999Z</time></trkpt><trkpt lat="46.32724613220837" lon="9.40962904977018"><ele>350.0</ele><time>2026-05-01T10:12:29.999Z</time></trkpt><trkpt lat="46.327307738317984" lon="9.409882673008825"><ele>355.0</ele><time>2026-05-01T10:12:30.999Z</time></trkpt><trkpt lat="46.327340549870534" lon="9.410128981198978"><ele>360.0</ele><time>2026-05-01T10:12:31.999Z</time></trkpt><trkpt lat="46.32734465977077" lon="9.410395522073717"><ele>365.0</ele><time>2026-05-01T10:12:32.999Z</time></trkpt><trkpt lat="46.327345216128194" lon="9.410677588048053"><ele>365.33333333333337</ele><time>2026-05-01T10:12:33.999Z</time></trkpt><trkpt lat="46.32734203974418" lon="9.410957553039399"><ele>365.6666666666667</ele><time>2026-05-01T10:12:34.999Z</time></trkpt><trkpt lat="46.327346090714016" lon="9.411222363103832"><ele>366.0</ele><time>2026-05-01T10:12:35.999Z</time></trkpt><trkpt lat="46.32734606647398" lon="9.41147324467059"><ele>366.6666666666667</ele><time>2026-05-01T10:12:36.999Z</time></trkpt><trkpt lat="46.32733998959279" lon="9.411725354400788"><ele>367.33333333333337</ele><time>2026-05-01T10:12:37.999Z</time></trkpt><trkpt lat="46.32731374464154" lon="9.411982792076884"><ele>368.0</ele><time>2026-05-01T10:12:38.999Z</time></trkpt><trkpt lat="46.32726371621768" lon="9.412252433457484"><ele>368.0</ele><time>2026-05-01T10:12:39.999Z</time></trkpt><trkpt lat="46.32720274820319" lon="9.412507262595192"><ele>368.0</ele><time>2026-05-01T10:12:40.999Z</time></trkpt><trkpt lat="46.327219344328995" lon="9.41274321605328"><ele>368.0</ele><time>2026-05-01T10:12:41.999Z</time></trkpt><trkpt lat="46.32722819794757" lon="9.412974045980294"><ele>368.5</ele><time>2026-05-01T10:12:42.999Z</time></trkpt><trkpt lat="46.3272330949286" lon="9.413201340778233"><ele>369.0</ele><time>2026-05-01T10:12:43.999Z</time></trkpt><trkpt lat="46.327229546214426" lon="9.413422020661116"><ele>369.5</ele><time>2026-05-01T10:12:44.999Z</time></trkpt><trkpt lat="46.327271948644466" lon="9.413610652915342"><ele>370.0</ele><time>2026-05-01T10:12:45.999Z</time></trkpt><trkpt lat="46.327301693440354" lon="9.413793876124787"><ele>370.0</ele><time>2026-05-01T10:12:46.999Z</time></trkpt><trkpt lat="46.327314966777266" lon="9.413972545432692"><ele>370.0</ele><time>2026-05-01T10:12:47.999Z</time></trkpt><trkpt lat="46.327287817975616" lon="9.414164390847658"><ele>370.0</ele><time>2026-05-01T10:12:48.999Z</time></trkpt><trkpt lat="46.32727101428237" lon="9.414376124743935"><ele>370.0</ele><time>2026-05-01T10:12:49.999Z</time></trkpt><trkpt lat="46.32725301978155" lon="9.414605933374341"><ele>370.3333333333333</ele><time>2026-05-01T10:12:50.999Z</time></trkpt><trkpt lat="46.32723325345056" lon="9.414858890764377"><ele>370.6666666666667</ele><time>2026-05-01T10:12:51.999Z</time></trkpt><trkpt lat="46.32722020960882" lon="9.415135417635208"><ele>371.0</ele><time>2026-05-01T10:12:52.999Z</time></trkpt><trkpt lat="46.3271955742923" lon="9.41541946581229"><ele>369.6666666666667</ele><time>2026-05-01T10:12:53.999Z</time></trkpt><trkpt lat="46.327178613978425" lon="9.415693700187667"><ele>368.3333333333333</ele><time>2026-05-01T10:12:54.999Z</time></trkpt><trkpt lat="46.327161709815876" lon="9.415956780509001"><ele>367.0</ele><time>2026-05-01T10:12:55.999Z</time></trkpt><trkpt lat="46.327144845517665" lon="9.416215273537608"><ele>368.0</ele><time>2026-05-01T10:12:56.999Z</time></trkpt><trkpt lat="46.327127152416764" lon="9.416473441804518"><ele>369.0</ele><time>2026-05-01T10:12:57.999Z</time></trkpt><trkpt lat="46.32712190470357" lon="9.416728471449794"><ele>370.0</ele><time>2026-05-01T10:12:58.999Z</time></trkpt><trkpt lat="46.327130357772205" lon="9.416967140034533"><ele>369.25</ele><time>2026-05-01T10:12:59.999Z</time></trkpt><trkpt lat="46.327149800611394" lon="9.417188745453496"><ele>368.5</ele><time>2026-05-01T10:13:00.999Z</time></trkpt><trkpt lat="46.32716302664595" lon="9.417401465903838"><ele>367.75</ele><time>2026-05-01T10:13:01.999Z</time></trkpt><trkpt lat="46.32718130652126" lon="9.417576797990016"><ele>367.0</ele><time>2026-05-01T10:13:02.999Z</time></trkpt><trkpt lat="46.327194748799855" lon="9.41775072897185"><ele>367.0</ele><time>2026-05-01T10:13:03.999Z</time></trkpt><trkpt lat="46.32720074185316" lon="9.41792045202749"><ele>367.0</ele><time>2026-05-01T10:13:04.999Z</time></trkpt><trkpt lat="46.32721154972671" lon="9.418077352764552"><ele>367.0</ele><time>2026-05-01T10:13:05.999Z</time></trkpt><trkpt lat="46.32721991746162" lon="9.418225336747001"><ele>367.0</ele><time>2026-05-01T10:13:06.999Z</time></trkpt><trkpt lat="46.32722963333466" lon="9.418367824792492"><ele>367.0</ele><time>2026-05-01T10:13:07.999Z</time></trkpt><trkpt lat="46.32724491599864" lon="9.418508260555658"><ele>369.0</ele><time>2026-05-01T10:13:08.999Z</time></trkpt><trkpt lat="46.327252750775365" lon="9.41865721773668"><ele>371.0</ele><time>2026-05-01T10:13:09.999Z</time></trkpt><trkpt lat="46.327260902837935" lon="9.418813216947276"><ele>373.0</ele><time>2026-05-01T10:13:10.999Z</time></trkpt><trkpt lat="46.327270276472674" lon="9.418967971726058"><ele>375.0</ele><time>2026-05-01T10:13:11.999Z</time></trkpt><trkpt lat="46.327284138793615" lon="9.419119495506843"><ele>377.0</ele><time>2026-05-01T10:13:12.999Z</time></trkpt><trkpt lat="46.3272945542854" lon="9.419275968688932"><ele>377.0</ele><time>2026-05-01T10:13:13.999Z</time></trkpt><trkpt lat="46.32730627430861" lon="9.419437820087499"><ele>377.0</ele><time>2026-05-01T10:13:14.999Z</time></trkpt><trkpt lat="46.32731545051686" lon="9.419605134362207"><ele>377.0</ele><time>2026-05-01T10:13:15.999Z</time></trkpt><trkpt lat="46.32732491734699" lon="9.419776245381628"><ele>377.0</ele><time>2026-05-01T10:13:16.999Z</time></trkpt><trkpt lat="46.32733553261765" lon="9.41995379109169"><ele>377.25</ele><time>2026-05-01T10:13:17.999Z</time></trkpt><trkpt lat="46.32734300709911" lon="9.420134560229828"><ele>377.5</ele><time>2026-05-01T10:13:18.999Z</time></trkpt><trkpt lat="46.32735546664989" lon="9.420318250755642"><ele>377.75</ele><time>2026-05-01T10:13:19.999Z</time></trkpt><trkpt lat="46.32735205317286" lon="9.420519313782574"><ele>378.0</ele><time>2026-05-01T10:13:20.999Z</time></trkpt><trkpt lat="46.32732648049868" lon="9.420732419649562"><ele>378.0</ele><time>2026-05-01T10:13:21.999Z</time></trkpt><trkpt lat="46.327285758512026" lon="9.42092934836257"><ele>378.0</ele><time>2026-05-01T10:13:22.999Z</time></trkpt><trkpt lat="46.32724666032132" lon="9.421133962398162"><ele>378.0</ele><time>2026-05-01T10:13:23.999Z</time></trkpt><trkpt lat="46.32720428877636" lon="9.421323243870065"><ele>378.0</ele><time>2026-05-01T10:13:24.999Z</time></trkpt><trkpt lat="46.32716579591999" lon="9.421495097677104"><ele>377.59999999999997</ele><time>2026-05-01T10:13:25.999Z</time></trkpt><trkpt lat="46.32712098656186" lon="9.421647608209783"><ele>377.2</ele><time>2026-05-01T10:13:26.999Z</time></trkpt><trkpt lat="46.32709273918635" lon="9.421816558478355"><ele>376.8</ele><time>2026-05-01T10:13:27.999Z</time></trkpt><trkpt lat="46.327061088846996" lon="9.421962457651544"><ele>376.4</ele><time>2026-05-01T10:13:28.999Z</time></trkpt><trkpt lat="46.32703299645818" lon="9.422094920262602"><ele>376.0</ele><time>2026-05-01T10:13:29.999Z</time></trkpt><trkpt lat="46.32700056417196" lon="9.422217378574931"><ele>376.8</ele><time>2026-05-01T10:13:30.999Z</time></trkpt><trkpt lat="46.32696685629169" lon="9.422335883499239"><ele>377.6</ele><time>2026-05-01T10:13:31.999Z</time></trkpt><trkpt lat="46.3269241362443" lon="9.4224582760914"><ele>378.4</ele><time>2026-05-01T10:13:32.999Z</time></trkpt><trkpt lat="46.326869434789565" lon="9.422592072459082"><ele>379.2</ele><time>2026-05-01T10:13:33.999Z</time></trkpt><trkpt lat="46.32679940998317" lon="9.422730999691094"><ele>380.0</ele><time>2026-05-01T10:13:34.999Z</time></trkpt><trkpt lat="46.326719843947984" lon="9.42285796503752"><ele>380.0</ele><time>2026-05-01T10:13:35.999Z</time></trkpt><trkpt lat="46.32662634132081" lon="9.422979550388343"><ele>380.0</ele><time>2026-05-01T10:13:36.999Z</time></trkpt><trkpt lat="46.32654042131661" lon="9.423096920523863"><ele>380.0</ele><time>2026-05-01T10:13:37.999Z</time></trkpt><trkpt lat="46.32647344929976" lon="9.423210893802413"><ele>380.0</ele><time>2026-05-01T10:13:38.999Z</time></trkpt><trkpt lat="46.326400820459746" lon="9.42332018830582"><ele>379.6666666666667</ele><time>2026-05-01T10:13:39.999Z</time></trkpt><trkpt lat="46.3263249833479" lon="9.42343991939779"><ele>379.3333333333333</ele><time>2026-05-01T10:13:40.999Z</time></trkpt><trkpt lat="46.32623173487198" lon="9.423609762755682"><ele>379.0</ele><time>2026-05-01T10:13:41.999Z</time></trkpt><trkpt lat="46.32610199099171" lon="9.42381901052224"><ele>379.0</ele><time>2026-05-01T10:13:42.999Z</time></trkpt><trkpt lat="46.32600482300857" lon="9.42411569053969"><ele>379.0</ele><time>2026-05-01T10:13:43.999Z</time></trkpt><trkpt lat="46.32610419650808" lon="9.42414969260538"><ele>379.0</ele><time>2026-05-01T10:13:44.999Z</time></trkpt><trkpt lat="46.3260861790815" lon="9.424343918927546"><ele>379.0</ele><time>2026-05-01T10:13:45.999Z</time></trkpt><trkpt lat="46.3260913204831" lon="9.4245585941715"><ele>379.0</ele><time>2026-05-01T10:13:46.999Z</time></trkpt><trkpt lat="46.326106108398285" lon="9.424789485368493"><ele>379.0</ele><time>2026-05-01T10:13:47.999Z</time></trkpt><trkpt lat="46.326113272689376" lon="9.425023534564481"><ele>380.0</ele><time>2026-05-01T10:13:48.999Z</time></trkpt><trkpt lat="46.326111314718254" lon="9.425275435937138"><ele>381.0</ele><time>2026-05-01T10:13:49.999Z</time></trkpt><trkpt lat="46.326116381380174" lon="9.425522775327082"><ele>382.0</ele><time>2026-05-01T10:13:50.999Z</time></trkpt><trkpt lat="46.326120149294745" lon="9.425771603728208"><ele>383.0</ele><time>2026-05-01T10:13:51.999Z</time></trkpt><trkpt lat="46.32612705167586" lon="9.426020740079736"><ele>384.0</ele><time>2026-05-01T10:13:52.999Z</time></trkpt><trkpt lat="46.32612736694546" lon="9.426263230293776"><ele>385.0</ele><time>2026-05-01T10:13:53.999Z</time></trkpt><trkpt lat="46.32613078594056" lon="9.426495922987822"><ele>385.0</ele><time>2026-05-01T10:13:54.999Z</time></trkpt><trkpt lat="46.32613357502347" lon="9.42668549232646"><ele>385.0</ele><time>2026-05-01T10:13:55.999Z</time></trkpt><trkpt lat="46.32613316668306" lon="9.426823723497332"><ele>385.0</ele><time>2026-05-01T10:13:56.999Z</time></trkpt><trkpt lat="46.32611601603211" lon="9.426951812789094"><ele>385.0</ele><time>2026-05-01T10:13:58.999Z</time></trkpt><trkpt lat="46.326138521560104" lon="9.427133898158166"><ele>385.0</ele><time>2026-05-01T10:16:22Z</time></trkpt><trkpt lat="46.32613383158191" lon="9.427247817432171"><ele>385.0</ele><time>2026-05-01T10:16:23Z</time></trkpt><trkpt lat="46.326128051046446" lon="9.427367408600063"><ele>385.0</ele><time>2026-05-01T10:16:24Z</time></trkpt><trkpt lat="46.32609512551023" lon="9.427461033897394"><ele>385.0</ele><time>2026-05-01T10:16:25Z</time></trkpt><trkpt lat="46.32612927179347" lon="9.427796511111854"><ele>385.0</ele><time>2026-05-01T10:16:27Z</time></trkpt><trkpt lat="46.32613149147703" lon="9.427968085891171"><ele>385.25</ele><time>2026-05-01T10:16:28Z</time></trkpt><trkpt lat="46.32613697583982" lon="9.428164063627905"><ele>385.5</ele><time>2026-05-01T10:16:29Z</time></trkpt><trkpt lat="46.32615201140384" lon="9.428372663175516"><ele>385.75</ele><time>2026-05-01T10:16:30Z</time></trkpt><trkpt lat="46.326169529137914" lon="9.428588906612585"><ele>386.0</ele><time>2026-05-01T10:16:31Z</time></trkpt><trkpt lat="46.326196254815635" lon="9.428800501986775"><ele>386.66666666666663</ele><time>2026-05-01T10:16:32Z</time></trkpt><trkpt lat="46.32623839859729" lon="9.429013485415714"><ele>387.33333333333337</ele><time>2026-05-01T10:16:33Z</time></trkpt><trkpt lat="46.32628415700687" lon="9.429241260957864"><ele>388.0</ele><time>2026-05-01T10:16:34Z</time></trkpt><trkpt lat="46.326333850773985" lon="9.42947194003314"><ele>390.6666666666667</ele><time>2026-05-01T10:16:35Z</time></trkpt><trkpt lat="46.32639676963712" lon="9.429702862077345"><ele>393.33333333333337</ele><time>2026-05-01T10:16:36Z</time></trkpt><trkpt lat="46.32646726448253" lon="9.429925978593163"><ele>396.0</ele><time>2026-05-01T10:16:37Z</time></trkpt><trkpt lat="46.32654576511667" lon="9.430146804934289"><ele>396.0</ele><time>2026-05-01T10:16:38Z</time></trkpt><trkpt lat="46.32663913339312" lon="9.430350114308684"><ele>396.0</ele><time>2026-05-01T10:16:39Z</time></trkpt><trkpt lat="46.32672958799609" lon="9.430543496766223"><ele>396.0</ele><time>2026-05-01T10:16:40Z</time></trkpt><trkpt lat="46.32683387484394" lon="9.430736677161368"><ele>395.33333333333337</ele><time>2026-05-01T10:16:41Z</time></trkpt><trkpt lat="46.326930695919124" lon="9.430922027189855"><ele>394.6666666666667</ele><time>2026-05-01T10:16:42Z</time></trkpt><trkpt lat="46.327033022436474" lon="9.431113618290501"><ele>394.0</ele><time>2026-05-01T10:16:43Z</time></trkpt><trkpt lat="46.3271356983601" lon="9.431321860839569"><ele>397.0</ele><time>2026-05-01T10:16:44Z</time></trkpt><trkpt lat="46.32723951185969" lon="9.431519276306906"><ele>400.0</ele><time>2026-05-01T10:16:45Z</time></trkpt><trkpt lat="46.32733768579599" lon="9.431709143898528"><ele>403.0</ele><time>2026-05-01T10:16:46Z</time></trkpt><trkpt lat="46.327440029165125" lon="9.431916899148481"><ele>403.0</ele><time>2026-05-01T10:16:47Z</time></trkpt><trkpt lat="46.327538929479246" lon="9.432120001183659"><ele>403.0</ele><time>2026-05-01T10:16:48Z</time></trkpt><trkpt lat="46.3276532714777" lon="9.432332532648255"><ele>403.0</ele><time>2026-05-01T10:16:49Z</time></trkpt><trkpt lat="46.32776841103234" lon="9.43253496770129"><ele>402.33333333333337</ele><time>2026-05-01T10:16:50Z</time></trkpt><trkpt lat="46.32787794793466" lon="9.432748375165012"><ele>401.66666666666663</ele><time>2026-05-01T10:16:51Z</time></trkpt><trkpt lat="46.32800298329927" lon="9.432972743046001"><ele>401.0</ele><time>2026-05-01T10:16:52Z</time></trkpt><trkpt lat="46.32811770547874" lon="9.433201804016292"><ele>402.5</ele><time>2026-05-01T10:16:53Z</time></trkpt><trkpt lat="46.32821978705157" lon="9.433409143606559"><ele>404.0</ele><time>2026-05-01T10:16:54Z</time></trkpt><trkpt lat="46.328271203962395" lon="9.433514612342542"><ele>405.5</ele><time>2026-05-01T10:16:55Z</time></trkpt><trkpt lat="46.328324341209644" lon="9.43367807056116"><ele>407.0</ele><time>2026-05-01T10:16:56Z</time></trkpt><trkpt lat="46.328367018435245" lon="9.433879630344292"><ele>407.3333333333333</ele><time>2026-05-01T10:16:57Z</time></trkpt><trkpt lat="46.3283969168668" lon="9.434117831822464"><ele>407.66666666666663</ele><time>2026-05-01T10:16:58Z</time></trkpt><trkpt lat="46.328404990997875" lon="9.434370600883053"><ele>408.0</ele><time>2026-05-01T10:16:59Z</time></trkpt><trkpt lat="46.32841232878494" lon="9.434630342351488"><ele>408.66666666666663</ele><time>2026-05-01T10:17:00Z</time></trkpt><trkpt lat="46.3284263023164" lon="9.434898329149888"><ele>409.3333333333333</ele><time>2026-05-01T10:17:01Z</time></trkpt><trkpt lat="46.328443113592336" lon="9.43516909709319"><ele>410.0</ele><time>2026-05-01T10:17:02Z</time></trkpt><trkpt lat="46.328467668890525" lon="9.43542208562364"><ele>410.0</ele><time>2026-05-01T10:17:03Z</time></trkpt><trkpt lat="46.328480409492975" lon="9.435724803440722"><ele>410.0</ele><time>2026-05-01T10:17:04Z</time></trkpt><trkpt lat="46.32848959365744" lon="9.436042367963093"><ele>410.0</ele><time>2026-05-01T10:17:05Z</time></trkpt><trkpt lat="46.32853570700732" lon="9.436198427418388"><ele>410.66666666666663</ele><time>2026-05-01T10:17:06Z</time></trkpt><trkpt lat="46.328559849375" lon="9.436461781852366"><ele>411.33333333333337</ele><time>2026-05-01T10:17:07Z</time></trkpt><trkpt lat="46.328575233918045" lon="9.436724071214629"><ele>412.0</ele><time>2026-05-01T10:17:08Z</time></trkpt><trkpt lat="46.32859429462917" lon="9.436969686630887"><ele>412.6666666666667</ele><time>2026-05-01T10:17:09Z</time></trkpt><trkpt lat="46.32860435576413" lon="9.437228109289533"><ele>413.33333333333337</ele><time>2026-05-01T10:17:10Z</time></trkpt><trkpt lat="46.328625969059445" lon="9.43746572865725"><ele>414.0</ele><time>2026-05-01T10:17:11Z</time></trkpt><trkpt lat="46.3286421160636" lon="9.43768526363499"><ele>414.0</ele><time>2026-05-01T10:17:12Z</time></trkpt><trkpt lat="46.32863891418657" lon="9.437897838841826"><ele>414.0</ele><time>2026-05-01T10:17:13Z</time></trkpt><trkpt lat="46.328653999322704" lon="9.438108601873772"><ele>414.0</ele><time>2026-05-01T10:17:14Z</time></trkpt><trkpt lat="46.32866681030883" lon="9.438304319297814"><ele>414.0</ele><time>2026-05-01T10:17:15Z</time></trkpt><trkpt lat="46.32867853121653" lon="9.438494320235892"><ele>414.0</ele><time>2026-05-01T10:17:16Z</time></trkpt><trkpt lat="46.328691304945195" lon="9.438673278854942"><ele>414.0</ele><time>2026-05-01T10:17:17Z</time></trkpt><trkpt lat="46.32871469129536" lon="9.43885295248305"><ele>414.0</ele><time>2026-05-01T10:17:18Z</time></trkpt><trkpt lat="46.328748422047745" lon="9.43903863640337"><ele>414.0</ele><time>2026-05-01T10:17:19Z</time></trkpt><trkpt lat="46.328799091543836" lon="9.439217685907634"><ele>414.0</ele><time>2026-05-01T10:17:20Z</time></trkpt><trkpt lat="46.328855295036725" lon="9.439401532604286"><ele>414.0</ele><time>2026-05-01T10:17:21Z</time></trkpt><trkpt lat="46.328923619134656" lon="9.439591441290153"><ele>414.0</ele><time>2026-05-01T10:17:22Z</time></trkpt><trkpt lat="46.32900084831362" lon="9.439780583434079"><ele>414.0</ele><time>2026-05-01T10:17:23Z</time></trkpt><trkpt lat="46.32908659261784" lon="9.439974263819206"><ele>416.66666666666663</ele><time>2026-05-01T10:17:24Z</time></trkpt><trkpt lat="46.329169413145024" lon="9.44016303601301"><ele>419.3333333333333</ele><time>2026-05-01T10:17:25Z</time></trkpt><trkpt lat="46.32922391982934" lon="9.440374888040152"><ele>422.0</ele><time>2026-05-01T10:17:26Z</time></trkpt><trkpt lat="46.3292695340684" lon="9.440612401026062"><ele>422.0</ele><time>2026-05-01T10:17:27Z</time></trkpt><trkpt lat="46.32931631303091" lon="9.440862004341305"><ele>422.0</ele><time>2026-05-01T10:17:28Z</time></trkpt><trkpt lat="46.329314616367" lon="9.441142788275192"><ele>422.0</ele><time>2026-05-01T10:17:29Z</time></trkpt><trkpt lat="46.32930251614497" lon="9.441411916781039"><ele>422.66666666666663</ele><time>2026-05-01T10:17:30Z</time></trkpt><trkpt lat="46.32928483731601" lon="9.44170174130182"><ele>423.33333333333337</ele><time>2026-05-01T10:17:31Z</time></trkpt><trkpt lat="46.32926947644806" lon="9.441973571405377"><ele>424.0</ele><time>2026-05-01T10:17:32Z</time></trkpt><trkpt lat="46.32925613296281" lon="9.44221634630185"><ele>426.75</ele><time>2026-05-01T10:17:33Z</time></trkpt><trkpt lat="46.329232902436935" lon="9.442429056935762"><ele>429.5</ele><time>2026-05-01T10:17:34Z</time></trkpt><trkpt lat="46.329181308907515" lon="9.442618230829401"><ele>432.25</ele><time>2026-05-01T10:17:35Z</time></trkpt><trkpt lat="46.32911081018821" lon="9.442799056280968"><ele>435.0</ele><time>2026-05-01T10:17:36Z</time></trkpt><trkpt lat="46.32907691353607" lon="9.442903650807901"><ele>431.33333333333337</ele><time>2026-05-01T10:17:37Z</time></trkpt><trkpt lat="46.329035823660575" lon="9.442993344828713"><ele>427.6666666666667</ele><time>2026-05-01T10:17:38Z</time></trkpt><trkpt lat="46.328961753329736" lon="9.443189500907513"><ele>424.0</ele><time>2026-05-01T10:17:39Z</time></trkpt><trkpt lat="46.32877244251116" lon="9.443714532566892"><ele>428.0</ele><time>2026-05-01T10:17:40Z</time></trkpt><trkpt lat="46.32867916826573" lon="9.443965952139"><ele>432.0</ele><time>2026-05-01T10:17:41Z</time></trkpt><trkpt lat="46.32857977699502" lon="9.444211456700359"><ele>436.0</ele><time>2026-05-01T10:17:42Z</time></trkpt><trkpt lat="46.32851246859974" lon="9.444485623696194"><ele>437.6666666666667</ele><time>2026-05-01T10:17:43Z</time></trkpt><trkpt lat="46.32846427524678" lon="9.444784109926431"><ele>439.33333333333337</ele><time>2026-05-01T10:17:44Z</time></trkpt><trkpt lat="46.32841092518937" lon="9.445096335734933"><ele>441.0</ele><time>2026-05-01T10:17:45Z</time></trkpt><trkpt lat="46.32835383237345" lon="9.445434487848217"><ele>444.5</ele><time>2026-05-01T10:17:46Z</time></trkpt><trkpt lat="46.32829670475486" lon="9.445781259171628"><ele>448.0</ele><time>2026-05-01T10:17:47Z</time></trkpt><trkpt lat="46.328231339849744" lon="9.446125560116505"><ele>452.33333333333337</ele><time>2026-05-01T10:17:48Z</time></trkpt><trkpt lat="46.32817824995404" lon="9.446420726126235"><ele>456.66666666666663</ele><time>2026-05-01T10:17:49Z</time></trkpt><trkpt lat="46.328130058736285" lon="9.446697945830882"><ele>461.0</ele><time>2026-05-01T10:17:50Z</time></trkpt><trkpt lat="46.32810341272996" lon="9.44696751801884"><ele>465.0</ele><time>2026-05-01T10:17:51Z</time></trkpt><trkpt lat="46.32809893556649" lon="9.447236672798004"><ele>469.0</ele><time>2026-05-01T10:17:52Z</time></trkpt><trkpt lat="46.32810774947427" lon="9.44750638156453"><ele>473.0</ele><time>2026-05-01T10:17:53Z</time></trkpt><trkpt lat="46.32811419268249" lon="9.447781288023528"><ele>476.0</ele><time>2026-05-01T10:17:54Z</time></trkpt><trkpt lat="46.32809327427703" lon="9.448057642755295"><ele>479.0</ele><time>2026-05-01T10:17:55Z</time></trkpt><trkpt lat="46.32805326043891" lon="9.448338546452025"><ele>482.0</ele><time>2026-05-01T10:17:56Z</time></trkpt><trkpt lat="46.328029932091866" lon="9.448627394123273"><ele>482.66666666666663</ele><time>2026-05-01T10:17:57Z</time></trkpt><trkpt lat="46.32803369973437" lon="9.44892552799283"><ele>483.33333333333337</ele><time>2026-05-01T10:17:58Z</time></trkpt><trkpt lat="46.32806448159953" lon="9.449230599196937"><ele>484.0</ele><time>2026-05-01T10:17:59Z</time></trkpt><trkpt lat="46.32811322106446" lon="9.449527172642805"><ele>486.33333333333337</ele><time>2026-05-01T10:18:00.001Z</time></trkpt><trkpt lat="46.328134012984776" lon="9.449815371637998"><ele>488.66666666666663</ele><time>2026-05-01T10:18:01.001Z</time></trkpt><trkpt lat="46.328106696426744" lon="9.450112050426004"><ele>491.0</ele><time>2026-05-01T10:18:02.001Z</time></trkpt><trkpt lat="46.32804881238172" lon="9.450404781263256"><ele>478.3333333333333</ele><time>2026-05-01T10:18:03.001Z</time></trkpt><trkpt lat="46.32800301535373" lon="9.450706774162349"><ele>465.66666666666663</ele><time>2026-05-01T10:18:04.001Z</time></trkpt><trkpt lat="46.3279726043085" lon="9.450996273883359"><ele>453.0</ele><time>2026-05-01T10:18:05.001Z</time></trkpt><trkpt lat="46.327961179798805" lon="9.451266465851418"><ele>457.0</ele><time>2026-05-01T10:18:06.001Z</time></trkpt><trkpt lat="46.32796268642393" lon="9.451514249434009"><ele>461.0</ele><time>2026-05-01T10:18:07.001Z</time></trkpt><trkpt lat="46.32794496889045" lon="9.45173281914838"><ele>465.0</ele><time>2026-05-01T10:18:08.001Z</time></trkpt><trkpt lat="46.3278880189836" lon="9.451919367682109"><ele>465.0</ele><time>2026-05-01T10:18:09.001Z</time></trkpt><trkpt lat="46.3277728304921" lon="9.452061661632682"><ele>465.0</ele><time>2026-05-01T10:18:10.001Z</time></trkpt><trkpt lat="46.327659988170986" lon="9.452226919696773"><ele>465.0</ele><time>2026-05-01T10:18:11.001Z</time></trkpt><trkpt lat="46.32752659127076" lon="9.45238261681932"><ele>468.33333333333337</ele><time>2026-05-01T10:18:12.001Z</time></trkpt><trkpt lat="46.32739766502756" lon="9.452554091131592"><ele>471.6666666666667</ele><time>2026-05-01T10:18:13.001Z</time></trkpt><trkpt lat="46.3272649618774" lon="9.45273974737165"><ele>475.0</ele><time>2026-05-01T10:18:14.001Z</time></trkpt><trkpt lat="46.32711798487738" lon="9.452940047955648"><ele>479.0</ele><time>2026-05-01T10:18:15.001Z</time></trkpt><trkpt lat="46.326935998759254" lon="9.453172745974777"><ele>483.0</ele><time>2026-05-01T10:18:16.001Z</time></trkpt><trkpt lat="46.326739735600015" lon="9.453418014571868"><ele>483.0</ele><time>2026-05-01T10:18:17.001Z</time></trkpt><trkpt lat="46.326669324488805" lon="9.453642015206043"><ele>483.0</ele><time>2026-05-01T10:18:19.001Z</time></trkpt><trkpt lat="46.326600170714855" lon="9.453849214305846"><ele>483.0</ele><time>2026-05-01T10:18:20.001Z</time></trkpt><trkpt lat="46.326506590456056" lon="9.45403162564838"><ele>484.75</ele><time>2026-05-01T10:18:21.001Z</time></trkpt><trkpt lat="46.32640506004814" lon="9.4541978730727"><ele>486.5</ele><time>2026-05-01T10:18:22.001Z</time></trkpt><trkpt lat="46.3262862480826" lon="9.454330016202146"><ele>488.25</ele><time>2026-05-01T10:18:23.001Z</time></trkpt><trkpt lat="46.32616352741661" lon="9.454416139745465"><ele>490.0</ele><time>2026-05-01T10:18:24.001Z</time></trkpt><trkpt lat="46.32604366904686" lon="9.454496652290615"><ele>490.0</ele><time>2026-05-01T10:18:25Z</time></trkpt><trkpt lat="46.3259236308003" lon="9.454584632519929"><ele>490.0</ele><time>2026-05-01T10:18:26Z</time></trkpt><trkpt lat="46.325809067713934" lon="9.45469575886048"><ele>490.0</ele><time>2026-05-01T10:18:27Z</time></trkpt><trkpt lat="46.32571539573267" lon="9.454837692364032"><ele>490.0</ele><time>2026-05-01T10:18:28Z</time></trkpt><trkpt lat="46.32561070663839" lon="9.454990926356889"><ele>492.5</ele><time>2026-05-01T10:18:29Z</time></trkpt><trkpt lat="46.32552478184664" lon="9.455174304924855"><ele>495.0</ele><time>2026-05-01T10:18:30Z</time></trkpt><trkpt lat="46.32546889992787" lon="9.455360675476815"><ele>497.5</ele><time>2026-05-01T10:18:31Z</time></trkpt><trkpt lat="46.32543864104177" lon="9.45554110413443"><ele>500.0</ele><time>2026-05-01T10:18:32Z</time></trkpt><trkpt lat="46.3254325893845" lon="9.455720970732367"><ele>500.0</ele><time>2026-05-01T10:18:33Z</time></trkpt><trkpt lat="46.325424701584396" lon="9.455893925113731"><ele>500.0</ele><time>2026-05-01T10:18:34Z</time></trkpt><trkpt lat="46.32541014326653" lon="9.456070459344472"><ele>500.0</ele><time>2026-05-01T10:18:35Z</time></trkpt><trkpt lat="46.325394372189876" lon="9.456259086749432"><ele>500.0</ele><time>2026-05-01T10:18:36Z</time></trkpt><trkpt lat="46.32537333831638" lon="9.456462506043449"><ele>500.75</ele><time>2026-05-01T10:18:37Z</time></trkpt><trkpt lat="46.32535134506667" lon="9.456678575429013"><ele>501.5</ele><time>2026-05-01T10:18:38Z</time></trkpt><trkpt lat="46.32533855306026" lon="9.456895722220047"><ele>502.25</ele><time>2026-05-01T10:18:39Z</time></trkpt><trkpt lat="46.32532380408348" lon="9.457090124005973"><ele>503.0</ele><time>2026-05-01T10:18:40Z</time></trkpt><trkpt lat="46.32531592683733" lon="9.45726562625873"><ele>503.4</ele><time>2026-05-01T10:18:41Z</time></trkpt><trkpt lat="46.325351848225175" lon="9.457415794132029"><ele>503.79999999999995</ele><time>2026-05-01T10:18:42Z</time></trkpt><trkpt lat="46.32537806251524" lon="9.457549533150996"><ele>504.2</ele><time>2026-05-01T10:18:43Z</time></trkpt><trkpt lat="46.32543173385608" lon="9.457668928570264"><ele>504.6</ele><time>2026-05-01T10:18:44Z</time></trkpt><trkpt lat="46.325489872721604" lon="9.457755175506408"><ele>505.0</ele><time>2026-05-01T10:18:45Z</time></trkpt><trkpt lat="46.32552742699279" lon="9.457839198523295"><ele>505.00000000000006</ele><time>2026-05-01T10:18:46Z</time></trkpt><trkpt lat="46.32550482385519" lon="9.457928585187702"><ele>505.0</ele><time>2026-05-01T10:18:49Z</time></trkpt><trkpt lat="46.32543553682479" lon="9.457941382965682"><ele>505.0</ele><time>2026-05-01T10:18:52Z</time></trkpt><trkpt lat="46.32534344770992" lon="9.457974816991708"><ele>505.0</ele><time>2026-05-01T10:18:54Z</time></trkpt><trkpt lat="46.325237289626706" lon="9.458007940905224"><ele>505.00000000000006</ele><time>2026-05-01T10:18:56Z</time></trkpt><trkpt lat="46.32513716558695" lon="9.458060855765044"><ele>505.0</ele><time>2026-05-01T10:18:58Z</time></trkpt><trkpt lat="46.325055396544464" lon="9.458074753441164"><ele>505.1666666666667</ele><time>2026-05-01T10:19:00Z</time></trkpt><trkpt lat="46.32498650568199" lon="9.45809060776368"><ele>505.33333333333337</ele><time>2026-05-01T10:19:02Z</time></trkpt><trkpt lat="46.32492384454379" lon="9.45816779342718"><ele>505.5</ele><time>2026-05-01T10:19:04Z</time></trkpt><trkpt lat="46.32488577019286" lon="9.458269380686588"><ele>505.66666666666663</ele><time>2026-05-01T10:19:06Z</time></trkpt><trkpt lat="46.324883404185975" lon="9.458406560402262"><ele>505.8333333333333</ele><time>2026-05-01T10:19:08Z</time></trkpt><trkpt lat="46.324904310012805" lon="9.458529141526231"><ele>506.0</ele><time>2026-05-01T10:19:10Z</time></trkpt><trkpt lat="46.32492033330901" lon="9.458702939281176"><ele>507.3333333333333</ele><time>2026-05-01T10:19:12Z</time></trkpt><trkpt lat="46.324950352915565" lon="9.458798751292896"><ele>508.66666666666663</ele><time>2026-05-01T10:19:13Z</time></trkpt><trkpt lat="46.32497291542549" lon="9.458901665323944"><ele>510.0</ele><time>2026-05-01T10:19:14Z</time></trkpt><trkpt lat="46.32500061908208" lon="9.459026971186235"><ele>511.33333333333337</ele><time>2026-05-01T10:19:15Z</time></trkpt><trkpt lat="46.32501770710447" lon="9.459171111542052"><ele>512.6666666666667</ele><time>2026-05-01T10:19:16Z</time></trkpt><trkpt lat="46.32504337355421" lon="9.459274240004909"><ele>514.0</ele><time>2026-05-01T10:19:17Z</time></trkpt><trkpt lat="46.325056501882116" lon="9.45939748529086"><ele>514.0</ele><time>2026-05-01T10:19:18Z</time></trkpt><trkpt lat="46.32506957997011" lon="9.459492416391992"><ele>514.0</ele><time>2026-05-01T10:19:19Z</time></trkpt><trkpt lat="46.32510364024023" lon="9.459680067358807"><ele>514.0</ele><time>2026-05-01T10:19:21Z</time></trkpt><trkpt lat="46.325094971384914" lon="9.459775780797964"><ele>514.0</ele><time>2026-05-01T10:19:22Z</time></trkpt><trkpt lat="46.32506615769251" lon="9.459868197729362"><ele>514.0</ele><time>2026-05-01T10:19:23Z</time></trkpt><trkpt lat="46.32502656751102" lon="9.45994814847197"><ele>514.0</ele><time>2026-05-01T10:19:24Z</time></trkpt><trkpt lat="46.32499021926538" lon="9.460023101421163"><ele>515.8333333333334</ele><time>2026-05-01T10:19:25Z</time></trkpt><trkpt lat="46.324942484128535" lon="9.46012310683164"><ele>517.6666666666667</ele><time>2026-05-01T10:19:26Z</time></trkpt><trkpt lat="46.32490702630694" lon="9.460221433971014"><ele>519.5</ele><time>2026-05-01T10:19:27Z</time></trkpt><trkpt lat="46.324854166107144" lon="9.460280395476687"><ele>521.3333333333334</ele><time>2026-05-01T10:19:28Z</time></trkpt><trkpt lat="46.3247588371256" lon="9.46034097324916"><ele>523.1666666666666</ele><time>2026-05-01T10:19:30Z</time></trkpt><trkpt lat="46.32470794963823" lon="9.460263890466695"><ele>525.0</ele><time>2026-05-01T10:19:31Z</time></trkpt><trkpt lat="46.32464578315704" lon="9.46020941491752"><ele>526.1666666666666</ele><time>2026-05-01T10:19:32Z</time></trkpt><trkpt lat="46.32458236812827" lon="9.460152890049962"><ele>527.3333333333334</ele><time>2026-05-01T10:19:33Z</time></trkpt><trkpt lat="46.32452187229832" lon="9.460106844817636"><ele>528.5</ele><time>2026-05-01T10:19:34Z</time></trkpt><trkpt lat="46.324461164579894" lon="9.460071538243433"><ele>529.6666666666667</ele><time>2026-05-01T10:19:35Z</time></trkpt><trkpt lat="46.324387659284916" lon="9.460046673295723"><ele>530.8333333333334</ele><time>2026-05-01T10:19:36Z</time></trkpt><trkpt lat="46.324314120762836" lon="9.460068776195694"><ele>532.0</ele><time>2026-05-01T10:19:37Z</time></trkpt><trkpt lat="46.32420805268531" lon="9.460052178419085"><ele>532.0</ele><time>2026-05-01T10:19:39Z</time></trkpt><trkpt lat="46.32412743973766" lon="9.460037682577804"><ele>532.0</ele><time>2026-05-01T10:19:41Z</time></trkpt><trkpt lat="46.32406569736795" lon="9.459913414278228"><ele>532.0</ele><time>2026-05-01T10:19:43Z</time></trkpt><trkpt lat="46.32398858545006" lon="9.459776203323818"><ele>532.0</ele><time>2026-05-01T10:19:45Z</time></trkpt><trkpt lat="46.323917704027764" lon="9.459656162832175"><ele>532.0</ele><time>2026-05-01T10:19:47Z</time></trkpt><trkpt lat="46.323838089573115" lon="9.459531237910099"><ele>531.0</ele><time>2026-05-01T10:19:49Z</time></trkpt><trkpt lat="46.32377251596958" lon="9.4594095177695"><ele>530.0</ele><time>2026-05-01T10:19:51Z</time></trkpt><trkpt lat="46.32373493651852" lon="9.459313476552671"><ele>529.0</ele><time>2026-05-01T10:19:53Z</time></trkpt><trkpt lat="46.32380236870995" lon="9.459132752540633"><ele>528.0</ele><time>2026-05-01T10:20:00Z</time></trkpt><trkpt lat="46.323844074144645" lon="9.45905365120556"><ele>527.0</ele><time>2026-05-01T10:20:03Z</time></trkpt><trkpt lat="46.323911060627154" lon="9.459032438889327"><ele>528.5714285714287</ele><time>2026-05-01T10:20:19.001Z</time></trkpt><trkpt lat="46.32384784033495" lon="9.459075315782568"><ele>530.1428571428571</ele><time>2026-05-01T10:23:00Z</time></trkpt><trkpt lat="46.32378630676321" lon="9.459124022662657"><ele>531.7142857142858</ele><time>2026-05-01T10:23:07Z</time></trkpt><trkpt lat="46.32373367462062" lon="9.459198746505631"><ele>533.2857142857143</ele><time>2026-05-01T10:23:13Z</time></trkpt><trkpt lat="46.32366991477247" lon="9.459235905507605"><ele>534.8571428571429</ele><time>2026-05-01T10:23:19Z</time></trkpt><trkpt lat="46.32360664945671" lon="9.459284738767334"><ele>536.4285714285714</ele><time>2026-05-01T10:23:27Z</time></trkpt><trkpt lat="46.32355001834097" lon="9.45932689808701"><ele>538.0</ele><time>2026-05-01T10:23:41Z</time></trkpt><trkpt lat="46.32351155490863" lon="9.45940885409616"><ele>538.0</ele><time>2026-05-01T10:23:53Z</time></trkpt><trkpt lat="46.32351023443257" lon="9.459505299361183"><ele>538.0</ele><time>2026-05-01T10:25:51.999Z</time></trkpt><trkpt lat="46.323534891994726" lon="9.459418589319538"><ele>538.0</ele><time>2026-05-01T10:26:12.999Z</time></trkpt><trkpt lat="46.32357650603646" lon="9.459493316670772"><ele>538.0</ele><time>2026-05-01T10:26:24Z</time></trkpt><trkpt lat="46.32365053013003" lon="9.459386747591964"><ele>538.0</ele><time>2026-05-01T10:27:05Z</time></trkpt></trkseg><trkseg><trkpt lat="46.32378858518472" lon="9.458977729090916"><ele>538.0</ele><time>2026-05-01T12:05:02Z</time></trkpt><trkpt lat="46.32386645960388" lon="9.458971983334264"><ele>538.0</ele><time>2026-05-01T12:05:06Z</time></trkpt><trkpt lat="46.323792850756035" lon="9.458971845779919"><ele>538.0</ele><time>2026-05-01T12:08:55.999Z</time></trkpt><trkpt lat="46.323745317201016" lon="9.45904235117522"><ele>538.0</ele><time>2026-05-01T12:08:58.999Z</time></trkpt><trkpt lat="46.32369430357089" lon="9.459109221048891"><ele>538.0</ele><time>2026-05-01T12:09:01.999Z</time></trkpt><trkpt lat="46.32363138401026" lon="9.459171035181319"><ele>538.0</ele><time>2026-05-01T12:09:04.999Z</time></trkpt><trkpt lat="46.323655073232636" lon="9.45925757581618"><ele>538.0</ele><time>2026-05-01T12:09:08.999Z</time></trkpt><trkpt lat="46.3237242214955" lon="9.459342935812696"><ele>538.0</ele><time>2026-05-01T12:09:10.999Z</time></trkpt><trkpt lat="46.32377269306938" lon="9.459441849710853"><ele>538.0</ele><time>2026-05-01T12:09:12.999Z</time></trkpt><trkpt lat="46.32382483520364" lon="9.45955320825727"><ele>538.0</ele><time>2026-05-01T12:09:14.999Z</time></trkpt><trkpt lat="46.32390562935803" lon="9.459683656150709"><ele>538.0</ele><time>2026-05-01T12:09:16.999Z</time></trkpt><trkpt lat="46.32395201531975" lon="9.459751736775793"><ele>538.0</ele><time>2026-05-01T12:09:17.999Z</time></trkpt><trkpt lat="46.323985374815216" lon="9.459846144182155"><ele>538.0</ele><time>2026-05-01T12:09:18.999Z</time></trkpt><trkpt lat="46.32404080792605" lon="9.459910891348722"><ele>537.1428571428571</ele><time>2026-05-01T12:09:19.999Z</time></trkpt><trkpt lat="46.32407926910167" lon="9.459992681121289"><ele>536.2857142857143</ele><time>2026-05-01T12:09:20.999Z</time></trkpt><trkpt lat="46.32413613284537" lon="9.46005262603867"><ele>535.4285714285714</ele><time>2026-05-01T12:09:21.999Z</time></trkpt><trkpt lat="46.32419915078987" lon="9.460108077382023"><ele>534.5714285714286</ele><time>2026-05-01T12:09:22.999Z</time></trkpt><trkpt lat="46.324280112916334" lon="9.460100221581259"><ele>533.7142857142858</ele><time>2026-05-01T12:09:23.999Z</time></trkpt><trkpt lat="46.32435131066894" lon="9.460098182911905"><ele>532.8571428571429</ele><time>2026-05-01T12:09:24.999Z</time></trkpt><trkpt lat="46.32441997426441" lon="9.460107740760614"><ele>532.0</ele><time>2026-05-01T12:09:25.999Z</time></trkpt><trkpt lat="46.3244814774367" lon="9.4601326116293"><ele>532.0</ele><time>2026-05-01T12:09:26.999Z</time></trkpt><trkpt lat="46.32454811398939" lon="9.460181131138084"><ele>532.0</ele><time>2026-05-01T12:09:27.999Z</time></trkpt><trkpt lat="46.32462442999186" lon="9.460242288138508"><ele>532.0</ele><time>2026-05-01T12:09:28.999Z</time></trkpt><trkpt lat="46.32470248689947" lon="9.46029858717437"><ele>532.0</ele><time>2026-05-01T12:09:29.999Z</time></trkpt><trkpt lat="46.324770249561816" lon="9.460336961011544"><ele>532.0</ele><time>2026-05-01T12:09:30.999Z</time></trkpt><trkpt lat="46.324903461893356" lon="9.460292436386036"><ele>530.8333333333334</ele><time>2026-05-01T12:09:32.999Z</time></trkpt><trkpt lat="46.32495141706447" lon="9.460179511486054"><ele>529.6666666666667</ele><time>2026-05-01T12:09:33.999Z</time></trkpt><trkpt lat="46.324979584987986" lon="9.460081385078336"><ele>528.5</ele><time>2026-05-01T12:09:34.999Z</time></trkpt><trkpt lat="46.32501890647658" lon="9.459973238016767"><ele>527.3333333333334</ele><time>2026-05-01T12:09:35.999Z</time></trkpt><trkpt lat="46.32508462748843" lon="9.459862845011987"><ele>526.1666666666666</ele><time>2026-05-01T12:09:36.999Z</time></trkpt><trkpt lat="46.325114782776964" lon="9.459757872817026"><ele>525.0</ele><time>2026-05-01T12:09:37.999Z</time></trkpt><trkpt lat="46.325132297069906" lon="9.459666396307403"><ele>523.1666666666666</ele><time>2026-05-01T12:09:38.999Z</time></trkpt><trkpt lat="46.32512495409777" lon="9.459571238435725"><ele>521.3333333333334</ele><time>2026-05-01T12:09:39.999Z</time></trkpt><trkpt lat="46.32509660736602" lon="9.45947732093187"><ele>519.5</ele><time>2026-05-01T12:09:40.999Z</time></trkpt><trkpt lat="46.3250666032531" lon="9.459381456170956"><ele>517.6666666666667</ele><time>2026-05-01T12:09:41.999Z</time></trkpt><trkpt lat="46.32505460597697" lon="9.459222507318643"><ele>515.8333333333334</ele><time>2026-05-01T12:09:43.999Z</time></trkpt><trkpt lat="46.32504440306322" lon="9.459106047728712"><ele>514.0</ele><time>2026-05-01T12:09:45.999Z</time></trkpt><trkpt lat="46.32502208630893" lon="9.459016837323876"><ele>514.0</ele><time>2026-05-01T12:09:47.999Z</time></trkpt><trkpt lat="46.32500798020934" lon="9.458872100244324"><ele>514.0</ele><time>2026-05-01T12:09:49.999Z</time></trkpt><trkpt lat="46.32497627828505" lon="9.45872766528291"><ele>514.0</ele><time>2026-05-01T12:09:50.999Z</time></trkpt><trkpt lat="46.32495692865767" lon="9.45860632342912"><ele>514.0</ele><time>2026-05-01T12:09:51.999Z</time></trkpt><trkpt lat="46.32494052027218" lon="9.458489392561088"><ele>514.0</ele><time>2026-05-01T12:09:52.999Z</time></trkpt><trkpt lat="46.324944948293584" lon="9.458396839117281"><ele>514.0</ele><time>2026-05-01T12:09:53.999Z</time></trkpt><trkpt lat="46.32492290970304" lon="9.458307506139317"><ele>512.4</ele><time>2026-05-01T12:09:54.999Z</time></trkpt><trkpt lat="46.32493027742537" lon="9.458192133972247"><ele>510.79999999999995</ele><time>2026-05-01T12:09:56.999Z</time></trkpt><trkpt lat="46.3250028955651" lon="9.458102782539628"><ele>509.20000000000005</ele><time>2026-05-01T12:09:59.999Z</time></trkpt><trkpt lat="46.32506662989066" lon="9.458091499674333"><ele>507.6</ele><time>2026-05-01T12:10:00.999Z</time></trkpt><trkpt lat="46.3251741829186" lon="9.458081350179809"><ele>506.0</ele><time>2026-05-01T12:10:02.999Z</time></trkpt><trkpt lat="46.32528498172481" lon="9.458054703947548"><ele>506.0</ele><time>2026-05-01T12:10:04.999Z</time></trkpt><trkpt lat="46.32539431236" lon="9.458018555942889"><ele>506.0</ele><time>2026-05-01T12:10:06.999Z</time></trkpt><trkpt lat="46.325502335649645" lon="9.45797670936717"><ele>506.0</ele><time>2026-05-01T12:10:08.999Z</time></trkpt><trkpt lat="46.325588630509266" lon="9.457967124444389"><ele>506.0</ele><time>2026-05-01T12:10:10.999Z</time></trkpt><trkpt lat="46.325654911118534" lon="9.458113177178225"><ele>506.0</ele><time>2026-05-01T12:10:19.999Z</time></trkpt><trkpt lat="46.325745421469705" lon="9.458262192589295"><ele>508.25</ele><time>2026-05-01T12:10:21.999Z</time></trkpt><trkpt lat="46.32581022338128" lon="9.458343685448884"><ele>510.5</ele><time>2026-05-01T12:10:22.999Z</time></trkpt><trkpt lat="46.325886102751426" lon="9.458421629305027"><ele>512.75</ele><time>2026-05-01T12:10:23.999Z</time></trkpt><trkpt lat="46.326015792475516" lon="9.458525791330855"><ele>515.0</ele><time>2026-05-01T12:10:24.999Z</time></trkpt><trkpt lat="46.32612933729644" lon="9.45869874990709"><ele>515.0</ele><time>2026-05-01T12:10:25.999Z</time></trkpt><trkpt lat="46.326083607165465" lon="9.45860776224453"><ele>515.0</ele><time>2026-05-01T12:10:26.999Z</time></trkpt><trkpt lat="46.32614104813707" lon="9.45872422872036"><ele>515.0</ele><time>2026-05-01T12:10:27.999Z</time></trkpt><trkpt lat="46.32619893822921" lon="9.458855992175769"><ele>515.0</ele><time>2026-05-01T12:10:28.999Z</time></trkpt><trkpt lat="46.32623551067775" lon="9.458998517504522"><ele>515.0</ele><time>2026-05-01T12:10:29.999Z</time></trkpt><trkpt lat="46.326252570425474" lon="9.459159955421471"><ele>514.75</ele><time>2026-05-01T12:10:30.999Z</time></trkpt><trkpt lat="46.326256332671825" lon="9.459334007482157"><ele>514.5</ele><time>2026-05-01T12:10:31.999Z</time></trkpt><trkpt lat="46.326260022183874" lon="9.459514941312623"><ele>514.25</ele><time>2026-05-01T12:10:32.999Z</time></trkpt><trkpt lat="46.32628216198082" lon="9.459705086228544"><ele>514.0</ele><time>2026-05-01T12:10:33.999Z</time></trkpt><trkpt lat="46.326287681121144" lon="9.459885860257788"><ele>514.0</ele><time>2026-05-01T12:10:34.999Z</time></trkpt><trkpt lat="46.3263018916324" lon="9.460064724652018"><ele>514.0</ele><time>2026-05-01T12:10:35.999Z</time></trkpt><trkpt lat="46.32632517173205" lon="9.460262209984288"><ele>514.0</ele><time>2026-05-01T12:10:36.999Z</time></trkpt><trkpt lat="46.32636186762896" lon="9.460461814326575"><ele>514.0</ele><time>2026-05-01T12:10:37.999Z</time></trkpt><trkpt lat="46.32641647816726" lon="9.460666969249926"><ele>519.6666666666667</ele><time>2026-05-01T12:10:38.999Z</time></trkpt><trkpt lat="46.32648597893795" lon="9.460871277747497"><ele>525.3333333333334</ele><time>2026-05-01T12:10:39.999Z</time></trkpt><trkpt lat="46.32656064150216" lon="9.46105895220678"><ele>531.0</ele><time>2026-05-01T12:10:40.999Z</time></trkpt><trkpt lat="46.32662843112777" lon="9.461269757411168"><ele>530.3333333333334</ele><time>2026-05-01T12:10:41.999Z</time></trkpt><trkpt lat="46.326692864092486" lon="9.46149260854849"><ele>529.6666666666667</ele><time>2026-05-01T12:10:42.999Z</time></trkpt><trkpt lat="46.3267565509885" lon="9.461710025810229"><ele>529.0</ele><time>2026-05-01T12:10:43.999Z</time></trkpt><trkpt lat="46.326792030446775" lon="9.461942982989639"><ele>530.0</ele><time>2026-05-01T12:10:44.999Z</time></trkpt><trkpt lat="46.32678761922238" lon="9.462170580372115"><ele>531.0</ele><time>2026-05-01T12:10:45.999Z</time></trkpt><trkpt lat="46.32675330789222" lon="9.46238383076013"><ele>532.0</ele><time>2026-05-01T12:10:46.999Z</time></trkpt><trkpt lat="46.326699618335965" lon="9.462604821949673"><ele>532.0</ele><time>2026-05-01T12:10:47.999Z</time></trkpt><trkpt lat="46.32663999797879" lon="9.462841782720092"><ele>532.0</ele><time>2026-05-01T12:10:48.999Z</time></trkpt><trkpt lat="46.32658180908976" lon="9.463072919146747"><ele>532.0</ele><time>2026-05-01T12:10:49.999Z</time></trkpt><trkpt lat="46.32652524971822" lon="9.46330929995482"><ele>534.6666666666667</ele><time>2026-05-01T12:10:50.999Z</time></trkpt><trkpt lat="46.32650090833256" lon="9.463543228610801"><ele>537.3333333333334</ele><time>2026-05-01T12:10:51.999Z</time></trkpt><trkpt lat="46.326507288801956" lon="9.463780387823704"><ele>540.0</ele><time>2026-05-01T12:10:52.999Z</time></trkpt><trkpt lat="46.32655174627065" lon="9.464017741517985"><ele>540.0</ele><time>2026-05-01T12:10:53.999Z</time></trkpt><trkpt lat="46.326633040964296" lon="9.464240479636928"><ele>540.0</ele><time>2026-05-01T12:10:54.999Z</time></trkpt><trkpt lat="46.32674016209189" lon="9.464436901015775"><ele>540.0</ele><time>2026-05-01T12:10:55.999Z</time></trkpt><trkpt lat="46.326871707556656" lon="9.464596155868922"><ele>540.0</ele><time>2026-05-01T12:10:56.999Z</time></trkpt><trkpt lat="46.3270319025136" lon="9.46471609493196"><ele>540.0</ele><time>2026-05-01T12:10:57.999Z</time></trkpt><trkpt lat="46.327187322669495" lon="9.464831831049409"><ele>540.0</ele><time>2026-05-01T12:10:58.999Z</time></trkpt><trkpt lat="46.32729723650354" lon="9.465032267562261"><ele>542.6666666666666</ele><time>2026-05-01T12:10:59.999Z</time></trkpt><trkpt lat="46.32739020716575" lon="9.465244558212706"><ele>545.3333333333333</ele><time>2026-05-01T12:11:00.999Z</time></trkpt><trkpt lat="46.32748781997297" lon="9.4654733558329"><ele>548.0</ele><time>2026-05-01T12:11:01.999Z</time></trkpt><trkpt lat="46.327577513937875" lon="9.465673505880764"><ele>548.0</ele><time>2026-05-01T12:11:02.999Z</time></trkpt><trkpt lat="46.32765703933514" lon="9.465899127989438"><ele>548.0</ele><time>2026-05-01T12:11:03.999Z</time></trkpt><trkpt lat="46.3277279981053" lon="9.466131841440705"><ele>548.0</ele><time>2026-05-01T12:11:04.999Z</time></trkpt><trkpt lat="46.327756543548226" lon="9.466393252522941"><ele>546.6666666666666</ele><time>2026-05-01T12:11:05.999Z</time></trkpt><trkpt lat="46.32779525987462" lon="9.466647007338873"><ele>545.3333333333334</ele><time>2026-05-01T12:11:06.999Z</time></trkpt><trkpt lat="46.32777835814411" lon="9.46690637118987"><ele>544.0</ele><time>2026-05-01T12:11:07.999Z</time></trkpt><trkpt lat="46.327758522506684" lon="9.467159633545789"><ele>544.0</ele><time>2026-05-01T12:11:08.999Z</time></trkpt><trkpt lat="46.32774245329672" lon="9.467411630682852"><ele>544.0</ele><time>2026-05-01T12:11:09.999Z</time></trkpt><trkpt lat="46.327706251824175" lon="9.467646418057488"><ele>544.0</ele><time>2026-05-01T12:11:10.999Z</time></trkpt><trkpt lat="46.32769421310253" lon="9.467890857176993"><ele>543.0</ele><time>2026-05-01T12:11:11.999Z</time></trkpt><trkpt lat="46.32771923493913" lon="9.468128274088073"><ele>542.0</ele><time>2026-05-01T12:11:12.999Z</time></trkpt><trkpt lat="46.327785534211884" lon="9.468366623022751"><ele>541.0</ele><time>2026-05-01T12:11:13.999Z</time></trkpt><trkpt lat="46.327857403244636" lon="9.46860024058589"><ele>541.75</ele><time>2026-05-01T12:11:14.999Z</time></trkpt><trkpt lat="46.32788576679709" lon="9.468817214492512"><ele>542.5</ele><time>2026-05-01T12:11:15.999Z</time></trkpt><trkpt lat="46.32786394552429" lon="9.46900075269201"><ele>543.25</ele><time>2026-05-01T12:11:16.999Z</time></trkpt><trkpt lat="46.32781381168344" lon="9.469179373262223"><ele>544.0</ele><time>2026-05-01T12:11:17.999Z</time></trkpt><trkpt lat="46.32777374699882" lon="9.469383721722092"><ele>544.0</ele><time>2026-05-01T12:11:18.999Z</time></trkpt><trkpt lat="46.327712130077316" lon="9.469589025727295"><ele>544.0</ele><time>2026-05-01T12:11:19.999Z</time></trkpt><trkpt lat="46.3276762445486" lon="9.46981492906164"><ele>544.0</ele><time>2026-05-01T12:11:20.999Z</time></trkpt><trkpt lat="46.32767944318456" lon="9.470049257470166"><ele>544.6666666666667</ele><time>2026-05-01T12:11:21.999Z</time></trkpt><trkpt lat="46.32771747895028" lon="9.470284783960402"><ele>545.3333333333334</ele><time>2026-05-01T12:11:22.999Z</time></trkpt><trkpt lat="46.32778529443109" lon="9.470520669000399"><ele>546.0</ele><time>2026-05-01T12:11:23.999Z</time></trkpt><trkpt lat="46.327872072944366" lon="9.470752194362447"><ele>547.0</ele><time>2026-05-01T12:11:24.999Z</time></trkpt><trkpt lat="46.327973472550816" lon="9.470979778815211"><ele>548.0</ele><time>2026-05-01T12:11:25.999Z</time></trkpt><trkpt lat="46.32806892214916" lon="9.471213337011667"><ele>549.0</ele><time>2026-05-01T12:11:26.999Z</time></trkpt><trkpt lat="46.328165465145574" lon="9.471457224815806"><ele>557.0</ele><time>2026-05-01T12:11:27.999Z</time></trkpt><trkpt lat="46.32826373134198" lon="9.471697296128944"><ele>565.0</ele><time>2026-05-01T12:11:28.999Z</time></trkpt><trkpt lat="46.32836471780773" lon="9.471942897035067"><ele>573.0</ele><time>2026-05-01T12:11:29.999Z</time></trkpt><trkpt lat="46.32845997807017" lon="9.472177640836037"><ele>573.0</ele><time>2026-05-01T12:11:30.999Z</time></trkpt><trkpt lat="46.32848662508128" lon="9.472428044441026"><ele>573.0</ele><time>2026-05-01T12:11:31.999Z</time></trkpt><trkpt lat="46.328493458005376" lon="9.472644748101537"><ele>573.0</ele><time>2026-05-01T12:11:32.999Z</time></trkpt><trkpt lat="46.32850430220286" lon="9.472873515145793"><ele>573.0</ele><time>2026-05-01T12:11:33.999Z</time></trkpt><trkpt lat="46.32852535715287" lon="9.473130673413948"><ele>573.0</ele><time>2026-05-01T12:11:34.999Z</time></trkpt><trkpt lat="46.32853560754169" lon="9.473428138741381"><ele>573.0</ele><time>2026-05-01T12:11:35.999Z</time></trkpt><trkpt lat="46.32855463207717" lon="9.47378013583207"><ele>574.3333333333334</ele><time>2026-05-01T12:11:36.999Z</time></trkpt><trkpt lat="46.328541573183124" lon="9.474030906787103"><ele>575.6666666666667</ele><time>2026-05-01T12:11:37.999Z</time></trkpt><trkpt lat="46.32849787478993" lon="9.474311751443494"><ele>577.0</ele><time>2026-05-01T12:11:38.999Z</time></trkpt><trkpt lat="46.3284541882045" lon="9.474503350999697"><ele>578.75</ele><time>2026-05-01T12:11:39.999Z</time></trkpt><trkpt lat="46.32842651959912" lon="9.474682657502663"><ele>580.5</ele><time>2026-05-01T12:11:40.999Z</time></trkpt><trkpt lat="46.32840981901529" lon="9.47490108046212"><ele>582.25</ele><time>2026-05-01T12:11:41.999Z</time></trkpt><trkpt lat="46.32842217037552" lon="9.47511554025493"><ele>584.0</ele><time>2026-05-01T12:11:42.999Z</time></trkpt><trkpt lat="46.328457188213974" lon="9.475345340589806"><ele>584.6666666666666</ele><time>2026-05-01T12:11:43.999Z</time></trkpt><trkpt lat="46.32850220558676" lon="9.475577839680534"><ele>585.3333333333334</ele><time>2026-05-01T12:11:44.999Z</time></trkpt><trkpt lat="46.328554104723395" lon="9.475819843864961"><ele>586.0</ele><time>2026-05-01T12:11:45.999Z</time></trkpt><trkpt lat="46.3285984892785" lon="9.476053631256095"><ele>586.0</ele><time>2026-05-01T12:11:46.999Z</time></trkpt><trkpt lat="46.328637400339154" lon="9.476257973885302"><ele>586.0</ele><time>2026-05-01T12:11:47.999Z</time></trkpt><trkpt lat="46.32867284133564" lon="9.476444317971563"><ele>586.0</ele><time>2026-05-01T12:11:48.999Z</time></trkpt><trkpt lat="46.32870329432226" lon="9.476623999730851"><ele>586.0</ele><time>2026-05-01T12:11:49.999Z</time></trkpt><trkpt lat="46.32872984501413" lon="9.476797012907491"><ele>586.25</ele><time>2026-05-01T12:11:50.999Z</time></trkpt><trkpt lat="46.328759542261906" lon="9.476972315463149"><ele>586.5</ele><time>2026-05-01T12:11:51.999Z</time></trkpt><trkpt lat="46.32880724986139" lon="9.477155257283385"><ele>586.75</ele><time>2026-05-01T12:11:52.999Z</time></trkpt><trkpt lat="46.32888212901384" lon="9.477336225296352"><ele>587.0</ele><time>2026-05-01T12:11:53.999Z</time></trkpt><trkpt lat="46.328987802466116" lon="9.477511402854741"><ele>591.0</ele><time>2026-05-01T12:11:54.999Z</time></trkpt><trkpt lat="46.329119458699665" lon="9.477723845571418"><ele>595.0</ele><time>2026-05-01T12:11:55.999Z</time></trkpt><trkpt lat="46.32925262210999" lon="9.477912806931222"><ele>599.0</ele><time>2026-05-01T12:11:56.999Z</time></trkpt><trkpt lat="46.329379100328865" lon="9.478091373985738"><ele>599.0</ele><time>2026-05-01T12:11:57.999Z</time></trkpt><trkpt lat="46.32953199962759" lon="9.478303879080418"><ele>599.0</ele><time>2026-05-01T12:11:58.999Z</time></trkpt><trkpt lat="46.329677847967716" lon="9.478497442099487"><ele>599.0</ele><time>2026-05-01T12:11:59.999Z</time></trkpt><trkpt lat="46.329783568815365" lon="9.478723776590833"><ele>603.0</ele><time>2026-05-01T12:12:00.999Z</time></trkpt><trkpt lat="46.3298737334747" lon="9.478954890241187"><ele>607.0</ele><time>2026-05-01T12:12:01.999Z</time></trkpt><trkpt lat="46.32997637564612" lon="9.47917535361241"><ele>611.0</ele><time>2026-05-01T12:12:02.999Z</time></trkpt><trkpt lat="46.330050713971914" lon="9.479392986972373"><ele>610.0</ele><time>2026-05-01T12:12:03.999Z</time></trkpt><trkpt lat="46.33013389244186" lon="9.479615747069486"><ele>609.0</ele><time>2026-05-01T12:12:04.999Z</time></trkpt><trkpt lat="46.33021687032736" lon="9.479836385072646"><ele>608.0</ele><time>2026-05-01T12:12:05.999Z</time></trkpt><trkpt lat="46.33030412809741" lon="9.480058210053555"><ele>608.0</ele><time>2026-05-01T12:12:06.999Z</time></trkpt><trkpt lat="46.33039124377953" lon="9.480280643497021"><ele>608.0</ele><time>2026-05-01T12:12:07.999Z</time></trkpt><trkpt lat="46.33047463395663" lon="9.480506054068382"><ele>608.0</ele><time>2026-05-01T12:12:08.999Z</time></trkpt><trkpt lat="46.33055833062239" lon="9.480728709656912"><ele>610.0</ele><time>2026-05-01T12:12:09.999Z</time></trkpt><trkpt lat="46.33064172334992" lon="9.480944650804126"><ele>612.0</ele><time>2026-05-01T12:12:10.999Z</time></trkpt><trkpt lat="46.330722534503316" lon="9.481163415799042"><ele>614.0</ele><time>2026-05-01T12:12:11.999Z</time></trkpt><trkpt lat="46.330807400927" lon="9.481381342824116"><ele>614.0</ele><time>2026-05-01T12:12:12.999Z</time></trkpt><trkpt lat="46.33087671086868" lon="9.481578404800446"><ele>614.0</ele><time>2026-05-01T12:12:13.999Z</time></trkpt><trkpt lat="46.33095840027886" lon="9.481773367744061"><ele>614.0</ele><time>2026-05-01T12:12:14.999Z</time></trkpt><trkpt lat="46.33102802236393" lon="9.48200290314872"><ele>614.8</ele><time>2026-05-01T12:12:15.999Z</time></trkpt><trkpt lat="46.331050587595065" lon="9.482155766927107"><ele>615.5999999999999</ele><time>2026-05-01T12:12:16.999Z</time></trkpt><trkpt lat="46.331037013977664" lon="9.482289371858478"><ele>616.4</ele><time>2026-05-01T12:12:17.999Z</time></trkpt><trkpt lat="46.33099939130014" lon="9.482422156338032"><ele>617.1999999999999</ele><time>2026-05-01T12:12:18.999Z</time></trkpt><trkpt lat="46.3309257286017" lon="9.482555270726662"><ele>618.0</ele><time>2026-05-01T12:12:19.999Z</time></trkpt><trkpt lat="46.33083975044871" lon="9.482675360131626"><ele>618.0</ele><time>2026-05-01T12:12:20.999Z</time></trkpt><trkpt lat="46.33074016478336" lon="9.48286952580616"><ele>618.0</ele><time>2026-05-01T12:12:21.999Z</time></trkpt><trkpt lat="46.330624096053654" lon="9.483012973110492"><ele>618.0</ele><time>2026-05-01T12:12:22.999Z</time></trkpt><trkpt lat="46.33053335646946" lon="9.483165232147279"><ele>618.0</ele><time>2026-05-01T12:12:23.999Z</time></trkpt><trkpt lat="46.33044765875161" lon="9.483304140852658"><ele>618.0</ele><time>2026-05-01T12:12:24.999Z</time></trkpt><trkpt lat="46.33034978335173" lon="9.483394792744022"><ele>618.0</ele><time>2026-05-01T12:12:25.999Z</time></trkpt><trkpt lat="46.33018170143844" lon="9.483386238930942"><ele>618.0</ele><time>2026-05-01T12:12:26.999Z</time></trkpt><trkpt lat="46.33002337902722" lon="9.483459763536395"><ele>618.0</ele><time>2026-05-01T12:12:27.999Z</time></trkpt><trkpt lat="46.32987041011998" lon="9.483475459333741"><ele>618.0</ele><time>2026-05-01T12:12:28.999Z</time></trkpt><trkpt lat="46.3297374738705" lon="9.483517073012209"><ele>618.0</ele><time>2026-05-01T12:12:29.999Z</time></trkpt><trkpt lat="46.32962624347675" lon="9.483586271073843"><ele>618.0</ele><time>2026-05-01T12:12:30.999Z</time></trkpt><trkpt lat="46.32956045180445" lon="9.483717564664824"><ele>620.5</ele><time>2026-05-01T12:12:31.999Z</time></trkpt><trkpt lat="46.32953780485138" lon="9.483878200992626"><ele>623.0</ele><time>2026-05-01T12:12:32.999Z</time></trkpt><trkpt lat="46.329560873804255" lon="9.484053318768057"><ele>625.5</ele><time>2026-05-01T12:12:33.999Z</time></trkpt><trkpt lat="46.32962108449138" lon="9.484213551593314"><ele>628.0</ele><time>2026-05-01T12:12:34.999Z</time></trkpt><trkpt lat="46.32973875850745" lon="9.48433053219709"><ele>628.0</ele><time>2026-05-01T12:12:35.999Z</time></trkpt><trkpt lat="46.32986594046595" lon="9.484433924701595"><ele>628.0</ele><time>2026-05-01T12:12:36.999Z</time></trkpt><trkpt lat="46.33000358153242" lon="9.484540808231849"><ele>628.0</ele><time>2026-05-01T12:12:37.999Z</time></trkpt><trkpt lat="46.33008449591086" lon="9.484692927591627"><ele>628.0</ele><time>2026-05-01T12:12:38.999Z</time></trkpt><trkpt lat="46.330122427206604" lon="9.484854881681292"><ele>626.3333333333334</ele><time>2026-05-01T12:12:39.999Z</time></trkpt><trkpt lat="46.330136403622404" lon="9.485044144598916"><ele>624.6666666666666</ele><time>2026-05-01T12:12:40.999Z</time></trkpt><trkpt lat="46.330153080059546" lon="9.485266329549896"><ele>623.0</ele><time>2026-05-01T12:12:41.999Z</time></trkpt><trkpt lat="46.33018756878884" lon="9.485498650965477"><ele>618.6666666666666</ele><time>2026-05-01T12:12:42.999Z</time></trkpt><trkpt lat="46.33023029678284" lon="9.485726845716655"><ele>614.3333333333334</ele><time>2026-05-01T12:12:43.999Z</time></trkpt><trkpt lat="46.33031290886803" lon="9.485961207107378"><ele>610.0</ele><time>2026-05-01T12:12:44.999Z</time></trkpt><trkpt lat="46.33040878932502" lon="9.48619367860612"><ele>608.6666666666667</ele><time>2026-05-01T12:12:45.999Z</time></trkpt><trkpt lat="46.33051178555241" lon="9.486400250904827"><ele>607.3333333333334</ele><time>2026-05-01T12:12:46.999Z</time></trkpt><trkpt lat="46.330611334893604" lon="9.486583568543525"><ele>606.0</ele><time>2026-05-01T12:12:47.999Z</time></trkpt><trkpt lat="46.330725279811304" lon="9.486735977170172"><ele>610.5</ele><time>2026-05-01T12:12:48.999Z</time></trkpt><trkpt lat="46.3308506665051" lon="9.486853253330494"><ele>615.0</ele><time>2026-05-01T12:12:49.999Z</time></trkpt><trkpt lat="46.33093797584332" lon="9.486994894707548"><ele>619.5</ele><time>2026-05-01T12:12:50.999Z</time></trkpt><trkpt lat="46.331000442452215" lon="9.487133915748522"><ele>624.0</ele><time>2026-05-01T12:12:51.999Z</time></trkpt><trkpt lat="46.33101584727884" lon="9.487274707465897"><ele>624.0</ele><time>2026-05-01T12:12:52.999Z</time></trkpt><trkpt lat="46.33115933961443" lon="9.487352286394025"><ele>624.0</ele><time>2026-05-01T12:12:53.999Z</time></trkpt><trkpt lat="46.33113402873444" lon="9.487510059667933"><ele>624.0</ele><time>2026-05-01T12:12:54.999Z</time></trkpt><trkpt lat="46.33110467629552" lon="9.487643311998482"><ele>624.0</ele><time>2026-05-01T12:12:55.999Z</time></trkpt><trkpt lat="46.33098535200733" lon="9.487814118678624"><ele>624.0</ele><time>2026-05-01T12:12:56.999Z</time></trkpt><trkpt lat="46.33082686833823" lon="9.487899232887479"><ele>624.0</ele><time>2026-05-01T12:12:57.999Z</time></trkpt><trkpt lat="46.33074319624417" lon="9.48813710071258"><ele>624.0</ele><time>2026-05-01T12:12:58.999Z</time></trkpt><trkpt lat="46.330661222445784" lon="9.488371378839544"><ele>623.25</ele><time>2026-05-01T12:12:59.999Z</time></trkpt><trkpt lat="46.33059666299068" lon="9.488591726064335"><ele>622.5</ele><time>2026-05-01T12:13:00.999Z</time></trkpt><trkpt lat="46.33053668796377" lon="9.488701836819235"><ele>621.75</ele><time>2026-05-01T12:13:01.999Z</time></trkpt><trkpt lat="46.33051775664629" lon="9.48882257761757"><ele>621.0</ele><time>2026-05-01T12:13:02.999Z</time></trkpt><trkpt lat="46.33038014351173" lon="9.489155383620917"><ele>621.0</ele><time>2026-05-01T12:13:03.999Z</time></trkpt><trkpt lat="46.33033928399367" lon="9.489327770274043"><ele>621.0</ele><time>2026-05-01T12:13:04.999Z</time></trkpt><trkpt lat="46.3302820630051" lon="9.489490458126523"><ele>621.0</ele><time>2026-05-01T12:13:05.999Z</time></trkpt><trkpt lat="46.33022804017634" lon="9.489683150983957"><ele>621.0</ele><time>2026-05-01T12:13:06.999Z</time></trkpt><trkpt lat="46.330212240740124" lon="9.489885541517971"><ele>622.3333333333334</ele><time>2026-05-01T12:13:07.999Z</time></trkpt><trkpt lat="46.33021307055698" lon="9.490107191479714"><ele>623.6666666666667</ele><time>2026-05-01T12:13:08.999Z</time></trkpt><trkpt lat="46.33023416869417" lon="9.490321935700411"><ele>625.0</ele><time>2026-05-01T12:13:09.999Z</time></trkpt><trkpt lat="46.33024196433417" lon="9.490542782766536"><ele>625.25</ele><time>2026-05-01T12:13:10.999Z</time></trkpt><trkpt lat="46.33027322755271" lon="9.490744840176344"><ele>625.5</ele><time>2026-05-01T12:13:11.999Z</time></trkpt><trkpt lat="46.330329737562074" lon="9.490923186804954"><ele>625.75</ele><time>2026-05-01T12:13:12.999Z</time></trkpt><trkpt lat="46.3304216997547" lon="9.491060401224187"><ele>626.0</ele><time>2026-05-01T12:13:13.999Z</time></trkpt><trkpt lat="46.33053840197215" lon="9.491182309050135"><ele>628.75</ele><time>2026-05-01T12:13:14.999Z</time></trkpt><trkpt lat="46.330683661176586" lon="9.491258551335111"><ele>631.5</ele><time>2026-05-01T12:13:15.999Z</time></trkpt><trkpt lat="46.33083010529187" lon="9.491315582770538"><ele>634.25</ele><time>2026-05-01T12:13:16.999Z</time></trkpt><trkpt lat="46.3309663433096" lon="9.4913586550283"><ele>637.0</ele><time>2026-05-01T12:13:17.999Z</time></trkpt><trkpt lat="46.331082136649684" lon="9.491422319295747"><ele>637.0</ele><time>2026-05-01T12:13:18.999Z</time></trkpt><trkpt lat="46.331190094667576" lon="9.491495478787131"><ele>637.0</ele><time>2026-05-01T12:13:19.999Z</time></trkpt><trkpt lat="46.33128248802501" lon="9.491585805307583"><ele>637.0</ele><time>2026-05-01T12:13:20.999Z</time></trkpt><trkpt lat="46.3313432656866" lon="9.491713530669015"><ele>637.0</ele><time>2026-05-01T12:13:21.999Z</time></trkpt><trkpt lat="46.331387307874174" lon="9.491835120935248"><ele>637.0</ele><time>2026-05-01T12:13:22.999Z</time></trkpt><trkpt lat="46.33135235864537" lon="9.491994526390357"><ele>635.25</ele><time>2026-05-01T12:13:23.999Z</time></trkpt><trkpt lat="46.331328043753686" lon="9.492148309568288"><ele>633.5</ele><time>2026-05-01T12:13:24.999Z</time></trkpt><trkpt lat="46.33128916877055" lon="9.492323220492114"><ele>631.75</ele><time>2026-05-01T12:13:25.999Z</time></trkpt><trkpt lat="46.33124504164186" lon="9.492533824948431"><ele>630.0</ele><time>2026-05-01T12:13:26.999Z</time></trkpt><trkpt lat="46.33120282048039" lon="9.492722762658078"><ele>630.0</ele><time>2026-05-01T12:13:27.999Z</time></trkpt><trkpt lat="46.331160172682225" lon="9.492920700562875"><ele>630.0</ele><time>2026-05-01T12:13:28.999Z</time></trkpt><trkpt lat="46.33112411278225" lon="9.493130899673247"><ele>630.0</ele><time>2026-05-01T12:13:29.999Z</time></trkpt><trkpt lat="46.331102029895035" lon="9.49333730302346"><ele>630.0</ele><time>2026-05-01T12:13:30.999Z</time></trkpt><trkpt lat="46.33111448505929" lon="9.493544023409736"><ele>631.3333333333334</ele><time>2026-05-01T12:13:31.999Z</time></trkpt><trkpt lat="46.33115126218712" lon="9.493763570100333"><ele>632.6666666666667</ele><time>2026-05-01T12:13:32.999Z</time></trkpt><trkpt lat="46.33119552106556" lon="9.493978165373587"><ele>634.0</ele><time>2026-05-01T12:13:33.999Z</time></trkpt><trkpt lat="46.331240847831914" lon="9.494192886605722"><ele>634.0</ele><time>2026-05-01T12:13:34.999Z</time></trkpt><trkpt lat="46.331265682440545" lon="9.494405518753597"><ele>634.0</ele><time>2026-05-01T12:13:35.999Z</time></trkpt><trkpt lat="46.33129029695409" lon="9.494655558065658"><ele>634.0</ele><time>2026-05-01T12:13:36.999Z</time></trkpt><trkpt lat="46.3313107860033" lon="9.494974591620078"><ele>634.0</ele><time>2026-05-01T12:13:37.999Z</time></trkpt><trkpt lat="46.33131961839177" lon="9.495287018882085"><ele>634.0</ele><time>2026-05-01T12:13:39.999Z</time></trkpt><trkpt lat="46.331324255065" lon="9.495523738448671"><ele>634.0</ele><time>2026-05-01T12:13:40.999Z</time></trkpt><trkpt lat="46.331336417247435" lon="9.495765230659288"><ele>634.0</ele><time>2026-05-01T12:13:41.999Z</time></trkpt><trkpt lat="46.3313030158828" lon="9.495988037606"><ele>634.0</ele><time>2026-05-01T12:13:42.999Z</time></trkpt><trkpt lat="46.33126446584884" lon="9.496208447693867"><ele>634.0</ele><time>2026-05-01T12:13:43.999Z</time></trkpt><trkpt lat="46.33122051136489" lon="9.496435861930394"><ele>634.0</ele><time>2026-05-01T12:13:44.999Z</time></trkpt><trkpt lat="46.33117511271514" lon="9.4966659839417"><ele>634.0</ele><time>2026-05-01T12:13:45.999Z</time></trkpt><trkpt lat="46.3311305797262" lon="9.496886280183977"><ele>634.0</ele><time>2026-05-01T12:13:46.999Z</time></trkpt><trkpt lat="46.33109470368166" lon="9.497120218391448"><ele>634.3333333333334</ele><time>2026-05-01T12:13:47.999Z</time></trkpt><trkpt lat="46.331090545266086" lon="9.497352650709104"><ele>634.6666666666666</ele><time>2026-05-01T12:13:48.999Z</time></trkpt><trkpt lat="46.33108398816475" lon="9.497584882875481"><ele>635.0</ele><time>2026-05-01T12:13:49.999Z</time></trkpt><trkpt lat="46.331100890812515" lon="9.497830958802219"><ele>634.3333333333333</ele><time>2026-05-01T12:13:50.999Z</time></trkpt><trkpt lat="46.331118369685825" lon="9.498073725471318"><ele>633.6666666666666</ele><time>2026-05-01T12:13:51.999Z</time></trkpt><trkpt lat="46.331134406458496" lon="9.498321325743731"><ele>633.0</ele><time>2026-05-01T12:13:52.999Z</time></trkpt><trkpt lat="46.331148219548936" lon="9.498569448932985"><ele>633.6666666666666</ele><time>2026-05-01T12:13:53.999Z</time></trkpt><trkpt lat="46.33115779255153" lon="9.498825397069396"><ele>634.3333333333333</ele><time>2026-05-01T12:13:54.999Z</time></trkpt><trkpt lat="46.33117484247793" lon="9.49907981752445"><ele>635.0</ele><time>2026-05-01T12:13:55.999Z</time></trkpt><trkpt lat="46.331203801565096" lon="9.499355076907353"><ele>633.3333333333333</ele><time>2026-05-01T12:13:56.999Z</time></trkpt><trkpt lat="46.33125666841924" lon="9.499646080937353"><ele>631.6666666666666</ele><time>2026-05-01T12:13:57.999Z</time></trkpt><trkpt lat="46.33132284602428" lon="9.499940233541812"><ele>630.0</ele><time>2026-05-01T12:13:58.999Z</time></trkpt><trkpt lat="46.331390123747475" lon="9.50021838507814"><ele>640.0</ele><time>2026-05-01T12:13:59.999Z</time></trkpt><trkpt lat="46.3314401549444" lon="9.500522513097247"><ele>650.0</ele><time>2026-05-01T12:14:00.999Z</time></trkpt><trkpt lat="46.3314868391808" lon="9.500804469926166"><ele>660.0</ele><time>2026-05-01T12:14:01.999Z</time></trkpt><trkpt lat="46.331510711430155" lon="9.501105798160257"><ele>658.5</ele><time>2026-05-01T12:14:02.999Z</time></trkpt><trkpt lat="46.33153302517818" lon="9.501423102559217"><ele>657.0</ele><time>2026-05-01T12:14:03.999Z</time></trkpt><trkpt lat="46.331551874661066" lon="9.501764385020618"><ele>655.5</ele><time>2026-05-01T12:14:04.999Z</time></trkpt><trkpt lat="46.33161097485001" lon="9.502114075276983"><ele>654.0</ele><time>2026-05-01T12:14:05.999Z</time></trkpt><trkpt lat="46.33163563216988" lon="9.50245215964345"><ele>654.0</ele><time>2026-05-01T12:14:06.999Z</time></trkpt><trkpt lat="46.33166405109808" lon="9.502756168583643"><ele>654.0</ele><time>2026-05-01T12:14:07.999Z</time></trkpt><trkpt lat="46.331687610164295" lon="9.503041190608053"><ele>654.0</ele><time>2026-05-01T12:14:08.999Z</time></trkpt><trkpt lat="46.33169147003788" lon="9.50331941343579"><ele>655.0</ele><time>2026-05-01T12:14:09.999Z</time></trkpt><trkpt lat="46.33165363839502" lon="9.503586287553356"><ele>656.0</ele><time>2026-05-01T12:14:10.999Z</time></trkpt><trkpt lat="46.331606230811744" lon="9.503863195103627"><ele>657.0</ele><time>2026-05-01T12:14:11.999Z</time></trkpt><trkpt lat="46.3315667407982" lon="9.504155761655008"><ele>658.0</ele><time>2026-05-01T12:14:12.999Z</time></trkpt><trkpt lat="46.33156913808537" lon="9.504464372737038"><ele>659.0</ele><time>2026-05-01T12:14:13.999Z</time></trkpt><trkpt lat="46.33160775333855" lon="9.504789822076463"><ele>660.0</ele><time>2026-05-01T12:14:14.999Z</time></trkpt><trkpt lat="46.33165573125425" lon="9.505119091363593"><ele>661.3333333333334</ele><time>2026-05-01T12:14:15.999Z</time></trkpt><trkpt lat="46.3316830726754" lon="9.505403705542419"><ele>662.6666666666667</ele><time>2026-05-01T12:14:16.999Z</time></trkpt><trkpt lat="46.33171312369207" lon="9.50567336068408"><ele>664.0</ele><time>2026-05-01T12:14:17.999Z</time></trkpt><trkpt lat="46.331744317555746" lon="9.505953633672007"><ele>664.6666666666667</ele><time>2026-05-01T12:14:18.999Z</time></trkpt><trkpt lat="46.33178632312155" lon="9.506208485535575"><ele>665.3333333333334</ele><time>2026-05-01T12:14:19.999Z</time></trkpt><trkpt lat="46.33180007245997" lon="9.506462336202034"><ele>666.0</ele><time>2026-05-01T12:14:20.999Z</time></trkpt><trkpt lat="46.33181575924174" lon="9.506605963742336"><ele>664.0</ele><time>2026-05-01T12:14:21.999Z</time></trkpt><trkpt lat="46.3318320244219" lon="9.506754887086707"><ele>662.0</ele><time>2026-05-01T12:14:22.999Z</time></trkpt><trkpt lat="46.33185118896761" lon="9.50693090083124"><ele>660.0</ele><time>2026-05-01T12:14:23.999Z</time></trkpt><trkpt lat="46.331885613034544" lon="9.50722169613235"><ele>658.0</ele><time>2026-05-01T12:14:24.999Z</time></trkpt><trkpt lat="46.33197218143105" lon="9.507720955432205"><ele>654.3333333333334</ele><time>2026-05-01T12:14:25.999Z</time></trkpt><trkpt lat="46.33201625000379" lon="9.507948942781862"><ele>650.6666666666666</ele><time>2026-05-01T12:14:27Z</time></trkpt><trkpt lat="46.332101591935825" lon="9.508157556235426"><ele>647.0</ele><time>2026-05-01T12:14:28Z</time></trkpt><trkpt lat="46.33227079779597" lon="9.508315051280555"><ele>658.0</ele><time>2026-05-01T12:14:29Z</time></trkpt><trkpt lat="46.3323648664937" lon="9.50853595843609"><ele>669.0</ele><time>2026-05-01T12:14:30Z</time></trkpt><trkpt lat="46.33242009342749" lon="9.508796475526152"><ele>680.0</ele><time>2026-05-01T12:14:31Z</time></trkpt><trkpt lat="46.33245728390147" lon="9.509045920445617"><ele>680.0</ele><time>2026-05-01T12:14:32Z</time></trkpt><trkpt lat="46.332473363115255" lon="9.509278616918134"><ele>680.0</ele><time>2026-05-01T12:14:33Z</time></trkpt><trkpt lat="46.33246837240741" lon="9.509455772432625"><ele>680.0</ele><time>2026-05-01T12:14:34Z</time></trkpt><trkpt lat="46.33246156029385" lon="9.509588052544146"><ele>680.0</ele><time>2026-05-01T12:14:35Z</time></trkpt><trkpt lat="46.33244867410027" lon="9.509692193265641"><ele>680.0</ele><time>2026-05-01T12:14:36Z</time></trkpt><trkpt lat="46.33243355475377" lon="9.509789222493483"><ele>679.0</ele><time>2026-05-01T12:14:37Z</time></trkpt><trkpt lat="46.33238928997292" lon="9.5098676790917"><ele>678.0</ele><time>2026-05-01T12:14:38Z</time></trkpt><trkpt lat="46.33238585609725" lon="9.50997169591138"><ele>677.0</ele><time>2026-05-01T12:14:39Z</time></trkpt><trkpt lat="46.33235997199705" lon="9.510095804518572"><ele>676.0</ele><time>2026-05-01T12:14:40Z</time></trkpt><trkpt lat="46.33233369568735" lon="9.510252016290075"><ele>675.0</ele><time>2026-05-01T12:14:41Z</time></trkpt><trkpt lat="46.33230674145421" lon="9.510438168713149"><ele>674.25</ele><time>2026-05-01T12:14:42Z</time></trkpt><trkpt lat="46.332281442744545" lon="9.51064602148877"><ele>673.5</ele><time>2026-05-01T12:14:43Z</time></trkpt><trkpt lat="46.33225952962945" lon="9.510850168091915"><ele>672.75</ele><time>2026-05-01T12:14:44Z</time></trkpt><trkpt lat="46.33224551861754" lon="9.511042644773754"><ele>672.0</ele><time>2026-05-01T12:14:45Z</time></trkpt><trkpt lat="46.332239071431545" lon="9.511241307031497"><ele>670.5</ele><time>2026-05-01T12:14:46Z</time></trkpt><trkpt lat="46.33225228651135" lon="9.511441246981768"><ele>669.0</ele><time>2026-05-01T12:14:47Z</time></trkpt><trkpt lat="46.332271052273406" lon="9.511634089306268"><ele>667.5</ele><time>2026-05-01T12:14:48Z</time></trkpt><trkpt lat="46.332278432155704" lon="9.511841496290751"><ele>666.0</ele><time>2026-05-01T12:14:49Z</time></trkpt><trkpt lat="46.332301742872886" lon="9.512051263690394"><ele>665.75</ele><time>2026-05-01T12:14:50Z</time></trkpt><trkpt lat="46.332321869236466" lon="9.51224663664978"><ele>665.5</ele><time>2026-05-01T12:14:51Z</time></trkpt><trkpt lat="46.33234655296653" lon="9.51243338439112"><ele>665.25</ele><time>2026-05-01T12:14:52Z</time></trkpt><trkpt lat="46.33238125493464" lon="9.512608094017125"><ele>665.0</ele><time>2026-05-01T12:14:53Z</time></trkpt><trkpt lat="46.33241769582472" lon="9.512762565441143"><ele>665.4</ele><time>2026-05-01T12:14:54Z</time></trkpt><trkpt lat="46.33245611752233" lon="9.512908855957253"><ele>665.8</ele><time>2026-05-01T12:14:55Z</time></trkpt><trkpt lat="46.332493310499125" lon="9.513051371465577"><ele>666.2</ele><time>2026-05-01T12:14:56Z</time></trkpt><trkpt lat="46.33253228126568" lon="9.51318874181139"><ele>666.6</ele><time>2026-05-01T12:14:57Z</time></trkpt><trkpt lat="46.332569911302954" lon="9.513328851939116"><ele>667.0</ele><time>2026-05-01T12:14:58Z</time></trkpt><trkpt lat="46.33260653989703" lon="9.513454607344137"><ele>667.0</ele><time>2026-05-01T12:14:59Z</time></trkpt><trkpt lat="46.33264250012875" lon="9.513565308216801"><ele>667.0</ele><time>2026-05-01T12:15:00Z</time></trkpt><trkpt lat="46.332671139491225" lon="9.513663186619446"><ele>667.0</ele><time>2026-05-01T12:15:01Z</time></trkpt><trkpt lat="46.332700514197114" lon="9.513774844759288"><ele>667.0</ele><time>2026-05-01T12:15:02Z</time></trkpt><trkpt lat="46.33273496291302" lon="9.51387811503988"><ele>667.0</ele><time>2026-05-01T12:15:03Z</time></trkpt><trkpt lat="46.33277233361885" lon="9.513987873759886"><ele>667.0</ele><time>2026-05-01T12:15:04Z</time></trkpt><trkpt lat="46.33280493824313" lon="9.514090592210929"><ele>667.6666666666667</ele><time>2026-05-01T12:15:05Z</time></trkpt><trkpt lat="46.33283290979627" lon="9.514182259740354"><ele>668.3333333333334</ele><time>2026-05-01T12:15:06Z</time></trkpt><trkpt lat="46.33285498578176" lon="9.51427017959445"><ele>669.0</ele><time>2026-05-01T12:15:07Z</time></trkpt><trkpt lat="46.33287370489988" lon="9.51436141711983"><ele>669.6666666666666</ele><time>2026-05-01T12:15:08Z</time></trkpt><trkpt lat="46.332896764471506" lon="9.514449528539604"><ele>670.3333333333333</ele><time>2026-05-01T12:15:09Z</time></trkpt><trkpt lat="46.332936409775684" lon="9.514632597591662"><ele>671.0</ele><time>2026-05-01T12:15:11Z</time></trkpt><trkpt lat="46.332957591993676" lon="9.51472675228281"><ele>672.3333333333333</ele><time>2026-05-01T12:15:12Z</time></trkpt><trkpt lat="46.33296826017601" lon="9.514832848650912"><ele>673.6666666666666</ele><time>2026-05-01T12:15:13Z</time></trkpt><trkpt lat="46.33296385563702" lon="9.51496063828246"><ele>675.0</ele><time>2026-05-01T12:15:14Z</time></trkpt><trkpt lat="46.332959695650786" lon="9.515066162422361"><ele>676.3333333333334</ele><time>2026-05-01T12:15:15Z</time></trkpt><trkpt lat="46.33294700131574" lon="9.515157395381431"><ele>677.6666666666667</ele><time>2026-05-01T12:15:16Z</time></trkpt><trkpt lat="46.332890380027806" lon="9.51532465808757"><ele>679.0</ele><time>2026-05-01T12:15:18Z</time></trkpt><trkpt lat="46.332861723314586" lon="9.515422681762358"><ele>680.0</ele><time>2026-05-01T12:15:19Z</time></trkpt><trkpt lat="46.332857359581986" lon="9.51554197048257"><ele>681.0</ele><time>2026-05-01T12:15:19.999Z</time></trkpt><trkpt lat="46.3328899388399" lon="9.515665792247601"><ele>682.0</ele><time>2026-05-01T12:15:20.999Z</time></trkpt><trkpt lat="46.332915931949465" lon="9.515797934353783"><ele>683.0</ele><time>2026-05-01T12:15:21.999Z</time></trkpt><trkpt lat="46.33293641787945" lon="9.515927189112698"><ele>684.0</ele><time>2026-05-01T12:15:22.999Z</time></trkpt><trkpt lat="46.33294563332641" lon="9.516073342936485"><ele>684.25</ele><time>2026-05-01T12:15:23.999Z</time></trkpt><trkpt lat="46.3329580897181" lon="9.516237763250983"><ele>684.5</ele><time>2026-05-01T12:15:24.999Z</time></trkpt><trkpt lat="46.3329763419034" lon="9.516409200296046"><ele>684.75</ele><time>2026-05-01T12:15:25.999Z</time></trkpt><trkpt lat="46.33299292959451" lon="9.516590884132972"><ele>685.0</ele><time>2026-05-01T12:15:26.999Z</time></trkpt><trkpt lat="46.33302102402634" lon="9.516772256546911"><ele>685.0</ele><time>2026-05-01T12:15:28Z</time></trkpt><trkpt lat="46.333048575565094" lon="9.516948367982538"><ele>685.0</ele><time>2026-05-01T12:15:29Z</time></trkpt><trkpt lat="46.333079461531156" lon="9.517140254889094"><ele>685.0</ele><time>2026-05-01T12:15:30Z</time></trkpt><trkpt lat="46.33312362133129" lon="9.517327144389956"><ele>685.0</ele><time>2026-05-01T12:15:31Z</time></trkpt><trkpt lat="46.333164302961514" lon="9.517510786278736"><ele>686.6666666666667</ele><time>2026-05-01T12:15:32Z</time></trkpt><trkpt lat="46.33320700622369" lon="9.517697963468324"><ele>688.3333333333334</ele><time>2026-05-01T12:15:33Z</time></trkpt><trkpt lat="46.333275834084596" lon="9.517924575846765"><ele>690.0</ele><time>2026-05-01T12:15:34Z</time></trkpt><trkpt lat="46.33335183191327" lon="9.51816994663203"><ele>690.25</ele><time>2026-05-01T12:15:35Z</time></trkpt><trkpt lat="46.3333964464254" lon="9.518369392621981"><ele>690.5</ele><time>2026-05-01T12:15:36Z</time></trkpt><trkpt lat="46.3334337294644" lon="9.518558108285896"><ele>690.75</ele><time>2026-05-01T12:15:37Z</time></trkpt><trkpt lat="46.3334791163397" lon="9.518748266723115"><ele>691.0</ele><time>2026-05-01T12:15:38Z</time></trkpt><trkpt lat="46.33353818412392" lon="9.518969509551264"><ele>694.6666666666667</ele><time>2026-05-01T12:15:39Z</time></trkpt><trkpt lat="46.3336316307128" lon="9.519261447635753"><ele>698.3333333333334</ele><time>2026-05-01T12:15:40Z</time></trkpt><trkpt lat="46.33371182541269" lon="9.519527117776606"><ele>702.0</ele><time>2026-05-01T12:15:41Z</time></trkpt><trkpt lat="46.33378017281821" lon="9.519760487450084"><ele>702.6666666666666</ele><time>2026-05-01T12:15:42Z</time></trkpt><trkpt lat="46.333845939533504" lon="9.519979982024598"><ele>703.3333333333333</ele><time>2026-05-01T12:15:43Z</time></trkpt><trkpt lat="46.333920181665114" lon="9.520198764373676"><ele>704.0</ele><time>2026-05-01T12:15:44Z</time></trkpt><trkpt lat="46.33398770122906" lon="9.520393081556502"><ele>705.0</ele><time>2026-05-01T12:15:45Z</time></trkpt><trkpt lat="46.33403101316416" lon="9.520590946762344"><ele>706.0</ele><time>2026-05-01T12:15:46Z</time></trkpt><trkpt lat="46.33421874007223" lon="9.520713736876944"><ele>707.0</ele><time>2026-05-01T12:15:47Z</time></trkpt><trkpt lat="46.3342876816173" lon="9.520873912470565"><ele>707.0</ele><time>2026-05-01T12:15:48Z</time></trkpt><trkpt lat="46.334301255790265" lon="9.521085301711821"><ele>707.0</ele><time>2026-05-01T12:15:49Z</time></trkpt><trkpt lat="46.33430405611341" lon="9.521288449465425"><ele>707.0</ele><time>2026-05-01T12:15:50Z</time></trkpt><trkpt lat="46.33429435814922" lon="9.521499382770191"><ele>707.0</ele><time>2026-05-01T12:15:51Z</time></trkpt><trkpt lat="46.33427252262194" lon="9.521703403741112"><ele>709.0</ele><time>2026-05-01T12:15:52Z</time></trkpt><trkpt lat="46.33423422944129" lon="9.521912612312185"><ele>711.0</ele><time>2026-05-01T12:15:53Z</time></trkpt><trkpt lat="46.33421629673707" lon="9.522127716795652"><ele>713.0</ele><time>2026-05-01T12:15:54Z</time></trkpt><trkpt lat="46.33415811499248" lon="9.522322985439269"><ele>715.0</ele><time>2026-05-01T12:15:55Z</time></trkpt><trkpt lat="46.334107455567455" lon="9.522527460398956"><ele>718.6666666666667</ele><time>2026-05-01T12:15:56Z</time></trkpt><trkpt lat="46.33404943664761" lon="9.522733491160349"><ele>722.3333333333334</ele><time>2026-05-01T12:15:57Z</time></trkpt><trkpt lat="46.33398772639103" lon="9.522949067793096"><ele>726.0</ele><time>2026-05-01T12:15:58Z</time></trkpt><trkpt lat="46.333942413536185" lon="9.523174382021708"><ele>728.0</ele><time>2026-05-01T12:15:59Z</time></trkpt><trkpt lat="46.33388511938418" lon="9.523392371889202"><ele>730.0</ele><time>2026-05-01T12:16:00Z</time></trkpt><trkpt lat="46.333844521793395" lon="9.523622362528707"><ele>732.0</ele><time>2026-05-01T12:16:01Z</time></trkpt><trkpt lat="46.33382281063822" lon="9.523871828187481"><ele>733.3333333333334</ele><time>2026-05-01T12:16:02Z</time></trkpt><trkpt lat="46.333815724761976" lon="9.524127458518361"><ele>734.6666666666667</ele><time>2026-05-01T12:16:03Z</time></trkpt><trkpt lat="46.33382222292001" lon="9.524390696041184"><ele>736.0</ele><time>2026-05-01T12:16:04Z</time></trkpt><trkpt lat="46.333835496302925" lon="9.524656332979204"><ele>737.3333333333334</ele><time>2026-05-01T12:16:05Z</time></trkpt><trkpt lat="46.33382850763147" lon="9.524918690602615"><ele>738.6666666666666</ele><time>2026-05-01T12:16:06Z</time></trkpt><trkpt lat="46.33382497583877" lon="9.525176001950944"><ele>740.0</ele><time>2026-05-01T12:16:07Z</time></trkpt><trkpt lat="46.33378806023813" lon="9.52541862905703"><ele>741.0</ele><time>2026-05-01T12:16:08Z</time></trkpt><trkpt lat="46.33371942427926" lon="9.525646860553769"><ele>742.0</ele><time>2026-05-01T12:16:09Z</time></trkpt><trkpt lat="46.33361906043307" lon="9.525868483186857"><ele>743.0</ele><time>2026-05-01T12:16:10Z</time></trkpt><trkpt lat="46.333497365465064" lon="9.526127339718517"><ele>744.6666666666666</ele><time>2026-05-01T12:16:11Z</time></trkpt><trkpt lat="46.33338053669578" lon="9.526375208162381"><ele>746.3333333333334</ele><time>2026-05-01T12:16:12Z</time></trkpt><trkpt lat="46.33329105826753" lon="9.52659729873347"><ele>748.0</ele><time>2026-05-01T12:16:13Z</time></trkpt><trkpt lat="46.33321637574911" lon="9.52680310458291"><ele>748.0</ele><time>2026-05-01T12:16:14Z</time></trkpt><trkpt lat="46.33318945932109" lon="9.527023802584356"><ele>748.0</ele><time>2026-05-01T12:16:15Z</time></trkpt><trkpt lat="46.33319911590193" lon="9.52725559028512"><ele>748.0</ele><time>2026-05-01T12:16:16Z</time></trkpt><trkpt lat="46.33324257446578" lon="9.52750740250531"><ele>751.3333333333334</ele><time>2026-05-01T12:16:17Z</time></trkpt><trkpt lat="46.3332625532789" lon="9.527768922720119"><ele>754.6666666666666</ele><time>2026-05-01T12:16:18Z</time></trkpt><trkpt lat="46.33329792975638" lon="9.528025478196158"><ele>758.0</ele><time>2026-05-01T12:16:19Z</time></trkpt><trkpt lat="46.33333219529203" lon="9.528257987062565"><ele>762.0</ele><time>2026-05-01T12:16:20Z</time></trkpt><trkpt lat="46.333366341255115" lon="9.52848968364123"><ele>766.0</ele><time>2026-05-01T12:16:21Z</time></trkpt><trkpt lat="46.333439070207" lon="9.528958982079821"><ele>766.0</ele><time>2026-05-01T12:16:22Z</time></trkpt><trkpt lat="46.33347735046239" lon="9.529283349482965"><ele>766.0</ele><time>2026-05-01T12:16:23Z</time></trkpt><trkpt lat="46.33348669116127" lon="9.529570576252471"><ele>766.0</ele><time>2026-05-01T12:16:24Z</time></trkpt><trkpt lat="46.333467712342454" lon="9.529834368924623"><ele>766.0</ele><time>2026-05-01T12:16:25Z</time></trkpt><trkpt lat="46.33343954838282" lon="9.53010987346574"><ele>766.0</ele><time>2026-05-01T12:16:26Z</time></trkpt><trkpt lat="46.33343515898362" lon="9.53033501673875"><ele>766.0</ele><time>2026-05-01T12:16:27Z</time></trkpt><trkpt lat="46.33345753761797" lon="9.530576596276727"><ele>766.0</ele><time>2026-05-01T12:16:28Z</time></trkpt><trkpt lat="46.333471787591954" lon="9.530804141016997"><ele>766.0</ele><time>2026-05-01T12:16:29Z</time></trkpt><trkpt lat="46.33350746508343" lon="9.531032250447986"><ele>766.0</ele><time>2026-05-01T12:16:30Z</time></trkpt><trkpt lat="46.333560594043576" lon="9.531252557842127"><ele>765.6666666666667</ele><time>2026-05-01T12:16:31Z</time></trkpt><trkpt lat="46.33364994514182" lon="9.531451255967148"><ele>765.3333333333334</ele><time>2026-05-01T12:16:32Z</time></trkpt><trkpt lat="46.333771593483704" lon="9.531638997363858"><ele>765.0</ele><time>2026-05-01T12:16:33Z</time></trkpt><trkpt lat="46.33391827605206" lon="9.531804461438986"><ele>767.6666666666667</ele><time>2026-05-01T12:16:34Z</time></trkpt><trkpt lat="46.334046845809176" lon="9.531967140643191"><ele>770.3333333333334</ele><time>2026-05-01T12:16:35Z</time></trkpt><trkpt lat="46.334167773829556" lon="9.53212574572462"><ele>773.0</ele><time>2026-05-01T12:16:36Z</time></trkpt><trkpt lat="46.33428350238729" lon="9.532292551505778"><ele>773.0</ele><time>2026-05-01T12:16:37Z</time></trkpt><trkpt lat="46.334377214660385" lon="9.532492276747364"><ele>773.0</ele><time>2026-05-01T12:16:38Z</time></trkpt><trkpt lat="46.33446935244116" lon="9.532703811613215"><ele>773.0</ele><time>2026-05-01T12:16:39Z</time></trkpt><trkpt lat="46.33453391409017" lon="9.532933838528248"><ele>771.0</ele><time>2026-05-01T12:16:40Z</time></trkpt><trkpt lat="46.334578852762746" lon="9.5331520343734"><ele>769.0</ele><time>2026-05-01T12:16:41Z</time></trkpt><trkpt lat="46.334607935274626" lon="9.533401215868762"><ele>767.0</ele><time>2026-05-01T12:16:42Z</time></trkpt><trkpt lat="46.33461615202503" lon="9.533665863604943"><ele>768.3333333333333</ele><time>2026-05-01T12:16:43Z</time></trkpt><trkpt lat="46.33459915145173" lon="9.533938473293999"><ele>769.6666666666666</ele><time>2026-05-01T12:16:44Z</time></trkpt><trkpt lat="46.33457140007459" lon="9.534203055206863"><ele>771.0</ele><time>2026-05-01T12:16:45Z</time></trkpt><trkpt lat="46.334541143679935" lon="9.53446132327317"><ele>772.6666666666667</ele><time>2026-05-01T12:16:46Z</time></trkpt><trkpt lat="46.334530213492776" lon="9.534718630641562"><ele>774.3333333333334</ele><time>2026-05-01T12:16:47Z</time></trkpt><trkpt lat="46.33448874011351" lon="9.534962120277825"><ele>776.0</ele><time>2026-05-01T12:16:48Z</time></trkpt><trkpt lat="46.33447755265755" lon="9.535203217980355"><ele>776.0</ele><time>2026-05-01T12:16:49Z</time></trkpt><trkpt lat="46.33445029171592" lon="9.535433511425628"><ele>776.0</ele><time>2026-05-01T12:16:50Z</time></trkpt><trkpt lat="46.33441988735855" lon="9.53565948253951"><ele>776.0</ele><time>2026-05-01T12:16:51Z</time></trkpt><trkpt lat="46.33438725626428" lon="9.535884943702484"><ele>776.0</ele><time>2026-05-01T12:16:52Z</time></trkpt><trkpt lat="46.33438454468352" lon="9.536127232389665"><ele>776.0</ele><time>2026-05-01T12:16:53Z</time></trkpt><trkpt lat="46.334368270111376" lon="9.536377739796158"><ele>776.0</ele><time>2026-05-01T12:16:54Z</time></trkpt><trkpt lat="46.33436469698233" lon="9.536625088169785"><ele>776.0</ele><time>2026-05-01T12:16:55Z</time></trkpt><trkpt lat="46.33436551736799" lon="9.53686964089877"><ele>776.0</ele><time>2026-05-01T12:16:56Z</time></trkpt><trkpt lat="46.33437932143704" lon="9.537118656908063"><ele>776.0</ele><time>2026-05-01T12:16:57Z</time></trkpt><trkpt lat="46.334400778077296" lon="9.537373578765704"><ele>776.3333333333334</ele><time>2026-05-01T12:16:58Z</time></trkpt><trkpt lat="46.33440734744162" lon="9.53764219985846"><ele>776.6666666666667</ele><time>2026-05-01T12:16:59Z</time></trkpt><trkpt lat="46.33444511697169" lon="9.537908921349452"><ele>777.0</ele><time>2026-05-01T12:17:00Z</time></trkpt><trkpt lat="46.33449402879067" lon="9.538129741351444"><ele>778.3333333333333</ele><time>2026-05-01T12:17:01Z</time></trkpt><trkpt lat="46.334539769950965" lon="9.538295499547289"><ele>779.6666666666666</ele><time>2026-05-01T12:17:02Z</time></trkpt><trkpt lat="46.334590279183324" lon="9.53846791800681"><ele>781.0</ele><time>2026-05-01T12:17:03Z</time></trkpt><trkpt lat="46.33474712106086" lon="9.539002044894808"><ele>784.3333333333333</ele><time>2026-05-01T12:17:04Z</time></trkpt><trkpt lat="46.334841022810686" lon="9.539293216073844"><ele>787.6666666666667</ele><time>2026-05-01T12:17:05Z</time></trkpt><trkpt lat="46.33493089608978" lon="9.539584991565405"><ele>791.0</ele><time>2026-05-01T12:17:06Z</time></trkpt><trkpt lat="46.33503929288128" lon="9.539868210927626"><ele>791.0</ele><time>2026-05-01T12:17:07Z</time></trkpt><trkpt lat="46.3351593770994" lon="9.540150789633417"><ele>791.0</ele><time>2026-05-01T12:17:08Z</time></trkpt><trkpt lat="46.33527260432471" lon="9.540433691734785"><ele>788.3333333333334</ele><time>2026-05-01T12:17:09Z</time></trkpt><trkpt lat="46.3353738242252" lon="9.540707674146086"><ele>785.6666666666667</ele><time>2026-05-01T12:17:10Z</time></trkpt><trkpt lat="46.335473242601054" lon="9.540958807408666"><ele>783.0</ele><time>2026-05-01T12:17:11Z</time></trkpt><trkpt lat="46.33554786005416" lon="9.541207765953121"><ele>789.0</ele><time>2026-05-01T12:17:12Z</time></trkpt><trkpt lat="46.33561075217754" lon="9.5414560674913"><ele>795.0</ele><time>2026-05-01T12:17:13Z</time></trkpt><trkpt lat="46.3356680975972" lon="9.541723921304493"><ele>801.0</ele><time>2026-05-01T12:17:14Z</time></trkpt><trkpt lat="46.33572546177137" lon="9.541995498055273"><ele>798.3333333333333</ele><time>2026-05-01T12:17:15Z</time></trkpt><trkpt lat="46.335789620279336" lon="9.542257324634972"><ele>795.6666666666666</ele><time>2026-05-01T12:17:16Z</time></trkpt><trkpt lat="46.335869599006" lon="9.542512293180199"><ele>793.0</ele><time>2026-05-01T12:17:17Z</time></trkpt><trkpt lat="46.335975582129215" lon="9.54275702682878"><ele>790.3333333333333</ele><time>2026-05-01T12:17:18Z</time></trkpt><trkpt lat="46.336099118422496" lon="9.542993974652896"><ele>787.6666666666667</ele><time>2026-05-01T12:17:19Z</time></trkpt><trkpt lat="46.33621602170447" lon="9.543242246644821"><ele>785.0</ele><time>2026-05-01T12:17:20Z</time></trkpt><trkpt lat="46.33631593269695" lon="9.5434972938104"><ele>793.3333333333334</ele><time>2026-05-01T12:17:21Z</time></trkpt><trkpt lat="46.33639925201935" lon="9.54376498726261"><ele>801.6666666666667</ele><time>2026-05-01T12:17:22Z</time></trkpt><trkpt lat="46.33646505705684" lon="9.54405210630176"><ele>810.0</ele><time>2026-05-01T12:17:23Z</time></trkpt><trkpt lat="46.33651065842229" lon="9.5443397023536"><ele>810.6666666666667</ele><time>2026-05-01T12:17:24Z</time></trkpt><trkpt lat="46.33653177721797" lon="9.544629459194683"><ele>811.3333333333334</ele><time>2026-05-01T12:17:25Z</time></trkpt><trkpt lat="46.336534864767586" lon="9.544920909583842"><ele>812.0</ele><time>2026-05-01T12:17:26Z</time></trkpt><trkpt lat="46.33652023559952" lon="9.5452116020755"><ele>811.3333333333334</ele><time>2026-05-01T12:17:27Z</time></trkpt><trkpt lat="46.336475860567205" lon="9.54552805436013"><ele>810.6666666666667</ele><time>2026-05-01T12:17:28Z</time></trkpt><trkpt lat="46.336432702051624" lon="9.545796002034345"><ele>810.0</ele><time>2026-05-01T12:17:29Z</time></trkpt><trkpt lat="46.33637500434881" lon="9.546089693464076"><ele>802.0</ele><time>2026-05-01T12:17:30Z</time></trkpt><trkpt lat="46.33630818969465" lon="9.546373791512378"><ele>794.0</ele><time>2026-05-01T12:17:31Z</time></trkpt><trkpt lat="46.33624709864635" lon="9.546661286775246"><ele>786.0</ele><time>2026-05-01T12:17:32Z</time></trkpt><trkpt lat="46.336198216100634" lon="9.546942813552374"><ele>787.6666666666667</ele><time>2026-05-01T12:17:33Z</time></trkpt><trkpt lat="46.336149945058395" lon="9.547224366470651"><ele>789.3333333333334</ele><time>2026-05-01T12:17:34Z</time></trkpt><trkpt lat="46.33610629289615" lon="9.547497730963183"><ele>791.0</ele><time>2026-05-01T12:17:35Z</time></trkpt><trkpt lat="46.33606671013143" lon="9.54777927278372"><ele>791.3333333333334</ele><time>2026-05-01T12:17:36Z</time></trkpt><trkpt lat="46.3360437415477" lon="9.548068249150388"><ele>791.6666666666667</ele><time>2026-05-01T12:17:37Z</time></trkpt><trkpt lat="46.33602454252924" lon="9.548360807452546"><ele>792.0</ele><time>2026-05-01T12:17:38Z</time></trkpt><trkpt lat="46.33602644518915" lon="9.548656111827368"><ele>792.3333333333333</ele><time>2026-05-01T12:17:39Z</time></trkpt><trkpt lat="46.33604236908694" lon="9.548961239768902"><ele>792.6666666666666</ele><time>2026-05-01T12:17:40Z</time></trkpt><trkpt lat="46.33607131459926" lon="9.549267037750619"><ele>793.0</ele><time>2026-05-01T12:17:41Z</time></trkpt><trkpt lat="46.33610346828982" lon="9.54956228012393"><ele>793.6666666666666</ele><time>2026-05-01T12:17:42Z</time></trkpt><trkpt lat="46.33615696242071" lon="9.549848581515992"><ele>794.3333333333333</ele><time>2026-05-01T12:17:43Z</time></trkpt><trkpt lat="46.33622383700854" lon="9.550143149753472"><ele>795.0</ele><time>2026-05-01T12:17:44Z</time></trkpt><trkpt lat="46.33630877240478" lon="9.550437574182727"><ele>797.6666666666667</ele><time>2026-05-01T12:17:45Z</time></trkpt><trkpt lat="46.33640821843001" lon="9.55072989514234"><ele>800.3333333333334</ele><time>2026-05-01T12:17:46Z</time></trkpt><trkpt lat="46.33651661002152" lon="9.551013112200238"><ele>803.0</ele><time>2026-05-01T12:17:47Z</time></trkpt><trkpt lat="46.3366228601439" lon="9.551300217558047"><ele>803.0</ele><time>2026-05-01T12:17:48Z</time></trkpt><trkpt lat="46.336721059472715" lon="9.551551764200777"><ele>803.0</ele><time>2026-05-01T12:17:49Z</time></trkpt><trkpt lat="46.33679876159693" lon="9.551789117074048"><ele>803.0</ele><time>2026-05-01T12:17:50Z</time></trkpt><trkpt lat="46.33685117575529" lon="9.552000339883572"><ele>803.0</ele><time>2026-05-01T12:17:51Z</time></trkpt><trkpt lat="46.33688688086745" lon="9.552185477958723"><ele>803.0</ele><time>2026-05-01T12:17:52Z</time></trkpt><trkpt lat="46.336902662453525" lon="9.55233123336664"><ele>803.0</ele><time>2026-05-01T12:17:53Z</time></trkpt><trkpt lat="46.33690200376336" lon="9.552437745678906"><ele>803.0</ele><time>2026-05-01T12:17:54Z</time></trkpt><trkpt lat="46.3368747697276" lon="9.55255571346"><ele>803.0</ele><time>2026-05-01T12:17:56Z</time></trkpt><trkpt lat="46.33685212995623" lon="9.552708700255833"><ele>804.25</ele><time>2026-05-01T12:17:58Z</time></trkpt><trkpt lat="46.336878846014244" lon="9.552918285978274"><ele>805.5</ele><time>2026-05-01T12:18:00Z</time></trkpt><trkpt lat="46.33698658762368" lon="9.553080051773236"><ele>806.75</ele><time>2026-05-01T12:18:01Z</time></trkpt><trkpt lat="46.33707200200559" lon="9.55325051925008"><ele>808.0</ele><time>2026-05-01T12:18:02Z</time></trkpt><trkpt lat="46.33709262975483" lon="9.553375593164297"><ele>808.0</ele><time>2026-05-01T12:18:03Z</time></trkpt><trkpt lat="46.33706238827888" lon="9.55346856303809"><ele>808.0</ele><time>2026-05-01T12:18:04Z</time></trkpt><trkpt lat="46.33706011996621" lon="9.553615310747906"><ele>808.0</ele><time>2026-05-01T12:18:05Z</time></trkpt><trkpt lat="46.3370700083976" lon="9.553781008938824"><ele>808.0</ele><time>2026-05-01T12:18:06Z</time></trkpt><trkpt lat="46.33707579791768" lon="9.553953101968947"><ele>808.0</ele><time>2026-05-01T12:18:07Z</time></trkpt><trkpt lat="46.3370725232819" lon="9.554127081593482"><ele>808.0</ele><time>2026-05-01T12:18:08Z</time></trkpt><trkpt lat="46.33704962389139" lon="9.554286824446672"><ele>808.0</ele><time>2026-05-01T12:18:09Z</time></trkpt><trkpt lat="46.33703548731539" lon="9.554440360609803"><ele>808.0</ele><time>2026-05-01T12:18:10Z</time></trkpt><trkpt lat="46.33705195074432" lon="9.554633532487241"><ele>808.0</ele><time>2026-05-01T12:18:11Z</time></trkpt><trkpt lat="46.33704856430537" lon="9.554815855037543"><ele>808.0</ele><time>2026-05-01T12:18:12Z</time></trkpt><trkpt lat="46.33703985985891" lon="9.555002365972562"><ele>808.0</ele><time>2026-05-01T12:18:13Z</time></trkpt><trkpt lat="46.33702710160172" lon="9.555184872536675"><ele>808.0</ele><time>2026-05-01T12:18:14Z</time></trkpt><trkpt lat="46.337021381243694" lon="9.555374250931385"><ele>808.0</ele><time>2026-05-01T12:18:15Z</time></trkpt><trkpt lat="46.3370104174426" lon="9.555558299579623"><ele>809.25</ele><time>2026-05-01T12:18:16Z</time></trkpt><trkpt lat="46.336996911930804" lon="9.555735758816349"><ele>810.5</ele><time>2026-05-01T12:18:17Z</time></trkpt><trkpt lat="46.336988322333255" lon="9.555901966737176"><ele>811.75</ele><time>2026-05-01T12:18:18Z</time></trkpt><trkpt lat="46.336977379920064" lon="9.556056989394557"><ele>813.0</ele><time>2026-05-01T12:18:19Z</time></trkpt><trkpt lat="46.336971314498385" lon="9.55622370479207"><ele>815.25</ele><time>2026-05-01T12:18:20Z</time></trkpt><trkpt lat="46.33696709714137" lon="9.556394038061141"><ele>817.5</ele><time>2026-05-01T12:18:21Z</time></trkpt><trkpt lat="46.33696995428288" lon="9.556562701636052"><ele>819.75</ele><time>2026-05-01T12:18:22Z</time></trkpt><trkpt lat="46.336973430013295" lon="9.556725399232137"><ele>822.0</ele><time>2026-05-01T12:18:23Z</time></trkpt><trkpt lat="46.336966057368635" lon="9.556892443099795"><ele>825.75</ele><time>2026-05-01T12:18:24Z</time></trkpt><trkpt lat="46.33698346841897" lon="9.557062623167461"><ele>829.5</ele><time>2026-05-01T12:18:25Z</time></trkpt><trkpt lat="46.33700613233733" lon="9.557232945532144"><ele>833.25</ele><time>2026-05-01T12:18:26Z</time></trkpt><trkpt lat="46.33703334913435" lon="9.557406617289711"><ele>837.0</ele><time>2026-05-01T12:18:27Z</time></trkpt><trkpt lat="46.33706695428224" lon="9.557581462132056"><ele>837.0</ele><time>2026-05-01T12:18:28.012Z</time></trkpt><trkpt lat="46.33709546190114" lon="9.557754149522776"><ele>837.0</ele><time>2026-05-01T12:18:29.012Z</time></trkpt><trkpt lat="46.33712418777503" lon="9.557926408892792"><ele>837.0</ele><time>2026-05-01T12:18:30.013Z</time></trkpt><trkpt lat="46.33715309401226" lon="9.558099269631983"><ele>837.0</ele><time>2026-05-01T12:18:31.014Z</time></trkpt><trkpt lat="46.33718272584606" lon="9.558270847952704"><ele>975.0</ele><time>2026-05-01T12:18:32.022Z</time></trkpt><trkpt lat="46.338455004224684" lon="9.560519046297518"><ele>936.0</ele><time>2026-05-01T12:18:35.922Z</time></trkpt><trkpt lat="46.33890975388259" lon="9.561321691268926"><ele>930.0</ele><time>2026-05-01T12:18:36.92Z</time></trkpt><trkpt lat="46.33930731644203" lon="9.562183326468105"><ele>905.0</ele><time>2026-05-01T12:18:37.918Z</time></trkpt><trkpt lat="46.339488267010395" lon="9.564926493921844"><ele>905.0</ele><time>2026-05-01T12:19:06Z</time></trkpt><trkpt lat="46.33953371249345" lon="9.56515276025266"><ele>905.0</ele><time>2026-05-01T12:19:07Z</time></trkpt><trkpt lat="46.33938051426357" lon="9.5654243867513"><ele>905.0</ele><time>2026-05-01T12:19:08Z</time></trkpt><trkpt lat="46.33935529908731" lon="9.565663898466614"><ele>906.6666666666667</ele><time>2026-05-01T12:19:09Z</time></trkpt><trkpt lat="46.339317815581516" lon="9.565897084702275"><ele>908.3333333333333</ele><time>2026-05-01T12:19:10Z</time></trkpt><trkpt lat="46.3392823321414" lon="9.566134046080816"><ele>910.0</ele><time>2026-05-01T12:19:11Z</time></trkpt><trkpt lat="46.3392413756739" lon="9.566368151632146"><ele>909.6666666666666</ele><time>2026-05-01T12:19:12Z</time></trkpt><trkpt lat="46.33920444266775" lon="9.566614968730581"><ele>909.3333333333333</ele><time>2026-05-01T12:19:13Z</time></trkpt><trkpt lat="46.33916529486397" lon="9.56687040697054"><ele>909.0</ele><time>2026-05-01T12:19:14Z</time></trkpt><trkpt lat="46.33912672752017" lon="9.567122948643114"><ele>909.0</ele><time>2026-05-01T12:19:15Z</time></trkpt><trkpt lat="46.33910480169781" lon="9.567372037532984"><ele>909.0</ele><time>2026-05-01T12:19:16Z</time></trkpt><trkpt lat="46.339086714165255" lon="9.567635023177571"><ele>909.0</ele><time>2026-05-01T12:19:17Z</time></trkpt><trkpt lat="46.33906869247373" lon="9.567902461506211"><ele>909.3333333333333</ele><time>2026-05-01T12:19:18Z</time></trkpt><trkpt lat="46.33906306883806" lon="9.568199616758816"><ele>909.6666666666666</ele><time>2026-05-01T12:19:19Z</time></trkpt><trkpt lat="46.33905575817195" lon="9.568458611079702"><ele>910.0</ele><time>2026-05-01T12:19:20Z</time></trkpt><trkpt lat="46.33904160737617" lon="9.56874818983677"><ele>912.6666666666666</ele><time>2026-05-01T12:19:21Z</time></trkpt><trkpt lat="46.33903111697555" lon="9.569036458830302"><ele>915.3333333333333</ele><time>2026-05-01T12:19:22Z</time></trkpt><trkpt lat="46.33902618955557" lon="9.569307618583194"><ele>918.0</ele><time>2026-05-01T12:19:23Z</time></trkpt><trkpt lat="46.33902870553924" lon="9.569613585083028"><ele>923.3333333333333</ele><time>2026-05-01T12:19:24Z</time></trkpt><trkpt lat="46.33904495759656" lon="9.569919817324083"><ele>928.6666666666666</ele><time>2026-05-01T12:19:25Z</time></trkpt><trkpt lat="46.339069363883915" lon="9.570220674422535"><ele>934.0</ele><time>2026-05-01T12:19:26Z</time></trkpt><trkpt lat="46.33914384858447" lon="9.570501162673724"><ele>936.6666666666666</ele><time>2026-05-01T12:19:27Z</time></trkpt><trkpt lat="46.339246464512065" lon="9.570779575793638"><ele>939.3333333333333</ele><time>2026-05-01T12:19:28Z</time></trkpt><trkpt lat="46.33934436450081" lon="9.571048771703412"><ele>942.0</ele><time>2026-05-01T12:19:29Z</time></trkpt><trkpt lat="46.33947135780725" lon="9.571311017590938"><ele>945.6666666666667</ele><time>2026-05-01T12:19:30Z</time></trkpt><trkpt lat="46.339570218121835" lon="9.571576634555745"><ele>949.3333333333334</ele><time>2026-05-01T12:19:31Z</time></trkpt><trkpt lat="46.33967796513391" lon="9.571844464477469"><ele>953.0</ele><time>2026-05-01T12:19:32.001Z</time></trkpt><trkpt lat="46.33974219689828" lon="9.572135047335491"><ele>947.6666666666667</ele><time>2026-05-01T12:19:33.001Z</time></trkpt><trkpt lat="46.33979338145877" lon="9.572434667654857"><ele>942.3333333333333</ele><time>2026-05-01T12:19:34.001Z</time></trkpt><trkpt lat="46.33982595730996" lon="9.572743963701875"><ele>937.0</ele><time>2026-05-01T12:19:35.001Z</time></trkpt><trkpt lat="46.33984867620811" lon="9.573053063697522"><ele>937.0</ele><time>2026-05-01T12:19:36.001Z</time></trkpt><trkpt lat="46.339858771705025" lon="9.573367840590453"><ele>937.0</ele><time>2026-05-01T12:19:37.001Z</time></trkpt><trkpt lat="46.33987192907252" lon="9.57368027560072"><ele>937.0</ele><time>2026-05-01T12:19:38.001Z</time></trkpt><trkpt lat="46.33987940680593" lon="9.57399839305475"><ele>940.6666666666666</ele><time>2026-05-01T12:19:39.001Z</time></trkpt><trkpt lat="46.339897773286" lon="9.574317949681475"><ele>944.3333333333333</ele><time>2026-05-01T12:19:40.001Z</time></trkpt><trkpt lat="46.33992597716332" lon="9.574614970047145"><ele>948.0</ele><time>2026-05-01T12:19:41.001Z</time></trkpt><trkpt lat="46.33995135653127" lon="9.57486683603999"><ele>949.6666666666667</ele><time>2026-05-01T12:19:42.001Z</time></trkpt><trkpt lat="46.33995167193557" lon="9.575085764139342"><ele>951.3333333333334</ele><time>2026-05-01T12:19:43.001Z</time></trkpt><trkpt lat="46.33991528811202" lon="9.575357994475581"><ele>953.0</ele><time>2026-05-01T12:19:44.001Z</time></trkpt><trkpt lat="46.33985675620489" lon="9.575502759281871"><ele>954.4</ele><time>2026-05-01T12:19:45.001Z</time></trkpt><trkpt lat="46.33982451203285" lon="9.575613536453606"><ele>955.8</ele><time>2026-05-01T12:19:46.001Z</time></trkpt><trkpt lat="46.339650869060165" lon="9.575558870762132"><ele>957.2</ele><time>2026-05-01T12:19:47.001Z</time></trkpt><trkpt lat="46.33961292801768" lon="9.575472883034664"><ele>958.6</ele><time>2026-05-01T12:19:48.001Z</time></trkpt><trkpt lat="46.33964148221004" lon="9.575346354290001"><ele>960.0</ele><time>2026-05-01T12:19:49.001Z</time></trkpt><trkpt lat="46.340236391108235" lon="9.577074841452035"><ele>961.6666666666667</ele><time>2026-05-01T12:19:51.001Z</time></trkpt><trkpt lat="46.34025757625451" lon="9.577315131148627"><ele>963.3333333333334</ele><time>2026-05-01T12:19:52.001Z</time></trkpt><trkpt lat="46.340220291221925" lon="9.57755192584864"><ele>965.0</ele><time>2026-05-01T12:19:53.001Z</time></trkpt><trkpt lat="46.34013035788452" lon="9.57775642230681"><ele>966.6666666666667</ele><time>2026-05-01T12:19:54.001Z</time></trkpt><trkpt lat="46.33997214107758" lon="9.577917276804344"><ele>968.3333333333333</ele><time>2026-05-01T12:19:55.001Z</time></trkpt><trkpt lat="46.33990633366752" lon="9.578167844884643"><ele>970.0</ele><time>2026-05-01T12:19:56Z</time></trkpt><trkpt lat="46.33986042322217" lon="9.578437103304788"><ele>973.6666666666666</ele><time>2026-05-01T12:19:57Z</time></trkpt><trkpt lat="46.33986387317542" lon="9.578733441769826"><ele>977.3333333333333</ele><time>2026-05-01T12:19:58Z</time></trkpt><trkpt lat="46.339847845855665" lon="9.579030416096655"><ele>981.0</ele><time>2026-05-01T12:19:59Z</time></trkpt><trkpt lat="46.33984444703027" lon="9.57931338422544"><ele>989.5</ele><time>2026-05-01T12:20:00Z</time></trkpt><trkpt lat="46.33985090457336" lon="9.5795968556189"><ele>998.0</ele><time>2026-05-01T12:20:01Z</time></trkpt><trkpt lat="46.340148055579206" lon="9.579914773343612"><ele>998.0</ele><time>2026-05-01T12:20:02Z</time></trkpt><trkpt lat="46.340239926458864" lon="9.58021984122289"><ele>998.0</ele><time>2026-05-01T12:20:03Z</time></trkpt><trkpt lat="46.3403118125513" lon="9.58052560476933"><ele>1002.6666666666667</ele><time>2026-05-01T12:20:04Z</time></trkpt><trkpt lat="46.340381966229465" lon="9.58082556675471"><ele>1007.3333333333333</ele><time>2026-05-01T12:20:05Z</time></trkpt><trkpt lat="46.340461027216044" lon="9.581116645467052"><ele>1012.0</ele><time>2026-05-01T12:20:06Z</time></trkpt><trkpt lat="46.34056418695556" lon="9.581383358041798"><ele>1002.0</ele><time>2026-05-01T12:20:07Z</time></trkpt><trkpt lat="46.34066640634681" lon="9.581612240744446"><ele>992.0</ele><time>2026-05-01T12:20:08Z</time></trkpt><trkpt lat="46.34076070701288" lon="9.58183444611644"><ele>982.0</ele><time>2026-05-01T12:20:09Z</time></trkpt><trkpt lat="46.34082945241406" lon="9.582062805790306"><ele>982.0</ele><time>2026-05-01T12:20:10Z</time></trkpt><trkpt lat="46.34086116213719" lon="9.582314374523502"><ele>982.0</ele><time>2026-05-01T12:20:11Z</time></trkpt><trkpt lat="46.340881094099586" lon="9.582552265921244"><ele>982.0</ele><time>2026-05-01T12:20:12Z</time></trkpt><trkpt lat="46.34090717480877" lon="9.58278259954983"><ele>986.3333333333333</ele><time>2026-05-01T12:20:13Z</time></trkpt><trkpt lat="46.34093882128975" lon="9.583011409554809"><ele>990.6666666666667</ele><time>2026-05-01T12:20:14Z</time></trkpt><trkpt lat="46.34098365698953" lon="9.583235989431017"><ele>995.0</ele><time>2026-05-01T12:20:15Z</time></trkpt><trkpt lat="46.34101465910991" lon="9.58344891848959"><ele>995.0</ele><time>2026-05-01T12:20:16Z</time></trkpt><trkpt lat="46.341045598905666" lon="9.583658500591987"><ele>995.0</ele><time>2026-05-01T12:20:17Z</time></trkpt><trkpt lat="46.34107718157766" lon="9.583888462621415"><ele>995.0</ele><time>2026-05-01T12:20:18Z</time></trkpt><trkpt lat="46.341102961734066" lon="9.584114174054386"><ele>1000.0</ele><time>2026-05-01T12:20:19Z</time></trkpt><trkpt lat="46.34112513810796" lon="9.584335780229772"><ele>1005.0</ele><time>2026-05-01T12:20:20Z</time></trkpt><trkpt lat="46.34115020119641" lon="9.584553012069682"><ele>1010.0</ele><time>2026-05-01T12:20:21Z</time></trkpt><trkpt lat="46.341182409785496" lon="9.584773837115758"><ele>1013.0</ele><time>2026-05-01T12:20:22Z</time></trkpt><trkpt lat="46.34122141657926" lon="9.5849882563377"><ele>1016.0</ele><time>2026-05-01T12:20:23Z</time></trkpt><trkpt lat="46.34126160488467" lon="9.585201124421634"><ele>1019.0</ele><time>2026-05-01T12:20:24Z</time></trkpt><trkpt lat="46.34131107797474" lon="9.585419735282777"><ele>1019.6666666666667</ele><time>2026-05-01T12:20:25Z</time></trkpt><trkpt lat="46.34135827814011" lon="9.585633616450348"><ele>1020.3333333333333</ele><time>2026-05-01T12:20:26Z</time></trkpt><trkpt lat="46.3414031409556" lon="9.585849008284399"><ele>1021.0</ele><time>2026-05-01T12:20:27Z</time></trkpt><trkpt lat="46.341450612234844" lon="9.586056084035658"><ele>1012.25</ele><time>2026-05-01T12:20:28Z</time></trkpt><trkpt lat="46.34149202360582" lon="9.586257436693295"><ele>1003.5</ele><time>2026-05-01T12:20:29Z</time></trkpt><trkpt lat="46.34153631462894" lon="9.586461317413619"><ele>994.75</ele><time>2026-05-01T12:20:30Z</time></trkpt><trkpt lat="46.34157917415976" lon="9.586672811516026"><ele>986.0</ele><time>2026-05-01T12:20:31Z</time></trkpt><trkpt lat="46.341623101855845" lon="9.586888963338321"><ele>987.25</ele><time>2026-05-01T12:20:32Z</time></trkpt><trkpt lat="46.341670631892384" lon="9.587098147469582"><ele>988.5</ele><time>2026-05-01T12:20:33Z</time></trkpt><trkpt lat="46.34171838362151" lon="9.587297799300634"><ele>989.75</ele><time>2026-05-01T12:20:34Z</time></trkpt><trkpt lat="46.34176528699345" lon="9.587493794143661"><ele>991.0</ele><time>2026-05-01T12:20:35Z</time></trkpt><trkpt lat="46.34180593028058" lon="9.587681507147506"><ele>993.0</ele><time>2026-05-01T12:20:36Z</time></trkpt><trkpt lat="46.34184173510187" lon="9.587862256366895"><ele>995.0</ele><time>2026-05-01T12:20:37Z</time></trkpt><trkpt lat="46.34187701159072" lon="9.588034002441969"><ele>997.0</ele><time>2026-05-01T12:20:38Z</time></trkpt><trkpt lat="46.341916802180265" lon="9.588197801117655"><ele>999.0</ele><time>2026-05-01T12:20:39Z</time></trkpt><trkpt lat="46.341966254792354" lon="9.588358137121062"><ele>999.0</ele><time>2026-05-01T12:20:40Z</time></trkpt><trkpt lat="46.342027297054685" lon="9.588513719414786"><ele>999.0</ele><time>2026-05-01T12:20:41Z</time></trkpt><trkpt lat="46.342120696206806" lon="9.588651416824757"><ele>999.0</ele><time>2026-05-01T12:20:42Z</time></trkpt><trkpt lat="46.34221676065786" lon="9.588778404844405"><ele>999.0</ele><time>2026-05-01T12:20:43Z</time></trkpt><trkpt lat="46.34231259237249" lon="9.58890885238079"><ele>997.25</ele><time>2026-05-01T12:20:44Z</time></trkpt><trkpt lat="46.34240589714292" lon="9.589040267270773"><ele>995.5</ele><time>2026-05-01T12:20:45Z</time></trkpt><trkpt lat="46.34249553661255" lon="9.589176100119111"><ele>993.75</ele><time>2026-05-01T12:20:46Z</time></trkpt><trkpt lat="46.342586614393625" lon="9.589313069371139"><ele>992.0</ele><time>2026-05-01T12:20:47Z</time></trkpt><trkpt lat="46.342676175557976" lon="9.58944258124709"><ele>993.5</ele><time>2026-05-01T12:20:48Z</time></trkpt><trkpt lat="46.342768529374055" lon="9.589572466414054"><ele>995.0</ele><time>2026-05-01T12:20:49Z</time></trkpt><trkpt lat="46.34285868184891" lon="9.589703734029934"><ele>996.5</ele><time>2026-05-01T12:20:50Z</time></trkpt><trkpt lat="46.34295154288448" lon="9.589835014834302"><ele>998.0</ele><time>2026-05-01T12:20:51Z</time></trkpt><trkpt lat="46.343040515012476" lon="9.589963991591016"><ele>998.25</ele><time>2026-05-01T12:20:52Z</time></trkpt><trkpt lat="46.34312641612881" lon="9.590091846987427"><ele>998.5</ele><time>2026-05-01T12:20:53Z</time></trkpt><trkpt lat="46.34318791368477" lon="9.590239777527653"><ele>998.75</ele><time>2026-05-01T12:20:54Z</time></trkpt><trkpt lat="46.34325858419838" lon="9.590375807440946"><ele>999.0</ele><time>2026-05-01T12:20:55Z</time></trkpt><trkpt lat="46.343334556290486" lon="9.590511636325749"><ele>1000.0</ele><time>2026-05-01T12:20:56Z</time></trkpt><trkpt lat="46.34339804515962" lon="9.59063783434982"><ele>1001.0000000000001</ele><time>2026-05-01T12:20:57Z</time></trkpt><trkpt lat="46.3434333033051" lon="9.590764326017432"><ele>1002.0000000000001</ele><time>2026-05-01T12:20:58Z</time></trkpt><trkpt lat="46.34345723114867" lon="9.590912105102731"><ele>1003.0</ele><time>2026-05-01T12:20:59Z</time></trkpt><trkpt lat="46.343491712338434" lon="9.591068471874465"><ele>1004.0</ele><time>2026-05-01T12:21:00Z</time></trkpt><trkpt lat="46.34352662092583" lon="9.591230908139202"><ele>1005.75</ele><time>2026-05-01T12:21:01Z</time></trkpt><trkpt lat="46.34356554782757" lon="9.591385729664154"><ele>1007.5</ele><time>2026-05-01T12:21:02Z</time></trkpt><trkpt lat="46.34356244680319" lon="9.59157513393918"><ele>1009.25</ele><time>2026-05-01T12:21:03Z</time></trkpt><trkpt lat="46.34357536978971" lon="9.591760234540152"><ele>1011.0</ele><time>2026-05-01T12:21:04Z</time></trkpt><trkpt lat="46.343603355360095" lon="9.59194063089175"><ele>1012.0</ele><time>2026-05-01T12:21:05Z</time></trkpt><trkpt lat="46.34363178935533" lon="9.592117859363016"><ele>1013.0</ele><time>2026-05-01T12:21:06Z</time></trkpt><trkpt lat="46.34367574590453" lon="9.592297096198113"><ele>1014.0</ele><time>2026-05-01T12:21:07Z</time></trkpt><trkpt lat="46.343718998822176" lon="9.592469229113803"><ele>1015.0</ele><time>2026-05-01T12:21:08Z</time></trkpt><trkpt lat="46.34374071712411" lon="9.592646303925024"><ele>1015.0</ele><time>2026-05-01T12:21:09Z</time></trkpt><trkpt lat="46.34377384833796" lon="9.592817852856852"><ele>1015.0</ele><time>2026-05-01T12:21:10Z</time></trkpt><trkpt lat="46.343812410939584" lon="9.592994610805786"><ele>1015.0</ele><time>2026-05-01T12:21:11Z</time></trkpt><trkpt lat="46.34385107450221" lon="9.593161371277303"><ele>1015.0</ele><time>2026-05-01T12:21:12Z</time></trkpt><trkpt lat="46.34389224807608" lon="9.593325400266092"><ele>1015.75</ele><time>2026-05-01T12:21:13Z</time></trkpt><trkpt lat="46.343934464730445" lon="9.59348044357689"><ele>1016.5</ele><time>2026-05-01T12:21:14Z</time></trkpt><trkpt lat="46.34397226807585" lon="9.593640424500977"><ele>1017.25</ele><time>2026-05-01T12:21:15Z</time></trkpt><trkpt lat="46.34399591881795" lon="9.593808614405686"><ele>1018.0</ele><time>2026-05-01T12:21:16Z</time></trkpt><trkpt lat="46.34404050624061" lon="9.593965692138877"><ele>1018.0</ele><time>2026-05-01T12:21:17Z</time></trkpt><trkpt lat="46.34410056404031" lon="9.594115935654802"><ele>1018.0</ele><time>2026-05-01T12:21:18Z</time></trkpt><trkpt lat="46.34416155283308" lon="9.594276392565535"><ele>1018.0</ele><time>2026-05-01T12:21:19Z</time></trkpt><trkpt lat="46.34422564466069" lon="9.594434793560206"><ele>1018.0</ele><time>2026-05-01T12:21:20Z</time></trkpt><trkpt lat="46.34429930532759" lon="9.594590157248957"><ele>1019.0</ele><time>2026-05-01T12:21:21Z</time></trkpt><trkpt lat="46.34438509197615" lon="9.594733868415346"><ele>1020.0</ele><time>2026-05-01T12:21:22Z</time></trkpt><trkpt lat="46.344485865837115" lon="9.594871742722674"><ele>1021.0</ele><time>2026-05-01T12:21:23Z</time></trkpt><trkpt lat="46.34459295633401" lon="9.59501010816669"><ele>1022.0</ele><time>2026-05-01T12:21:24Z</time></trkpt><trkpt lat="46.34470142909052" lon="9.595152818432275"><ele>1021.0</ele><time>2026-05-01T12:21:25Z</time></trkpt><trkpt lat="46.344806169265475" lon="9.595304586004799"><ele>1020.0</ele><time>2026-05-01T12:21:26Z</time></trkpt><trkpt lat="46.34491368269235" lon="9.595453703773355"><ele>1019.0</ele><time>2026-05-01T12:21:27Z</time></trkpt><trkpt lat="46.34502197576102" lon="9.595607333706543"><ele>1018.0</ele><time>2026-05-01T12:21:28Z</time></trkpt><trkpt lat="46.34512909655386" lon="9.595760211360428"><ele>1019.5</ele><time>2026-05-01T12:21:29Z</time></trkpt><trkpt lat="46.34523983137389" lon="9.595914554107253"><ele>1021.0</ele><time>2026-05-01T12:21:30Z</time></trkpt><trkpt lat="46.345348930166644" lon="9.596062000868466"><ele>1022.5</ele><time>2026-05-01T12:21:31Z</time></trkpt><trkpt lat="46.34545447655911" lon="9.596207852439042"><ele>1024.0</ele><time>2026-05-01T12:21:32Z</time></trkpt><trkpt lat="46.34555996226548" lon="9.596356606588222"><ele>1024.0</ele><time>2026-05-01T12:21:33Z</time></trkpt><trkpt lat="46.34566650395782" lon="9.596506236612804"><ele>1024.0</ele><time>2026-05-01T12:21:34Z</time></trkpt><trkpt lat="46.34577263283009" lon="9.596653551809396"><ele>1024.0</ele><time>2026-05-01T12:21:35Z</time></trkpt><trkpt lat="46.34587914167134" lon="9.596803073147234"><ele>1024.0</ele><time>2026-05-01T12:21:36Z</time></trkpt><trkpt lat="46.34598304413458" lon="9.596952603323723"><ele>1025.5</ele><time>2026-05-01T12:21:37Z</time></trkpt><trkpt lat="46.346085544367945" lon="9.597104392527475"><ele>1027.0</ele><time>2026-05-01T12:21:38.001Z</time></trkpt><trkpt lat="46.34618099229205" lon="9.59725602695481"><ele>1028.5</ele><time>2026-05-01T12:21:39.001Z</time></trkpt><trkpt lat="46.34627280795204" lon="9.59741762556767"><ele>1030.0</ele><time>2026-05-01T12:21:40.001Z</time></trkpt><trkpt lat="46.346360864460095" lon="9.597598450173173"><ele>1028.0</ele><time>2026-05-01T12:21:41.001Z</time></trkpt><trkpt lat="46.34642965989423" lon="9.597829486523192"><ele>1026.0</ele><time>2026-05-01T12:21:42.001Z</time></trkpt><trkpt lat="46.346502767077254" lon="9.59812130498945"><ele>1024.0</ele><time>2026-05-01T12:21:43.001Z</time></trkpt><trkpt lat="46.34654651371104" lon="9.598371871597609"><ele>1024.0</ele><time>2026-05-01T12:21:44.001Z</time></trkpt><trkpt lat="46.34660061785618" lon="9.59858189851248"><ele>1024.0</ele><time>2026-05-01T12:21:45.001Z</time></trkpt><trkpt lat="46.346608617198704" lon="9.598849582659499"><ele>1024.0</ele><time>2026-05-01T12:21:46.001Z</time></trkpt><trkpt lat="46.34661336125755" lon="9.599138414691664"><ele>1024.0</ele><time>2026-05-01T12:21:47.001Z</time></trkpt><trkpt lat="46.346612972611126" lon="9.599424291440393"><ele>1024.0</ele><time>2026-05-01T12:21:48.001Z</time></trkpt><trkpt lat="46.34660265857509" lon="9.599703906325615"><ele>1024.0</ele><time>2026-05-01T12:21:49.001Z</time></trkpt><trkpt lat="46.346592967021344" lon="9.599982980069633"><ele>1024.3333333333333</ele><time>2026-05-01T12:21:50.001Z</time></trkpt><trkpt lat="46.34659149321031" lon="9.600267528853825"><ele>1024.6666666666667</ele><time>2026-05-01T12:21:51.001Z</time></trkpt><trkpt lat="46.34660913989822" lon="9.600569433383265"><ele>1025.0</ele><time>2026-05-01T12:21:52.001Z</time></trkpt><trkpt lat="46.346658356343376" lon="9.600887971673332"><ele>1028.3333333333335</ele><time>2026-05-01T12:21:53.001Z</time></trkpt><trkpt lat="46.3467305553351" lon="9.601185834298343"><ele>1031.6666666666667</ele><time>2026-05-01T12:21:54.001Z</time></trkpt><trkpt lat="46.34681681161352" lon="9.601457439417658"><ele>1035.0</ele><time>2026-05-01T12:21:55.001Z</time></trkpt><trkpt lat="46.34691677773105" lon="9.601717467664807"><ele>1035.0</ele><time>2026-05-01T12:21:56.001Z</time></trkpt><trkpt lat="46.34703307736285" lon="9.601962977824536"><ele>1035.0</ele><time>2026-05-01T12:21:57.001Z</time></trkpt><trkpt lat="46.34715997792682" lon="9.602190594905064"><ele>1035.0</ele><time>2026-05-01T12:21:58.001Z</time></trkpt><trkpt lat="46.347310234467" lon="9.602404959186622"><ele>1034.6666666666667</ele><time>2026-05-01T12:21:59.001Z</time></trkpt><trkpt lat="46.34747075226529" lon="9.602604181710516"><ele>1034.3333333333335</ele><time>2026-05-01T12:22:00.001Z</time></trkpt><trkpt lat="46.34764728524119" lon="9.602792450285094"><ele>1034.0</ele><time>2026-05-01T12:22:01.001Z</time></trkpt><trkpt lat="46.34782574657048" lon="9.602962664872583"><ele>1035.0</ele><time>2026-05-01T12:22:02.001Z</time></trkpt><trkpt lat="46.34800189037051" lon="9.60312736528913"><ele>1036.0</ele><time>2026-05-01T12:22:03.001Z</time></trkpt><trkpt lat="46.348176287248705" lon="9.603307272853227"><ele>1037.0</ele><time>2026-05-01T12:22:04.001Z</time></trkpt><trkpt lat="46.34832445155882" lon="9.603508116004951"><ele>1038.6666666666667</ele><time>2026-05-01T12:22:05.001Z</time></trkpt><trkpt lat="46.34844904000339" lon="9.603731916471698"><ele>1040.3333333333333</ele><time>2026-05-01T12:22:06.001Z</time></trkpt><trkpt lat="46.348563656954326" lon="9.603964691895182"><ele>1042.0</ele><time>2026-05-01T12:22:07.001Z</time></trkpt><trkpt lat="46.34866764487602" lon="9.604221260815033"><ele>1042.0</ele><time>2026-05-01T12:22:08.001Z</time></trkpt><trkpt lat="46.34876216524342" lon="9.604488350472687"><ele>1042.0</ele><time>2026-05-01T12:22:09.001Z</time></trkpt><trkpt lat="46.34883650084539" lon="9.60476115774848"><ele>1042.0</ele><time>2026-05-01T12:22:10.001Z</time></trkpt><trkpt lat="46.34889072041015" lon="9.6050443860943"><ele>1041.0</ele><time>2026-05-01T12:22:11.001Z</time></trkpt><trkpt lat="46.34892809351718" lon="9.605332582460177"><ele>1040.0</ele><time>2026-05-01T12:22:12Z</time></trkpt><trkpt lat="46.348942798759026" lon="9.605628956560006"><ele>1039.0</ele><time>2026-05-01T12:22:13Z</time></trkpt><trkpt lat="46.348942834176746" lon="9.605923768969726"><ele>1039.0</ele><time>2026-05-01T12:22:14Z</time></trkpt><trkpt lat="46.34892838756355" lon="9.606222568361375"><ele>1039.0</ele><time>2026-05-01T12:22:15Z</time></trkpt><trkpt lat="46.34890232633576" lon="9.606512394057969"><ele>1039.0</ele><time>2026-05-01T12:22:16Z</time></trkpt><trkpt lat="46.3488750133307" lon="9.60680745951578"><ele>1045.0</ele><time>2026-05-01T12:22:17Z</time></trkpt><trkpt lat="46.348840856523566" lon="9.607103566316267"><ele>1051.0</ele><time>2026-05-01T12:22:18Z</time></trkpt><trkpt lat="46.34880856466086" lon="9.607396436885805"><ele>1057.0</ele><time>2026-05-01T12:22:19Z</time></trkpt><trkpt lat="46.34877819544033" lon="9.607690220372206"><ele>1060.6666666666665</ele><time>2026-05-01T12:22:20Z</time></trkpt><trkpt lat="46.3487591717776" lon="9.607985091399811"><ele>1064.3333333333333</ele><time>2026-05-01T12:22:21Z</time></trkpt><trkpt lat="46.34875380003489" lon="9.608280715415011"><ele>1068.0</ele><time>2026-05-01T12:22:22Z</time></trkpt><trkpt lat="46.34875674463013" lon="9.608576559170338"><ele>1065.3333333333333</ele><time>2026-05-01T12:22:23Z</time></trkpt><trkpt lat="46.348774653626045" lon="9.608875955339991"><ele>1062.6666666666665</ele><time>2026-05-01T12:22:24Z</time></trkpt><trkpt lat="46.34879833681646" lon="9.609169993435858"><ele>1060.0</ele><time>2026-05-01T12:22:25Z</time></trkpt><trkpt lat="46.34882630714516" lon="9.609453680803755"><ele>1059.3333333333333</ele><time>2026-05-01T12:22:26Z</time></trkpt><trkpt lat="46.34885731514412" lon="9.609737033940988"><ele>1058.6666666666667</ele><time>2026-05-01T12:22:27Z</time></trkpt><trkpt lat="46.348887317400965" lon="9.610020160464945"><ele>1058.0</ele><time>2026-05-01T12:22:28Z</time></trkpt><trkpt lat="46.34891455564879" lon="9.610306620582763"><ele>1057.3333333333335</ele><time>2026-05-01T12:22:29Z</time></trkpt><trkpt lat="46.34894899475287" lon="9.610595286392234"><ele>1056.6666666666667</ele><time>2026-05-01T12:22:30Z</time></trkpt><trkpt lat="46.34898805138919" lon="9.610891908964053"><ele>1056.0</ele><time>2026-05-01T12:22:31Z</time></trkpt><trkpt lat="46.34902045341712" lon="9.611184897590507"><ele>1057.6666666666667</ele><time>2026-05-01T12:22:32Z</time></trkpt><trkpt lat="46.34905389288012" lon="9.611472963913794"><ele>1059.3333333333335</ele><time>2026-05-01T12:22:33Z</time></trkpt><trkpt lat="46.34908841638772" lon="9.611762940736728"><ele>1061.0</ele><time>2026-05-01T12:22:34Z</time></trkpt><trkpt lat="46.34912337008998" lon="9.61205385414228"><ele>1064.0</ele><time>2026-05-01T12:22:35Z</time></trkpt><trkpt lat="46.34915603327896" lon="9.612341951965636"><ele>1067.0</ele><time>2026-05-01T12:22:36Z</time></trkpt><trkpt lat="46.349186130753765" lon="9.612602849731267"><ele>1070.0</ele><time>2026-05-01T12:22:37Z</time></trkpt><trkpt lat="46.34921051808355" lon="9.612833689803498"><ele>1070.25</ele><time>2026-05-01T12:22:38Z</time></trkpt><trkpt lat="46.34922520551147" lon="9.61300345280012"><ele>1070.5</ele><time>2026-05-01T12:22:39Z</time></trkpt><trkpt lat="46.34924824147824" lon="9.61320578180185"><ele>1070.75</ele><time>2026-05-01T12:22:40Z</time></trkpt><trkpt lat="46.349274452060676" lon="9.613435993956893"><ele>1071.0</ele><time>2026-05-01T12:22:41Z</time></trkpt><trkpt lat="46.3493207666901" lon="9.61384278342666"><ele>1071.0</ele><time>2026-05-01T12:22:42Z</time></trkpt><trkpt lat="46.349373310842566" lon="9.614111606668633"><ele>1071.0</ele><time>2026-05-01T12:22:43Z</time></trkpt><trkpt lat="46.34940815086414" lon="9.61440127853994"><ele>1071.0</ele><time>2026-05-01T12:22:44Z</time></trkpt><trkpt lat="46.34943834700044" lon="9.614662532195497"><ele>1069.6666666666667</ele><time>2026-05-01T12:22:45Z</time></trkpt><trkpt lat="46.34945937234084" lon="9.61490747830208"><ele>1068.3333333333335</ele><time>2026-05-01T12:22:46Z</time></trkpt><trkpt lat="46.349486522730146" lon="9.61515031507742"><ele>1067.0</ele><time>2026-05-01T12:22:47Z</time></trkpt><trkpt lat="46.34951489273483" lon="9.61538127162776"><ele>1067.0</ele><time>2026-05-01T12:22:48Z</time></trkpt><trkpt lat="46.3495321283466" lon="9.615585511960628"><ele>1067.0</ele><time>2026-05-01T12:22:49Z</time></trkpt><trkpt lat="46.34955974205372" lon="9.615776338320998"><ele>1067.0</ele><time>2026-05-01T12:22:50Z</time></trkpt><trkpt lat="46.349573010149285" lon="9.615951841391492"><ele>1067.0</ele><time>2026-05-01T12:22:51Z</time></trkpt><trkpt lat="46.34959458868504" lon="9.61612764547274"><ele>1068.2</ele><time>2026-05-01T12:22:52Z</time></trkpt><trkpt lat="46.34961253977026" lon="9.616285342523074"><ele>1069.4</ele><time>2026-05-01T12:22:53Z</time></trkpt><trkpt lat="46.34963095862194" lon="9.616442972574296"><ele>1070.6</ele><time>2026-05-01T12:22:54Z</time></trkpt><trkpt lat="46.349648344756034" lon="9.61659983111375"><ele>1071.8</ele><time>2026-05-01T12:22:55Z</time></trkpt><trkpt lat="46.349664727413604" lon="9.616760486128694"><ele>1073.0</ele><time>2026-05-01T12:22:56Z</time></trkpt><trkpt lat="46.349683435576615" lon="9.616917730986096"><ele>1074.2</ele><time>2026-05-01T12:22:57Z</time></trkpt><trkpt lat="46.34969997971542" lon="9.617069984117672"><ele>1075.4</ele><time>2026-05-01T12:22:58Z</time></trkpt><trkpt lat="46.34971803288089" lon="9.617229884391064"><ele>1076.6000000000001</ele><time>2026-05-01T12:22:59Z</time></trkpt><trkpt lat="46.34973418611829" lon="9.617386661372219"><ele>1077.8</ele><time>2026-05-01T12:23:00Z</time></trkpt><trkpt lat="46.34975330446055" lon="9.617551627481028"><ele>1079.0</ele><time>2026-05-01T12:23:01Z</time></trkpt><trkpt lat="46.34976986653844" lon="9.61772581776142"><ele>1075.25</ele><time>2026-05-01T12:23:02Z</time></trkpt><trkpt lat="46.34978997623169" lon="9.61790583972459"><ele>1071.5</ele><time>2026-05-01T12:23:03Z</time></trkpt><trkpt lat="46.34981269546818" lon="9.618089799703197"><ele>1067.75</ele><time>2026-05-01T12:23:04Z</time></trkpt><trkpt lat="46.34984331714931" lon="9.61827080928931"><ele>1064.0</ele><time>2026-05-01T12:23:05Z</time></trkpt><trkpt lat="46.34986709045685" lon="9.618472034364524"><ele>1064.75</ele><time>2026-05-01T12:23:06Z</time></trkpt><trkpt lat="46.34988272179025" lon="9.61865974898039"><ele>1065.5</ele><time>2026-05-01T12:23:07Z</time></trkpt><trkpt lat="46.349901422329964" lon="9.618852292265034"><ele>1066.25</ele><time>2026-05-01T12:23:08Z</time></trkpt><trkpt lat="46.34992066670011" lon="9.619049601145079"><ele>1067.0</ele><time>2026-05-01T12:23:09Z</time></trkpt><trkpt lat="46.349942964106084" lon="9.619224124663287"><ele>1067.0</ele><time>2026-05-01T12:23:10Z</time></trkpt><trkpt lat="46.34996689796424" lon="9.619390739324112"><ele>1067.0</ele><time>2026-05-01T12:23:11Z</time></trkpt><trkpt lat="46.34998338327677" lon="9.619564139303193"><ele>1067.0</ele><time>2026-05-01T12:23:12Z</time></trkpt><trkpt lat="46.34999970797454" lon="9.619747740532993"><ele>1067.0</ele><time>2026-05-01T12:23:13Z</time></trkpt><trkpt lat="46.350017217053704" lon="9.619936871211925"><ele>1067.25</ele><time>2026-05-01T12:23:14Z</time></trkpt><trkpt lat="46.35003401830873" lon="9.620132128390317"><ele>1067.5</ele><time>2026-05-01T12:23:15Z</time></trkpt><trkpt lat="46.35004405455179" lon="9.620338949324404"><ele>1067.75</ele><time>2026-05-01T12:23:16Z</time></trkpt><trkpt lat="46.35004419337184" lon="9.620542659426402"><ele>1068.0</ele><time>2026-05-01T12:23:17Z</time></trkpt><trkpt lat="46.35004132777336" lon="9.620741014946534"><ele>1068.0</ele><time>2026-05-01T12:23:18Z</time></trkpt><trkpt lat="46.35004882016954" lon="9.620953194104008"><ele>1068.0</ele><time>2026-05-01T12:23:19Z</time></trkpt><trkpt lat="46.350066828299425" lon="9.621180231139025"><ele>1068.0</ele><time>2026-05-01T12:23:20Z</time></trkpt><trkpt lat="46.35011249810851" lon="9.62148146997953"><ele>1070.0</ele><time>2026-05-01T12:23:21Z</time></trkpt><trkpt lat="46.350182389308834" lon="9.621825364250055"><ele>1072.0</ele><time>2026-05-01T12:23:22Z</time></trkpt><trkpt lat="46.35026129782416" lon="9.622178024056693"><ele>1073.0</ele><time>2026-05-01T12:23:23Z</time></trkpt><trkpt lat="46.35001393624828" lon="9.62218492363519"><ele>1074.0</ele><time>2026-05-01T12:23:24Z</time></trkpt><trkpt lat="46.34999855552065" lon="9.622462032482893"><ele>1075.0</ele><time>2026-05-01T12:23:25Z</time></trkpt><trkpt lat="46.34999277274512" lon="9.62273946534978"><ele>1075.0</ele><time>2026-05-01T12:23:26Z</time></trkpt><trkpt lat="46.34998925806892" lon="9.623006280480958"><ele>1075.0</ele><time>2026-05-01T12:23:27Z</time></trkpt><trkpt lat="46.34999759494368" lon="9.62328229194122"><ele>1075.0</ele><time>2026-05-01T12:23:28Z</time></trkpt><trkpt lat="46.35002063695657" lon="9.62356296460882"><ele>1075.3333333333333</ele><time>2026-05-01T12:23:29Z</time></trkpt><trkpt lat="46.35006034805237" lon="9.623840733783334"><ele>1075.6666666666667</ele><time>2026-05-01T12:23:30Z</time></trkpt><trkpt lat="46.35011934933343" lon="9.624125763182237"><ele>1076.0</ele><time>2026-05-01T12:23:31Z</time></trkpt><trkpt lat="46.35018546096064" lon="9.624414125247938"><ele>1077.0</ele><time>2026-05-01T12:23:32Z</time></trkpt><trkpt lat="46.3502593248691" lon="9.62470912201101"><ele>1078.0</ele><time>2026-05-01T12:23:33Z</time></trkpt><trkpt lat="46.35034516715701" lon="9.6249985465462"><ele>1079.0</ele><time>2026-05-01T12:23:34Z</time></trkpt><trkpt lat="46.3504287123607" lon="9.62528636006163"><ele>1079.3333333333335</ele><time>2026-05-01T12:23:35Z</time></trkpt><trkpt lat="46.35050687380112" lon="9.62556913193392"><ele>1079.6666666666667</ele><time>2026-05-01T12:23:36Z</time></trkpt><trkpt lat="46.35058722648328" lon="9.62584287905969"><ele>1080.0</ele><time>2026-05-01T12:23:37Z</time></trkpt><trkpt lat="46.35065929032872" lon="9.626120104887024"><ele>1081.0</ele><time>2026-05-01T12:23:38Z</time></trkpt><trkpt lat="46.350733431059204" lon="9.626389473006002"><ele>1082.0</ele><time>2026-05-01T12:23:39Z</time></trkpt><trkpt lat="46.3508116577174" lon="9.62665915796845"><ele>1083.0</ele><time>2026-05-01T12:23:40Z</time></trkpt><trkpt lat="46.350891498539504" lon="9.626929024074686"><ele>1083.6666666666667</ele><time>2026-05-01T12:23:41Z</time></trkpt><trkpt lat="46.35096732628865" lon="9.627204770096041"><ele>1084.3333333333335</ele><time>2026-05-01T12:23:42Z</time></trkpt><trkpt lat="46.35104051451118" lon="9.627480407930062"><ele>1085.0</ele><time>2026-05-01T12:23:43Z</time></trkpt><trkpt lat="46.3511225549671" lon="9.627751721460177"><ele>1086.3333333333335</ele><time>2026-05-01T12:23:44.001Z</time></trkpt><trkpt lat="46.35120351166196" lon="9.628017895855653"><ele>1087.6666666666667</ele><time>2026-05-01T12:23:45.001Z</time></trkpt><trkpt lat="46.35129444428418" lon="9.628274457055978"><ele>1089.0</ele><time>2026-05-01T12:23:46.001Z</time></trkpt><trkpt lat="46.35140819727748" lon="9.62851342565157"><ele>1089.0</ele><time>2026-05-01T12:23:47.001Z</time></trkpt><trkpt lat="46.351517106641296" lon="9.628754995329118"><ele>1089.0</ele><time>2026-05-01T12:23:48.001Z</time></trkpt><trkpt lat="46.35163215950141" lon="9.628991035105672"><ele>1089.0</ele><time>2026-05-01T12:23:49.001Z</time></trkpt><trkpt lat="46.3517495591888" lon="9.62922473292406"><ele>1089.0</ele><time>2026-05-01T12:23:50.001Z</time></trkpt><trkpt lat="46.35187050136295" lon="9.629447867011056"><ele>1089.0</ele><time>2026-05-01T12:23:51.001Z</time></trkpt><trkpt lat="46.351999737910035" lon="9.629661903672513"><ele>1089.0</ele><time>2026-05-01T12:23:52.001Z</time></trkpt><trkpt lat="46.35213184814828" lon="9.629870696273475"><ele>1090.6666666666667</ele><time>2026-05-01T12:23:53.001Z</time></trkpt><trkpt lat="46.35226360895065" lon="9.63007937855818"><ele>1092.3333333333335</ele><time>2026-05-01T12:23:54.001Z</time></trkpt><trkpt lat="46.35239709859379" lon="9.63028690227184"><ele>1094.0</ele><time>2026-05-01T12:23:55.001Z</time></trkpt><trkpt lat="46.35253173838083" lon="9.630497485310539"><ele>1097.3333333333335</ele><time>2026-05-01T12:23:56.001Z</time></trkpt><trkpt lat="46.35266423715524" lon="9.630713677013926"><ele>1100.6666666666667</ele><time>2026-05-01T12:23:57.001Z</time></trkpt><trkpt lat="46.35279758167726" lon="9.6309279959727"><ele>1104.0</ele><time>2026-05-01T12:23:58.001Z</time></trkpt><trkpt lat="46.35293350341609" lon="9.631139288925024"><ele>1103.3333333333333</ele><time>2026-05-01T12:23:59.001Z</time></trkpt><trkpt lat="46.35306636694125" lon="9.631349666242803"><ele>1102.6666666666665</ele><time>2026-05-01T12:24:00.001Z</time></trkpt><trkpt lat="46.353193009176294" lon="9.631559083544788"><ele>1102.0</ele><time>2026-05-01T12:24:01.001Z</time></trkpt><trkpt lat="46.35331791770669" lon="9.631767877113719"><ele>1102.0</ele><time>2026-05-01T12:24:02.001Z</time></trkpt><trkpt lat="46.353444287290834" lon="9.631973092040777"><ele>1102.0</ele><time>2026-05-01T12:24:03.001Z</time></trkpt><trkpt lat="46.35357110716378" lon="9.632178000113845"><ele>1102.0</ele><time>2026-05-01T12:24:04.001Z</time></trkpt><trkpt lat="46.35370067402967" lon="9.632389858299504"><ele>1104.6666666666665</ele><time>2026-05-01T12:24:05.001Z</time></trkpt><trkpt lat="46.35382808472568" lon="9.63259870922981"><ele>1107.3333333333333</ele><time>2026-05-01T12:24:06.001Z</time></trkpt><trkpt lat="46.35395750815067" lon="9.632802976319676"><ele>1110.0</ele><time>2026-05-01T12:24:07.001Z</time></trkpt><trkpt lat="46.354088173460504" lon="9.633007067659387"><ele>1111.3333333333333</ele><time>2026-05-01T12:24:08.001Z</time></trkpt><trkpt lat="46.35421480523048" lon="9.633209402788978"><ele>1112.6666666666665</ele><time>2026-05-01T12:24:09Z</time></trkpt><trkpt lat="46.354334803328676" lon="9.633404399513633"><ele>1114.0</ele><time>2026-05-01T12:24:10Z</time></trkpt><trkpt lat="46.35445523296748" lon="9.63359884553612"><ele>1117.3333333333333</ele><time>2026-05-01T12:24:11Z</time></trkpt><trkpt lat="46.35457754251013" lon="9.633791865970437"><ele>1120.6666666666667</ele><time>2026-05-01T12:24:12Z</time></trkpt><trkpt lat="46.35469921096488" lon="9.63399280130548"><ele>1124.0</ele><time>2026-05-01T12:24:13Z</time></trkpt><trkpt lat="46.35479299938455" lon="9.63421795369699"><ele>1124.0</ele><time>2026-05-01T12:24:14Z</time></trkpt><trkpt lat="46.354908148258744" lon="9.634426616818482"><ele>1124.0</ele><time>2026-05-01T12:24:15Z</time></trkpt><trkpt lat="46.35499958212971" lon="9.634655439832224"><ele>1124.0</ele><time>2026-05-01T12:24:16Z</time></trkpt><trkpt lat="46.355085155976006" lon="9.634880237816732"><ele>1127.0</ele><time>2026-05-01T12:24:17Z</time></trkpt><trkpt lat="46.3551691243398" lon="9.635109558218977"><ele>1130.0</ele><time>2026-05-01T12:24:18Z</time></trkpt><trkpt lat="46.35525016747054" lon="9.635354968455594"><ele>1133.0</ele><time>2026-05-01T12:24:19Z</time></trkpt><trkpt lat="46.355314054563756" lon="9.635604924576072"><ele>1135.0</ele><time>2026-05-01T12:24:20Z</time></trkpt><trkpt lat="46.355392627947616" lon="9.635854594681307"><ele>1137.0</ele><time>2026-05-01T12:24:21Z</time></trkpt><trkpt lat="46.355479343375094" lon="9.636092167517265"><ele>1139.0</ele><time>2026-05-01T12:24:22Z</time></trkpt><trkpt lat="46.355552282169306" lon="9.636342421716819"><ele>1139.3333333333335</ele><time>2026-05-01T12:24:23Z</time></trkpt><trkpt lat="46.35563083000265" lon="9.636595323410067"><ele>1139.6666666666667</ele><time>2026-05-01T12:24:24Z</time></trkpt><trkpt lat="46.35571609696532" lon="9.63684721221837"><ele>1140.0</ele><time>2026-05-01T12:24:25Z</time></trkpt><trkpt lat="46.35579761152871" lon="9.637097637939371"><ele>1141.3333333333333</ele><time>2026-05-01T12:24:26Z</time></trkpt><trkpt lat="46.35587929472662" lon="9.637341495842286"><ele>1142.6666666666665</ele><time>2026-05-01T12:24:27Z</time></trkpt><trkpt lat="46.35596807934009" lon="9.637584201570064"><ele>1144.0</ele><time>2026-05-01T12:24:28Z</time></trkpt><trkpt lat="46.356077114114086" lon="9.637816171145067"><ele>1145.0</ele><time>2026-05-01T12:24:29Z</time></trkpt><trkpt lat="46.35619257689904" lon="9.638045814995156"><ele>1146.0</ele><time>2026-05-01T12:24:30Z</time></trkpt><trkpt lat="46.356315409991865" lon="9.638266160566449"><ele>1147.0</ele><time>2026-05-01T12:24:31Z</time></trkpt><trkpt lat="46.35644356761221" lon="9.638477705066546"><ele>1150.6666666666665</ele><time>2026-05-01T12:24:32Z</time></trkpt><trkpt lat="46.3565824129221" lon="9.638678067602934"><ele>1154.3333333333333</ele><time>2026-05-01T12:24:33Z</time></trkpt><trkpt lat="46.35672619957582" lon="9.638877591416835"><ele>1158.0</ele><time>2026-05-01T12:24:34Z</time></trkpt><trkpt lat="46.35686767513802" lon="9.639077938956802"><ele>1158.0</ele><time>2026-05-01T12:24:35Z</time></trkpt><trkpt lat="46.35700756358806" lon="9.639281175188444"><ele>1158.0</ele><time>2026-05-01T12:24:36Z</time></trkpt><trkpt lat="46.357152721455115" lon="9.639483695146264"><ele>1158.0</ele><time>2026-05-01T12:24:37Z</time></trkpt><trkpt lat="46.357293575183306" lon="9.639692490833147"><ele>1158.3333333333333</ele><time>2026-05-01T12:24:38Z</time></trkpt><trkpt lat="46.35743586751676" lon="9.639916337501903"><ele>1158.6666666666665</ele><time>2026-05-01T12:24:39Z</time></trkpt><trkpt lat="46.35757683455634" lon="9.640120619810718"><ele>1159.0</ele><time>2026-05-01T12:24:40Z</time></trkpt><trkpt lat="46.357721250035254" lon="9.640328859192378"><ele>1161.3333333333333</ele><time>2026-05-01T12:24:41Z</time></trkpt><trkpt lat="46.35785881414916" lon="9.640526544560057"><ele>1163.6666666666667</ele><time>2026-05-01T12:24:42Z</time></trkpt><trkpt lat="46.357997760987885" lon="9.640701949328017"><ele>1166.0</ele><time>2026-05-01T12:24:43Z</time></trkpt><trkpt lat="46.35811970615189" lon="9.640878567222085"><ele>1166.0</ele><time>2026-05-01T12:24:44Z</time></trkpt><trkpt lat="46.3582233167354" lon="9.641034148753405"><ele>1166.0</ele><time>2026-05-01T12:24:45Z</time></trkpt><trkpt lat="46.35833052059855" lon="9.641166580400238"><ele>1166.0</ele><time>2026-05-01T12:24:46Z</time></trkpt><trkpt lat="46.358459182514856" lon="9.641256817520986"><ele>1166.0</ele><time>2026-05-01T12:24:47Z</time></trkpt><trkpt lat="46.358631645292334" lon="9.641285997517297"><ele>1168.5</ele><time>2026-05-01T12:24:48Z</time></trkpt><trkpt lat="46.35883174790385" lon="9.641303006502431"><ele>1171.0</ele><time>2026-05-01T12:24:49Z</time></trkpt><trkpt lat="46.35892439540711" lon="9.641353859025315"><ele>1173.5</ele><time>2026-05-01T12:24:50Z</time></trkpt><trkpt lat="46.359040551679676" lon="9.641473597827384"><ele>1176.0</ele><time>2026-05-01T12:24:51Z</time></trkpt><trkpt lat="46.359140780401006" lon="9.64165171408088"><ele>1176.6666666666667</ele><time>2026-05-01T12:24:52Z</time></trkpt><trkpt lat="46.35924187874261" lon="9.64188592354674"><ele>1177.3333333333335</ele><time>2026-05-01T12:24:53Z</time></trkpt><trkpt lat="46.35935868336085" lon="9.64215203143268"><ele>1178.0</ele><time>2026-05-01T12:24:54Z</time></trkpt><trkpt lat="46.35944994610877" lon="9.642356420253208"><ele>1179.2</ele><time>2026-05-01T12:24:55Z</time></trkpt><trkpt lat="46.3595260722833" lon="9.642531820149088"><ele>1180.4</ele><time>2026-05-01T12:24:56Z</time></trkpt><trkpt lat="46.35957557677" lon="9.642670918102581"><ele>1181.6000000000001</ele><time>2026-05-01T12:24:57Z</time></trkpt><trkpt lat="46.35957476895924" lon="9.642790360714235"><ele>1182.8</ele><time>2026-05-01T12:24:58Z</time></trkpt><trkpt lat="46.35954376885438" lon="9.642907272802644"><ele>1184.0</ele><time>2026-05-01T12:24:59Z</time></trkpt><trkpt lat="46.35941281084972" lon="9.642942815038397"><ele>1185.75</ele><time>2026-05-01T12:25:00Z</time></trkpt><trkpt lat="46.3592896122954" lon="9.643014265630134"><ele>1187.5</ele><time>2026-05-01T12:25:01Z</time></trkpt><trkpt lat="46.35916328679532" lon="9.643127783371392"><ele>1189.25</ele><time>2026-05-01T12:25:02Z</time></trkpt><trkpt lat="46.359008007231274" lon="9.643215582572662"><ele>1191.0</ele><time>2026-05-01T12:25:03Z</time></trkpt><trkpt lat="46.35884584670831" lon="9.643342041682747"><ele>1191.0</ele><time>2026-05-01T12:25:04Z</time></trkpt><trkpt lat="46.35867236785293" lon="9.643480929485614"><ele>1191.0</ele><time>2026-05-01T12:25:05Z</time></trkpt><trkpt lat="46.35850635269075" lon="9.643601751741615"><ele>1191.0</ele><time>2026-05-01T12:25:06Z</time></trkpt><trkpt lat="46.35837008439203" lon="9.643696536719382"><ele>1193.2</ele><time>2026-05-01T12:25:07Z</time></trkpt><trkpt lat="46.358267170482435" lon="9.64378221512195"><ele>1195.3999999999999</ele><time>2026-05-01T12:25:08Z</time></trkpt><trkpt lat="46.358216525834536" lon="9.643878898134233"><ele>1197.6</ele><time>2026-05-01T12:25:09Z</time></trkpt><trkpt lat="46.35819392025884" lon="9.643994897249863"><ele>1199.8</ele><time>2026-05-01T12:25:10Z</time></trkpt><trkpt lat="46.35824856545919" lon="9.644139594149507"><ele>1202.0</ele><time>2026-05-01T12:25:11Z</time></trkpt><trkpt lat="46.3583524079462" lon="9.644253200970748"><ele>1202.0</ele><time>2026-05-01T12:25:12Z</time></trkpt><trkpt lat="46.35850391914632" lon="9.644268932943294"><ele>1202.0</ele><time>2026-05-01T12:25:13Z</time></trkpt><trkpt lat="46.35865460944153" lon="9.644283211091555"><ele>1202.0</ele><time>2026-05-01T12:25:14Z</time></trkpt><trkpt lat="46.35880946538815" lon="9.644336442821071"><ele>1203.6666666666667</ele><time>2026-05-01T12:25:15Z</time></trkpt><trkpt lat="46.3589616715668" lon="9.644435241347612"><ele>1205.3333333333333</ele><time>2026-05-01T12:25:16Z</time></trkpt><trkpt lat="46.359116139511094" lon="9.64452223886331"><ele>1207.0</ele><time>2026-05-01T12:25:17Z</time></trkpt><trkpt lat="46.35927578102239" lon="9.644616960987877"><ele>1211.3333333333333</ele><time>2026-05-01T12:25:18Z</time></trkpt><trkpt lat="46.35945047835887" lon="9.64470535400316"><ele>1215.6666666666667</ele><time>2026-05-01T12:25:19Z</time></trkpt><trkpt lat="46.3596035213811" lon="9.644882156769437"><ele>1220.0</ele><time>2026-05-01T12:25:20Z</time></trkpt><trkpt lat="46.359765222090886" lon="9.645075600668628"><ele>1220.0</ele><time>2026-05-01T12:25:21Z</time></trkpt><trkpt lat="46.35992240533803" lon="9.645235515099232"><ele>1220.0</ele><time>2026-05-01T12:25:22Z</time></trkpt><trkpt lat="46.360095382592114" lon="9.645302745052616"><ele>1220.0</ele><time>2026-05-01T12:25:23Z</time></trkpt><trkpt lat="46.36027956265335" lon="9.645374083106443"><ele>1225.3333333333335</ele><time>2026-05-01T12:25:24Z</time></trkpt><trkpt lat="46.36048219472512" lon="9.645425661900953"><ele>1230.6666666666667</ele><time>2026-05-01T12:25:25Z</time></trkpt><trkpt lat="46.36066952687105" lon="9.645550786409368"><ele>1236.0</ele><time>2026-05-01T12:25:26Z</time></trkpt><trkpt lat="46.36086831851985" lon="9.645672620406547"><ele>1236.0</ele><time>2026-05-01T12:25:27Z</time></trkpt><trkpt lat="46.36102917961315" lon="9.645839451714888"><ele>1236.0</ele><time>2026-05-01T12:25:28Z</time></trkpt><trkpt lat="46.361168811051755" lon="9.646016562362291"><ele>1236.0</ele><time>2026-05-01T12:25:29Z</time></trkpt><trkpt lat="46.361322491850714" lon="9.646130418248434"><ele>1239.3333333333333</ele><time>2026-05-01T12:25:30Z</time></trkpt><trkpt lat="46.36149601095892" lon="9.646242851386592"><ele>1242.6666666666665</ele><time>2026-05-01T12:25:31Z</time></trkpt><trkpt lat="46.361703686388296" lon="9.646318014975634"><ele>1246.0</ele><time>2026-05-01T12:25:32Z</time></trkpt><trkpt lat="46.361877020535864" lon="9.64637213591127"><ele>1246.0</ele><time>2026-05-01T12:25:33Z</time></trkpt><trkpt lat="46.36203243956777" lon="9.64640692761493"><ele>1246.0</ele><time>2026-05-01T12:25:34Z</time></trkpt><trkpt lat="46.36213527018923" lon="9.646463322013776"><ele>1246.0</ele><time>2026-05-01T12:25:35Z</time></trkpt><trkpt lat="46.36219841483313" lon="9.646542114042488"><ele>1246.0</ele><time>2026-05-01T12:25:36Z</time></trkpt><trkpt lat="46.36222614591462" lon="9.646661599031022"><ele>1246.0</ele><time>2026-05-01T12:25:37Z</time></trkpt><trkpt lat="46.36218317559903" lon="9.646795151098674"><ele>1246.0</ele><time>2026-05-01T12:25:38Z</time></trkpt><trkpt lat="46.3620639075507" lon="9.646834818491826"><ele>1246.0</ele><time>2026-05-01T12:25:39Z</time></trkpt><trkpt lat="46.36196887758917" lon="9.646938314298627"><ele>1246.0</ele><time>2026-05-01T12:25:40Z</time></trkpt><trkpt lat="46.36185764168471" lon="9.647081926182274"><ele>1246.0</ele><time>2026-05-01T12:25:41Z</time></trkpt><trkpt lat="46.36173983611756" lon="9.647213306718113"><ele>1249.25</ele><time>2026-05-01T12:25:42Z</time></trkpt><trkpt lat="46.361619091002645" lon="9.647338965488846"><ele>1252.5</ele><time>2026-05-01T12:25:43Z</time></trkpt><trkpt lat="46.361515750526486" lon="9.647456253528295"><ele>1255.75</ele><time>2026-05-01T12:25:44Z</time></trkpt><trkpt lat="46.361386240090326" lon="9.64753738349615"><ele>1259.0</ele><time>2026-05-01T12:25:45Z</time></trkpt><trkpt lat="46.36126538194623" lon="9.647583853189017"><ele>1259.0</ele><time>2026-05-01T12:25:46Z</time></trkpt><trkpt lat="46.36115695924439" lon="9.647569636643722"><ele>1259.0</ele><time>2026-05-01T12:25:47Z</time></trkpt><trkpt lat="46.36100513377463" lon="9.647566879027002"><ele>1259.0</ele><time>2026-05-01T12:25:48Z</time></trkpt><trkpt lat="46.36091802947615" lon="9.647592489771615"><ele>1259.0</ele><time>2026-05-01T12:25:49Z</time></trkpt><trkpt lat="46.36084925343971" lon="9.64766212839283"><ele>1259.0</ele><time>2026-05-01T12:25:50.001Z</time></trkpt><trkpt lat="46.36079929222628" lon="9.647803583283503"><ele>1261.75</ele><time>2026-05-01T12:25:51.001Z</time></trkpt><trkpt lat="46.36086317772555" lon="9.64799028259139"><ele>1264.5</ele><time>2026-05-01T12:25:52.001Z</time></trkpt><trkpt lat="46.36095325365644" lon="9.648102268026316"><ele>1267.25</ele><time>2026-05-01T12:25:53.001Z</time></trkpt><trkpt lat="46.36105603438613" lon="9.648196011271384"><ele>1270.0</ele><time>2026-05-01T12:25:54.001Z</time></trkpt><trkpt lat="46.3611638801765" lon="9.648296406916392"><ele>1270.0</ele><time>2026-05-01T12:25:55.001Z</time></trkpt><trkpt lat="46.36128966256019" lon="9.648452699685823"><ele>1270.0</ele><time>2026-05-01T12:25:56.001Z</time></trkpt><trkpt lat="46.36143184734887" lon="9.64857429390746"><ele>1270.0</ele><time>2026-05-01T12:25:57.001Z</time></trkpt><trkpt lat="46.36147775166219" lon="9.648655199605328"><ele>1270.0</ele><time>2026-05-01T12:25:58.001Z</time></trkpt><trkpt lat="46.36164153561383" lon="9.648759214895064"><ele>1276.0</ele><time>2026-05-01T12:25:59.001Z</time></trkpt><trkpt lat="46.361824994349064" lon="9.648864930199277"><ele>1282.0</ele><time>2026-05-01T12:26:00.001Z</time></trkpt><trkpt lat="46.36199961863364" lon="9.648965919742846"><ele>1288.0</ele><time>2026-05-01T12:26:01.001Z</time></trkpt><trkpt lat="46.36218301700134" lon="9.649053737922964"><ele>1288.0</ele><time>2026-05-01T12:26:02.001Z</time></trkpt><trkpt lat="46.362360163421535" lon="9.64902137813085"><ele>1288.0</ele><time>2026-05-01T12:26:03.001Z</time></trkpt><trkpt lat="46.36250110246845" lon="9.649001887934562"><ele>1288.0</ele><time>2026-05-01T12:26:04.001Z</time></trkpt><trkpt lat="46.362633630289196" lon="9.649069581826954"><ele>1288.0</ele><time>2026-05-01T12:26:05Z</time></trkpt><trkpt lat="46.36270979213996" lon="9.649241100310224"><ele>1288.0</ele><time>2026-05-01T12:26:06Z</time></trkpt><trkpt lat="46.3628289669372" lon="9.6494318768687"><ele>1288.0</ele><time>2026-05-01T12:26:07Z</time></trkpt><trkpt lat="46.3629756909611" lon="9.649588769105604"><ele>1288.0</ele><time>2026-05-01T12:26:08Z</time></trkpt><trkpt lat="46.36312171836875" lon="9.64976125257684"><ele>1288.0</ele><time>2026-05-01T12:26:09Z</time></trkpt><trkpt lat="46.36327834942167" lon="9.649925498717721"><ele>1288.0</ele><time>2026-05-01T12:26:10Z</time></trkpt><trkpt lat="46.363432366456166" lon="9.650082043945025"><ele>1288.0</ele><time>2026-05-01T12:26:11Z</time></trkpt><trkpt lat="46.36358627876566" lon="9.650214811555266"><ele>1288.0</ele><time>2026-05-01T12:26:12Z</time></trkpt><trkpt lat="46.36374955239783" lon="9.650272504273596"><ele>1288.0</ele><time>2026-05-01T12:26:13Z</time></trkpt><trkpt lat="46.36389565012765" lon="9.65029708631891"><ele>1287.0</ele><time>2026-05-01T12:26:14Z</time></trkpt><trkpt lat="46.36401772067363" lon="9.650274110799758"><ele>1286.0</ele><time>2026-05-01T12:26:15Z</time></trkpt><trkpt lat="46.36410766624292" lon="9.650305061562339"><ele>1285.0</ele><time>2026-05-01T12:26:16Z</time></trkpt><trkpt lat="46.36412155781558" lon="9.650430184713528"><ele>1284.0</ele><time>2026-05-01T12:26:17Z</time></trkpt><trkpt lat="46.364056292683536" lon="9.650517230036899"><ele>1283.0</ele><time>2026-05-01T12:26:18Z</time></trkpt><trkpt lat="46.364001916663725" lon="9.650573584126887"><ele>1285.75</ele><time>2026-05-01T12:26:19Z</time></trkpt><trkpt lat="46.36391287956752" lon="9.650654902570828"><ele>1288.5</ele><time>2026-05-01T12:26:20Z</time></trkpt><trkpt lat="46.36383636640125" lon="9.650815240683505"><ele>1291.25</ele><time>2026-05-01T12:26:21Z</time></trkpt><trkpt lat="46.36379902843292" lon="9.65099596084667"><ele>1294.0</ele><time>2026-05-01T12:26:22Z</time></trkpt><trkpt lat="46.363770676391596" lon="9.65112080656453"><ele>1296.8333333333333</ele><time>2026-05-01T12:26:23Z</time></trkpt><trkpt lat="46.3637386351211" lon="9.651226624716239"><ele>1299.6666666666665</ele><time>2026-05-01T12:26:24Z</time></trkpt><trkpt lat="46.36368409505253" lon="9.651322976031153"><ele>1302.5</ele><time>2026-05-01T12:26:25Z</time></trkpt><trkpt lat="46.36361618357258" lon="9.651379822919354"><ele>1305.3333333333333</ele><time>2026-05-01T12:26:26Z</time></trkpt><trkpt lat="46.36352770839011" lon="9.651406744404254"><ele>1308.1666666666667</ele><time>2026-05-01T12:26:27Z</time></trkpt><trkpt lat="46.363424083784395" lon="9.651413565347383"><ele>1311.0</ele><time>2026-05-01T12:26:28Z</time></trkpt><trkpt lat="46.3633052762158" lon="9.651398228472274"><ele>1311.0</ele><time>2026-05-01T12:26:29Z</time></trkpt><trkpt lat="46.36318550090757" lon="9.651382485994812"><ele>1311.0</ele><time>2026-05-01T12:26:30Z</time></trkpt><trkpt lat="46.363070951000026" lon="9.651368225093991"><ele>1311.0</ele><time>2026-05-01T12:26:31Z</time></trkpt><trkpt lat="46.362969162027674" lon="9.651367679652207"><ele>1311.0</ele><time>2026-05-01T12:26:32Z</time></trkpt><trkpt lat="46.36288949698232" lon="9.65136069291582"><ele>1311.0</ele><time>2026-05-01T12:26:33Z</time></trkpt><trkpt lat="46.362821819439354" lon="9.651352283693127"><ele>1313.1999999999998</ele><time>2026-05-01T12:26:34Z</time></trkpt><trkpt lat="46.3627259781654" lon="9.651350173487574"><ele>1315.3999999999999</ele><time>2026-05-01T12:26:36Z</time></trkpt><trkpt lat="46.3626195754645" lon="9.651438584512182"><ele>1317.6</ele><time>2026-05-01T12:26:38Z</time></trkpt><trkpt lat="46.36258560153532" lon="9.651547258254103"><ele>1319.8</ele><time>2026-05-01T12:26:39Z</time></trkpt><trkpt lat="46.36259241551664" lon="9.651682509896073"><ele>1322.0</ele><time>2026-05-01T12:26:40Z</time></trkpt><trkpt lat="46.36267660325556" lon="9.651784577810668"><ele>1322.0</ele><time>2026-05-01T12:26:41Z</time></trkpt><trkpt lat="46.362772135659526" lon="9.651784704064402"><ele>1322.0</ele><time>2026-05-01T12:26:42Z</time></trkpt><trkpt lat="46.36290935378836" lon="9.651862516470501"><ele>1322.0</ele><time>2026-05-01T12:26:43Z</time></trkpt><trkpt lat="46.363077401456685" lon="9.651899308001276"><ele>1322.0</ele><time>2026-05-01T12:26:44Z</time></trkpt><trkpt lat="46.36317682665869" lon="9.651998794919567"><ele>1323.0</ele><time>2026-05-01T12:26:45Z</time></trkpt><trkpt lat="46.36329558312749" lon="9.652108405975543"><ele>1324.0</ele><time>2026-05-01T12:26:46Z</time></trkpt><trkpt lat="46.36338285657434" lon="9.652304092642606"><ele>1325.0</ele><time>2026-05-01T12:26:47Z</time></trkpt><trkpt lat="46.36349292094613" lon="9.652513931068798"><ele>1325.0</ele><time>2026-05-01T12:26:48Z</time></trkpt><trkpt lat="46.36360580967842" lon="9.652711368485603"><ele>1325.0</ele><time>2026-05-01T12:26:49Z</time></trkpt><trkpt lat="46.36372510831804" lon="9.652868220051515"><ele>1325.0</ele><time>2026-05-01T12:26:50Z</time></trkpt><trkpt lat="46.36385357185964" lon="9.653023960335453"><ele>1327.3333333333335</ele><time>2026-05-01T12:26:51Z</time></trkpt><trkpt lat="46.363996886297045" lon="9.653157730536563"><ele>1329.6666666666667</ele><time>2026-05-01T12:26:52Z</time></trkpt><trkpt lat="46.36414565186501" lon="9.653274610703631"><ele>1332.0</ele><time>2026-05-01T12:26:53Z</time></trkpt><trkpt lat="46.36430831073893" lon="9.65336011055713"><ele>1332.0</ele><time>2026-05-01T12:26:54Z</time></trkpt><trkpt lat="46.36447382509864" lon="9.65343121065166"><ele>1332.0</ele><time>2026-05-01T12:26:55Z</time></trkpt><trkpt lat="46.364638076844834" lon="9.653474602636484"><ele>1332.0</ele><time>2026-05-01T12:26:56Z</time></trkpt><trkpt lat="46.36479825596298" lon="9.653500332512813"><ele>1330.5</ele><time>2026-05-01T12:26:57Z</time></trkpt><trkpt lat="46.364960492063005" lon="9.65352520734105"><ele>1329.0</ele><time>2026-05-01T12:26:58Z</time></trkpt><trkpt lat="46.36509860907646" lon="9.653559416310403"><ele>1327.5</ele><time>2026-05-01T12:26:59Z</time></trkpt><trkpt lat="46.36522879235106" lon="9.653592555221575"><ele>1326.0</ele><time>2026-05-01T12:27:00Z</time></trkpt><trkpt lat="46.36536373199797" lon="9.65362400150963"><ele>1328.25</ele><time>2026-05-01T12:27:01Z</time></trkpt><trkpt lat="46.36549781093438" lon="9.653658136362681"><ele>1330.5</ele><time>2026-05-01T12:27:02Z</time></trkpt><trkpt lat="46.36562392042474" lon="9.653696739139104"><ele>1332.75</ele><time>2026-05-01T12:27:03Z</time></trkpt><trkpt lat="46.365747255809865" lon="9.653733127548621"><ele>1335.0</ele><time>2026-05-01T12:27:04Z</time></trkpt><trkpt lat="46.365872097012826" lon="9.653764281846405"><ele>1335.0</ele><time>2026-05-01T12:27:05Z</time></trkpt><trkpt lat="46.365997791362254" lon="9.653791843600445"><ele>1335.0</ele><time>2026-05-01T12:27:06Z</time></trkpt><trkpt lat="46.36611854994162" lon="9.653817231583574"><ele>1335.0</ele><time>2026-05-01T12:27:07Z</time></trkpt><trkpt lat="46.366232385562" lon="9.653845832833232"><ele>1335.0</ele><time>2026-05-01T12:27:08Z</time></trkpt><trkpt lat="46.36631466623672" lon="9.653862602432687"><ele>1335.0</ele><time>2026-05-01T12:27:09Z</time></trkpt><trkpt lat="46.36638036038701" lon="9.6538725867185"><ele>1335.1666666666667</ele><time>2026-05-01T12:27:11Z</time></trkpt><trkpt lat="46.36644581803536" lon="9.653891058801573"><ele>1335.3333333333333</ele><time>2026-05-01T12:27:14Z</time></trkpt><trkpt lat="46.36652530776041" lon="9.653922058699699"><ele>1335.5</ele><time>2026-05-01T12:27:17Z</time></trkpt><trkpt lat="46.36660190972684" lon="9.653960937000871"><ele>1335.6666666666665</ele><time>2026-05-01T12:27:20Z</time></trkpt><trkpt lat="46.36669397863927" lon="9.654040465084483"><ele>1335.8333333333333</ele><time>2026-05-01T12:27:22Z</time></trkpt><trkpt lat="46.366737477770684" lon="9.654144642661986"><ele>1336.0</ele><time>2026-05-01T12:27:23Z</time></trkpt><trkpt lat="46.36677577023942" lon="9.654263687427806"><ele>1336.0</ele><time>2026-05-01T12:27:24Z</time></trkpt><trkpt lat="46.36675906710805" lon="9.654398942322693"><ele>1336.0</ele><time>2026-05-01T12:27:25Z</time></trkpt><trkpt lat="46.36670699695741" lon="9.654529286386145"><ele>1336.0</ele><time>2026-05-01T12:27:26Z</time></trkpt><trkpt lat="46.36664308662943" lon="9.654674608714004"><ele>1336.0</ele><time>2026-05-01T12:27:27Z</time></trkpt><trkpt lat="46.36656767392838" lon="9.654838280062254"><ele>1338.75</ele><time>2026-05-01T12:27:28Z</time></trkpt><trkpt lat="46.366507080422075" lon="9.655004220134536"><ele>1341.5</ele><time>2026-05-01T12:27:29Z</time></trkpt><trkpt lat="46.36640747045048" lon="9.655166068933752"><ele>1344.25</ele><time>2026-05-01T12:27:30Z</time></trkpt><trkpt lat="46.36629612277524" lon="9.655346472037708"><ele>1347.0</ele><time>2026-05-01T12:27:31Z</time></trkpt><trkpt lat="46.36614687138145" lon="9.655495479295562"><ele>1348.3333333333333</ele><time>2026-05-01T12:27:32Z</time></trkpt><trkpt lat="46.366009208056354" lon="9.655654353320822"><ele>1349.6666666666665</ele><time>2026-05-01T12:27:33Z</time></trkpt><trkpt lat="46.36586335652937" lon="9.655775905645882"><ele>1351.0</ele><time>2026-05-01T12:27:34Z</time></trkpt><trkpt lat="46.365725037312686" lon="9.655905380885661"><ele>1351.0</ele><time>2026-05-01T12:27:35Z</time></trkpt><trkpt lat="46.365601189899266" lon="9.656021875114709"><ele>1351.0</ele><time>2026-05-01T12:27:36Z</time></trkpt><trkpt lat="46.36549165988575" lon="9.656122430681696"><ele>1351.0</ele><time>2026-05-01T12:27:37Z</time></trkpt><trkpt lat="46.36538278080132" lon="9.65622031069679"><ele>1351.0</ele><time>2026-05-01T12:27:38Z</time></trkpt><trkpt lat="46.36529582299274" lon="9.656317901433107"><ele>1353.4</ele><time>2026-05-01T12:27:39Z</time></trkpt><trkpt lat="46.365249579103036" lon="9.656445321824412"><ele>1355.8</ele><time>2026-05-01T12:27:40Z</time></trkpt><trkpt lat="46.36525338020549" lon="9.656590699827193"><ele>1358.2</ele><time>2026-05-01T12:27:40.999Z</time></trkpt><trkpt lat="46.3653317757017" lon="9.656718338494187"><ele>1360.6000000000001</ele><time>2026-05-01T12:27:41.999Z</time></trkpt><trkpt lat="46.36544523025666" lon="9.656800318237455"><ele>1363.0</ele><time>2026-05-01T12:27:42.999Z</time></trkpt><trkpt lat="46.365579153327715" lon="9.656861273232936"><ele>1363.0</ele><time>2026-05-01T12:27:43.999Z</time></trkpt><trkpt lat="46.365758171589626" lon="9.65691189021941"><ele>1363.0</ele><time>2026-05-01T12:27:44.999Z</time></trkpt><trkpt lat="46.36591127919866" lon="9.656969846929703"><ele>1363.0</ele><time>2026-05-01T12:27:45.999Z</time></trkpt><trkpt lat="46.36610692016172" lon="9.657067070469905"><ele>1366.6666666666665</ele><time>2026-05-01T12:27:46.999Z</time></trkpt><trkpt lat="46.36632512587048" lon="9.657171152913765"><ele>1370.3333333333333</ele><time>2026-05-01T12:27:47.999Z</time></trkpt><trkpt lat="46.36653257165075" lon="9.65725707037509"><ele>1374.0</ele><time>2026-05-01T12:27:48.999Z</time></trkpt><trkpt lat="46.36673134094215" lon="9.6573468813181"><ele>1375.0</ele><time>2026-05-01T12:27:49.999Z</time></trkpt><trkpt lat="46.36693750648254" lon="9.657345700165287"><ele>1376.0</ele><time>2026-05-01T12:27:50.999Z</time></trkpt><trkpt lat="46.367145228501904" lon="9.657323329351268"><ele>1377.0</ele><time>2026-05-01T12:27:51.999Z</time></trkpt><trkpt lat="46.36735540078378" lon="9.657293043671382"><ele>1379.0</ele><time>2026-05-01T12:27:52.999Z</time></trkpt><trkpt lat="46.36756879240306" lon="9.657282773220583"><ele>1381.0</ele><time>2026-05-01T12:27:53.999Z</time></trkpt><trkpt lat="46.36778707478857" lon="9.657329561236892"><ele>1383.0</ele><time>2026-05-01T12:27:54.999Z</time></trkpt><trkpt lat="46.36800665411848" lon="9.657385483638633"><ele>1385.3333333333333</ele><time>2026-05-01T12:27:56Z</time></trkpt><trkpt lat="46.3682214981159" lon="9.657468966957717"><ele>1387.6666666666665</ele><time>2026-05-01T12:27:57Z</time></trkpt><trkpt lat="46.36842816380204" lon="9.657574697606652"><ele>1390.0</ele><time>2026-05-01T12:27:58Z</time></trkpt><trkpt lat="46.36862702722089" lon="9.657672335423207"><ele>1393.0</ele><time>2026-05-01T12:27:59Z</time></trkpt><trkpt lat="46.368817572445664" lon="9.657806860757482"><ele>1396.0</ele><time>2026-05-01T12:28:00Z</time></trkpt><trkpt lat="46.369000754783976" lon="9.657913176897823"><ele>1399.0</ele><time>2026-05-01T12:28:01Z</time></trkpt><trkpt lat="46.36917661165273" lon="9.657966182108998"><ele>1400.0</ele><time>2026-05-01T12:28:02Z</time></trkpt><trkpt lat="46.36933518877535" lon="9.657962618420829"><ele>1401.0</ele><time>2026-05-01T12:28:03Z</time></trkpt><trkpt lat="46.36948142263882" lon="9.65795118819996"><ele>1402.0</ele><time>2026-05-01T12:28:04Z</time></trkpt><trkpt lat="46.369607027953606" lon="9.658011225637171"><ele>1403.0</ele><time>2026-05-01T12:28:05Z</time></trkpt><trkpt lat="46.369742533203535" lon="9.658087200012282"><ele>1405.6666666666667</ele><time>2026-05-01T12:28:06Z</time></trkpt><trkpt lat="46.36988935138564" lon="9.658167163833605"><ele>1408.3333333333333</ele><time>2026-05-01T12:28:07Z</time></trkpt><trkpt lat="46.37004769639728" lon="9.658289140404769"><ele>1411.0</ele><time>2026-05-01T12:28:08Z</time></trkpt><trkpt lat="46.37020394364553" lon="9.658396915554693"><ele>1411.0</ele><time>2026-05-01T12:28:09Z</time></trkpt><trkpt lat="46.37034605808175" lon="9.658494629226604"><ele>1411.0</ele><time>2026-05-01T12:28:10Z</time></trkpt><trkpt lat="46.37048482174574" lon="9.658620932930587"><ele>1411.0</ele><time>2026-05-01T12:28:11Z</time></trkpt><trkpt lat="46.370627363685564" lon="9.658765392884114"><ele>1414.3333333333333</ele><time>2026-05-01T12:28:12Z</time></trkpt><trkpt lat="46.37076798346642" lon="9.658944513279193"><ele>1417.6666666666667</ele><time>2026-05-01T12:28:13Z</time></trkpt><trkpt lat="46.370918019263854" lon="9.659105298071182"><ele>1421.0</ele><time>2026-05-01T12:28:14Z</time></trkpt><trkpt lat="46.37105340382501" lon="9.65925355035427"><ele>1421.0</ele><time>2026-05-01T12:28:15Z</time></trkpt><trkpt lat="46.37116640731377" lon="9.65938208780317"><ele>1421.0</ele><time>2026-05-01T12:28:16Z</time></trkpt><trkpt lat="46.37125872798539" lon="9.659493739317783"><ele>1421.0</ele><time>2026-05-01T12:28:17Z</time></trkpt><trkpt lat="46.371335367182034" lon="9.6596006021954"><ele>1421.0</ele><time>2026-05-01T12:28:18Z</time></trkpt><trkpt lat="46.371416638141035" lon="9.659681566095873"><ele>1424.75</ele><time>2026-05-01T12:28:19Z</time></trkpt><trkpt lat="46.371507044722" lon="9.659758869154853"><ele>1428.5</ele><time>2026-05-01T12:28:20Z</time></trkpt><trkpt lat="46.37162570656683" lon="9.659795077775549"><ele>1432.25</ele><time>2026-05-01T12:28:21Z</time></trkpt><trkpt lat="46.371789207032734" lon="9.659757650279937"><ele>1436.0</ele><time>2026-05-01T12:28:22Z</time></trkpt><trkpt lat="46.37194474649597" lon="9.659707872240569"><ele>1436.0</ele><time>2026-05-01T12:28:23Z</time></trkpt><trkpt lat="46.3720757951131" lon="9.659698490111797"><ele>1436.0</ele><time>2026-05-01T12:28:24Z</time></trkpt><trkpt lat="46.37216836214227" lon="9.65972575898741"><ele>1436.0</ele><time>2026-05-01T12:28:25Z</time></trkpt><trkpt lat="46.372291239292174" lon="9.659702093229798"><ele>1436.0</ele><time>2026-05-01T12:28:26Z</time></trkpt><trkpt lat="46.37251093915815" lon="9.65974208109657"><ele>1438.0</ele><time>2026-05-01T12:28:27Z</time></trkpt><trkpt lat="46.372657821155244" lon="9.659772079342405"><ele>1440.0</ele><time>2026-05-01T12:28:28Z</time></trkpt><trkpt lat="46.37280606814971" lon="9.659784437148776"><ele>1442.0</ele><time>2026-05-01T12:28:29Z</time></trkpt><trkpt lat="46.372959004469166" lon="9.659776771700317"><ele>1445.0</ele><time>2026-05-01T12:28:30Z</time></trkpt><trkpt lat="46.373106468409816" lon="9.659747005182965"><ele>1448.0</ele><time>2026-05-01T12:28:31Z</time></trkpt><trkpt lat="46.37324248186745" lon="9.659682463914782"><ele>1451.0</ele><time>2026-05-01T12:28:32Z</time></trkpt><trkpt lat="46.373378824013734" lon="9.659605513535073"><ele>1454.0</ele><time>2026-05-01T12:28:33Z</time></trkpt><trkpt lat="46.373498956164866" lon="9.659520372801776"><ele>1454.0</ele><time>2026-05-01T12:28:34Z</time></trkpt><trkpt lat="46.37363191630492" lon="9.659453374107429"><ele>1454.0</ele><time>2026-05-01T12:28:35Z</time></trkpt><trkpt lat="46.373771314738214" lon="9.65940496512573"><ele>1454.0</ele><time>2026-05-01T12:28:36Z</time></trkpt><trkpt lat="46.37392559827961" lon="9.65936860763045"><ele>1454.0</ele><time>2026-05-01T12:28:37Z</time></trkpt><trkpt lat="46.37407978438177" lon="9.659369039342508"><ele>1452.6666666666667</ele><time>2026-05-01T12:28:38Z</time></trkpt><trkpt lat="46.37424087561852" lon="9.659383124217747"><ele>1451.3333333333333</ele><time>2026-05-01T12:28:39Z</time></trkpt><trkpt lat="46.374399335510404" lon="9.659454653952489"><ele>1450.0</ele><time>2026-05-01T12:28:40Z</time></trkpt><trkpt lat="46.374555444237515" lon="9.659537424796671"><ele>1446.6666666666665</ele><time>2026-05-01T12:28:41Z</time></trkpt><trkpt lat="46.374716141578084" lon="9.659639432502255"><ele>1443.3333333333333</ele><time>2026-05-01T12:28:42Z</time></trkpt><trkpt lat="46.37488751992206" lon="9.659738101871357"><ele>1440.0</ele><time>2026-05-01T12:28:43Z</time></trkpt><trkpt lat="46.375048723681076" lon="9.659839619466606"><ele>1440.0</ele><time>2026-05-01T12:28:44Z</time></trkpt><trkpt lat="46.37521324080117" lon="9.659911202991275"><ele>1440.0</ele><time>2026-05-01T12:28:45Z</time></trkpt><trkpt lat="46.37541454016124" lon="9.659963924328597"><ele>1440.0</ele><time>2026-05-01T12:28:46Z</time></trkpt><trkpt lat="46.375632314769206" lon="9.660015289917377"><ele>1436.5</ele><time>2026-05-01T12:28:47Z</time></trkpt><trkpt lat="46.375858741402624" lon="9.660113308233722"><ele>1433.0</ele><time>2026-05-01T12:28:48Z</time></trkpt><trkpt lat="46.376111728619485" lon="9.660198159985319"><ele>1436.0</ele><time>2026-05-01T12:28:49Z</time></trkpt><trkpt lat="46.37637249762493" lon="9.660287743034992"><ele>1439.0</ele><time>2026-05-01T12:28:50Z</time></trkpt><trkpt lat="46.376608902126165" lon="9.660352731431804"><ele>1439.0</ele><time>2026-05-01T12:28:51Z</time></trkpt><trkpt lat="46.37685427040055" lon="9.660442911579201"><ele>1439.0</ele><time>2026-05-01T12:28:52Z</time></trkpt><trkpt lat="46.37711556670287" lon="9.660529664492405"><ele>1438.5</ele><time>2026-05-01T12:28:53Z</time></trkpt><trkpt lat="46.377383309872904" lon="9.660610002326901"><ele>1438.0</ele><time>2026-05-01T12:28:54Z</time></trkpt><trkpt lat="46.37764942999696" lon="9.660677320615374"><ele>1438.0</ele><time>2026-05-01T12:28:55Z</time></trkpt><trkpt lat="46.37792613114194" lon="9.660724030026904"><ele>1438.0</ele><time>2026-05-01T12:28:56Z</time></trkpt><trkpt lat="46.378203906528704" lon="9.660747487497062"><ele>1437.0</ele><time>2026-05-01T12:28:57Z</time></trkpt><trkpt lat="46.37848176171682" lon="9.66077219504348"><ele>1436.0</ele><time>2026-05-01T12:28:58Z</time></trkpt><trkpt lat="46.37874824973727" lon="9.660806592487736"><ele>1437.0</ele><time>2026-05-01T12:28:59Z</time></trkpt><trkpt lat="46.378998409362836" lon="9.660837402100977"><ele>1438.0</ele><time>2026-05-01T12:29:00Z</time></trkpt><trkpt lat="46.37924804157978" lon="9.660866076010302"><ele>1438.0</ele><time>2026-05-01T12:29:01Z</time></trkpt><trkpt lat="46.379498298420344" lon="9.660889394002808"><ele>1438.0</ele><time>2026-05-01T12:29:02Z</time></trkpt><trkpt lat="46.37974840211412" lon="9.660916473534554"><ele>1438.5</ele><time>2026-05-01T12:29:03Z</time></trkpt><trkpt lat="46.379999078754324" lon="9.660946769468739"><ele>1439.0</ele><time>2026-05-01T12:29:04Z</time></trkpt><trkpt lat="46.38024791450235" lon="9.660979096474273"><ele>1439.0</ele><time>2026-05-01T12:29:05Z</time></trkpt><trkpt lat="46.380496890538915" lon="9.661004836151388"><ele>1439.0</ele><time>2026-05-01T12:29:06Z</time></trkpt><trkpt lat="46.3807451162701" lon="9.661030308424115"><ele>1441.5</ele><time>2026-05-01T12:29:07Z</time></trkpt><trkpt lat="46.380990082351865" lon="9.661061848121635"><ele>1444.0</ele><time>2026-05-01T12:29:08Z</time></trkpt><trkpt lat="46.38123501638679" lon="9.661088301884593"><ele>1447.0</ele><time>2026-05-01T12:29:09Z</time></trkpt><trkpt lat="46.38147495097488" lon="9.661118866999724"><ele>1450.0</ele><time>2026-05-01T12:29:10Z</time></trkpt><trkpt lat="46.38171370047998" lon="9.661154763182294"><ele>1450.0</ele><time>2026-05-01T12:29:11Z</time></trkpt><trkpt lat="46.381951787802" lon="9.661222504653228"><ele>1450.0</ele><time>2026-05-01T12:29:12Z</time></trkpt><trkpt lat="46.38219056025304" lon="9.66132423863924"><ele>1445.5</ele><time>2026-05-01T12:29:13Z</time></trkpt><trkpt lat="46.38242805086264" lon="9.661459789020928"><ele>1441.0</ele><time>2026-05-01T12:29:14Z</time></trkpt><trkpt lat="46.38266312770545" lon="9.661599483222647"><ele>1441.0</ele><time>2026-05-01T12:29:15Z</time></trkpt><trkpt lat="46.382897970057215" lon="9.661730147869525"><ele>1441.0</ele><time>2026-05-01T12:29:16Z</time></trkpt><trkpt lat="46.38313434419046" lon="9.66184778630584"><ele>1442.5</ele><time>2026-05-01T12:29:17Z</time></trkpt><trkpt lat="46.383376352652114" lon="9.661965468052069"><ele>1444.0</ele><time>2026-05-01T12:29:18Z</time></trkpt><trkpt lat="46.38361179207523" lon="9.662091743976257"><ele>1444.0</ele><time>2026-05-01T12:29:19Z</time></trkpt><trkpt lat="46.38384372906178" lon="9.662211769025795"><ele>1444.0</ele><time>2026-05-01T12:29:20Z</time></trkpt><trkpt lat="46.38407394086902" lon="9.662327150634802"><ele>1444.0</ele><time>2026-05-01T12:29:21Z</time></trkpt><trkpt lat="46.38430031229666" lon="9.662444759503428"><ele>1444.0</ele><time>2026-05-01T12:29:22Z</time></trkpt><trkpt lat="46.38452650970017" lon="9.662558577689813"><ele>1444.0</ele><time>2026-05-01T12:29:23Z</time></trkpt><trkpt lat="46.38475079915763" lon="9.662673567887074"><ele>1444.0</ele><time>2026-05-01T12:29:24Z</time></trkpt><trkpt lat="46.3849722528173" lon="9.662792767652885"><ele>1445.5</ele><time>2026-05-01T12:29:25Z</time></trkpt><trkpt lat="46.385194543723685" lon="9.662911588042812"><ele>1447.0</ele><time>2026-05-01T12:29:26Z</time></trkpt><trkpt lat="46.38542022204277" lon="9.663023388702811"><ele>1448.0</ele><time>2026-05-01T12:29:27Z</time></trkpt><trkpt lat="46.385644101546525" lon="9.663134584647747"><ele>1449.0</ele><time>2026-05-01T12:29:28Z</time></trkpt><trkpt lat="46.385868116859115" lon="9.663250215679083"><ele>1449.0</ele><time>2026-05-01T12:29:29Z</time></trkpt><trkpt lat="46.386098506466666" lon="9.663367559236235"><ele>1449.0</ele><time>2026-05-01T12:29:30Z</time></trkpt><trkpt lat="46.38632796192069" lon="9.663487123752821"><ele>1449.0</ele><time>2026-05-01T12:29:30.999Z</time></trkpt><trkpt lat="46.38656239748821" lon="9.663610393855251"><ele>1449.0</ele><time>2026-05-01T12:29:31.999Z</time></trkpt><trkpt lat="46.38679526866245" lon="9.663729029041324"><ele>1449.0</ele><time>2026-05-01T12:29:32.999Z</time></trkpt><trkpt lat="46.387027254073324" lon="9.663848792661037"><ele>1449.0</ele><time>2026-05-01T12:29:33.999Z</time></trkpt><trkpt lat="46.38726546915133" lon="9.663972073661078"><ele>1450.0</ele><time>2026-05-01T12:29:34.999Z</time></trkpt><trkpt lat="46.38750361405508" lon="9.66409330457083"><ele>1451.0</ele><time>2026-05-01T12:29:35.999Z</time></trkpt><trkpt lat="46.38774379705861" lon="9.664217829502366"><ele>1451.0</ele><time>2026-05-01T12:29:36.999Z</time></trkpt><trkpt lat="46.38798093686953" lon="9.664340664829044"><ele>1451.0</ele><time>2026-05-01T12:29:37.999Z</time></trkpt><trkpt lat="46.388218678828245" lon="9.66446342410787"><ele>1453.5</ele><time>2026-05-01T12:29:38.999Z</time></trkpt><trkpt lat="46.38844679044268" lon="9.664583958708947"><ele>1456.0</ele><time>2026-05-01T12:29:39.999Z</time></trkpt><trkpt lat="46.38866220151983" lon="9.664694476244227"><ele>1456.0</ele><time>2026-05-01T12:29:40.999Z</time></trkpt><trkpt lat="46.38884467971217" lon="9.664791644318468"><ele>1456.0</ele><time>2026-05-01T12:29:41.999Z</time></trkpt><trkpt lat="46.389006891663506" lon="9.664869797157658"><ele>1456.0</ele><time>2026-05-01T12:29:42.999Z</time></trkpt><trkpt lat="46.389146961917334" lon="9.66493933878892"><ele>1456.0</ele><time>2026-05-01T12:29:43.999Z</time></trkpt><trkpt lat="46.389279403636834" lon="9.665008954691457"><ele>1456.0</ele><time>2026-05-01T12:29:44.999Z</time></trkpt><trkpt lat="46.389405120495844" lon="9.665080198121865"><ele>1456.0</ele><time>2026-05-01T12:29:45.999Z</time></trkpt><trkpt lat="46.38952379625637" lon="9.665143116922676"><ele>1456.0</ele><time>2026-05-01T12:29:46.999Z</time></trkpt><trkpt lat="46.38963808606161" lon="9.665202783378142"><ele>1456.5</ele><time>2026-05-01T12:29:47.999Z</time></trkpt><trkpt lat="46.38974974537121" lon="9.665259877889147"><ele>1457.0</ele><time>2026-05-01T12:29:48.999Z</time></trkpt><trkpt lat="46.38985772988383" lon="9.665310308618741"><ele>1457.5</ele><time>2026-05-01T12:29:49.999Z</time></trkpt><trkpt lat="46.389963857366936" lon="9.66536506312618"><ele>1458.0</ele><time>2026-05-01T12:29:50.999Z</time></trkpt><trkpt lat="46.3900702932647" lon="9.665426329658056"><ele>1458.0</ele><time>2026-05-01T12:29:51.999Z</time></trkpt><trkpt lat="46.39017774481285" lon="9.665491050914925"><ele>1458.0</ele><time>2026-05-01T12:29:52.999Z</time></trkpt><trkpt lat="46.39028112000614" lon="9.665558669476292"><ele>1458.0</ele><time>2026-05-01T12:29:53.999Z</time></trkpt><trkpt lat="46.390395614102715" lon="9.665635086431006"><ele>1458.0</ele><time>2026-05-01T12:29:54.999Z</time></trkpt><trkpt lat="46.390504836292244" lon="9.665718148210471"><ele>1459.5</ele><time>2026-05-01T12:29:55.999Z</time></trkpt><trkpt lat="46.3906045029973" lon="9.665825893872206"><ele>1461.0</ele><time>2026-05-01T12:29:56.999Z</time></trkpt><trkpt lat="46.39069506031325" lon="9.665937901236603"><ele>1462.5</ele><time>2026-05-01T12:29:57.999Z</time></trkpt><trkpt lat="46.39079644878516" lon="9.666056172383579"><ele>1464.0</ele><time>2026-05-01T12:29:58.999Z</time></trkpt><trkpt lat="46.3908875667633" lon="9.666170374124828"><ele>1464.0</ele><time>2026-05-01T12:29:59.999Z</time></trkpt><trkpt lat="46.39101410382888" lon="9.666247793441455"><ele>1464.0</ele><time>2026-05-01T12:30:00.999Z</time></trkpt><trkpt lat="46.391134553659235" lon="9.66631971128899"><ele>1464.0</ele><time>2026-05-01T12:30:02Z</time></trkpt><trkpt lat="46.391258705535314" lon="9.666401148362388"><ele>1464.0</ele><time>2026-05-01T12:30:03Z</time></trkpt><trkpt lat="46.39138475322117" lon="9.666493210034815"><ele>1464.0</ele><time>2026-05-01T12:30:04Z</time></trkpt><trkpt lat="46.39145800642341" lon="9.666602787533972"><ele>1464.0</ele><time>2026-05-01T12:30:05Z</time></trkpt><trkpt lat="46.39157261373353" lon="9.6667045614065"><ele>1464.0</ele><time>2026-05-01T12:30:06Z</time></trkpt><trkpt lat="46.391688048722756" lon="9.666813856307401"><ele>1464.0</ele><time>2026-05-01T12:30:07Z</time></trkpt><trkpt lat="46.39181254583382" lon="9.66691906163963"><ele>1465.5</ele><time>2026-05-01T12:30:08Z</time></trkpt><trkpt lat="46.39193051847968" lon="9.667042674519658"><ele>1467.0</ele><time>2026-05-01T12:30:09Z</time></trkpt><trkpt lat="46.39204403295861" lon="9.66716140658342"><ele>1468.5</ele><time>2026-05-01T12:30:10Z</time></trkpt><trkpt lat="46.39215203768846" lon="9.667280057585913"><ele>1470.0</ele><time>2026-05-01T12:30:11Z</time></trkpt><trkpt lat="46.392251328773696" lon="9.667401102963312"><ele>1470.0</ele><time>2026-05-01T12:30:12Z</time></trkpt><trkpt lat="46.3923593043033" lon="9.667525055439938"><ele>1470.0</ele><time>2026-05-01T12:30:13Z</time></trkpt><trkpt lat="46.392472777198876" lon="9.667654823657996"><ele>1470.0</ele><time>2026-05-01T12:30:14Z</time></trkpt><trkpt lat="46.39258558230449" lon="9.6677804447081"><ele>1470.0</ele><time>2026-05-01T12:30:15Z</time></trkpt><trkpt lat="46.39270241711106" lon="9.667906035918495"><ele>1470.75</ele><time>2026-05-01T12:30:16Z</time></trkpt><trkpt lat="46.39281895036959" lon="9.668034364274714"><ele>1471.5</ele><time>2026-05-01T12:30:17Z</time></trkpt><trkpt lat="46.39293371617509" lon="9.668163758151135"><ele>1472.25</ele><time>2026-05-01T12:30:18Z</time></trkpt><trkpt lat="46.39304383116787" lon="9.66829649118742"><ele>1473.0</ele><time>2026-05-01T12:30:19Z</time></trkpt><trkpt lat="46.39315325089649" lon="9.668419553905556"><ele>1475.0</ele><time>2026-05-01T12:30:20Z</time></trkpt><trkpt lat="46.39326131362706" lon="9.668544318762589"><ele>1477.0</ele><time>2026-05-01T12:30:21Z</time></trkpt><trkpt lat="46.39337657647371" lon="9.668676639074471"><ele>1479.0</ele><time>2026-05-01T12:30:22Z</time></trkpt><trkpt lat="46.39348899604895" lon="9.668823741686285"><ele>1481.0</ele><time>2026-05-01T12:30:23Z</time></trkpt><trkpt lat="46.39359115259036" lon="9.669001616408009"><ele>1481.0</ele><time>2026-05-01T12:30:24Z</time></trkpt><trkpt lat="46.39366551159118" lon="9.669156756666679"><ele>1481.0</ele><time>2026-05-01T12:30:25Z</time></trkpt><trkpt lat="46.39369026907819" lon="9.669264412527038"><ele>1481.0</ele><time>2026-05-01T12:30:26Z</time></trkpt><trkpt lat="46.393816677710255" lon="9.669590752822808"><ele>1488.6666666666667</ele><time>2026-05-01T12:30:27Z</time></trkpt><trkpt lat="46.39386511809778" lon="9.669854735423023"><ele>1496.3333333333333</ele><time>2026-05-01T12:30:28Z</time></trkpt><trkpt lat="46.39385244734235" lon="9.670146782494864"><ele>1504.0</ele><time>2026-05-01T12:30:29Z</time></trkpt><trkpt lat="46.39389250362056" lon="9.670443971416201"><ele>1504.0</ele><time>2026-05-01T12:30:30Z</time></trkpt><trkpt lat="46.393921364409955" lon="9.670727791955192"><ele>1504.0</ele><time>2026-05-01T12:30:31Z</time></trkpt><trkpt lat="46.39391511701951" lon="9.67097179356002"><ele>1504.0</ele><time>2026-05-01T12:30:32Z</time></trkpt><trkpt lat="46.39388279854218" lon="9.671176824155667"><ele>1505.8000000000002</ele><time>2026-05-01T12:30:33Z</time></trkpt><trkpt lat="46.39386979077019" lon="9.671354417626162"><ele>1507.6000000000001</ele><time>2026-05-01T12:30:34Z</time></trkpt><trkpt lat="46.39387919075042" lon="9.671508342543378"><ele>1509.4</ele><time>2026-05-01T12:30:35Z</time></trkpt><trkpt lat="46.39393590456121" lon="9.671620089193546"><ele>1511.2</ele><time>2026-05-01T12:30:36Z</time></trkpt><trkpt lat="46.39401650544131" lon="9.671685028294267"><ele>1513.0</ele><time>2026-05-01T12:30:37Z</time></trkpt><trkpt lat="46.394111585126424" lon="9.671668842951105"><ele>1513.0</ele><time>2026-05-01T12:30:38Z</time></trkpt><trkpt lat="46.39420415140817" lon="9.671559551904192"><ele>1513.0</ele><time>2026-05-01T12:30:39Z</time></trkpt><trkpt lat="46.394267665674505" lon="9.671383006593949"><ele>1513.0</ele><time>2026-05-01T12:30:40Z</time></trkpt><trkpt lat="46.39429810203944" lon="9.671179424145976"><ele>1513.0</ele><time>2026-05-01T12:30:41Z</time></trkpt><trkpt lat="46.394342221205235" lon="9.671023666457916"><ele>1513.0</ele><time>2026-05-01T12:30:42Z</time></trkpt><trkpt lat="46.39441786217245" lon="9.670929705760722"><ele>1513.0</ele><time>2026-05-01T12:30:43Z</time></trkpt><trkpt lat="46.39451342765029" lon="9.670919604735943"><ele>1513.0</ele><time>2026-05-01T12:30:44Z</time></trkpt><trkpt lat="46.39460774330525" lon="9.671007852525873"><ele>1513.0</ele><time>2026-05-01T12:30:45Z</time></trkpt><trkpt lat="46.394633287951926" lon="9.671149019096067"><ele>1513.0</ele><time>2026-05-01T12:30:46Z</time></trkpt><trkpt lat="46.39456554243829" lon="9.671293409181288"><ele>1513.0</ele><time>2026-05-01T12:30:47Z</time></trkpt><trkpt lat="46.3944861576737" lon="9.67143000548077"><ele>1513.0</ele><time>2026-05-01T12:30:48Z</time></trkpt><trkpt lat="46.39440066232026" lon="9.671619966020364"><ele>1513.0</ele><time>2026-05-01T12:30:49Z</time></trkpt><trkpt lat="46.39430077053654" lon="9.671841913611203"><ele>1515.0</ele><time>2026-05-01T12:30:50Z</time></trkpt><trkpt lat="46.39421590830049" lon="9.672082738389816"><ele>1517.0</ele><time>2026-05-01T12:30:51Z</time></trkpt><trkpt lat="46.394192313253676" lon="9.672363683772152"><ele>1519.0</ele><time>2026-05-01T12:30:52Z</time></trkpt><trkpt lat="46.3942289421976" lon="9.672601606271048"><ele>1521.6666666666665</ele><time>2026-05-01T12:30:53Z</time></trkpt><trkpt lat="46.39430363110237" lon="9.672837843777318"><ele>1524.3333333333333</ele><time>2026-05-01T12:30:54Z</time></trkpt><trkpt lat="46.39437352935965" lon="9.673065816573688"><ele>1527.0</ele><time>2026-05-01T12:30:55Z</time></trkpt><trkpt lat="46.39437886115517" lon="9.673319091758847"><ele>1527.0</ele><time>2026-05-01T12:30:56Z</time></trkpt><trkpt lat="46.39435449124413" lon="9.67359370695269"><ele>1527.0</ele><time>2026-05-01T12:30:57Z</time></trkpt><trkpt lat="46.394347183018844" lon="9.673880229859568"><ele>1527.0</ele><time>2026-05-01T12:30:58Z</time></trkpt><trkpt lat="46.3943891744905" lon="9.674139672982658"><ele>1531.6666666666665</ele><time>2026-05-01T12:30:59Z</time></trkpt><trkpt lat="46.39444335157705" lon="9.674414267797458"><ele>1536.3333333333333</ele><time>2026-05-01T12:31:00Z</time></trkpt><trkpt lat="46.39446809721175" lon="9.674686884264178"><ele>1541.0</ele><time>2026-05-01T12:31:01Z</time></trkpt><trkpt lat="46.39443417544417" lon="9.674950866320065"><ele>1545.0</ele><time>2026-05-01T12:31:02Z</time></trkpt><trkpt lat="46.3944034357568" lon="9.6752317258766"><ele>1549.0</ele><time>2026-05-01T12:31:03Z</time></trkpt><trkpt lat="46.39442609003286" lon="9.675487700155028"><ele>1553.0</ele><time>2026-05-01T12:31:04Z</time></trkpt><trkpt lat="46.39446641323621" lon="9.675736671947867"><ele>1554.0</ele><time>2026-05-01T12:31:05Z</time></trkpt><trkpt lat="46.39457005337104" lon="9.67599527963482"><ele>1555.0</ele><time>2026-05-01T12:31:06Z</time></trkpt><trkpt lat="46.394659646623055" lon="9.676253784331571"><ele>1556.0</ele><time>2026-05-01T12:31:07Z</time></trkpt><trkpt lat="46.39471368429544" lon="9.67653672506871"><ele>1556.0</ele><time>2026-05-01T12:31:08Z</time></trkpt><trkpt lat="46.39478801075541" lon="9.676770391618563"><ele>1556.0</ele><time>2026-05-01T12:31:09Z</time></trkpt><trkpt lat="46.3948789946085" lon="9.676973708154728"><ele>1556.0</ele><time>2026-05-01T12:31:10Z</time></trkpt><trkpt lat="46.39500451521873" lon="9.67712290027635"><ele>1556.0</ele><time>2026-05-01T12:31:11Z</time></trkpt><trkpt lat="46.39516065614489" lon="9.677213223076755"><ele>1556.0</ele><time>2026-05-01T12:31:12Z</time></trkpt><trkpt lat="46.39534860769756" lon="9.677199377872032"><ele>1556.0</ele><time>2026-05-01T12:31:13Z</time></trkpt><trkpt lat="46.39553417424864" lon="9.677226334454042"><ele>1556.0</ele><time>2026-05-01T12:31:14Z</time></trkpt><trkpt lat="46.3957044646696" lon="9.677338625216501"><ele>1556.0</ele><time>2026-05-01T12:31:15Z</time></trkpt><trkpt lat="46.39586720774782" lon="9.677515570879876"><ele>1556.0</ele><time>2026-05-01T12:31:16Z</time></trkpt><trkpt lat="46.39602543319072" lon="9.677737020231636"><ele>1557.6666666666665</ele><time>2026-05-01T12:31:17Z</time></trkpt><trkpt lat="46.39619546250227" lon="9.677960406709781"><ele>1559.3333333333335</ele><time>2026-05-01T12:31:18Z</time></trkpt><trkpt lat="46.396371366296115" lon="9.678143260046417"><ele>1561.0</ele><time>2026-05-01T12:31:19Z</time></trkpt><trkpt lat="46.396553370559154" lon="9.67831784453047"><ele>1561.0</ele><time>2026-05-01T12:31:19.999Z</time></trkpt><trkpt lat="46.39675533708154" lon="9.678477227534218"><ele>1561.0</ele><time>2026-05-01T12:31:20.999Z</time></trkpt><trkpt lat="46.396971886583046" lon="9.67864433186048"><ele>1563.0</ele><time>2026-05-01T12:31:21.999Z</time></trkpt><trkpt lat="46.39715695317475" lon="9.678864350084982"><ele>1565.0</ele><time>2026-05-01T12:31:22.999Z</time></trkpt><trkpt lat="46.397339774963186" lon="9.679113613790243"><ele>1565.0</ele><time>2026-05-01T12:31:23.999Z</time></trkpt><trkpt lat="46.397509218900765" lon="9.679398577614474"><ele>1565.0</ele><time>2026-05-01T12:31:24.999Z</time></trkpt><trkpt lat="46.39764835678658" lon="9.67970540969268"><ele>1558.5</ele><time>2026-05-01T12:31:25.999Z</time></trkpt><trkpt lat="46.39777175183093" lon="9.68004334143743"><ele>1552.0</ele><time>2026-05-01T12:31:26.999Z</time></trkpt><trkpt lat="46.39787744305494" lon="9.680388630819333"><ele>1550.5</ele><time>2026-05-01T12:31:27.999Z</time></trkpt><trkpt lat="46.39798379989196" lon="9.680728058384577"><ele>1549.0</ele><time>2026-05-01T12:31:28.999Z</time></trkpt><trkpt lat="46.39811225999058" lon="9.681051889574183"><ele>1555.0</ele><time>2026-05-01T12:31:29.999Z</time></trkpt><trkpt lat="46.39825042503795" lon="9.681376710198816"><ele>1561.0</ele><time>2026-05-01T12:31:30.999Z</time></trkpt><trkpt lat="46.39840063874231" lon="9.681676206570659"><ele>1558.5</ele><time>2026-05-01T12:31:31.999Z</time></trkpt><trkpt lat="46.3985123459545" lon="9.682006070734204"><ele>1556.0</ele><time>2026-05-01T12:31:32.999Z</time></trkpt><trkpt lat="46.39859739522907" lon="9.682329161669454"><ele>1556.0</ele><time>2026-05-01T12:31:33.999Z</time></trkpt><trkpt lat="46.39865157798857" lon="9.682650920772943"><ele>1556.0</ele><time>2026-05-01T12:31:34.999Z</time></trkpt><trkpt lat="46.39867643439966" lon="9.682980362801144"><ele>1556.5</ele><time>2026-05-01T12:31:35.999Z</time></trkpt><trkpt lat="46.39867925118143" lon="9.683317880810293"><ele>1557.0</ele><time>2026-05-01T12:31:36.999Z</time></trkpt><trkpt lat="46.39866130045008" lon="9.683661951372159"><ele>1559.0</ele><time>2026-05-01T12:31:37.999Z</time></trkpt><trkpt lat="46.398630649876615" lon="9.684003904626687"><ele>1561.0</ele><time>2026-05-01T12:31:38.999Z</time></trkpt><trkpt lat="46.3985832426834" lon="9.684339093817117"><ele>1561.0</ele><time>2026-05-01T12:31:39.999Z</time></trkpt><trkpt lat="46.398513893272536" lon="9.684660259044302"><ele>1561.0</ele><time>2026-05-01T12:31:40.999Z</time></trkpt><trkpt lat="46.398421069418475" lon="9.684968616740335"><ele>1561.0</ele><time>2026-05-01T12:31:41.999Z</time></trkpt><trkpt lat="46.39829699629707" lon="9.685251736423425"><ele>1561.0</ele><time>2026-05-01T12:31:42.999Z</time></trkpt><trkpt lat="46.398152992766526" lon="9.68550896363777"><ele>1562.0</ele><time>2026-05-01T12:31:43.999Z</time></trkpt><trkpt lat="46.39800191797974" lon="9.685764688792377"><ele>1563.0</ele><time>2026-05-01T12:31:44.999Z</time></trkpt><trkpt lat="46.39786219302909" lon="9.686039548354586"><ele>1566.0</ele><time>2026-05-01T12:31:45.999Z</time></trkpt><trkpt lat="46.397761217324096" lon="9.686350897889373"><ele>1569.0</ele><time>2026-05-01T12:31:46.999Z</time></trkpt><trkpt lat="46.39768859427308" lon="9.686672548338185"><ele>1571.0</ele><time>2026-05-01T12:31:47.999Z</time></trkpt><trkpt lat="46.39759767488441" lon="9.68695824250418"><ele>1573.0</ele><time>2026-05-01T12:31:48.999Z</time></trkpt><trkpt lat="46.397498630097935" lon="9.68719429117343"><ele>1575.0</ele><time>2026-05-01T12:31:49.999Z</time></trkpt><trkpt lat="46.39738434595034" lon="9.687392493890412"><ele>1575.0</ele><time>2026-05-01T12:31:50.999Z</time></trkpt><trkpt lat="46.39727065185155" lon="9.68754810145412"><ele>1575.0</ele><time>2026-05-01T12:31:51.999Z</time></trkpt><trkpt lat="46.397171122934665" lon="9.687677447556473"><ele>1575.0</ele><time>2026-05-01T12:31:52.999Z</time></trkpt><trkpt lat="46.397094322138365" lon="9.687823627781393"><ele>1575.0</ele><time>2026-05-01T12:31:53.999Z</time></trkpt><trkpt lat="46.39705100598712" lon="9.687969078449466"><ele>1577.5</ele><time>2026-05-01T12:31:54.999Z</time></trkpt><trkpt lat="46.397064216990294" lon="9.688127616146595"><ele>1580.0</ele><time>2026-05-01T12:31:55.999Z</time></trkpt><trkpt lat="46.397107146331244" lon="9.68826117493235"><ele>1582.5</ele><time>2026-05-01T12:31:56.999Z</time></trkpt><trkpt lat="46.39726529490079" lon="9.68829641489086"><ele>1585.0</ele><time>2026-05-01T12:31:57.999Z</time></trkpt><trkpt lat="46.39738775254897" lon="9.688263315319192"><ele>1587.25</ele><time>2026-05-01T12:31:58.999Z</time></trkpt><trkpt lat="46.397506616753624" lon="9.688159487443546"><ele>1589.5</ele><time>2026-05-01T12:31:59.999Z</time></trkpt><trkpt lat="46.3976149207985" lon="9.688015519406617"><ele>1591.75</ele><time>2026-05-01T12:32:00.999Z</time></trkpt><trkpt lat="46.39772141355632" lon="9.68783592415611"><ele>1594.0</ele><time>2026-05-01T12:32:01.999Z</time></trkpt><trkpt lat="46.3978396452339" lon="9.687687650066769"><ele>1592.3333333333335</ele><time>2026-05-01T12:32:02.999Z</time></trkpt><trkpt lat="46.39801204065274" lon="9.6875232121699"><ele>1590.6666666666665</ele><time>2026-05-01T12:32:03.999Z</time></trkpt><trkpt lat="46.39817199739922" lon="9.687351531578473"><ele>1589.0</ele><time>2026-05-01T12:32:04.999Z</time></trkpt><trkpt lat="46.39833896429154" lon="9.68716207536687"><ele>1589.0</ele><time>2026-05-01T12:32:05.999Z</time></trkpt><trkpt lat="46.398458576645716" lon="9.686989955067483"><ele>1589.0</ele><time>2026-05-01T12:32:06.999Z</time></trkpt><trkpt lat="46.39855615383255" lon="9.68683720999846"><ele>1589.0</ele><time>2026-05-01T12:32:08Z</time></trkpt><trkpt lat="46.398646817114894" lon="9.686741041234667"><ele>1589.0</ele><time>2026-05-01T12:32:09Z</time></trkpt><trkpt lat="46.39875005184402" lon="9.686681537425802"><ele>1589.0</ele><time>2026-05-01T12:32:10Z</time></trkpt><trkpt lat="46.39884865722232" lon="9.686747702198515"><ele>1589.0</ele><time>2026-05-01T12:32:11Z</time></trkpt><trkpt lat="46.39890126115923" lon="9.686862531969396"><ele>1589.0</ele><time>2026-05-01T12:32:12Z</time></trkpt><trkpt lat="46.39889862960327" lon="9.687039122480856"><ele>1589.0</ele><time>2026-05-01T12:32:13Z</time></trkpt><trkpt lat="46.398831450699255" lon="9.687183958666335"><ele>1589.0</ele><time>2026-05-01T12:32:14Z</time></trkpt><trkpt lat="46.39871981199276" lon="9.687292107483936"><ele>1589.0</ele><time>2026-05-01T12:32:15Z</time></trkpt><trkpt lat="46.39857779634133" lon="9.687412701697195"><ele>1589.0</ele><time>2026-05-01T12:32:16Z</time></trkpt><trkpt lat="46.39845988153984" lon="9.687532708908057"><ele>1589.0</ele><time>2026-05-01T12:32:17Z</time></trkpt><trkpt lat="46.39830786265584" lon="9.68767526424394"><ele>1590.6666666666665</ele><time>2026-05-01T12:32:18Z</time></trkpt><trkpt lat="46.3981721281317" lon="9.68789477755633"><ele>1592.3333333333335</ele><time>2026-05-01T12:32:19Z</time></trkpt><trkpt lat="46.39805795436337" lon="9.688160181096066"><ele>1594.0</ele><time>2026-05-01T12:32:20Z</time></trkpt><trkpt lat="46.397962805497066" lon="9.688431831886165"><ele>1602.0</ele><time>2026-05-01T12:32:21Z</time></trkpt><trkpt lat="46.397891126125906" lon="9.688727522842038"><ele>1610.0</ele><time>2026-05-01T12:32:22Z</time></trkpt><trkpt lat="46.39780615506282" lon="9.689000929460915"><ele>1618.0</ele><time>2026-05-01T12:32:23Z</time></trkpt><trkpt lat="46.39767301577659" lon="9.689230155892364"><ele>1627.6666666666667</ele><time>2026-05-01T12:32:24Z</time></trkpt><trkpt lat="46.39752149287658" lon="9.689461174131495"><ele>1637.3333333333335</ele><time>2026-05-01T12:32:25Z</time></trkpt><trkpt lat="46.397378707102796" lon="9.689692489500791"><ele>1647.0</ele><time>2026-05-01T12:32:26Z</time></trkpt><trkpt lat="46.397274149784266" lon="9.689909079059081"><ele>1647.0</ele><time>2026-05-01T12:32:27Z</time></trkpt><trkpt lat="46.397195153551706" lon="9.690143547649283"><ele>1647.0</ele><time>2026-05-01T12:32:28Z</time></trkpt><trkpt lat="46.397117907373804" lon="9.690359479225704"><ele>1647.0</ele><time>2026-05-01T12:32:29Z</time></trkpt><trkpt lat="46.39704784854564" lon="9.690555319513763"><ele>1647.75</ele><time>2026-05-01T12:32:30Z</time></trkpt><trkpt lat="46.397015021065656" lon="9.69075986733356"><ele>1648.5</ele><time>2026-05-01T12:32:31Z</time></trkpt><trkpt lat="46.396907085119615" lon="9.690861331445873"><ele>1649.25</ele><time>2026-05-01T12:32:32Z</time></trkpt><trkpt lat="46.39673613494832" lon="9.690856749065109"><ele>1650.0</ele><time>2026-05-01T12:32:33Z</time></trkpt><trkpt lat="46.396587642870415" lon="9.69082635866161"><ele>1650.0</ele><time>2026-05-01T12:32:34Z</time></trkpt><trkpt lat="46.3964313475835" lon="9.690711198959129"><ele>1650.0</ele><time>2026-05-01T12:32:35Z</time></trkpt><trkpt lat="46.39634917062227" lon="9.690681796229184"><ele>1650.0</ele><time>2026-05-01T12:32:36Z</time></trkpt><trkpt lat="46.396276050277514" lon="9.690629821837222"><ele>1650.0</ele><time>2026-05-01T12:32:37Z</time></trkpt><trkpt lat="46.39614473230909" lon="9.690387954347791"><ele>1653.2</ele><time>2026-05-01T12:32:38Z</time></trkpt><trkpt lat="46.39605721552053" lon="9.690261444185653"><ele>1656.4</ele><time>2026-05-01T12:32:39Z</time></trkpt><trkpt lat="46.39598395219511" lon="9.690144763531686"><ele>1659.6</ele><time>2026-05-01T12:32:40Z</time></trkpt><trkpt lat="46.395904960387604" lon="9.690112623925454"><ele>1662.8</ele><time>2026-05-01T12:32:41Z</time></trkpt><trkpt lat="46.395883206059345" lon="9.690302470591133"><ele>1666.0</ele><time>2026-05-01T12:32:43Z</time></trkpt><trkpt lat="46.39591486208073" lon="9.690441886874623"><ele>1669.75</ele><time>2026-05-01T12:32:44Z</time></trkpt><trkpt lat="46.39597224934872" lon="9.690552562896332"><ele>1673.5</ele><time>2026-05-01T12:32:45Z</time></trkpt><trkpt lat="46.39602805842537" lon="9.690641933749587"><ele>1677.25</ele><time>2026-05-01T12:32:46Z</time></trkpt><trkpt lat="46.39614988581944" lon="9.690827207197248"><ele>1681.0</ele><time>2026-05-01T12:32:47Z</time></trkpt><trkpt lat="46.396278636218156" lon="9.690964279281188"><ele>1685.3333333333335</ele><time>2026-05-01T12:32:48Z</time></trkpt><trkpt lat="46.396402570893066" lon="9.691099419508259"><ele>1689.6666666666665</ele><time>2026-05-01T12:32:49Z</time></trkpt><trkpt lat="46.39654136772008" lon="9.691218805100691"><ele>1694.0</ele><time>2026-05-01T12:32:50Z</time></trkpt><trkpt lat="46.39668085418435" lon="9.691285195386174"><ele>1694.0</ele><time>2026-05-01T12:32:51Z</time></trkpt><trkpt lat="46.396817398827245" lon="9.691288129831877"><ele>1694.0</ele><time>2026-05-01T12:32:52Z</time></trkpt><trkpt lat="46.39693415402487" lon="9.691262288438427"><ele>1694.0</ele><time>2026-05-01T12:32:53Z</time></trkpt><trkpt lat="46.39702503322063" lon="9.691231191840032"><ele>1694.0</ele><time>2026-05-01T12:32:54Z</time></trkpt><trkpt lat="46.39712290997482" lon="9.691259410917073"><ele>1694.0</ele><time>2026-05-01T12:32:56Z</time></trkpt><trkpt lat="46.39705043051107" lon="9.691405798703332"><ele>1694.0</ele><time>2026-05-01T12:32:58Z</time></trkpt><trkpt lat="46.39697118558712" lon="9.691423661782135"><ele>1694.0</ele><time>2026-05-01T12:32:59Z</time></trkpt><trkpt lat="46.396858947565995" lon="9.691407816335445"><ele>1694.0</ele><time>2026-05-01T12:33:00Z</time></trkpt><trkpt lat="46.39674850567001" lon="9.691374293111691"><ele>1694.0</ele><time>2026-05-01T12:33:01Z</time></trkpt><trkpt lat="46.39662198191021" lon="9.691363498547949"><ele>1694.0</ele><time>2026-05-01T12:33:02Z</time></trkpt><trkpt lat="46.39648768171537" lon="9.691341591599144"><ele>1694.0</ele><time>2026-05-01T12:33:03Z</time></trkpt><trkpt lat="46.39634932864247" lon="9.691309779264845"><ele>1694.0</ele><time>2026-05-01T12:33:04Z</time></trkpt><trkpt lat="46.39624766490521" lon="9.691254197822465"><ele>1694.0</ele><time>2026-05-01T12:33:05Z</time></trkpt><trkpt lat="46.39610233959142" lon="9.691106595530497"><ele>1694.0</ele><time>2026-05-01T12:33:06Z</time></trkpt><trkpt lat="46.39594784091751" lon="9.690980575141287"><ele>1689.6666666666665</ele><time>2026-05-01T12:33:07Z</time></trkpt><trkpt lat="46.395803689350636" lon="9.690823520178752"><ele>1685.3333333333335</ele><time>2026-05-01T12:33:08Z</time></trkpt><trkpt lat="46.39565683855839" lon="9.690682458995717"><ele>1681.0</ele><time>2026-05-01T12:33:09Z</time></trkpt><trkpt lat="46.395562497416165" lon="9.690489060435555"><ele>1688.6666666666667</ele><time>2026-05-01T12:33:10Z</time></trkpt><trkpt lat="46.395485205192244" lon="9.690261855917763"><ele>1696.3333333333335</ele><time>2026-05-01T12:33:11Z</time></trkpt><trkpt lat="46.39545320369806" lon="9.690026618673148"><ele>1704.0</ele><time>2026-05-01T12:33:12Z</time></trkpt><trkpt lat="46.39545668316241" lon="9.689810353467994"><ele>1704.0</ele><time>2026-05-01T12:33:13Z</time></trkpt><trkpt lat="46.395462954928185" lon="9.68963664420124"><ele>1704.0</ele><time>2026-05-01T12:33:14Z</time></trkpt><trkpt lat="46.39548102539774" lon="9.689498188678392"><ele>1704.0</ele><time>2026-05-01T12:33:15Z</time></trkpt><trkpt lat="46.39547532183576" lon="9.689406464852588"><ele>1704.0</ele><time>2026-05-01T12:33:16Z</time></trkpt><trkpt lat="46.39535611046672" lon="9.689356974063111"><ele>1704.0</ele><time>2026-05-01T12:33:18Z</time></trkpt><trkpt lat="46.395308112278" lon="9.689435698161011"><ele>1704.0</ele><time>2026-05-01T12:33:19Z</time></trkpt><trkpt lat="46.39528414939914" lon="9.689553405150683"><ele>1704.0</ele><time>2026-05-01T12:33:20Z</time></trkpt><trkpt lat="46.39529863581112" lon="9.689694881143833"><ele>1704.0</ele><time>2026-05-01T12:33:21Z</time></trkpt><trkpt lat="46.39533224338998" lon="9.68986744181301"><ele>1704.0</ele><time>2026-05-01T12:33:22Z</time></trkpt><trkpt lat="46.39534471411604" lon="9.690080242503404"><ele>1709.0</ele><time>2026-05-01T12:33:23Z</time></trkpt><trkpt lat="46.3953409462811" lon="9.690302371938023"><ele>1714.0</ele><time>2026-05-01T12:33:24Z</time></trkpt><trkpt lat="46.39532980525311" lon="9.690529951038124"><ele>1719.0</ele><time>2026-05-01T12:33:24.999Z</time></trkpt><trkpt lat="46.39536683612123" lon="9.690750849352337"><ele>1719.0</ele><time>2026-05-01T12:33:25.999Z</time></trkpt><trkpt lat="46.39543299575931" lon="9.691005451484777"><ele>1719.0</ele><time>2026-05-01T12:33:26.999Z</time></trkpt><trkpt lat="46.3955044335791" lon="9.691195094696575"><ele>1719.0</ele><time>2026-05-01T12:33:27.999Z</time></trkpt><trkpt lat="46.39560882960216" lon="9.69134720373273"><ele>1717.75</ele><time>2026-05-01T12:33:28.999Z</time></trkpt><trkpt lat="46.395732664054314" lon="9.691483006885184"><ele>1716.5</ele><time>2026-05-01T12:33:29.999Z</time></trkpt><trkpt lat="46.39586163114976" lon="9.691584089335898"><ele>1715.25</ele><time>2026-05-01T12:33:30.999Z</time></trkpt><trkpt lat="46.395942995070534" lon="9.691674123228873"><ele>1714.0</ele><time>2026-05-01T12:33:31.999Z</time></trkpt><trkpt lat="46.39598313870338" lon="9.691751715572515"><ele>1714.0</ele><time>2026-05-01T12:33:32.999Z</time></trkpt><trkpt lat="46.39593695345037" lon="9.691840500664869"><ele>1714.0</ele><time>2026-05-01T12:33:34.999Z</time></trkpt><trkpt lat="46.395864913970065" lon="9.691839076588296"><ele>1714.0</ele><time>2026-05-01T12:33:35.999Z</time></trkpt><trkpt lat="46.395792803253514" lon="9.691731754397535"><ele>1714.0</ele><time>2026-05-01T12:33:36.999Z</time></trkpt><trkpt lat="46.395733845800464" lon="9.69164025857796"><ele>1714.0</ele><time>2026-05-01T12:33:37.999Z</time></trkpt><trkpt lat="46.39564466234503" lon="9.691541179177275"><ele>1714.0</ele><time>2026-05-01T12:33:38.999Z</time></trkpt><trkpt lat="46.39551929218176" lon="9.691467899330274"><ele>1714.0</ele><time>2026-05-01T12:33:39.999Z</time></trkpt><trkpt lat="46.395418258018616" lon="9.69138519716367"><ele>1714.0</ele><time>2026-05-01T12:33:40.999Z</time></trkpt><trkpt lat="46.39532763709606" lon="9.691277480003262"><ele>1714.0</ele><time>2026-05-01T12:33:41.999Z</time></trkpt><trkpt lat="46.39520646224213" lon="9.69118024131626"><ele>1715.25</ele><time>2026-05-01T12:33:42.999Z</time></trkpt><trkpt lat="46.3950858005242" lon="9.69108667788828"><ele>1716.5</ele><time>2026-05-01T12:33:43.999Z</time></trkpt><trkpt lat="46.394972188652446" lon="9.691005557016606"><ele>1717.75</ele><time>2026-05-01T12:33:44.999Z</time></trkpt><trkpt lat="46.39490448985627" lon="9.690867615428493"><ele>1719.0</ele><time>2026-05-01T12:33:45.999Z</time></trkpt><trkpt lat="46.39489533905857" lon="9.69068596577416"><ele>1719.0</ele><time>2026-05-01T12:33:46.999Z</time></trkpt><trkpt lat="46.394932592418826" lon="9.690505566476128"><ele>1719.0</ele><time>2026-05-01T12:33:47.999Z</time></trkpt><trkpt lat="46.39498334337071" lon="9.690373630604231"><ele>1719.0</ele><time>2026-05-01T12:33:48.999Z</time></trkpt><trkpt lat="46.395014512676426" lon="9.690271497591477"><ele>1719.0</ele><time>2026-05-01T12:33:49.999Z</time></trkpt><trkpt lat="46.39495015839218" lon="9.69013647095949"><ele>1719.0</ele><time>2026-05-01T12:33:51.999Z</time></trkpt><trkpt lat="46.394845647746486" lon="9.690194280889544"><ele>1719.0</ele><time>2026-05-01T12:33:52.999Z</time></trkpt><trkpt lat="46.39478883720269" lon="9.690310420454653"><ele>1719.0</ele><time>2026-05-01T12:33:53.999Z</time></trkpt><trkpt lat="46.39476613348562" lon="9.690448202123848"><ele>1719.0</ele><time>2026-05-01T12:33:54.999Z</time></trkpt><trkpt lat="46.394767475561196" lon="9.690600342642158"><ele>1719.0</ele><time>2026-05-01T12:33:55.999Z</time></trkpt><trkpt lat="46.39474666241464" lon="9.690763811304652"><ele>1719.0</ele><time>2026-05-01T12:33:56.999Z</time></trkpt><trkpt lat="46.39471486601927" lon="9.690929535420032"><ele>1719.0</ele><time>2026-05-01T12:33:57.999Z</time></trkpt><trkpt lat="46.394720340435114" lon="9.691078033614808"><ele>1719.0</ele><time>2026-05-01T12:33:58.999Z</time></trkpt><trkpt lat="46.39476517168008" lon="9.691196618326302"><ele>1719.0</ele><time>2026-05-01T12:33:59.999Z</time></trkpt><trkpt lat="46.39483838807023" lon="9.691282322268066"><ele>1719.0</ele><time>2026-05-01T12:34:00.999Z</time></trkpt><trkpt lat="46.39490498702818" lon="9.69134208387409"><ele>1719.0</ele><time>2026-05-01T12:34:01.999Z</time></trkpt><trkpt lat="46.39482529224838" lon="9.691447014011136"><ele>1723.6</ele><time>2026-05-01T12:34:03.999Z</time></trkpt><trkpt lat="46.3947236269942" lon="9.691335802877504"><ele>1728.2</ele><time>2026-05-01T12:34:05.999Z</time></trkpt><trkpt lat="46.394706988160415" lon="9.691202484745114"><ele>1732.7999999999997</ele><time>2026-05-01T12:34:06.999Z</time></trkpt><trkpt lat="46.394669283934405" lon="9.691064065791487"><ele>1737.3999999999999</ele><time>2026-05-01T12:34:07.999Z</time></trkpt><trkpt lat="46.39462251847284" lon="9.690928999984731"><ele>1742.0</ele><time>2026-05-01T12:34:08.999Z</time></trkpt><trkpt lat="46.39462194870947" lon="9.690777338987443"><ele>1739.1999999999998</ele><time>2026-05-01T12:34:09.999Z</time></trkpt><trkpt lat="46.39465300782135" lon="9.690630400304283"><ele>1736.3999999999999</ele><time>2026-05-01T12:34:10.999Z</time></trkpt><trkpt lat="46.3946863375983" lon="9.690489676014959"><ele>1733.6000000000001</ele><time>2026-05-01T12:34:11.999Z</time></trkpt><trkpt lat="46.39468235769851" lon="9.690342798450924"><ele>1730.8000000000002</ele><time>2026-05-01T12:34:12.999Z</time></trkpt><trkpt lat="46.394652476017654" lon="9.69021152159706"><ele>1728.0</ele><time>2026-05-01T12:34:14Z</time></trkpt><trkpt lat="46.39461745916289" lon="9.690120715446257"><ele>1728.0</ele><time>2026-05-01T12:34:15Z</time></trkpt><trkpt lat="46.394500467502475" lon="9.690100914932577"><ele>1728.0000000000002</ele><time>2026-05-01T12:34:17Z</time></trkpt><trkpt lat="46.39443933135061" lon="9.690164369209919"><ele>1728.0000000000002</ele><time>2026-05-01T12:34:18Z</time></trkpt><trkpt lat="46.39441960031246" lon="9.690310989126237"><ele>1728.0</ele><time>2026-05-01T12:34:19Z</time></trkpt><trkpt lat="46.39447993720654" lon="9.690446823313753"><ele>1728.0</ele><time>2026-05-01T12:34:20Z</time></trkpt><trkpt lat="46.39449166171713" lon="9.690588090980539"><ele>1735.0</ele><time>2026-05-01T12:34:21Z</time></trkpt><trkpt lat="46.394456215956744" lon="9.690734869250427"><ele>1742.0000000000002</ele><time>2026-05-01T12:34:22Z</time></trkpt><trkpt lat="46.3944194480899" lon="9.690910496561035"><ele>1749.0000000000002</ele><time>2026-05-01T12:34:23Z</time></trkpt><trkpt lat="46.39441561468718" lon="9.691078315041716"><ele>1756.0</ele><time>2026-05-01T12:34:24Z</time></trkpt><trkpt lat="46.39443300133274" lon="9.691191983899339"><ele>1763.0</ele><time>2026-05-01T12:34:25Z</time></trkpt><trkpt lat="46.39445937382104" lon="9.691339427787609"><ele>1768.0</ele><time>2026-05-01T12:34:26Z</time></trkpt><trkpt lat="46.394522740618804" lon="9.691584262103607"><ele>1773.0</ele><time>2026-05-01T12:34:27Z</time></trkpt><trkpt lat="46.39463684196945" lon="9.691739825860147"><ele>1778.0</ele><time>2026-05-01T12:34:28Z</time></trkpt><trkpt lat="46.39475079590567" lon="9.691844732915753"><ele>1775.8000000000002</ele><time>2026-05-01T12:34:29Z</time></trkpt><trkpt lat="46.39489418889956" lon="9.691947567741861"><ele>1773.6000000000001</ele><time>2026-05-01T12:34:30Z</time></trkpt><trkpt lat="46.39501641473972" lon="9.692016456163927"><ele>1771.3999999999999</ele><time>2026-05-01T12:34:31Z</time></trkpt><trkpt lat="46.39508478068707" lon="9.692085506714195"><ele>1769.1999999999998</ele><time>2026-05-01T12:34:32Z</time></trkpt><trkpt lat="46.395127154617455" lon="9.692154909198873"><ele>1767.0</ele><time>2026-05-01T12:34:33Z</time></trkpt><trkpt lat="46.39506013966764" lon="9.692241286476479"><ele>1767.0</ele><time>2026-05-01T12:34:35Z</time></trkpt><trkpt lat="46.39499334319914" lon="9.692237703533747"><ele>1767.0</ele><time>2026-05-01T12:34:36Z</time></trkpt><trkpt lat="46.39493178410849" lon="9.692116872795165"><ele>1767.0</ele><time>2026-05-01T12:34:37Z</time></trkpt><trkpt lat="46.39486416899442" lon="9.692041009476528"><ele>1767.0</ele><time>2026-05-01T12:34:38Z</time></trkpt><trkpt lat="46.39481095159485" lon="9.691965911250282"><ele>1767.0</ele><time>2026-05-01T12:34:39Z</time></trkpt><trkpt lat="46.394744691900264" lon="9.691983249521106"><ele>1767.0</ele><time>2026-05-01T12:34:40Z</time></trkpt><trkpt lat="46.394686425501654" lon="9.692176792457639"><ele>1767.0</ele><time>2026-05-01T12:34:42Z</time></trkpt><trkpt lat="46.394731777696144" lon="9.692302850568481"><ele>1767.0</ele><time>2026-05-01T12:34:43Z</time></trkpt><trkpt lat="46.394843413194984" lon="9.692379484442355"><ele>1767.0</ele><time>2026-05-01T12:34:44Z</time></trkpt><trkpt lat="46.39494530537775" lon="9.69247902553317"><ele>1767.0</ele><time>2026-05-01T12:34:45Z</time></trkpt><trkpt lat="46.39503496009942" lon="9.692595294588857"><ele>1767.0</ele><time>2026-05-01T12:34:46Z</time></trkpt><trkpt lat="46.39511416950278" lon="9.692673542259046"><ele>1767.0</ele><time>2026-05-01T12:34:47Z</time></trkpt><trkpt lat="46.39521820618333" lon="9.692724030159583"><ele>1767.0</ele><time>2026-05-01T12:34:48Z</time></trkpt><trkpt lat="46.39534466527979" lon="9.692746869362585"><ele>1767.0</ele><time>2026-05-01T12:34:49Z</time></trkpt><trkpt lat="46.39548185069909" lon="9.692765437696133"><ele>1769.3999999999999</ele><time>2026-05-01T12:34:50Z</time></trkpt><trkpt lat="46.39560887252863" lon="9.692808133297548"><ele>1771.7999999999997</ele><time>2026-05-01T12:34:51Z</time></trkpt><trkpt lat="46.39570429431808" lon="9.692826771389202"><ele>1774.2</ele><time>2026-05-01T12:34:52Z</time></trkpt><trkpt lat="46.39577375355949" lon="9.692890762980543"><ele>1776.6</ele><time>2026-05-01T12:34:53Z</time></trkpt><trkpt lat="46.39583361186758" lon="9.693000792845213"><ele>1779.0</ele><time>2026-05-01T12:34:54Z</time></trkpt><trkpt lat="46.39581261508917" lon="9.693174907274823"><ele>1779.0</ele><time>2026-05-01T12:34:55Z</time></trkpt><trkpt lat="46.39585997589081" lon="9.693291453159718"><ele>1779.0</ele><time>2026-05-01T12:34:56Z</time></trkpt><trkpt lat="46.39590530059324" lon="9.693402510602125"><ele>1779.0</ele><time>2026-05-01T12:34:57Z</time></trkpt><trkpt lat="46.396024375435054" lon="9.693414903532014"><ele>1779.0</ele><time>2026-05-01T12:34:58Z</time></trkpt><trkpt lat="46.396124184544036" lon="9.693384026368674"><ele>1779.0</ele><time>2026-05-01T12:34:59Z</time></trkpt><trkpt lat="46.39620091373328" lon="9.693371718993482"><ele>1779.0</ele><time>2026-05-01T12:35:00Z</time></trkpt><trkpt lat="46.396226106532524" lon="9.693514203853299"><ele>1779.0</ele><time>2026-05-01T12:35:02Z</time></trkpt><trkpt lat="46.39615141646925" lon="9.693576803390906"><ele>1779.0</ele><time>2026-05-01T12:35:03Z</time></trkpt><trkpt lat="46.3960873135958" lon="9.693569986681155"><ele>1779.0</ele><time>2026-05-01T12:35:04Z</time></trkpt><trkpt lat="46.39601247661494" lon="9.69350608678872"><ele>1779.0</ele><time>2026-05-01T12:35:05Z</time></trkpt><trkpt lat="46.39590224208315" lon="9.69346297122192"><ele>1779.0</ele><time>2026-05-01T12:35:06Z</time></trkpt><trkpt lat="46.395808748933355" lon="9.693434608732442"><ele>1779.0</ele><time>2026-05-01T12:35:07Z</time></trkpt><trkpt lat="46.39572490451737" lon="9.693533317886278"><ele>1779.0</ele><time>2026-05-01T12:35:09Z</time></trkpt><trkpt lat="46.39571045252928" lon="9.693623076417584"><ele>1779.0</ele><time>2026-05-01T12:35:10Z</time></trkpt><trkpt lat="46.39575341746959" lon="9.693719718367587"><ele>1779.0</ele><time>2026-05-01T12:35:11Z</time></trkpt><trkpt lat="46.39585360398548" lon="9.693737063258878"><ele>1779.0</ele><time>2026-05-01T12:35:12Z</time></trkpt><trkpt lat="46.395979484321785" lon="9.693728765950723"><ele>1782.2</ele><time>2026-05-01T12:35:13Z</time></trkpt><trkpt lat="46.39608525437629" lon="9.69375284453062"><ele>1785.4</ele><time>2026-05-01T12:35:14Z</time></trkpt><trkpt lat="46.39617983409056" lon="9.693866739094664"><ele>1788.6</ele><time>2026-05-01T12:35:16Z</time></trkpt><trkpt lat="46.396179312437255" lon="9.69399486147101"><ele>1791.8</ele><time>2026-05-01T12:35:17Z</time></trkpt><trkpt lat="46.39611685989368" lon="9.69411675568545"><ele>1795.0</ele><time>2026-05-01T12:35:18Z</time></trkpt><trkpt lat="46.39605681455625" lon="9.694260574924225"><ele>1795.0000000000002</ele><time>2026-05-01T12:35:19Z</time></trkpt><trkpt lat="46.39602099661258" lon="9.69434908563152"><ele>1795.0</ele><time>2026-05-01T12:35:20Z</time></trkpt><trkpt lat="46.39598773337639" lon="9.694431283341345"><ele>1795.0</ele><time>2026-05-01T12:35:23Z</time></trkpt><trkpt lat="46.39595972308704" lon="9.694534835421866"><ele>1795.0</ele><time>2026-05-01T12:35:26.999Z</time></trkpt><trkpt lat="46.39591260557651" lon="9.69465512244819"><ele>1795.0000000000002</ele><time>2026-05-01T12:35:28.999Z</time></trkpt><trkpt lat="46.39594477781479" lon="9.694822435847616"><ele>1795.0</ele><time>2026-05-01T12:35:30.999Z</time></trkpt><trkpt lat="46.39599314519655" lon="9.694883267667223"><ele>1795.5000000000002</ele><time>2026-05-01T12:35:31.999Z</time></trkpt><trkpt lat="46.39604867158395" lon="9.694936946915009"><ele>1796.0</ele><time>2026-05-01T12:35:32.999Z</time></trkpt><trkpt lat="46.396136248122076" lon="9.694907579197368"><ele>1796.5</ele><time>2026-05-01T12:35:33.999Z</time></trkpt><trkpt lat="46.396209046830045" lon="9.6948776307437"><ele>1797.0</ele><time>2026-05-01T12:35:34.999Z</time></trkpt><trkpt lat="46.39628271758584" lon="9.694838005855408"><ele>1797.5000000000002</ele><time>2026-05-01T12:35:35.999Z</time></trkpt><trkpt lat="46.396357726081845" lon="9.694799365689537"><ele>1798.0</ele><time>2026-05-01T12:35:36.999Z</time></trkpt><trkpt lat="46.39642365970781" lon="9.694784980619884"><ele>1798.75</ele><time>2026-05-01T12:35:37.999Z</time></trkpt><trkpt lat="46.39650360444866" lon="9.694754292007195"><ele>1799.5</ele><time>2026-05-01T12:35:38.999Z</time></trkpt><trkpt lat="46.39658275328254" lon="9.694729207981894"><ele>1800.25</ele><time>2026-05-01T12:35:39.999Z</time></trkpt><trkpt lat="46.39667155236742" lon="9.69470456573988"><ele>1801.0</ele><time>2026-05-01T12:35:40.999Z</time></trkpt><trkpt lat="46.39690244060392" lon="9.694714198169178"><ele>1801.0000000000002</ele><time>2026-05-01T12:35:43.999Z</time></trkpt><trkpt lat="46.39699126807078" lon="9.694742276091139"><ele>1801.0</ele><time>2026-05-01T12:35:44.999Z</time></trkpt><trkpt lat="46.39708541477807" lon="9.694766650942293"><ele>1801.0</ele><time>2026-05-01T12:35:45.999Z</time></trkpt><trkpt lat="46.39714851456336" lon="9.694780432627532"><ele>1801.0</ele><time>2026-05-01T12:35:46.999Z</time></trkpt><trkpt lat="46.39721783282541" lon="9.694807416933989"><ele>1801.0000000000002</ele><time>2026-05-01T12:35:49.999Z</time></trkpt><trkpt lat="46.397306368807726" lon="9.694818778668495"><ele>1801.0</ele><time>2026-05-01T12:35:52.999Z</time></trkpt><trkpt lat="46.39741815140948" lon="9.694843166354376"><ele>1802.0000000000002</ele><time>2026-05-01T12:35:54.999Z</time></trkpt><trkpt lat="46.397548025767165" lon="9.694881889417042"><ele>1803.0</ele><time>2026-05-01T12:35:56.999Z</time></trkpt><trkpt lat="46.3976137621576" lon="9.694891541330634"><ele>1804.0</ele><time>2026-05-01T12:35:57.999Z</time></trkpt><trkpt lat="46.39767741530175" lon="9.694904937283543"><ele>1805.0</ele><time>2026-05-01T12:35:58.999Z</time></trkpt><trkpt lat="46.39774800917613" lon="9.694918390342384"><ele>1806.0000000000002</ele><time>2026-05-01T12:35:59.999Z</time></trkpt><trkpt lat="46.397825948340824" lon="9.694936298724494"><ele>1807.0</ele><time>2026-05-01T12:36:00.999Z</time></trkpt><trkpt lat="46.39790923526956" lon="9.694934724426796"><ele>1807.0</ele><time>2026-05-01T12:36:01.999Z</time></trkpt><trkpt lat="46.397995734218654" lon="9.694927694290017"><ele>1806.9999999999998</ele><time>2026-05-01T12:36:02.999Z</time></trkpt><trkpt lat="46.39809119502763" lon="9.694903437946161"><ele>1806.9999999999998</ele><time>2026-05-01T12:36:03.999Z</time></trkpt><trkpt lat="46.398179879477404" lon="9.69487619675465"><ele>1807.0</ele><time>2026-05-01T12:36:04.999Z</time></trkpt><trkpt lat="46.3982807531217" lon="9.694850165337996"><ele>1807.0</ele><time>2026-05-01T12:36:05.999Z</time></trkpt><trkpt lat="46.39841080568884" lon="9.694807126047456"><ele>1808.25</ele><time>2026-05-01T12:36:06.999Z</time></trkpt><trkpt lat="46.398532894050746" lon="9.694782594707801"><ele>1809.5</ele><time>2026-05-01T12:36:07.999Z</time></trkpt><trkpt lat="46.398660844474016" lon="9.694800568490368"><ele>1810.75</ele><time>2026-05-01T12:36:08.999Z</time></trkpt><trkpt lat="46.398835223340186" lon="9.694920687253392"><ele>1812.0</ele><time>2026-05-01T12:36:09.999Z</time></trkpt><trkpt lat="46.399021643017434" lon="9.695077011419773"><ele>1812.5</ele><time>2026-05-01T12:36:10.999Z</time></trkpt><trkpt lat="46.39917239696684" lon="9.695203896022718"><ele>1813.0</ele><time>2026-05-01T12:36:13.999Z</time></trkpt><trkpt lat="46.39926715286905" lon="9.695285383744395"><ele>1813.5</ele><time>2026-05-01T12:36:14.999Z</time></trkpt><trkpt lat="46.39935386225833" lon="9.695359951670305"><ele>1814.0</ele><time>2026-05-01T12:36:15.999Z</time></trkpt><trkpt lat="46.399437711149005" lon="9.695432059639076"><ele>1814.0</ele><time>2026-05-01T12:36:16.999Z</time></trkpt><trkpt lat="46.39952436127458" lon="9.695506810278717"><ele>1814.0</ele><time>2026-05-01T12:36:17.999Z</time></trkpt><trkpt lat="46.39960915076389" lon="9.695580017314866"><ele>1814.0</ele><time>2026-05-01T12:36:18.999Z</time></trkpt><trkpt lat="46.39969170611985" lon="9.695651120173089"><ele>1814.0</ele><time>2026-05-01T12:36:20Z</time></trkpt><trkpt lat="46.39978259065704" lon="9.695727361856122"><ele>1814.0</ele><time>2026-05-01T12:36:21Z</time></trkpt><trkpt lat="46.39986987866498" lon="9.695797979192841"><ele>1814.8333333333333</ele><time>2026-05-01T12:36:22Z</time></trkpt><trkpt lat="46.399951938359244" lon="9.69583698965271"><ele>1815.6666666666665</ele><time>2026-05-01T12:36:23Z</time></trkpt><trkpt lat="46.40002256709676" lon="9.695874421315672"><ele>1816.5</ele><time>2026-05-01T12:36:24Z</time></trkpt><trkpt lat="46.40009912423059" lon="9.695889132042252"><ele>1817.3333333333335</ele><time>2026-05-01T12:36:25Z</time></trkpt><trkpt lat="46.40017161298338" lon="9.695875828004304"><ele>1818.1666666666667</ele><time>2026-05-01T12:36:26Z</time></trkpt><trkpt lat="46.40027923330914" lon="9.69579384815406"><ele>1819.0</ele><time>2026-05-01T12:36:28Z</time></trkpt><trkpt lat="46.40038897206977" lon="9.695695317928987"><ele>1819.0</ele><time>2026-05-01T12:36:30Z</time></trkpt><trkpt lat="46.40046458552894" lon="9.695641982160431"><ele>1819.0</ele><time>2026-05-01T12:36:31Z</time></trkpt><trkpt lat="46.40055691247519" lon="9.695589939794216"><ele>1819.0</ele><time>2026-05-01T12:36:32Z</time></trkpt><trkpt lat="46.40065159342934" lon="9.695530385670578"><ele>1819.0</ele><time>2026-05-01T12:36:33Z</time></trkpt><trkpt lat="46.40074568183385" lon="9.695467532264853"><ele>1819.0</ele><time>2026-05-01T12:36:34Z</time></trkpt><trkpt lat="46.40085431661742" lon="9.695386830983708"><ele>1819.0</ele><time>2026-05-01T12:36:35Z</time></trkpt><trkpt lat="46.40097981474086" lon="9.695313132448767"><ele>1819.0</ele><time>2026-05-01T12:36:36Z</time></trkpt><trkpt lat="46.401085818535044" lon="9.695256121720684"><ele>1819.0</ele><time>2026-05-01T12:36:37Z</time></trkpt><trkpt lat="46.4011924569517" lon="9.695308014911983"><ele>1819.0</ele><time>2026-05-01T12:36:38Z</time></trkpt><trkpt lat="46.40126948232264" lon="9.6953385089149"><ele>1819.0</ele><time>2026-05-01T12:36:39Z</time></trkpt><trkpt lat="46.40141455899661" lon="9.695393557048316"><ele>1818.25</ele><time>2026-05-01T12:36:40Z</time></trkpt><trkpt lat="46.40154104902003" lon="9.695545853461539"><ele>1817.5</ele><time>2026-05-01T12:36:41Z</time></trkpt><trkpt lat="46.40163312341337" lon="9.69566736499154"><ele>1816.75</ele><time>2026-05-01T12:36:42Z</time></trkpt><trkpt lat="46.40173473365172" lon="9.695735344366907"><ele>1816.0</ele><time>2026-05-01T12:36:43Z</time></trkpt><trkpt lat="46.40189345414298" lon="9.695695657568185"><ele>1816.0</ele><time>2026-05-01T12:36:44Z</time></trkpt><trkpt lat="46.40208048910797" lon="9.69570848952738"><ele>1816.0</ele><time>2026-05-01T12:36:45Z</time></trkpt><trkpt lat="46.40225375303973" lon="9.69571313962197"><ele>1816.0</ele><time>2026-05-01T12:36:46Z</time></trkpt><trkpt lat="46.4024265102904" lon="9.695705069028056"><ele>1815.5</ele><time>2026-05-01T12:36:47Z</time></trkpt><trkpt lat="46.40257614456762" lon="9.695689377443692"><ele>1815.0</ele><time>2026-05-01T12:36:48Z</time></trkpt><trkpt lat="46.40271320947251" lon="9.695681311771308"><ele>1814.5</ele><time>2026-05-01T12:36:49Z</time></trkpt><trkpt lat="46.40284349916451" lon="9.695684158194904"><ele>1814.0</ele><time>2026-05-01T12:36:50Z</time></trkpt><trkpt lat="46.402959167831845" lon="9.695708961148073"><ele>1813.25</ele><time>2026-05-01T12:36:51Z</time></trkpt><trkpt lat="46.40307953088213" lon="9.69570643130154"><ele>1812.5</ele><time>2026-05-01T12:36:52Z</time></trkpt><trkpt lat="46.403215529788376" lon="9.69571441628979"><ele>1811.75</ele><time>2026-05-01T12:36:53Z</time></trkpt><trkpt lat="46.40334411836598" lon="9.695702082664484"><ele>1811.0</ele><time>2026-05-01T12:36:54Z</time></trkpt><trkpt lat="46.40346053778826" lon="9.695663778849989"><ele>1811.0</ele><time>2026-05-01T12:36:55Z</time></trkpt><trkpt lat="46.403579893151985" lon="9.695605240811554"><ele>1811.0</ele><time>2026-05-01T12:36:56Z</time></trkpt><trkpt lat="46.40368579938469" lon="9.695546442353692"><ele>1811.0</ele><time>2026-05-01T12:36:57Z</time></trkpt><trkpt lat="46.40379253884849" lon="9.695467379719352"><ele>1811.0</ele><time>2026-05-01T12:36:58Z</time></trkpt><trkpt lat="46.40389184782669" lon="9.695368139428105"><ele>1811.0</ele><time>2026-05-01T12:36:59Z</time></trkpt><trkpt lat="46.40398971618144" lon="9.695252774738009"><ele>1811.0</ele><time>2026-05-01T12:37:00Z</time></trkpt><trkpt lat="46.404086552199445" lon="9.69513275065303"><ele>1811.0</ele><time>2026-05-01T12:37:01Z</time></trkpt><trkpt lat="46.40417868989252" lon="9.695009269381611"><ele>1811.0</ele><time>2026-05-01T12:37:02Z</time></trkpt><trkpt lat="46.40426822059999" lon="9.69489025225575"><ele>1811.0</ele><time>2026-05-01T12:37:03Z</time></trkpt><trkpt lat="46.404371791852064" lon="9.694802538459657"><ele>1811.0</ele><time>2026-05-01T12:37:04Z</time></trkpt><trkpt lat="46.404483898834954" lon="9.694737375359365"><ele>1811.0</ele><time>2026-05-01T12:37:05Z</time></trkpt><trkpt lat="46.40460526983307" lon="9.69471856183817"><ele>1811.0</ele><time>2026-05-01T12:37:06Z</time></trkpt><trkpt lat="46.404728462942806" lon="9.694756236326471"><ele>1811.25</ele><time>2026-05-01T12:37:07Z</time></trkpt><trkpt lat="46.40484949092971" lon="9.6948510201324"><ele>1811.5</ele><time>2026-05-01T12:37:08Z</time></trkpt><trkpt lat="46.40497775938674" lon="9.69493299705288"><ele>1811.75</ele><time>2026-05-01T12:37:09Z</time></trkpt><trkpt lat="46.40510235455434" lon="9.695030397222643"><ele>1812.0</ele><time>2026-05-01T12:37:10Z</time></trkpt><trkpt lat="46.40523143318509" lon="9.695126701944924"><ele>1812.0</ele><time>2026-05-01T12:37:11Z</time></trkpt><trkpt lat="46.40535677125" lon="9.69523631451227"><ele>1812.0</ele><time>2026-05-01T12:37:12Z</time></trkpt><trkpt lat="46.40545903107711" lon="9.695392853865412"><ele>1812.0</ele><time>2026-05-01T12:37:13Z</time></trkpt><trkpt lat="46.4055681464428" lon="9.695545776616372"><ele>1812.0</ele><time>2026-05-01T12:37:14Z</time></trkpt><trkpt lat="46.40568840666603" lon="9.695720205144143"><ele>1812.3333333333335</ele><time>2026-05-01T12:37:15Z</time></trkpt><trkpt lat="46.40582574101877" lon="9.69592188275294"><ele>1812.6666666666667</ele><time>2026-05-01T12:37:16Z</time></trkpt><trkpt lat="46.40591021013781" lon="9.696048220057582"><ele>1813.0</ele><time>2026-05-01T12:37:17Z</time></trkpt><trkpt lat="46.40601068660716" lon="9.696174271787886"><ele>1811.5</ele><time>2026-05-01T12:37:18Z</time></trkpt><trkpt lat="46.40610309401175" lon="9.696319023577168"><ele>1810.0</ele><time>2026-05-01T12:37:19Z</time></trkpt><trkpt lat="46.4061903526464" lon="9.696452260585682"><ele>1808.5</ele><time>2026-05-01T12:37:20Z</time></trkpt><trkpt lat="46.4062684358769" lon="9.696583832813051"><ele>1807.0</ele><time>2026-05-01T12:37:21Z</time></trkpt><trkpt lat="46.406325283954516" lon="9.696734053582151"><ele>1807.5</ele><time>2026-05-01T12:37:22Z</time></trkpt><trkpt lat="46.40637575874806" lon="9.69688719690433"><ele>1808.0</ele><time>2026-05-01T12:37:23Z</time></trkpt><trkpt lat="46.40640870494655" lon="9.697049557039273"><ele>1808.5</ele><time>2026-05-01T12:37:24Z</time></trkpt><trkpt lat="46.40642896292299" lon="9.697214766651909"><ele>1809.0</ele><time>2026-05-01T12:37:25Z</time></trkpt><trkpt lat="46.40644617072572" lon="9.697401596955768"><ele>1809.0</ele><time>2026-05-01T12:37:26Z</time></trkpt><trkpt lat="46.40648338376878" lon="9.697588101751922"><ele>1809.0</ele><time>2026-05-01T12:37:27Z</time></trkpt><trkpt lat="46.40649796275939" lon="9.697793351331205"><ele>1809.0</ele><time>2026-05-01T12:37:28Z</time></trkpt><trkpt lat="46.406527491372614" lon="9.697990879182251"><ele>1809.0</ele><time>2026-05-01T12:37:29Z</time></trkpt><trkpt lat="46.406555428125415" lon="9.698185556327033"><ele>1808.0</ele><time>2026-05-01T12:37:29.999Z</time></trkpt><trkpt lat="46.40658458908058" lon="9.69837934704475"><ele>1807.0</ele><time>2026-05-01T12:37:30.999Z</time></trkpt><trkpt lat="46.40660692391565" lon="9.698573757144192"><ele>1806.0</ele><time>2026-05-01T12:37:31.999Z</time></trkpt><trkpt lat="46.40664325999338" lon="9.6987571948214"><ele>1805.0</ele><time>2026-05-01T12:37:32.999Z</time></trkpt><trkpt lat="46.40668443881622" lon="9.698940829415916"><ele>1804.75</ele><time>2026-05-01T12:37:33.999Z</time></trkpt><trkpt lat="46.406731808114785" lon="9.699123299433298"><ele>1804.5</ele><time>2026-05-01T12:37:34.999Z</time></trkpt><trkpt lat="46.40678447039966" lon="9.699303932375077"><ele>1804.25</ele><time>2026-05-01T12:37:35.999Z</time></trkpt><trkpt lat="46.40684127447303" lon="9.699471238425128"><ele>1804.0</ele><time>2026-05-01T12:37:36.999Z</time></trkpt><trkpt lat="46.40690068018715" lon="9.699631243866552"><ele>1804.0</ele><time>2026-05-01T12:37:37.999Z</time></trkpt><trkpt lat="46.40696039113703" lon="9.699788140183406"><ele>1804.0</ele><time>2026-05-01T12:37:38.999Z</time></trkpt><trkpt lat="46.40703012689875" lon="9.699947155526912"><ele>1804.0</ele><time>2026-05-01T12:37:39.999Z</time></trkpt><trkpt lat="46.40711215953768" lon="9.700107118025523"><ele>1804.0</ele><time>2026-05-01T12:37:40.999Z</time></trkpt><trkpt lat="46.40720860346438" lon="9.700265962806782"><ele>1804.25</ele><time>2026-05-01T12:37:41.999Z</time></trkpt><trkpt lat="46.40730995856921" lon="9.700426410530302"><ele>1804.5</ele><time>2026-05-01T12:37:42.999Z</time></trkpt><trkpt lat="46.40741328193779" lon="9.700586721930776"><ele>1804.75</ele><time>2026-05-01T12:37:43.999Z</time></trkpt><trkpt lat="46.40750694251686" lon="9.700746095710045"><ele>1805.0</ele><time>2026-05-01T12:37:44.999Z</time></trkpt><trkpt lat="46.40760184340191" lon="9.700887675870337"><ele>1805.0</ele><time>2026-05-01T12:37:45.999Z</time></trkpt><trkpt lat="46.40769242222743" lon="9.70102333570387"><ele>1805.0</ele><time>2026-05-01T12:37:46.999Z</time></trkpt><trkpt lat="46.4077813097816" lon="9.701152513885626"><ele>1805.0</ele><time>2026-05-01T12:37:47.999Z</time></trkpt><trkpt lat="46.40786805433645" lon="9.701272649989487"><ele>1805.0</ele><time>2026-05-01T12:37:48.999Z</time></trkpt><trkpt lat="46.407939387162806" lon="9.70139577880715"><ele>1805.75</ele><time>2026-05-01T12:37:49.999Z</time></trkpt><trkpt lat="46.40801746659787" lon="9.70151579465889"><ele>1806.5</ele><time>2026-05-01T12:37:50.999Z</time></trkpt><trkpt lat="46.40809605758079" lon="9.701640439373714"><ele>1807.25</ele><time>2026-05-01T12:37:51.999Z</time></trkpt><trkpt lat="46.40817186637709" lon="9.701773602786899"><ele>1808.0</ele><time>2026-05-01T12:37:52.999Z</time></trkpt><trkpt lat="46.40823906980574" lon="9.701914140631796"><ele>1806.25</ele><time>2026-05-01T12:37:53.999Z</time></trkpt><trkpt lat="46.408300779987165" lon="9.70207221999462"><ele>1804.5</ele><time>2026-05-01T12:37:54.999Z</time></trkpt><trkpt lat="46.40833464165531" lon="9.702248074411004"><ele>1802.75</ele><time>2026-05-01T12:37:55.999Z</time></trkpt><trkpt lat="46.40837619183274" lon="9.702424858394116"><ele>1801.0</ele><time>2026-05-01T12:37:56.999Z</time></trkpt><trkpt lat="46.408422633303836" lon="9.702604624384188"><ele>1800.25</ele><time>2026-05-01T12:37:57.999Z</time></trkpt><trkpt lat="46.40845963894265" lon="9.702795246288943"><ele>1799.5</ele><time>2026-05-01T12:37:58.999Z</time></trkpt><trkpt lat="46.408500688444065" lon="9.70298779144756"><ele>1798.75</ele><time>2026-05-01T12:37:59.999Z</time></trkpt><trkpt lat="46.408565365251434" lon="9.703182992567617"><ele>1798.0</ele><time>2026-05-01T12:38:00.999Z</time></trkpt><trkpt lat="46.40864990707754" lon="9.703356229031957"><ele>1798.0</ele><time>2026-05-01T12:38:01.999Z</time></trkpt><trkpt lat="46.408750187081225" lon="9.703523512167626"><ele>1798.0</ele><time>2026-05-01T12:38:02.999Z</time></trkpt><trkpt lat="46.408874652727306" lon="9.703674955909674"><ele>1798.0</ele><time>2026-05-01T12:38:03.999Z</time></trkpt><trkpt lat="46.409047622442124" lon="9.703823711339696"><ele>1798.5</ele><time>2026-05-01T12:38:04.999Z</time></trkpt><trkpt lat="46.40926420562636" lon="9.703976396438613"><ele>1799.0</ele><time>2026-05-01T12:38:05.999Z</time></trkpt><trkpt lat="46.40945991906575" lon="9.704096792044004"><ele>1799.0</ele><time>2026-05-01T12:38:06.999Z</time></trkpt><trkpt lat="46.409608581315894" lon="9.704195643033186"><ele>1799.0</ele><time>2026-05-01T12:38:07.999Z</time></trkpt><trkpt lat="46.40970998933806" lon="9.704303099089962"><ele>1799.0</ele><time>2026-05-01T12:38:08.999Z</time></trkpt><trkpt lat="46.40984038028911" lon="9.704448344004502"><ele>1802.6666666666665</ele><time>2026-05-01T12:38:09.999Z</time></trkpt><trkpt lat="46.409989575170826" lon="9.704656626688761"><ele>1806.3333333333335</ele><time>2026-05-01T12:38:10.999Z</time></trkpt><trkpt lat="46.410103015646975" lon="9.704909696268603"><ele>1810.0</ele><time>2026-05-01T12:38:11.999Z</time></trkpt><trkpt lat="46.41019985273425" lon="9.705205005581824"><ele>1807.0</ele><time>2026-05-01T12:38:12.999Z</time></trkpt><trkpt lat="46.410272578250606" lon="9.705526423949362"><ele>1804.0</ele><time>2026-05-01T12:38:13.999Z</time></trkpt><trkpt lat="46.410338706763085" lon="9.70586311740219"><ele>1802.5</ele><time>2026-05-01T12:38:14.999Z</time></trkpt><trkpt lat="46.41040458488572" lon="9.706198536175842"><ele>1801.0</ele><time>2026-05-01T12:38:15.999Z</time></trkpt><trkpt lat="46.41047068777575" lon="9.706533948168415"><ele>1809.0</ele><time>2026-05-01T12:38:16.999Z</time></trkpt><trkpt lat="46.410551382829226" lon="9.706861356251853"><ele>1817.0</ele><time>2026-05-01T12:38:17.999Z</time></trkpt><trkpt lat="46.410615345550596" lon="9.707193244166369"><ele>1817.0</ele><time>2026-05-01T12:38:18.999Z</time></trkpt><trkpt lat="46.410651074786685" lon="9.707524261379012"><ele>1817.0</ele><time>2026-05-01T12:38:19.999Z</time></trkpt><trkpt lat="46.41068558320812" lon="9.707841365725853"><ele>1813.3333333333333</ele><time>2026-05-01T12:38:20.999Z</time></trkpt><trkpt lat="46.41071719845581" lon="9.70814774539728"><ele>1809.6666666666665</ele><time>2026-05-01T12:38:21.999Z</time></trkpt><trkpt lat="46.410771716856196" lon="9.708434903170204"><ele>1806.0</ele><time>2026-05-01T12:38:22.999Z</time></trkpt><trkpt lat="46.41082334596794" lon="9.708706731106588"><ele>1804.6666666666665</ele><time>2026-05-01T12:38:23.999Z</time></trkpt><trkpt lat="46.410915111011654" lon="9.708962661184943"><ele>1803.3333333333333</ele><time>2026-05-01T12:38:24.999Z</time></trkpt><trkpt lat="46.411053717328706" lon="9.709199576597412"><ele>1802.0</ele><time>2026-05-01T12:38:26Z</time></trkpt><trkpt lat="46.411213178620095" lon="9.709401937226318"><ele>1805.0</ele><time>2026-05-01T12:38:27Z</time></trkpt><trkpt lat="46.41136373680323" lon="9.70962228112434"><ele>1808.0</ele><time>2026-05-01T12:38:28Z</time></trkpt><trkpt lat="46.41150021996897" lon="9.709870204517975"><ele>1811.0</ele><time>2026-05-01T12:38:29Z</time></trkpt><trkpt lat="46.41160577408432" lon="9.710147559871029"><ele>1808.3333333333333</ele><time>2026-05-01T12:38:30Z</time></trkpt><trkpt lat="46.411701937470404" lon="9.71044366457703"><ele>1805.6666666666665</ele><time>2026-05-01T12:38:31Z</time></trkpt><trkpt lat="46.41178954027655" lon="9.710733418526601"><ele>1803.0</ele><time>2026-05-01T12:38:32Z</time></trkpt><trkpt lat="46.411900163502956" lon="9.711008063095708"><ele>1800.5</ele><time>2026-05-01T12:38:33Z</time></trkpt><trkpt lat="46.412013562547706" lon="9.711286695689697"><ele>1798.0</ele><time>2026-05-01T12:38:34Z</time></trkpt><trkpt lat="46.41215738189987" lon="9.711544344064258"><ele>1800.0</ele><time>2026-05-01T12:38:35Z</time></trkpt><trkpt lat="46.41231330543592" lon="9.711797262774283"><ele>1802.0</ele><time>2026-05-01T12:38:36Z</time></trkpt><trkpt lat="46.41244668120822" lon="9.712055383824465"><ele>1802.0</ele><time>2026-05-01T12:38:37Z</time></trkpt><trkpt lat="46.412603310664394" lon="9.712299792687121"><ele>1802.0</ele><time>2026-05-01T12:38:38Z</time></trkpt><trkpt lat="46.41278953068033" lon="9.712513936880397"><ele>1802.0</ele><time>2026-05-01T12:38:39Z</time></trkpt><trkpt lat="46.41297931418234" lon="9.712708306680241"><ele>1802.0</ele><time>2026-05-01T12:38:40Z</time></trkpt><trkpt lat="46.413174540889756" lon="9.712898678591719"><ele>1802.0</ele><time>2026-05-01T12:38:41Z</time></trkpt><trkpt lat="46.413347096732416" lon="9.713132914383413"><ele>1802.0</ele><time>2026-05-01T12:38:42Z</time></trkpt><trkpt lat="46.413519501183174" lon="9.7133568834435"><ele>1799.5</ele><time>2026-05-01T12:38:43Z</time></trkpt><trkpt lat="46.41368946360515" lon="9.713581576599427"><ele>1797.0</ele><time>2026-05-01T12:38:44Z</time></trkpt><trkpt lat="46.41383672589657" lon="9.71383699164738"><ele>1802.0</ele><time>2026-05-01T12:38:45Z</time></trkpt><trkpt lat="46.413957289674606" lon="9.71411971422244"><ele>1807.0</ele><time>2026-05-01T12:38:46Z</time></trkpt><trkpt lat="46.41406466558653" lon="9.71442815662263"><ele>1807.0</ele><time>2026-05-01T12:38:47Z</time></trkpt><trkpt lat="46.41419002622681" lon="9.714726624213034"><ele>1807.0</ele><time>2026-05-01T12:38:48Z</time></trkpt><trkpt lat="46.41432089544357" lon="9.715023140407038"><ele>1803.5</ele><time>2026-05-01T12:38:49Z</time></trkpt><trkpt lat="46.414453455051245" lon="9.715320375788597"><ele>1800.0</ele><time>2026-05-01T12:38:50Z</time></trkpt><trkpt lat="46.414584348931626" lon="9.715617084245117"><ele>1808.0</ele><time>2026-05-01T12:38:51Z</time></trkpt><trkpt lat="46.414709146832315" lon="9.7159209550663"><ele>1816.0</ele><time>2026-05-01T12:38:52Z</time></trkpt><trkpt lat="46.41481246090891" lon="9.716232922140904"><ele>1816.0</ele><time>2026-05-01T12:38:53Z</time></trkpt><trkpt lat="46.414893344461" lon="9.716554628883507"><ele>1816.0</ele><time>2026-05-01T12:38:54Z</time></trkpt><trkpt lat="46.41496806673611" lon="9.716867930832555"><ele>1813.0</ele><time>2026-05-01T12:38:55Z</time></trkpt><trkpt lat="46.415039933248984" lon="9.717163308835678"><ele>1810.0</ele><time>2026-05-01T12:38:56Z</time></trkpt><trkpt lat="46.4151112511459" lon="9.71745155019056"><ele>1807.0</ele><time>2026-05-01T12:38:57Z</time></trkpt><trkpt lat="46.41519970006502" lon="9.717738771615352"><ele>1804.5</ele><time>2026-05-01T12:38:58Z</time></trkpt><trkpt lat="46.41533509185484" lon="9.718002950159772"><ele>1802.0</ele><time>2026-05-01T12:38:59Z</time></trkpt><trkpt lat="46.415488928843146" lon="9.718238868039112"><ele>1807.5</ele><time>2026-05-01T12:39:00Z</time></trkpt><trkpt lat="46.415650720877" lon="9.718469955994602"><ele>1813.0</ele><time>2026-05-01T12:39:01Z</time></trkpt><trkpt lat="46.41579452156583" lon="9.718726278013722"><ele>1813.0</ele><time>2026-05-01T12:39:02Z</time></trkpt><trkpt lat="46.41590441283118" lon="9.71901637517481"><ele>1813.0</ele><time>2026-05-01T12:39:03Z</time></trkpt><trkpt lat="46.41599367581331" lon="9.719329462029357"><ele>1810.0</ele><time>2026-05-01T12:39:04Z</time></trkpt><trkpt lat="46.41607906494269" lon="9.71964834480436"><ele>1807.0</ele><time>2026-05-01T12:39:05Z</time></trkpt><trkpt lat="46.41617959567179" lon="9.719970311732895"><ele>1804.5</ele><time>2026-05-01T12:39:06Z</time></trkpt><trkpt lat="46.416314875556985" lon="9.720276300365246"><ele>1802.0</ele><time>2026-05-01T12:39:07Z</time></trkpt><trkpt lat="46.41644662075006" lon="9.72060494746721"><ele>1810.0</ele><time>2026-05-01T12:39:08Z</time></trkpt><trkpt lat="46.4165725712211" lon="9.72097069338959"><ele>1818.0</ele><time>2026-05-01T12:39:09Z</time></trkpt><trkpt lat="46.41669064340502" lon="9.721340306756648"><ele>1818.0</ele><time>2026-05-01T12:39:10Z</time></trkpt><trkpt lat="46.41680645696536" lon="9.721751254696528"><ele>1818.0</ele><time>2026-05-01T12:39:11Z</time></trkpt><trkpt lat="46.416941463913204" lon="9.722172761068379"><ele>1813.0</ele><time>2026-05-01T12:39:12Z</time></trkpt><trkpt lat="46.41706422514366" lon="9.72261441173747"><ele>1808.0</ele><time>2026-05-01T12:39:13Z</time></trkpt><trkpt lat="46.417175910083415" lon="9.72306612661536"><ele>1814.0</ele><time>2026-05-01T12:39:14Z</time></trkpt><trkpt lat="46.41730257160444" lon="9.723506866553135"><ele>1820.0</ele><time>2026-05-01T12:39:15Z</time></trkpt><trkpt lat="46.41742757101022" lon="9.723930367626235"><ele>1820.0</ele><time>2026-05-01T12:39:16Z</time></trkpt><trkpt lat="46.41762450899491" lon="9.72427833790992"><ele>1820.0</ele><time>2026-05-01T12:39:17Z</time></trkpt><trkpt lat="46.41773846809346" lon="9.72465608860186"><ele>1814.0</ele><time>2026-05-01T12:39:18Z</time></trkpt><trkpt lat="46.41782224537284" lon="9.725025140453356"><ele>1808.0</ele><time>2026-05-01T12:39:19Z</time></trkpt><trkpt lat="46.4179017526583" lon="9.725373237380555"><ele>1817.5</ele><time>2026-05-01T12:39:20Z</time></trkpt><trkpt lat="46.417995507712575" lon="9.725695146299465"><ele>1827.0</ele><time>2026-05-01T12:39:21Z</time></trkpt><trkpt lat="46.418119037912994" lon="9.726007866318653"><ele>1820.0</ele><time>2026-05-01T12:39:22Z</time></trkpt><trkpt lat="46.41824673141271" lon="9.726299758892305"><ele>1813.0</ele><time>2026-05-01T12:39:23Z</time></trkpt><trkpt lat="46.41836712370701" lon="9.726571558940291"><ele>1813.0</ele><time>2026-05-01T12:39:24Z</time></trkpt><trkpt lat="46.41848651575476" lon="9.726832951065573"><ele>1813.0</ele><time>2026-05-01T12:39:25Z</time></trkpt><trkpt lat="46.41859647598825" lon="9.727077517698753"><ele>1813.0</ele><time>2026-05-01T12:39:26Z</time></trkpt><trkpt lat="46.41871114392659" lon="9.727298080833846"><ele>1813.6666666666667</ele><time>2026-05-01T12:39:27Z</time></trkpt><trkpt lat="46.41885766181407" lon="9.727449198461791"><ele>1814.3333333333335</ele><time>2026-05-01T12:39:28Z</time></trkpt><trkpt lat="46.41900725208859" lon="9.727548636712074"><ele>1815.0</ele><time>2026-05-01T12:39:29Z</time></trkpt><trkpt lat="46.41915454642038" lon="9.727590961073409"><ele>1815.0</ele><time>2026-05-01T12:39:29.999Z</time></trkpt><trkpt lat="46.4193014391894" lon="9.727543463701661"><ele>1815.0</ele><time>2026-05-01T12:39:30.999Z</time></trkpt><trkpt lat="46.41944024651974" lon="9.727433477703636"><ele>1815.0</ele><time>2026-05-01T12:39:31.999Z</time></trkpt><trkpt lat="46.41956566351511" lon="9.727250401623191"><ele>1812.0</ele><time>2026-05-01T12:39:32.999Z</time></trkpt><trkpt lat="46.41969522575994" lon="9.727089897799155"><ele>1809.0</ele><time>2026-05-01T12:39:33.999Z</time></trkpt><trkpt lat="46.41980891152578" lon="9.726952769228728"><ele>1806.0</ele><time>2026-05-01T12:39:34.999Z</time></trkpt><trkpt lat="46.41993051983941" lon="9.72682924820209"><ele>1806.0</ele><time>2026-05-01T12:39:35.999Z</time></trkpt><trkpt lat="46.42006047574749" lon="9.726722767023984"><ele>1806.0</ele><time>2026-05-01T12:39:36.999Z</time></trkpt><trkpt lat="46.4201927534443" lon="9.726633598065073"><ele>1806.0</ele><time>2026-05-01T12:39:37.999Z</time></trkpt><trkpt lat="46.42033225743293" lon="9.726561575267466"><ele>1806.0</ele><time>2026-05-01T12:39:38.999Z</time></trkpt><trkpt lat="46.42046956356332" lon="9.726498761867633"><ele>1804.0</ele><time>2026-05-01T12:39:39.999Z</time></trkpt><trkpt lat="46.42061049465934" lon="9.72645422412642"><ele>1802.0</ele><time>2026-05-01T12:39:40.999Z</time></trkpt><trkpt lat="46.420752456417155" lon="9.726425811881537"><ele>1800.0</ele><time>2026-05-01T12:39:41.999Z</time></trkpt><trkpt lat="46.42090373879208" lon="9.726407098565828"><ele>1798.0</ele><time>2026-05-01T12:39:42.999Z</time></trkpt><trkpt lat="46.421060296803375" lon="9.726398467858749"><ele>1798.0</ele><time>2026-05-01T12:39:43.999Z</time></trkpt><trkpt lat="46.421212846992425" lon="9.726386864904631"><ele>1798.0</ele><time>2026-05-01T12:39:44.999Z</time></trkpt><trkpt lat="46.421357801673956" lon="9.726381421509595"><ele>1798.0</ele><time>2026-05-01T12:39:45.999Z</time></trkpt><trkpt lat="46.42150800353828" lon="9.726374369300276"><ele>1798.0</ele><time>2026-05-01T12:39:46.999Z</time></trkpt><trkpt lat="46.42165559808557" lon="9.72638417213279"><ele>1798.0</ele><time>2026-05-01T12:39:47.999Z</time></trkpt><trkpt lat="46.42180536860046" lon="9.72637851650497"><ele>1798.0</ele><time>2026-05-01T12:39:48.999Z</time></trkpt><trkpt lat="46.421949159581146" lon="9.726376697737786"><ele>1798.0</ele><time>2026-05-01T12:39:49.999Z</time></trkpt><trkpt lat="46.42209112962575" lon="9.726367245146614"><ele>1798.0</ele><time>2026-05-01T12:39:50.999Z</time></trkpt><trkpt lat="46.422250784770725" lon="9.726354075612518"><ele>1799.0</ele><time>2026-05-01T12:39:51.999Z</time></trkpt><trkpt lat="46.42235414485438" lon="9.726372368577962"><ele>1800.0</ele><time>2026-05-01T12:39:52.999Z</time></trkpt><trkpt lat="46.422501233742544" lon="9.726369683177968"><ele>1801.0</ele><time>2026-05-01T12:39:53.999Z</time></trkpt><trkpt lat="46.4226599437037" lon="9.726370772532633"><ele>1802.0</ele><time>2026-05-01T12:39:54.999Z</time></trkpt><trkpt lat="46.42281853287848" lon="9.72638736452523"><ele>1807.6666666666665</ele><time>2026-05-01T12:39:55.999Z</time></trkpt><trkpt lat="46.42298934864594" lon="9.7264200175715"><ele>1813.3333333333335</ele><time>2026-05-01T12:39:56.999Z</time></trkpt><trkpt lat="46.42316324637681" lon="9.726472234420424"><ele>1819.0</ele><time>2026-05-01T12:39:57.999Z</time></trkpt><trkpt lat="46.423350779886135" lon="9.72655493889806"><ele>1819.0</ele><time>2026-05-01T12:39:58.999Z</time></trkpt><trkpt lat="46.42355101404399" lon="9.726684531881787"><ele>1819.0</ele><time>2026-05-01T12:39:59.999Z</time></trkpt><trkpt lat="46.42376336280161" lon="9.72684855626752"><ele>1819.0</ele><time>2026-05-01T12:40:00.999Z</time></trkpt><trkpt lat="46.42396904459242" lon="9.727052768409802"><ele>1819.0</ele><time>2026-05-01T12:40:01.999Z</time></trkpt><trkpt lat="46.42415109330267" lon="9.727299575113129"><ele>1819.0</ele><time>2026-05-01T12:40:02.999Z</time></trkpt><trkpt lat="46.42433206311431" lon="9.727563059390702"><ele>1819.0</ele><time>2026-05-01T12:40:03.999Z</time></trkpt><trkpt lat="46.42452755677392" lon="9.727835016028177"><ele>1823.5</ele><time>2026-05-01T12:40:04.999Z</time></trkpt><trkpt lat="46.42472149290141" lon="9.728112801844919"><ele>1828.0</ele><time>2026-05-01T12:40:05.999Z</time></trkpt><trkpt lat="46.42492296869664" lon="9.728390085875184"><ele>1816.0</ele><time>2026-05-01T12:40:06.999Z</time></trkpt><trkpt lat="46.42512908153903" lon="9.728669265923656"><ele>1804.0</ele><time>2026-05-01T12:40:07.999Z</time></trkpt><trkpt lat="46.42530429395425" lon="9.728957182891913"><ele>1804.0</ele><time>2026-05-01T12:40:08.999Z</time></trkpt><trkpt lat="46.4254536498126" lon="9.729262377211016"><ele>1804.0</ele><time>2026-05-01T12:40:09.999Z</time></trkpt><trkpt lat="46.425578211338404" lon="9.729604525633999"><ele>1808.5</ele><time>2026-05-01T12:40:10.999Z</time></trkpt><trkpt lat="46.42568963452826" lon="9.729946851461127"><ele>1813.0</ele><time>2026-05-01T12:40:11.999Z</time></trkpt><trkpt lat="46.425806723402026" lon="9.73027434701381"><ele>1813.0</ele><time>2026-05-01T12:40:12.999Z</time></trkpt><trkpt lat="46.42593777356157" lon="9.730598062864185"><ele>1813.0</ele><time>2026-05-01T12:40:13.999Z</time></trkpt><trkpt lat="46.42609077460523" lon="9.730926894437843"><ele>1808.0</ele><time>2026-05-01T12:40:14.999Z</time></trkpt><trkpt lat="46.42626718818502" lon="9.731212006568303"><ele>1803.0</ele><time>2026-05-01T12:40:15.999Z</time></trkpt><trkpt lat="46.426449540973785" lon="9.731497598255736"><ele>1805.0</ele><time>2026-05-01T12:40:16.999Z</time></trkpt><trkpt lat="46.426629121649206" lon="9.731771791452985"><ele>1807.0</ele><time>2026-05-01T12:40:17.999Z</time></trkpt><trkpt lat="46.42679514211862" lon="9.73204480699972"><ele>1807.0</ele><time>2026-05-01T12:40:18.999Z</time></trkpt><trkpt lat="46.426949913269844" lon="9.732311446899317"><ele>1807.0</ele><time>2026-05-01T12:40:19.999Z</time></trkpt><trkpt lat="46.427093341523424" lon="9.732572068110855"><ele>1811.3333333333335</ele><time>2026-05-01T12:40:20.999Z</time></trkpt><trkpt lat="46.42719927692509" lon="9.732852085024566"><ele>1815.6666666666665</ele><time>2026-05-01T12:40:21.999Z</time></trkpt><trkpt lat="46.42732586509044" lon="9.733086647893693"><ele>1820.0</ele><time>2026-05-01T12:40:22.999Z</time></trkpt><trkpt lat="46.42746406295267" lon="9.733327141183016"><ele>1820.0</ele><time>2026-05-01T12:40:23.999Z</time></trkpt><trkpt lat="46.427634798652605" lon="9.73353994993559"><ele>1820.0</ele><time>2026-05-01T12:40:24.999Z</time></trkpt><trkpt lat="46.427816904114835" lon="9.73373122638096"><ele>1823.0</ele><time>2026-05-01T12:40:25.999Z</time></trkpt><trkpt lat="46.4280067070617" lon="9.73393449495819"><ele>1826.0</ele><time>2026-05-01T12:40:26.999Z</time></trkpt><trkpt lat="46.428191739154265" lon="9.734090586362402"><ele>1826.0</ele><time>2026-05-01T12:40:27.999Z</time></trkpt><trkpt lat="46.42836680710515" lon="9.734220945470433"><ele>1826.0</ele><time>2026-05-01T12:40:28.999Z</time></trkpt><trkpt lat="46.428535402992146" lon="9.734356370353812"><ele>1826.0</ele><time>2026-05-01T12:40:29.999Z</time></trkpt><trkpt lat="46.42863435243548" lon="9.734537946209729"><ele>1821.3333333333333</ele><time>2026-05-01T12:40:30.999Z</time></trkpt><trkpt lat="46.428728878604495" lon="9.734725286195854"><ele>1816.6666666666665</ele><time>2026-05-01T12:40:32Z</time></trkpt><trkpt lat="46.428790088400824" lon="9.734922423247786"><ele>1812.0</ele><time>2026-05-01T12:40:33Z</time></trkpt><trkpt lat="46.428798768826375" lon="9.735144901002414"><ele>1809.6666666666665</ele><time>2026-05-01T12:40:34Z</time></trkpt><trkpt lat="46.42875714921574" lon="9.735374505006638"><ele>1807.3333333333333</ele><time>2026-05-01T12:40:35Z</time></trkpt><trkpt lat="46.428715745318755" lon="9.735630587394379"><ele>1805.0</ele><time>2026-05-01T12:40:36Z</time></trkpt><trkpt lat="46.428683629689196" lon="9.735887821545331"><ele>1805.0</ele><time>2026-05-01T12:40:37Z</time></trkpt><trkpt lat="46.42868989339533" lon="9.736163795131706"><ele>1805.0</ele><time>2026-05-01T12:40:38Z</time></trkpt><trkpt lat="46.42869345680263" lon="9.736411129844933"><ele>1805.0</ele><time>2026-05-01T12:40:39Z</time></trkpt><trkpt lat="46.42869119865273" lon="9.736633134466853"><ele>1805.0</ele><time>2026-05-01T12:40:40Z</time></trkpt><trkpt lat="46.42873643553116" lon="9.736821284753965"><ele>1805.0</ele><time>2026-05-01T12:40:41Z</time></trkpt><trkpt lat="46.42883307031967" lon="9.737025771296656"><ele>1805.0</ele><time>2026-05-01T12:40:42Z</time></trkpt><trkpt lat="46.428959235959745" lon="9.737257275102538"><ele>1804.5</ele><time>2026-05-01T12:40:43Z</time></trkpt><trkpt lat="46.429105921149116" lon="9.737526238540541"><ele>1804.0</ele><time>2026-05-01T12:40:44Z</time></trkpt><trkpt lat="46.42924092731" lon="9.73779236007017"><ele>1804.0</ele><time>2026-05-01T12:40:45Z</time></trkpt><trkpt lat="46.42938530937065" lon="9.738034273538169"><ele>1804.0</ele><time>2026-05-01T12:40:46Z</time></trkpt><trkpt lat="46.42953284020907" lon="9.738269260292709"><ele>1804.0</ele><time>2026-05-01T12:40:47Z</time></trkpt><trkpt lat="46.42969803911033" lon="9.738499139065734"><ele>1804.0</ele><time>2026-05-01T12:40:48Z</time></trkpt><trkpt lat="46.42986968142054" lon="9.738699918559549"><ele>1804.0</ele><time>2026-05-01T12:40:49Z</time></trkpt><trkpt lat="46.430051955222005" lon="9.738859245577682"><ele>1804.0</ele><time>2026-05-01T12:40:50Z</time></trkpt><trkpt lat="46.43021126910057" lon="9.739048483184899"><ele>1804.0</ele><time>2026-05-01T12:40:51Z</time></trkpt><trkpt lat="46.43035313785767" lon="9.739270932199402"><ele>1804.0</ele><time>2026-05-01T12:40:52Z</time></trkpt><trkpt lat="46.43047943918107" lon="9.739526028132417"><ele>1804.0</ele><time>2026-05-01T12:40:53Z</time></trkpt><trkpt lat="46.43059959271594" lon="9.739815051897812"><ele>1809.0</ele><time>2026-05-01T12:40:54Z</time></trkpt><trkpt lat="46.43071936815674" lon="9.740103166215846"><ele>1814.0</ele><time>2026-05-01T12:40:55Z</time></trkpt><trkpt lat="46.43084333606111" lon="9.74040136526353"><ele>1814.0</ele><time>2026-05-01T12:40:56Z</time></trkpt><trkpt lat="46.430964620981044" lon="9.74069546848901"><ele>1814.0</ele><time>2026-05-01T12:40:57Z</time></trkpt><trkpt lat="46.43106906148734" lon="9.74097229903914"><ele>1811.0</ele><time>2026-05-01T12:40:58Z</time></trkpt><trkpt lat="46.43114281289939" lon="9.741244724259118"><ele>1808.0</ele><time>2026-05-01T12:40:59Z</time></trkpt><trkpt lat="46.43120295479655" lon="9.741542722286985"><ele>1805.0</ele><time>2026-05-01T12:41:00Z</time></trkpt><trkpt lat="46.43126545902771" lon="9.741863614422916"><ele>1811.0</ele><time>2026-05-01T12:41:01Z</time></trkpt><trkpt lat="46.43133399021258" lon="9.742165252568642"><ele>1817.0</ele><time>2026-05-01T12:41:02Z</time></trkpt><trkpt lat="46.43138972837305" lon="9.74244322690538"><ele>1823.0</ele><time>2026-05-01T12:41:03Z</time></trkpt><trkpt lat="46.43145876424449" lon="9.742713385948138"><ele>1817.6666666666665</ele><time>2026-05-01T12:41:04Z</time></trkpt><trkpt lat="46.431546960641406" lon="9.742960855512822"><ele>1812.3333333333335</ele><time>2026-05-01T12:41:05Z</time></trkpt><trkpt lat="46.431662415795664" lon="9.743179104945028"><ele>1807.0</ele><time>2026-05-01T12:41:06Z</time></trkpt><trkpt lat="46.43180771451545" lon="9.743385524125667"><ele>1809.6666666666667</ele><time>2026-05-01T12:41:07Z</time></trkpt><trkpt lat="46.43198669758449" lon="9.743586170666175"><ele>1812.3333333333335</ele><time>2026-05-01T12:41:08Z</time></trkpt><trkpt lat="46.43214044472797" lon="9.743820196599321"><ele>1815.0</ele><time>2026-05-01T12:41:09Z</time></trkpt><trkpt lat="46.43228472420208" lon="9.744030421764005"><ele>1815.0</ele><time>2026-05-01T12:41:10Z</time></trkpt><trkpt lat="46.432415339162894" lon="9.74425383627223"><ele>1815.0</ele><time>2026-05-01T12:41:11Z</time></trkpt><trkpt lat="46.432528491809435" lon="9.744500193323649"><ele>1815.0</ele><time>2026-05-01T12:41:12Z</time></trkpt><trkpt lat="46.432626173532" lon="9.744780935283709"><ele>1812.6666666666665</ele><time>2026-05-01T12:41:13Z</time></trkpt><trkpt lat="46.4327052074333" lon="9.745078533684472"><ele>1810.3333333333333</ele><time>2026-05-01T12:41:14Z</time></trkpt><trkpt lat="46.43276227527976" lon="9.745387493397915"><ele>1808.0</ele><time>2026-05-01T12:41:15Z</time></trkpt><trkpt lat="46.432792464069074" lon="9.745717920553298"><ele>1806.5</ele><time>2026-05-01T12:41:16Z</time></trkpt><trkpt lat="46.43279752394865" lon="9.74606558118163"><ele>1805.0</ele><time>2026-05-01T12:41:17Z</time></trkpt><trkpt lat="46.43276999087445" lon="9.746432696306208"><ele>1805.0</ele><time>2026-05-01T12:41:18Z</time></trkpt><trkpt lat="46.43272845430335" lon="9.746798992410808"><ele>1805.0</ele><time>2026-05-01T12:41:19Z</time></trkpt><trkpt lat="46.43268870056657" lon="9.7471478456601"><ele>1805.0</ele><time>2026-05-01T12:41:20Z</time></trkpt><trkpt lat="46.432668924767405" lon="9.74748365632553"><ele>1805.0</ele><time>2026-05-01T12:41:21Z</time></trkpt><trkpt lat="46.43265918290595" lon="9.74781567196075"><ele>1804.0</ele><time>2026-05-01T12:41:22Z</time></trkpt><trkpt lat="46.43267587383343" lon="9.74815253744686"><ele>1803.0</ele><time>2026-05-01T12:41:23Z</time></trkpt><trkpt lat="46.432719291979666" lon="9.748497732910929"><ele>1801.0</ele><time>2026-05-01T12:41:24Z</time></trkpt><trkpt lat="46.432793444692216" lon="9.748845608129558"><ele>1799.0</ele><time>2026-05-01T12:41:25Z</time></trkpt><trkpt lat="46.43288898185449" lon="9.749197076143385"><ele>1808.0</ele><time>2026-05-01T12:41:26Z</time></trkpt><trkpt lat="46.43299841050374" lon="9.749546348050908"><ele>1817.0</ele><time>2026-05-01T12:41:27Z</time></trkpt><trkpt lat="46.433120241162285" lon="9.74987528225462"><ele>1817.0</ele><time>2026-05-01T12:41:28Z</time></trkpt><trkpt lat="46.43324228780283" lon="9.75018235661633"><ele>1817.0</ele><time>2026-05-01T12:41:29Z</time></trkpt><trkpt lat="46.43336606336677" lon="9.750474476927678"><ele>1811.0</ele><time>2026-05-01T12:41:30Z</time></trkpt><trkpt lat="46.433501876141506" lon="9.750753157623793"><ele>1805.0</ele><time>2026-05-01T12:41:30.999Z</time></trkpt><trkpt lat="46.433648771294706" lon="9.751025250662245"><ele>1800.5</ele><time>2026-05-01T12:41:31.999Z</time></trkpt><trkpt lat="46.43379658751021" lon="9.751299074502388"><ele>1796.0</ele><time>2026-05-01T12:41:32.999Z</time></trkpt><trkpt lat="46.43395009913995" lon="9.751561612143762"><ele>1800.0</ele><time>2026-05-01T12:41:33.999Z</time></trkpt><trkpt lat="46.43407631839347" lon="9.751835869581273"><ele>1804.0</ele><time>2026-05-01T12:41:34.999Z</time></trkpt><trkpt lat="46.43419560640508" lon="9.752118593302356"><ele>1804.0</ele><time>2026-05-01T12:41:35.999Z</time></trkpt><trkpt lat="46.4342978788418" lon="9.752426013419313"><ele>1804.0</ele><time>2026-05-01T12:41:36.999Z</time></trkpt><trkpt lat="46.434409807581865" lon="9.75275118266357"><ele>1802.5</ele><time>2026-05-01T12:41:37.999Z</time></trkpt><trkpt lat="46.43449145019665" lon="9.753090705222137"><ele>1801.0</ele><time>2026-05-01T12:41:38.999Z</time></trkpt><trkpt lat="46.434568553679796" lon="9.753425136957702"><ele>1805.5</ele><time>2026-05-01T12:41:39.999Z</time></trkpt><trkpt lat="46.43464451238516" lon="9.753757090551037"><ele>1810.0</ele><time>2026-05-01T12:41:40.999Z</time></trkpt><trkpt lat="46.43473915523342" lon="9.75408178615565"><ele>1805.5</ele><time>2026-05-01T12:41:41.999Z</time></trkpt><trkpt lat="46.43486216880233" lon="9.754393958055108"><ele>1801.0</ele><time>2026-05-01T12:41:42.999Z</time></trkpt><trkpt lat="46.43500186476895" lon="9.754701496940958"><ele>1801.0</ele><time>2026-05-01T12:41:43.999Z</time></trkpt><trkpt lat="46.43515723018554" lon="9.755000948007122"><ele>1801.0</ele><time>2026-05-01T12:41:44.999Z</time></trkpt><trkpt lat="46.435324497409404" lon="9.755290225655356"><ele>1805.5</ele><time>2026-05-01T12:41:45.999Z</time></trkpt><trkpt lat="46.43550329665738" lon="9.755567240406924"><ele>1810.0</ele><time>2026-05-01T12:41:46.999Z</time></trkpt><trkpt lat="46.43566801896663" lon="9.755848706609694"><ele>1807.5</ele><time>2026-05-01T12:41:47.999Z</time></trkpt><trkpt lat="46.43582160884367" lon="9.756130250115326"><ele>1805.0</ele><time>2026-05-01T12:41:48.999Z</time></trkpt><trkpt lat="46.43595735258842" lon="9.756419251911476"><ele>1805.0</ele><time>2026-05-01T12:41:49.999Z</time></trkpt><trkpt lat="46.43607539333015" lon="9.75672186054782"><ele>1805.0</ele><time>2026-05-01T12:41:50.999Z</time></trkpt><trkpt lat="46.436173769665984" lon="9.757038633775519"><ele>1802.0</ele><time>2026-05-01T12:41:51.999Z</time></trkpt><trkpt lat="46.436252007221135" lon="9.757355926893892"><ele>1799.0</ele><time>2026-05-01T12:41:52.999Z</time></trkpt><trkpt lat="46.43632048205196" lon="9.757665340885035"><ele>1807.3333333333333</ele><time>2026-05-01T12:41:53.999Z</time></trkpt><trkpt lat="46.43637827173057" lon="9.757957605859415"><ele>1815.6666666666665</ele><time>2026-05-01T12:41:54.999Z</time></trkpt><trkpt lat="46.43645570106107" lon="9.758235492818004"><ele>1824.0</ele><time>2026-05-01T12:41:55.999Z</time></trkpt><trkpt lat="46.43655661701973" lon="9.758499784204018"><ele>1818.0</ele><time>2026-05-01T12:41:56.999Z</time></trkpt><trkpt lat="46.43667107948702" lon="9.758760186249914"><ele>1812.0</ele><time>2026-05-01T12:41:57.999Z</time></trkpt><trkpt lat="46.43679162782081" lon="9.759023094401808"><ele>1806.0</ele><time>2026-05-01T12:41:58.999Z</time></trkpt><trkpt lat="46.43692011846992" lon="9.759293017373958"><ele>1801.5</ele><time>2026-05-01T12:41:59.999Z</time></trkpt><trkpt lat="46.437052481094284" lon="9.759565675645732"><ele>1797.0</ele><time>2026-05-01T12:42:00.999Z</time></trkpt><trkpt lat="46.43718796082113" lon="9.759845450155117"><ele>1807.0</ele><time>2026-05-01T12:42:01.999Z</time></trkpt><trkpt lat="46.43732475625418" lon="9.760128940951434"><ele>1817.0</ele><time>2026-05-01T12:42:02.999Z</time></trkpt><trkpt lat="46.43745375360829" lon="9.760417152418043"><ele>1817.0</ele><time>2026-05-01T12:42:03.999Z</time></trkpt><trkpt lat="46.4375704836767" lon="9.760720210249916"><ele>1817.0</ele><time>2026-05-01T12:42:04.999Z</time></trkpt><trkpt lat="46.43767153767999" lon="9.761048573455172"><ele>1810.0</ele><time>2026-05-01T12:42:05.999Z</time></trkpt><trkpt lat="46.43774023104922" lon="9.761404485587432"><ele>1803.0</ele><time>2026-05-01T12:42:06.999Z</time></trkpt><trkpt lat="46.43779791299761" lon="9.761776254245817"><ele>1802.0</ele><time>2026-05-01T12:42:07.999Z</time></trkpt><trkpt lat="46.437844300747116" lon="9.762138944626406"><ele>1801.0</ele><time>2026-05-01T12:42:08.999Z</time></trkpt><trkpt lat="46.43786636844097" lon="9.762486420106718"><ele>1800.0</ele><time>2026-05-01T12:42:09.999Z</time></trkpt><trkpt lat="46.437887645990344" lon="9.76281176378001"><ele>1799.0</ele><time>2026-05-01T12:42:10.999Z</time></trkpt><trkpt lat="46.43792985893882" lon="9.763135450083746"><ele>1800.0</ele><time>2026-05-01T12:42:11.999Z</time></trkpt><trkpt lat="46.438005040606775" lon="9.763463849342852"><ele>1801.0</ele><time>2026-05-01T12:42:12.999Z</time></trkpt><trkpt lat="46.43809975720426" lon="9.763795789101765"><ele>1801.0</ele><time>2026-05-01T12:42:13.999Z</time></trkpt><trkpt lat="46.43820206016413" lon="9.764105001065527"><ele>1801.0</ele><time>2026-05-01T12:42:14.999Z</time></trkpt><trkpt lat="46.43831215003114" lon="9.76438153496632"><ele>1800.6666666666667</ele><time>2026-05-01T12:42:15.999Z</time></trkpt><trkpt lat="46.43840863540407" lon="9.764624006184386"><ele>1800.3333333333335</ele><time>2026-05-01T12:42:16.999Z</time></trkpt><trkpt lat="46.438504262515586" lon="9.7648417570946"><ele>1800.0</ele><time>2026-05-01T12:42:17.999Z</time></trkpt><trkpt lat="46.438582539846244" lon="9.765040689291498"><ele>1800.0</ele><time>2026-05-01T12:42:18.999Z</time></trkpt><trkpt lat="46.4386711215985" lon="9.765220496263922"><ele>1800.0</ele><time>2026-05-01T12:42:19.999Z</time></trkpt><trkpt lat="46.43874249141634" lon="9.765376762000265"><ele>1800.0</ele><time>2026-05-01T12:42:20.999Z</time></trkpt><trkpt lat="46.43881135109031" lon="9.765506189490335"><ele>1800.0</ele><time>2026-05-01T12:42:21.999Z</time></trkpt><trkpt lat="46.43885594471604" lon="9.765612172381749"><ele>1800.0</ele><time>2026-05-01T12:42:22.999Z</time></trkpt><trkpt lat="46.438892652476994" lon="9.765725889032081"><ele>1800.0</ele><time>2026-05-01T12:42:23.999Z</time></trkpt><trkpt lat="46.43888674205168" lon="9.765846636834446"><ele>1800.0</ele><time>2026-05-01T12:42:24.999Z</time></trkpt><trkpt lat="46.438889863357446" lon="9.765963169460646"><ele>1800.0</ele><time>2026-05-01T12:42:25.999Z</time></trkpt><trkpt lat="46.43893163647846" lon="9.76607013279783"><ele>1800.0</ele><time>2026-05-01T12:42:26.999Z</time></trkpt><trkpt lat="46.43901373923151" lon="9.76619991374958"><ele>1799.3333333333335</ele><time>2026-05-01T12:42:27.999Z</time></trkpt><trkpt lat="46.43909217404712" lon="9.76634940335424"><ele>1798.6666666666667</ele><time>2026-05-01T12:42:28.999Z</time></trkpt><trkpt lat="46.4391516683241" lon="9.766554634400107"><ele>1798.0</ele><time>2026-05-01T12:42:29.999Z</time></trkpt><trkpt lat="46.43924033060553" lon="9.766767854366766"><ele>1798.0</ele><time>2026-05-01T12:42:30.999Z</time></trkpt><trkpt lat="46.43933262489284" lon="9.766989920292255"><ele>1798.0</ele><time>2026-05-01T12:42:31.999Z</time></trkpt><trkpt lat="46.43942227836549" lon="9.767203173416991"><ele>1798.0</ele><time>2026-05-01T12:42:32.999Z</time></trkpt><trkpt lat="46.43953289987424" lon="9.767468133862417"><ele>1797.5</ele><time>2026-05-01T12:42:33.999Z</time></trkpt><trkpt lat="46.43965657057626" lon="9.76775627889098"><ele>1797.0</ele><time>2026-05-01T12:42:34.999Z</time></trkpt><trkpt lat="46.439772974747605" lon="9.768055992728561"><ele>1797.0</ele><time>2026-05-01T12:42:35.999Z</time></trkpt><trkpt lat="46.43989043095203" lon="9.768350258393962"><ele>1797.0</ele><time>2026-05-01T12:42:36.999Z</time></trkpt><trkpt lat="46.44001371601379" lon="9.768640185572588"><ele>1796.0</ele><time>2026-05-01T12:42:38Z</time></trkpt><trkpt lat="46.440136187972186" lon="9.7689339402014"><ele>1795.0</ele><time>2026-05-01T12:42:39Z</time></trkpt><trkpt lat="46.44026323188345" lon="9.769246306094722"><ele>1795.0</ele><time>2026-05-01T12:42:40Z</time></trkpt><trkpt lat="46.4404006642898" lon="9.769590039394934"><ele>1795.0</ele><time>2026-05-01T12:42:41Z</time></trkpt><trkpt lat="46.44055229016793" lon="9.7699417856224"><ele>1795.5</ele><time>2026-05-01T12:42:42Z</time></trkpt><trkpt lat="46.4407178438675" lon="9.77031346607869"><ele>1796.0</ele><time>2026-05-01T12:42:43Z</time></trkpt><trkpt lat="46.440891686018865" lon="9.770708815619036"><ele>1796.0</ele><time>2026-05-01T12:42:44Z</time></trkpt><trkpt lat="46.441014316999116" lon="9.771129772546555"><ele>1796.0</ele><time>2026-05-01T12:42:45Z</time></trkpt><trkpt lat="46.441161197878294" lon="9.771492791848205"><ele>1794.5</ele><time>2026-05-01T12:42:46Z</time></trkpt><trkpt lat="46.441300079933505" lon="9.7718326837542"><ele>1793.0</ele><time>2026-05-01T12:42:47Z</time></trkpt><trkpt lat="46.441430903184454" lon="9.77215285278611"><ele>1793.0</ele><time>2026-05-01T12:42:48Z</time></trkpt><trkpt lat="46.44156999748281" lon="9.7724472097543"><ele>1793.0</ele><time>2026-05-01T12:42:49Z</time></trkpt><trkpt lat="46.44168188816393" lon="9.772739303246626"><ele>1793.0</ele><time>2026-05-01T12:42:50Z</time></trkpt><trkpt lat="46.44179381068004" lon="9.773020134539411"><ele>1793.0</ele><time>2026-05-01T12:42:51Z</time></trkpt><trkpt lat="46.44190868843993" lon="9.773287783372831"><ele>1793.0</ele><time>2026-05-01T12:42:52Z</time></trkpt><trkpt lat="46.44201864228048" lon="9.773553147915493"><ele>1793.0</ele><time>2026-05-01T12:42:53Z</time></trkpt><trkpt lat="46.4421254870143" lon="9.773819948741295"><ele>1793.0</ele><time>2026-05-01T12:42:54Z</time></trkpt><trkpt lat="46.44222937969318" lon="9.774082568124049"><ele>1793.0</ele><time>2026-05-01T12:42:55Z</time></trkpt><trkpt lat="46.442329984422756" lon="9.774314312168235"><ele>1792.6666666666665</ele><time>2026-05-01T12:42:56Z</time></trkpt><trkpt lat="46.44243347693531" lon="9.774563904481937"><ele>1792.3333333333335</ele><time>2026-05-01T12:42:57Z</time></trkpt><trkpt lat="46.44254110235779" lon="9.774805411458427"><ele>1792.0</ele><time>2026-05-01T12:42:58Z</time></trkpt><trkpt lat="46.442671891114664" lon="9.775048473781151"><ele>1791.0</ele><time>2026-05-01T12:42:59Z</time></trkpt><trkpt lat="46.44282865597045" lon="9.77526136017875"><ele>1790.0</ele><time>2026-05-01T12:43:00Z</time></trkpt><trkpt lat="46.443034210279656" lon="9.775451658001904"><ele>1795.0</ele><time>2026-05-01T12:43:01Z</time></trkpt><trkpt lat="46.44324632507272" lon="9.775624799623486"><ele>1800.0</ele><time>2026-05-01T12:43:02Z</time></trkpt><trkpt lat="46.44344618004537" lon="9.775794675276693"><ele>1800.0</ele><time>2026-05-01T12:43:03Z</time></trkpt><trkpt lat="46.4436215813142" lon="9.77598780604808"><ele>1800.0</ele><time>2026-05-01T12:43:04Z</time></trkpt><trkpt lat="46.44379688122787" lon="9.776128946859997"><ele>1800.0</ele><time>2026-05-01T12:43:05Z</time></trkpt><trkpt lat="46.44395729899646" lon="9.77627907356027"><ele>1801.6666666666665</ele><time>2026-05-01T12:43:06Z</time></trkpt><trkpt lat="46.44409255007203" lon="9.776459352999545"><ele>1803.3333333333333</ele><time>2026-05-01T12:43:07Z</time></trkpt><trkpt lat="46.44422032780185" lon="9.776627039559347"><ele>1805.0</ele><time>2026-05-01T12:43:08Z</time></trkpt><trkpt lat="46.44435552546361" lon="9.776838648590173"><ele>1801.3333333333333</ele><time>2026-05-01T12:43:09Z</time></trkpt><trkpt lat="46.44448516033233" lon="9.77710459547417"><ele>1797.6666666666665</ele><time>2026-05-01T12:43:10Z</time></trkpt><trkpt lat="46.44459588222844" lon="9.777345708818833"><ele>1794.0</ele><time>2026-05-01T12:43:11Z</time></trkpt><trkpt lat="46.44472384566798" lon="9.777633676903555"><ele>1800.5</ele><time>2026-05-01T12:43:12Z</time></trkpt><trkpt lat="46.44485749335586" lon="9.777916659379386"><ele>1807.0</ele><time>2026-05-01T12:43:13Z</time></trkpt><trkpt lat="46.44492492687615" lon="9.778230741433152"><ele>1805.0</ele><time>2026-05-01T12:43:14Z</time></trkpt><trkpt lat="46.44497755959448" lon="9.7785225746308"><ele>1803.0</ele><time>2026-05-01T12:43:15Z</time></trkpt><trkpt lat="46.445044994791644" lon="9.778789777228816"><ele>1801.0</ele><time>2026-05-01T12:43:16Z</time></trkpt><trkpt lat="46.44509911318931" lon="9.779041086991649"><ele>1801.0</ele><time>2026-05-01T12:43:17Z</time></trkpt><trkpt lat="46.44518773557529" lon="9.779238494570883"><ele>1801.0</ele><time>2026-05-01T12:43:18Z</time></trkpt><trkpt lat="46.445313825889336" lon="9.779386167272015"><ele>1801.0</ele><time>2026-05-01T12:43:19Z</time></trkpt><trkpt lat="46.44547555741952" lon="9.779496456842212"><ele>1802.0</ele><time>2026-05-01T12:43:20Z</time></trkpt><trkpt lat="46.44564372390683" lon="9.779623802188734"><ele>1803.0</ele><time>2026-05-01T12:43:21Z</time></trkpt><trkpt lat="46.44580204023012" lon="9.77978076296436"><ele>1804.0</ele><time>2026-05-01T12:43:22Z</time></trkpt><trkpt lat="46.44594825746288" lon="9.7799917220654"><ele>1798.5</ele><time>2026-05-01T12:43:23Z</time></trkpt><trkpt lat="46.446077084927374" lon="9.780257578943088"><ele>1793.0</ele><time>2026-05-01T12:43:24Z</time></trkpt><trkpt lat="46.44621226862945" lon="9.780554316851727"><ele>1796.5</ele><time>2026-05-01T12:43:25Z</time></trkpt><trkpt lat="46.4463661959494" lon="9.780819699260645"><ele>1800.0</ele><time>2026-05-01T12:43:26Z</time></trkpt><trkpt lat="46.44653012661212" lon="9.781072943557454"><ele>1800.0</ele><time>2026-05-01T12:43:27Z</time></trkpt><trkpt lat="46.44669745851012" lon="9.781300579573484"><ele>1800.0</ele><time>2026-05-01T12:43:28Z</time></trkpt><trkpt lat="46.44685555004191" lon="9.781515088555745"><ele>1800.0</ele><time>2026-05-01T12:43:29Z</time></trkpt><trkpt lat="46.44701829517614" lon="9.781696285954704"><ele>1801.0</ele><time>2026-05-01T12:43:30Z</time></trkpt><trkpt lat="46.44718477479607" lon="9.781828871593927"><ele>1802.0</ele><time>2026-05-01T12:43:31Z</time></trkpt><trkpt lat="46.44733959249118" lon="9.78194991167507"><ele>1803.0</ele><time>2026-05-01T12:43:32Z</time></trkpt><trkpt lat="46.4474397243635" lon="9.782111262471942"><ele>1803.0</ele><time>2026-05-01T12:43:33Z</time></trkpt><trkpt lat="46.447526937157484" lon="9.782273892721816"><ele>1803.0</ele><time>2026-05-01T12:43:34Z</time></trkpt><trkpt lat="46.44757323153548" lon="9.782467718223444"><ele>1803.0</ele><time>2026-05-01T12:43:35Z</time></trkpt><trkpt lat="46.44760996266208" lon="9.78265799313979"><ele>1803.0</ele><time>2026-05-01T12:43:36Z</time></trkpt><trkpt lat="46.447654761347245" lon="9.782845027680336"><ele>1801.25</ele><time>2026-05-01T12:43:37Z</time></trkpt><trkpt lat="46.447727004828444" lon="9.782993196391235"><ele>1799.5</ele><time>2026-05-01T12:43:38Z</time></trkpt><trkpt lat="46.447808166522336" lon="9.783162775772137"><ele>1797.75</ele><time>2026-05-01T12:43:39Z</time></trkpt><trkpt lat="46.44790845037013" lon="9.783291700253333"><ele>1796.0</ele><time>2026-05-01T12:43:40Z</time></trkpt><trkpt lat="46.448024513278675" lon="9.783402861492007"><ele>1796.0</ele><time>2026-05-01T12:43:40.999Z</time></trkpt><trkpt lat="46.448161310899344" lon="9.783473318990698"><ele>1796.0</ele><time>2026-05-01T12:43:41.999Z</time></trkpt><trkpt lat="46.44830921041242" lon="9.78355899951737"><ele>1796.0</ele><time>2026-05-01T12:43:42.999Z</time></trkpt><trkpt lat="46.44843558198311" lon="9.783686645223488"><ele>1796.0</ele><time>2026-05-01T12:43:43.999Z</time></trkpt><trkpt lat="46.44856123361265" lon="9.783802243483278"><ele>1796.0</ele><time>2026-05-01T12:43:44.999Z</time></trkpt><trkpt lat="46.44868490365398" lon="9.783897083969277"><ele>1796.0</ele><time>2026-05-01T12:43:45.999Z</time></trkpt><trkpt lat="46.4488057740556" lon="9.783954179156417"><ele>1796.0</ele><time>2026-05-01T12:43:46.999Z</time></trkpt><trkpt lat="46.44892561632178" lon="9.784014381687909"><ele>1799.25</ele><time>2026-05-01T12:43:47.999Z</time></trkpt><trkpt lat="46.44903923141234" lon="9.78411385066892"><ele>1802.5</ele><time>2026-05-01T12:43:48.999Z</time></trkpt><trkpt lat="46.44916089221728" lon="9.784165178867285"><ele>1805.75</ele><time>2026-05-01T12:43:49.999Z</time></trkpt><trkpt lat="46.44928175525706" lon="9.7842323796582"><ele>1809.0</ele><time>2026-05-01T12:43:50.999Z</time></trkpt><trkpt lat="46.449396967242386" lon="9.784311049649602"><ele>1808.5</ele><time>2026-05-01T12:43:51.999Z</time></trkpt><trkpt lat="46.4495066025875" lon="9.784406313081343"><ele>1808.0</ele><time>2026-05-01T12:43:52.999Z</time></trkpt><trkpt lat="46.44960888292636" lon="9.784520310746165"><ele>1807.5</ele><time>2026-05-01T12:43:53.999Z</time></trkpt><trkpt lat="46.44969846562305" lon="9.784657678335135"><ele>1807.0</ele><time>2026-05-01T12:43:54.999Z</time></trkpt><trkpt lat="46.44979430240422" lon="9.784787308292957"><ele>1807.0</ele><time>2026-05-01T12:43:55.999Z</time></trkpt><trkpt lat="46.44988006533693" lon="9.78492026394243"><ele>1807.0</ele><time>2026-05-01T12:43:56.999Z</time></trkpt><trkpt lat="46.44996686668154" lon="9.785063328191798"><ele>1807.0</ele><time>2026-05-01T12:43:57.999Z</time></trkpt><trkpt lat="46.45007941520351" lon="9.785168849733084"><ele>1807.0</ele><time>2026-05-01T12:43:58.999Z</time></trkpt><trkpt lat="46.450209291943644" lon="9.78528150534677"><ele>1805.6666666666667</ele><time>2026-05-01T12:43:59.999Z</time></trkpt><trkpt lat="46.450354516981605" lon="9.785386430295596"><ele>1804.3333333333335</ele><time>2026-05-01T12:44:00.999Z</time></trkpt><trkpt lat="46.45051210979377" lon="9.785515923724256"><ele>1803.0</ele><time>2026-05-01T12:44:01.999Z</time></trkpt><trkpt lat="46.450655376700695" lon="9.785620290958612"><ele>1803.0</ele><time>2026-05-01T12:44:02.999Z</time></trkpt><trkpt lat="46.4507805901242" lon="9.785737703712554"><ele>1803.0</ele><time>2026-05-01T12:44:03.999Z</time></trkpt><trkpt lat="46.45090204225124" lon="9.785830511198714"><ele>1803.0</ele><time>2026-05-01T12:44:04.999Z</time></trkpt><trkpt lat="46.45102772324456" lon="9.78592610204401"><ele>1803.0</ele><time>2026-05-01T12:44:05.999Z</time></trkpt><trkpt lat="46.45114978310171" lon="9.786018938668189"><ele>1803.5</ele><time>2026-05-01T12:44:06.999Z</time></trkpt><trkpt lat="46.451268697686366" lon="9.786109383121303"><ele>1804.0</ele><time>2026-05-01T12:44:07.999Z</time></trkpt><trkpt lat="46.45138171681094" lon="9.786200262214962"><ele>1804.5</ele><time>2026-05-01T12:44:08.999Z</time></trkpt><trkpt lat="46.45148897072266" lon="9.786304090261844"><ele>1805.0</ele><time>2026-05-01T12:44:09.999Z</time></trkpt><trkpt lat="46.451592816576074" lon="9.78642565965475"><ele>1805.0</ele><time>2026-05-01T12:44:10.999Z</time></trkpt><trkpt lat="46.45170504514203" lon="9.786547295478075"><ele>1805.0</ele><time>2026-05-01T12:44:11.999Z</time></trkpt><trkpt lat="46.4518281541981" lon="9.786653392130287"><ele>1805.0</ele><time>2026-05-01T12:44:12.999Z</time></trkpt><trkpt lat="46.45194960019283" lon="9.786782819468625"><ele>1805.0</ele><time>2026-05-01T12:44:13.999Z</time></trkpt><trkpt lat="46.45206239829575" lon="9.786933314557063"><ele>1807.0</ele><time>2026-05-01T12:44:14.999Z</time></trkpt><trkpt lat="46.452193939256546" lon="9.787062663720617"><ele>1809.0</ele><time>2026-05-01T12:44:15.999Z</time></trkpt><trkpt lat="46.45233509119599" lon="9.78720506031767"><ele>1811.0</ele><time>2026-05-01T12:44:16.999Z</time></trkpt><trkpt lat="46.45244813741886" lon="9.787349050320573"><ele>1811.0</ele><time>2026-05-01T12:44:17.999Z</time></trkpt><trkpt lat="46.45257586824235" lon="9.787475579317785"><ele>1811.0</ele><time>2026-05-01T12:44:18.999Z</time></trkpt><trkpt lat="46.45268918146816" lon="9.7876115691407"><ele>1811.0</ele><time>2026-05-01T12:44:19.999Z</time></trkpt><trkpt lat="46.45278991695404" lon="9.78773667971302"><ele>1811.0</ele><time>2026-05-01T12:44:20.999Z</time></trkpt><trkpt lat="46.45288879631395" lon="9.787846035695546"><ele>1810.5</ele><time>2026-05-01T12:44:21.999Z</time></trkpt><trkpt lat="46.45299301438331" lon="9.787948849203303"><ele>1810.0</ele><time>2026-05-01T12:44:22.999Z</time></trkpt><trkpt lat="46.4531065407082" lon="9.788047002106184"><ele>1809.5</ele><time>2026-05-01T12:44:23.999Z</time></trkpt><trkpt lat="46.45322205915335" lon="9.788142069175025"><ele>1809.0</ele><time>2026-05-01T12:44:24.999Z</time></trkpt><trkpt lat="46.45334499486723" lon="9.788240159974865"><ele>1809.0</ele><time>2026-05-01T12:44:25.999Z</time></trkpt><trkpt lat="46.45347122394843" lon="9.788340523160649"><ele>1809.0</ele><time>2026-05-01T12:44:26.999Z</time></trkpt><trkpt lat="46.45360958489923" lon="9.788472006873583"><ele>1809.0</ele><time>2026-05-01T12:44:27.999Z</time></trkpt><trkpt lat="46.453755237792016" lon="9.788600425189458"><ele>1808.0</ele><time>2026-05-01T12:44:28.999Z</time></trkpt><trkpt lat="46.45390182064975" lon="9.788733002016677"><ele>1807.0</ele><time>2026-05-01T12:44:29.999Z</time></trkpt><trkpt lat="46.45405416779686" lon="9.788860425876345"><ele>1806.0</ele><time>2026-05-01T12:44:30.999Z</time></trkpt><trkpt lat="46.45419493786167" lon="9.78898215391613"><ele>1806.0</ele><time>2026-05-01T12:44:31.999Z</time></trkpt><trkpt lat="46.45432844704076" lon="9.789095410402771"><ele>1806.0</ele><time>2026-05-01T12:44:32.999Z</time></trkpt><trkpt lat="46.454444625708156" lon="9.78918702606852"><ele>1806.0</ele><time>2026-05-01T12:44:33.999Z</time></trkpt><trkpt lat="46.45450973941206" lon="9.789282314269864"><ele>1806.0</ele><time>2026-05-01T12:44:34.999Z</time></trkpt><trkpt lat="46.45459202571952" lon="9.7893880735757"><ele>1805.0</ele><time>2026-05-01T12:44:35.999Z</time></trkpt><trkpt lat="46.45472455629976" lon="9.789562121623039"><ele>1804.0</ele><time>2026-05-01T12:44:36.999Z</time></trkpt><trkpt lat="46.454848087953444" lon="9.78968253589174"><ele>1803.0</ele><time>2026-05-01T12:44:37.999Z</time></trkpt><trkpt lat="46.45495546638791" lon="9.78975300884506"><ele>1802.0</ele><time>2026-05-01T12:44:38.999Z</time></trkpt><trkpt lat="46.455063135185746" lon="9.789832213252902"><ele>1802.0</ele><time>2026-05-01T12:44:39.999Z</time></trkpt><trkpt lat="46.455172830147305" lon="9.789904582610836"><ele>1802.0</ele><time>2026-05-01T12:44:40.999Z</time></trkpt><trkpt lat="46.45527361383603" lon="9.790001372234428"><ele>1802.0</ele><time>2026-05-01T12:44:41.999Z</time></trkpt><trkpt lat="46.45537869908105" lon="9.790110651420111"><ele>1802.0</ele><time>2026-05-01T12:44:42.999Z</time></trkpt><trkpt lat="46.4554804646295" lon="9.790219710332495"><ele>1801.6</ele><time>2026-05-01T12:44:44Z</time></trkpt><trkpt lat="46.45557189580381" lon="9.790331377066321"><ele>1801.1999999999998</ele><time>2026-05-01T12:44:45Z</time></trkpt><trkpt lat="46.455650639360236" lon="9.790434831394286"><ele>1800.8</ele><time>2026-05-01T12:44:46Z</time></trkpt><trkpt lat="46.45570800137715" lon="9.790554096112617"><ele>1800.4</ele><time>2026-05-01T12:44:47Z</time></trkpt><trkpt lat="46.45578485534959" lon="9.790635390961999"><ele>1800.0</ele><time>2026-05-01T12:44:48Z</time></trkpt><trkpt lat="46.4558478430999" lon="9.790727540610442"><ele>1800.0</ele><time>2026-05-01T12:44:49Z</time></trkpt><trkpt lat="46.45591564290615" lon="9.790835246144217"><ele>1800.0</ele><time>2026-05-01T12:44:50Z</time></trkpt><trkpt lat="46.455992126218" lon="9.79095032985469"><ele>1800.0</ele><time>2026-05-01T12:44:51Z</time></trkpt><trkpt lat="46.45607186082401" lon="9.791066405789746"><ele>1800.0</ele><time>2026-05-01T12:44:52Z</time></trkpt><trkpt lat="46.456120263239306" lon="9.79118931535014"><ele>1800.0</ele><time>2026-05-01T12:44:53Z</time></trkpt><trkpt lat="46.456168397863294" lon="9.791270857208282"><ele>1799.6666666666667</ele><time>2026-05-01T12:44:54Z</time></trkpt><trkpt lat="46.45620642915059" lon="9.791344686011305"><ele>1799.3333333333335</ele><time>2026-05-01T12:44:55Z</time></trkpt><trkpt lat="46.45626279132881" lon="9.791489262796617"><ele>1799.0</ele><time>2026-05-01T12:44:57Z</time></trkpt><trkpt lat="46.45628638118934" lon="9.791606061432072"><ele>1798.6666666666667</ele><time>2026-05-01T12:44:59Z</time></trkpt><trkpt lat="46.45628654845158" lon="9.791768716363597"><ele>1798.3333333333335</ele><time>2026-05-01T12:45:01Z</time></trkpt><trkpt lat="46.456303809202986" lon="9.791862724856438"><ele>1798.0</ele><time>2026-05-01T12:45:02Z</time></trkpt><trkpt lat="46.45635721134592" lon="9.791949382691497"><ele>1799.0</ele><time>2026-05-01T12:45:03Z</time></trkpt><trkpt lat="46.456421177118365" lon="9.792043538563354"><ele>1800.0000000000002</ele><time>2026-05-01T12:45:04Z</time></trkpt><trkpt lat="46.456462439350624" lon="9.792177995368096"><ele>1801.0000000000002</ele><time>2026-05-01T12:45:05Z</time></trkpt><trkpt lat="46.456492670510855" lon="9.79234487375861"><ele>1802.0</ele><time>2026-05-01T12:45:06Z</time></trkpt><trkpt lat="46.456516054203995" lon="9.792502606830634"><ele>1803.0</ele><time>2026-05-01T12:45:07Z</time></trkpt><trkpt lat="46.45654176148282" lon="9.792670798712022"><ele>1803.25</ele><time>2026-05-01T12:45:08Z</time></trkpt><trkpt lat="46.456565238388094" lon="9.792843307862087"><ele>1803.5</ele><time>2026-05-01T12:45:09Z</time></trkpt><trkpt lat="46.45660145289641" lon="9.793043500744302"><ele>1803.75</ele><time>2026-05-01T12:45:10Z</time></trkpt><trkpt lat="46.456639528147676" lon="9.793246137022896"><ele>1804.0</ele><time>2026-05-01T12:45:11Z</time></trkpt><trkpt lat="46.45667465785364" lon="9.793450045340371"><ele>1803.5</ele><time>2026-05-01T12:45:12Z</time></trkpt><trkpt lat="46.456707104503415" lon="9.793648121111216"><ele>1803.0</ele><time>2026-05-01T12:45:13Z</time></trkpt><trkpt lat="46.45673868139326" lon="9.793829453051147"><ele>1802.5</ele><time>2026-05-01T12:45:14Z</time></trkpt><trkpt lat="46.456770835022375" lon="9.794006352351262"><ele>1802.0</ele><time>2026-05-01T12:45:15Z</time></trkpt><trkpt lat="46.456805069968375" lon="9.794182309463805"><ele>1801.25</ele><time>2026-05-01T12:45:16Z</time></trkpt><trkpt lat="46.45682846149228" lon="9.794377850877755"><ele>1800.5</ele><time>2026-05-01T12:45:17Z</time></trkpt><trkpt lat="46.45686833472903" lon="9.79457437756542"><ele>1799.75</ele><time>2026-05-01T12:45:18Z</time></trkpt><trkpt lat="46.45691005050022" lon="9.794770404142731"><ele>1799.0</ele><time>2026-05-01T12:45:19Z</time></trkpt><trkpt lat="46.45696029538415" lon="9.794974849843555"><ele>1799.25</ele><time>2026-05-01T12:45:20Z</time></trkpt><trkpt lat="46.45702710311116" lon="9.795176725106451"><ele>1799.5</ele><time>2026-05-01T12:45:21Z</time></trkpt><trkpt lat="46.45708756581721" lon="9.795378874613533"><ele>1799.75</ele><time>2026-05-01T12:45:22Z</time></trkpt><trkpt lat="46.457142421692524" lon="9.795567521223468"><ele>1800.0</ele><time>2026-05-01T12:45:23Z</time></trkpt><trkpt lat="46.45721034318939" lon="9.79575135408105"><ele>1801.25</ele><time>2026-05-01T12:45:24Z</time></trkpt><trkpt lat="46.45728717434786" lon="9.795940588667177"><ele>1802.5</ele><time>2026-05-01T12:45:25Z</time></trkpt><trkpt lat="46.45736182245486" lon="9.796108883115997"><ele>1803.75</ele><time>2026-05-01T12:45:26Z</time></trkpt><trkpt lat="46.45745339628539" lon="9.796283266265629"><ele>1805.0</ele><time>2026-05-01T12:45:27Z</time></trkpt><trkpt lat="46.4575416437728" lon="9.796452260559118"><ele>1805.0</ele><time>2026-05-01T12:45:28Z</time></trkpt><trkpt lat="46.45763457942291" lon="9.79661388578675"><ele>1805.0</ele><time>2026-05-01T12:45:29Z</time></trkpt><trkpt lat="46.45773356653895" lon="9.796767587470056"><ele>1805.0</ele><time>2026-05-01T12:45:30Z</time></trkpt><trkpt lat="46.45778707088294" lon="9.796896816996309"><ele>1805.0</ele><time>2026-05-01T12:45:31Z</time></trkpt><trkpt lat="46.45786293477135" lon="9.79701353218572"><ele>1804.5</ele><time>2026-05-01T12:45:32Z</time></trkpt><trkpt lat="46.45793562155658" lon="9.797122939363854"><ele>1804.0</ele><time>2026-05-01T12:45:34Z</time></trkpt><trkpt lat="46.45835689968141" lon="9.797484664040141"><ele>1804.0</ele><time>2026-05-01T12:45:35Z</time></trkpt><trkpt lat="46.45847538466016" lon="9.797615387858356"><ele>1804.0</ele><time>2026-05-01T12:45:36Z</time></trkpt><trkpt lat="46.45861486186675" lon="9.79771386480467"><ele>1804.0</ele><time>2026-05-01T12:45:37Z</time></trkpt><trkpt lat="46.458749155092164" lon="9.797800572424322"><ele>1803.5</ele><time>2026-05-01T12:45:38Z</time></trkpt><trkpt lat="46.458884218919685" lon="9.797873987011867"><ele>1803.0</ele><time>2026-05-01T12:45:39Z</time></trkpt><trkpt lat="46.4590163458479" lon="9.797931669273243"><ele>1802.5</ele><time>2026-05-01T12:45:40Z</time></trkpt><trkpt lat="46.45914364708225" lon="9.797977583342083"><ele>1802.0</ele><time>2026-05-01T12:45:41Z</time></trkpt><trkpt lat="46.459270704808766" lon="9.798014548135528"><ele>1802.0</ele><time>2026-05-01T12:45:42Z</time></trkpt><trkpt lat="46.459395397588075" lon="9.798034571669202"><ele>1802.0</ele><time>2026-05-01T12:45:42.999Z</time></trkpt><trkpt lat="46.45951769673628" lon="9.79803995807564"><ele>1802.0</ele><time>2026-05-01T12:45:43.999Z</time></trkpt><trkpt lat="46.45963041961571" lon="9.798047264746865"><ele>1802.0</ele><time>2026-05-01T12:45:44.999Z</time></trkpt><trkpt lat="46.45972850076187" lon="9.798055046713976"><ele>1801.4999999999998</ele><time>2026-05-01T12:45:45.999Z</time></trkpt><trkpt lat="46.45980558513796" lon="9.798072716714517"><ele>1801.0</ele><time>2026-05-01T12:45:46.999Z</time></trkpt><trkpt lat="46.45987356310386" lon="9.7980781535809"><ele>1800.5</ele><time>2026-05-01T12:45:47.999Z</time></trkpt><trkpt lat="46.45993860069647" lon="9.798095990696515"><ele>1800.0</ele><time>2026-05-01T12:45:48.999Z</time></trkpt><trkpt lat="46.46003991899015" lon="9.79817334038299"><ele>1799.4999999999998</ele><time>2026-05-01T12:45:50.999Z</time></trkpt><trkpt lat="46.46009829599932" lon="9.79827429316548"><ele>1799.0</ele><time>2026-05-01T12:45:52.999Z</time></trkpt><trkpt lat="46.4601719845923" lon="9.798238934436123"><ele>1799.0</ele><time>2026-05-01T12:45:53.999Z</time></trkpt><trkpt lat="46.4602826063869" lon="9.798154076286469"><ele>1799.0</ele><time>2026-05-01T12:45:55.999Z</time></trkpt><trkpt lat="46.460344087530494" lon="9.79807050429966"><ele>1799.0</ele><time>2026-05-01T12:45:56.999Z</time></trkpt><trkpt lat="46.460441013454755" lon="9.798020641066424"><ele>1799.0</ele><time>2026-05-01T12:45:57.999Z</time></trkpt><trkpt lat="46.460551862745476" lon="9.798033870073482"><ele>1799.0</ele><time>2026-05-01T12:45:58.999Z</time></trkpt><trkpt lat="46.46064348083861" lon="9.79801080905398"><ele>1798.75</ele><time>2026-05-01T12:45:59.999Z</time></trkpt><trkpt lat="46.46074648439462" lon="9.797984882197676"><ele>1798.5</ele><time>2026-05-01T12:46:00.999Z</time></trkpt><trkpt lat="46.460862816524866" lon="9.797930368342076"><ele>1798.25</ele><time>2026-05-01T12:46:01.999Z</time></trkpt><trkpt lat="46.46099979903006" lon="9.79790124654368"><ele>1798.0</ele><time>2026-05-01T12:46:02.999Z</time></trkpt><trkpt lat="46.46114145701158" lon="9.797860953830671"><ele>1798.0</ele><time>2026-05-01T12:46:03.999Z</time></trkpt><trkpt lat="46.46128096636615" lon="9.797819014920398"><ele>1798.0</ele><time>2026-05-01T12:46:04.999Z</time></trkpt><trkpt lat="46.46141208861912" lon="9.797778270105761"><ele>1798.0</ele><time>2026-05-01T12:46:05.999Z</time></trkpt><trkpt lat="46.46153880276451" lon="9.797738799413182"><ele>1798.0</ele><time>2026-05-01T12:46:06.999Z</time></trkpt><trkpt lat="46.46167176610692" lon="9.797694650601821"><ele>1798.75</ele><time>2026-05-01T12:46:07.999Z</time></trkpt><trkpt lat="46.46180945844126" lon="9.79764785893629"><ele>1799.5</ele><time>2026-05-01T12:46:08.999Z</time></trkpt><trkpt lat="46.46194658959044" lon="9.797601191050438"><ele>1800.25</ele><time>2026-05-01T12:46:09.999Z</time></trkpt><trkpt lat="46.46208319907477" lon="9.79755630628173"><ele>1801.0</ele><time>2026-05-01T12:46:10.999Z</time></trkpt><trkpt lat="46.46221252902696" lon="9.797523441026874"><ele>1801.0</ele><time>2026-05-01T12:46:11.999Z</time></trkpt><trkpt lat="46.46234382030049" lon="9.797492044531362"><ele>1801.0</ele><time>2026-05-01T12:46:12.999Z</time></trkpt><trkpt lat="46.4624781005167" lon="9.79746246274827"><ele>1801.0</ele><time>2026-05-01T12:46:13.999Z</time></trkpt><trkpt lat="46.462617335766325" lon="9.797437756105579"><ele>1801.0</ele><time>2026-05-01T12:46:14.999Z</time></trkpt><trkpt lat="46.46276172653507" lon="9.797418959757179"><ele>1801.0</ele><time>2026-05-01T12:46:15.999Z</time></trkpt><trkpt lat="46.462899961464494" lon="9.79741341514452"><ele>1801.0</ele><time>2026-05-01T12:46:16.999Z</time></trkpt><trkpt lat="46.46304373624167" lon="9.79741383733942"><ele>1801.0</ele><time>2026-05-01T12:46:17.999Z</time></trkpt><trkpt lat="46.46319262543972" lon="9.797422884721335"><ele>1801.0</ele><time>2026-05-01T12:46:18.999Z</time></trkpt><trkpt lat="46.4633467326761" lon="9.797440650733023"><ele>1801.0</ele><time>2026-05-01T12:46:19.999Z</time></trkpt><trkpt lat="46.46348799792587" lon="9.797463769116254"><ele>1801.0</ele><time>2026-05-01T12:46:20.999Z</time></trkpt><trkpt lat="46.46355308084427" lon="9.79753310929464"><ele>1801.0</ele><time>2026-05-01T12:46:21.999Z</time></trkpt><trkpt lat="46.46360459851436" lon="9.797615132876908"><ele>1801.0</ele><time>2026-05-01T12:46:22.999Z</time></trkpt><trkpt lat="46.46370613756183" lon="9.797620400759177"><ele>1801.0</ele><time>2026-05-01T12:46:23.999Z</time></trkpt><trkpt lat="46.46391884226978" lon="9.797692008572277"><ele>1796.0</ele><time>2026-05-01T12:46:24.999Z</time></trkpt><trkpt lat="46.46428141451531" lon="9.797842005385109"><ele>1791.0</ele><time>2026-05-01T12:46:25.999Z</time></trkpt><trkpt lat="46.46452547269016" lon="9.797877226453249"><ele>1794.0</ele><time>2026-05-01T12:46:26.999Z</time></trkpt><trkpt lat="46.46471268703908" lon="9.798033744829814"><ele>1797.0</ele><time>2026-05-01T12:46:27.999Z</time></trkpt><trkpt lat="46.46485297187911" lon="9.798089599269716"><ele>1800.0</ele><time>2026-05-01T12:46:28.999Z</time></trkpt><trkpt lat="46.46501913470648" lon="9.798164172981643"><ele>1800.0</ele><time>2026-05-01T12:46:29.999Z</time></trkpt><trkpt lat="46.46517856919382" lon="9.798235205672734"><ele>1800.0</ele><time>2026-05-01T12:46:30.999Z</time></trkpt><trkpt lat="46.46533350176377" lon="9.798305185241317"><ele>1800.0</ele><time>2026-05-01T12:46:31.999Z</time></trkpt><trkpt lat="46.465492633341206" lon="9.798384092554576"><ele>1798.6666666666665</ele><time>2026-05-01T12:46:32.999Z</time></trkpt><trkpt lat="46.4656551976888" lon="9.798463585222441"><ele>1797.3333333333333</ele><time>2026-05-01T12:46:33.999Z</time></trkpt><trkpt lat="46.465804959839616" lon="9.798581479851329"><ele>1796.0</ele><time>2026-05-01T12:46:34.999Z</time></trkpt><trkpt lat="46.46594165552394" lon="9.79871990796144"><ele>1796.0</ele><time>2026-05-01T12:46:35.999Z</time></trkpt><trkpt lat="46.4660781362258" lon="9.798862129189349"><ele>1796.0</ele><time>2026-05-01T12:46:36.999Z</time></trkpt><trkpt lat="46.46620402102358" lon="9.79903455159105"><ele>1796.0</ele><time>2026-05-01T12:46:37.999Z</time></trkpt><trkpt lat="46.46630902246751" lon="9.799234997232823"><ele>1797.3333333333333</ele><time>2026-05-01T12:46:38.999Z</time></trkpt><trkpt lat="46.46641651350531" lon="9.799447136260165"><ele>1798.6666666666665</ele><time>2026-05-01T12:46:39.999Z</time></trkpt><trkpt lat="46.46650351309421" lon="9.79966700487487"><ele>1800.0</ele><time>2026-05-01T12:46:40.999Z</time></trkpt><trkpt lat="46.46658646702909" lon="9.799876192908155"><ele>1800.0</ele><time>2026-05-01T12:46:41.999Z</time></trkpt><trkpt lat="46.466654915946634" lon="9.80011285675411"><ele>1800.0</ele><time>2026-05-01T12:46:42.999Z</time></trkpt><trkpt lat="46.46672336387086" lon="9.800324923169798"><ele>1800.0</ele><time>2026-05-01T12:46:43.999Z</time></trkpt><trkpt lat="46.466790414036936" lon="9.800523242473204"><ele>1799.25</ele><time>2026-05-01T12:46:44.999Z</time></trkpt><trkpt lat="46.466847499768065" lon="9.800699351419578"><ele>1798.5</ele><time>2026-05-01T12:46:45.999Z</time></trkpt><trkpt lat="46.46687423855563" lon="9.80087345920251"><ele>1797.75</ele><time>2026-05-01T12:46:46.999Z</time></trkpt><trkpt lat="46.467001123518244" lon="9.801080043160379"><ele>1797.0</ele><time>2026-05-01T12:46:47.999Z</time></trkpt><trkpt lat="46.467096976894645" lon="9.801265146574304"><ele>1798.6666666666665</ele><time>2026-05-01T12:46:48.999Z</time></trkpt><trkpt lat="46.467204663889774" lon="9.80143253455978"><ele>1800.3333333333333</ele><time>2026-05-01T12:46:50Z</time></trkpt><trkpt lat="46.46731709866483" lon="9.80157219063615"><ele>1802.0</ele><time>2026-05-01T12:46:51Z</time></trkpt><trkpt lat="46.46743872828665" lon="9.801684470493642"><ele>1802.0</ele><time>2026-05-01T12:46:52Z</time></trkpt><trkpt lat="46.46756284500851" lon="9.80175517664931"><ele>1801.9999999999998</ele><time>2026-05-01T12:46:53Z</time></trkpt><trkpt lat="46.4676697743551" lon="9.80181315809465"><ele>1801.9999999999998</ele><time>2026-05-01T12:46:54Z</time></trkpt><trkpt lat="46.467761367277134" lon="9.801855737071746"><ele>1802.0</ele><time>2026-05-01T12:46:55Z</time></trkpt><trkpt lat="46.467848155391394" lon="9.801885561734384"><ele>1802.0</ele><time>2026-05-01T12:46:56Z</time></trkpt><trkpt lat="46.46792668599107" lon="9.801913630105247"><ele>1801.1666666666665</ele><time>2026-05-01T12:46:57Z</time></trkpt><trkpt lat="46.4679969891808" lon="9.80193479905638"><ele>1800.3333333333333</ele><time>2026-05-01T12:46:58Z</time></trkpt><trkpt lat="46.468114194619936" lon="9.801980367048694"><ele>1799.5</ele><time>2026-05-01T12:47:00Z</time></trkpt><trkpt lat="46.46817410995365" lon="9.80203246114132"><ele>1798.6666666666665</ele><time>2026-05-01T12:47:01Z</time></trkpt><trkpt lat="46.46823848796868" lon="9.80209427678711"><ele>1797.8333333333333</ele><time>2026-05-01T12:47:02Z</time></trkpt><trkpt lat="46.468317686941084" lon="9.802128429646427"><ele>1797.0</ele><time>2026-05-01T12:47:03Z</time></trkpt><trkpt lat="46.46841312516084" lon="9.802115396390246"><ele>1797.0</ele><time>2026-05-01T12:47:04Z</time></trkpt><trkpt lat="46.46851591407818" lon="9.802099903192394"><ele>1797.0</ele><time>2026-05-01T12:47:05Z</time></trkpt><trkpt lat="46.46862930057156" lon="9.802116261310402"><ele>1797.0</ele><time>2026-05-01T12:47:06Z</time></trkpt><trkpt lat="46.46875652724272" lon="9.802152131663807"><ele>1797.0</ele><time>2026-05-01T12:47:07Z</time></trkpt><trkpt lat="46.46887354205419" lon="9.80218886540752"><ele>1798.0</ele><time>2026-05-01T12:47:08Z</time></trkpt><trkpt lat="46.46900659870762" lon="9.80222483594776"><ele>1799.0</ele><time>2026-05-01T12:47:09Z</time></trkpt><trkpt lat="46.46914106772345" lon="9.802270568341857"><ele>1800.0</ele><time>2026-05-01T12:47:10Z</time></trkpt><trkpt lat="46.46927414494451" lon="9.802313195432331"><ele>1801.0</ele><time>2026-05-01T12:47:11Z</time></trkpt><trkpt lat="46.46941251862003" lon="9.802352945104857"><ele>1801.0</ele><time>2026-05-01T12:47:12Z</time></trkpt><trkpt lat="46.46957181942851" lon="9.80239993604483"><ele>1801.0</ele><time>2026-05-01T12:47:13Z</time></trkpt><trkpt lat="46.469744725685764" lon="9.802471243623575"><ele>1801.0</ele><time>2026-05-01T12:47:14Z</time></trkpt><trkpt lat="46.46993635265563" lon="9.802581233100119"><ele>1798.3333333333335</ele><time>2026-05-01T12:47:15Z</time></trkpt><trkpt lat="46.470066532828724" lon="9.802609965862848"><ele>1795.6666666666665</ele><time>2026-05-01T12:47:16Z</time></trkpt><trkpt lat="46.47022818255371" lon="9.802706794496455"><ele>1793.0</ele><time>2026-05-01T12:47:17Z</time></trkpt><trkpt lat="46.470391969968695" lon="9.802798007310008"><ele>1795.3333333333333</ele><time>2026-05-01T12:47:18Z</time></trkpt><trkpt lat="46.47055190072504" lon="9.80290466595053"><ele>1797.6666666666665</ele><time>2026-05-01T12:47:19Z</time></trkpt><trkpt lat="46.47070713350151" lon="9.803029045442534"><ele>1800.0</ele><time>2026-05-01T12:47:20Z</time></trkpt><trkpt lat="46.47084485582768" lon="9.803170480038911"><ele>1800.0</ele><time>2026-05-01T12:47:21Z</time></trkpt><trkpt lat="46.4709818626787" lon="9.803340833434898"><ele>1800.0</ele><time>2026-05-01T12:47:22Z</time></trkpt><trkpt lat="46.47112378634148" lon="9.803511839283452"><ele>1800.0</ele><time>2026-05-01T12:47:23Z</time></trkpt><trkpt lat="46.47123329309394" lon="9.80371885061845"><ele>1798.6666666666665</ele><time>2026-05-01T12:47:24Z</time></trkpt><trkpt lat="46.47132534227255" lon="9.803932503429118"><ele>1797.3333333333333</ele><time>2026-05-01T12:47:25Z</time></trkpt><trkpt lat="46.471412601734855" lon="9.804147450836991"><ele>1796.0</ele><time>2026-05-01T12:47:26Z</time></trkpt><trkpt lat="46.471508286023706" lon="9.804363662032426"><ele>1796.0</ele><time>2026-05-01T12:47:27Z</time></trkpt><trkpt lat="46.4716256544913" lon="9.804558243306333"><ele>1796.0</ele><time>2026-05-01T12:47:28Z</time></trkpt><trkpt lat="46.47175929027606" lon="9.804738111619997"><ele>1796.0</ele><time>2026-05-01T12:47:29Z</time></trkpt><trkpt lat="46.47191075217119" lon="9.804892767540242"><ele>1796.0</ele><time>2026-05-01T12:47:30Z</time></trkpt><trkpt lat="46.472067645908126" lon="9.805040233385263"><ele>1796.0</ele><time>2026-05-01T12:47:31Z</time></trkpt><trkpt lat="46.47222120099664" lon="9.805176178142032"><ele>1796.0</ele><time>2026-05-01T12:47:32Z</time></trkpt><trkpt lat="46.47236576134464" lon="9.805320199087106"><ele>1796.0</ele><time>2026-05-01T12:47:33Z</time></trkpt><trkpt lat="46.472506658009884" lon="9.805469555515728"><ele>1796.0</ele><time>2026-05-01T12:47:34Z</time></trkpt><trkpt lat="46.472639117814644" lon="9.805604647994494"><ele>1796.0</ele><time>2026-05-01T12:47:35Z</time></trkpt><trkpt lat="46.47278099943907" lon="9.805746514866046"><ele>1796.0</ele><time>2026-05-01T12:47:36Z</time></trkpt><trkpt lat="46.47291276774348" lon="9.805893198655204"><ele>1796.0</ele><time>2026-05-01T12:47:37Z</time></trkpt><trkpt lat="46.473031442382116" lon="9.806043143598165"><ele>1796.0</ele><time>2026-05-01T12:47:38Z</time></trkpt><trkpt lat="46.473140929132136" lon="9.80621378383135"><ele>1796.6666666666665</ele><time>2026-05-01T12:47:39Z</time></trkpt><trkpt lat="46.47325121332596" lon="9.8063976474324"><ele>1797.3333333333335</ele><time>2026-05-01T12:47:40Z</time></trkpt><trkpt lat="46.47336023127739" lon="9.806584499666215"><ele>1798.0</ele><time>2026-05-01T12:47:41Z</time></trkpt><trkpt lat="46.4734533246786" lon="9.806777917441503"><ele>1796.0</ele><time>2026-05-01T12:47:42Z</time></trkpt><trkpt lat="46.473537242233405" lon="9.806975139236467"><ele>1794.0</ele><time>2026-05-01T12:47:43Z</time></trkpt><trkpt lat="46.47361266186361" lon="9.807176172243036"><ele>1792.0</ele><time>2026-05-01T12:47:44Z</time></trkpt><trkpt lat="46.473667857665" lon="9.807404123173596"><ele>1792.0</ele><time>2026-05-01T12:47:45Z</time></trkpt><trkpt lat="46.4737281549774" lon="9.807641819465811"><ele>1792.0</ele><time>2026-05-01T12:47:46Z</time></trkpt><trkpt lat="46.47378212797819" lon="9.807873562666384"><ele>1792.0</ele><time>2026-05-01T12:47:47Z</time></trkpt><trkpt lat="46.473834469037755" lon="9.808119572517539"><ele>1792.0</ele><time>2026-05-01T12:47:48Z</time></trkpt><trkpt lat="46.47388227969047" lon="9.808367630381618"><ele>1792.0</ele><time>2026-05-01T12:47:49Z</time></trkpt><trkpt lat="46.47392750001106" lon="9.808606712845807"><ele>1792.0</ele><time>2026-05-01T12:47:50Z</time></trkpt><trkpt lat="46.473972871647554" lon="9.80884571023825"><ele>1792.0</ele><time>2026-05-01T12:47:50.999Z</time></trkpt><trkpt lat="46.474021519682736" lon="9.80909536394359"><ele>1792.0</ele><time>2026-05-01T12:47:51.999Z</time></trkpt><trkpt lat="46.47407190708343" lon="9.809351158104448"><ele>1792.0</ele><time>2026-05-01T12:47:52.999Z</time></trkpt><trkpt lat="46.47412529336457" lon="9.809606039172296"><ele>1791.6666666666667</ele><time>2026-05-01T12:47:53.999Z</time></trkpt><trkpt lat="46.474181988928365" lon="9.809864749178372"><ele>1791.3333333333335</ele><time>2026-05-01T12:47:54.999Z</time></trkpt><trkpt lat="46.474246049933235" lon="9.810133357209905"><ele>1791.0</ele><time>2026-05-01T12:47:55.999Z</time></trkpt><trkpt lat="46.474328934301006" lon="9.810442309405216"><ele>1791.0</ele><time>2026-05-01T12:47:56.999Z</time></trkpt><trkpt lat="46.47440597639293" lon="9.810709896590739"><ele>1791.0</ele><time>2026-05-01T12:47:57.999Z</time></trkpt><trkpt lat="46.47449428302892" lon="9.810933290181424"><ele>1791.0</ele><time>2026-05-01T12:47:58.999Z</time></trkpt><trkpt lat="46.474587255018065" lon="9.811212752051636"><ele>1792.5</ele><time>2026-05-01T12:47:59.999Z</time></trkpt><trkpt lat="46.47467596104778" lon="9.811512116014661"><ele>1794.0</ele><time>2026-05-01T12:48:00.999Z</time></trkpt><trkpt lat="46.47479783483628" lon="9.81183634959412"><ele>1794.0</ele><time>2026-05-01T12:48:01.999Z</time></trkpt><trkpt lat="46.47492359358691" lon="9.8121525548855"><ele>1794.0</ele><time>2026-05-01T12:48:02.999Z</time></trkpt><trkpt lat="46.475050063156424" lon="9.812472924538632"><ele>1792.5</ele><time>2026-05-01T12:48:03.999Z</time></trkpt><trkpt lat="46.47518814305014" lon="9.812770205344737"><ele>1791.0</ele><time>2026-05-01T12:48:04.999Z</time></trkpt><trkpt lat="46.47528889750306" lon="9.813080636185337"><ele>1791.0</ele><time>2026-05-01T12:48:05.999Z</time></trkpt><trkpt lat="46.47539582386809" lon="9.813382765245718"><ele>1791.0</ele><time>2026-05-01T12:48:06.999Z</time></trkpt><trkpt lat="46.47551066434877" lon="9.813691741031924"><ele>1794.0</ele><time>2026-05-01T12:48:07.999Z</time></trkpt><trkpt lat="46.475599465121036" lon="9.814011119109837"><ele>1797.0</ele><time>2026-05-01T12:48:08.999Z</time></trkpt><trkpt lat="46.47568197879905" lon="9.814333749968885"><ele>1798.5</ele><time>2026-05-01T12:48:09.999Z</time></trkpt><trkpt lat="46.47576003726416" lon="9.81465955861068"><ele>1800.0</ele><time>2026-05-01T12:48:10.999Z</time></trkpt><trkpt lat="46.47582976124586" lon="9.814983781961171"><ele>1798.5</ele><time>2026-05-01T12:48:11.999Z</time></trkpt><trkpt lat="46.47589398328949" lon="9.815314938160352"><ele>1797.0</ele><time>2026-05-01T12:48:12.999Z</time></trkpt><trkpt lat="46.475954198834216" lon="9.815647147192143"><ele>1797.0</ele><time>2026-05-01T12:48:13.999Z</time></trkpt><trkpt lat="46.47600952633666" lon="9.815976860328174"><ele>1797.0</ele><time>2026-05-01T12:48:14.999Z</time></trkpt><trkpt lat="46.47606220690488" lon="9.81631086993802"><ele>1796.5</ele><time>2026-05-01T12:48:15.999Z</time></trkpt><trkpt lat="46.47611405238787" lon="9.816641414826822"><ele>1796.0</ele><time>2026-05-01T12:48:16.999Z</time></trkpt><trkpt lat="46.476165137022605" lon="9.816963568462517"><ele>1796.0</ele><time>2026-05-01T12:48:17.999Z</time></trkpt><trkpt lat="46.47621333847345" lon="9.817285114033849"><ele>1796.0</ele><time>2026-05-01T12:48:18.999Z</time></trkpt><trkpt lat="46.47625992757333" lon="9.81759320259686"><ele>1796.0</ele><time>2026-05-01T12:48:19.999Z</time></trkpt><trkpt lat="46.476293862296856" lon="9.817904637773646"><ele>1800.6666666666665</ele><time>2026-05-01T12:48:20.999Z</time></trkpt><trkpt lat="46.47634298307253" lon="9.818209374518764"><ele>1805.3333333333335</ele><time>2026-05-01T12:48:21.999Z</time></trkpt><trkpt lat="46.47639677671885" lon="9.818520020418838"><ele>1810.0</ele><time>2026-05-01T12:48:22.999Z</time></trkpt><trkpt lat="46.476469320725876" lon="9.81882776910616"><ele>1810.0</ele><time>2026-05-01T12:48:23.999Z</time></trkpt><trkpt lat="46.47651574443678" lon="9.819140443158876"><ele>1810.0</ele><time>2026-05-01T12:48:24.999Z</time></trkpt><trkpt lat="46.47658719703371" lon="9.819457113159771"><ele>1807.0</ele><time>2026-05-01T12:48:25.999Z</time></trkpt><trkpt lat="46.4766891527167" lon="9.81976426137446"><ele>1804.0</ele><time>2026-05-01T12:48:26.999Z</time></trkpt><trkpt lat="46.476786193610124" lon="9.820061774464516"><ele>1802.6666666666667</ele><time>2026-05-01T12:48:27.999Z</time></trkpt><trkpt lat="46.476880841301416" lon="9.820356071348801"><ele>1801.3333333333335</ele><time>2026-05-01T12:48:28.999Z</time></trkpt><trkpt lat="46.476995500735875" lon="9.82062900085255"><ele>1800.0</ele><time>2026-05-01T12:48:29.999Z</time></trkpt><trkpt lat="46.47710659021585" lon="9.820889734364041"><ele>1800.0</ele><time>2026-05-01T12:48:30.999Z</time></trkpt><trkpt lat="46.477230791567585" lon="9.821158072520456"><ele>1800.0</ele><time>2026-05-01T12:48:31.999Z</time></trkpt><trkpt lat="46.47735702402257" lon="9.821409913846896"><ele>1800.0</ele><time>2026-05-01T12:48:32.999Z</time></trkpt><trkpt lat="46.477485520544406" lon="9.821654510744825"><ele>1799.6666666666665</ele><time>2026-05-01T12:48:33.999Z</time></trkpt><trkpt lat="46.47761125927543" lon="9.821888438910259"><ele>1799.3333333333333</ele><time>2026-05-01T12:48:34.999Z</time></trkpt><trkpt lat="46.47772139908163" lon="9.822093341139688"><ele>1799.0</ele><time>2026-05-01T12:48:35.999Z</time></trkpt><trkpt lat="46.477820469196146" lon="9.822277649502283"><ele>1799.0</ele><time>2026-05-01T12:48:36.999Z</time></trkpt><trkpt lat="46.477924710192255" lon="9.822457495200794"><ele>1799.0</ele><time>2026-05-01T12:48:37.999Z</time></trkpt><trkpt lat="46.47828022196706" lon="9.822329016044813"><ele>1801.6666666666665</ele><time>2026-05-01T12:48:38.999Z</time></trkpt><trkpt lat="46.47845253168086" lon="9.822390176223614"><ele>1804.3333333333335</ele><time>2026-05-01T12:48:39.999Z</time></trkpt><trkpt lat="46.47859990994255" lon="9.822490986481288"><ele>1807.0</ele><time>2026-05-01T12:48:40.999Z</time></trkpt><trkpt lat="46.478758716300995" lon="9.822566996442468"><ele>1813.6666666666667</ele><time>2026-05-01T12:48:41.999Z</time></trkpt><trkpt lat="46.47894355120863" lon="9.822606748690864"><ele>1820.3333333333335</ele><time>2026-05-01T12:48:42.999Z</time></trkpt><trkpt lat="46.47912120258817" lon="9.8225980361529"><ele>1827.0</ele><time>2026-05-01T12:48:43.999Z</time></trkpt><trkpt lat="46.47927740255951" lon="9.822587062218867"><ele>1827.0</ele><time>2026-05-01T12:48:44.999Z</time></trkpt><trkpt lat="46.47944393923475" lon="9.822611446527548"><ele>1827.0</ele><time>2026-05-01T12:48:45.999Z</time></trkpt><trkpt lat="46.479609374526575" lon="9.822647394740677"><ele>1827.0</ele><time>2026-05-01T12:48:46.999Z</time></trkpt><trkpt lat="46.47975870390529" lon="9.822733024051443"><ele>1797.0</ele><time>2026-05-01T12:48:47.999Z</time></trkpt><trkpt lat="46.479672774244186" lon="9.824861247210002"><ele>1797.0</ele><time>2026-05-01T12:48:49.999Z</time></trkpt><trkpt lat="46.47980514400275" lon="9.825055550734778"><ele>1797.0</ele><time>2026-05-01T12:48:50.999Z</time></trkpt><trkpt lat="46.4799145678986" lon="9.82525473424859"><ele>1797.0</ele><time>2026-05-01T12:48:51.999Z</time></trkpt><trkpt lat="46.48000834603693" lon="9.825463296927376"><ele>1796.0</ele><time>2026-05-01T12:48:52.999Z</time></trkpt><trkpt lat="46.48008817487158" lon="9.825673274087658"><ele>1795.0</ele><time>2026-05-01T12:48:53.999Z</time></trkpt><trkpt lat="46.48015514665781" lon="9.82588840126513"><ele>1794.0</ele><time>2026-05-01T12:48:54.999Z</time></trkpt><trkpt lat="46.48020426222816" lon="9.82609894639793"><ele>1792.25</ele><time>2026-05-01T12:48:56Z</time></trkpt><trkpt lat="46.48024501417005" lon="9.826306593778652"><ele>1790.5</ele><time>2026-05-01T12:48:57Z</time></trkpt><trkpt lat="46.48026401943431" lon="9.82651299286073"><ele>1788.75</ele><time>2026-05-01T12:48:58Z</time></trkpt><trkpt lat="46.48028585946411" lon="9.826702585470876"><ele>1787.0</ele><time>2026-05-01T12:48:59Z</time></trkpt><trkpt lat="46.48030224032726" lon="9.826879705760362"><ele>1785.75</ele><time>2026-05-01T12:49:00Z</time></trkpt><trkpt lat="46.480327888181925" lon="9.827043588395686"><ele>1784.5</ele><time>2026-05-01T12:49:01Z</time></trkpt><trkpt lat="46.48035405292367" lon="9.827202051662196"><ele>1783.25</ele><time>2026-05-01T12:49:02Z</time></trkpt><trkpt lat="46.48038657032062" lon="9.827371201311632"><ele>1782.0</ele><time>2026-05-01T12:49:03Z</time></trkpt><trkpt lat="46.48041938434824" lon="9.827553361532521"><ele>1784.0</ele><time>2026-05-01T12:49:04Z</time></trkpt><trkpt lat="46.480449033654935" lon="9.827733151026584"><ele>1786.0</ele><time>2026-05-01T12:49:05Z</time></trkpt><trkpt lat="46.48047699364058" lon="9.82790984112099"><ele>1788.0</ele><time>2026-05-01T12:49:06Z</time></trkpt><trkpt lat="46.48050477435413" lon="9.82809808765521"><ele>1790.0</ele><time>2026-05-01T12:49:07Z</time></trkpt><trkpt lat="46.48053369640733" lon="9.82829095866552"><ele>1788.0</ele><time>2026-05-01T12:49:08Z</time></trkpt><trkpt lat="46.480563359534344" lon="9.828477157162657"><ele>1786.0</ele><time>2026-05-01T12:49:09Z</time></trkpt><trkpt lat="46.48059270693041" lon="9.828662152137266"><ele>1784.0</ele><time>2026-05-01T12:49:10Z</time></trkpt><trkpt lat="46.48062796606912" lon="9.82884397798864"><ele>1782.0</ele><time>2026-05-01T12:49:11Z</time></trkpt><trkpt lat="46.48066302940841" lon="9.829019126478842"><ele>1782.0</ele><time>2026-05-01T12:49:12Z</time></trkpt><trkpt lat="46.48072277976484" lon="9.829192100957119"><ele>1782.0</ele><time>2026-05-01T12:49:13Z</time></trkpt><trkpt lat="46.480801285847" lon="9.829348533404074"><ele>1782.0</ele><time>2026-05-01T12:49:14Z</time></trkpt><trkpt lat="46.48089207154013" lon="9.829505880485003"><ele>1782.0</ele><time>2026-05-01T12:49:15Z</time></trkpt><trkpt lat="46.48098283762493" lon="9.829662614624917"><ele>1781.5</ele><time>2026-05-01T12:49:16Z</time></trkpt><trkpt lat="46.48105917131371" lon="9.829828639618022"><ele>1781.0</ele><time>2026-05-01T12:49:17Z</time></trkpt><trkpt lat="46.48114557318735" lon="9.82998863592963"><ele>1780.5</ele><time>2026-05-01T12:49:18Z</time></trkpt><trkpt lat="46.48122752725928" lon="9.830158705152815"><ele>1780.0</ele><time>2026-05-01T12:49:19Z</time></trkpt><trkpt lat="46.48131363410899" lon="9.830331648561831"><ele>1779.75</ele><time>2026-05-01T12:49:20Z</time></trkpt><trkpt lat="46.48140430854981" lon="9.830496995826525"><ele>1779.5</ele><time>2026-05-01T12:49:21Z</time></trkpt><trkpt lat="46.48149114287069" lon="9.830657587330654"><ele>1779.25</ele><time>2026-05-01T12:49:22Z</time></trkpt><trkpt lat="46.481567647561334" lon="9.830816030759784"><ele>1779.0</ele><time>2026-05-01T12:49:23Z</time></trkpt><trkpt lat="46.48164178497937" lon="9.830957377544117"><ele>1779.0</ele><time>2026-05-01T12:49:24Z</time></trkpt><trkpt lat="46.4817137951113" lon="9.83107631900608"><ele>1779.0</ele><time>2026-05-01T12:49:25Z</time></trkpt><trkpt lat="46.481776746528325" lon="9.831178675535824"><ele>1779.0</ele><time>2026-05-01T12:49:26Z</time></trkpt><trkpt lat="46.48182304361139" lon="9.831284793924215"><ele>1779.0</ele><time>2026-05-01T12:49:27Z</time></trkpt><trkpt lat="46.48183966340273" lon="9.831397110082742"><ele>1779.0</ele><time>2026-05-01T12:49:28Z</time></trkpt><trkpt lat="46.481863545394695" lon="9.831487305355617"><ele>1779.0</ele><time>2026-05-01T12:49:29Z</time></trkpt><trkpt lat="46.481926766692304" lon="9.83153567503632"><ele>1779.0</ele><time>2026-05-01T12:49:30Z</time></trkpt><trkpt lat="46.48201989613549" lon="9.831575026539339"><ele>1779.0</ele><time>2026-05-01T12:49:31Z</time></trkpt><trkpt lat="46.48210850393455" lon="9.831610899823318"><ele>1779.0</ele><time>2026-05-01T12:49:32Z</time></trkpt><trkpt lat="46.48218547199684" lon="9.831654204210237"><ele>1779.0</ele><time>2026-05-01T12:49:33Z</time></trkpt><trkpt lat="46.482266481567954" lon="9.831737682975183"><ele>1779.0</ele><time>2026-05-01T12:49:34Z</time></trkpt><trkpt lat="46.48234623482396" lon="9.831849683898998"><ele>1778.25</ele><time>2026-05-01T12:49:35Z</time></trkpt><trkpt lat="46.48243760992504" lon="9.831968696175524"><ele>1777.5</ele><time>2026-05-01T12:49:36Z</time></trkpt><trkpt lat="46.4825485239258" lon="9.83209379168436"><ele>1776.75</ele><time>2026-05-01T12:49:37Z</time></trkpt><trkpt lat="46.48267715249034" lon="9.832238913634406"><ele>1776.0</ele><time>2026-05-01T12:49:38Z</time></trkpt><trkpt lat="46.48275670526337" lon="9.832335322230533"><ele>1776.0</ele><time>2026-05-01T12:49:39Z</time></trkpt><trkpt lat="46.48285618763214" lon="9.83245443799955"><ele>1776.0</ele><time>2026-05-01T12:49:40Z</time></trkpt><trkpt lat="46.482971086518845" lon="9.832588339949849"><ele>1776.0</ele><time>2026-05-01T12:49:41Z</time></trkpt><trkpt lat="46.48309100054719" lon="9.832726814696727"><ele>1776.0</ele><time>2026-05-01T12:49:42Z</time></trkpt><trkpt lat="46.483204964998805" lon="9.832860052117594"><ele>1776.0</ele><time>2026-05-01T12:49:43Z</time></trkpt><trkpt lat="46.48330078186906" lon="9.83297885128099"><ele>1776.0</ele><time>2026-05-01T12:49:44Z</time></trkpt><trkpt lat="46.48339161369822" lon="9.833076573069773"><ele>1776.0</ele><time>2026-05-01T12:49:44.999Z</time></trkpt><trkpt lat="46.48346774279826" lon="9.83316444913693"><ele>1776.0</ele><time>2026-05-01T12:49:45.999Z</time></trkpt><trkpt lat="46.48353182033716" lon="9.833240468137518"><ele>1776.0</ele><time>2026-05-01T12:49:46.999Z</time></trkpt><trkpt lat="46.483586112322" lon="9.833307308127983"><ele>1776.0</ele><time>2026-05-01T12:49:47.999Z</time></trkpt><trkpt lat="46.48366024731259" lon="9.833437435452712"><ele>1776.0</ele><time>2026-05-01T12:49:49.999Z</time></trkpt><trkpt lat="46.48372196012561" lon="9.833569880710742"><ele>1776.0</ele><time>2026-05-01T12:49:51.999Z</time></trkpt><trkpt lat="46.48383404301627" lon="9.833638099337314"><ele>1776.0</ele><time>2026-05-01T12:49:53.999Z</time></trkpt><trkpt lat="46.483904885638864" lon="9.833681842215183"><ele>1776.0</ele><time>2026-05-01T12:49:54.999Z</time></trkpt><trkpt lat="46.48398392754437" lon="9.833750860780587"><ele>1775.75</ele><time>2026-05-01T12:49:55.999Z</time></trkpt><trkpt lat="46.48408412036083" lon="9.83385793452979"><ele>1775.5</ele><time>2026-05-01T12:49:56.999Z</time></trkpt><trkpt lat="46.484169498766775" lon="9.833946616095947"><ele>1775.25</ele><time>2026-05-01T12:49:57.999Z</time></trkpt><trkpt lat="46.4842810038352" lon="9.834072095978437"><ele>1775.0</ele><time>2026-05-01T12:49:59.999Z</time></trkpt><trkpt lat="46.48435650960628" lon="9.834143479395685"><ele>1774.9999999999998</ele><time>2026-05-01T12:50:00.999Z</time></trkpt><trkpt lat="46.484436622664546" lon="9.83421701891419"><ele>1775.0</ele><time>2026-05-01T12:50:01.999Z</time></trkpt><trkpt lat="46.48451374959384" lon="9.834293323035526"><ele>1775.0</ele><time>2026-05-01T12:50:02.999Z</time></trkpt><trkpt lat="46.48458486114975" lon="9.834365740852194"><ele>1775.0</ele><time>2026-05-01T12:50:03.999Z</time></trkpt><trkpt lat="46.484648664102394" lon="9.834434252353402"><ele>1774.9999999999998</ele><time>2026-05-01T12:50:04.999Z</time></trkpt><trkpt lat="46.484703998601184" lon="9.834497763304475"><ele>1775.0</ele><time>2026-05-01T12:50:05.999Z</time></trkpt><trkpt lat="46.48477671542074" lon="9.834606387871583"><ele>1775.4999999999998</ele><time>2026-05-01T12:50:07.999Z</time></trkpt><trkpt lat="46.48483831069635" lon="9.834684522526755"><ele>1776.0</ele><time>2026-05-01T12:50:10.999Z</time></trkpt><trkpt lat="46.484905001068746" lon="9.83471760711558"><ele>1776.5</ele><time>2026-05-01T12:50:16.999Z</time></trkpt><trkpt lat="46.48496415971178" lon="9.834755824815947"><ele>1777.0</ele><time>2026-05-01T12:50:19.999Z</time></trkpt><trkpt lat="46.48503122153848" lon="9.834719822434907"><ele>1777.4999999999998</ele><time>2026-05-01T12:50:31.999Z</time></trkpt><trkpt lat="46.485106508883824" lon="9.834758842908954"><ele>1778.0</ele><time>2026-05-01T12:57:25.001Z</time></trkpt><trkpt lat="46.485190050379096" lon="9.834832492263404"><ele>1778.0</ele><time>2026-05-01T12:57:27.001Z</time></trkpt><trkpt lat="46.48525272888996" lon="9.834881081148941"><ele>1778.0000000000002</ele><time>2026-05-01T12:57:28.001Z</time></trkpt><trkpt lat="46.48533295889146" lon="9.834923702207245"><ele>1778.0000000000002</ele><time>2026-05-01T12:57:29.001Z</time></trkpt><trkpt lat="46.485389936876096" lon="9.834986583315603"><ele>1778.0</ele><time>2026-05-01T12:57:30.001Z</time></trkpt><trkpt lat="46.48545741157448" lon="9.835056537012077"><ele>1778.0</ele><time>2026-05-01T12:57:32.001Z</time></trkpt><trkpt lat="46.4857681276452" lon="9.835289753214358"><ele>1777.25</ele><time>2026-05-01T12:57:34.001Z</time></trkpt><trkpt lat="46.4858664212977" lon="9.835372986618182"><ele>1776.5</ele><time>2026-05-01T12:57:35.001Z</time></trkpt><trkpt lat="46.48597876072163" lon="9.835453558873198"><ele>1775.75</ele><time>2026-05-01T12:57:36.001Z</time></trkpt><trkpt lat="46.486097309312186" lon="9.835529519009686"><ele>1775.0</ele><time>2026-05-01T12:57:37.001Z</time></trkpt><trkpt lat="46.486211824018675" lon="9.835622868922096"><ele>1774.5</ele><time>2026-05-01T12:57:38Z</time></trkpt><trkpt lat="46.48633956438229" lon="9.835699467249711"><ele>1774.0</ele><time>2026-05-01T12:57:39Z</time></trkpt><trkpt lat="46.48646373519122" lon="9.835783597827598"><ele>1773.5</ele><time>2026-05-01T12:57:40Z</time></trkpt><trkpt lat="46.48659024195693" lon="9.835853912945776"><ele>1773.0</ele><time>2026-05-01T12:57:41Z</time></trkpt><trkpt lat="46.48671896557322" lon="9.835932297674212"><ele>1773.5</ele><time>2026-05-01T12:57:42Z</time></trkpt><trkpt lat="46.486843598965976" lon="9.835979079617044"><ele>1774.0</ele><time>2026-05-01T12:57:43Z</time></trkpt><trkpt lat="46.486957337841446" lon="9.836009116410812"><ele>1774.5</ele><time>2026-05-01T12:57:44Z</time></trkpt><trkpt lat="46.48707117659881" lon="9.836041245427287"><ele>1775.0</ele><time>2026-05-01T12:57:45Z</time></trkpt><trkpt lat="46.48719412826698" lon="9.836076522459654"><ele>1775.0</ele><time>2026-05-01T12:57:46Z</time></trkpt><trkpt lat="46.48730947078914" lon="9.836113341418725"><ele>1775.0</ele><time>2026-05-01T12:57:47Z</time></trkpt><trkpt lat="46.48741624253214" lon="9.836146434011157"><ele>1775.0</ele><time>2026-05-01T12:57:48Z</time></trkpt><trkpt lat="46.48751448854444" lon="9.836175652710088"><ele>1775.0</ele><time>2026-05-01T12:57:49Z</time></trkpt><trkpt lat="46.48759718392413" lon="9.836202632404913"><ele>1775.0</ele><time>2026-05-01T12:57:50Z</time></trkpt><trkpt lat="46.48766383581286" lon="9.836224808772798"><ele>1775.0</ele><time>2026-05-01T12:57:51Z</time></trkpt><trkpt lat="46.487773716849226" lon="9.836263116304192"><ele>1775.0</ele><time>2026-05-01T12:57:53Z</time></trkpt><trkpt lat="46.48787326418787" lon="9.836289881221655"><ele>1775.0</ele><time>2026-05-01T12:57:55Z</time></trkpt><trkpt lat="46.48794159815649" lon="9.836295473909283"><ele>1775.0</ele><time>2026-05-01T12:58:02Z</time></trkpt><trkpt lat="46.48802750600643" lon="9.836325149456185"><ele>1775.0</ele><time>2026-05-01T12:58:04Z</time></trkpt><trkpt lat="46.48814117512091" lon="9.836374836052265"><ele>1774.8333333333333</ele><time>2026-05-01T12:58:06Z</time></trkpt><trkpt lat="46.48819652721224" lon="9.836430069747806"><ele>1774.6666666666665</ele><time>2026-05-01T12:58:07Z</time></trkpt><trkpt lat="46.488251594086215" lon="9.836481586950137"><ele>1774.5</ele><time>2026-05-01T12:58:08Z</time></trkpt><trkpt lat="46.48838236424297" lon="9.836497226425603"><ele>1774.3333333333335</ele><time>2026-05-01T12:58:10Z</time></trkpt><trkpt lat="46.48844862173066" lon="9.836469820148842"><ele>1774.1666666666667</ele><time>2026-05-01T12:58:11Z</time></trkpt><trkpt lat="46.48851466465287" lon="9.836422233481274"><ele>1774.0</ele><time>2026-05-01T12:58:12Z</time></trkpt><trkpt lat="46.48858680015369" lon="9.836395016997304"><ele>1774.0000000000002</ele><time>2026-05-01T12:58:13Z</time></trkpt><trkpt lat="46.488667925951916" lon="9.836358330212109"><ele>1774.0</ele><time>2026-05-01T12:58:14Z</time></trkpt><trkpt lat="46.48874145442236" lon="9.836330228127588"><ele>1774.0</ele><time>2026-05-01T12:58:15Z</time></trkpt><trkpt lat="46.48882757464651" lon="9.836284892588377"><ele>1774.0</ele><time>2026-05-01T12:58:16Z</time></trkpt><trkpt lat="46.48890981009023" lon="9.836230730626964"><ele>1774.0000000000002</ele><time>2026-05-01T12:58:17Z</time></trkpt><trkpt lat="46.48899163509341" lon="9.83617474944715"><ele>1774.0</ele><time>2026-05-01T12:58:18Z</time></trkpt><trkpt lat="46.489076849134385" lon="9.83610234927131"><ele>1774.0</ele><time>2026-05-01T12:58:19Z</time></trkpt><trkpt lat="46.489165539469866" lon="9.836035229063054"><ele>1774.0</ele><time>2026-05-01T12:58:20Z</time></trkpt><trkpt lat="46.48925151075929" lon="9.835956625888718"><ele>1774.0</ele><time>2026-05-01T12:58:21Z</time></trkpt><trkpt lat="46.4893331216924" lon="9.835887027098561"><ele>1774.0</ele><time>2026-05-01T12:58:22Z</time></trkpt><trkpt lat="46.48941285668012" lon="9.835825924057337"><ele>1774.0</ele><time>2026-05-01T12:58:23Z</time></trkpt><trkpt lat="46.48948578246769" lon="9.835767756266154"><ele>1774.0</ele><time>2026-05-01T12:58:24Z</time></trkpt><trkpt lat="46.48954919488122" lon="9.835716302444293"><ele>1774.0</ele><time>2026-05-01T12:58:25Z</time></trkpt><trkpt lat="46.489671669442565" lon="9.835631402239791"><ele>1774.0</ele><time>2026-05-01T12:58:27Z</time></trkpt><trkpt lat="46.48975100924644" lon="9.835596045878212"><ele>1774.0</ele><time>2026-05-01T12:58:27.999Z</time></trkpt><trkpt lat="46.48983455112411" lon="9.835544988368495"><ele>1774.0</ele><time>2026-05-01T12:58:28.999Z</time></trkpt><trkpt lat="46.48992236922588" lon="9.835516556374852"><ele>1774.0</ele><time>2026-05-01T12:58:29.999Z</time></trkpt><trkpt lat="46.49002135471177" lon="9.83549422736014"><ele>1774.0</ele><time>2026-05-01T12:58:30.999Z</time></trkpt><trkpt lat="46.49012384593627" lon="9.835480146382022"><ele>1774.0</ele><time>2026-05-01T12:58:31.999Z</time></trkpt><trkpt lat="46.49022472310944" lon="9.835482902961692"><ele>1774.0</ele><time>2026-05-01T12:58:32.999Z</time></trkpt><trkpt lat="46.49031066670846" lon="9.835499756447128"><ele>1774.0</ele><time>2026-05-01T12:58:33.999Z</time></trkpt><trkpt lat="46.49039585358457" lon="9.835503948935248"><ele>1773.6</ele><time>2026-05-01T12:58:34.999Z</time></trkpt><trkpt lat="46.49049260528032" lon="9.835513072905112"><ele>1773.2</ele><time>2026-05-01T12:58:35.999Z</time></trkpt><trkpt lat="46.49058717987789" lon="9.835529639133336"><ele>1772.7999999999997</ele><time>2026-05-01T12:58:36.999Z</time></trkpt><trkpt lat="46.49068928293871" lon="9.835556182697973"><ele>1772.3999999999999</ele><time>2026-05-01T12:58:37.999Z</time></trkpt><trkpt lat="46.49079577928834" lon="9.835560104147913"><ele>1772.0</ele><time>2026-05-01T12:58:38.999Z</time></trkpt><trkpt lat="46.49090061019417" lon="9.835568395577141"><ele>1772.0</ele><time>2026-05-01T12:58:39.999Z</time></trkpt><trkpt lat="46.49101538478263" lon="9.835590583990726"><ele>1772.0</ele><time>2026-05-01T12:58:40.999Z</time></trkpt><trkpt lat="46.49113265266015" lon="9.835593137695833"><ele>1772.0</ele><time>2026-05-01T12:58:41.999Z</time></trkpt><trkpt lat="46.49124588971642" lon="9.835604409994412"><ele>1772.0</ele><time>2026-05-01T12:58:42.999Z</time></trkpt><trkpt lat="46.49135188653413" lon="9.835624493576729"><ele>1772.25</ele><time>2026-05-01T12:58:43.999Z</time></trkpt><trkpt lat="46.49146441234053" lon="9.835638707597735"><ele>1772.5</ele><time>2026-05-01T12:58:44.999Z</time></trkpt><trkpt lat="46.49158094589841" lon="9.835654084637353"><ele>1772.75</ele><time>2026-05-01T12:58:45.999Z</time></trkpt><trkpt lat="46.49170547581896" lon="9.835679915224716"><ele>1773.0</ele><time>2026-05-01T12:58:46.999Z</time></trkpt><trkpt lat="46.49182777074299" lon="9.83569791194749"><ele>1773.0</ele><time>2026-05-01T12:58:47.999Z</time></trkpt><trkpt lat="46.491941475239614" lon="9.83572839262878"><ele>1773.0</ele><time>2026-05-01T12:58:48.999Z</time></trkpt><trkpt lat="46.4920564068175" lon="9.835753173682283"><ele>1773.0</ele><time>2026-05-01T12:58:49.999Z</time></trkpt><trkpt lat="46.49217908562611" lon="9.8357784635593"><ele>1773.0</ele><time>2026-05-01T12:58:50.999Z</time></trkpt><trkpt lat="46.49230601119011" lon="9.83580193345822"><ele>1773.75</ele><time>2026-05-01T12:58:51.999Z</time></trkpt><trkpt lat="46.49244012534539" lon="9.835835513133384"><ele>1774.5</ele><time>2026-05-01T12:58:52.999Z</time></trkpt><trkpt lat="46.49257731046139" lon="9.83587839184178"><ele>1775.25</ele><time>2026-05-01T12:58:53.999Z</time></trkpt><trkpt lat="46.492711501968834" lon="9.835934507673896"><ele>1776.0</ele><time>2026-05-01T12:58:54.999Z</time></trkpt><trkpt lat="46.4928424657123" lon="9.8359984612642"><ele>1775.75</ele><time>2026-05-01T12:58:55.999Z</time></trkpt><trkpt lat="46.49296162117549" lon="9.836069007712643"><ele>1775.5</ele><time>2026-05-01T12:58:56.999Z</time></trkpt><trkpt lat="46.49307842070158" lon="9.83614488256343"><ele>1775.25</ele><time>2026-05-01T12:58:57.999Z</time></trkpt><trkpt lat="46.49319051096322" lon="9.836231288011414"><ele>1775.0</ele><time>2026-05-01T12:58:58.999Z</time></trkpt><trkpt lat="46.493294529107516" lon="9.836334209336604"><ele>1775.0</ele><time>2026-05-01T12:58:59.999Z</time></trkpt><trkpt lat="46.493395393705754" lon="9.83643643993459"><ele>1775.0</ele><time>2026-05-01T12:59:00.999Z</time></trkpt><trkpt lat="46.493483371797794" lon="9.836565629348085"><ele>1775.0</ele><time>2026-05-01T12:59:01.999Z</time></trkpt><trkpt lat="46.49357618556542" lon="9.836684239122727"><ele>1775.0</ele><time>2026-05-01T12:59:02.999Z</time></trkpt><trkpt lat="46.4936638949324" lon="9.836821338045333"><ele>1776.0</ele><time>2026-05-01T12:59:03.999Z</time></trkpt><trkpt lat="46.49374048382534" lon="9.836960144423745"><ele>1777.0</ele><time>2026-05-01T12:59:04.999Z</time></trkpt><trkpt lat="46.4938199887892" lon="9.837087762379124"><ele>1778.0</ele><time>2026-05-01T12:59:05.999Z</time></trkpt><trkpt lat="46.49388493027942" lon="9.837237889546847"><ele>1779.0</ele><time>2026-05-01T12:59:06.999Z</time></trkpt><trkpt lat="46.49394662303268" lon="9.837389636226957"><ele>1779.0</ele><time>2026-05-01T12:59:07.999Z</time></trkpt><trkpt lat="46.49400604404422" lon="9.837541513807594"><ele>1779.0</ele><time>2026-05-01T12:59:08.999Z</time></trkpt><trkpt lat="46.49406683687696" lon="9.837691878364014"><ele>1779.0</ele><time>2026-05-01T12:59:09.999Z</time></trkpt><trkpt lat="46.494128648756515" lon="9.837842481469744"><ele>1779.0</ele><time>2026-05-01T12:59:10.999Z</time></trkpt><trkpt lat="46.494183159784235" lon="9.838000196739518"><ele>1778.0</ele><time>2026-05-01T12:59:11.999Z</time></trkpt><trkpt lat="46.49422552915663" lon="9.838165183876848"><ele>1777.0</ele><time>2026-05-01T12:59:12.999Z</time></trkpt><trkpt lat="46.4942824807801" lon="9.838332320126197"><ele>1776.0</ele><time>2026-05-01T12:59:13.999Z</time></trkpt><trkpt lat="46.494341027884445" lon="9.838507996737654"><ele>1775.0</ele><time>2026-05-01T12:59:14.999Z</time></trkpt><trkpt lat="46.494402783594516" lon="9.838680885073142"><ele>1775.0</ele><time>2026-05-01T12:59:15.999Z</time></trkpt><trkpt lat="46.49446899506895" lon="9.838849177892037"><ele>1775.0</ele><time>2026-05-01T12:59:16.999Z</time></trkpt><trkpt lat="46.494534037162005" lon="9.839000751253643"><ele>1775.0</ele><time>2026-05-01T12:59:17.999Z</time></trkpt><trkpt lat="46.49460119794761" lon="9.839143680491649"><ele>1775.0</ele><time>2026-05-01T12:59:18.999Z</time></trkpt><trkpt lat="46.4946706469118" lon="9.839280739525847"><ele>1774.75</ele><time>2026-05-01T12:59:19.999Z</time></trkpt><trkpt lat="46.49473152067259" lon="9.839424966832482"><ele>1774.5</ele><time>2026-05-01T12:59:20.999Z</time></trkpt><trkpt lat="46.49480355912714" lon="9.839562521403876"><ele>1774.25</ele><time>2026-05-01T12:59:21.999Z</time></trkpt><trkpt lat="46.49488454584356" lon="9.839704221469976"><ele>1774.0</ele><time>2026-05-01T12:59:22.999Z</time></trkpt><trkpt lat="46.494965423004054" lon="9.839847905854203"><ele>1774.0</ele><time>2026-05-01T12:59:23.999Z</time></trkpt><trkpt lat="46.49505415426334" lon="9.839981890278223"><ele>1774.0</ele><time>2026-05-01T12:59:24.999Z</time></trkpt><trkpt lat="46.49514385517198" lon="9.840109273768961"><ele>1774.0</ele><time>2026-05-01T12:59:26Z</time></trkpt><trkpt lat="46.49522958597696" lon="9.840227789973087"><ele>1774.0</ele><time>2026-05-01T12:59:27Z</time></trkpt><trkpt lat="46.49531989671305" lon="9.840346873129679"><ele>1775.0</ele><time>2026-05-01T12:59:28Z</time></trkpt><trkpt lat="46.49540723643037" lon="9.840465313521646"><ele>1776.0</ele><time>2026-05-01T12:59:29Z</time></trkpt><trkpt lat="46.495498952126724" lon="9.840580137827816"><ele>1777.0</ele><time>2026-05-01T12:59:30Z</time></trkpt><trkpt lat="46.49559383287828" lon="9.840699962280436"><ele>1778.0</ele><time>2026-05-01T12:59:31Z</time></trkpt><trkpt lat="46.49568591861417" lon="9.840825423424832"><ele>1778.0</ele><time>2026-05-01T12:59:32Z</time></trkpt><trkpt lat="46.49577698836555" lon="9.840959260647747"><ele>1778.0</ele><time>2026-05-01T12:59:33Z</time></trkpt><trkpt lat="46.49586369731827" lon="9.841100955407521"><ele>1778.0</ele><time>2026-05-01T12:59:34Z</time></trkpt><trkpt lat="46.495948443160835" lon="9.841245603971204"><ele>1778.0</ele><time>2026-05-01T12:59:35Z</time></trkpt><trkpt lat="46.49602323651566" lon="9.841393529520998"><ele>1779.25</ele><time>2026-05-01T12:59:36Z</time></trkpt><trkpt lat="46.49609888012673" lon="9.841547733209577"><ele>1780.5</ele><time>2026-05-01T12:59:37Z</time></trkpt><trkpt lat="46.49616993354906" lon="9.841704331935231"><ele>1781.75</ele><time>2026-05-01T12:59:38Z</time></trkpt><trkpt lat="46.49623495125802" lon="9.841859906002993"><ele>1783.0</ele><time>2026-05-01T12:59:39Z</time></trkpt><trkpt lat="46.49628811966875" lon="9.842009947640516"><ele>1783.0000000000002</ele><time>2026-05-01T12:59:40Z</time></trkpt><trkpt lat="46.49633378597329" lon="9.842145761392928"><ele>1783.0</ele><time>2026-05-01T12:59:41Z</time></trkpt><trkpt lat="46.49636639659869" lon="9.842265437582974"><ele>1783.0</ele><time>2026-05-01T12:59:42Z</time></trkpt><trkpt lat="46.4963976917742" lon="9.842386029274081"><ele>1783.0</ele><time>2026-05-01T12:59:43Z</time></trkpt><trkpt lat="46.496421902568216" lon="9.842500099538483"><ele>1783.0000000000002</ele><time>2026-05-01T12:59:44Z</time></trkpt><trkpt lat="46.496443817247666" lon="9.842605399786859"><ele>1783.0</ele><time>2026-05-01T12:59:45Z</time></trkpt><trkpt lat="46.49646548233343" lon="9.84270683188145"><ele>1781.8333333333335</ele><time>2026-05-01T12:59:46Z</time></trkpt><trkpt lat="46.49648639797035" lon="9.8428105374155"><ele>1780.6666666666667</ele><time>2026-05-01T12:59:47Z</time></trkpt><trkpt lat="46.496507956331826" lon="9.842910518745374"><ele>1779.5</ele><time>2026-05-01T12:59:48Z</time></trkpt><trkpt lat="46.49652814878853" lon="9.843000238916053"><ele>1778.3333333333335</ele><time>2026-05-01T12:59:49Z</time></trkpt><trkpt lat="46.496564158595746" lon="9.843151401385544"><ele>1777.1666666666667</ele><time>2026-05-01T12:59:51Z</time></trkpt><trkpt lat="46.49659030985407" lon="9.843282135951469"><ele>1776.0</ele><time>2026-05-01T12:59:53Z</time></trkpt><trkpt lat="46.496618990411804" lon="9.843426480447778"><ele>1775.1999999999998</ele><time>2026-05-01T12:59:55Z</time></trkpt><trkpt lat="46.496645756831576" lon="9.843583146422498"><ele>1774.3999999999999</ele><time>2026-05-01T12:59:57Z</time></trkpt><trkpt lat="46.496662067999935" lon="9.84372125334191"><ele>1773.6</ele><time>2026-05-01T12:59:59Z</time></trkpt><trkpt lat="46.49666039760462" lon="9.843891588260504"><ele>1772.8</ele><time>2026-05-01T13:00:01Z</time></trkpt><trkpt lat="46.496673952264345" lon="9.843984757348085"><ele>1772.0</ele><time>2026-05-01T13:00:02Z</time></trkpt><trkpt lat="46.49670016454936" lon="9.84407434827494"><ele>1772.0</ele><time>2026-05-01T13:00:03Z</time></trkpt><trkpt lat="46.496750981373246" lon="9.844158150054252"><ele>1772.0</ele><time>2026-05-01T13:00:04Z</time></trkpt><trkpt lat="46.49679403381375" lon="9.844234574335696"><ele>1772.0</ele><time>2026-05-01T13:00:05Z</time></trkpt><trkpt lat="46.49682907410907" lon="9.844321729592998"><ele>1772.0</ele><time>2026-05-01T13:00:06Z</time></trkpt><trkpt lat="46.49685667997149" lon="9.844421950147233"><ele>1772.0</ele><time>2026-05-01T13:00:07Z</time></trkpt><trkpt lat="46.49687608388348" lon="9.84452655840691"><ele>1772.0</ele><time>2026-05-01T13:00:08Z</time></trkpt><trkpt lat="46.496890932873555" lon="9.84461912202827"><ele>1772.0</ele><time>2026-05-01T13:00:09Z</time></trkpt><trkpt lat="46.49693510957" lon="9.844755461312843"><ele>1771.6666666666665</ele><time>2026-05-01T13:00:10Z</time></trkpt><trkpt lat="46.496966680968775" lon="9.844880304589493"><ele>1771.3333333333333</ele><time>2026-05-01T13:00:11Z</time></trkpt><trkpt lat="46.49699571088028" lon="9.845004754960874"><ele>1771.0</ele><time>2026-05-01T13:00:12Z</time></trkpt><trkpt lat="46.497026336918076" lon="9.845128820713722"><ele>1770.6666666666665</ele><time>2026-05-01T13:00:13Z</time></trkpt><trkpt lat="46.49705355556171" lon="9.845240648414201"><ele>1770.3333333333333</ele><time>2026-05-01T13:00:14Z</time></trkpt><trkpt lat="46.49707830360449" lon="9.84534733146638"><ele>1770.0</ele><time>2026-05-01T13:00:15Z</time></trkpt><trkpt lat="46.497105128209945" lon="9.845451842752679"><ele>1770.6666666666667</ele><time>2026-05-01T13:00:16Z</time></trkpt><trkpt lat="46.497130564766465" lon="9.845554810710677"><ele>1771.3333333333335</ele><time>2026-05-01T13:00:17Z</time></trkpt><trkpt lat="46.49715873273294" lon="9.845663469946135"><ele>1772.0</ele><time>2026-05-01T13:00:18Z</time></trkpt><trkpt lat="46.497183553300026" lon="9.845758774317321"><ele>1772.6666666666667</ele><time>2026-05-01T13:00:19Z</time></trkpt><trkpt lat="46.497204548579596" lon="9.845845004551224"><ele>1773.3333333333335</ele><time>2026-05-01T13:00:20Z</time></trkpt><trkpt lat="46.49724386048507" lon="9.845991850965772"><ele>1774.0</ele><time>2026-05-01T13:00:21.999Z</time></trkpt><trkpt lat="46.497272134211066" lon="9.84609716396149"><ele>1774.0000000000002</ele><time>2026-05-01T13:00:23.999Z</time></trkpt><trkpt lat="46.4973021561759" lon="9.846186915446971"><ele>1774.0</ele><time>2026-05-01T13:00:28.999Z</time></trkpt><trkpt lat="46.49732788646381" lon="9.846289163864618"><ele>1774.0</ele><time>2026-05-01T13:00:44.999Z</time></trkpt><trkpt lat="46.49736266763803" lon="9.846371379712869"><ele>1774.0</ele><time>2026-05-01T13:00:49.999Z</time></trkpt><trkpt lat="46.49739135409235" lon="9.846459637519448"><ele>1774.0000000000002</ele><time>2026-05-01T13:00:57.999Z</time></trkpt><trkpt lat="46.497425565578105" lon="9.846580750846398"><ele>1774.0</ele><time>2026-05-01T13:01:00.999Z</time></trkpt><trkpt lat="46.49747060501777" lon="9.846721030399204"><ele>1773.6666666666667</ele><time>2026-05-01T13:01:02.999Z</time></trkpt><trkpt lat="46.497494069135286" lon="9.846806062191861"><ele>1773.3333333333335</ele><time>2026-05-01T13:01:03.999Z</time></trkpt><trkpt lat="46.497521357774644" lon="9.84690171262317"><ele>1773.0</ele><time>2026-05-01T13:01:04.999Z</time></trkpt><trkpt lat="46.4975478155557" lon="9.846988778256826"><ele>1772.6666666666665</ele><time>2026-05-01T13:01:05.999Z</time></trkpt><trkpt lat="46.497577597659465" lon="9.847085031146943"><ele>1772.3333333333333</ele><time>2026-05-01T13:01:06.999Z</time></trkpt><trkpt lat="46.497609488834556" lon="9.847166796530017"><ele>1772.0</ele><time>2026-05-01T13:01:07.999Z</time></trkpt><trkpt lat="46.497661475032906" lon="9.847314604150434"><ele>1771.9999999999998</ele><time>2026-05-01T13:01:09.999Z</time></trkpt><trkpt lat="46.497681020031955" lon="9.847464377812154"><ele>1772.0</ele><time>2026-05-01T13:01:11.999Z</time></trkpt><trkpt lat="46.4977310290175" lon="9.847610965439438"><ele>1772.0</ele><time>2026-05-01T13:01:13.999Z</time></trkpt><trkpt lat="46.49778516478526" lon="9.847661183556726"><ele>1772.0</ele><time>2026-05-01T13:01:14.999Z</time></trkpt><trkpt lat="46.49785170179134" lon="9.847699034954038"><ele>1771.9999999999998</ele><time>2026-05-01T13:01:15.999Z</time></trkpt><trkpt lat="46.497920007779584" lon="9.84774932096279"><ele>1772.0</ele><time>2026-05-01T13:01:16.999Z</time></trkpt><trkpt lat="46.4979857695426" lon="9.84783169106257"><ele>1772.1999999999998</ele><time>2026-05-01T13:01:17.999Z</time></trkpt><trkpt lat="46.4980437303554" lon="9.847925806802678"><ele>1772.3999999999999</ele><time>2026-05-01T13:01:18.999Z</time></trkpt><trkpt lat="46.498094918974246" lon="9.848029100931633"><ele>1772.6000000000001</ele><time>2026-05-01T13:01:19.999Z</time></trkpt><trkpt lat="46.49815308095577" lon="9.8481368925853"><ele>1772.8000000000002</ele><time>2026-05-01T13:01:20.999Z</time></trkpt><trkpt lat="46.49822294462771" lon="9.84825833882677"><ele>1773.0</ele><time>2026-05-01T13:01:21.999Z</time></trkpt><trkpt lat="46.49830788106417" lon="9.848391025266102"><ele>1774.25</ele><time>2026-05-01T13:01:22.999Z</time></trkpt><trkpt lat="46.49839852395954" lon="9.848533690875781"><ele>1775.5</ele><time>2026-05-01T13:01:23.999Z</time></trkpt><trkpt lat="46.49849758211821" lon="9.848679028701168"><ele>1776.75</ele><time>2026-05-01T13:01:24.999Z</time></trkpt><trkpt lat="46.49859579100825" lon="9.848820926465484"><ele>1778.0</ele><time>2026-05-01T13:01:25.999Z</time></trkpt><trkpt lat="46.49869803710743" lon="9.848971307354626"><ele>1775.6666666666665</ele><time>2026-05-01T13:01:26.998Z</time></trkpt><trkpt lat="46.49878392111268" lon="9.849136369644516"><ele>1773.3333333333335</ele><time>2026-05-01T13:01:27.998Z</time></trkpt><trkpt lat="46.49889937515763" lon="9.849291699516737"><ele>1771.0</ele><time>2026-05-01T13:01:28.998Z</time></trkpt><trkpt lat="46.4990120083564" lon="9.849463815511369"><ele>1770.0</ele><time>2026-05-01T13:01:29.998Z</time></trkpt><trkpt lat="46.499108364784966" lon="9.849617896167457"><ele>1769.0</ele><time>2026-05-01T13:01:30.998Z</time></trkpt><trkpt lat="46.499208034667504" lon="9.849782918924125"><ele>1768.0</ele><time>2026-05-01T13:01:32Z</time></trkpt><trkpt lat="46.49930479880148" lon="9.849957035712302"><ele>1767.0</ele><time>2026-05-01T13:01:33Z</time></trkpt><trkpt lat="46.49942805371818" lon="9.850126833254249"><ele>1766.5</ele><time>2026-05-01T13:01:34Z</time></trkpt><trkpt lat="46.499530039173955" lon="9.850285227804884"><ele>1766.0</ele><time>2026-05-01T13:01:35Z</time></trkpt><trkpt lat="46.499628274134984" lon="9.850436480299175"><ele>1765.5</ele><time>2026-05-01T13:01:36Z</time></trkpt><trkpt lat="46.49971861751017" lon="9.850562550801149"><ele>1765.0</ele><time>2026-05-01T13:01:37Z</time></trkpt><trkpt lat="46.49978129891166" lon="9.850674382065712"><ele>1765.0000000000002</ele><time>2026-05-01T13:01:38Z</time></trkpt><trkpt lat="46.49982844782873" lon="9.850760368665085"><ele>1765.0</ele><time>2026-05-01T13:01:39Z</time></trkpt><trkpt lat="46.49988813957925" lon="9.850870380323947"><ele>1765.0</ele><time>2026-05-01T13:01:41Z</time></trkpt><trkpt lat="46.49992897873861" lon="9.850957774441689"><ele>1765.0</ele><time>2026-05-01T13:01:43Z</time></trkpt><trkpt lat="46.499989053596224" lon="9.851018010940349"><ele>1765.0000000000002</ele><time>2026-05-01T13:02:43.999Z</time></trkpt><trkpt lat="46.500095009977976" lon="9.851114874086127"><ele>1765.0</ele><time>2026-05-01T13:02:46.999Z</time></trkpt><trkpt lat="46.5001456784263" lon="9.851194793053468"><ele>1765.0</ele><time>2026-05-01T13:02:47.999Z</time></trkpt><trkpt lat="46.50021270683907" lon="9.851302130187333"><ele>1765.0</ele><time>2026-05-01T13:02:48.999Z</time></trkpt><trkpt lat="46.50028553982423" lon="9.851415138615184"><ele>1765.0</ele><time>2026-05-01T13:02:49.999Z</time></trkpt><trkpt lat="46.50037396109474" lon="9.851536132791347"><ele>1765.0</ele><time>2026-05-01T13:02:50.999Z</time></trkpt><trkpt lat="46.500433531712034" lon="9.851664088243547"><ele>1765.0</ele><time>2026-05-01T13:02:51.999Z</time></trkpt><trkpt lat="46.50050213183755" lon="9.851781679099286"><ele>1766.6666666666667</ele><time>2026-05-01T13:02:52.999Z</time></trkpt><trkpt lat="46.50056688933282" lon="9.851902340684697"><ele>1768.3333333333335</ele><time>2026-05-01T13:02:53.999Z</time></trkpt><trkpt lat="46.50066482395713" lon="9.85205050006617"><ele>1770.0</ele><time>2026-05-01T13:02:54.999Z</time></trkpt><trkpt lat="46.50093799548706" lon="9.852383072867125"><ele>1770.0</ele><time>2026-05-01T13:02:55.999Z</time></trkpt><trkpt lat="46.5011659703466" lon="9.85253088506306"><ele>1770.0</ele><time>2026-05-01T13:02:56.999Z</time></trkpt><trkpt lat="46.50131325526921" lon="9.85271839812103"><ele>1770.0</ele><time>2026-05-01T13:02:57.999Z</time></trkpt><trkpt lat="46.501503609423565" lon="9.852908005443748"><ele>1769.5</ele><time>2026-05-01T13:02:58.999Z</time></trkpt><trkpt lat="46.50170986722428" lon="9.853125536449834"><ele>1769.0</ele><time>2026-05-01T13:02:59.999Z</time></trkpt><trkpt lat="46.50193817032264" lon="9.853370026695092"><ele>1772.5</ele><time>2026-05-01T13:03:00.999Z</time></trkpt><trkpt lat="46.50212218818841" lon="9.853580780206567"><ele>1776.0</ele><time>2026-05-01T13:03:01.999Z</time></trkpt><trkpt lat="46.50232083656963" lon="9.853807602704704"><ele>1776.0</ele><time>2026-05-01T13:03:02.999Z</time></trkpt><trkpt lat="46.5025282199841" lon="9.853980635969567"><ele>1776.0</ele><time>2026-05-01T13:03:03.999Z</time></trkpt><trkpt lat="46.50275206593788" lon="9.85419741184378"><ele>1771.0</ele><time>2026-05-01T13:03:04.999Z</time></trkpt><trkpt lat="46.502981607164415" lon="9.854419484475425"><ele>1766.0</ele><time>2026-05-01T13:03:05.999Z</time></trkpt><trkpt lat="46.50320588783084" lon="9.854636466848817"><ele>1766.0</ele><time>2026-05-01T13:03:06.999Z</time></trkpt><trkpt lat="46.50341654209761" lon="9.854839448954229"><ele>1766.0</ele><time>2026-05-01T13:03:07.999Z</time></trkpt><trkpt lat="46.50362140891738" lon="9.855037983030634"><ele>1763.5</ele><time>2026-05-01T13:03:08.999Z</time></trkpt><trkpt lat="46.50382729112451" lon="9.85523788217366"><ele>1761.0</ele><time>2026-05-01T13:03:09.999Z</time></trkpt><trkpt lat="46.504008384414384" lon="9.85541441234777"><ele>1761.0</ele><time>2026-05-01T13:03:10.999Z</time></trkpt><trkpt lat="46.50418761071255" lon="9.855589122809498"><ele>1761.0</ele><time>2026-05-01T13:03:11.999Z</time></trkpt><trkpt lat="46.50434540632533" lon="9.855742942393872"><ele>1761.0</ele><time>2026-05-01T13:03:12.999Z</time></trkpt><trkpt lat="46.50450564822532" lon="9.85590038847719"><ele>1752.6666666666665</ele><time>2026-05-01T13:03:13.999Z</time></trkpt><trkpt lat="46.50466433504197" lon="9.856056479179387"><ele>1744.3333333333333</ele><time>2026-05-01T13:03:14.999Z</time></trkpt><trkpt lat="46.504816466355386" lon="9.856206121728803"><ele>1736.0</ele><time>2026-05-01T13:03:15.999Z</time></trkpt><trkpt lat="46.50495231541269" lon="9.856317487100084"><ele>1736.0</ele><time>2026-05-01T13:03:16.999Z</time></trkpt><trkpt lat="46.505092597753325" lon="9.85646767054795"><ele>1736.0</ele><time>2026-05-01T13:03:17.998Z</time></trkpt><trkpt lat="46.50523844313146" lon="9.856575512921777"><ele>1736.0</ele><time>2026-05-01T13:03:18.998Z</time></trkpt><trkpt lat="46.50537434820211" lon="9.85667168551567"><ele>1731.0</ele><time>2026-05-01T13:03:19.998Z</time></trkpt><trkpt lat="46.505513567164414" lon="9.856766007882348"><ele>1726.0</ele><time>2026-05-01T13:03:20.998Z</time></trkpt><trkpt lat="46.505651811390806" lon="9.856887870323012"><ele>1721.0</ele><time>2026-05-01T13:03:21.998Z</time></trkpt><trkpt lat="46.50578771009939" lon="9.85701662606593"><ele>1721.0</ele><time>2026-05-01T13:03:22.998Z</time></trkpt><trkpt lat="46.505936304086866" lon="9.857155438283455"><ele>1721.0</ele><time>2026-05-01T13:03:23.998Z</time></trkpt><trkpt lat="46.506096111505485" lon="9.857307317179144"><ele>1721.0</ele><time>2026-05-01T13:03:24.998Z</time></trkpt><trkpt lat="46.506255354942745" lon="9.857452435096633"><ele>1719.6666666666665</ele><time>2026-05-01T13:03:25.998Z</time></trkpt><trkpt lat="46.50640928355109" lon="9.857596889307318"><ele>1718.3333333333335</ele><time>2026-05-01T13:03:26.998Z</time></trkpt><trkpt lat="46.506551498007234" lon="9.857751711990291"><ele>1717.0</ele><time>2026-05-01T13:03:27.998Z</time></trkpt><trkpt lat="46.506685561713915" lon="9.857886323139011"><ele>1716.6666666666667</ele><time>2026-05-01T13:03:28.998Z</time></trkpt><trkpt lat="46.50682572829272" lon="9.858029370647825"><ele>1716.3333333333335</ele><time>2026-05-01T13:03:29.998Z</time></trkpt><trkpt lat="46.506970139447624" lon="9.858179728900463"><ele>1716.0</ele><time>2026-05-01T13:03:30.998Z</time></trkpt><trkpt lat="46.507121708551004" lon="9.858341451068874"><ele>1716.0</ele><time>2026-05-01T13:03:31.998Z</time></trkpt><trkpt lat="46.50727793552134" lon="9.858515555739148"><ele>1716.0</ele><time>2026-05-01T13:03:32.998Z</time></trkpt><trkpt lat="46.50744473579433" lon="9.858705716153295"><ele>1716.0</ele><time>2026-05-01T13:03:33.998Z</time></trkpt><trkpt lat="46.507614791110115" lon="9.858906006065318"><ele>1716.0</ele><time>2026-05-01T13:03:34.998Z</time></trkpt><trkpt lat="46.50776136372556" lon="9.859216678050327"><ele>1716.0</ele><time>2026-05-01T13:03:35.998Z</time></trkpt><trkpt lat="46.50789117794062" lon="9.859445641111542"><ele>1716.0</ele><time>2026-05-01T13:03:36.998Z</time></trkpt><trkpt lat="46.50801347121432" lon="9.859678584400749"><ele>1716.0</ele><time>2026-05-01T13:03:38Z</time></trkpt><trkpt lat="46.50811786429535" lon="9.85992639229567"><ele>1716.0</ele><time>2026-05-01T13:03:39Z</time></trkpt><trkpt lat="46.50820486491929" lon="9.860181734873315"><ele>1716.0</ele><time>2026-05-01T13:03:40Z</time></trkpt><trkpt lat="46.5082703396999" lon="9.86043875887219"><ele>1716.0</ele><time>2026-05-01T13:03:41Z</time></trkpt><trkpt lat="46.50833004038418" lon="9.8607014781608"><ele>1716.0</ele><time>2026-05-01T13:03:42Z</time></trkpt><trkpt lat="46.508391839317355" lon="9.86096075349882"><ele>1716.6666666666665</ele><time>2026-05-01T13:03:43Z</time></trkpt><trkpt lat="46.50845040879542" lon="9.861205153102174"><ele>1717.3333333333333</ele><time>2026-05-01T13:03:44Z</time></trkpt><trkpt lat="46.50852728872993" lon="9.861459451746653"><ele>1718.0</ele><time>2026-05-01T13:03:45Z</time></trkpt><trkpt lat="46.508578266697846" lon="9.861712678744754"><ele>1717.6666666666665</ele><time>2026-05-01T13:03:46Z</time></trkpt><trkpt lat="46.50867409575746" lon="9.861961310954554"><ele>1717.3333333333335</ele><time>2026-05-01T13:03:47Z</time></trkpt><trkpt lat="46.508802764832225" lon="9.862188077145381"><ele>1717.0</ele><time>2026-05-01T13:03:48Z</time></trkpt><trkpt lat="46.5089298129599" lon="9.862396869162447"><ele>1717.0</ele><time>2026-05-01T13:03:49Z</time></trkpt><trkpt lat="46.50882006042762" lon="9.862273353905227"><ele>1717.0</ele><time>2026-05-01T13:03:50Z</time></trkpt><trkpt lat="46.50891750728201" lon="9.862397069782826"><ele>1717.0</ele><time>2026-05-01T13:03:51Z</time></trkpt><trkpt lat="46.509030393429775" lon="9.862509098113675"><ele>1717.0</ele><time>2026-05-01T13:03:52Z</time></trkpt><trkpt lat="46.50914821248659" lon="9.862613941371341"><ele>1717.0</ele><time>2026-05-01T13:03:53Z</time></trkpt><trkpt lat="46.50927026838548" lon="9.862714966428646"><ele>1717.0</ele><time>2026-05-01T13:03:54Z</time></trkpt><trkpt lat="46.509401595386215" lon="9.862793313410375"><ele>1717.0</ele><time>2026-05-01T13:03:55Z</time></trkpt><trkpt lat="46.50954482501415" lon="9.862835004834702"><ele>1717.0</ele><time>2026-05-01T13:03:56Z</time></trkpt><trkpt lat="46.50968576938654" lon="9.862849566785531"><ele>1717.25</ele><time>2026-05-01T13:03:57Z</time></trkpt><trkpt lat="46.50981254173585" lon="9.862799238770453"><ele>1717.5</ele><time>2026-05-01T13:03:58Z</time></trkpt><trkpt lat="46.50993320178433" lon="9.86275342043425"><ele>1717.75</ele><time>2026-05-01T13:03:59Z</time></trkpt><trkpt lat="46.51003005050801" lon="9.862685891404906"><ele>1718.0</ele><time>2026-05-01T13:04:00Z</time></trkpt><trkpt lat="46.51013586592726" lon="9.862599124669256"><ele>1718.0</ele><time>2026-05-01T13:04:01Z</time></trkpt><trkpt lat="46.510221483647456" lon="9.862475926628601"><ele>1718.0000000000002</ele><time>2026-05-01T13:04:02Z</time></trkpt><trkpt lat="46.510290001587315" lon="9.862346663788097"><ele>1718.0000000000002</ele><time>2026-05-01T13:04:03Z</time></trkpt><trkpt lat="46.51035289024984" lon="9.862233389239902"><ele>1718.0</ele><time>2026-05-01T13:04:04Z</time></trkpt><trkpt lat="46.510414108018175" lon="9.862118698616047"><ele>1718.0</ele><time>2026-05-01T13:04:05Z</time></trkpt><trkpt lat="46.51046807228115" lon="9.862015317816073"><ele>1717.8000000000002</ele><time>2026-05-01T13:04:06Z</time></trkpt><trkpt lat="46.51051088328445" lon="9.861936270555688"><ele>1717.6000000000001</ele><time>2026-05-01T13:04:07Z</time></trkpt><trkpt lat="46.510585090472986" lon="9.861748888004726"><ele>1717.3999999999999</ele><time>2026-05-01T13:04:09.999Z</time></trkpt><trkpt lat="46.510501064711896" lon="9.861709554182994"><ele>1717.1999999999998</ele><time>2026-05-01T13:04:12.999Z</time></trkpt><trkpt lat="46.51048995431073" lon="9.861812414893114"><ele>1717.0</ele><time>2026-05-01T13:04:16.999Z</time></trkpt><trkpt lat="46.51065213565001" lon="9.861956815540225"><ele>1716.8</ele><time>2026-05-01T13:04:20.999Z</time></trkpt><trkpt lat="46.51067394041726" lon="9.86217805336503"><ele>1716.6</ele><time>2026-05-01T13:04:21.999Z</time></trkpt><trkpt lat="46.51064139676533" lon="9.862320269356005"><ele>1716.3999999999999</ele><time>2026-05-01T13:04:22.999Z</time></trkpt><trkpt lat="46.51060813673947" lon="9.862415505900996"><ele>1716.1999999999998</ele><time>2026-05-01T13:04:23.999Z</time></trkpt><trkpt lat="46.51057337019734" lon="9.86251505734187"><ele>1716.0</ele><time>2026-05-01T13:04:24.999Z</time></trkpt><trkpt lat="46.510543104490516" lon="9.862607641452941"><ele>1715.6666666666665</ele><time>2026-05-01T13:04:25.999Z</time></trkpt><trkpt lat="46.51050451776083" lon="9.862728543408899"><ele>1715.3333333333333</ele><time>2026-05-01T13:04:26.999Z</time></trkpt><trkpt lat="46.510442841014765" lon="9.862895493810809"><ele>1715.0</ele><time>2026-05-01T13:04:28.999Z</time></trkpt><trkpt lat="46.50954105990384" lon="9.86211924838051"><ele>1715.5</ele><time>2026-05-01T13:04:29.999Z</time></trkpt><trkpt lat="46.50944050862935" lon="9.862187581857762"><ele>1716.0</ele><time>2026-05-01T13:04:30.999Z</time></trkpt><trkpt lat="46.50937182765908" lon="9.862266340564375"><ele>1716.5</ele><time>2026-05-01T13:04:31.999Z</time></trkpt><trkpt lat="46.50929098563045" lon="9.86234661091582"><ele>1717.0</ele><time>2026-05-01T13:04:32.999Z</time></trkpt><trkpt lat="46.50931779138651" lon="9.862640306496306"><ele>1717.0</ele><time>2026-05-01T13:04:33.999Z</time></trkpt><trkpt lat="46.50919683575813" lon="9.862540059436895"><ele>1717.0</ele><time>2026-05-01T13:04:34.999Z</time></trkpt><trkpt lat="46.50907282645192" lon="9.862423042227302"><ele>1717.0</ele><time>2026-05-01T13:04:35.999Z</time></trkpt><trkpt lat="46.50895503814697" lon="9.862295490980276"><ele>1717.0</ele><time>2026-05-01T13:04:36.999Z</time></trkpt><trkpt lat="46.50885992668507" lon="9.862165931340428"><ele>1717.0</ele><time>2026-05-01T13:04:37.999Z</time></trkpt><trkpt lat="46.50878461185492" lon="9.862035292260808"><ele>1716.9999999999998</ele><time>2026-05-01T13:04:38.999Z</time></trkpt><trkpt lat="46.50873078598555" lon="9.86190421215702"><ele>1716.9999999999998</ele><time>2026-05-01T13:04:39.999Z</time></trkpt><trkpt lat="46.508685980581845" lon="9.86178082297668"><ele>1717.0</ele><time>2026-05-01T13:04:40.999Z</time></trkpt><trkpt lat="46.508660555496064" lon="9.861651977012194"><ele>1717.0</ele><time>2026-05-01T13:04:41.999Z</time></trkpt><trkpt lat="46.50866564002227" lon="9.861518704836294"><ele>1717.1999999999998</ele><time>2026-05-01T13:04:42.999Z</time></trkpt><trkpt lat="46.508706532301446" lon="9.861395868667028"><ele>1717.3999999999999</ele><time>2026-05-01T13:04:43.999Z</time></trkpt><trkpt lat="46.50878109272833" lon="9.861308074600213"><ele>1717.6000000000001</ele><time>2026-05-01T13:04:44.999Z</time></trkpt><trkpt lat="46.50888430980428" lon="9.861273935943972"><ele>1717.8000000000002</ele><time>2026-05-01T13:04:45.999Z</time></trkpt><trkpt lat="46.508989911160384" lon="9.861301502121307"><ele>1718.0</ele><time>2026-05-01T13:04:46.999Z</time></trkpt><trkpt lat="46.50908135378775" lon="9.8613967732461"><ele>1718.0</ele><time>2026-05-01T13:04:47.999Z</time></trkpt><trkpt lat="46.509168271413266" lon="9.861540766477923"><ele>1718.0</ele><time>2026-05-01T13:04:48.999Z</time></trkpt><trkpt lat="46.509232438033315" lon="9.861718417890959"><ele>1718.0</ele><time>2026-05-01T13:04:49.999Z</time></trkpt><trkpt lat="46.50934784832096" lon="9.861887766029424"><ele>1718.0</ele><time>2026-05-01T13:04:50.999Z</time></trkpt><trkpt lat="46.509408935526906" lon="9.862171391689673"><ele>1717.6666666666665</ele><time>2026-05-01T13:04:51.999Z</time></trkpt><trkpt lat="46.509496744249276" lon="9.862431384102715"><ele>1717.3333333333335</ele><time>2026-05-01T13:04:52.999Z</time></trkpt><trkpt lat="46.50958111784233" lon="9.862687249839544"><ele>1717.0</ele><time>2026-05-01T13:04:53.999Z</time></trkpt><trkpt lat="46.50967530143568" lon="9.862971564600691"><ele>1716.5</ele><time>2026-05-01T13:04:54.999Z</time></trkpt><trkpt lat="46.509770161789916" lon="9.86329049896685"><ele>1716.0</ele><time>2026-05-01T13:04:55.999Z</time></trkpt><trkpt lat="46.509854104374384" lon="9.863631160403152"><ele>1716.0</ele><time>2026-05-01T13:04:56.999Z</time></trkpt><trkpt lat="46.50992619747672" lon="9.863962134372013"><ele>1716.0</ele><time>2026-05-01T13:04:57.999Z</time></trkpt><trkpt lat="46.50999431839374" lon="9.864303555214777"><ele>1716.5</ele><time>2026-05-01T13:04:58.999Z</time></trkpt><trkpt lat="46.5100601770316" lon="9.864652538328397"><ele>1717.0</ele><time>2026-05-01T13:04:59.999Z</time></trkpt><trkpt lat="46.510124944910785" lon="9.864992317286816"><ele>1717.0</ele><time>2026-05-01T13:05:00.999Z</time></trkpt><trkpt lat="46.510194109966754" lon="9.865333241965198"><ele>1717.0</ele><time>2026-05-01T13:05:01.999Z</time></trkpt><trkpt lat="46.51026674455936" lon="9.865681072956374"><ele>1717.5</ele><time>2026-05-01T13:05:02.999Z</time></trkpt><trkpt lat="46.51034294511276" lon="9.866038095296192"><ele>1718.0</ele><time>2026-05-01T13:05:03.999Z</time></trkpt><trkpt lat="46.51042174290841" lon="9.866405423384261"><ele>1717.0</ele><time>2026-05-01T13:05:04.999Z</time></trkpt><trkpt lat="46.5105041636969" lon="9.866777499433315"><ele>1716.0</ele><time>2026-05-01T13:05:05.999Z</time></trkpt><trkpt lat="46.5105876379197" lon="9.86714787166456"><ele>1715.5</ele><time>2026-05-01T13:05:06.999Z</time></trkpt><trkpt lat="46.510676494455005" lon="9.867522521249704"><ele>1715.0</ele><time>2026-05-01T13:05:07.999Z</time></trkpt><trkpt lat="46.510763237199235" lon="9.867898658340076"><ele>1714.5</ele><time>2026-05-01T13:05:08.999Z</time></trkpt><trkpt lat="46.510854333123376" lon="9.868281700922138"><ele>1714.0</ele><time>2026-05-01T13:05:09.999Z</time></trkpt><trkpt lat="46.51095072042407" lon="9.868666585742167"><ele>1715.0</ele><time>2026-05-01T13:05:10.999Z</time></trkpt><trkpt lat="46.51104849227718" lon="9.869055492489812"><ele>1716.0</ele><time>2026-05-01T13:05:11.999Z</time></trkpt><trkpt lat="46.51114545358431" lon="9.869423642621848"><ele>1716.5</ele><time>2026-05-01T13:05:12.999Z</time></trkpt><trkpt lat="46.51123521562676" lon="9.869770042446515"><ele>1717.0</ele><time>2026-05-01T13:05:13.999Z</time></trkpt><trkpt lat="46.5113266687837" lon="9.870101482913146"><ele>1717.5</ele><time>2026-05-01T13:05:14.999Z</time></trkpt><trkpt lat="46.51141742937728" lon="9.870425079716162"><ele>1718.0</ele><time>2026-05-01T13:05:15.999Z</time></trkpt><trkpt lat="46.511512007672415" lon="9.870751151896055"><ele>1720.0</ele><time>2026-05-01T13:05:16.999Z</time></trkpt><trkpt lat="46.51160326922206" lon="9.87107254637839"><ele>1722.0</ele><time>2026-05-01T13:05:17.999Z</time></trkpt><trkpt lat="46.51169608557125" lon="9.87139323071786"><ele>1722.0</ele><time>2026-05-01T13:05:18.999Z</time></trkpt><trkpt lat="46.51178563572895" lon="9.871698322025537"><ele>1722.0</ele><time>2026-05-01T13:05:19.999Z</time></trkpt><trkpt lat="46.5118689943481" lon="9.871993049489356"><ele>1722.0</ele><time>2026-05-01T13:05:20.999Z</time></trkpt><trkpt lat="46.51194106326101" lon="9.87228023422445"><ele>1723.3333333333335</ele><time>2026-05-01T13:05:21.999Z</time></trkpt><trkpt lat="46.51199507930112" lon="9.872573194973695"><ele>1724.6666666666667</ele><time>2026-05-01T13:05:22.999Z</time></trkpt><trkpt lat="46.5120257233754" lon="9.872873042071937"><ele>1726.0</ele><time>2026-05-01T13:05:23.999Z</time></trkpt><trkpt lat="46.51203533322919" lon="9.873163298230136"><ele>1727.0</ele><time>2026-05-01T13:05:24.999Z</time></trkpt><trkpt lat="46.512023686785355" lon="9.873481737407005"><ele>1728.0</ele><time>2026-05-01T13:05:25.999Z</time></trkpt><trkpt lat="46.512002773807424" lon="9.873808421140515"><ele>1729.0</ele><time>2026-05-01T13:05:26.999Z</time></trkpt><trkpt lat="46.511955695347076" lon="9.874123930157637"><ele>1728.3333333333335</ele><time>2026-05-01T13:05:27.999Z</time></trkpt><trkpt lat="46.51189330890573" lon="9.874417337689264"><ele>1727.6666666666665</ele><time>2026-05-01T13:05:28.999Z</time></trkpt><trkpt lat="46.51181685640713" lon="9.874690819886968"><ele>1727.0</ele><time>2026-05-01T13:05:29.999Z</time></trkpt><trkpt lat="46.511749383890866" lon="9.87494087689975"><ele>1726.0</ele><time>2026-05-01T13:05:30.998Z</time></trkpt><trkpt lat="46.511683842927404" lon="9.875174946384089"><ele>1725.0</ele><time>2026-05-01T13:05:31.998Z</time></trkpt><trkpt lat="46.511626034864406" lon="9.875399056788451"><ele>1724.0</ele><time>2026-05-01T13:05:32.998Z</time></trkpt><trkpt lat="46.51157272884956" lon="9.875619361125343"><ele>1724.0</ele><time>2026-05-01T13:05:33.998Z</time></trkpt><trkpt lat="46.511519327039494" lon="9.875826276892163"><ele>1724.0</ele><time>2026-05-01T13:05:34.998Z</time></trkpt><trkpt lat="46.51146702852563" lon="9.876026688842652"><ele>1724.0</ele><time>2026-05-01T13:05:35.998Z</time></trkpt><trkpt lat="46.51142010372825" lon="9.876218141397858"><ele>1724.0</ele><time>2026-05-01T13:05:36.998Z</time></trkpt><trkpt lat="46.51137218780984" lon="9.876414589484302"><ele>1724.25</ele><time>2026-05-01T13:05:37.998Z</time></trkpt><trkpt lat="46.511336384332175" lon="9.876606465127693"><ele>1724.5</ele><time>2026-05-01T13:05:38.998Z</time></trkpt><trkpt lat="46.5113230963861" lon="9.876792995509806"><ele>1724.75</ele><time>2026-05-01T13:05:39.998Z</time></trkpt><trkpt lat="46.51132874633145" lon="9.876980658871487"><ele>1725.0</ele><time>2026-05-01T13:05:40.998Z</time></trkpt><trkpt lat="46.511360777199975" lon="9.877157926527216"><ele>1725.0</ele><time>2026-05-01T13:05:41.998Z</time></trkpt><trkpt lat="46.511391934659045" lon="9.877314292159454"><ele>1725.0</ele><time>2026-05-01T13:05:42.998Z</time></trkpt><trkpt lat="46.51141306489083" lon="9.877462341896898"><ele>1725.0</ele><time>2026-05-01T13:05:43.999Z</time></trkpt><trkpt lat="46.511426824288485" lon="9.877598279621134"><ele>1725.0</ele><time>2026-05-01T13:05:44.999Z</time></trkpt><trkpt lat="46.5114381297651" lon="9.877732658826353"><ele>1725.0</ele><time>2026-05-01T13:05:45.999Z</time></trkpt><trkpt lat="46.511440251817476" lon="9.8778619097447"><ele>1725.3333333333333</ele><time>2026-05-01T13:05:46.999Z</time></trkpt><trkpt lat="46.51143886433951" lon="9.877981304265798"><ele>1725.6666666666665</ele><time>2026-05-01T13:05:47.999Z</time></trkpt><trkpt lat="46.51143485911072" lon="9.878103559362161"><ele>1726.0</ele><time>2026-05-01T13:05:48.999Z</time></trkpt><trkpt lat="46.511427516348554" lon="9.878215396612704"><ele>1726.3333333333333</ele><time>2026-05-01T13:05:49.999Z</time></trkpt><trkpt lat="46.51141417072615" lon="9.878321008210412"><ele>1726.6666666666665</ele><time>2026-05-01T13:05:50.999Z</time></trkpt><trkpt lat="46.511395364517774" lon="9.878415137047579"><ele>1727.0</ele><time>2026-05-01T13:05:51.999Z</time></trkpt><trkpt lat="46.51136547150221" lon="9.87850260025127"><ele>1726.9999999999998</ele><time>2026-05-01T13:05:52.999Z</time></trkpt><trkpt lat="46.511326000620585" lon="9.878589494213006"><ele>1727.0</ele><time>2026-05-01T13:05:53.999Z</time></trkpt><trkpt lat="46.51128675882901" lon="9.878672331611718"><ele>1727.0</ele><time>2026-05-01T13:05:54.999Z</time></trkpt><trkpt lat="46.51125390114585" lon="9.87876229283558"><ele>1727.0</ele><time>2026-05-01T13:05:55.999Z</time></trkpt><trkpt lat="46.51122959523005" lon="9.878862301064606"><ele>1726.9999999999998</ele><time>2026-05-01T13:05:56.999Z</time></trkpt><trkpt lat="46.51119291166384" lon="9.878972214989073"><ele>1727.0</ele><time>2026-05-01T13:05:57.999Z</time></trkpt><trkpt lat="46.51112874867007" lon="9.879084572398732"><ele>1727.0</ele><time>2026-05-01T13:05:58.999Z</time></trkpt><trkpt lat="46.51103883832918" lon="9.879183175280383"><ele>1727.0</ele><time>2026-05-01T13:05:59.999Z</time></trkpt><trkpt lat="46.510903704259505" lon="9.879300151139317"><ele>1727.0</ele><time>2026-05-01T13:06:00.999Z</time></trkpt><trkpt lat="46.510758266405325" lon="9.879413158536856"><ele>1727.0</ele><time>2026-05-01T13:06:01.999Z</time></trkpt><trkpt lat="46.51064954578671" lon="9.879497495122147"><ele>1726.6666666666665</ele><time>2026-05-01T13:06:02.999Z</time></trkpt><trkpt lat="46.510521028483396" lon="9.879612848721465"><ele>1726.3333333333335</ele><time>2026-05-01T13:06:03.999Z</time></trkpt><trkpt lat="46.510368101030465" lon="9.879747755948934"><ele>1726.0</ele><time>2026-05-01T13:06:04.999Z</time></trkpt><trkpt lat="46.51021758108352" lon="9.879864514326464"><ele>1727.3333333333335</ele><time>2026-05-01T13:06:05.999Z</time></trkpt><trkpt lat="46.510061468438046" lon="9.879998672113919"><ele>1728.6666666666665</ele><time>2026-05-01T13:06:06.999Z</time></trkpt><trkpt lat="46.509908700351446" lon="9.880131730412378"><ele>1730.0</ele><time>2026-05-01T13:06:07.999Z</time></trkpt><trkpt lat="46.50975340222639" lon="9.880281648177302"><ele>1730.5</ele><time>2026-05-01T13:06:08.999Z</time></trkpt><trkpt lat="46.50958007353892" lon="9.880460895376354"><ele>1731.0</ele><time>2026-05-01T13:06:09.999Z</time></trkpt><trkpt lat="46.509332509808274" lon="9.880672227769368"><ele>1732.0</ele><time>2026-05-01T13:06:10.999Z</time></trkpt><trkpt lat="46.50910276035509" lon="9.880887788807604"><ele>1733.0</ele><time>2026-05-01T13:06:11.999Z</time></trkpt><trkpt lat="46.50896201938447" lon="9.8810962513043"><ele>1733.3333333333333</ele><time>2026-05-01T13:06:12.999Z</time></trkpt><trkpt lat="46.50903362500862" lon="9.88119680211471"><ele>1733.6666666666665</ele><time>2026-05-01T13:06:13.999Z</time></trkpt><trkpt lat="46.508911257601" lon="9.881399809169249"><ele>1734.0</ele><time>2026-05-01T13:06:14.999Z</time></trkpt><trkpt lat="46.50879289377065" lon="9.881613546298095"><ele>1734.0</ele><time>2026-05-01T13:06:15.999Z</time></trkpt><trkpt lat="46.50868090356114" lon="9.881821491957567"><ele>1734.0</ele><time>2026-05-01T13:06:16.999Z</time></trkpt><trkpt lat="46.508578444037845" lon="9.882030981081932"><ele>1734.0</ele><time>2026-05-01T13:06:17.999Z</time></trkpt><trkpt lat="46.508476914116315" lon="9.882236118379112"><ele>1734.0</ele><time>2026-05-01T13:06:18.999Z</time></trkpt><trkpt lat="46.5083790369868" lon="9.882439342975237"><ele>1734.0</ele><time>2026-05-01T13:06:19.999Z</time></trkpt><trkpt lat="46.50827703377985" lon="9.882663739836648"><ele>1734.0</ele><time>2026-05-01T13:06:20.999Z</time></trkpt><trkpt lat="46.50817867470172" lon="9.882879754612821"><ele>1735.3333333333335</ele><time>2026-05-01T13:06:21.999Z</time></trkpt><trkpt lat="46.50807857409019" lon="9.883095410260845"><ele>1736.6666666666667</ele><time>2026-05-01T13:06:22.999Z</time></trkpt><trkpt lat="46.50798082702034" lon="9.883304269651786"><ele>1738.0</ele><time>2026-05-01T13:06:23.999Z</time></trkpt><trkpt lat="46.5078718078373" lon="9.883515499586464"><ele>1738.0</ele><time>2026-05-01T13:06:24.999Z</time></trkpt><trkpt lat="46.50775524842676" lon="9.883735590714608"><ele>1738.0</ele><time>2026-05-01T13:06:25.999Z</time></trkpt><trkpt lat="46.50762215240503" lon="9.883950747537723"><ele>1738.0</ele><time>2026-05-01T13:06:26.999Z</time></trkpt><trkpt lat="46.50748155011063" lon="9.884171241105577"><ele>1737.3333333333335</ele><time>2026-05-01T13:06:27.999Z</time></trkpt><trkpt lat="46.5073304527462" lon="9.884388623943352"><ele>1736.6666666666665</ele><time>2026-05-01T13:06:28.999Z</time></trkpt><trkpt lat="46.50717117398074" lon="9.884594179063127"><ele>1736.0</ele><time>2026-05-01T13:06:29.999Z</time></trkpt><trkpt lat="46.50701369385287" lon="9.884795673407808"><ele>1736.0</ele><time>2026-05-01T13:06:30.999Z</time></trkpt><trkpt lat="46.50684998630928" lon="9.884987793245857"><ele>1736.0</ele><time>2026-05-01T13:06:31.999Z</time></trkpt><trkpt lat="46.50669325046124" lon="9.885173936127208"><ele>1736.0</ele><time>2026-05-01T13:06:32.999Z</time></trkpt><trkpt lat="46.50653585139801" lon="9.885356721044062"><ele>1737.6666666666665</ele><time>2026-05-01T13:06:33.999Z</time></trkpt><trkpt lat="46.5063771050546" lon="9.885543180980019"><ele>1739.3333333333335</ele><time>2026-05-01T13:06:34.999Z</time></trkpt><trkpt lat="46.506230507899645" lon="9.88571138762742"><ele>1741.0</ele><time>2026-05-01T13:06:35.999Z</time></trkpt><trkpt lat="46.50608087332437" lon="9.885847767292832"><ele>1744.0</ele><time>2026-05-01T13:06:36.999Z</time></trkpt><trkpt lat="46.50595176309412" lon="9.886009791350906"><ele>1747.0</ele><time>2026-05-01T13:06:37.999Z</time></trkpt><trkpt lat="46.50579088437284" lon="9.886133739567596"><ele>1750.0</ele><time>2026-05-01T13:06:38.999Z</time></trkpt><trkpt lat="46.505615603143625" lon="9.88622589040803"><ele>1750.0</ele><time>2026-05-01T13:06:39.999Z</time></trkpt><trkpt lat="46.50543916377056" lon="9.886298668459894"><ele>1750.0</ele><time>2026-05-01T13:06:40.999Z</time></trkpt><trkpt lat="46.505266151496926" lon="9.886322561410696"><ele>1750.0</ele><time>2026-05-01T13:06:41.999Z</time></trkpt><trkpt lat="46.505107957199364" lon="9.886385288927151"><ele>1750.3333333333335</ele><time>2026-05-01T13:06:42.999Z</time></trkpt><trkpt lat="46.50493227871647" lon="9.886414138477262"><ele>1750.6666666666665</ele><time>2026-05-01T13:06:43.999Z</time></trkpt><trkpt lat="46.50476031333816" lon="9.886465776042508"><ele>1751.0</ele><time>2026-05-01T13:06:44.999Z</time></trkpt><trkpt lat="46.5045829102911" lon="9.886526397002543"><ele>1750.3333333333333</ele><time>2026-05-01T13:06:45.999Z</time></trkpt><trkpt lat="46.50439875355538" lon="9.886599703996984"><ele>1749.6666666666665</ele><time>2026-05-01T13:06:46.999Z</time></trkpt><trkpt lat="46.50422085531091" lon="9.886702695609483"><ele>1749.0</ele><time>2026-05-01T13:06:47.999Z</time></trkpt><trkpt lat="46.50405002007349" lon="9.886802688026561"><ele>1750.6666666666665</ele><time>2026-05-01T13:06:48.999Z</time></trkpt><trkpt lat="46.50389818316205" lon="9.886917046369367"><ele>1752.3333333333333</ele><time>2026-05-01T13:06:49.999Z</time></trkpt><trkpt lat="46.50373532959589" lon="9.887042761657378"><ele>1754.0</ele><time>2026-05-01T13:06:50.999Z</time></trkpt><trkpt lat="46.50358451030517" lon="9.887173362097572"><ele>1754.0</ele><time>2026-05-01T13:06:51.999Z</time></trkpt><trkpt lat="46.503425316379044" lon="9.887309747836621"><ele>1754.0</ele><time>2026-05-01T13:06:52.999Z</time></trkpt><trkpt lat="46.503262707443895" lon="9.887442868081266"><ele>1754.0</ele><time>2026-05-01T13:06:53.999Z</time></trkpt><trkpt lat="46.503089721034996" lon="9.887552923899557"><ele>1753.3333333333333</ele><time>2026-05-01T13:06:54.999Z</time></trkpt><trkpt lat="46.50290928431694" lon="9.88766461922943"><ele>1752.6666666666665</ele><time>2026-05-01T13:06:55.999Z</time></trkpt><trkpt lat="46.50271647622986" lon="9.88778816308719"><ele>1752.0</ele><time>2026-05-01T13:06:56.999Z</time></trkpt><trkpt lat="46.50251938628386" lon="9.887896545134778"><ele>1752.0</ele><time>2026-05-01T13:06:57.999Z</time></trkpt><trkpt lat="46.5023158461683" lon="9.888009384609902"><ele>1752.0</ele><time>2026-05-01T13:06:58.999Z</time></trkpt><trkpt lat="46.502109823762495" lon="9.888122012266848"><ele>1752.0</ele><time>2026-05-01T13:06:59.999Z</time></trkpt><trkpt lat="46.5019003732445" lon="9.888230500383536"><ele>1749.3333333333335</ele><time>2026-05-01T13:07:00.999Z</time></trkpt><trkpt lat="46.501691444015314" lon="9.888339326306994"><ele>1746.6666666666667</ele><time>2026-05-01T13:07:01.999Z</time></trkpt><trkpt lat="46.50147950151133" lon="9.888458878453374"><ele>1744.0</ele><time>2026-05-01T13:07:02.999Z</time></trkpt><trkpt lat="46.501272482567" lon="9.888571703784756"><ele>1743.5</ele><time>2026-05-01T13:07:03.999Z</time></trkpt><trkpt lat="46.5010639056854" lon="9.888688459413782"><ele>1743.0</ele><time>2026-05-01T13:07:04.999Z</time></trkpt><trkpt lat="46.50084848852252" lon="9.888804681898398"><ele>1743.0</ele><time>2026-05-01T13:07:05.999Z</time></trkpt><trkpt lat="46.50063225057305" lon="9.88891852948658"><ele>1743.0</ele><time>2026-05-01T13:07:06.999Z</time></trkpt><trkpt lat="46.50041747877855" lon="9.889037060650507"><ele>1743.0</ele><time>2026-05-01T13:07:07.999Z</time></trkpt><trkpt lat="46.500200456402354" lon="9.889140763375526"><ele>1743.0</ele><time>2026-05-01T13:07:08.999Z</time></trkpt><trkpt lat="46.499991091342494" lon="9.889271580146396"><ele>1743.0</ele><time>2026-05-01T13:07:09.999Z</time></trkpt><trkpt lat="46.49980106284333" lon="9.889417081472065"><ele>1743.0</ele><time>2026-05-01T13:07:10.999Z</time></trkpt><trkpt lat="46.49961467478647" lon="9.889520557767923"><ele>1743.0</ele><time>2026-05-01T13:07:11.999Z</time></trkpt><trkpt lat="46.49944171790541" lon="9.889640128725473"><ele>1744.6666666666665</ele><time>2026-05-01T13:07:12.999Z</time></trkpt><trkpt lat="46.49926639154463" lon="9.889775465299582"><ele>1746.3333333333333</ele><time>2026-05-01T13:07:13.999Z</time></trkpt><trkpt lat="46.49909269188128" lon="9.889902128706455"><ele>1748.0</ele><time>2026-05-01T13:07:14.999Z</time></trkpt><trkpt lat="46.49893045844697" lon="9.890017626161388"><ele>1748.3333333333333</ele><time>2026-05-01T13:07:15.999Z</time></trkpt><trkpt lat="46.49877184776669" lon="9.890143249673148"><ele>1748.6666666666665</ele><time>2026-05-01T13:07:16.999Z</time></trkpt><trkpt lat="46.498613866434766" lon="9.890276037334091"><ele>1749.0</ele><time>2026-05-01T13:07:17.999Z</time></trkpt><trkpt lat="46.498450970429296" lon="9.89041734289859"><ele>1749.0</ele><time>2026-05-01T13:07:18.999Z</time></trkpt><trkpt lat="46.49828578240789" lon="9.890567544971734"><ele>1749.0</ele><time>2026-05-01T13:07:19.999Z</time></trkpt><trkpt lat="46.4981193622905" lon="9.890706836365949"><ele>1749.0</ele><time>2026-05-01T13:07:20.999Z</time></trkpt><trkpt lat="46.497953988921005" lon="9.890856031566125"><ele>1750.3333333333335</ele><time>2026-05-01T13:07:21.999Z</time></trkpt><trkpt lat="46.49778719632186" lon="9.891015122885308"><ele>1751.6666666666667</ele><time>2026-05-01T13:07:22.999Z</time></trkpt><trkpt lat="46.49761613569961" lon="9.89116822747879"><ele>1753.0</ele><time>2026-05-01T13:07:23.999Z</time></trkpt><trkpt lat="46.497450249368896" lon="9.891328239213637"><ele>1753.0</ele><time>2026-05-01T13:07:24.999Z</time></trkpt><trkpt lat="46.497284673043204" lon="9.891497446886483"><ele>1753.0</ele><time>2026-05-01T13:07:25.999Z</time></trkpt><trkpt lat="46.49710824621102" lon="9.89168041860441"><ele>1753.0</ele><time>2026-05-01T13:07:26.999Z</time></trkpt><trkpt lat="46.49692802590457" lon="9.891855278667657"><ele>1752.3333333333335</ele><time>2026-05-01T13:07:27.999Z</time></trkpt><trkpt lat="46.496754660062194" lon="9.892024219702508"><ele>1751.6666666666665</ele><time>2026-05-01T13:07:28.999Z</time></trkpt><trkpt lat="46.496583157903636" lon="9.892203976320664"><ele>1751.0</ele><time>2026-05-01T13:07:29.999Z</time></trkpt><trkpt lat="46.496419491095054" lon="9.892357860675691"><ele>1751.0</ele><time>2026-05-01T13:07:30.999Z</time></trkpt><trkpt lat="46.49626461634315" lon="9.892487834707378"><ele>1751.0</ele><time>2026-05-01T13:07:31.999Z</time></trkpt><trkpt lat="46.496054408425636" lon="9.892729073413475"><ele>1751.0</ele><time>2026-05-01T13:07:32.999Z</time></trkpt><trkpt lat="46.495899128966784" lon="9.892912738039414"><ele>1752.0</ele><time>2026-05-01T13:07:33.999Z</time></trkpt><trkpt lat="46.49572949330638" lon="9.893094086206228"><ele>1753.0</ele><time>2026-05-01T13:07:34.999Z</time></trkpt><trkpt lat="46.49555561060375" lon="9.89326876205849"><ele>1754.0</ele><time>2026-05-01T13:07:35.999Z</time></trkpt><trkpt lat="46.495393907316" lon="9.893440248701852"><ele>1754.0</ele><time>2026-05-01T13:07:36.999Z</time></trkpt><trkpt lat="46.49523266415944" lon="9.893606784863263"><ele>1754.0</ele><time>2026-05-01T13:07:37.999Z</time></trkpt><trkpt lat="46.49506663062186" lon="9.893773121044891"><ele>1754.0</ele><time>2026-05-01T13:07:38.999Z</time></trkpt><trkpt lat="46.49490672919013" lon="9.893939927281243"><ele>1754.0</ele><time>2026-05-01T13:07:39.999Z</time></trkpt><trkpt lat="46.49474682263945" lon="9.894114558559714"><ele>1754.0</ele><time>2026-05-01T13:07:40.999Z</time></trkpt><trkpt lat="46.49457719582014" lon="9.89428932692795"><ele>1754.0</ele><time>2026-05-01T13:07:41.998Z</time></trkpt><trkpt lat="46.49440589056646" lon="9.894460362287036"><ele>1755.0</ele><time>2026-05-01T13:07:42.998Z</time></trkpt><trkpt lat="46.49423249660278" lon="9.894634695044836"><ele>1756.0</ele><time>2026-05-01T13:07:43.998Z</time></trkpt><trkpt lat="46.49405815420995" lon="9.894811810185836"><ele>1757.0</ele><time>2026-05-01T13:07:44.998Z</time></trkpt><trkpt lat="46.493884535701945" lon="9.894987084610195"><ele>1759.6666666666665</ele><time>2026-05-01T13:07:45.998Z</time></trkpt><trkpt lat="46.49370692288834" lon="9.895167024162625"><ele>1762.3333333333335</ele><time>2026-05-01T13:07:46.998Z</time></trkpt><trkpt lat="46.49352725721174" lon="9.895344365225574"><ele>1765.0</ele><time>2026-05-01T13:07:47.998Z</time></trkpt><trkpt lat="46.49335470634272" lon="9.895525358324463"><ele>1765.0</ele><time>2026-05-01T13:07:48.998Z</time></trkpt><trkpt lat="46.49318629062929" lon="9.895705558317431"><ele>1765.0</ele><time>2026-05-01T13:07:49.999Z</time></trkpt><trkpt lat="46.49302512171503" lon="9.895879992014738"><ele>1765.0</ele><time>2026-05-01T13:07:50.999Z</time></trkpt><trkpt lat="46.492856401262685" lon="9.896044279399547"><ele>1765.3333333333335</ele><time>2026-05-01T13:07:51.999Z</time></trkpt><trkpt lat="46.49270244134943" lon="9.896210293034981"><ele>1765.6666666666665</ele><time>2026-05-01T13:07:52.999Z</time></trkpt><trkpt lat="46.49255242414897" lon="9.89636814245425"><ele>1766.0</ele><time>2026-05-01T13:07:53.999Z</time></trkpt><trkpt lat="46.49240639072494" lon="9.8965234394544"><ele>1766.0</ele><time>2026-05-01T13:07:54.999Z</time></trkpt><trkpt lat="46.49227373215378" lon="9.896700107934969"><ele>1766.0</ele><time>2026-05-01T13:07:55.999Z</time></trkpt><trkpt lat="46.49214182689591" lon="9.89688125787059"><ele>1766.0</ele><time>2026-05-01T13:07:56.999Z</time></trkpt><trkpt lat="46.492023980313185" lon="9.897071045943909"><ele>1765.6666666666665</ele><time>2026-05-01T13:07:57.999Z</time></trkpt><trkpt lat="46.49191063013995" lon="9.897264101694496"><ele>1765.3333333333335</ele><time>2026-05-01T13:07:58.999Z</time></trkpt><trkpt lat="46.49179656657274" lon="9.897434116627888"><ele>1765.0</ele><time>2026-05-01T13:07:59.999Z</time></trkpt><trkpt lat="46.49172350101308" lon="9.89764255005066"><ele>1766.25</ele><time>2026-05-01T13:08:00.999Z</time></trkpt><trkpt lat="46.491648538234635" lon="9.897813338998102"><ele>1767.5</ele><time>2026-05-01T13:08:01.999Z</time></trkpt><trkpt lat="46.49158649404738" lon="9.897977418066905"><ele>1768.75</ele><time>2026-05-01T13:08:02.999Z</time></trkpt><trkpt lat="46.4915307313723" lon="9.898130587891194"><ele>1770.0</ele><time>2026-05-01T13:08:03.999Z</time></trkpt><trkpt lat="46.49147998294704" lon="9.898272768976971"><ele>1770.0</ele><time>2026-05-01T13:08:04.999Z</time></trkpt><trkpt lat="46.49143916063914" lon="9.8983949608509"><ele>1770.0</ele><time>2026-05-01T13:08:05.999Z</time></trkpt><trkpt lat="46.491405150904185" lon="9.898494544665663"><ele>1770.0</ele><time>2026-05-01T13:08:06.999Z</time></trkpt><trkpt lat="46.49137145095369" lon="9.898576697474267"><ele>1770.0</ele><time>2026-05-01T13:08:08Z</time></trkpt><trkpt lat="46.49129732301729" lon="9.89868242337687"><ele>1770.0</ele><time>2026-05-01T13:08:10Z</time></trkpt><trkpt lat="46.49125534378541" lon="9.898754726710628"><ele>1770.0</ele><time>2026-05-01T13:08:11Z</time></trkpt><trkpt lat="46.49124440114237" lon="9.898947878090047"><ele>1771.6</ele><time>2026-05-01T13:08:13Z</time></trkpt><trkpt lat="46.49127512949125" lon="9.89907231989054"><ele>1773.2</ele><time>2026-05-01T13:08:14Z</time></trkpt><trkpt lat="46.491280689478224" lon="9.899214792181917"><ele>1774.8000000000002</ele><time>2026-05-01T13:08:15Z</time></trkpt><trkpt lat="46.4912455281578" lon="9.899375438198579"><ele>1776.4</ele><time>2026-05-01T13:08:16Z</time></trkpt><trkpt lat="46.491195574869266" lon="9.89954530852474"><ele>1778.0</ele><time>2026-05-01T13:08:17Z</time></trkpt><trkpt lat="46.4911450775595" lon="9.899738057178311"><ele>1778.6666666666665</ele><time>2026-05-01T13:08:18Z</time></trkpt><trkpt lat="46.49108924499078" lon="9.899953580142984"><ele>1779.3333333333335</ele><time>2026-05-01T13:08:19Z</time></trkpt><trkpt lat="46.491035178867506" lon="9.900166528367656"><ele>1780.0</ele><time>2026-05-01T13:08:20Z</time></trkpt><trkpt lat="46.490981127122886" lon="9.900360476214798"><ele>1781.6666666666667</ele><time>2026-05-01T13:08:21Z</time></trkpt><trkpt lat="46.4909225293553" lon="9.900552523512168"><ele>1783.3333333333335</ele><time>2026-05-01T13:08:21.999Z</time></trkpt><trkpt lat="46.49084261412275" lon="9.900770156682201"><ele>1785.0</ele><time>2026-05-01T13:08:22.999Z</time></trkpt><trkpt lat="46.490764992859035" lon="9.90096707466248"><ele>1785.6666666666665</ele><time>2026-05-01T13:08:23.999Z</time></trkpt><trkpt lat="46.49068725212603" lon="9.901165077181018"><ele>1786.3333333333333</ele><time>2026-05-01T13:08:24.999Z</time></trkpt><trkpt lat="46.49060274076606" lon="9.90136312602606"><ele>1787.0</ele><time>2026-05-01T13:08:25.999Z</time></trkpt><trkpt lat="46.49051549431695" lon="9.901550746108489"><ele>1789.25</ele><time>2026-05-01T13:08:26.999Z</time></trkpt><trkpt lat="46.49041717250655" lon="9.901708386909904"><ele>1791.5</ele><time>2026-05-01T13:08:27.999Z</time></trkpt><trkpt lat="46.49034190546639" lon="9.901844905358399"><ele>1793.75</ele><time>2026-05-01T13:08:28.999Z</time></trkpt><trkpt lat="46.490270181542726" lon="9.901963073010737"><ele>1796.0</ele><time>2026-05-01T13:08:29.999Z</time></trkpt><trkpt lat="46.490199378741536" lon="9.90209895471565"><ele>1796.0</ele><time>2026-05-01T13:08:30.999Z</time></trkpt><trkpt lat="46.49012332222777" lon="9.902226680505503"><ele>1796.0</ele><time>2026-05-01T13:08:31.999Z</time></trkpt><trkpt lat="46.490043853050075" lon="9.902361497942035"><ele>1796.0</ele><time>2026-05-01T13:08:32.999Z</time></trkpt><trkpt lat="46.4899523589845" lon="9.902481786534972"><ele>1796.0</ele><time>2026-05-01T13:08:33.999Z</time></trkpt><trkpt lat="46.48985829494831" lon="9.902605825021714"><ele>1797.25</ele><time>2026-05-01T13:08:34.999Z</time></trkpt><trkpt lat="46.48976868030075" lon="9.902726744155379"><ele>1798.5</ele><time>2026-05-01T13:08:35.999Z</time></trkpt><trkpt lat="46.489667322820544" lon="9.902845825479682"><ele>1799.75</ele><time>2026-05-01T13:08:36.999Z</time></trkpt><trkpt lat="46.489571420868714" lon="9.902967701239954"><ele>1801.0</ele><time>2026-05-01T13:08:37.999Z</time></trkpt><trkpt lat="46.48946042159039" lon="9.903075841745986"><ele>1802.25</ele><time>2026-05-01T13:08:38.999Z</time></trkpt><trkpt lat="46.48934696799554" lon="9.903179381311876"><ele>1803.5</ele><time>2026-05-01T13:08:39.999Z</time></trkpt><trkpt lat="46.48923333513396" lon="9.903279289181887"><ele>1804.75</ele><time>2026-05-01T13:08:40.999Z</time></trkpt><trkpt lat="46.48912141367563" lon="9.903387745318978"><ele>1806.0</ele><time>2026-05-01T13:08:41.999Z</time></trkpt><trkpt lat="46.48900605142521" lon="9.903498652338458"><ele>1807.5</ele><time>2026-05-01T13:08:42.999Z</time></trkpt><trkpt lat="46.48888325150695" lon="9.903607939319334"><ele>1809.0</ele><time>2026-05-01T13:08:43.999Z</time></trkpt><trkpt lat="46.48876287710457" lon="9.903716745713755"><ele>1810.5</ele><time>2026-05-01T13:08:44.999Z</time></trkpt><trkpt lat="46.488636964824764" lon="9.903825308778108"><ele>1812.0</ele><time>2026-05-01T13:08:45.999Z</time></trkpt><trkpt lat="46.48850844132334" lon="9.903930452222557"><ele>1812.25</ele><time>2026-05-01T13:08:46.999Z</time></trkpt><trkpt lat="46.48837607410629" lon="9.904038086949082"><ele>1812.5</ele><time>2026-05-01T13:08:47.999Z</time></trkpt><trkpt lat="46.488247330680096" lon="9.904153312947239"><ele>1812.75</ele><time>2026-05-01T13:08:48.999Z</time></trkpt><trkpt lat="46.48816865197953" lon="9.904289191704857"><ele>1813.0</ele><time>2026-05-01T13:08:49.999Z</time></trkpt><trkpt lat="46.48805964550727" lon="9.904434146658991"><ele>1814.6666666666667</ele><time>2026-05-01T13:08:50.999Z</time></trkpt><trkpt lat="46.487875279813075" lon="9.904551979968934"><ele>1816.3333333333335</ele><time>2026-05-01T13:08:51.999Z</time></trkpt><trkpt lat="46.487754323680456" lon="9.904685108655285"><ele>1818.0</ele><time>2026-05-01T13:08:52.999Z</time></trkpt><trkpt lat="46.487660044769136" lon="9.90482647775942"><ele>1818.0</ele><time>2026-05-01T13:08:53.999Z</time></trkpt><trkpt lat="46.487556906052795" lon="9.904969237221676"><ele>1818.0</ele><time>2026-05-01T13:08:54.999Z</time></trkpt><trkpt lat="46.48746990617003" lon="9.905116085066714"><ele>1818.0</ele><time>2026-05-01T13:08:55.999Z</time></trkpt><trkpt lat="46.487354320916104" lon="9.905265923024832"><ele>1818.0</ele><time>2026-05-01T13:08:56.999Z</time></trkpt><trkpt lat="46.487269626002146" lon="9.905429029708518"><ele>1816.75</ele><time>2026-05-01T13:08:57.999Z</time></trkpt><trkpt lat="46.48719976993193" lon="9.905583737438608"><ele>1815.5</ele><time>2026-05-01T13:08:58.999Z</time></trkpt><trkpt lat="46.48711180187243" lon="9.905756372810764"><ele>1814.25</ele><time>2026-05-01T13:08:59.999Z</time></trkpt><trkpt lat="46.48702924224589" lon="9.905917101285993"><ele>1813.0</ele><time>2026-05-01T13:09:00.999Z</time></trkpt><trkpt lat="46.48693939647429" lon="9.906083740588118"><ele>1812.0</ele><time>2026-05-01T13:09:01.999Z</time></trkpt><trkpt lat="46.48685706435553" lon="9.906244832005223"><ele>1811.0</ele><time>2026-05-01T13:09:02.999Z</time></trkpt><trkpt lat="46.48678431868855" lon="9.90639797299595"><ele>1810.0</ele><time>2026-05-01T13:09:03.999Z</time></trkpt><trkpt lat="46.48671581418667" lon="9.906542102183275"><ele>1809.0</ele><time>2026-05-01T13:09:04.999Z</time></trkpt><trkpt lat="46.48664485307534" lon="9.906681858016402"><ele>1811.5</ele><time>2026-05-01T13:09:05.999Z</time></trkpt><trkpt lat="46.486572350733944" lon="9.906825241602311"><ele>1814.0</ele><time>2026-05-01T13:09:06.999Z</time></trkpt><trkpt lat="46.486496944595835" lon="9.906969051452503"><ele>1816.5</ele><time>2026-05-01T13:09:07.999Z</time></trkpt><trkpt lat="46.4864190704888" lon="9.907116723784963"><ele>1819.0</ele><time>2026-05-01T13:09:08.999Z</time></trkpt><trkpt lat="46.48634155116297" lon="9.90726824300312"><ele>1819.25</ele><time>2026-05-01T13:09:09.999Z</time></trkpt><trkpt lat="46.48626054205985" lon="9.907425508393517"><ele>1819.5</ele><time>2026-05-01T13:09:10.999Z</time></trkpt><trkpt lat="46.48618067630643" lon="9.90758495932705"><ele>1819.75</ele><time>2026-05-01T13:09:11.999Z</time></trkpt><trkpt lat="46.486093229483814" lon="9.907742834839404"><ele>1820.0</ele><time>2026-05-01T13:09:12.999Z</time></trkpt><trkpt lat="46.48601123144896" lon="9.907901579447019"><ele>1820.0</ele><time>2026-05-01T13:09:13.999Z</time></trkpt><trkpt lat="46.485928757250406" lon="9.908061712583917"><ele>1820.0</ele><time>2026-05-01T13:09:14.999Z</time></trkpt><trkpt lat="46.48584156455718" lon="9.908221672645519"><ele>1820.0</ele><time>2026-05-01T13:09:15.999Z</time></trkpt><trkpt lat="46.48576128386353" lon="9.908376436955004"><ele>1820.0</ele><time>2026-05-01T13:09:16.999Z</time></trkpt><trkpt lat="46.4856828114428" lon="9.908534143715597"><ele>1820.25</ele><time>2026-05-01T13:09:17.999Z</time></trkpt><trkpt lat="46.48559905152461" lon="9.908690504745207"><ele>1820.5</ele><time>2026-05-01T13:09:18.999Z</time></trkpt><trkpt lat="46.48551529576758" lon="9.908842471132335"><ele>1820.75</ele><time>2026-05-01T13:09:19.999Z</time></trkpt><trkpt lat="46.48544218659394" lon="9.90900254424018"><ele>1821.0</ele><time>2026-05-01T13:09:20.999Z</time></trkpt><trkpt lat="46.48536014676356" lon="9.909158462110362"><ele>1821.75</ele><time>2026-05-01T13:09:21.999Z</time></trkpt><trkpt lat="46.48528158628617" lon="9.909320060388527"><ele>1822.5</ele><time>2026-05-01T13:09:22.999Z</time></trkpt><trkpt lat="46.485196368860464" lon="9.90948473009922"><ele>1823.25</ele><time>2026-05-01T13:09:23.999Z</time></trkpt><trkpt lat="46.48510650781554" lon="9.909654191882932"><ele>1824.0</ele><time>2026-05-01T13:09:24.999Z</time></trkpt><trkpt lat="46.485026324103565" lon="9.909819154413272"><ele>1824.0</ele><time>2026-05-01T13:09:25.999Z</time></trkpt><trkpt lat="46.48493631039703" lon="9.909984813818928"><ele>1824.0</ele><time>2026-05-01T13:09:26.999Z</time></trkpt><trkpt lat="46.48484073704193" lon="9.910142501326625"><ele>1824.0</ele><time>2026-05-01T13:09:27.999Z</time></trkpt><trkpt lat="46.484753734812266" lon="9.910297062308931"><ele>1824.0</ele><time>2026-05-01T13:09:28.999Z</time></trkpt><trkpt lat="46.48464937311304" lon="9.910461329116067"><ele>1823.0</ele><time>2026-05-01T13:09:29.999Z</time></trkpt><trkpt lat="46.48454005087485" lon="9.910622148927574"><ele>1822.0</ele><time>2026-05-01T13:09:30.999Z</time></trkpt><trkpt lat="46.48443746829491" lon="9.910779892027998"><ele>1821.0</ele><time>2026-05-01T13:09:31.999Z</time></trkpt><trkpt lat="46.48431682672914" lon="9.910953040808163"><ele>1824.0</ele><time>2026-05-01T13:09:32.999Z</time></trkpt><trkpt lat="46.484209367032776" lon="9.91112322968429"><ele>1827.0</ele><time>2026-05-01T13:09:33.999Z</time></trkpt><trkpt lat="46.48409978104601" lon="9.911291135414611"><ele>1830.0</ele><time>2026-05-01T13:09:34.999Z</time></trkpt><trkpt lat="46.483980757803764" lon="9.911458841201169"><ele>1830.0</ele><time>2026-05-01T13:09:35.999Z</time></trkpt><trkpt lat="46.48387169143531" lon="9.91162512260906"><ele>1830.0</ele><time>2026-05-01T13:09:36.999Z</time></trkpt><trkpt lat="46.48376196289491" lon="9.911786627023034"><ele>1830.0</ele><time>2026-05-01T13:09:37.999Z</time></trkpt><trkpt lat="46.48364354851215" lon="9.911930144595567"><ele>1828.25</ele><time>2026-05-01T13:09:38.999Z</time></trkpt><trkpt lat="46.48355020111428" lon="9.912075403625378"><ele>1826.5</ele><time>2026-05-01T13:09:39.999Z</time></trkpt><trkpt lat="46.4834603729954" lon="9.912231220761164"><ele>1824.75</ele><time>2026-05-01T13:09:40.999Z</time></trkpt><trkpt lat="46.483356869544764" lon="9.912386338140442"><ele>1823.0</ele><time>2026-05-01T13:09:41.999Z</time></trkpt><trkpt lat="46.48324937042468" lon="9.912537725812637"><ele>1823.6666666666665</ele><time>2026-05-01T13:09:42.999Z</time></trkpt><trkpt lat="46.483144030297524" lon="9.912692247487092"><ele>1824.3333333333335</ele><time>2026-05-01T13:09:43.999Z</time></trkpt><trkpt lat="46.48303937835911" lon="9.912850702409225"><ele>1825.0</ele><time>2026-05-01T13:09:44.999Z</time></trkpt><trkpt lat="46.48293051988948" lon="9.913007671500033"><ele>1825.0</ele><time>2026-05-01T13:09:45.999Z</time></trkpt><trkpt lat="46.48282178109634" lon="9.913164449660616"><ele>1825.0</ele><time>2026-05-01T13:09:46.999Z</time></trkpt><trkpt lat="46.48271380817189" lon="9.91332493640755"><ele>1825.0</ele><time>2026-05-01T13:09:47.999Z</time></trkpt><trkpt lat="46.4826090979917" lon="9.913477070299479"><ele>1826.0</ele><time>2026-05-01T13:09:48.999Z</time></trkpt><trkpt lat="46.48251274648017" lon="9.913625824433815"><ele>1827.0</ele><time>2026-05-01T13:09:49.999Z</time></trkpt><trkpt lat="46.48240915453613" lon="9.913770998639436"><ele>1828.0</ele><time>2026-05-01T13:09:50.999Z</time></trkpt><trkpt lat="46.482306871413165" lon="9.913918911958081"><ele>1829.0</ele><time>2026-05-01T13:09:51.999Z</time></trkpt><trkpt lat="46.48219822444122" lon="9.914066436016983"><ele>1828.75</ele><time>2026-05-01T13:09:52.999Z</time></trkpt><trkpt lat="46.48209106976177" lon="9.914212479548283"><ele>1828.5</ele><time>2026-05-01T13:09:53.999Z</time></trkpt><trkpt lat="46.48199499576149" lon="9.914369435661857"><ele>1828.25</ele><time>2026-05-01T13:09:54.999Z</time></trkpt><trkpt lat="46.48189220656751" lon="9.914520403090023"><ele>1828.0</ele><time>2026-05-01T13:09:56Z</time></trkpt><trkpt lat="46.48178877225047" lon="9.914672193580104"><ele>1828.0</ele><time>2026-05-01T13:09:57Z</time></trkpt><trkpt lat="46.481685595796336" lon="9.914824657052673"><ele>1828.0</ele><time>2026-05-01T13:09:58Z</time></trkpt><trkpt lat="46.48158491431848" lon="9.91497361014375"><ele>1828.0</ele><time>2026-05-01T13:09:59Z</time></trkpt><trkpt lat="46.4814833045205" lon="9.915120515666533"><ele>1828.0</ele><time>2026-05-01T13:10:00Z</time></trkpt><trkpt lat="46.48138277583468" lon="9.915269382285565"><ele>1828.0</ele><time>2026-05-01T13:10:01Z</time></trkpt><trkpt lat="46.48127888779371" lon="9.915415558721103"><ele>1828.0</ele><time>2026-05-01T13:10:02Z</time></trkpt><trkpt lat="46.4811838592665" lon="9.915567273254013"><ele>1828.0</ele><time>2026-05-01T13:10:03Z</time></trkpt><trkpt lat="46.48109462548839" lon="9.915724293513048"><ele>1828.0</ele><time>2026-05-01T13:10:04Z</time></trkpt><trkpt lat="46.48100605314321" lon="9.915887947515815"><ele>1829.0</ele><time>2026-05-01T13:10:05Z</time></trkpt><trkpt lat="46.48092286957098" lon="9.916058252651645"><ele>1830.0</ele><time>2026-05-01T13:10:06Z</time></trkpt><trkpt lat="46.48084362809676" lon="9.916229235462621"><ele>1831.0</ele><time>2026-05-01T13:10:07Z</time></trkpt><trkpt lat="46.48076399629291" lon="9.916402392734613"><ele>1832.0</ele><time>2026-05-01T13:10:08Z</time></trkpt><trkpt lat="46.480687978519505" lon="9.91658143581861"><ele>1831.75</ele><time>2026-05-01T13:10:09Z</time></trkpt><trkpt lat="46.4806074894479" lon="9.916762252338874"><ele>1831.5</ele><time>2026-05-01T13:10:10Z</time></trkpt><trkpt lat="46.48052608373825" lon="9.916947169049312"><ele>1831.25</ele><time>2026-05-01T13:10:11Z</time></trkpt><trkpt lat="46.480446296348575" lon="9.91713003271476"><ele>1831.0</ele><time>2026-05-01T13:10:12Z</time></trkpt><trkpt lat="46.48036548339608" lon="9.917308946633762"><ele>1831.0</ele><time>2026-05-01T13:10:13Z</time></trkpt><trkpt lat="46.48028135176818" lon="9.917494318501292"><ele>1831.0</ele><time>2026-05-01T13:10:14Z</time></trkpt><trkpt lat="46.48021580188594" lon="9.917684513772944"><ele>1831.0</ele><time>2026-05-01T13:10:15Z</time></trkpt><trkpt lat="46.4801278163686" lon="9.917847246327144"><ele>1831.0</ele><time>2026-05-01T13:10:16Z</time></trkpt><trkpt lat="46.48003770105399" lon="9.91804914387696"><ele>1832.0</ele><time>2026-05-01T13:10:17Z</time></trkpt><trkpt lat="46.479914244979376" lon="9.918327188100015"><ele>1833.0</ele><time>2026-05-01T13:10:18Z</time></trkpt><trkpt lat="46.47981504721263" lon="9.918578233627237"><ele>1834.0</ele><time>2026-05-01T13:10:19Z</time></trkpt><trkpt lat="46.47969828756484" lon="9.918810768953827"><ele>1834.6666666666667</ele><time>2026-05-01T13:10:20Z</time></trkpt><trkpt lat="46.47958794777357" lon="9.919053065579751"><ele>1835.3333333333335</ele><time>2026-05-01T13:10:21Z</time></trkpt><trkpt lat="46.479476064768086" lon="9.919291622789032"><ele>1836.0</ele><time>2026-05-01T13:10:22Z</time></trkpt><trkpt lat="46.479364923938505" lon="9.91954094798584"><ele>1836.0</ele><time>2026-05-01T13:10:23Z</time></trkpt><trkpt lat="46.47924151678463" lon="9.919787488999319"><ele>1836.0</ele><time>2026-05-01T13:10:24Z</time></trkpt><trkpt lat="46.47910045003499" lon="9.920026036635937"><ele>1836.0</ele><time>2026-05-01T13:10:25Z</time></trkpt><trkpt lat="46.47894393474746" lon="9.920250104071414"><ele>1834.0</ele><time>2026-05-01T13:10:26Z</time></trkpt><trkpt lat="46.47876550467061" lon="9.920457009877863"><ele>1832.0</ele><time>2026-05-01T13:10:27Z</time></trkpt><trkpt lat="46.47857382574841" lon="9.9206332409241"><ele>1832.0</ele><time>2026-05-01T13:10:28Z</time></trkpt><trkpt lat="46.47836741920606" lon="9.920845750273244"><ele>1832.0</ele><time>2026-05-01T13:10:29Z</time></trkpt><trkpt lat="46.4781742947896" lon="9.921065249629994"><ele>1835.0</ele><time>2026-05-01T13:10:30Z</time></trkpt><trkpt lat="46.47797637573319" lon="9.921270370154394"><ele>1838.0</ele><time>2026-05-01T13:10:31Z</time></trkpt><trkpt lat="46.47775663223378" lon="9.921472696058993"><ele>1838.0</ele><time>2026-05-01T13:10:32Z</time></trkpt><trkpt lat="46.4775402585509" lon="9.921694518513618"><ele>1838.0</ele><time>2026-05-01T13:10:33Z</time></trkpt><trkpt lat="46.477338487907645" lon="9.92190061719078"><ele>1841.0</ele><time>2026-05-01T13:10:34Z</time></trkpt><trkpt lat="46.47715065334679" lon="9.922106970279572"><ele>1844.0</ele><time>2026-05-01T13:10:35Z</time></trkpt><trkpt lat="46.476967407990976" lon="9.922292658947452"><ele>1844.0</ele><time>2026-05-01T13:10:36Z</time></trkpt><trkpt lat="46.47678076104682" lon="9.922472103513453"><ele>1844.0</ele><time>2026-05-01T13:10:37Z</time></trkpt><trkpt lat="46.476592225403046" lon="9.922638291360302"><ele>1844.0</ele><time>2026-05-01T13:10:38Z</time></trkpt><trkpt lat="46.47639746772207" lon="9.92277796669097"><ele>1846.6666666666665</ele><time>2026-05-01T13:10:39Z</time></trkpt><trkpt lat="46.476204532977384" lon="9.922884897958125"><ele>1849.3333333333335</ele><time>2026-05-01T13:10:40Z</time></trkpt><trkpt lat="46.4760021680069" lon="9.922978060099286"><ele>1852.0</ele><time>2026-05-01T13:10:41Z</time></trkpt><trkpt lat="46.475775429347365" lon="9.92300979106612"><ele>1852.0</ele><time>2026-05-01T13:10:42Z</time></trkpt><trkpt lat="46.47558017922257" lon="9.923060862461519"><ele>1852.0</ele><time>2026-05-01T13:10:43Z</time></trkpt><trkpt lat="46.475385110952395" lon="9.923100101225721"><ele>1852.0</ele><time>2026-05-01T13:10:44Z</time></trkpt><trkpt lat="46.47520124359395" lon="9.923130018262205"><ele>1849.6666666666667</ele><time>2026-05-01T13:10:45Z</time></trkpt><trkpt lat="46.475013489884844" lon="9.9231610047173"><ele>1847.3333333333335</ele><time>2026-05-01T13:10:46Z</time></trkpt><trkpt lat="46.47482778560938" lon="9.923216393454966"><ele>1845.0</ele><time>2026-05-01T13:10:47Z</time></trkpt><trkpt lat="46.47465103776" lon="9.923330064690644"><ele>1846.0</ele><time>2026-05-01T13:10:48Z</time></trkpt><trkpt lat="46.47447633310712" lon="9.923487075480773"><ele>1847.0</ele><time>2026-05-01T13:10:49Z</time></trkpt><trkpt lat="46.47431660803016" lon="9.92367918441105"><ele>1848.0</ele><time>2026-05-01T13:10:50Z</time></trkpt><trkpt lat="46.4741801366192" lon="9.923907174504514"><ele>1848.0</ele><time>2026-05-01T13:10:51Z</time></trkpt><trkpt lat="46.474061338147735" lon="9.924130182725058"><ele>1848.0</ele><time>2026-05-01T13:10:52Z</time></trkpt><trkpt lat="46.473941277627105" lon="9.924343903020128"><ele>1848.0</ele><time>2026-05-01T13:10:53Z</time></trkpt><trkpt lat="46.47379433373998" lon="9.924516790636888"><ele>1846.6666666666665</ele><time>2026-05-01T13:10:54Z</time></trkpt><trkpt lat="46.47363703316694" lon="9.924680919375206"><ele>1845.3333333333333</ele><time>2026-05-01T13:10:55Z</time></trkpt><trkpt lat="46.473468374874244" lon="9.924841023396512"><ele>1844.0</ele><time>2026-05-01T13:10:56Z</time></trkpt><trkpt lat="46.47331024024289" lon="9.925012161556731"><ele>1845.0</ele><time>2026-05-01T13:10:57Z</time></trkpt><trkpt lat="46.47314073256747" lon="9.925168443853211"><ele>1846.0</ele><time>2026-05-01T13:10:58Z</time></trkpt><trkpt lat="46.472970573363206" lon="9.92533545893058"><ele>1847.0</ele><time>2026-05-01T13:10:59Z</time></trkpt><trkpt lat="46.47280046595179" lon="9.92549372410216"><ele>1847.0</ele><time>2026-05-01T13:10:59.999Z</time></trkpt><trkpt lat="46.47262948147165" lon="9.925650895065532"><ele>1847.0</ele><time>2026-05-01T13:11:00.999Z</time></trkpt><trkpt lat="46.47246495742761" lon="9.925804416112468"><ele>1847.0</ele><time>2026-05-01T13:11:01.999Z</time></trkpt><trkpt lat="46.47229497118959" lon="9.925958969788862"><ele>1849.5</ele><time>2026-05-01T13:11:02.999Z</time></trkpt><trkpt lat="46.47209702395987" lon="9.926121092641646"><ele>1852.0</ele><time>2026-05-01T13:11:03.999Z</time></trkpt><trkpt lat="46.47188767048943" lon="9.926315154376216"><ele>1852.0</ele><time>2026-05-01T13:11:04.999Z</time></trkpt><trkpt lat="46.47165408715486" lon="9.926531676066453"><ele>1852.0</ele><time>2026-05-01T13:11:05.999Z</time></trkpt><trkpt lat="46.47141455727442" lon="9.926745968905898"><ele>1854.0</ele><time>2026-05-01T13:11:06.999Z</time></trkpt><trkpt lat="46.47116724286526" lon="9.926949558861969"><ele>1856.0</ele><time>2026-05-01T13:11:07.999Z</time></trkpt><trkpt lat="46.47092589057813" lon="9.92712855877087"><ele>1856.0</ele><time>2026-05-01T13:11:08.999Z</time></trkpt><trkpt lat="46.470701052149096" lon="9.927313945695365"><ele>1856.0</ele><time>2026-05-01T13:11:09.999Z</time></trkpt><trkpt lat="46.47047226504992" lon="9.927479876188945"><ele>1858.0</ele><time>2026-05-01T13:11:10.999Z</time></trkpt><trkpt lat="46.470249032833195" lon="9.927642007879143"><ele>1860.0</ele><time>2026-05-01T13:11:11.999Z</time></trkpt><trkpt lat="46.47002986000255" lon="9.927800242021979"><ele>1860.0</ele><time>2026-05-01T13:11:12.999Z</time></trkpt><trkpt lat="46.469815160167045" lon="9.92795971758838"><ele>1860.0</ele><time>2026-05-01T13:11:13.999Z</time></trkpt><trkpt lat="46.469611185646116" lon="9.92811086192435"><ele>1860.5</ele><time>2026-05-01T13:11:14.999Z</time></trkpt><trkpt lat="46.46941115873429" lon="9.92826136987999"><ele>1861.0</ele><time>2026-05-01T13:11:15.999Z</time></trkpt><trkpt lat="46.46920257529783" lon="9.928411561886108"><ele>1862.5</ele><time>2026-05-01T13:11:16.999Z</time></trkpt><trkpt lat="46.469000326634465" lon="9.928552132663382"><ele>1864.0</ele><time>2026-05-01T13:11:17.999Z</time></trkpt><trkpt lat="46.46879634275645" lon="9.928694550604037"><ele>1863.3333333333335</ele><time>2026-05-01T13:11:18.999Z</time></trkpt><trkpt lat="46.46859465841438" lon="9.928834961432367"><ele>1862.6666666666665</ele><time>2026-05-01T13:11:19.999Z</time></trkpt><trkpt lat="46.46839501467328" lon="9.928985319708946"><ele>1862.0</ele><time>2026-05-01T13:11:20.999Z</time></trkpt><trkpt lat="46.468188951729545" lon="9.929150294645524"><ele>1864.0</ele><time>2026-05-01T13:11:21.999Z</time></trkpt><trkpt lat="46.46798049264458" lon="9.929338922477482"><ele>1866.0</ele><time>2026-05-01T13:11:22.999Z</time></trkpt><trkpt lat="46.46776495713918" lon="9.929537573867874"><ele>1867.0</ele><time>2026-05-01T13:11:23.999Z</time></trkpt><trkpt lat="46.467541332333944" lon="9.929746494646338"><ele>1868.0</ele><time>2026-05-01T13:11:24.999Z</time></trkpt><trkpt lat="46.4673575000313" lon="9.930069172321664"><ele>1867.5</ele><time>2026-05-01T13:11:25.999Z</time></trkpt><trkpt lat="46.46713591519784" lon="9.930310965491374"><ele>1867.0</ele><time>2026-05-01T13:11:26.999Z</time></trkpt><trkpt lat="46.466910325885536" lon="9.930537054669331"><ele>1867.0</ele><time>2026-05-01T13:11:27.999Z</time></trkpt><trkpt lat="46.46669162006399" lon="9.93075618398602"><ele>1867.0</ele><time>2026-05-01T13:11:28.999Z</time></trkpt><trkpt lat="46.46648576243397" lon="9.930990440412298"><ele>1868.0</ele><time>2026-05-01T13:11:29.999Z</time></trkpt><trkpt lat="46.46629089540062" lon="9.931228183979512"><ele>1869.0</ele><time>2026-05-01T13:11:30.999Z</time></trkpt><trkpt lat="46.466112700995694" lon="9.931483741318926"><ele>1874.0</ele><time>2026-05-01T13:11:31.999Z</time></trkpt><trkpt lat="46.46595822544762" lon="9.931751695560795"><ele>1879.0</ele><time>2026-05-01T13:11:32.999Z</time></trkpt><trkpt lat="46.46581930678571" lon="9.932020090358415"><ele>1879.0</ele><time>2026-05-01T13:11:33.999Z</time></trkpt><trkpt lat="46.4656801032946" lon="9.932269642226967"><ele>1879.0</ele><time>2026-05-01T13:11:34.999Z</time></trkpt><trkpt lat="46.46552916749624" lon="9.932481326926778"><ele>1879.0</ele><time>2026-05-01T13:11:35.999Z</time></trkpt><trkpt lat="46.46534669451829" lon="9.932645310688331"><ele>1881.0</ele><time>2026-05-01T13:11:36.999Z</time></trkpt><trkpt lat="46.465152094312195" lon="9.932786047856025"><ele>1883.0</ele><time>2026-05-01T13:11:37.999Z</time></trkpt><trkpt lat="46.464920940138185" lon="9.932906251895298"><ele>1883.0</ele><time>2026-05-01T13:11:38.999Z</time></trkpt><trkpt lat="46.464710853534775" lon="9.933063826152793"><ele>1883.0</ele><time>2026-05-01T13:11:39.999Z</time></trkpt><trkpt lat="46.46451177463712" lon="9.933260386692904"><ele>1882.0</ele><time>2026-05-01T13:11:40.999Z</time></trkpt><trkpt lat="46.46432826816509" lon="9.933485301711954"><ele>1881.0</ele><time>2026-05-01T13:11:41.999Z</time></trkpt><trkpt lat="46.46415307511936" lon="9.933731525309469"><ele>1881.0</ele><time>2026-05-01T13:11:42.999Z</time></trkpt><trkpt lat="46.46398079340435" lon="9.93399443753811"><ele>1881.0</ele><time>2026-05-01T13:11:43.999Z</time></trkpt><trkpt lat="46.46380391415184" lon="9.934241817969289"><ele>1881.5</ele><time>2026-05-01T13:11:44.999Z</time></trkpt><trkpt lat="46.463626115062205" lon="9.934472261846896"><ele>1882.0</ele><time>2026-05-01T13:11:45.999Z</time></trkpt><trkpt lat="46.46344061358508" lon="9.934693203997226"><ele>1882.0</ele><time>2026-05-01T13:11:46.999Z</time></trkpt><trkpt lat="46.463249851993055" lon="9.934902297971108"><ele>1882.0</ele><time>2026-05-01T13:11:47.999Z</time></trkpt><trkpt lat="46.46305714282951" lon="9.935098794466162"><ele>1883.0</ele><time>2026-05-01T13:11:48.999Z</time></trkpt><trkpt lat="46.46287176259224" lon="9.935311221585494"><ele>1884.0</ele><time>2026-05-01T13:11:49.999Z</time></trkpt><trkpt lat="46.46270170057136" lon="9.93554875797711"><ele>1884.0</ele><time>2026-05-01T13:11:50.999Z</time></trkpt><trkpt lat="46.46255085883155" lon="9.935801361885039"><ele>1884.0</ele><time>2026-05-01T13:11:51.999Z</time></trkpt><trkpt lat="46.4624161735167" lon="9.936072402430343"><ele>1889.5</ele><time>2026-05-01T13:11:52.999Z</time></trkpt><trkpt lat="46.46229901972392" lon="9.93636980947143"><ele>1895.0</ele><time>2026-05-01T13:11:53.999Z</time></trkpt><trkpt lat="46.46219849877199" lon="9.936680001402792"><ele>1894.5</ele><time>2026-05-01T13:11:54.999Z</time></trkpt><trkpt lat="46.46209382750116" lon="9.936995144675844"><ele>1894.0</ele><time>2026-05-01T13:11:55.999Z</time></trkpt><trkpt lat="46.46199370409427" lon="9.93731286297538"><ele>1901.0</ele><time>2026-05-01T13:11:56.999Z</time></trkpt><trkpt lat="46.46188593759781" lon="9.937633786531684"><ele>1908.0</ele><time>2026-05-01T13:11:57.999Z</time></trkpt><trkpt lat="46.461771509986875" lon="9.937927536294305"><ele>1908.0</ele><time>2026-05-01T13:11:58.999Z</time></trkpt><trkpt lat="46.46163925593082" lon="9.938182293402445"><ele>1908.0</ele><time>2026-05-01T13:11:59.999Z</time></trkpt><trkpt lat="46.46151363630048" lon="9.938424849980356"><ele>1908.0</ele><time>2026-05-01T13:12:00.999Z</time></trkpt><trkpt lat="46.46141073578482" lon="9.93864376191239"><ele>1908.3333333333335</ele><time>2026-05-01T13:12:02Z</time></trkpt><trkpt lat="46.4613026276436" lon="9.938826941900162"><ele>1908.6666666666667</ele><time>2026-05-01T13:12:03Z</time></trkpt><trkpt lat="46.461164029586556" lon="9.938993648345459"><ele>1909.0</ele><time>2026-05-01T13:12:04Z</time></trkpt><trkpt lat="46.46098895817166" lon="9.939152696017246"><ele>1910.3333333333335</ele><time>2026-05-01T13:12:05Z</time></trkpt><trkpt lat="46.46082474860572" lon="9.939254037271537"><ele>1911.6666666666665</ele><time>2026-05-01T13:12:06Z</time></trkpt><trkpt lat="46.46061729456445" lon="9.939374898480937"><ele>1913.0</ele><time>2026-05-01T13:12:07Z</time></trkpt><trkpt lat="46.46043082175412" lon="9.939562396035495"><ele>1913.0</ele><time>2026-05-01T13:12:08Z</time></trkpt><trkpt lat="46.46024715438386" lon="9.93976894970896"><ele>1913.0</ele><time>2026-05-01T13:12:09Z</time></trkpt><trkpt lat="46.46006785043731" lon="9.939953836359665"><ele>1918.6666666666665</ele><time>2026-05-01T13:12:10Z</time></trkpt><trkpt lat="46.45989850789525" lon="9.940085141082733"><ele>1924.3333333333335</ele><time>2026-05-01T13:12:11Z</time></trkpt><trkpt lat="46.459741710690516" lon="9.94017628838191"><ele>1930.0</ele><time>2026-05-01T13:12:12Z</time></trkpt><trkpt lat="46.459622857725066" lon="9.940241252245324"><ele>1933.0</ele><time>2026-05-01T13:12:13Z</time></trkpt><trkpt lat="46.45948774101559" lon="9.940297627412464"><ele>1936.0</ele><time>2026-05-01T13:12:14Z</time></trkpt><trkpt lat="46.4593580887435" lon="9.940345093118893"><ele>1939.0</ele><time>2026-05-01T13:12:15Z</time></trkpt><trkpt lat="46.459237808618084" lon="9.940382714243437"><ele>1942.0</ele><time>2026-05-01T13:12:16Z</time></trkpt><trkpt lat="46.459127103386" lon="9.940426421322574"><ele>1942.0</ele><time>2026-05-01T13:12:17Z</time></trkpt><trkpt lat="46.45901165514617" lon="9.94048682004827"><ele>1942.0</ele><time>2026-05-01T13:12:18Z</time></trkpt><trkpt lat="46.45889515715509" lon="9.940570681182225"><ele>1942.0</ele><time>2026-05-01T13:12:19Z</time></trkpt><trkpt lat="46.45878845808663" lon="9.940678170790912"><ele>1942.0</ele><time>2026-05-01T13:12:20Z</time></trkpt><trkpt lat="46.458679245400916" lon="9.940795117815673"><ele>1942.0</ele><time>2026-05-01T13:12:21Z</time></trkpt><trkpt lat="46.45857606971807" lon="9.94092675815465"><ele>1942.0</ele><time>2026-05-01T13:12:22Z</time></trkpt><trkpt lat="46.45846478486594" lon="9.941066109517141"><ele>1942.0</ele><time>2026-05-01T13:12:23Z</time></trkpt><trkpt lat="46.458359584978425" lon="9.941185576927042"><ele>1942.0</ele><time>2026-05-01T13:12:24Z</time></trkpt><trkpt lat="46.45826047454644" lon="9.94127296067858"><ele>1942.0</ele><time>2026-05-01T13:12:25Z</time></trkpt><trkpt lat="46.45812540526363" lon="9.941294211323521"><ele>1942.0</ele><time>2026-05-01T13:12:26Z</time></trkpt><trkpt lat="46.45798616342922" lon="9.941275843436289"><ele>1942.0</ele><time>2026-05-01T13:12:27Z</time></trkpt><trkpt lat="46.45781845680207" lon="9.941144678249023"><ele>1939.6666666666667</ele><time>2026-05-01T13:12:28Z</time></trkpt><trkpt lat="46.457665377748874" lon="9.941140862214247"><ele>1937.3333333333335</ele><time>2026-05-01T13:12:29Z</time></trkpt><trkpt lat="46.45749355681543" lon="9.941219050320083"><ele>1935.0</ele><time>2026-05-01T13:12:30Z</time></trkpt><trkpt lat="46.45732681484362" lon="9.941345428572198"><ele>1935.0</ele><time>2026-05-01T13:12:31Z</time></trkpt><trkpt lat="46.45718488011945" lon="9.941526284369159"><ele>1935.0</ele><time>2026-05-01T13:12:32Z</time></trkpt><trkpt lat="46.4570847480825" lon="9.941769373375255"><ele>1935.0</ele><time>2026-05-01T13:12:33Z</time></trkpt><trkpt lat="46.456975329170284" lon="9.94195987738272"><ele>1936.4</ele><time>2026-05-01T13:12:34Z</time></trkpt><trkpt lat="46.45686491623966" lon="9.942097218708422"><ele>1937.8</ele><time>2026-05-01T13:12:35Z</time></trkpt><trkpt lat="46.45676252397469" lon="9.9421630428121"><ele>1939.1999999999998</ele><time>2026-05-01T13:12:36Z</time></trkpt><trkpt lat="46.45668202168916" lon="9.94220739533781"><ele>1940.6</ele><time>2026-05-01T13:12:37Z</time></trkpt><trkpt lat="46.4566275442063" lon="9.94227040470731"><ele>1942.0</ele><time>2026-05-01T13:12:38Z</time></trkpt><trkpt lat="46.45663825367155" lon="9.942378197429157"><ele>1942.0</ele><time>2026-05-01T13:12:39Z</time></trkpt><trkpt lat="46.4567042742179" lon="9.942468605859977"><ele>1941.9999999999998</ele><time>2026-05-01T13:12:40Z</time></trkpt><trkpt lat="46.45678411088403" lon="9.942503334281394"><ele>1941.9999999999998</ele><time>2026-05-01T13:12:41Z</time></trkpt><trkpt lat="46.45686926658931" lon="9.94245984603199"><ele>1942.0</ele><time>2026-05-01T13:12:42Z</time></trkpt><trkpt lat="46.45695713062313" lon="9.942359632046955"><ele>1942.0</ele><time>2026-05-01T13:12:43Z</time></trkpt><trkpt lat="46.457044138097416" lon="9.942256477039782"><ele>1945.0</ele><time>2026-05-01T13:12:44Z</time></trkpt><trkpt lat="46.45715366315768" lon="9.942164610266465"><ele>1948.0</ele><time>2026-05-01T13:12:45Z</time></trkpt><trkpt lat="46.4572745437665" lon="9.942080090902975"><ele>1951.0</ele><time>2026-05-01T13:12:46Z</time></trkpt><trkpt lat="46.457403856598226" lon="9.9420256742305"><ele>1954.0</ele><time>2026-05-01T13:12:47Z</time></trkpt><trkpt lat="46.457540472466064" lon="9.942011424636297"><ele>1954.0</ele><time>2026-05-01T13:12:48Z</time></trkpt><trkpt lat="46.457686288008965" lon="9.942029702412565"><ele>1954.0</ele><time>2026-05-01T13:12:49Z</time></trkpt><trkpt lat="46.457831095167876" lon="9.942061260352467"><ele>1954.0</ele><time>2026-05-01T13:12:50Z</time></trkpt><trkpt lat="46.45796446259976" lon="9.942083718594711"><ele>1954.0</ele><time>2026-05-01T13:12:51Z</time></trkpt><trkpt lat="46.45806069948848" lon="9.942129055012764"><ele>1954.0000000000002</ele><time>2026-05-01T13:12:52Z</time></trkpt><trkpt lat="46.458120573868186" lon="9.94219043177047"><ele>1954.0</ele><time>2026-05-01T13:12:53Z</time></trkpt><trkpt lat="46.45812891211573" lon="9.94229912649776"><ele>1954.0</ele><time>2026-05-01T13:12:54Z</time></trkpt><trkpt lat="46.45809482269776" lon="9.94240827567471"><ele>1954.0</ele><time>2026-05-01T13:12:55Z</time></trkpt><trkpt lat="46.45799811942177" lon="9.942435275880058"><ele>1954.0000000000002</ele><time>2026-05-01T13:12:56Z</time></trkpt><trkpt lat="46.4579034769501" lon="9.942412469990034"><ele>1954.0</ele><time>2026-05-01T13:12:57Z</time></trkpt><trkpt lat="46.45778859191527" lon="9.942431482460362"><ele>1954.0</ele><time>2026-05-01T13:12:58Z</time></trkpt><trkpt lat="46.45768927753052" lon="9.942476439655469"><ele>1954.0</ele><time>2026-05-01T13:12:59Z</time></trkpt><trkpt lat="46.45758947283451" lon="9.942545951955099"><ele>1954.0</ele><time>2026-05-01T13:13:00Z</time></trkpt><trkpt lat="46.45753113375513" lon="9.942593940003375"><ele>1954.0</ele><time>2026-05-01T13:13:01Z</time></trkpt><trkpt lat="46.45740783742671" lon="9.942708833397855"><ele>1954.0</ele><time>2026-05-01T13:13:02Z</time></trkpt><trkpt lat="46.457317667099666" lon="9.94278088597424"><ele>1955.75</ele><time>2026-05-01T13:13:03Z</time></trkpt><trkpt lat="46.4572214355353" lon="9.942828696270238"><ele>1957.5</ele><time>2026-05-01T13:13:04Z</time></trkpt><trkpt lat="46.45711484740016" lon="9.942875428610241"><ele>1959.25</ele><time>2026-05-01T13:13:05Z</time></trkpt><trkpt lat="46.457001288164946" lon="9.942931159614405"><ele>1961.0</ele><time>2026-05-01T13:13:06Z</time></trkpt><trkpt lat="46.45689890772361" lon="9.943025281870083"><ele>1961.0</ele><time>2026-05-01T13:13:07Z</time></trkpt><trkpt lat="46.45681795170426" lon="9.943192584428367"><ele>1961.0</ele><time>2026-05-01T13:13:08Z</time></trkpt><trkpt lat="46.45673290719797" lon="9.94334480162772"><ele>1961.0</ele><time>2026-05-01T13:13:09Z</time></trkpt><trkpt lat="46.45663101273085" lon="9.943506380480983"><ele>1961.0</ele><time>2026-05-01T13:13:10Z</time></trkpt><trkpt lat="46.4565470398456" lon="9.943693607532929"><ele>1965.3333333333333</ele><time>2026-05-01T13:13:11Z</time></trkpt><trkpt lat="46.456460992881915" lon="9.943882275610598"><ele>1969.6666666666665</ele><time>2026-05-01T13:13:11.999Z</time></trkpt><trkpt lat="46.45637723479431" lon="9.94407065597813"><ele>1974.0</ele><time>2026-05-01T13:13:12.999Z</time></trkpt><trkpt lat="46.45629651744529" lon="9.94424312342606"><ele>1978.0</ele><time>2026-05-01T13:13:13.999Z</time></trkpt><trkpt lat="46.45620113420044" lon="9.94439805861692"><ele>1982.0</ele><time>2026-05-01T13:13:14.999Z</time></trkpt><trkpt lat="46.45606398416317" lon="9.944501908219618"><ele>1986.0</ele><time>2026-05-01T13:13:15.999Z</time></trkpt><trkpt lat="46.45590427737956" lon="9.944580946905557"><ele>1986.0</ele><time>2026-05-01T13:13:16.999Z</time></trkpt><trkpt lat="46.45573597156576" lon="9.944647007512962"><ele>1986.0</ele><time>2026-05-01T13:13:17.999Z</time></trkpt><trkpt lat="46.455553761802705" lon="9.944717744249441"><ele>1986.0</ele><time>2026-05-01T13:13:18.999Z</time></trkpt><trkpt lat="46.455400118735845" lon="9.944795652793543"><ele>1987.0</ele><time>2026-05-01T13:13:19.999Z</time></trkpt><trkpt lat="46.455265083595044" lon="9.944913569453211"><ele>1988.0</ele><time>2026-05-01T13:13:20.999Z</time></trkpt><trkpt lat="46.45514038150024" lon="9.945063883587677"><ele>1989.0</ele><time>2026-05-01T13:13:21.999Z</time></trkpt><trkpt lat="46.45503538149575" lon="9.945262653167966"><ele>1989.0</ele><time>2026-05-01T13:13:22.999Z</time></trkpt><trkpt lat="46.45492068785289" lon="9.945481744237107"><ele>1989.0</ele><time>2026-05-01T13:13:23.999Z</time></trkpt><trkpt lat="46.45476916019789" lon="9.945698102755939"><ele>1989.0</ele><time>2026-05-01T13:13:24.999Z</time></trkpt><trkpt lat="46.45460894095516" lon="9.945858352151575"><ele>1992.0</ele><time>2026-05-01T13:13:25.999Z</time></trkpt><trkpt lat="46.454425802151604" lon="9.946008571044143"><ele>1995.0</ele><time>2026-05-01T13:13:26.999Z</time></trkpt><trkpt lat="46.45423852515226" lon="9.94617686440379"><ele>1998.0</ele><time>2026-05-01T13:13:27.999Z</time></trkpt><trkpt lat="46.4540435742842" lon="9.946327036966325"><ele>1998.0</ele><time>2026-05-01T13:13:28.999Z</time></trkpt><trkpt lat="46.45388907716586" lon="9.94647533989004"><ele>1998.0</ele><time>2026-05-01T13:13:29.999Z</time></trkpt><trkpt lat="46.45376541882533" lon="9.946627490391919"><ele>1998.0</ele><time>2026-05-01T13:13:30.999Z</time></trkpt><trkpt lat="46.45367156330876" lon="9.94680821996367"><ele>1998.0</ele><time>2026-05-01T13:13:31.999Z</time></trkpt><trkpt lat="46.45360464749461" lon="9.947044931455814"><ele>1998.0</ele><time>2026-05-01T13:13:32.999Z</time></trkpt><trkpt lat="46.45354037174177" lon="9.947299485584557"><ele>1998.0</ele><time>2026-05-01T13:13:33.999Z</time></trkpt><trkpt lat="46.45346643817137" lon="9.947565491868987"><ele>2001.0</ele><time>2026-05-01T13:13:34.999Z</time></trkpt><trkpt lat="46.45338749746072" lon="9.947844632990272"><ele>2004.0</ele><time>2026-05-01T13:13:35.999Z</time></trkpt><trkpt lat="46.45330129102707" lon="9.948123880028874"><ele>2007.0</ele><time>2026-05-01T13:13:36.999Z</time></trkpt><trkpt lat="46.45321530411009" lon="9.948403067151068"><ele>2009.3333333333335</ele><time>2026-05-01T13:13:37.999Z</time></trkpt><trkpt lat="46.45312914948943" lon="9.948673371063569"><ele>2011.6666666666667</ele><time>2026-05-01T13:13:38.999Z</time></trkpt><trkpt lat="46.453051923110785" lon="9.948910780052385"><ele>2014.0</ele><time>2026-05-01T13:13:39.999Z</time></trkpt><trkpt lat="46.452969462663845" lon="9.9491261552642"><ele>2013.6666666666667</ele><time>2026-05-01T13:13:40.999Z</time></trkpt><trkpt lat="46.45283745440275" lon="9.949312187856584"><ele>2013.3333333333335</ele><time>2026-05-01T13:13:41.999Z</time></trkpt><trkpt lat="46.45269296910724" lon="9.949472828667252"><ele>2013.0</ele><time>2026-05-01T13:13:42.999Z</time></trkpt><trkpt lat="46.452574853406055" lon="9.949619413638947"><ele>2013.0</ele><time>2026-05-01T13:13:43.999Z</time></trkpt><trkpt lat="46.452469366347984" lon="9.94977860755641"><ele>2013.0</ele><time>2026-05-01T13:13:44.999Z</time></trkpt><trkpt lat="46.45241468821065" lon="9.9499593792339"><ele>2013.0</ele><time>2026-05-01T13:13:45.999Z</time></trkpt><trkpt lat="46.45240217830708" lon="9.950166557855566"><ele>2013.0</ele><time>2026-05-01T13:13:46.999Z</time></trkpt><trkpt lat="46.45236742195155" lon="9.950279991318979"><ele>2014.6666666666665</ele><time>2026-05-01T13:13:47.999Z</time></trkpt><trkpt lat="46.4523702357939" lon="9.950416271970543"><ele>2016.3333333333333</ele><time>2026-05-01T13:13:48.999Z</time></trkpt><trkpt lat="46.45239288526271" lon="9.95050957065463"><ele>2018.0</ele><time>2026-05-01T13:13:49.999Z</time></trkpt><trkpt lat="46.45257424255709" lon="9.951177128609464"><ele>2019.0</ele><time>2026-05-01T13:13:50.999Z</time></trkpt><trkpt lat="46.45259703215131" lon="9.951418974236281"><ele>2020.0</ele><time>2026-05-01T13:13:51.999Z</time></trkpt><trkpt lat="46.45255510177589" lon="9.951670556428974"><ele>2021.0</ele><time>2026-05-01T13:13:52.999Z</time></trkpt><trkpt lat="46.45248160463665" lon="9.951931976458084"><ele>2022.3333333333333</ele><time>2026-05-01T13:13:53.999Z</time></trkpt><trkpt lat="46.45237243055201" lon="9.952186620459017"><ele>2023.6666666666665</ele><time>2026-05-01T13:13:54.999Z</time></trkpt><trkpt lat="46.452239673769526" lon="9.95242244358063"><ele>2025.0</ele><time>2026-05-01T13:13:55.999Z</time></trkpt><trkpt lat="46.45207886806246" lon="9.952613985095333"><ele>2025.0</ele><time>2026-05-01T13:13:56.999Z</time></trkpt><trkpt lat="46.45189993018638" lon="9.95277781033896"><ele>2025.0</ele><time>2026-05-01T13:13:57.999Z</time></trkpt><trkpt lat="46.45171509757685" lon="9.952937416873421"><ele>2025.0</ele><time>2026-05-01T13:13:58.999Z</time></trkpt><trkpt lat="46.45151512552442" lon="9.953109553876331"><ele>2025.0</ele><time>2026-05-01T13:13:59.999Z</time></trkpt><trkpt lat="46.45130865029947" lon="9.95328728884616"><ele>2025.0</ele><time>2026-05-01T13:14:00.999Z</time></trkpt><trkpt lat="46.45111831374239" lon="9.953454584152892"><ele>2023.6666666666665</ele><time>2026-05-01T13:14:01.999Z</time></trkpt><trkpt lat="46.45094473319454" lon="9.953615895948094"><ele>2022.3333333333333</ele><time>2026-05-01T13:14:02.999Z</time></trkpt><trkpt lat="46.45078574620357" lon="9.953777236643026"><ele>2021.0</ele><time>2026-05-01T13:14:03.999Z</time></trkpt><trkpt lat="46.45064371398447" lon="9.953970467347112"><ele>2021.0</ele><time>2026-05-01T13:14:04.999Z</time></trkpt><trkpt lat="46.45050374193683" lon="9.954146350468049"><ele>2021.0</ele><time>2026-05-01T13:14:05.999Z</time></trkpt><trkpt lat="46.45037534115079" lon="9.954322353159812"><ele>2021.0</ele><time>2026-05-01T13:14:06.999Z</time></trkpt><trkpt lat="46.450241437334554" lon="9.954503342267842"><ele>2022.0</ele><time>2026-05-01T13:14:08Z</time></trkpt><trkpt lat="46.45011945708408" lon="9.954694365159257"><ele>2023.0</ele><time>2026-05-01T13:14:09Z</time></trkpt><trkpt lat="46.45000425718077" lon="9.954890800160745"><ele>2024.0</ele><time>2026-05-01T13:14:10Z</time></trkpt><trkpt lat="46.44989061572211" lon="9.955089594282322"><ele>2024.0</ele><time>2026-05-01T13:14:11Z</time></trkpt><trkpt lat="46.44977722306271" lon="9.955276231979083"><ele>2024.0</ele><time>2026-05-01T13:14:12Z</time></trkpt><trkpt lat="46.44966189701837" lon="9.955458499731229"><ele>2024.0</ele><time>2026-05-01T13:14:13Z</time></trkpt><trkpt lat="46.44956174716772" lon="9.955625569622732"><ele>2023.75</ele><time>2026-05-01T13:14:14Z</time></trkpt><trkpt lat="46.44946344229016" lon="9.95578963743733"><ele>2023.5</ele><time>2026-05-01T13:14:15Z</time></trkpt><trkpt lat="46.449367833228514" lon="9.955945615904335"><ele>2023.25</ele><time>2026-05-01T13:14:16Z</time></trkpt><trkpt lat="46.449276967337255" lon="9.956095506753215"><ele>2023.0</ele><time>2026-05-01T13:14:17Z</time></trkpt><trkpt lat="46.44919300662336" lon="9.956234760319548"><ele>2023.0</ele><time>2026-05-01T13:14:18Z</time></trkpt><trkpt lat="46.44911523175246" lon="9.956363327796712"><ele>2023.0000000000002</ele><time>2026-05-01T13:14:19Z</time></trkpt><trkpt lat="46.44904628994291" lon="9.956489549667937"><ele>2023.0000000000002</ele><time>2026-05-01T13:14:20Z</time></trkpt><trkpt lat="46.4489833739714" lon="9.956611696446915"><ele>2023.0</ele><time>2026-05-01T13:14:21Z</time></trkpt><trkpt lat="46.44893014228213" lon="9.956728485374331"><ele>2023.0</ele><time>2026-05-01T13:14:22Z</time></trkpt><trkpt lat="46.44888750693394" lon="9.956843802536417"><ele>2023.6666666666667</ele><time>2026-05-01T13:14:23Z</time></trkpt><trkpt lat="46.44884274162178" lon="9.956952107583932"><ele>2024.3333333333335</ele><time>2026-05-01T13:14:24Z</time></trkpt><trkpt lat="46.44881027335854" lon="9.95705717005296"><ele>2025.0</ele><time>2026-05-01T13:14:25Z</time></trkpt><trkpt lat="46.44876767283825" lon="9.957153007166948"><ele>2025.6666666666665</ele><time>2026-05-01T13:14:26Z</time></trkpt><trkpt lat="46.448747938084054" lon="9.957258322267284"><ele>2026.3333333333333</ele><time>2026-05-01T13:14:27Z</time></trkpt><trkpt lat="46.448728129471704" lon="9.957363299431787"><ele>2027.0</ele><time>2026-05-01T13:14:28Z</time></trkpt><trkpt lat="46.448692120475016" lon="9.957458273760112"><ele>2027.0</ele><time>2026-05-01T13:14:29Z</time></trkpt><trkpt lat="46.44867119973856" lon="9.957545816246133"><ele>2026.9999999999998</ele><time>2026-05-01T13:14:30Z</time></trkpt><trkpt lat="46.44863841351011" lon="9.957680768061174"><ele>2026.9999999999998</ele><time>2026-05-01T13:14:32Z</time></trkpt><trkpt lat="46.44859557875044" lon="9.957800110639962"><ele>2027.0</ele><time>2026-05-01T13:14:35Z</time></trkpt><trkpt lat="46.448573408044446" lon="9.957979584567946"><ele>2027.0</ele><time>2026-05-01T13:14:37Z</time></trkpt><trkpt lat="46.44854934522162" lon="9.95810683874663"><ele>2027.0</ele><time>2026-05-01T13:14:38Z</time></trkpt><trkpt lat="46.44852813575357" lon="9.958212860582714"><ele>2026.9999999999998</ele><time>2026-05-01T13:14:39Z</time></trkpt><trkpt lat="46.448485653726834" lon="9.958378985690137"><ele>2026.9999999999998</ele><time>2026-05-01T13:14:40Z</time></trkpt><trkpt lat="46.44845427648685" lon="9.958510106197384"><ele>2027.0</ele><time>2026-05-01T13:14:41Z</time></trkpt><trkpt lat="46.44842172743558" lon="9.958659661858384"><ele>2027.0</ele><time>2026-05-01T13:14:42Z</time></trkpt><trkpt lat="46.448388131160804" lon="9.958820230843525"><ele>2028.5</ele><time>2026-05-01T13:14:43Z</time></trkpt><trkpt lat="46.44834871313925" lon="9.958990270106588"><ele>2030.0</ele><time>2026-05-01T13:14:44Z</time></trkpt><trkpt lat="46.44830181911181" lon="9.959180340778158"><ele>2031.5</ele><time>2026-05-01T13:14:45Z</time></trkpt><trkpt lat="46.44824743311178" lon="9.95939817084413"><ele>2033.0</ele><time>2026-05-01T13:14:46Z</time></trkpt><trkpt lat="46.44819893517111" lon="9.95960968351113"><ele>2034.3333333333333</ele><time>2026-05-01T13:14:47Z</time></trkpt><trkpt lat="46.44815089110336" lon="9.959819591082779"><ele>2035.6666666666665</ele><time>2026-05-01T13:14:48Z</time></trkpt><trkpt lat="46.44810204414334" lon="9.960027444784027"><ele>2037.0</ele><time>2026-05-01T13:14:49Z</time></trkpt><trkpt lat="46.448046815895786" lon="9.960265462991858"><ele>2037.3333333333335</ele><time>2026-05-01T13:14:50Z</time></trkpt><trkpt lat="46.44799409685531" lon="9.960512955261075"><ele>2037.6666666666667</ele><time>2026-05-01T13:14:51Z</time></trkpt><trkpt lat="46.447936232347885" lon="9.960767672781495"><ele>2038.0</ele><time>2026-05-01T13:14:52Z</time></trkpt><trkpt lat="46.4478827561059" lon="9.961018195114475"><ele>2037.6666666666667</ele><time>2026-05-01T13:14:53Z</time></trkpt><trkpt lat="46.44782545912098" lon="9.961266879705258"><ele>2037.3333333333335</ele><time>2026-05-01T13:14:54Z</time></trkpt><trkpt lat="46.4477616698711" lon="9.96150957895287"><ele>2037.0</ele><time>2026-05-01T13:14:55Z</time></trkpt><trkpt lat="46.447696525114324" lon="9.96175024433898"><ele>2037.0</ele><time>2026-05-01T13:14:56Z</time></trkpt><trkpt lat="46.44763885646105" lon="9.961993147383712"><ele>2037.0</ele><time>2026-05-01T13:14:57Z</time></trkpt><trkpt lat="46.44758470877433" lon="9.962239745088807"><ele>2037.0</ele><time>2026-05-01T13:14:58Z</time></trkpt><trkpt lat="46.44752376954781" lon="9.962494248521997"><ele>2038.6666666666665</ele><time>2026-05-01T13:14:59Z</time></trkpt><trkpt lat="46.44746727412304" lon="9.96274988786512"><ele>2040.3333333333333</ele><time>2026-05-01T13:15:00Z</time></trkpt><trkpt lat="46.447416156967535" lon="9.962993675058827"><ele>2042.0</ele><time>2026-05-01T13:15:01Z</time></trkpt><trkpt lat="46.447362032789606" lon="9.963253335076418"><ele>2042.3333333333333</ele><time>2026-05-01T13:15:02Z</time></trkpt><trkpt lat="46.447310913695084" lon="9.9634910964255"><ele>2042.6666666666665</ele><time>2026-05-01T13:15:03Z</time></trkpt><trkpt lat="46.447303080714" lon="9.963658527398469"><ele>2043.0</ele><time>2026-05-01T13:15:04Z</time></trkpt><trkpt lat="46.447241194413635" lon="9.963899745661564"><ele>2041.0</ele><time>2026-05-01T13:15:05Z</time></trkpt><trkpt lat="46.44715132727944" lon="9.964297012488169"><ele>2039.0</ele><time>2026-05-01T13:15:06Z</time></trkpt><trkpt lat="46.44707385224609" lon="9.964595725707893"><ele>2039.0</ele><time>2026-05-01T13:15:07Z</time></trkpt><trkpt lat="46.447008296402494" lon="9.964889923972517"><ele>2039.0</ele><time>2026-05-01T13:15:08Z</time></trkpt><trkpt lat="46.4469462007448" lon="9.96517750287266"><ele>2039.0</ele><time>2026-05-01T13:15:09Z</time></trkpt><trkpt lat="46.44688053380656" lon="9.965471386681783"><ele>2039.3333333333333</ele><time>2026-05-01T13:15:10Z</time></trkpt><trkpt lat="46.446813263129485" lon="9.965752404719797"><ele>2039.6666666666665</ele><time>2026-05-01T13:15:11Z</time></trkpt><trkpt lat="46.446743745040486" lon="9.966025654562834"><ele>2040.0</ele><time>2026-05-01T13:15:12Z</time></trkpt><trkpt lat="46.44667097802246" lon="9.966289958108707"><ele>2041.6666666666665</ele><time>2026-05-01T13:15:13Z</time></trkpt><trkpt lat="46.44658838053562" lon="9.966534338985449"><ele>2043.3333333333333</ele><time>2026-05-01T13:15:14Z</time></trkpt><trkpt lat="46.446492796594654" lon="9.966761198249918"><ele>2045.0</ele><time>2026-05-01T13:15:15Z</time></trkpt><trkpt lat="46.44639927397845" lon="9.966952786707242"><ele>2044.3333333333333</ele><time>2026-05-01T13:15:16Z</time></trkpt><trkpt lat="46.44629838634897" lon="9.967125809221619"><ele>2043.6666666666665</ele><time>2026-05-01T13:15:17Z</time></trkpt><trkpt lat="46.446193201420215" lon="9.967298203191804"><ele>2043.0</ele><time>2026-05-01T13:15:18Z</time></trkpt><trkpt lat="46.44609232320446" lon="9.967472321255382"><ele>2043.3333333333335</ele><time>2026-05-01T13:15:19Z</time></trkpt><trkpt lat="46.44599426798941" lon="9.967639909941237"><ele>2043.6666666666667</ele><time>2026-05-01T13:15:20Z</time></trkpt><trkpt lat="46.445894265950415" lon="9.967814692143138"><ele>2044.0</ele><time>2026-05-01T13:15:21Z</time></trkpt><trkpt lat="46.445791289315025" lon="9.967997493170419"><ele>2044.0</ele><time>2026-05-01T13:15:22Z</time></trkpt><trkpt lat="46.44568400673102" lon="9.968182044361958"><ele>2044.0</ele><time>2026-05-01T13:15:23Z</time></trkpt><trkpt lat="46.44557620677608" lon="9.968374711164014"><ele>2044.0</ele><time>2026-05-01T13:15:24Z</time></trkpt><trkpt lat="46.44547730547675" lon="9.96856269709187"><ele>2044.6666666666667</ele><time>2026-05-01T13:15:25Z</time></trkpt><trkpt lat="46.44537349505414" lon="9.968760475710646"><ele>2045.3333333333335</ele><time>2026-05-01T13:15:25.999Z</time></trkpt><trkpt lat="46.44527096402714" lon="9.968976114933053"><ele>2046.0</ele><time>2026-05-01T13:15:26.999Z</time></trkpt><trkpt lat="46.445190762379234" lon="9.969203640359922"><ele>2046.3333333333335</ele><time>2026-05-01T13:15:27.999Z</time></trkpt><trkpt lat="46.44510795422724" lon="9.969448736524857"><ele>2046.6666666666667</ele><time>2026-05-01T13:15:28.999Z</time></trkpt><trkpt lat="46.44505470393885" lon="9.969708608170016"><ele>2047.0</ele><time>2026-05-01T13:15:29.999Z</time></trkpt><trkpt lat="46.44501670701872" lon="9.969977092917757"><ele>2047.6666666666667</ele><time>2026-05-01T13:15:30.999Z</time></trkpt><trkpt lat="46.44498927864187" lon="9.97022042865095"><ele>2048.3333333333335</ele><time>2026-05-01T13:15:31.999Z</time></trkpt><trkpt lat="46.44494312076304" lon="9.970537571895933"><ele>2049.0</ele><time>2026-05-01T13:15:32.999Z</time></trkpt><trkpt lat="46.444908653721605" lon="9.970804603035662"><ele>2048.6666666666665</ele><time>2026-05-01T13:15:33.999Z</time></trkpt><trkpt lat="46.44487944757487" lon="9.97103572149447"><ele>2048.333333333333</ele><time>2026-05-01T13:15:34.999Z</time></trkpt><trkpt lat="46.444841761319374" lon="9.97114758258593"><ele>2048.0</ele><time>2026-05-01T13:15:35.999Z</time></trkpt><trkpt lat="46.44475680507185" lon="9.971558540784734"><ele>2048.333333333333</ele><time>2026-05-01T13:15:36.999Z</time></trkpt><trkpt lat="46.444672185287295" lon="9.971787108086135"><ele>2048.6666666666665</ele><time>2026-05-01T13:15:37.999Z</time></trkpt><trkpt lat="46.44458757964515" lon="9.972017377122258"><ele>2049.0</ele><time>2026-05-01T13:15:38.999Z</time></trkpt><trkpt lat="46.44449189210203" lon="9.97224002259162"><ele>2050.6666666666665</ele><time>2026-05-01T13:15:39.999Z</time></trkpt><trkpt lat="46.44438776327964" lon="9.972452656047256"><ele>2052.333333333333</ele><time>2026-05-01T13:15:40.999Z</time></trkpt><trkpt lat="46.44427284156847" lon="9.97265742971736"><ele>2054.0</ele><time>2026-05-01T13:15:41.999Z</time></trkpt><trkpt lat="46.44414560050286" lon="9.972852767461092"><ele>2054.0</ele><time>2026-05-01T13:15:42.999Z</time></trkpt><trkpt lat="46.44400728524479" lon="9.973042454518717"><ele>2054.0</ele><time>2026-05-01T13:15:43.999Z</time></trkpt><trkpt lat="46.44385887758757" lon="9.973227293234572"><ele>2054.0</ele><time>2026-05-01T13:15:44.999Z</time></trkpt><trkpt lat="46.44371099567743" lon="9.97341039048231"><ele>2056.6666666666665</ele><time>2026-05-01T13:15:45.999Z</time></trkpt><trkpt lat="46.44357047598488" lon="9.973606455484045"><ele>2059.3333333333335</ele><time>2026-05-01T13:15:46.999Z</time></trkpt><trkpt lat="46.44343090510648" lon="9.973805643232044"><ele>2062.0</ele><time>2026-05-01T13:15:47.999Z</time></trkpt><trkpt lat="46.443302889240066" lon="9.974018483483817"><ele>2060.3333333333335</ele><time>2026-05-01T13:15:48.999Z</time></trkpt><trkpt lat="46.443183629685606" lon="9.974252610299255"><ele>2058.6666666666665</ele><time>2026-05-01T13:15:49.999Z</time></trkpt><trkpt lat="46.44308414498568" lon="9.974503878737783"><ele>2057.0</ele><time>2026-05-01T13:15:50.999Z</time></trkpt><trkpt lat="46.44298681971323" lon="9.974762170439016"><ele>2059.333333333333</ele><time>2026-05-01T13:15:51.999Z</time></trkpt><trkpt lat="46.44289169811979" lon="9.97503174405159"><ele>2061.6666666666665</ele><time>2026-05-01T13:15:52.999Z</time></trkpt><trkpt lat="46.44280061313215" lon="9.975299768168888"><ele>2064.0</ele><time>2026-05-01T13:15:53.999Z</time></trkpt><trkpt lat="46.442710918424694" lon="9.975561834868145"><ele>2064.0</ele><time>2026-05-01T13:15:54.999Z</time></trkpt><trkpt lat="46.44264262149457" lon="9.97581381935858"><ele>2064.0</ele><time>2026-05-01T13:15:55.999Z</time></trkpt><trkpt lat="46.442618132491184" lon="9.976097200031917"><ele>2064.0</ele><time>2026-05-01T13:15:56.999Z</time></trkpt><trkpt lat="46.4426216069864" lon="9.976380881410018"><ele>2064.3333333333335</ele><time>2026-05-01T13:15:57.999Z</time></trkpt><trkpt lat="46.4426645752523" lon="9.97666309916952"><ele>2064.666666666667</ele><time>2026-05-01T13:15:58.999Z</time></trkpt><trkpt lat="46.44278373138396" lon="9.976961722688609"><ele>2065.0</ele><time>2026-05-01T13:15:59.999Z</time></trkpt><trkpt lat="46.44285099508823" lon="9.977220175043414"><ele>2066.666666666667</ele><time>2026-05-01T13:16:00.999Z</time></trkpt><trkpt lat="46.44290208278612" lon="9.977483240161773"><ele>2068.3333333333335</ele><time>2026-05-01T13:16:01.999Z</time></trkpt><trkpt lat="46.44291274469657" lon="9.977715730241847"><ele>2070.0</ele><time>2026-05-01T13:16:02.999Z</time></trkpt><trkpt lat="46.4428802873714" lon="9.977881370727172"><ele>2070.75</ele><time>2026-05-01T13:16:03.999Z</time></trkpt><trkpt lat="46.44284795406334" lon="9.978049725558186"><ele>2071.5</ele><time>2026-05-01T13:16:04.999Z</time></trkpt><trkpt lat="46.44283812410766" lon="9.978304359353801"><ele>2072.25</ele><time>2026-05-01T13:16:05.999Z</time></trkpt><trkpt lat="46.442815919519845" lon="9.97850772791638"><ele>2073.0</ele><time>2026-05-01T13:16:06.999Z</time></trkpt><trkpt lat="46.44278229093964" lon="9.979141855175806"><ele>2073.3333333333335</ele><time>2026-05-01T13:16:07.999Z</time></trkpt><trkpt lat="46.442731457640605" lon="9.979417469764131"><ele>2073.666666666667</ele><time>2026-05-01T13:16:08.999Z</time></trkpt><trkpt lat="46.44268108691375" lon="9.979690359853501"><ele>2074.0</ele><time>2026-05-01T13:16:09.999Z</time></trkpt><trkpt lat="46.442638901210486" lon="9.97997238216423"><ele>2075.0</ele><time>2026-05-01T13:16:10.999Z</time></trkpt><trkpt lat="46.44259365534261" lon="9.980247714541688"><ele>2076.0</ele><time>2026-05-01T13:16:11.999Z</time></trkpt><trkpt lat="46.44255500364658" lon="9.980531016387335"><ele>2077.0</ele><time>2026-05-01T13:16:12.999Z</time></trkpt><trkpt lat="46.44251803570332" lon="9.980817616277449"><ele>2078.0</ele><time>2026-05-01T13:16:14Z</time></trkpt><trkpt lat="46.44247404847278" lon="9.981090160781532"><ele>2079.0</ele><time>2026-05-01T13:16:15Z</time></trkpt><trkpt lat="46.44243503950002" lon="9.981359907645603"><ele>2080.0</ele><time>2026-05-01T13:16:16Z</time></trkpt><trkpt lat="46.44240069545922" lon="9.981609401877305"><ele>2079.3333333333335</ele><time>2026-05-01T13:16:17Z</time></trkpt><trkpt lat="46.44237230956518" lon="9.98186045954661"><ele>2078.6666666666665</ele><time>2026-05-01T13:16:18Z</time></trkpt><trkpt lat="46.44234251190619" lon="9.982098995970892"><ele>2078.0</ele><time>2026-05-01T13:16:19Z</time></trkpt><trkpt lat="46.44230673075039" lon="9.982346754586"><ele>2076.333333333333</ele><time>2026-05-01T13:16:20Z</time></trkpt><trkpt lat="46.44227527116268" lon="9.982608552002999"><ele>2074.6666666666665</ele><time>2026-05-01T13:16:21Z</time></trkpt><trkpt lat="46.44225043973006" lon="9.982878204927795"><ele>2073.0</ele><time>2026-05-01T13:16:22Z</time></trkpt><trkpt lat="46.442222889722665" lon="9.983159949555871"><ele>2073.6666666666665</ele><time>2026-05-01T13:16:23Z</time></trkpt><trkpt lat="46.44220046230421" lon="9.98345709230488"><ele>2074.333333333333</ele><time>2026-05-01T13:16:24Z</time></trkpt><trkpt lat="46.44218359269661" lon="9.983748689562548"><ele>2075.0</ele><time>2026-05-01T13:16:25Z</time></trkpt><trkpt lat="46.44216677137687" lon="9.984039750258953"><ele>2075.333333333333</ele><time>2026-05-01T13:16:26Z</time></trkpt><trkpt lat="46.44215242146161" lon="9.98431612344492"><ele>2075.6666666666665</ele><time>2026-05-01T13:16:27Z</time></trkpt><trkpt lat="46.44213821769266" lon="9.984585309547418"><ele>2076.0</ele><time>2026-05-01T13:16:28Z</time></trkpt><trkpt lat="46.44212415247398" lon="9.984840241608968"><ele>2078.3333333333335</ele><time>2026-05-01T13:16:29Z</time></trkpt><trkpt lat="46.44210899450592" lon="9.985055947970903"><ele>2080.666666666667</ele><time>2026-05-01T13:16:30Z</time></trkpt><trkpt lat="46.4420547545713" lon="9.98526137194115"><ele>2083.0</ele><time>2026-05-01T13:16:31Z</time></trkpt><trkpt lat="46.441998872761" lon="9.985478081846745"><ele>2083.0</ele><time>2026-05-01T13:16:32Z</time></trkpt><trkpt lat="46.44188269393448" lon="9.985653175572494"><ele>2083.0</ele><time>2026-05-01T13:16:33Z</time></trkpt><trkpt lat="46.44174481920828" lon="9.985785241558192"><ele>2083.0</ele><time>2026-05-01T13:16:34Z</time></trkpt><trkpt lat="46.44158868135863" lon="9.985892227356892"><ele>2084.3333333333335</ele><time>2026-05-01T13:16:35Z</time></trkpt><trkpt lat="46.44142494868503" lon="9.98597335721117"><ele>2085.6666666666665</ele><time>2026-05-01T13:16:36Z</time></trkpt><trkpt lat="46.44125310648441" lon="9.986045059837224"><ele>2087.0</ele><time>2026-05-01T13:16:37Z</time></trkpt><trkpt lat="46.44107269655339" lon="9.986097554837825"><ele>2087.0</ele><time>2026-05-01T13:16:38Z</time></trkpt><trkpt lat="46.44090516689671" lon="9.986179156762743"><ele>2087.0</ele><time>2026-05-01T13:16:39Z</time></trkpt><trkpt lat="46.44074905055407" lon="9.986307626000155"><ele>2087.0</ele><time>2026-05-01T13:16:40Z</time></trkpt><trkpt lat="46.4406103244116" lon="9.986481393433305"><ele>2087.0</ele><time>2026-05-01T13:16:41Z</time></trkpt><trkpt lat="46.44047356569135" lon="9.98668821429686"><ele>2087.0</ele><time>2026-05-01T13:16:42Z</time></trkpt><trkpt lat="46.440371323535494" lon="9.986937285516612"><ele>2087.0</ele><time>2026-05-01T13:16:43Z</time></trkpt><trkpt lat="46.44030218574173" lon="9.987213727286463"><ele>2087.0</ele><time>2026-05-01T13:16:44Z</time></trkpt><trkpt lat="46.44020121873971" lon="9.987469929068432"><ele>2087.0</ele><time>2026-05-01T13:16:45Z</time></trkpt><trkpt lat="46.4401068070055" lon="9.987720976466647"><ele>2087.0</ele><time>2026-05-01T13:16:46Z</time></trkpt><trkpt lat="46.43998021669653" lon="9.987982873429253"><ele>2087.0</ele><time>2026-05-01T13:16:47Z</time></trkpt><trkpt lat="46.4398523778082" lon="9.98824956778966"><ele>2087.0</ele><time>2026-05-01T13:16:48Z</time></trkpt><trkpt lat="46.439704050227036" lon="9.988487356457817"><ele>2087.0</ele><time>2026-05-01T13:16:49Z</time></trkpt><trkpt lat="46.43955880988238" lon="9.988724956241033"><ele>2087.0</ele><time>2026-05-01T13:16:50Z</time></trkpt><trkpt lat="46.43940432129557" lon="9.988951664807239"><ele>2087.0</ele><time>2026-05-01T13:16:51Z</time></trkpt><trkpt lat="46.439249550407574" lon="9.989175332295002"><ele>2087.0</ele><time>2026-05-01T13:16:52Z</time></trkpt><trkpt lat="46.439099479158855" lon="9.989409034417088"><ele>2088.6666666666665</ele><time>2026-05-01T13:16:53Z</time></trkpt><trkpt lat="46.43895541237772" lon="9.989644985437659"><ele>2090.3333333333335</ele><time>2026-05-01T13:16:54Z</time></trkpt><trkpt lat="46.43880887393909" lon="9.989879199744866"><ele>2092.0</ele><time>2026-05-01T13:16:55Z</time></trkpt><trkpt lat="46.43865624688474" lon="9.990112292690647"><ele>2092.0</ele><time>2026-05-01T13:16:56Z</time></trkpt><trkpt lat="46.43850534439109" lon="9.990357853454265"><ele>2092.0</ele><time>2026-05-01T13:16:57Z</time></trkpt><trkpt lat="46.438338488811986" lon="9.99060553137945"><ele>2091.5</ele><time>2026-05-01T13:16:58Z</time></trkpt><trkpt lat="46.43817545814121" lon="9.990861943426443"><ele>2091.0</ele><time>2026-05-01T13:16:59Z</time></trkpt><trkpt lat="46.43800928527457" lon="9.991121374584523"><ele>2093.0</ele><time>2026-05-01T13:17:00Z</time></trkpt><trkpt lat="46.43784031837367" lon="9.99137537855904"><ele>2095.0</ele><time>2026-05-01T13:17:01Z</time></trkpt><trkpt lat="46.437664192157946" lon="9.991615868071932"><ele>2095.0</ele><time>2026-05-01T13:17:02Z</time></trkpt><trkpt lat="46.43749764219877" lon="9.991855504612882"><ele>2095.0</ele><time>2026-05-01T13:17:03Z</time></trkpt><trkpt lat="46.437346428954676" lon="9.992093069230904"><ele>2095.0</ele><time>2026-05-01T13:17:04Z</time></trkpt><trkpt lat="46.437207550908255" lon="9.992338205804124"><ele>2095.0</ele><time>2026-05-01T13:17:05Z</time></trkpt><trkpt lat="46.437069081752625" lon="9.992586379105083"><ele>2095.0</ele><time>2026-05-01T13:17:06Z</time></trkpt><trkpt lat="46.43694760363448" lon="9.9928438101986"><ele>2097.666666666667</ele><time>2026-05-01T13:17:07Z</time></trkpt><trkpt lat="46.4368393810573" lon="9.993108466311359"><ele>2100.3333333333335</ele><time>2026-05-01T13:17:08Z</time></trkpt><trkpt lat="46.43673730065404" lon="9.993373691156151"><ele>2103.0</ele><time>2026-05-01T13:17:09Z</time></trkpt><trkpt lat="46.43663297065835" lon="9.993630446849268"><ele>2104.3333333333335</ele><time>2026-05-01T13:17:10Z</time></trkpt><trkpt lat="46.43653642039752" lon="9.993869186129503"><ele>2105.666666666667</ele><time>2026-05-01T13:17:11Z</time></trkpt><trkpt lat="46.436442454389905" lon="9.994103501790482"><ele>2107.0</ele><time>2026-05-01T13:17:12Z</time></trkpt><trkpt lat="46.43633721350551" lon="9.994333888781924"><ele>2108.3333333333335</ele><time>2026-05-01T13:17:13Z</time></trkpt><trkpt lat="46.4362079563947" lon="9.994572773202968"><ele>2109.6666666666665</ele><time>2026-05-01T13:17:14Z</time></trkpt><trkpt lat="46.43612709281861" lon="9.994764934831505"><ele>2111.0</ele><time>2026-05-01T13:17:15Z</time></trkpt><trkpt lat="46.436100542931165" lon="9.994895944326752"><ele>2111.6666666666665</ele><time>2026-05-01T13:17:16Z</time></trkpt><trkpt lat="46.43601943707899" lon="9.995063370329909"><ele>2112.3333333333335</ele><time>2026-05-01T13:17:17Z</time></trkpt><trkpt lat="46.43589840501984" lon="9.995255400294825"><ele>2113.0</ele><time>2026-05-01T13:17:18Z</time></trkpt><trkpt lat="46.43574012313858" lon="9.995420583485624"><ele>2113.0</ele><time>2026-05-01T13:17:19Z</time></trkpt><trkpt lat="46.435603820655594" lon="9.995501063783971"><ele>2113.0</ele><time>2026-05-01T13:17:20Z</time></trkpt><trkpt lat="46.43544350093931" lon="9.995625282429042"><ele>2113.0</ele><time>2026-05-01T13:17:21Z</time></trkpt><trkpt lat="46.4352748409295" lon="9.995712195135216"><ele>2114.3333333333335</ele><time>2026-05-01T13:17:22Z</time></trkpt><trkpt lat="46.43509706857554" lon="9.995804912914974"><ele>2115.6666666666665</ele><time>2026-05-01T13:17:23Z</time></trkpt><trkpt lat="46.43491797745393" lon="9.99592283674252"><ele>2117.0</ele><time>2026-05-01T13:17:24Z</time></trkpt><trkpt lat="46.43474497816831" lon="9.996057837529436"><ele>2119.0</ele><time>2026-05-01T13:17:25Z</time></trkpt><trkpt lat="46.43457797280388" lon="9.996213336151612"><ele>2121.0</ele><time>2026-05-01T13:17:26Z</time></trkpt><trkpt lat="46.4344296428991" lon="9.996376498387072"><ele>2123.0</ele><time>2026-05-01T13:17:27Z</time></trkpt><trkpt lat="46.434284120735946" lon="9.99654010497741"><ele>2123.0</ele><time>2026-05-01T13:17:28Z</time></trkpt><trkpt lat="46.43412542577025" lon="9.996667820471085"><ele>2123.0</ele><time>2026-05-01T13:17:29Z</time></trkpt><trkpt lat="46.43394685269864" lon="9.996765067428585"><ele>2123.0</ele><time>2026-05-01T13:17:30Z</time></trkpt><trkpt lat="46.43376678294243" lon="9.996791898958044"><ele>2125.333333333333</ele><time>2026-05-01T13:17:31Z</time></trkpt><trkpt lat="46.43359360115859" lon="9.996804646970828"><ele>2127.6666666666665</ele><time>2026-05-01T13:17:32Z</time></trkpt><trkpt lat="46.43343325916748" lon="9.996820535784282"><ele>2130.0</ele><time>2026-05-01T13:17:33Z</time></trkpt><trkpt lat="46.43327507737969" lon="9.996872873729599"><ele>2130.0</ele><time>2026-05-01T13:17:33.999Z</time></trkpt><trkpt lat="46.43311997670887" lon="9.996989150369991"><ele>2130.0</ele><time>2026-05-01T13:17:34.999Z</time></trkpt><trkpt lat="46.43297980785855" lon="9.997140098004202"><ele>2130.0</ele><time>2026-05-01T13:17:35.999Z</time></trkpt><trkpt lat="46.432866722301675" lon="9.997326912700643"><ele>2130.75</ele><time>2026-05-01T13:17:36.999Z</time></trkpt><trkpt lat="46.43278976339025" lon="9.997514117639485"><ele>2131.5</ele><time>2026-05-01T13:17:37.999Z</time></trkpt><trkpt lat="46.432709453237784" lon="9.997681863496464"><ele>2132.25</ele><time>2026-05-01T13:17:38.999Z</time></trkpt><trkpt lat="46.432601760485205" lon="9.99782406314601"><ele>2133.0</ele><time>2026-05-01T13:17:39.999Z</time></trkpt><trkpt lat="46.43245736911956" lon="9.997892775614671"><ele>2133.0</ele><time>2026-05-01T13:17:40.999Z</time></trkpt><trkpt lat="46.43229353963943" lon="9.997915639424793"><ele>2133.0</ele><time>2026-05-01T13:17:41.999Z</time></trkpt><trkpt lat="46.43208679249159" lon="9.99793971980189"><ele>2133.0</ele><time>2026-05-01T13:17:42.999Z</time></trkpt><trkpt lat="46.431906854475294" lon="9.997939125221215"><ele>2133.0</ele><time>2026-05-01T13:17:43.999Z</time></trkpt><trkpt lat="46.43173831573392" lon="9.997972335177261"><ele>2133.0</ele><time>2026-05-01T13:17:44.999Z</time></trkpt><trkpt lat="46.43159235363397" lon="9.998056560346562"><ele>2133.0</ele><time>2026-05-01T13:17:45.999Z</time></trkpt><trkpt lat="46.43144118298475" lon="9.998200591751013"><ele>2131.6666666666665</ele><time>2026-05-01T13:17:46.999Z</time></trkpt><trkpt lat="46.43130333225849" lon="9.99833374647951"><ele>2130.333333333333</ele><time>2026-05-01T13:17:47.999Z</time></trkpt><trkpt lat="46.43116722938731" lon="9.998530671741896"><ele>2129.0</ele><time>2026-05-01T13:17:48.999Z</time></trkpt><trkpt lat="46.43100985429175" lon="9.99870047165816"><ele>2132.333333333333</ele><time>2026-05-01T13:17:49.999Z</time></trkpt><trkpt lat="46.430828328916505" lon="9.998817175271972"><ele>2135.6666666666665</ele><time>2026-05-01T13:17:50.999Z</time></trkpt><trkpt lat="46.43063594378598" lon="9.998897743761185"><ele>2139.0</ele><time>2026-05-01T13:17:51.999Z</time></trkpt><trkpt lat="46.43043247770737" lon="9.998965711869895"><ele>2139.0</ele><time>2026-05-01T13:17:52.999Z</time></trkpt><trkpt lat="46.43023392053159" lon="9.999023799337637"><ele>2139.0</ele><time>2026-05-01T13:17:53.999Z</time></trkpt><trkpt lat="46.430036933292804" lon="9.999086928282923"><ele>2139.0</ele><time>2026-05-01T13:17:54.999Z</time></trkpt><trkpt lat="46.42983286983983" lon="9.999154148910755"><ele>2148.3333333333335</ele><time>2026-05-01T13:17:55.999Z</time></trkpt><trkpt lat="46.429633863290775" lon="9.999209085954645"><ele>2157.666666666667</ele><time>2026-05-01T13:17:56.999Z</time></trkpt><trkpt lat="46.42943231284265" lon="9.999259358317945"><ele>2167.0</ele><time>2026-05-01T13:17:57.999Z</time></trkpt><trkpt lat="46.42922828071992" lon="9.999274970242372"><ele>2167.0</ele><time>2026-05-01T13:17:58.999Z</time></trkpt><trkpt lat="46.42902976113942" lon="9.999293648178817"><ele>2167.0</ele><time>2026-05-01T13:17:59.999Z</time></trkpt><trkpt lat="46.42882699462885" lon="9.9992987381888"><ele>2167.0</ele><time>2026-05-01T13:18:00.999Z</time></trkpt><trkpt lat="46.42862273424813" lon="9.999282451650213"><ele>2167.666666666667</ele><time>2026-05-01T13:18:01.999Z</time></trkpt><trkpt lat="46.428417229662614" lon="9.9992662459366"><ele>2168.3333333333335</ele><time>2026-05-01T13:18:02.999Z</time></trkpt><trkpt lat="46.4282076155045" lon="9.999239487820615"><ele>2169.0</ele><time>2026-05-01T13:18:03.999Z</time></trkpt><trkpt lat="46.42799658275592" lon="9.999212200701978"><ele>2168.3333333333335</ele><time>2026-05-01T13:18:04.999Z</time></trkpt><trkpt lat="46.427783789080024" lon="9.999192750519832"><ele>2167.666666666667</ele><time>2026-05-01T13:18:05.999Z</time></trkpt><trkpt lat="46.42757240819148" lon="9.999173934986832"><ele>2167.0</ele><time>2026-05-01T13:18:06.999Z</time></trkpt><trkpt lat="46.42735865671769" lon="9.999152284830485"><ele>2162.666666666667</ele><time>2026-05-01T13:18:07.999Z</time></trkpt><trkpt lat="46.42714821589117" lon="9.999138975000138"><ele>2158.3333333333335</ele><time>2026-05-01T13:18:08.999Z</time></trkpt><trkpt lat="46.42696126301065" lon="9.999119004186182"><ele>2154.0</ele><time>2026-05-01T13:18:09.999Z</time></trkpt><trkpt lat="46.426793668875256" lon="9.999090634688548"><ele>2154.0</ele><time>2026-05-01T13:18:10.999Z</time></trkpt><trkpt lat="46.4266262971852" lon="9.999094284110168"><ele>2154.0</ele><time>2026-05-01T13:18:11.999Z</time></trkpt><trkpt lat="46.42643949448294" lon="9.999103572401287"><ele>2154.0</ele><time>2026-05-01T13:18:12.999Z</time></trkpt><trkpt lat="46.426182749823745" lon="9.999133805520678"><ele>2158.0</ele><time>2026-05-01T13:18:13.999Z</time></trkpt><trkpt lat="46.42592652193457" lon="9.999233072472721"><ele>2162.0</ele><time>2026-05-01T13:18:14.999Z</time></trkpt><trkpt lat="46.42566781735041" lon="9.999313842470029"><ele>2162.0</ele><time>2026-05-01T13:18:15.999Z</time></trkpt><trkpt lat="46.42571146910757" lon="9.999637490319879"><ele>2162.0</ele><time>2026-05-01T13:18:16.999Z</time></trkpt><trkpt lat="46.425515878708325" lon="9.999765327441693"><ele>2162.0</ele><time>2026-05-01T13:18:17.999Z</time></trkpt><trkpt lat="46.42531680786182" lon="9.999895136380218"><ele>2164.333333333333</ele><time>2026-05-01T13:18:18.999Z</time></trkpt><trkpt lat="46.4251191991086" lon="10.000023158442797"><ele>2166.6666666666665</ele><time>2026-05-01T13:18:20Z</time></trkpt><trkpt lat="46.42491986169148" lon="10.000160406754633"><ele>2169.0</ele><time>2026-05-01T13:18:21Z</time></trkpt><trkpt lat="46.42472086065089" lon="10.000294432676913"><ele>2169.6666666666665</ele><time>2026-05-01T13:18:22Z</time></trkpt><trkpt lat="46.424522184972" lon="10.00042940335562"><ele>2170.333333333333</ele><time>2026-05-01T13:18:23Z</time></trkpt><trkpt lat="46.424327342325014" lon="10.000564993710084"><ele>2171.0</ele><time>2026-05-01T13:18:24Z</time></trkpt><trkpt lat="46.42413862165498" lon="10.000705790058795"><ele>2173.6666666666665</ele><time>2026-05-01T13:18:25Z</time></trkpt><trkpt lat="46.4239509325742" lon="10.000858688569867"><ele>2176.3333333333335</ele><time>2026-05-01T13:18:26Z</time></trkpt><trkpt lat="46.42376455820172" lon="10.001021820800045"><ele>2179.0</ele><time>2026-05-01T13:18:27Z</time></trkpt><trkpt lat="46.4235808771518" lon="10.001189460224785"><ele>2179.666666666667</ele><time>2026-05-01T13:18:28Z</time></trkpt><trkpt lat="46.42340159079812" lon="10.001359839216287"><ele>2180.3333333333335</ele><time>2026-05-01T13:18:29Z</time></trkpt><trkpt lat="46.42322599744093" lon="10.001531311529"><ele>2181.0</ele><time>2026-05-01T13:18:30Z</time></trkpt><trkpt lat="46.423043588696956" lon="10.00169322860493"><ele>2184.0</ele><time>2026-05-01T13:18:31Z</time></trkpt><trkpt lat="46.42285374730287" lon="10.001845543814207"><ele>2187.0</ele><time>2026-05-01T13:18:32Z</time></trkpt><trkpt lat="46.42265054795111" lon="10.001960596890289"><ele>2190.0</ele><time>2026-05-01T13:18:33Z</time></trkpt><trkpt lat="46.422445044853255" lon="10.0020846179064"><ele>2190.0</ele><time>2026-05-01T13:18:34Z</time></trkpt><trkpt lat="46.42223647093857" lon="10.002207907392417"><ele>2190.0</ele><time>2026-05-01T13:18:35Z</time></trkpt><trkpt lat="46.42203154799009" lon="10.002329038726403"><ele>2190.0</ele><time>2026-05-01T13:18:36Z</time></trkpt><trkpt lat="46.421826942904026" lon="10.002449982209177"><ele>2195.0</ele><time>2026-05-01T13:18:37Z</time></trkpt><trkpt lat="46.421618356274244" lon="10.002573279216309"><ele>2200.0</ele><time>2026-05-01T13:18:38Z</time></trkpt><trkpt lat="46.4214105557121" lon="10.002696111625069"><ele>2202.3333333333335</ele><time>2026-05-01T13:18:39Z</time></trkpt><trkpt lat="46.42120992980736" lon="10.002838684118059"><ele>2204.6666666666665</ele><time>2026-05-01T13:18:40Z</time></trkpt><trkpt lat="46.421019528749646" lon="10.002948315077862"><ele>2207.0</ele><time>2026-05-01T13:18:41Z</time></trkpt><trkpt lat="46.42083947576018" lon="10.003047742677005"><ele>2207.0</ele><time>2026-05-01T13:18:42Z</time></trkpt><trkpt lat="46.42065483437056" lon="10.003156386850224"><ele>2207.0</ele><time>2026-05-01T13:18:43Z</time></trkpt><trkpt lat="46.420482842349266" lon="10.003284427937789"><ele>2207.0</ele><time>2026-05-01T13:18:44Z</time></trkpt><trkpt lat="46.4203474759153" lon="10.003412083301042"><ele>2211.333333333333</ele><time>2026-05-01T13:18:45Z</time></trkpt><trkpt lat="46.42021346256098" lon="10.003571034696431"><ele>2215.6666666666665</ele><time>2026-05-01T13:18:46Z</time></trkpt><trkpt lat="46.4200922361185" lon="10.003766423664716"><ele>2220.0</ele><time>2026-05-01T13:18:47Z</time></trkpt><trkpt lat="46.419972748873356" lon="10.003980812783542"><ele>2221.3333333333335</ele><time>2026-05-01T13:18:48Z</time></trkpt><trkpt lat="46.419867359000364" lon="10.004225869299113"><ele>2222.666666666667</ele><time>2026-05-01T13:18:49Z</time></trkpt><trkpt lat="46.41977228029444" lon="10.004485207087008"><ele>2224.0</ele><time>2026-05-01T13:18:50Z</time></trkpt><trkpt lat="46.41970224999596" lon="10.004766280025075"><ele>2223.0</ele><time>2026-05-01T13:18:51Z</time></trkpt><trkpt lat="46.41964781113594" lon="10.00506994129566"><ele>2222.0</ele><time>2026-05-01T13:18:52Z</time></trkpt><trkpt lat="46.41960871385672" lon="10.005377573419723"><ele>2221.0</ele><time>2026-05-01T13:18:53Z</time></trkpt><trkpt lat="46.41956555213454" lon="10.005687232217333"><ele>2222.0</ele><time>2026-05-01T13:18:54Z</time></trkpt><trkpt lat="46.419527158540006" lon="10.0060040678716"><ele>2223.0</ele><time>2026-05-01T13:18:55Z</time></trkpt><trkpt lat="46.4194874622454" lon="10.006331653774959"><ele>2223.0</ele><time>2026-05-01T13:18:56Z</time></trkpt><trkpt lat="46.419443994149674" lon="10.006638571948107"><ele>2223.0</ele><time>2026-05-01T13:18:57Z</time></trkpt><trkpt lat="46.41939450486914" lon="10.006922923610208"><ele>2223.0</ele><time>2026-05-01T13:18:58Z</time></trkpt><trkpt lat="46.41932950156721" lon="10.007187558038924"><ele>2224.6666666666665</ele><time>2026-05-01T13:18:59Z</time></trkpt><trkpt lat="46.41923540523639" lon="10.007453378025783"><ele>2226.333333333333</ele><time>2026-05-01T13:19:00Z</time></trkpt><trkpt lat="46.41910519928564" lon="10.007725121465914"><ele>2228.0</ele><time>2026-05-01T13:19:01Z</time></trkpt><trkpt lat="46.41897532798081" lon="10.007938098367774"><ele>2230.0</ele><time>2026-05-01T13:19:02Z</time></trkpt><trkpt lat="46.41881827600627" lon="10.008131247466649"><ele>2232.0</ele><time>2026-05-01T13:19:03Z</time></trkpt><trkpt lat="46.41864365738325" lon="10.008327622659278"><ele>2234.0</ele><time>2026-05-01T13:19:04Z</time></trkpt><trkpt lat="46.41848364951211" lon="10.008535498103852"><ele>2234.0</ele><time>2026-05-01T13:19:05Z</time></trkpt><trkpt lat="46.41834046416121" lon="10.00877609535866"><ele>2234.0</ele><time>2026-05-01T13:19:06Z</time></trkpt><trkpt lat="46.418223976904486" lon="10.009038308608336"><ele>2234.0</ele><time>2026-05-01T13:19:07Z</time></trkpt><trkpt lat="46.418110394595146" lon="10.00927394906059"><ele>2233.333333333333</ele><time>2026-05-01T13:19:08Z</time></trkpt><trkpt lat="46.417999340153074" lon="10.009495079429941"><ele>2232.6666666666665</ele><time>2026-05-01T13:19:09Z</time></trkpt><trkpt lat="46.417908472893686" lon="10.009695901393723"><ele>2232.0</ele><time>2026-05-01T13:19:10Z</time></trkpt><trkpt lat="46.41785474856997" lon="10.00989180605752"><ele>2232.3333333333335</ele><time>2026-05-01T13:19:11Z</time></trkpt><trkpt lat="46.41785074657132" lon="10.010112984483841"><ele>2232.666666666667</ele><time>2026-05-01T13:19:12Z</time></trkpt><trkpt lat="46.417884895579334" lon="10.010345776253068"><ele>2233.0</ele><time>2026-05-01T13:19:13Z</time></trkpt><trkpt lat="46.417918400977946" lon="10.01059139435587"><ele>2235.0</ele><time>2026-05-01T13:19:14Z</time></trkpt><trkpt lat="46.417948209210294" lon="10.010848627640742"><ele>2237.0</ele><time>2026-05-01T13:19:15Z</time></trkpt><trkpt lat="46.41795458349774" lon="10.011108915924718"><ele>2239.0</ele><time>2026-05-01T13:19:16Z</time></trkpt><trkpt lat="46.41793117444721" lon="10.011370461502372"><ele>2239.0</ele><time>2026-05-01T13:19:17Z</time></trkpt><trkpt lat="46.417904883139904" lon="10.011636994433504"><ele>2239.0</ele><time>2026-05-01T13:19:18Z</time></trkpt><trkpt lat="46.417847047128824" lon="10.011894092925848"><ele>2239.0</ele><time>2026-05-01T13:19:19Z</time></trkpt><trkpt lat="46.41777154673638" lon="10.012130511544237"><ele>2241.666666666667</ele><time>2026-05-01T13:19:20Z</time></trkpt><trkpt lat="46.417664382072445" lon="10.012311752159212"><ele>2244.3333333333335</ele><time>2026-05-01T13:19:21Z</time></trkpt><trkpt lat="46.41752896031129" lon="10.01247221728303"><ele>2247.0</ele><time>2026-05-01T13:19:22Z</time></trkpt><trkpt lat="46.41736638217744" lon="10.012626097362078"><ele>2248.3333333333335</ele><time>2026-05-01T13:19:23Z</time></trkpt><trkpt lat="46.417196356316644" lon="10.01278539610736"><ele>2249.666666666667</ele><time>2026-05-01T13:19:24Z</time></trkpt><trkpt lat="46.41701807890578" lon="10.012968555120443"><ele>2251.0</ele><time>2026-05-01T13:19:25Z</time></trkpt><trkpt lat="46.416853813191175" lon="10.013122236702133"><ele>2251.0</ele><time>2026-05-01T13:19:26Z</time></trkpt><trkpt lat="46.41668734926995" lon="10.01328337411088"><ele>2251.0</ele><time>2026-05-01T13:19:27Z</time></trkpt><trkpt lat="46.4165207192023" lon="10.013413889090888"><ele>2251.0</ele><time>2026-05-01T13:19:27.999Z</time></trkpt><trkpt lat="46.416353287936374" lon="10.013497604858602"><ele>2252.3333333333335</ele><time>2026-05-01T13:19:28.999Z</time></trkpt><trkpt lat="46.416194809677975" lon="10.01355746827262"><ele>2253.6666666666665</ele><time>2026-05-01T13:19:29.999Z</time></trkpt><trkpt lat="46.41605032236627" lon="10.013624628278952"><ele>2255.0</ele><time>2026-05-01T13:19:30.999Z</time></trkpt><trkpt lat="46.41592991646695" lon="10.013733845212274"><ele>2255.0</ele><time>2026-05-01T13:19:31.999Z</time></trkpt><trkpt lat="46.41573691640188" lon="10.013952779567505"><ele>2255.0</ele><time>2026-05-01T13:19:32.999Z</time></trkpt><trkpt lat="46.415590682120154" lon="10.01421935814925"><ele>2258.0</ele><time>2026-05-01T13:19:33.999Z</time></trkpt><trkpt lat="46.41551590942469" lon="10.014458476737044"><ele>2261.0</ele><time>2026-05-01T13:19:34.999Z</time></trkpt><trkpt lat="46.41555506193336" lon="10.01466544717812"><ele>2264.0</ele><time>2026-05-01T13:19:35.999Z</time></trkpt><trkpt lat="46.41551445955616" lon="10.014908456994968"><ele>2266.333333333333</ele><time>2026-05-01T13:19:36.999Z</time></trkpt><trkpt lat="46.4155062341834" lon="10.015165077874295"><ele>2268.6666666666665</ele><time>2026-05-01T13:19:37.999Z</time></trkpt><trkpt lat="46.41551068631423" lon="10.015418284523129"><ele>2271.0</ele><time>2026-05-01T13:19:38.999Z</time></trkpt><trkpt lat="46.41550338057413" lon="10.015733459624533"><ele>2271.6666666666665</ele><time>2026-05-01T13:19:39.999Z</time></trkpt><trkpt lat="46.41550807972243" lon="10.016024412860068"><ele>2272.333333333333</ele><time>2026-05-01T13:19:40.999Z</time></trkpt><trkpt lat="46.41550866389453" lon="10.016319270124498"><ele>2273.0</ele><time>2026-05-01T13:19:41.999Z</time></trkpt><trkpt lat="46.415499043094485" lon="10.016605254374284"><ele>2272.333333333333</ele><time>2026-05-01T13:19:42.999Z</time></trkpt><trkpt lat="46.415496632422595" lon="10.016861742869573"><ele>2271.6666666666665</ele><time>2026-05-01T13:19:43.999Z</time></trkpt><trkpt lat="46.41549105146613" lon="10.017097976750437"><ele>2271.0</ele><time>2026-05-01T13:19:44.999Z</time></trkpt><trkpt lat="46.41550043668751" lon="10.017325790700603"><ele>2270.6666666666665</ele><time>2026-05-01T13:19:45.999Z</time></trkpt><trkpt lat="46.41554206905276" lon="10.017554204058834"><ele>2270.333333333333</ele><time>2026-05-01T13:19:46.999Z</time></trkpt><trkpt lat="46.41560808447059" lon="10.017775838768086"><ele>2270.0</ele><time>2026-05-01T13:19:47.999Z</time></trkpt><trkpt lat="46.4156871487014" lon="10.017985423574888"><ele>2270.0</ele><time>2026-05-01T13:19:48.999Z</time></trkpt><trkpt lat="46.41575002839549" lon="10.01819027061032"><ele>2270.0</ele><time>2026-05-01T13:19:49.999Z</time></trkpt><trkpt lat="46.41580073149394" lon="10.018368159631327"><ele>2270.0</ele><time>2026-05-01T13:19:50.999Z</time></trkpt><trkpt lat="46.415848338903395" lon="10.018548357819284"><ele>2270.0</ele><time>2026-05-01T13:19:51.999Z</time></trkpt><trkpt lat="46.41590417542334" lon="10.018721567765331"><ele>2269.75</ele><time>2026-05-01T13:19:52.999Z</time></trkpt><trkpt lat="46.41598564160095" lon="10.018910121275297"><ele>2269.5</ele><time>2026-05-01T13:19:53.999Z</time></trkpt><trkpt lat="46.41606679474586" lon="10.019080196131402"><ele>2269.25</ele><time>2026-05-01T13:19:54.999Z</time></trkpt><trkpt lat="46.41607219368712" lon="10.019220185946493"><ele>2269.0</ele><time>2026-05-01T13:19:55.999Z</time></trkpt><trkpt lat="46.41608778787498" lon="10.019350729330668"><ele>2268.5</ele><time>2026-05-01T13:19:56.999Z</time></trkpt><trkpt lat="46.41608639013288" lon="10.01946606891688"><ele>2268.0</ele><time>2026-05-01T13:19:57.999Z</time></trkpt><trkpt lat="46.41647312000832" lon="10.019928493566926"><ele>2272.25</ele><time>2026-05-01T13:19:58.999Z</time></trkpt><trkpt lat="46.41655884319046" lon="10.02011854009973"><ele>2276.5</ele><time>2026-05-01T13:19:59.999Z</time></trkpt><trkpt lat="46.41664339449137" lon="10.020290452580829"><ele>2280.75</ele><time>2026-05-01T13:20:00.999Z</time></trkpt><trkpt lat="46.41670730999294" lon="10.020448254555221"><ele>2285.0</ele><time>2026-05-01T13:20:01.999Z</time></trkpt><trkpt lat="46.41675250489468" lon="10.020604245570507"><ele>2285.0</ele><time>2026-05-01T13:20:02.999Z</time></trkpt><trkpt lat="46.41676497669347" lon="10.020762894740528"><ele>2285.0</ele><time>2026-05-01T13:20:03.999Z</time></trkpt><trkpt lat="46.41672719846544" lon="10.02092288692351"><ele>2285.0</ele><time>2026-05-01T13:20:04.999Z</time></trkpt><trkpt lat="46.416650460344414" lon="10.021045236632702"><ele>2285.0</ele><time>2026-05-01T13:20:05.999Z</time></trkpt><trkpt lat="46.41654301841507" lon="10.021103178572568"><ele>2285.25</ele><time>2026-05-01T13:20:06.999Z</time></trkpt><trkpt lat="46.41639451843979" lon="10.021109467955707"><ele>2285.5</ele><time>2026-05-01T13:20:07.999Z</time></trkpt><trkpt lat="46.41624685453135" lon="10.021060884667381"><ele>2285.75</ele><time>2026-05-01T13:20:08.999Z</time></trkpt><trkpt lat="46.41613684602572" lon="10.020986275193424"><ele>2286.0</ele><time>2026-05-01T13:20:09.999Z</time></trkpt><trkpt lat="46.41604537061611" lon="10.020897774271175"><ele>2286.0</ele><time>2026-05-01T13:20:10.999Z</time></trkpt><trkpt lat="46.41596761998367" lon="10.020828299979641"><ele>2286.0</ele><time>2026-05-01T13:20:11.999Z</time></trkpt><trkpt lat="46.41589143331815" lon="10.02075360303719"><ele>2286.0</ele><time>2026-05-01T13:20:13.999Z</time></trkpt><trkpt lat="46.415829323900596" lon="10.020728085835284"><ele>2286.0</ele><time>2026-05-01T13:20:16.999Z</time></trkpt><trkpt lat="46.4157572169222" lon="10.020742314221241"><ele>2286.0</ele><time>2026-05-01T13:28:22.999Z</time></trkpt><trkpt lat="46.41562741553309" lon="10.020747578609148"><ele>2286.0</ele><time>2026-05-01T13:28:24.999Z</time></trkpt><trkpt lat="46.41554959772792" lon="10.020753490689225"><ele>2286.0</ele><time>2026-05-01T13:28:25.999Z</time></trkpt><trkpt lat="46.415469568614256" lon="10.020754274892433"><ele>2286.0</ele><time>2026-05-01T13:28:26.999Z</time></trkpt><trkpt lat="46.41539430958739" lon="10.020757235318639"><ele>2286.0</ele><time>2026-05-01T13:28:27.999Z</time></trkpt><trkpt lat="46.415318067668466" lon="10.020749415065783"><ele>2286.0</ele><time>2026-05-01T13:28:28.999Z</time></trkpt><trkpt lat="46.41542417247708" lon="10.020837064467335"><ele>2286.0</ele><time>2026-05-01T13:28:30.999Z</time></trkpt><trkpt lat="46.41556274536571" lon="10.020943187315154"><ele>2271.0</ele><time>2026-05-01T13:28:31.999Z</time></trkpt><trkpt lat="46.414937466809995" lon="10.020708508496936"><ele>2271.0</ele><time>2026-05-01T13:28:32.999Z</time></trkpt><trkpt lat="46.414831596428826" lon="10.0206712235685"><ele>2271.0</ele><time>2026-05-01T13:28:33.999Z</time></trkpt><trkpt lat="46.41471737978629" lon="10.020673839167227"><ele>2271.0</ele><time>2026-05-01T13:28:34.999Z</time></trkpt><trkpt lat="46.414609211036534" lon="10.020644347065135"><ele>2271.0</ele><time>2026-05-01T13:28:35.998Z</time></trkpt><trkpt lat="46.41448882610253" lon="10.020622853054318"><ele>2270.25</ele><time>2026-05-01T13:28:36.998Z</time></trkpt><trkpt lat="46.41435235597563" lon="10.02062641127318"><ele>2269.5</ele><time>2026-05-01T13:28:37.998Z</time></trkpt><trkpt lat="46.41420876754215" lon="10.020671224542404"><ele>2268.75</ele><time>2026-05-01T13:28:38.998Z</time></trkpt><trkpt lat="46.41406294570777" lon="10.020736172959023"><ele>2268.0</ele><time>2026-05-01T13:28:39.998Z</time></trkpt><trkpt lat="46.41392706110405" lon="10.020793187915604"><ele>2268.0</ele><time>2026-05-01T13:28:40.998Z</time></trkpt><trkpt lat="46.413774532295534" lon="10.0207909518788"><ele>2268.0</ele><time>2026-05-01T13:28:41.998Z</time></trkpt><trkpt lat="46.41361931137117" lon="10.020795610640366"><ele>2268.0</ele><time>2026-05-01T13:28:42.998Z</time></trkpt><trkpt lat="46.41348012375615" lon="10.020793905606855"><ele>2268.0</ele><time>2026-05-01T13:28:43.998Z</time></trkpt><trkpt lat="46.41334144185172" lon="10.020850120814044"><ele>2274.6666666666665</ele><time>2026-05-01T13:28:44.998Z</time></trkpt><trkpt lat="46.41320383521243" lon="10.020961994718713"><ele>2281.333333333333</ele><time>2026-05-01T13:28:45.998Z</time></trkpt><trkpt lat="46.41305916222136" lon="10.021086603701606"><ele>2288.0</ele><time>2026-05-01T13:28:46.998Z</time></trkpt><trkpt lat="46.41290059001371" lon="10.021214490036183"><ele>2288.0</ele><time>2026-05-01T13:28:47.998Z</time></trkpt><trkpt lat="46.412739552058405" lon="10.021330448842388"><ele>2288.0</ele><time>2026-05-01T13:28:49Z</time></trkpt><trkpt lat="46.41258161683226" lon="10.021425723205994"><ele>2288.0</ele><time>2026-05-01T13:28:50Z</time></trkpt><trkpt lat="46.41241791689542" lon="10.021432433544232"><ele>2288.0</ele><time>2026-05-01T13:28:51Z</time></trkpt><trkpt lat="46.412263584298216" lon="10.02141538308879"><ele>2288.0</ele><time>2026-05-01T13:28:52Z</time></trkpt><trkpt lat="46.412108556182424" lon="10.021354642850946"><ele>2288.0</ele><time>2026-05-01T13:28:53Z</time></trkpt><trkpt lat="46.41194832316768" lon="10.021285482448759"><ele>2289.25</ele><time>2026-05-01T13:28:54Z</time></trkpt><trkpt lat="46.411787001492186" lon="10.021240395219731"><ele>2290.5</ele><time>2026-05-01T13:28:55Z</time></trkpt><trkpt lat="46.41162543073785" lon="10.021249790099473"><ele>2291.75</ele><time>2026-05-01T13:28:56Z</time></trkpt><trkpt lat="46.41150663329449" lon="10.021258683659646"><ele>2293.0</ele><time>2026-05-01T13:28:57Z</time></trkpt><trkpt lat="46.41137271634744" lon="10.02130396780464"><ele>2293.3333333333335</ele><time>2026-05-01T13:28:58Z</time></trkpt><trkpt lat="46.41123737704402" lon="10.021399280597784"><ele>2293.6666666666665</ele><time>2026-05-01T13:28:59Z</time></trkpt><trkpt lat="46.41110111638665" lon="10.021522528727328"><ele>2294.0</ele><time>2026-05-01T13:29:00Z</time></trkpt><trkpt lat="46.410977111602065" lon="10.021679617095916"><ele>2297.0</ele><time>2026-05-01T13:29:01Z</time></trkpt><trkpt lat="46.41087979557461" lon="10.021858445174292"><ele>2300.0</ele><time>2026-05-01T13:29:02Z</time></trkpt><trkpt lat="46.41080647912003" lon="10.022057568673471"><ele>2303.0</ele><time>2026-05-01T13:29:03Z</time></trkpt><trkpt lat="46.4107583010774" lon="10.022278943810855"><ele>2303.6666666666665</ele><time>2026-05-01T13:29:04Z</time></trkpt><trkpt lat="46.41073826750205" lon="10.022523388637365"><ele>2304.3333333333335</ele><time>2026-05-01T13:29:05Z</time></trkpt><trkpt lat="46.410726457030485" lon="10.022784552497157"><ele>2305.0</ele><time>2026-05-01T13:29:06Z</time></trkpt><trkpt lat="46.410734037940635" lon="10.023062070397025"><ele>2304.666666666667</ele><time>2026-05-01T13:29:07Z</time></trkpt><trkpt lat="46.41070559839128" lon="10.023337032207928"><ele>2304.3333333333335</ele><time>2026-05-01T13:29:08Z</time></trkpt><trkpt lat="46.41069289800849" lon="10.02363316242567"><ele>2304.0</ele><time>2026-05-01T13:29:09Z</time></trkpt><trkpt lat="46.41068001769326" lon="10.023937500866886"><ele>2304.3333333333335</ele><time>2026-05-01T13:29:10Z</time></trkpt><trkpt lat="46.41068559949103" lon="10.024252478236377"><ele>2304.666666666667</ele><time>2026-05-01T13:29:11Z</time></trkpt><trkpt lat="46.41067115823689" lon="10.02457712372332"><ele>2305.0</ele><time>2026-05-01T13:29:12Z</time></trkpt><trkpt lat="46.41065790913842" lon="10.024906764411105"><ele>2307.666666666667</ele><time>2026-05-01T13:29:13Z</time></trkpt><trkpt lat="46.41065366679455" lon="10.025214337404249"><ele>2310.3333333333335</ele><time>2026-05-01T13:29:14Z</time></trkpt><trkpt lat="46.41065409554691" lon="10.025492896481587"><ele>2313.0</ele><time>2026-05-01T13:29:15Z</time></trkpt><trkpt lat="46.41065736224028" lon="10.025752131005678"><ele>2314.0</ele><time>2026-05-01T13:29:16Z</time></trkpt><trkpt lat="46.410676243186316" lon="10.026010918943518"><ele>2315.0</ele><time>2026-05-01T13:29:17Z</time></trkpt><trkpt lat="46.41070562333853" lon="10.02626604060966"><ele>2316.0</ele><time>2026-05-01T13:29:18Z</time></trkpt><trkpt lat="46.410735665281585" lon="10.026513683488245"><ele>2318.0</ele><time>2026-05-01T13:29:19Z</time></trkpt><trkpt lat="46.41077101366236" lon="10.026755534026202"><ele>2320.0</ele><time>2026-05-01T13:29:20Z</time></trkpt><trkpt lat="46.410811425725576" lon="10.026987168202457"><ele>2322.0</ele><time>2026-05-01T13:29:21Z</time></trkpt><trkpt lat="46.41083242063653" lon="10.027207634830319"><ele>2322.0</ele><time>2026-05-01T13:29:22Z</time></trkpt><trkpt lat="46.41087089268324" lon="10.02738231737839"><ele>2322.0</ele><time>2026-05-01T13:29:23Z</time></trkpt><trkpt lat="46.41089859801693" lon="10.02759920615616"><ele>2322.0</ele><time>2026-05-01T13:29:24Z</time></trkpt><trkpt lat="46.41093081172267" lon="10.027787568896061"><ele>2322.0</ele><time>2026-05-01T13:29:25Z</time></trkpt><trkpt lat="46.41097683946462" lon="10.027962024979338"><ele>2322.0</ele><time>2026-05-01T13:29:26Z</time></trkpt><trkpt lat="46.41100474708103" lon="10.028150349946868"><ele>2322.0</ele><time>2026-05-01T13:29:27Z</time></trkpt><trkpt lat="46.41104891282607" lon="10.028341615451232"><ele>2322.0</ele><time>2026-05-01T13:29:28Z</time></trkpt><trkpt lat="46.41110145742181" lon="10.028520336097404"><ele>2322.0</ele><time>2026-05-01T13:29:29Z</time></trkpt><trkpt lat="46.41116547196052" lon="10.028683438587136"><ele>2322.0</ele><time>2026-05-01T13:29:30Z</time></trkpt><trkpt lat="46.411241622440954" lon="10.028847172097517"><ele>2322.0</ele><time>2026-05-01T13:29:31Z</time></trkpt><trkpt lat="46.41131732128838" lon="10.029003604049558"><ele>2322.0</ele><time>2026-05-01T13:29:31.999Z</time></trkpt><trkpt lat="46.41138626890895" lon="10.029143894823633"><ele>2322.0</ele><time>2026-05-01T13:29:32.999Z</time></trkpt><trkpt lat="46.41144328460083" lon="10.029269321331189"><ele>2323.75</ele><time>2026-05-01T13:29:33.999Z</time></trkpt><trkpt lat="46.41148740989686" lon="10.02940617373206"><ele>2325.5</ele><time>2026-05-01T13:29:34.999Z</time></trkpt><trkpt lat="46.411513648235974" lon="10.029563350239203"><ele>2327.25</ele><time>2026-05-01T13:29:35.999Z</time></trkpt><trkpt lat="46.41149394309112" lon="10.029737455577099"><ele>2329.0</ele><time>2026-05-01T13:29:36.999Z</time></trkpt><trkpt lat="46.41146281900449" lon="10.029900717401672"><ele>2328.75</ele><time>2026-05-01T13:29:37.999Z</time></trkpt><trkpt lat="46.41142284001675" lon="10.030063374509576"><ele>2328.5</ele><time>2026-05-01T13:29:38.999Z</time></trkpt><trkpt lat="46.41138810342612" lon="10.030242339637747"><ele>2328.25</ele><time>2026-05-01T13:29:39.999Z</time></trkpt><trkpt lat="46.41134293503193" lon="10.030422190977776"><ele>2328.0</ele><time>2026-05-01T13:29:40.999Z</time></trkpt><trkpt lat="46.41132856058547" lon="10.030615220698005"><ele>2326.6666666666665</ele><time>2026-05-01T13:29:41.999Z</time></trkpt><trkpt lat="46.411334423530306" lon="10.030823859253022"><ele>2325.333333333333</ele><time>2026-05-01T13:29:42.999Z</time></trkpt><trkpt lat="46.41138481851355" lon="10.031057422707796"><ele>2324.0</ele><time>2026-05-01T13:29:43.999Z</time></trkpt><trkpt lat="46.41143510905837" lon="10.031312557183345"><ele>2324.0</ele><time>2026-05-01T13:29:44.999Z</time></trkpt><trkpt lat="46.41145982363118" lon="10.031544492096595"><ele>2324.0</ele><time>2026-05-01T13:29:45.999Z</time></trkpt><trkpt lat="46.41145363373006" lon="10.0317383380975"><ele>2324.0</ele><time>2026-05-01T13:29:46.999Z</time></trkpt><trkpt lat="46.411432666095166" lon="10.031930787105281"><ele>2324.0</ele><time>2026-05-01T13:29:47.999Z</time></trkpt><trkpt lat="46.411424514900915" lon="10.032129086979479"><ele>2322.2</ele><time>2026-05-01T13:29:48.999Z</time></trkpt><trkpt lat="46.411411391943" lon="10.03229801376221"><ele>2320.4</ele><time>2026-05-01T13:29:49.999Z</time></trkpt><trkpt lat="46.41142238959558" lon="10.03245689644353"><ele>2318.6</ele><time>2026-05-01T13:29:50.999Z</time></trkpt><trkpt lat="46.41145096604134" lon="10.032608760911812"><ele>2316.8</ele><time>2026-05-01T13:29:51.999Z</time></trkpt><trkpt lat="46.411494908213804" lon="10.03274790406424"><ele>2315.0</ele><time>2026-05-01T13:29:52.999Z</time></trkpt><trkpt lat="46.4115704974794" lon="10.032852120249359"><ele>2311.0</ele><time>2026-05-01T13:29:53.999Z</time></trkpt><trkpt lat="46.411651581564094" lon="10.03296289086399"><ele>2307.0</ele><time>2026-05-01T13:29:54.999Z</time></trkpt><trkpt lat="46.411744663675805" lon="10.033067256424339"><ele>2303.0</ele><time>2026-05-01T13:29:55.999Z</time></trkpt><trkpt lat="46.4118499411289" lon="10.033148269514617"><ele>2299.0</ele><time>2026-05-01T13:29:56.999Z</time></trkpt><trkpt lat="46.41194714917178" lon="10.03323385620892"><ele>2300.75</ele><time>2026-05-01T13:29:57.999Z</time></trkpt><trkpt lat="46.41204098628422" lon="10.033327785507856"><ele>2302.5</ele><time>2026-05-01T13:29:58.999Z</time></trkpt><trkpt lat="46.412126524875006" lon="10.033437606876493"><ele>2304.25</ele><time>2026-05-01T13:29:59.999Z</time></trkpt><trkpt lat="46.412202294068294" lon="10.033567308799809"><ele>2306.0</ele><time>2026-05-01T13:30:00.999Z</time></trkpt><trkpt lat="46.41226017261735" lon="10.033719444538706"><ele>2306.0</ele><time>2026-05-01T13:30:01.999Z</time></trkpt><trkpt lat="46.41230963153849" lon="10.033877669873347"><ele>2306.0</ele><time>2026-05-01T13:30:02.999Z</time></trkpt><trkpt lat="46.41234831230346" lon="10.03405036623322"><ele>2306.0</ele><time>2026-05-01T13:30:03.999Z</time></trkpt><trkpt lat="46.41239264223337" lon="10.034216197600326"><ele>2306.0</ele><time>2026-05-01T13:30:04.999Z</time></trkpt><trkpt lat="46.41244617078438" lon="10.03434930942614"><ele>2300.25</ele><time>2026-05-01T13:30:05.999Z</time></trkpt><trkpt lat="46.41253473686658" lon="10.034481603845597"><ele>2294.5</ele><time>2026-05-01T13:30:06.999Z</time></trkpt><trkpt lat="46.41262841296613" lon="10.034585265369916"><ele>2288.75</ele><time>2026-05-01T13:30:07.999Z</time></trkpt><trkpt lat="46.41274167165213" lon="10.03466170510994"><ele>2283.0</ele><time>2026-05-01T13:30:08.999Z</time></trkpt><trkpt lat="46.41286248555727" lon="10.034728574857633"><ele>2283.0</ele><time>2026-05-01T13:30:09.999Z</time></trkpt><trkpt lat="46.41298910338998" lon="10.034791304428984"><ele>2283.0</ele><time>2026-05-01T13:30:10.999Z</time></trkpt><trkpt lat="46.413101254754906" lon="10.034879861563244"><ele>2283.0</ele><time>2026-05-01T13:30:11.999Z</time></trkpt><trkpt lat="46.41321247640355" lon="10.03498202028068"><ele>2283.0</ele><time>2026-05-01T13:30:12.999Z</time></trkpt><trkpt lat="46.41332932399163" lon="10.035099639588026"><ele>2282.25</ele><time>2026-05-01T13:30:13.999Z</time></trkpt><trkpt lat="46.4134353379244" lon="10.03524384885949"><ele>2281.5</ele><time>2026-05-01T13:30:14.999Z</time></trkpt><trkpt lat="46.41353497046934" lon="10.035405397305796"><ele>2280.75</ele><time>2026-05-01T13:30:15.999Z</time></trkpt><trkpt lat="46.4136011717747" lon="10.03554897150585"><ele>2280.0</ele><time>2026-05-01T13:30:16.999Z</time></trkpt><trkpt lat="46.41369153396614" lon="10.035771529969374"><ele>2281.0</ele><time>2026-05-01T13:30:17.999Z</time></trkpt><trkpt lat="46.41384053159934" lon="10.036107658209943"><ele>2282.0</ele><time>2026-05-01T13:30:18.999Z</time></trkpt><trkpt lat="46.41395512132219" lon="10.036331102700945"><ele>2282.0</ele><time>2026-05-01T13:30:19.999Z</time></trkpt><trkpt lat="46.41407504429149" lon="10.036522193951752"><ele>2282.0</ele><time>2026-05-01T13:30:20.999Z</time></trkpt><trkpt lat="46.41418193045121" lon="10.036702336490656"><ele>2282.0</ele><time>2026-05-01T13:30:21.999Z</time></trkpt><trkpt lat="46.414257228121365" lon="10.036897798014255"><ele>2273.0</ele><time>2026-05-01T13:30:22.999Z</time></trkpt><trkpt lat="46.41428843371936" lon="10.037128149144792"><ele>2264.0</ele><time>2026-05-01T13:30:23.999Z</time></trkpt><trkpt lat="46.414267930920246" lon="10.037349535566818"><ele>2255.0</ele><time>2026-05-01T13:30:24.999Z</time></trkpt><trkpt lat="46.41426747979249" lon="10.03754361090733"><ele>2251.75</ele><time>2026-05-01T13:30:25.999Z</time></trkpt><trkpt lat="46.414287809667755" lon="10.03773120123143"><ele>2248.5</ele><time>2026-05-01T13:30:26.999Z</time></trkpt><trkpt lat="46.414307850712625" lon="10.03794031807719"><ele>2245.25</ele><time>2026-05-01T13:30:27.999Z</time></trkpt><trkpt lat="46.4143628449907" lon="10.038132172940195"><ele>2242.0</ele><time>2026-05-01T13:30:28.999Z</time></trkpt><trkpt lat="46.41445053982332" lon="10.038301126441006"><ele>2243.25</ele><time>2026-05-01T13:30:29.999Z</time></trkpt><trkpt lat="46.41456679289766" lon="10.038438817163208"><ele>2244.5</ele><time>2026-05-01T13:30:30.999Z</time></trkpt><trkpt lat="46.414704716750954" lon="10.038545455552715"><ele>2245.75</ele><time>2026-05-01T13:30:31.999Z</time></trkpt><trkpt lat="46.41480130620534" lon="10.038667727016335"><ele>2247.0</ele><time>2026-05-01T13:30:32.998Z</time></trkpt><trkpt lat="46.41488397242445" lon="10.038833182637559"><ele>2247.0</ele><time>2026-05-01T13:30:33.998Z</time></trkpt><trkpt lat="46.41496443697948" lon="10.039044468772865"><ele>2247.0</ele><time>2026-05-01T13:30:34.998Z</time></trkpt><trkpt lat="46.415141055024804" lon="10.039310297345734"><ele>2247.0</ele><time>2026-05-01T13:30:35.998Z</time></trkpt><trkpt lat="46.41524099342852" lon="10.039523580163104"><ele>2244.6666666666665</ele><time>2026-05-01T13:30:36.998Z</time></trkpt><trkpt lat="46.41534056211152" lon="10.039710233663792"><ele>2242.333333333333</ele><time>2026-05-01T13:30:37.998Z</time></trkpt><trkpt lat="46.415442331395" lon="10.039870511008354"><ele>2240.0</ele><time>2026-05-01T13:30:38.998Z</time></trkpt><trkpt lat="46.41553505820434" lon="10.040017860855803"><ele>2240.0</ele><time>2026-05-01T13:30:39.998Z</time></trkpt><trkpt lat="46.41562574772143" lon="10.040128705831687"><ele>2240.0</ele><time>2026-05-01T13:30:40.998Z</time></trkpt><trkpt lat="46.41571712070787" lon="10.040223998217314"><ele>2240.0</ele><time>2026-05-01T13:30:41.998Z</time></trkpt><trkpt lat="46.4157984270776" lon="10.04031138161117"><ele>2240.0</ele><time>2026-05-01T13:30:42.998Z</time></trkpt><trkpt lat="46.41585868642267" lon="10.040402787982103"><ele>2240.0</ele><time>2026-05-01T13:30:43.998Z</time></trkpt><trkpt lat="46.41588182680079" lon="10.04051464427685"><ele>2240.0</ele><time>2026-05-01T13:30:44.998Z</time></trkpt><trkpt lat="46.41583984714663" lon="10.040627063833341"><ele>2240.0</ele><time>2026-05-01T13:30:45.998Z</time></trkpt><trkpt lat="46.41576859332394" lon="10.040689812243405"><ele>2240.0</ele><time>2026-05-01T13:30:46.998Z</time></trkpt><trkpt lat="46.41566899593311" lon="10.040656616907947"><ele>2240.0</ele><time>2026-05-01T13:30:47.998Z</time></trkpt><trkpt lat="46.41561598302046" lon="10.040515127189536"><ele>2240.0</ele><time>2026-05-01T13:30:48.998Z</time></trkpt><trkpt lat="46.41553330411177" lon="10.040373519788034"><ele>2236.333333333333</ele><time>2026-05-01T13:30:49.998Z</time></trkpt><trkpt lat="46.41543924948172" lon="10.040221676086276"><ele>2232.6666666666665</ele><time>2026-05-01T13:30:50.998Z</time></trkpt><trkpt lat="46.415318012088086" lon="10.040037451306667"><ele>2229.0</ele><time>2026-05-01T13:30:51.998Z</time></trkpt><trkpt lat="46.415190424896906" lon="10.039871343904872"><ele>2229.0</ele><time>2026-05-01T13:30:52.998Z</time></trkpt><trkpt lat="46.41505103601398" lon="10.03970422631749"><ele>2229.0</ele><time>2026-05-01T13:30:53.998Z</time></trkpt><trkpt lat="46.41490384593982" lon="10.039537413251265"><ele>2229.0</ele><time>2026-05-01T13:30:55Z</time></trkpt><trkpt lat="46.4147266785399" lon="10.039404265471857"><ele>2223.0</ele><time>2026-05-01T13:30:56Z</time></trkpt><trkpt lat="46.414522871483484" lon="10.039323337510782"><ele>2217.0</ele><time>2026-05-01T13:30:57Z</time></trkpt><trkpt lat="46.41431393999484" lon="10.039269981542981"><ele>2211.0</ele><time>2026-05-01T13:30:58Z</time></trkpt><trkpt lat="46.41410323254962" lon="10.039205657526427"><ele>2210.3333333333335</ele><time>2026-05-01T13:30:59Z</time></trkpt><trkpt lat="46.41389923905852" lon="10.039118481729492"><ele>2209.666666666667</ele><time>2026-05-01T13:31:00Z</time></trkpt><trkpt lat="46.413705041960796" lon="10.03901093113729"><ele>2209.0</ele><time>2026-05-01T13:31:01Z</time></trkpt><trkpt lat="46.41351783749854" lon="10.038872036158027"><ele>2209.0</ele><time>2026-05-01T13:31:02Z</time></trkpt><trkpt lat="46.413335888889215" lon="10.038693758234677"><ele>2209.0</ele><time>2026-05-01T13:31:03Z</time></trkpt><trkpt lat="46.41316523211958" lon="10.038492861403476"><ele>2209.0</ele><time>2026-05-01T13:31:04Z</time></trkpt><trkpt lat="46.41301133257466" lon="10.0383039929187"><ele>2202.666666666667</ele><time>2026-05-01T13:31:05Z</time></trkpt><trkpt lat="46.41286463775405" lon="10.038135042766601"><ele>2196.3333333333335</ele><time>2026-05-01T13:31:06Z</time></trkpt><trkpt lat="46.41273807191401" lon="10.03800998651878"><ele>2190.0</ele><time>2026-05-01T13:31:07Z</time></trkpt><trkpt lat="46.412627696503606" lon="10.03792924091731"><ele>2190.0</ele><time>2026-05-01T13:31:08Z</time></trkpt><trkpt lat="46.412500450908986" lon="10.03789342264727"><ele>2190.0</ele><time>2026-05-01T13:31:09Z</time></trkpt><trkpt lat="46.41236994927423" lon="10.037898569132066"><ele>2190.0</ele><time>2026-05-01T13:31:10Z</time></trkpt><trkpt lat="46.412250574635564" lon="10.037960762164476"><ele>2190.0</ele><time>2026-05-01T13:31:11Z</time></trkpt><trkpt lat="46.41214655655923" lon="10.038068056560109"><ele>2186.5</ele><time>2026-05-01T13:31:12Z</time></trkpt><trkpt lat="46.41206565780825" lon="10.03821974231477"><ele>2183.0</ele><time>2026-05-01T13:31:13Z</time></trkpt><trkpt lat="46.41201081809447" lon="10.038399152934346"><ele>2179.5</ele><time>2026-05-01T13:31:14Z</time></trkpt><trkpt lat="46.41199518411401" lon="10.038590996676978"><ele>2176.0</ele><time>2026-05-01T13:31:15Z</time></trkpt><trkpt lat="46.41200508709902" lon="10.038790030532706"><ele>2176.0</ele><time>2026-05-01T13:31:16Z</time></trkpt><trkpt lat="46.41208272977811" lon="10.038996440767356"><ele>2176.0</ele><time>2026-05-01T13:31:17Z</time></trkpt><trkpt lat="46.41221050602931" lon="10.039124933050044"><ele>2176.0</ele><time>2026-05-01T13:31:18Z</time></trkpt><trkpt lat="46.41233335036265" lon="10.039238841555713"><ele>2178.0</ele><time>2026-05-01T13:31:19Z</time></trkpt><trkpt lat="46.41243417098403" lon="10.039380693268043"><ele>2180.0</ele><time>2026-05-01T13:31:20Z</time></trkpt><trkpt lat="46.41250931575503" lon="10.039548788598733"><ele>2182.0</ele><time>2026-05-01T13:31:21Z</time></trkpt><trkpt lat="46.412526388782084" lon="10.039742432756444"><ele>2184.0</ele><time>2026-05-01T13:31:22Z</time></trkpt><trkpt lat="46.41252930250372" lon="10.03995497543655"><ele>2181.25</ele><time>2026-05-01T13:31:23Z</time></trkpt><trkpt lat="46.41254881942623" lon="10.040154145841505"><ele>2178.5</ele><time>2026-05-01T13:31:24Z</time></trkpt><trkpt lat="46.412586385058354" lon="10.040365532437225"><ele>2175.75</ele><time>2026-05-01T13:31:25Z</time></trkpt><trkpt lat="46.41264185067682" lon="10.040571209781588"><ele>2173.0</ele><time>2026-05-01T13:31:26Z</time></trkpt><trkpt lat="46.41275620271734" lon="10.040716270030737"><ele>2172.75</ele><time>2026-05-01T13:31:27Z</time></trkpt><trkpt lat="46.41287767722526" lon="10.040842204228868"><ele>2172.5</ele><time>2026-05-01T13:31:28Z</time></trkpt><trkpt lat="46.413019115169185" lon="10.040929649655371"><ele>2172.25</ele><time>2026-05-01T13:31:29Z</time></trkpt><trkpt lat="46.41314432856637" lon="10.041014645122548"><ele>2172.0</ele><time>2026-05-01T13:31:30Z</time></trkpt><trkpt lat="46.41324811250789" lon="10.041110634068094"><ele>2172.0</ele><time>2026-05-01T13:31:31Z</time></trkpt><trkpt lat="46.41334172977203" lon="10.041187067391219"><ele>2172.0</ele><time>2026-05-01T13:31:32Z</time></trkpt><trkpt lat="46.41341531705064" lon="10.041214539754748"><ele>2172.0</ele><time>2026-05-01T13:31:33Z</time></trkpt><trkpt lat="46.413707705925304" lon="10.04143281364228"><ele>2172.0</ele><time>2026-05-01T13:31:33.999Z</time></trkpt><trkpt lat="46.41381712470748" lon="10.041525176552563"><ele>2172.0</ele><time>2026-05-01T13:31:34.999Z</time></trkpt><trkpt lat="46.4138689081189" lon="10.041700591188379"><ele>2172.0</ele><time>2026-05-01T13:31:35.999Z</time></trkpt><trkpt lat="46.41387091282248" lon="10.0419105834786"><ele>2172.0</ele><time>2026-05-01T13:31:36.999Z</time></trkpt><trkpt lat="46.41387884235506" lon="10.042152044641165"><ele>2171.0</ele><time>2026-05-01T13:31:37.999Z</time></trkpt><trkpt lat="46.41387819623362" lon="10.04240480106146"><ele>2170.0</ele><time>2026-05-01T13:31:38.999Z</time></trkpt><trkpt lat="46.41386446607424" lon="10.04264952591409"><ele>2169.0</ele><time>2026-05-01T13:31:39.999Z</time></trkpt><trkpt lat="46.41381360747649" lon="10.042876354921832"><ele>2160.0</ele><time>2026-05-01T13:31:40.999Z</time></trkpt><trkpt lat="46.413750864984394" lon="10.043094008095547"><ele>2151.0</ele><time>2026-05-01T13:31:41.999Z</time></trkpt><trkpt lat="46.413671426980564" lon="10.04335517179652"><ele>2142.0</ele><time>2026-05-01T13:31:42.999Z</time></trkpt><trkpt lat="46.41360919174864" lon="10.043571668603997"><ele>2141.6666666666665</ele><time>2026-05-01T13:31:43.999Z</time></trkpt><trkpt lat="46.41359329652136" lon="10.04381141478582"><ele>2141.333333333333</ele><time>2026-05-01T13:31:44.999Z</time></trkpt><trkpt lat="46.41357913645473" lon="10.04403619382495"><ele>2141.0</ele><time>2026-05-01T13:31:45.999Z</time></trkpt><trkpt lat="46.41358646237563" lon="10.04425497681501"><ele>2141.0</ele><time>2026-05-01T13:31:46.999Z</time></trkpt><trkpt lat="46.41360191155512" lon="10.044463750900634"><ele>2141.0</ele><time>2026-05-01T13:31:47.999Z</time></trkpt><trkpt lat="46.41360814862365" lon="10.044657465414389"><ele>2141.0</ele><time>2026-05-01T13:31:48.999Z</time></trkpt><trkpt lat="46.41358336901518" lon="10.044826679405285"><ele>2141.0</ele><time>2026-05-01T13:31:49.999Z</time></trkpt><trkpt lat="46.41352767480465" lon="10.04496554588847"><ele>2140.75</ele><time>2026-05-01T13:31:50.999Z</time></trkpt><trkpt lat="46.413435173373166" lon="10.045066927927884"><ele>2140.5</ele><time>2026-05-01T13:31:51.999Z</time></trkpt><trkpt lat="46.41332079659401" lon="10.045110415757136"><ele>2140.25</ele><time>2026-05-01T13:31:52.999Z</time></trkpt><trkpt lat="46.41318673300138" lon="10.045144169786287"><ele>2140.0</ele><time>2026-05-01T13:31:53.999Z</time></trkpt><trkpt lat="46.41305124944353" lon="10.04517960284993"><ele>2139.25</ele><time>2026-05-01T13:31:54.999Z</time></trkpt><trkpt lat="46.41292680626106" lon="10.045221141160303"><ele>2138.5</ele><time>2026-05-01T13:31:55.999Z</time></trkpt><trkpt lat="46.41282099807166" lon="10.045323376093194"><ele>2137.75</ele><time>2026-05-01T13:31:56.999Z</time></trkpt><trkpt lat="46.41273134226095" lon="10.045410686154563"><ele>2137.0</ele><time>2026-05-01T13:31:57.999Z</time></trkpt><trkpt lat="46.412677588060816" lon="10.045530763903031"><ele>2137.0</ele><time>2026-05-01T13:31:58.999Z</time></trkpt><trkpt lat="46.4126958258868" lon="10.045695380082202"><ele>2137.0</ele><time>2026-05-01T13:31:59.999Z</time></trkpt><trkpt lat="46.41273851247305" lon="10.045879870972788"><ele>2137.0</ele><time>2026-05-01T13:32:00.999Z</time></trkpt><trkpt lat="46.41278045976147" lon="10.046081687297407"><ele>2137.0</ele><time>2026-05-01T13:32:01.999Z</time></trkpt><trkpt lat="46.412806968174515" lon="10.046286272440389"><ele>2133.5</ele><time>2026-05-01T13:32:02.999Z</time></trkpt><trkpt lat="46.41283573807469" lon="10.04645801769725"><ele>2130.0</ele><time>2026-05-01T13:32:03.999Z</time></trkpt><trkpt lat="46.41289607935058" lon="10.046606796723635"><ele>2126.5</ele><time>2026-05-01T13:32:04.999Z</time></trkpt><trkpt lat="46.41299505871689" lon="10.046723101553141"><ele>2123.0</ele><time>2026-05-01T13:32:05.999Z</time></trkpt><trkpt lat="46.41311940496312" lon="10.046779264559007"><ele>2121.0</ele><time>2026-05-01T13:32:06.999Z</time></trkpt><trkpt lat="46.41325632959515" lon="10.046796363382633"><ele>2119.0</ele><time>2026-05-01T13:32:07.999Z</time></trkpt><trkpt lat="46.413406502702735" lon="10.046774570112916"><ele>2117.0</ele><time>2026-05-01T13:32:08.999Z</time></trkpt><trkpt lat="46.41356628677708" lon="10.046738828092607"><ele>2117.0</ele><time>2026-05-01T13:32:09.999Z</time></trkpt><trkpt lat="46.41370820605513" lon="10.046746251003064"><ele>2117.0</ele><time>2026-05-01T13:32:10.999Z</time></trkpt><trkpt lat="46.41383798528407" lon="10.04679455004564"><ele>2117.0</ele><time>2026-05-01T13:32:11.999Z</time></trkpt><trkpt lat="46.413920507460816" lon="10.046903252005643"><ele>2117.0</ele><time>2026-05-01T13:32:12.999Z</time></trkpt><trkpt lat="46.41397714391116" lon="10.047001919510677"><ele>2117.0</ele><time>2026-05-01T13:32:13.999Z</time></trkpt><trkpt lat="46.413986397319846" lon="10.047125131440595"><ele>2117.0</ele><time>2026-05-01T13:32:14.999Z</time></trkpt><trkpt lat="46.4139803354688" lon="10.04725038023999"><ele>2117.0</ele><time>2026-05-01T13:32:15.999Z</time></trkpt><trkpt lat="46.41393144298771" lon="10.047342176166927"><ele>2117.0</ele><time>2026-05-01T13:32:16.999Z</time></trkpt><trkpt lat="46.41382813562602" lon="10.047351334516518"><ele>2117.0</ele><time>2026-05-01T13:32:17.999Z</time></trkpt><trkpt lat="46.41369212101969" lon="10.04735007396268"><ele>2117.0</ele><time>2026-05-01T13:32:18.999Z</time></trkpt><trkpt lat="46.41354625059428" lon="10.04736713929641"><ele>2117.0</ele><time>2026-05-01T13:32:19.999Z</time></trkpt><trkpt lat="46.41340039615459" lon="10.047386136494458"><ele>2117.0</ele><time>2026-05-01T13:32:20.999Z</time></trkpt><trkpt lat="46.413255261500346" lon="10.047428131420457"><ele>2117.0</ele><time>2026-05-01T13:32:21.999Z</time></trkpt><trkpt lat="46.41314725306173" lon="10.047435855127643"><ele>2114.4</ele><time>2026-05-01T13:32:22.999Z</time></trkpt><trkpt lat="46.413069600277005" lon="10.047461946736076"><ele>2111.7999999999997</ele><time>2026-05-01T13:32:23.999Z</time></trkpt><trkpt lat="46.41300296236181" lon="10.047540999752162"><ele>2109.2</ele><time>2026-05-01T13:32:24.999Z</time></trkpt><trkpt lat="46.412983556620226" lon="10.047680492500945"><ele>2106.6</ele><time>2026-05-01T13:32:25.999Z</time></trkpt><trkpt lat="46.41302192905165" lon="10.047824725057618"><ele>2104.0</ele><time>2026-05-01T13:32:26.999Z</time></trkpt><trkpt lat="46.41311095158347" lon="10.04796626540752"><ele>2104.0</ele><time>2026-05-01T13:32:27.999Z</time></trkpt><trkpt lat="46.41317987380323" lon="10.04809530500047"><ele>2104.0</ele><time>2026-05-01T13:32:28.999Z</time></trkpt><trkpt lat="46.41320532214535" lon="10.048283915714672"><ele>2104.0</ele><time>2026-05-01T13:32:29.999Z</time></trkpt><trkpt lat="46.41317434590902" lon="10.048396705830035"><ele>2104.0</ele><time>2026-05-01T13:32:30.999Z</time></trkpt><trkpt lat="46.41311436534304" lon="10.048468563025924"><ele>2104.0</ele><time>2026-05-01T13:32:31.999Z</time></trkpt><trkpt lat="46.41301886047304" lon="10.048522259432994"><ele>2100.75</ele><time>2026-05-01T13:32:32.999Z</time></trkpt><trkpt lat="46.412937027732085" lon="10.04841114585499"><ele>2097.5</ele><time>2026-05-01T13:32:33.999Z</time></trkpt><trkpt lat="46.412885050762476" lon="10.048304744488895"><ele>2094.25</ele><time>2026-05-01T13:32:34.999Z</time></trkpt><trkpt lat="46.41276701751998" lon="10.048085063229479"><ele>2091.0</ele><time>2026-05-01T13:32:35.999Z</time></trkpt><trkpt lat="46.41269936527739" lon="10.047926587210354"><ele>2091.0</ele><time>2026-05-01T13:32:36.999Z</time></trkpt><trkpt lat="46.41261405512931" lon="10.047788653631613"><ele>2091.0</ele><time>2026-05-01T13:32:37.998Z</time></trkpt><trkpt lat="46.41253370566155" lon="10.047714253443045"><ele>2091.0</ele><time>2026-05-01T13:32:38.998Z</time></trkpt><trkpt lat="46.412438942372255" lon="10.047696362459892"><ele>2091.0</ele><time>2026-05-01T13:32:39.998Z</time></trkpt><trkpt lat="46.412320045433596" lon="10.047766273156798"><ele>2091.0</ele><time>2026-05-01T13:32:40.998Z</time></trkpt><trkpt lat="46.412212440119205" lon="10.047850561670165"><ele>2087.3333333333335</ele><time>2026-05-01T13:32:41.998Z</time></trkpt><trkpt lat="46.41206967259009" lon="10.048004550322524"><ele>2083.666666666667</ele><time>2026-05-01T13:32:42.998Z</time></trkpt><trkpt lat="46.41194905536546" lon="10.048150110925361"><ele>2080.0</ele><time>2026-05-01T13:32:43.998Z</time></trkpt><trkpt lat="46.41182112472593" lon="10.048260221090189"><ele>2079.0</ele><time>2026-05-01T13:32:44.998Z</time></trkpt><trkpt lat="46.41171378105887" lon="10.048365522837381"><ele>2078.0</ele><time>2026-05-01T13:32:45.998Z</time></trkpt><trkpt lat="46.41151378615268" lon="10.048539364043226"><ele>2077.0</ele><time>2026-05-01T13:32:46.998Z</time></trkpt><trkpt lat="46.41134920905774" lon="10.048688803188734"><ele>2072.3333333333335</ele><time>2026-05-01T13:32:47.998Z</time></trkpt><trkpt lat="46.4111856890471" lon="10.048840648087591"><ele>2067.6666666666665</ele><time>2026-05-01T13:32:48.998Z</time></trkpt><trkpt lat="46.411081172787604" lon="10.048945722457207"><ele>2063.0</ele><time>2026-05-01T13:32:49.998Z</time></trkpt><trkpt lat="46.41096499119153" lon="10.049045643235175"><ele>2063.5</ele><time>2026-05-01T13:32:50.998Z</time></trkpt><trkpt lat="46.41086487875916" lon="10.049187157816682"><ele>2064.0</ele><time>2026-05-01T13:32:51.998Z</time></trkpt><trkpt lat="46.410786470157774" lon="10.049334405153045"><ele>2064.5</ele><time>2026-05-01T13:32:52.998Z</time></trkpt><trkpt lat="46.41073282253263" lon="10.049512850899363"><ele>2065.0</ele><time>2026-05-01T13:32:53.998Z</time></trkpt><trkpt lat="46.41070917793162" lon="10.049707677837548"><ele>2065.0</ele><time>2026-05-01T13:32:54.998Z</time></trkpt><trkpt lat="46.41072527001211" lon="10.049911342953395"><ele>2065.0</ele><time>2026-05-01T13:32:55.998Z</time></trkpt><trkpt lat="46.410788642887404" lon="10.050098394642768"><ele>2065.0</ele><time>2026-05-01T13:32:56.998Z</time></trkpt><trkpt lat="46.410880483858364" lon="10.050246591103097"><ele>2065.0</ele><time>2026-05-01T13:32:57.998Z</time></trkpt><trkpt lat="46.410990766742316" lon="10.050369627234977"><ele>2065.0</ele><time>2026-05-01T13:32:58.998Z</time></trkpt><trkpt lat="46.41111790497959" lon="10.050449343098961"><ele>2065.0</ele><time>2026-05-01T13:32:59.998Z</time></trkpt><trkpt lat="46.411233476672166" lon="10.050535670136107"><ele>2065.0</ele><time>2026-05-01T13:33:01Z</time></trkpt><trkpt lat="46.41132101814995" lon="10.050642255515077"><ele>2065.0</ele><time>2026-05-01T13:33:02Z</time></trkpt><trkpt lat="46.41138354531662" lon="10.05076167161735"><ele>2062.25</ele><time>2026-05-01T13:33:03Z</time></trkpt><trkpt lat="46.41141198861136" lon="10.050922603060641"><ele>2059.5</ele><time>2026-05-01T13:33:04Z</time></trkpt><trkpt lat="46.4113584299417" lon="10.051084448134112"><ele>2056.75</ele><time>2026-05-01T13:33:05Z</time></trkpt><trkpt lat="46.411332941277585" lon="10.051277773400555"><ele>2054.0</ele><time>2026-05-01T13:33:06Z</time></trkpt><trkpt lat="46.41130226217674" lon="10.051461135223908"><ele>2054.0</ele><time>2026-05-01T13:33:07Z</time></trkpt><trkpt lat="46.41125880750333" lon="10.051616577338828"><ele>2054.0</ele><time>2026-05-01T13:33:08Z</time></trkpt><trkpt lat="46.41121642940386" lon="10.05176583562064"><ele>2054.0</ele><time>2026-05-01T13:33:09Z</time></trkpt><trkpt lat="46.41110185969556" lon="10.051819713764482"><ele>2054.0</ele><time>2026-05-01T13:33:10Z</time></trkpt><trkpt lat="46.41098149602931" lon="10.05188073071289"><ele>2051.25</ele><time>2026-05-01T13:33:11Z</time></trkpt><trkpt lat="46.410837553933476" lon="10.05194261867073"><ele>2048.5</ele><time>2026-05-01T13:33:12Z</time></trkpt><trkpt lat="46.4106980823796" lon="10.051980837620695"><ele>2045.75</ele><time>2026-05-01T13:33:13Z</time></trkpt><trkpt lat="46.41055843651231" lon="10.05195822672652"><ele>2043.0</ele><time>2026-05-01T13:33:14Z</time></trkpt><trkpt lat="46.410293160424295" lon="10.0518496063562"><ele>2041.0</ele><time>2026-05-01T13:33:16Z</time></trkpt><trkpt lat="46.410196826911424" lon="10.051774444012286"><ele>2039.0</ele><time>2026-05-01T13:33:17Z</time></trkpt><trkpt lat="46.410092456448915" lon="10.05172243313827"><ele>2037.0</ele><time>2026-05-01T13:33:18Z</time></trkpt><trkpt lat="46.409974968605745" lon="10.051761242458879"><ele>2035.0</ele><time>2026-05-01T13:33:19Z</time></trkpt><trkpt lat="46.409871108715336" lon="10.051870810989332"><ele>2035.0</ele><time>2026-05-01T13:33:20Z</time></trkpt><trkpt lat="46.40976398721395" lon="10.052012958516352"><ele>2035.0</ele><time>2026-05-01T13:33:21Z</time></trkpt><trkpt lat="46.40964975030952" lon="10.052119074853003"><ele>2035.0</ele><time>2026-05-01T13:33:22Z</time></trkpt><trkpt lat="46.4095518648371" lon="10.05221558136101"><ele>2035.0</ele><time>2026-05-01T13:33:23Z</time></trkpt><trkpt lat="46.40946079371139" lon="10.052270397102877"><ele>2031.25</ele><time>2026-05-01T13:33:24Z</time></trkpt><trkpt lat="46.40936243454062" lon="10.052328929122478"><ele>2027.5</ele><time>2026-05-01T13:33:25Z</time></trkpt><trkpt lat="46.409256379368784" lon="10.05228167475096"><ele>2023.75</ele><time>2026-05-01T13:33:26Z</time></trkpt><trkpt lat="46.409161705633245" lon="10.052180336922339"><ele>2020.0</ele><time>2026-05-01T13:33:27Z</time></trkpt><trkpt lat="46.409090547657826" lon="10.052049694656631"><ele>2020.0</ele><time>2026-05-01T13:33:28Z</time></trkpt><trkpt lat="46.40906112513685" lon="10.051878060874143"><ele>2020.0</ele><time>2026-05-01T13:33:29Z</time></trkpt><trkpt lat="46.40907348668651" lon="10.051691057871572"><ele>2020.0</ele><time>2026-05-01T13:33:30Z</time></trkpt><trkpt lat="46.409082151371685" lon="10.051476194890935"><ele>2020.0</ele><time>2026-05-01T13:33:31Z</time></trkpt><trkpt lat="46.40911751233792" lon="10.051295356136938"><ele>2020.0</ele><time>2026-05-01T13:33:32Z</time></trkpt><trkpt lat="46.409142463535375" lon="10.051154355217575"><ele>2020.0</ele><time>2026-05-01T13:33:33Z</time></trkpt><trkpt lat="46.40911720924758" lon="10.05098700610826"><ele>2020.0</ele><time>2026-05-01T13:33:34Z</time></trkpt><trkpt lat="46.40905121007868" lon="10.050844925340504"><ele>2020.0</ele><time>2026-05-01T13:33:35Z</time></trkpt><trkpt lat="46.408959092644835" lon="10.0507186403315"><ele>2020.0</ele><time>2026-05-01T13:33:36Z</time></trkpt><trkpt lat="46.40883438639886" lon="10.050565744736456"><ele>2020.0</ele><time>2026-05-01T13:33:37Z</time></trkpt><trkpt lat="46.408720091886636" lon="10.050411175831089"><ele>2020.0</ele><time>2026-05-01T13:33:37.999Z</time></trkpt><trkpt lat="46.40862048487882" lon="10.05025946916038"><ele>2016.5</ele><time>2026-05-01T13:33:38.999Z</time></trkpt><trkpt lat="46.40851632470368" lon="10.050133993249151"><ele>2013.0</ele><time>2026-05-01T13:33:39.999Z</time></trkpt><trkpt lat="46.40839445146775" lon="10.050052740753886"><ele>2009.5</ele><time>2026-05-01T13:33:40.999Z</time></trkpt><trkpt lat="46.40826594070452" lon="10.050036414916072"><ele>2006.0</ele><time>2026-05-01T13:33:41.999Z</time></trkpt><trkpt lat="46.40813066766079" lon="10.050067776315837"><ele>2006.0</ele><time>2026-05-01T13:33:42.999Z</time></trkpt><trkpt lat="46.40801331860163" lon="10.050159434031487"><ele>2006.0</ele><time>2026-05-01T13:33:43.999Z</time></trkpt><trkpt lat="46.40791499892914" lon="10.050291016196924"><ele>2006.0</ele><time>2026-05-01T13:33:44.999Z</time></trkpt><trkpt lat="46.4078479842909" lon="10.050457251530815"><ele>2006.0</ele><time>2026-05-01T13:33:45.999Z</time></trkpt><trkpt lat="46.40781140348901" lon="10.050656728311798"><ele>1997.75</ele><time>2026-05-01T13:33:46.999Z</time></trkpt><trkpt lat="46.40779730868616" lon="10.050869958743057"><ele>1989.5</ele><time>2026-05-01T13:33:47.999Z</time></trkpt><trkpt lat="46.4078031777504" lon="10.051082568884198"><ele>1981.25</ele><time>2026-05-01T13:33:48.999Z</time></trkpt><trkpt lat="46.40781830907422" lon="10.051287439307373"><ele>1973.0</ele><time>2026-05-01T13:33:49.999Z</time></trkpt><trkpt lat="46.40780346243737" lon="10.051497104189973"><ele>1972.5</ele><time>2026-05-01T13:33:50.999Z</time></trkpt><trkpt lat="46.40780412106353" lon="10.051704518246508"><ele>1972.0</ele><time>2026-05-01T13:33:51.999Z</time></trkpt><trkpt lat="46.40780937471568" lon="10.051904653867215"><ele>1971.5</ele><time>2026-05-01T13:33:52.999Z</time></trkpt><trkpt lat="46.40784054887136" lon="10.052115418056497"><ele>1971.0</ele><time>2026-05-01T13:33:53.999Z</time></trkpt><trkpt lat="46.407879510912075" lon="10.052351796621455"><ele>1967.6666666666665</ele><time>2026-05-01T13:33:54.999Z</time></trkpt><trkpt lat="46.40793308563821" lon="10.052607158951332"><ele>1964.3333333333333</ele><time>2026-05-01T13:33:55.999Z</time></trkpt><trkpt lat="46.40802567888199" lon="10.052790437247833"><ele>1961.0</ele><time>2026-05-01T13:33:56.999Z</time></trkpt><trkpt lat="46.40808353892908" lon="10.052990096313106"><ele>1965.25</ele><time>2026-05-01T13:33:57.999Z</time></trkpt><trkpt lat="46.408107229975144" lon="10.05318869557389"><ele>1969.5</ele><time>2026-05-01T13:33:58.999Z</time></trkpt><trkpt lat="46.40814562262108" lon="10.053374760845426"><ele>1973.75</ele><time>2026-05-01T13:33:59.999Z</time></trkpt><trkpt lat="46.40822297008111" lon="10.053555867801325"><ele>1978.0</ele><time>2026-05-01T13:34:00.999Z</time></trkpt><trkpt lat="46.40833651332041" lon="10.053717117165547"><ele>1978.0</ele><time>2026-05-01T13:34:01.999Z</time></trkpt><trkpt lat="46.40844895420497" lon="10.053872137999736"><ele>1978.0</ele><time>2026-05-01T13:34:02.999Z</time></trkpt><trkpt lat="46.4085583353804" lon="10.054025171585597"><ele>1978.0</ele><time>2026-05-01T13:34:03.999Z</time></trkpt><trkpt lat="46.408679895631174" lon="10.054166380518398"><ele>1976.0</ele><time>2026-05-01T13:34:04.999Z</time></trkpt><trkpt lat="46.40882955056069" lon="10.054241373883796"><ele>1974.0</ele><time>2026-05-01T13:34:05.999Z</time></trkpt><trkpt lat="46.40899316890749" lon="10.054221129497309"><ele>1972.0</ele><time>2026-05-01T13:34:06.999Z</time></trkpt><trkpt lat="46.40913273132422" lon="10.054240452457565"><ele>1972.0</ele><time>2026-05-01T13:34:07.999Z</time></trkpt><trkpt lat="46.40928858340721" lon="10.054268612828125"><ele>1972.0</ele><time>2026-05-01T13:34:08.999Z</time></trkpt><trkpt lat="46.40943490260682" lon="10.054291022082209"><ele>1972.0</ele><time>2026-05-01T13:34:09.999Z</time></trkpt><trkpt lat="46.409576840895575" lon="10.05431901784979"><ele>1972.0</ele><time>2026-05-01T13:34:10.999Z</time></trkpt><trkpt lat="46.40969526133126" lon="10.054379017662146"><ele>1971.5</ele><time>2026-05-01T13:34:11.999Z</time></trkpt><trkpt lat="46.40977947579659" lon="10.05448313975748"><ele>1971.0</ele><time>2026-05-01T13:34:12.999Z</time></trkpt><trkpt lat="46.40981931513625" lon="10.054635809125115"><ele>1970.5</ele><time>2026-05-01T13:34:13.999Z</time></trkpt><trkpt lat="46.409832592980294" lon="10.054827572389842"><ele>1970.0</ele><time>2026-05-01T13:34:14.999Z</time></trkpt><trkpt lat="46.40984438172181" lon="10.055053105843715"><ele>1967.25</ele><time>2026-05-01T13:34:15.999Z</time></trkpt><trkpt lat="46.40985135684205" lon="10.055280847379136"><ele>1964.5</ele><time>2026-05-01T13:34:16.999Z</time></trkpt><trkpt lat="46.40984181644345" lon="10.055479542542741"><ele>1961.75</ele><time>2026-05-01T13:34:17.999Z</time></trkpt><trkpt lat="46.40981128177739" lon="10.055657610167938"><ele>1959.0</ele><time>2026-05-01T13:34:18.999Z</time></trkpt><trkpt lat="46.409735860320204" lon="10.05579134461334"><ele>1960.6666666666665</ele><time>2026-05-01T13:34:19.999Z</time></trkpt><trkpt lat="46.40963735624887" lon="10.055925997901758"><ele>1962.3333333333333</ele><time>2026-05-01T13:34:20.999Z</time></trkpt><trkpt lat="46.409523155183685" lon="10.056102819659795"><ele>1964.0</ele><time>2026-05-01T13:34:21.999Z</time></trkpt><trkpt lat="46.40938324370575" lon="10.056286155893586"><ele>1964.0</ele><time>2026-05-01T13:34:22.999Z</time></trkpt><trkpt lat="46.409267792402154" lon="10.056425837952379"><ele>1964.0</ele><time>2026-05-01T13:34:23.999Z</time></trkpt><trkpt lat="46.409161130599266" lon="10.056555789511311"><ele>1964.0</ele><time>2026-05-01T13:34:24.999Z</time></trkpt><trkpt lat="46.409084105616174" lon="10.056673667057188"><ele>1964.0</ele><time>2026-05-01T13:34:25.999Z</time></trkpt><trkpt lat="46.409012624300814" lon="10.056901759556126"><ele>1958.3333333333333</ele><time>2026-05-01T13:34:26.999Z</time></trkpt><trkpt lat="46.40897233043426" lon="10.057154277301263"><ele>1952.6666666666665</ele><time>2026-05-01T13:34:27.999Z</time></trkpt><trkpt lat="46.40896805988306" lon="10.057442156649163"><ele>1947.0</ele><time>2026-05-01T13:34:28.999Z</time></trkpt><trkpt lat="46.40902843369704" lon="10.057669705332843"><ele>1945.0</ele><time>2026-05-01T13:34:29.999Z</time></trkpt><trkpt lat="46.409051562147276" lon="10.057909449591532"><ele>1943.0</ele><time>2026-05-01T13:34:30.999Z</time></trkpt><trkpt lat="46.40904660955516" lon="10.058148384490524"><ele>1941.0</ele><time>2026-05-01T13:34:31.999Z</time></trkpt><trkpt lat="46.4090205639728" lon="10.058385619970666"><ele>1939.6666666666665</ele><time>2026-05-01T13:34:32.999Z</time></trkpt><trkpt lat="46.40898419198269" lon="10.058614678580266"><ele>1938.3333333333333</ele><time>2026-05-01T13:34:33.999Z</time></trkpt><trkpt lat="46.40892023760145" lon="10.058826493957202"><ele>1937.0</ele><time>2026-05-01T13:34:34.999Z</time></trkpt><trkpt lat="46.4088370689306" lon="10.05901851636779"><ele>1936.6666666666665</ele><time>2026-05-01T13:34:35.999Z</time></trkpt><trkpt lat="46.40871780051295" lon="10.059187319138875"><ele>1936.3333333333335</ele><time>2026-05-01T13:34:36.999Z</time></trkpt><trkpt lat="46.40859434221997" lon="10.059330611246418"><ele>1936.0</ele><time>2026-05-01T13:34:37.999Z</time></trkpt><trkpt lat="46.408447103149435" lon="10.059440734336643"><ele>1936.0</ele><time>2026-05-01T13:34:38.999Z</time></trkpt><trkpt lat="46.408292228066365" lon="10.059519789697562"><ele>1936.0</ele><time>2026-05-01T13:34:39.999Z</time></trkpt><trkpt lat="46.40811143828841" lon="10.059605076214213"><ele>1936.0</ele><time>2026-05-01T13:34:40.999Z</time></trkpt><trkpt lat="46.40793658381297" lon="10.05970083881597"><ele>1932.6666666666667</ele><time>2026-05-01T13:34:41.999Z</time></trkpt><trkpt lat="46.407774316656365" lon="10.059846973073185"><ele>1929.3333333333335</ele><time>2026-05-01T13:34:42.999Z</time></trkpt><trkpt lat="46.407622883926926" lon="10.060015696546566"><ele>1926.0</ele><time>2026-05-01T13:34:43.999Z</time></trkpt><trkpt lat="46.407496725983144" lon="10.06020700863602"><ele>1926.0</ele><time>2026-05-01T13:34:44.999Z</time></trkpt><trkpt lat="46.40737102245461" lon="10.060394300605203"><ele>1926.0</ele><time>2026-05-01T13:34:45.998Z</time></trkpt><trkpt lat="46.40723980607896" lon="10.060546646863955"><ele>1926.0</ele><time>2026-05-01T13:34:46.998Z</time></trkpt><trkpt lat="46.407117201946754" lon="10.060669380060164"><ele>1921.0</ele><time>2026-05-01T13:34:47.998Z</time></trkpt><trkpt lat="46.406985247360346" lon="10.060755845531196"><ele>1916.0</ele><time>2026-05-01T13:34:48.998Z</time></trkpt><trkpt lat="46.406833677319256" lon="10.060806390117218"><ele>1911.0</ele><time>2026-05-01T13:34:49.998Z</time></trkpt><trkpt lat="46.406669195842206" lon="10.060846919644137"><ele>1911.0</ele><time>2026-05-01T13:34:50.998Z</time></trkpt><trkpt lat="46.406561634985245" lon="10.060895856256485"><ele>1911.0</ele><time>2026-05-01T13:34:51.998Z</time></trkpt><trkpt lat="46.40648561350189" lon="10.060945398934757"><ele>1911.0</ele><time>2026-05-01T13:34:52.998Z</time></trkpt><trkpt lat="46.40635046577356" lon="10.060983430481803"><ele>1911.0</ele><time>2026-05-01T13:34:54.998Z</time></trkpt><trkpt lat="46.40613514117763" lon="10.061002418505412"><ele>1918.5</ele><time>2026-05-01T13:34:55.998Z</time></trkpt><trkpt lat="46.4058481805665" lon="10.061193092296536"><ele>1926.0</ele><time>2026-05-01T13:34:56.998Z</time></trkpt><trkpt lat="46.405641246626615" lon="10.061402698903676"><ele>1931.6666666666665</ele><time>2026-05-01T13:34:57.998Z</time></trkpt><trkpt lat="46.40542441753465" lon="10.061592448787483"><ele>1937.3333333333333</ele><time>2026-05-01T13:34:58.998Z</time></trkpt><trkpt lat="46.40534393465062" lon="10.061665029581158"><ele>1943.0</ele><time>2026-05-01T13:34:59.998Z</time></trkpt><trkpt lat="46.405182508291354" lon="10.061684299274646"><ele>1930.6666666666665</ele><time>2026-05-01T13:35:00.998Z</time></trkpt><trkpt lat="46.40503155526604" lon="10.061707545724843"><ele>1918.3333333333335</ele><time>2026-05-01T13:35:01.998Z</time></trkpt><trkpt lat="46.4048813650977" lon="10.061772198974877"><ele>1906.0</ele><time>2026-05-01T13:35:02.998Z</time></trkpt><trkpt lat="46.4047332675991" lon="10.061847936585504"><ele>1904.6666666666667</ele><time>2026-05-01T13:35:03.998Z</time></trkpt><trkpt lat="46.404611707187016" lon="10.061973792771747"><ele>1903.3333333333335</ele><time>2026-05-01T13:35:04.998Z</time></trkpt><trkpt lat="46.40451562628574" lon="10.062135429994017"><ele>1902.0</ele><time>2026-05-01T13:35:05.998Z</time></trkpt><trkpt lat="46.404458928553886" lon="10.062350777891316"><ele>1897.0</ele><time>2026-05-01T13:35:07Z</time></trkpt><trkpt lat="46.404444220054806" lon="10.062612207635336"><ele>1892.0</ele><time>2026-05-01T13:35:08Z</time></trkpt><trkpt lat="46.40445083454056" lon="10.06289364940717"><ele>1887.0</ele><time>2026-05-01T13:35:09Z</time></trkpt><trkpt lat="46.40445620448876" lon="10.063204089615763"><ele>1888.3333333333335</ele><time>2026-05-01T13:35:10Z</time></trkpt><trkpt lat="46.40445224097559" lon="10.063515746831214"><ele>1889.6666666666667</ele><time>2026-05-01T13:35:11Z</time></trkpt><trkpt lat="46.404451126380174" lon="10.063798723347075"><ele>1891.0</ele><time>2026-05-01T13:35:12Z</time></trkpt><trkpt lat="46.404445026417925" lon="10.06405151619456"><ele>1889.3333333333335</ele><time>2026-05-01T13:35:13Z</time></trkpt><trkpt lat="46.40444098078066" lon="10.06430984405929"><ele>1887.6666666666665</ele><time>2026-05-01T13:35:14Z</time></trkpt><trkpt lat="46.404371614398606" lon="10.064538694648187"><ele>1886.0</ele><time>2026-05-01T13:35:15Z</time></trkpt><trkpt lat="46.404253212560334" lon="10.064741324417476"><ele>1886.3333333333333</ele><time>2026-05-01T13:35:16Z</time></trkpt><trkpt lat="46.40410785047148" lon="10.064948939331488"><ele>1886.6666666666665</ele><time>2026-05-01T13:35:17Z</time></trkpt><trkpt lat="46.40394291001709" lon="10.065163321232705"><ele>1887.0</ele><time>2026-05-01T13:35:18Z</time></trkpt><trkpt lat="46.403765595735294" lon="10.06542246732389"><ele>1887.0</ele><time>2026-05-01T13:35:19Z</time></trkpt><trkpt lat="46.403579210488324" lon="10.065655760558382"><ele>1887.0</ele><time>2026-05-01T13:35:20Z</time></trkpt><trkpt lat="46.403417101115686" lon="10.06587073424866"><ele>1885.0</ele><time>2026-05-01T13:35:21Z</time></trkpt><trkpt lat="46.40326264899942" lon="10.066064645379413"><ele>1883.0</ele><time>2026-05-01T13:35:22Z</time></trkpt><trkpt lat="46.403081534077856" lon="10.066186059928194"><ele>1881.0</ele><time>2026-05-01T13:35:23Z</time></trkpt><trkpt lat="46.402855297647804" lon="10.066301144452131"><ele>1881.0</ele><time>2026-05-01T13:35:24Z</time></trkpt><trkpt lat="46.402667583145224" lon="10.066367603372202"><ele>1881.0</ele><time>2026-05-01T13:35:25Z</time></trkpt><trkpt lat="46.40248545443631" lon="10.06639543128445"><ele>1881.0</ele><time>2026-05-01T13:35:26Z</time></trkpt><trkpt lat="46.40228383530566" lon="10.066452266901678"><ele>1881.0</ele><time>2026-05-01T13:35:27Z</time></trkpt><trkpt lat="46.402088730514606" lon="10.066514394336133"><ele>1881.0</ele><time>2026-05-01T13:35:28Z</time></trkpt><trkpt lat="46.40189082844141" lon="10.066592684990427"><ele>1881.0</ele><time>2026-05-01T13:35:29Z</time></trkpt><trkpt lat="46.40168175038621" lon="10.066664176402538"><ele>1881.0</ele><time>2026-05-01T13:35:30Z</time></trkpt><trkpt lat="46.40147082669913" lon="10.066733972607556"><ele>1881.0</ele><time>2026-05-01T13:35:31Z</time></trkpt><trkpt lat="46.40125213569002" lon="10.06680809152563"><ele>1881.0</ele><time>2026-05-01T13:35:32Z</time></trkpt><trkpt lat="46.401052126588176" lon="10.06688053343045"><ele>1882.3333333333335</ele><time>2026-05-01T13:35:33Z</time></trkpt><trkpt lat="46.40084740964706" lon="10.06693911950179"><ele>1883.6666666666667</ele><time>2026-05-01T13:35:34Z</time></trkpt><trkpt lat="46.400642553295704" lon="10.066975792539186"><ele>1885.0</ele><time>2026-05-01T13:35:35Z</time></trkpt><trkpt lat="46.40045172870162" lon="10.066982888327566"><ele>1885.0</ele><time>2026-05-01T13:35:36Z</time></trkpt><trkpt lat="46.400269644152296" lon="10.066991626898652"><ele>1885.0</ele><time>2026-05-01T13:35:37Z</time></trkpt><trkpt lat="46.40010889303065" lon="10.06698631813332"><ele>1885.0</ele><time>2026-05-01T13:35:38Z</time></trkpt><trkpt lat="46.399976794606964" lon="10.066964025082015"><ele>1885.0000000000002</ele><time>2026-05-01T13:35:39Z</time></trkpt><trkpt lat="46.39987067943372" lon="10.06695379315523"><ele>1885.0</ele><time>2026-05-01T13:35:40Z</time></trkpt><trkpt lat="46.399784157585145" lon="10.066938363293579"><ele>1885.0</ele><time>2026-05-01T13:35:41Z</time></trkpt><trkpt lat="46.399708053463584" lon="10.066917416565785"><ele>1885.0</ele><time>2026-05-01T13:35:42Z</time></trkpt><trkpt lat="46.39962059407593" lon="10.066913990751546"><ele>1885.0000000000002</ele><time>2026-05-01T13:35:43Z</time></trkpt><trkpt lat="46.39953578685527" lon="10.066911401145877"><ele>1885.0</ele><time>2026-05-01T13:35:44Z</time></trkpt><trkpt lat="46.39944043586578" lon="10.066904678211188"><ele>1884.3333333333335</ele><time>2026-05-01T13:35:44.999Z</time></trkpt><trkpt lat="46.39934790259172" lon="10.06689509293279"><ele>1883.6666666666667</ele><time>2026-05-01T13:35:45.999Z</time></trkpt><trkpt lat="46.39925912725818" lon="10.066892610693744"><ele>1883.0</ele><time>2026-05-01T13:35:46.999Z</time></trkpt><trkpt lat="46.399174342450806" lon="10.0668947807119"><ele>1882.3333333333335</ele><time>2026-05-01T13:35:47.999Z</time></trkpt><trkpt lat="46.39908660019117" lon="10.06690011857991"><ele>1881.6666666666667</ele><time>2026-05-01T13:35:48.999Z</time></trkpt><trkpt lat="46.39899804873929" lon="10.066908326569555"><ele>1881.0</ele><time>2026-05-01T13:35:49.999Z</time></trkpt><trkpt lat="46.39891275266678" lon="10.066911826929013"><ele>1879.6</ele><time>2026-05-01T13:35:50.999Z</time></trkpt><trkpt lat="46.39882696861641" lon="10.066942481081275"><ele>1878.1999999999998</ele><time>2026-05-01T13:35:51.999Z</time></trkpt><trkpt lat="46.39874009181299" lon="10.066956965642735"><ele>1876.8000000000002</ele><time>2026-05-01T13:35:52.999Z</time></trkpt><trkpt lat="46.398649846471734" lon="10.066967142903001"><ele>1875.4</ele><time>2026-05-01T13:35:53.999Z</time></trkpt><trkpt lat="46.39855524550393" lon="10.0669546509243"><ele>1874.0</ele><time>2026-05-01T13:35:54.999Z</time></trkpt><trkpt lat="46.3984658561456" lon="10.066957852176497"><ele>1873.9999999999998</ele><time>2026-05-01T13:35:55.999Z</time></trkpt><trkpt lat="46.398382202558324" lon="10.066955513495959"><ele>1874.0</ele><time>2026-05-01T13:35:56.999Z</time></trkpt><trkpt lat="46.398305680526775" lon="10.06693453352479"><ele>1874.0</ele><time>2026-05-01T13:35:57.999Z</time></trkpt><trkpt lat="46.39820804114066" lon="10.066868793148227"><ele>1874.0</ele><time>2026-05-01T13:35:59.999Z</time></trkpt><trkpt lat="46.39816073111531" lon="10.066808094269863"><ele>1873.9999999999998</ele><time>2026-05-01T13:36:01.999Z</time></trkpt><trkpt lat="46.398126841026226" lon="10.06671133136316"><ele>1874.0</ele><time>2026-05-01T13:36:03.999Z</time></trkpt><trkpt lat="46.39806916356799" lon="10.066641036492124"><ele>1873.9999999999998</ele><time>2026-05-01T13:36:06.999Z</time></trkpt><trkpt lat="46.3980184563206" lon="10.066695411599836"><ele>1874.0</ele><time>2026-05-01T13:36:14.999Z</time></trkpt><trkpt lat="46.39805757800104" lon="10.066773527414258"><ele>1874.0</ele><time>2026-05-01T13:36:18.999Z</time></trkpt><trkpt lat="46.39814856639603" lon="10.066858768916875"><ele>1874.0</ele><time>2026-05-01T13:36:20.999Z</time></trkpt><trkpt lat="46.3982189065599" lon="10.066927687902496"><ele>1873.9999999999998</ele><time>2026-05-01T13:36:21.999Z</time></trkpt><trkpt lat="46.39830576552702" lon="10.066994772657079"><ele>1874.0</ele><time>2026-05-01T13:36:22.999Z</time></trkpt><trkpt lat="46.3984133395572" lon="10.067028972545064"><ele>1874.0</ele><time>2026-05-01T13:36:23.999Z</time></trkpt><trkpt lat="46.39851825751051" lon="10.067043664129354"><ele>1874.0</ele><time>2026-05-01T13:36:24.999Z</time></trkpt><trkpt lat="46.39864530126209" lon="10.06702039888937"><ele>1874.0</ele><time>2026-05-01T13:36:25.999Z</time></trkpt><trkpt lat="46.39876638964063" lon="10.067008484109753"><ele>1874.0</ele><time>2026-05-01T13:36:26.999Z</time></trkpt><trkpt lat="46.39891867871012" lon="10.067044596935146"><ele>1875.75</ele><time>2026-05-01T13:36:27.999Z</time></trkpt><trkpt lat="46.399059162883724" lon="10.067039822863089"><ele>1877.5</ele><time>2026-05-01T13:36:28.999Z</time></trkpt><trkpt lat="46.39921590313574" lon="10.067022824985388"><ele>1879.25</ele><time>2026-05-01T13:36:29.999Z</time></trkpt><trkpt lat="46.39936209486728" lon="10.067005438896233"><ele>1881.0</ele><time>2026-05-01T13:36:30.999Z</time></trkpt><trkpt lat="46.399519603369306" lon="10.067003777321316"><ele>1882.3333333333335</ele><time>2026-05-01T13:36:31.999Z</time></trkpt><trkpt lat="46.39970729779895" lon="10.067042829597492"><ele>1883.6666666666667</ele><time>2026-05-01T13:36:32.999Z</time></trkpt><trkpt lat="46.399896501776915" lon="10.06705038878157"><ele>1885.0</ele><time>2026-05-01T13:36:33.999Z</time></trkpt><trkpt lat="46.40008305128031" lon="10.067066524712107"><ele>1885.0</ele><time>2026-05-01T13:36:34.999Z</time></trkpt><trkpt lat="46.40027933939114" lon="10.06706348372809"><ele>1885.0</ele><time>2026-05-01T13:36:35.999Z</time></trkpt><trkpt lat="46.4004919684176" lon="10.067054545953152"><ele>1885.0</ele><time>2026-05-01T13:36:36.999Z</time></trkpt><trkpt lat="46.4007151046031" lon="10.067033943951824"><ele>1885.0</ele><time>2026-05-01T13:36:37.999Z</time></trkpt><trkpt lat="46.40092382569637" lon="10.066985947208392"><ele>1885.0</ele><time>2026-05-01T13:36:38.999Z</time></trkpt><trkpt lat="46.40114049711679" lon="10.066924858961167"><ele>1885.0</ele><time>2026-05-01T13:36:39.999Z</time></trkpt><trkpt lat="46.40137897821213" lon="10.066860954311691"><ele>1883.0</ele><time>2026-05-01T13:36:40.999Z</time></trkpt><trkpt lat="46.40162303676797" lon="10.066759216421808"><ele>1881.0</ele><time>2026-05-01T13:36:41.999Z</time></trkpt><trkpt lat="46.40188305316811" lon="10.066683507212938"><ele>1881.0</ele><time>2026-05-01T13:36:42.999Z</time></trkpt><trkpt lat="46.40216337024044" lon="10.066599110623526"><ele>1881.0</ele><time>2026-05-01T13:36:43.999Z</time></trkpt><trkpt lat="46.40242706233141" lon="10.066507521860414"><ele>1881.0</ele><time>2026-05-01T13:36:44.999Z</time></trkpt><trkpt lat="46.40266825559321" lon="10.066431718525745"><ele>1881.0</ele><time>2026-05-01T13:36:45.999Z</time></trkpt><trkpt lat="46.402891309224415" lon="10.06634903177393"><ele>1879.3333333333335</ele><time>2026-05-01T13:36:46.999Z</time></trkpt><trkpt lat="46.40308845303799" lon="10.066257619190244"><ele>1877.6666666666667</ele><time>2026-05-01T13:36:47.999Z</time></trkpt><trkpt lat="46.40326984969732" lon="10.066143090190698"><ele>1876.0</ele><time>2026-05-01T13:36:48.999Z</time></trkpt><trkpt lat="46.40342996516095" lon="10.065966049033106"><ele>1881.5</ele><time>2026-05-01T13:36:49.999Z</time></trkpt><trkpt lat="46.40358058813016" lon="10.065731906020343"><ele>1887.0</ele><time>2026-05-01T13:36:50.999Z</time></trkpt><trkpt lat="46.403740389018154" lon="10.065487728910718"><ele>1881.0</ele><time>2026-05-01T13:36:51.999Z</time></trkpt><trkpt lat="46.40391774597818" lon="10.065246943223961"><ele>1875.0</ele><time>2026-05-01T13:36:52.999Z</time></trkpt><trkpt lat="46.40409298223639" lon="10.065020529709015"><ele>1878.6666666666665</ele><time>2026-05-01T13:36:53.999Z</time></trkpt><trkpt lat="46.40425226110541" lon="10.064807832608288"><ele>1882.3333333333333</ele><time>2026-05-01T13:36:54.999Z</time></trkpt><trkpt lat="46.40438798629035" lon="10.064595761869628"><ele>1886.0</ele><time>2026-05-01T13:36:55.998Z</time></trkpt><trkpt lat="46.40452281180779" lon="10.064419376998293"><ele>1887.6666666666665</ele><time>2026-05-01T13:36:56.998Z</time></trkpt><trkpt lat="46.404532411771385" lon="10.064082516011212"><ele>1889.3333333333335</ele><time>2026-05-01T13:36:57.998Z</time></trkpt><trkpt lat="46.40454357896124" lon="10.063788157731112"><ele>1891.0</ele><time>2026-05-01T13:36:58.998Z</time></trkpt><trkpt lat="46.404540322390986" lon="10.063477872651628"><ele>1889.6666666666667</ele><time>2026-05-01T13:36:59.998Z</time></trkpt><trkpt lat="46.404529781512984" lon="10.063153577473898"><ele>1888.3333333333335</ele><time>2026-05-01T13:37:00.998Z</time></trkpt><trkpt lat="46.40451862965731" lon="10.06287396971021"><ele>1887.0</ele><time>2026-05-01T13:37:01.998Z</time></trkpt><trkpt lat="46.40452121181322" lon="10.062639766414092"><ele>1890.75</ele><time>2026-05-01T13:37:02.998Z</time></trkpt><trkpt lat="46.40453258605477" lon="10.062444216420092"><ele>1894.5</ele><time>2026-05-01T13:37:03.998Z</time></trkpt><trkpt lat="46.40455608639452" lon="10.062280102838203"><ele>1898.25</ele><time>2026-05-01T13:37:04.998Z</time></trkpt><trkpt lat="46.40459678713881" lon="10.062135097379137"><ele>1902.0</ele><time>2026-05-01T13:37:05.998Z</time></trkpt><trkpt lat="46.40465065407023" lon="10.062011537268269"><ele>1902.8</ele><time>2026-05-01T13:37:06.998Z</time></trkpt><trkpt lat="46.40471964047445" lon="10.061907066401218"><ele>1903.6</ele><time>2026-05-01T13:37:07.998Z</time></trkpt><trkpt lat="46.40481873604677" lon="10.061841860928048"><ele>1904.3999999999999</ele><time>2026-05-01T13:37:08.998Z</time></trkpt><trkpt lat="46.40491920281688" lon="10.061784998384109"><ele>1905.1999999999998</ele><time>2026-05-01T13:37:09.998Z</time></trkpt><trkpt lat="46.4050212324502" lon="10.06175526554309"><ele>1906.0</ele><time>2026-05-01T13:37:10.998Z</time></trkpt><trkpt lat="46.405132227503856" lon="10.061734589133867"><ele>1906.0</ele><time>2026-05-01T13:37:11.998Z</time></trkpt><trkpt lat="46.405246644195415" lon="10.061718419715733"><ele>1906.0</ele><time>2026-05-01T13:37:13Z</time></trkpt><trkpt lat="46.40535331403629" lon="10.0616669824203"><ele>1906.0</ele><time>2026-05-01T13:37:14Z</time></trkpt><trkpt lat="46.40546152689385" lon="10.06162014771556"><ele>1906.0</ele><time>2026-05-01T13:37:15Z</time></trkpt><trkpt lat="46.40555859992383" lon="10.061521710684573"><ele>1910.0</ele><time>2026-05-01T13:37:16Z</time></trkpt><trkpt lat="46.40564990540728" lon="10.061444531241328"><ele>1914.0</ele><time>2026-05-01T13:37:17Z</time></trkpt><trkpt lat="46.40573306861366" lon="10.061362153399372"><ele>1918.0</ele><time>2026-05-01T13:37:18Z</time></trkpt><trkpt lat="46.40580471266816" lon="10.061289317981911"><ele>1922.0</ele><time>2026-05-01T13:37:19Z</time></trkpt><trkpt lat="46.405865835955" lon="10.06123387282464"><ele>1926.0</ele><time>2026-05-01T13:37:20Z</time></trkpt><trkpt lat="46.405962112499424" lon="10.061144123093698"><ele>1926.0</ele><time>2026-05-01T13:37:22Z</time></trkpt><trkpt lat="46.40607734176087" lon="10.061050254536715"><ele>1926.0</ele><time>2026-05-01T13:37:24Z</time></trkpt><trkpt lat="46.406163125732775" lon="10.061025982295652"><ele>1926.0</ele><time>2026-05-01T13:37:25Z</time></trkpt><trkpt lat="46.40624016482264" lon="10.061041619632098"><ele>1926.0</ele><time>2026-05-01T13:37:26Z</time></trkpt><trkpt lat="46.4063986959372" lon="10.061019813850772"><ele>1922.25</ele><time>2026-05-01T13:37:28Z</time></trkpt><trkpt lat="46.406500384168965" lon="10.060990022292653"><ele>1918.5</ele><time>2026-05-01T13:37:29Z</time></trkpt><trkpt lat="46.40665419737149" lon="10.060927321123973"><ele>1914.75</ele><time>2026-05-01T13:37:30Z</time></trkpt><trkpt lat="46.40677918203163" lon="10.06091066830436"><ele>1911.0</ele><time>2026-05-01T13:37:31Z</time></trkpt><trkpt lat="46.40689572827916" lon="10.060888280457188"><ele>1911.0</ele><time>2026-05-01T13:37:32Z</time></trkpt><trkpt lat="46.40699241356532" lon="10.060828272738279"><ele>1911.0</ele><time>2026-05-01T13:37:35Z</time></trkpt><trkpt lat="46.407087395068196" lon="10.060739893602834"><ele>1911.0</ele><time>2026-05-01T13:37:36Z</time></trkpt><trkpt lat="46.40717372037843" lon="10.060668431694191"><ele>1911.0</ele><time>2026-05-01T13:37:37Z</time></trkpt><trkpt lat="46.40727609787378" lon="10.060569437324652"><ele>1911.0</ele><time>2026-05-01T13:37:38Z</time></trkpt><trkpt lat="46.40739668338392" lon="10.060435436563711"><ele>1914.75</ele><time>2026-05-01T13:37:39Z</time></trkpt><trkpt lat="46.407517709133515" lon="10.060285832268367"><ele>1918.5</ele><time>2026-05-01T13:37:40Z</time></trkpt><trkpt lat="46.4076059625754" lon="10.0601423392924"><ele>1922.25</ele><time>2026-05-01T13:37:41Z</time></trkpt><trkpt lat="46.407693559057996" lon="10.060036688877448"><ele>1926.0</ele><time>2026-05-01T13:37:42Z</time></trkpt><trkpt lat="46.40776115071768" lon="10.05995292632271"><ele>1927.6666666666667</ele><time>2026-05-01T13:37:43Z</time></trkpt><trkpt lat="46.40780985966676" lon="10.059887139101296"><ele>1929.3333333333335</ele><time>2026-05-01T13:37:44Z</time></trkpt><trkpt lat="46.40789336415536" lon="10.05978874722844"><ele>1931.0</ele><time>2026-05-01T13:37:46Z</time></trkpt><trkpt lat="46.40795300986832" lon="10.059753724789688"><ele>1932.6666666666667</ele><time>2026-05-01T13:37:47Z</time></trkpt><trkpt lat="46.40801735616437" lon="10.059706111037467"><ele>1934.3333333333335</ele><time>2026-05-01T13:37:48Z</time></trkpt><trkpt lat="46.40808821276868" lon="10.059661475271941"><ele>1936.0</ele><time>2026-05-01T13:37:49Z</time></trkpt><trkpt lat="46.40817091610205" lon="10.059617189212103"><ele>1936.0000000000002</ele><time>2026-05-01T13:37:50Z</time></trkpt><trkpt lat="46.40825819776274" lon="10.059574055237455"><ele>1936.0</ele><time>2026-05-01T13:37:51Z</time></trkpt><trkpt lat="46.408340589654166" lon="10.059523012814992"><ele>1936.0</ele><time>2026-05-01T13:37:52Z</time></trkpt><trkpt lat="46.40841968305433" lon="10.059484214607934"><ele>1936.0</ele><time>2026-05-01T13:37:52.999Z</time></trkpt><trkpt lat="46.40850140041187" lon="10.05944140956721"><ele>1936.0000000000002</ele><time>2026-05-01T13:37:53.999Z</time></trkpt><trkpt lat="46.408584028775955" lon="10.059380561353938"><ele>1936.0</ele><time>2026-05-01T13:37:54.999Z</time></trkpt><trkpt lat="46.408658755296415" lon="10.059316956917028"><ele>1936.0</ele><time>2026-05-01T13:37:55.999Z</time></trkpt><trkpt lat="46.40873684791696" lon="10.059218065742726"><ele>1936.0</ele><time>2026-05-01T13:37:56.999Z</time></trkpt><trkpt lat="46.40881281474323" lon="10.059121486698766"><ele>1936.0</ele><time>2026-05-01T13:37:57.999Z</time></trkpt><trkpt lat="46.40887956380215" lon="10.059013163098122"><ele>1936.0</ele><time>2026-05-01T13:37:58.999Z</time></trkpt><trkpt lat="46.40893996997945" lon="10.058889487102142"><ele>1936.0</ele><time>2026-05-01T13:37:59.999Z</time></trkpt><trkpt lat="46.40898988743475" lon="10.058746955584818"><ele>1936.1999999999998</ele><time>2026-05-01T13:38:00.999Z</time></trkpt><trkpt lat="46.409027768222956" lon="10.05858573820357"><ele>1936.3999999999999</ele><time>2026-05-01T13:38:01.999Z</time></trkpt><trkpt lat="46.409063185558324" lon="10.058430833887202"><ele>1936.6</ele><time>2026-05-01T13:38:02.999Z</time></trkpt><trkpt lat="46.40907683081617" lon="10.058268515705299"><ele>1936.8</ele><time>2026-05-01T13:38:03.999Z</time></trkpt><trkpt lat="46.40908268271273" lon="10.058118440380898"><ele>1937.0</ele><time>2026-05-01T13:38:04.999Z</time></trkpt><trkpt lat="46.40908243527694" lon="10.057955207340715"><ele>1937.8</ele><time>2026-05-01T13:38:05.999Z</time></trkpt><trkpt lat="46.40908297935099" lon="10.057789105038147"><ele>1938.6</ele><time>2026-05-01T13:38:06.999Z</time></trkpt><trkpt lat="46.40907200214512" lon="10.057618251869913"><ele>1939.3999999999999</ele><time>2026-05-01T13:38:07.999Z</time></trkpt><trkpt lat="46.4090662494657" lon="10.057462818609444"><ele>1940.1999999999998</ele><time>2026-05-01T13:38:08.999Z</time></trkpt><trkpt lat="46.40905273635183" lon="10.057318206302602"><ele>1941.0</ele><time>2026-05-01T13:38:09.999Z</time></trkpt><trkpt lat="46.409034575993125" lon="10.057177801514255"><ele>1942.1999999999998</ele><time>2026-05-01T13:38:10.999Z</time></trkpt><trkpt lat="46.40903246505576" lon="10.057034460471188"><ele>1943.3999999999999</ele><time>2026-05-01T13:38:11.999Z</time></trkpt><trkpt lat="46.40904318151691" lon="10.056904446721699"><ele>1944.6</ele><time>2026-05-01T13:38:12.999Z</time></trkpt><trkpt lat="46.40907978284451" lon="10.05679288239968"><ele>1945.8</ele><time>2026-05-01T13:38:13.999Z</time></trkpt><trkpt lat="46.40913614751604" lon="10.056672829361649"><ele>1947.0</ele><time>2026-05-01T13:38:14.999Z</time></trkpt><trkpt lat="46.409209864514345" lon="10.056555393567518"><ele>1950.3999999999999</ele><time>2026-05-01T13:38:15.999Z</time></trkpt><trkpt lat="46.40929310575136" lon="10.05645010967267"><ele>1953.7999999999997</ele><time>2026-05-01T13:38:16.999Z</time></trkpt><trkpt lat="46.4093728850806" lon="10.056346838883593"><ele>1957.2</ele><time>2026-05-01T13:38:17.999Z</time></trkpt><trkpt lat="46.40945181795754" lon="10.056248811835028"><ele>1960.6</ele><time>2026-05-01T13:38:18.999Z</time></trkpt><trkpt lat="46.40953399755517" lon="10.056135634923843"><ele>1964.0</ele><time>2026-05-01T13:38:19.999Z</time></trkpt><trkpt lat="46.409621357518304" lon="10.05601898693799"><ele>1963.0</ele><time>2026-05-01T13:38:20.999Z</time></trkpt><trkpt lat="46.40970262901583" lon="10.055919814521978"><ele>1962.0</ele><time>2026-05-01T13:38:21.999Z</time></trkpt><trkpt lat="46.40977076597659" lon="10.05583322892689"><ele>1961.0</ele><time>2026-05-01T13:38:22.999Z</time></trkpt><trkpt lat="46.40982905255797" lon="10.05574565539795"><ele>1960.0</ele><time>2026-05-01T13:38:23.999Z</time></trkpt><trkpt lat="46.409877338562566" lon="10.055634607827715"><ele>1959.0</ele><time>2026-05-01T13:38:24.999Z</time></trkpt><trkpt lat="46.40990116723047" lon="10.05550391397831"><ele>1959.0</ele><time>2026-05-01T13:38:25.999Z</time></trkpt><trkpt lat="46.40990534882525" lon="10.055360553380478"><ele>1959.0</ele><time>2026-05-01T13:38:26.999Z</time></trkpt><trkpt lat="46.40989508505" lon="10.055209990680334"><ele>1959.0</ele><time>2026-05-01T13:38:27.999Z</time></trkpt><trkpt lat="46.4098930000867" lon="10.05505344692505"><ele>1959.0</ele><time>2026-05-01T13:38:28.999Z</time></trkpt><trkpt lat="46.409885635845534" lon="10.05489883078361"><ele>1959.0</ele><time>2026-05-01T13:38:29.999Z</time></trkpt><trkpt lat="46.40986946891803" lon="10.054746986084274"><ele>1961.2</ele><time>2026-05-01T13:38:30.999Z</time></trkpt><trkpt lat="46.409856383173214" lon="10.054608345451424"><ele>1963.4</ele><time>2026-05-01T13:38:31.999Z</time></trkpt><trkpt lat="46.40982385341523" lon="10.054483529369847"><ele>1965.6</ele><time>2026-05-01T13:38:32.999Z</time></trkpt><trkpt lat="46.40976222836635" lon="10.05438454793431"><ele>1967.8</ele><time>2026-05-01T13:38:33.999Z</time></trkpt><trkpt lat="46.40967281524571" lon="10.054288889300485"><ele>1970.0</ele><time>2026-05-01T13:38:34.999Z</time></trkpt><trkpt lat="46.409527925477775" lon="10.054258338383775"><ele>1970.6666666666665</ele><time>2026-05-01T13:38:35.999Z</time></trkpt><trkpt lat="46.40936145390625" lon="10.054231398715663"><ele>1971.3333333333335</ele><time>2026-05-01T13:38:36.999Z</time></trkpt><trkpt lat="46.4091774965852" lon="10.054200211133635"><ele>1972.0</ele><time>2026-05-01T13:38:37.999Z</time></trkpt><trkpt lat="46.408986880833666" lon="10.054169156703198"><ele>1972.0</ele><time>2026-05-01T13:38:38.999Z</time></trkpt><trkpt lat="46.40882295412238" lon="10.05414191583462"><ele>1972.0</ele><time>2026-05-01T13:38:39.999Z</time></trkpt><trkpt lat="46.40868439992524" lon="10.054109294518272"><ele>1972.0</ele><time>2026-05-01T13:38:40.999Z</time></trkpt><trkpt lat="46.40856228998978" lon="10.053979945957536"><ele>1974.0</ele><time>2026-05-01T13:38:41.999Z</time></trkpt><trkpt lat="46.40844870774972" lon="10.053805485058307"><ele>1976.0</ele><time>2026-05-01T13:38:42.999Z</time></trkpt><trkpt lat="46.40832627851579" lon="10.053640557102375"><ele>1978.0</ele><time>2026-05-01T13:38:43.999Z</time></trkpt><trkpt lat="46.40823214235017" lon="10.053484267951598"><ele>1978.0</ele><time>2026-05-01T13:38:44.999Z</time></trkpt><trkpt lat="46.40815958794355" lon="10.053337988046495"><ele>1978.0</ele><time>2026-05-01T13:38:45.999Z</time></trkpt><trkpt lat="46.40812527167956" lon="10.053147073783204"><ele>1978.0</ele><time>2026-05-01T13:38:46.999Z</time></trkpt><trkpt lat="46.40809958342308" lon="10.05291849754525"><ele>1978.0</ele><time>2026-05-01T13:38:47.999Z</time></trkpt><trkpt lat="46.40804008678498" lon="10.05267502850624"><ele>1975.6666666666667</ele><time>2026-05-01T13:38:48.999Z</time></trkpt><trkpt lat="46.40795295792167" lon="10.05245329088665"><ele>1973.3333333333335</ele><time>2026-05-01T13:38:49.999Z</time></trkpt><trkpt lat="46.40787844555821" lon="10.052226164459942"><ele>1971.0</ele><time>2026-05-01T13:38:50.999Z</time></trkpt><trkpt lat="46.40783662394619" lon="10.05196529685225"><ele>1971.0</ele><time>2026-05-01T13:38:51.999Z</time></trkpt><trkpt lat="46.407837207051045" lon="10.051675368478428"><ele>1971.0</ele><time>2026-05-01T13:38:52.999Z</time></trkpt><trkpt lat="46.40783794368244" lon="10.051374438229212"><ele>1971.0</ele><time>2026-05-01T13:38:53.999Z</time></trkpt><trkpt lat="46.4078550673082" lon="10.051072553309522"><ele>1971.6666666666665</ele><time>2026-05-01T13:38:54.999Z</time></trkpt><trkpt lat="46.40786011128261" lon="10.050817277674417"><ele>1972.3333333333333</ele><time>2026-05-01T13:38:55.999Z</time></trkpt><trkpt lat="46.4078719127301" lon="10.050602114389104"><ele>1973.0</ele><time>2026-05-01T13:38:56.999Z</time></trkpt><trkpt lat="46.407916960057484" lon="10.050393119674338"><ele>1981.25</ele><time>2026-05-01T13:38:57.999Z</time></trkpt><trkpt lat="46.407995608859395" lon="10.050231436985404"><ele>1989.5</ele><time>2026-05-01T13:38:58.999Z</time></trkpt><trkpt lat="46.408081252223184" lon="10.050170138911547"><ele>1997.75</ele><time>2026-05-01T13:38:59.999Z</time></trkpt><trkpt lat="46.40818896836607" lon="10.05009084180589"><ele>2006.0</ele><time>2026-05-01T13:39:00.999Z</time></trkpt><trkpt lat="46.40831870235324" lon="10.050102345397661"><ele>2006.0</ele><time>2026-05-01T13:39:01.999Z</time></trkpt><trkpt lat="46.40846248285129" lon="10.050175772502651"><ele>2006.0</ele><time>2026-05-01T13:39:02.999Z</time></trkpt><trkpt lat="46.40858244366271" lon="10.050295370501432"><ele>2006.0</ele><time>2026-05-01T13:39:03.998Z</time></trkpt><trkpt lat="46.408707628537144" lon="10.05047891312334"><ele>2010.6666666666665</ele><time>2026-05-01T13:39:04.998Z</time></trkpt><trkpt lat="46.40885816126326" lon="10.050695434941343"><ele>2015.3333333333335</ele><time>2026-05-01T13:39:05.998Z</time></trkpt><trkpt lat="46.40898382475772" lon="10.050877863463638"><ele>2020.0</ele><time>2026-05-01T13:39:06.998Z</time></trkpt><trkpt lat="46.40906632140981" lon="10.051007795259183"><ele>2020.0</ele><time>2026-05-01T13:39:07.998Z</time></trkpt><trkpt lat="46.409116557677294" lon="10.05115509179784"><ele>2020.0</ele><time>2026-05-01T13:39:08.998Z</time></trkpt><trkpt lat="46.40910286248343" lon="10.051307306250227"><ele>2020.0</ele><time>2026-05-01T13:39:09.998Z</time></trkpt><trkpt lat="46.40905413361707" lon="10.051452774450532"><ele>2020.0</ele><time>2026-05-01T13:39:10.998Z</time></trkpt><trkpt lat="46.409012541604355" lon="10.051643665661874"><ele>2020.0</ele><time>2026-05-01T13:39:11.998Z</time></trkpt><trkpt lat="46.40900312039569" lon="10.051823759282206"><ele>2020.0</ele><time>2026-05-01T13:39:12.998Z</time></trkpt><trkpt lat="46.40903862733398" lon="10.052007006715117"><ele>2020.0</ele><time>2026-05-01T13:39:13.998Z</time></trkpt><trkpt lat="46.40911562502624" lon="10.052181569019458"><ele>2020.0</ele><time>2026-05-01T13:39:14.998Z</time></trkpt><trkpt lat="46.40921897201971" lon="10.052311140053687"><ele>2020.0</ele><time>2026-05-01T13:39:15.998Z</time></trkpt><trkpt lat="46.40934388690237" lon="10.052379222029069"><ele>2020.0</ele><time>2026-05-01T13:39:16.998Z</time></trkpt><trkpt lat="46.409465235719665" lon="10.052381257013971"><ele>2020.0</ele><time>2026-05-01T13:39:17.998Z</time></trkpt><trkpt lat="46.40958701070779" lon="10.05231555377513"><ele>2020.0</ele><time>2026-05-01T13:39:19Z</time></trkpt><trkpt lat="46.4096969204648" lon="10.05217478656292"><ele>2023.75</ele><time>2026-05-01T13:39:20Z</time></trkpt><trkpt lat="46.409805376789976" lon="10.052012733332925"><ele>2027.5</ele><time>2026-05-01T13:39:21Z</time></trkpt><trkpt lat="46.40991606393259" lon="10.051870667613523"><ele>2031.25</ele><time>2026-05-01T13:39:22Z</time></trkpt><trkpt lat="46.410025139753564" lon="10.05177314215297"><ele>2035.0</ele><time>2026-05-01T13:39:23Z</time></trkpt><trkpt lat="46.41014214566635" lon="10.051779615187868"><ele>2035.0</ele><time>2026-05-01T13:39:24Z</time></trkpt><trkpt lat="46.410247444882515" lon="10.051857647444768"><ele>2035.0</ele><time>2026-05-01T13:39:25Z</time></trkpt><trkpt lat="46.41037034972757" lon="10.05192838041938"><ele>2035.0</ele><time>2026-05-01T13:39:26Z</time></trkpt><trkpt lat="46.41051448557223" lon="10.051988631644893"><ele>2035.0</ele><time>2026-05-01T13:39:27Z</time></trkpt><trkpt lat="46.41066823170994" lon="10.052030486839785"><ele>2037.6666666666667</ele><time>2026-05-01T13:39:28Z</time></trkpt><trkpt lat="46.41082408318581" lon="10.052026707228086"><ele>2040.3333333333335</ele><time>2026-05-01T13:39:29Z</time></trkpt><trkpt lat="46.4109867403892" lon="10.0519689895966"><ele>2043.0</ele><time>2026-05-01T13:39:30Z</time></trkpt><trkpt lat="46.41113066358318" lon="10.051887200933042"><ele>2043.0</ele><time>2026-05-01T13:39:31Z</time></trkpt><trkpt lat="46.411241774727394" lon="10.05178791578953"><ele>2043.0</ele><time>2026-05-01T13:39:32Z</time></trkpt><trkpt lat="46.4113143301247" lon="10.051651631858473"><ele>2043.0</ele><time>2026-05-01T13:39:33Z</time></trkpt><trkpt lat="46.41137306641666" lon="10.051469299840683"><ele>2043.0</ele><time>2026-05-01T13:39:34Z</time></trkpt><trkpt lat="46.41139838603388" lon="10.051260581407911"><ele>2044.8000000000002</ele><time>2026-05-01T13:39:35Z</time></trkpt><trkpt lat="46.411406182690804" lon="10.05107017965763"><ele>2046.6000000000001</ele><time>2026-05-01T13:39:36Z</time></trkpt><trkpt lat="46.41141978609708" lon="10.050928289561249"><ele>2048.3999999999996</ele><time>2026-05-01T13:39:37Z</time></trkpt><trkpt lat="46.41145101605793" lon="10.050810772745495"><ele>2050.2</ele><time>2026-05-01T13:39:38Z</time></trkpt><trkpt lat="46.411492182620265" lon="10.050722828739449"><ele>2052.0</ele><time>2026-05-01T13:39:39Z</time></trkpt><trkpt lat="46.41159813000699" lon="10.050647797835213"><ele>2055.25</ele><time>2026-05-01T13:39:41Z</time></trkpt><trkpt lat="46.41167581810504" lon="10.050665080366855"><ele>2058.5</ele><time>2026-05-01T13:39:43Z</time></trkpt><trkpt lat="46.41172972621093" lon="10.050608752228241"><ele>2061.75</ele><time>2026-05-01T13:39:45Z</time></trkpt><trkpt lat="46.41170018817374" lon="10.05028290489082"><ele>2065.0</ele><time>2026-05-01T13:39:49Z</time></trkpt><trkpt lat="46.4116118870482" lon="10.050508203521872"><ele>2065.0</ele><time>2026-05-01T13:39:50Z</time></trkpt><trkpt lat="46.411544942100576" lon="10.050580764091507"><ele>2065.0</ele><time>2026-05-01T13:39:53Z</time></trkpt><trkpt lat="46.411499831438285" lon="10.050670164690219"><ele>2065.0</ele><time>2026-05-01T13:40:34.999Z</time></trkpt><trkpt lat="46.41143564082228" lon="10.050700598677507"><ele>2065.0</ele><time>2026-05-01T13:40:44.999Z</time></trkpt><trkpt lat="46.41138000305259" lon="10.05084360824183"><ele>2065.0</ele><time>2026-05-01T13:40:45.999Z</time></trkpt><trkpt lat="46.411394543517275" lon="10.0507168584447"><ele>2065.0</ele><time>2026-05-01T13:40:46.999Z</time></trkpt><trkpt lat="46.411363041161756" lon="10.051048555421056"><ele>2065.0</ele><time>2026-05-01T13:40:49.999Z</time></trkpt><trkpt lat="46.411535681192625" lon="10.050579870083695"><ele>2065.0</ele><time>2026-05-01T13:40:50.999Z</time></trkpt><trkpt lat="46.41148083788556" lon="10.05065152293448"><ele>2065.0</ele><time>2026-05-01T13:44:02.999Z</time></trkpt><trkpt lat="46.41141721430953" lon="10.050712916565557"><ele>2065.0</ele><time>2026-05-01T13:44:03.999Z</time></trkpt><trkpt lat="46.41131404403895" lon="10.050775782944386"><ele>2065.0</ele><time>2026-05-01T13:44:05.999Z</time></trkpt><trkpt lat="46.41151505844514" lon="10.050589519870735"><ele>2065.0</ele><time>2026-05-01T13:44:08.999Z</time></trkpt><trkpt lat="46.41145306645158" lon="10.050686521727028"><ele>2065.0</ele><time>2026-05-01T13:52:30.999Z</time></trkpt><trkpt lat="46.41139363218128" lon="10.050717523879571"><ele>2065.0</ele><time>2026-05-01T13:52:32.999Z</time></trkpt><trkpt lat="46.41134052926417" lon="10.050769504752083"><ele>2065.0</ele><time>2026-05-01T13:52:33.999Z</time></trkpt><trkpt lat="46.41135998873431" lon="10.05098123068606"><ele>2065.0</ele><time>2026-05-01T13:52:34.999Z</time></trkpt><trkpt lat="46.41134611747884" lon="10.051100081967935"><ele>2065.0</ele><time>2026-05-01T13:52:35.999Z</time></trkpt><trkpt lat="46.411323517300005" lon="10.05125359863565"><ele>2065.0</ele><time>2026-05-01T13:52:36.999Z</time></trkpt><trkpt lat="46.411300653576006" lon="10.051414758233138"><ele>2062.8</ele><time>2026-05-01T13:52:37.999Z</time></trkpt><trkpt lat="46.41126497186417" lon="10.051559416346132"><ele>2060.6</ele><time>2026-05-01T13:52:38.999Z</time></trkpt><trkpt lat="46.41121126066654" lon="10.051684532218198"><ele>2058.4</ele><time>2026-05-01T13:52:39.999Z</time></trkpt><trkpt lat="46.411134371502726" lon="10.051782789392787"><ele>2056.2</ele><time>2026-05-01T13:52:40.999Z</time></trkpt><trkpt lat="46.41103671867878" lon="10.051841417016096"><ele>2054.0</ele><time>2026-05-01T13:52:41.999Z</time></trkpt><trkpt lat="46.410934319659255" lon="10.051892195718713"><ele>2051.8</ele><time>2026-05-01T13:52:42.999Z</time></trkpt><trkpt lat="46.41081302121499" lon="10.051935845247252"><ele>2049.6000000000004</ele><time>2026-05-01T13:52:43.999Z</time></trkpt><trkpt lat="46.4107043879005" lon="10.051963613388832"><ele>2047.4</ele><time>2026-05-01T13:52:44.999Z</time></trkpt><trkpt lat="46.41059958306873" lon="10.051923194274911"><ele>2045.2</ele><time>2026-05-01T13:52:45.999Z</time></trkpt><trkpt lat="46.41051073592678" lon="10.051843925455513"><ele>2043.0</ele><time>2026-05-01T13:52:46.999Z</time></trkpt><trkpt lat="46.41042958818198" lon="10.051794195718015"><ele>2041.0</ele><time>2026-05-01T13:52:47.999Z</time></trkpt><trkpt lat="46.41035462181142" lon="10.051752546208043"><ele>2039.0</ele><time>2026-05-01T13:52:48.999Z</time></trkpt><trkpt lat="46.41024986766974" lon="10.051702835413932"><ele>2037.0</ele><time>2026-05-01T13:52:50.999Z</time></trkpt><trkpt lat="46.41013136873234" lon="10.051698156395878"><ele>2035.0</ele><time>2026-05-01T13:52:51.999Z</time></trkpt><trkpt lat="46.40996308548052" lon="10.051765081449487"><ele>2035.0</ele><time>2026-05-01T13:52:52.999Z</time></trkpt><trkpt lat="46.409876724441865" lon="10.051859672086941"><ele>2035.0</ele><time>2026-05-01T13:52:53.999Z</time></trkpt><trkpt lat="46.40984214978958" lon="10.051966896533198"><ele>2035.0</ele><time>2026-05-01T13:52:54.999Z</time></trkpt><trkpt lat="46.40952106138254" lon="10.052229173294645"><ele>2032.0</ele><time>2026-05-01T13:52:55.999Z</time></trkpt><trkpt lat="46.40942755608354" lon="10.052296319105734"><ele>2029.0</ele><time>2026-05-01T13:52:56.999Z</time></trkpt><trkpt lat="46.40932353673424" lon="10.052325551855482"><ele>2026.0</ele><time>2026-05-01T13:52:57.999Z</time></trkpt><trkpt lat="46.40922657708713" lon="10.052257833906724"><ele>2023.0</ele><time>2026-05-01T13:52:58.999Z</time></trkpt><trkpt lat="46.40914938195043" lon="10.052176157891864"><ele>2020.0</ele><time>2026-05-01T13:52:59.999Z</time></trkpt><trkpt lat="46.409100059692335" lon="10.052035679090197"><ele>2020.0</ele><time>2026-05-01T13:53:00.999Z</time></trkpt><trkpt lat="46.409048487253884" lon="10.051865028595905"><ele>2020.0</ele><time>2026-05-01T13:53:01.999Z</time></trkpt><trkpt lat="46.409029521839315" lon="10.05168447552947"><ele>2020.0</ele><time>2026-05-01T13:53:02.999Z</time></trkpt><trkpt lat="46.409071343205206" lon="10.051528116349814"><ele>2020.0</ele><time>2026-05-01T13:53:03.999Z</time></trkpt><trkpt lat="46.409111359312696" lon="10.051378393750213"><ele>2020.0</ele><time>2026-05-01T13:53:04.999Z</time></trkpt><trkpt lat="46.40914079133839" lon="10.051243777791882"><ele>2020.0</ele><time>2026-05-01T13:53:05.999Z</time></trkpt><trkpt lat="46.40913456751954" lon="10.051091427453589"><ele>2020.0</ele><time>2026-05-01T13:53:06.999Z</time></trkpt><trkpt lat="46.40910031390796" lon="10.050940156158841"><ele>2020.0</ele><time>2026-05-01T13:53:07.999Z</time></trkpt><trkpt lat="46.409021910760806" lon="10.050808143631073"><ele>2020.0</ele><time>2026-05-01T13:53:08.999Z</time></trkpt><trkpt lat="46.40894100585077" lon="10.050696454894721"><ele>2020.0</ele><time>2026-05-01T13:53:09.999Z</time></trkpt><trkpt lat="46.40885128067928" lon="10.050589101143938"><ele>2020.0</ele><time>2026-05-01T13:53:10.999Z</time></trkpt><trkpt lat="46.408771302965604" lon="10.050483412444667"><ele>2020.0</ele><time>2026-05-01T13:53:11.999Z</time></trkpt><trkpt lat="46.408698969555765" lon="10.050378202801152"><ele>2020.0</ele><time>2026-05-01T13:53:12.999Z</time></trkpt><trkpt lat="46.40862509135822" lon="10.050267668893786"><ele>2020.0</ele><time>2026-05-01T13:53:13.999Z</time></trkpt><trkpt lat="46.40855970337326" lon="10.050175130885066"><ele>2017.2</ele><time>2026-05-01T13:53:14.999Z</time></trkpt><trkpt lat="46.40848349616143" lon="10.050101099315297"><ele>2014.4</ele><time>2026-05-01T13:53:15.999Z</time></trkpt><trkpt lat="46.40838577494046" lon="10.050077325797071"><ele>2011.6</ele><time>2026-05-01T13:53:16.999Z</time></trkpt><trkpt lat="46.40830731300993" lon="10.050041275013147"><ele>2008.8</ele><time>2026-05-01T13:53:17.999Z</time></trkpt><trkpt lat="46.4082131301996" lon="10.050031801423218"><ele>2006.0</ele><time>2026-05-01T13:53:18.999Z</time></trkpt><trkpt lat="46.40809693500186" lon="10.050060646791515"><ele>2006.0</ele><time>2026-05-01T13:53:19.999Z</time></trkpt><trkpt lat="46.4080161579644" lon="10.050189833897216"><ele>2006.0</ele><time>2026-05-01T13:53:20.999Z</time></trkpt><trkpt lat="46.40793800670051" lon="10.050287556204031"><ele>2006.0</ele><time>2026-05-01T13:53:22Z</time></trkpt><trkpt lat="46.407878263473606" lon="10.050421071947172"><ele>2006.0</ele><time>2026-05-01T13:53:23Z</time></trkpt><trkpt lat="46.407838110332996" lon="10.050565324097585"><ele>2006.0</ele><time>2026-05-01T13:53:24Z</time></trkpt><trkpt lat="46.40782292463269" lon="10.050734292105153"><ele>1997.75</ele><time>2026-05-01T13:53:25Z</time></trkpt><trkpt lat="46.40782353322374" lon="10.050948688316954"><ele>1989.5</ele><time>2026-05-01T13:53:26Z</time></trkpt><trkpt lat="46.4078234313145" lon="10.051136819531365"><ele>1981.25</ele><time>2026-05-01T13:53:27Z</time></trkpt><trkpt lat="46.40780566933841" lon="10.05129715896519"><ele>1973.0</ele><time>2026-05-01T13:53:28Z</time></trkpt><trkpt lat="46.407803462439155" lon="10.0514711734438"><ele>1972.6000000000001</ele><time>2026-05-01T13:53:29Z</time></trkpt><trkpt lat="46.40780686486976" lon="10.05163597408066"><ele>1972.2000000000003</ele><time>2026-05-01T13:53:30Z</time></trkpt><trkpt lat="46.40781238170693" lon="10.051782920194482"><ele>1971.8</ele><time>2026-05-01T13:53:31Z</time></trkpt><trkpt lat="46.407824645192115" lon="10.05193199394421"><ele>1971.4</ele><time>2026-05-01T13:53:32Z</time></trkpt><trkpt lat="46.40783606642174" lon="10.052083669885421"><ele>1971.0</ele><time>2026-05-01T13:53:33Z</time></trkpt><trkpt lat="46.40784679682543" lon="10.052236723512841"><ele>1971.0</ele><time>2026-05-01T13:53:34Z</time></trkpt><trkpt lat="46.40788403646956" lon="10.05239718367813"><ele>1971.0</ele><time>2026-05-01T13:53:35Z</time></trkpt><trkpt lat="46.40794844799161" lon="10.052558017075539"><ele>1971.0</ele><time>2026-05-01T13:53:36Z</time></trkpt><trkpt lat="46.40801817230057" lon="10.052735432730758"><ele>1971.0</ele><time>2026-05-01T13:53:37Z</time></trkpt><trkpt lat="46.408077862441665" lon="10.052913659256992"><ele>1972.75</ele><time>2026-05-01T13:53:38Z</time></trkpt><trkpt lat="46.40811425274448" lon="10.05310206396496"><ele>1974.5</ele><time>2026-05-01T13:53:39Z</time></trkpt><trkpt lat="46.4081248273456" lon="10.0532911210392"><ele>1976.25</ele><time>2026-05-01T13:53:40Z</time></trkpt><trkpt lat="46.40817442019153" lon="10.053434732659516"><ele>1978.0</ele><time>2026-05-01T13:53:41Z</time></trkpt><trkpt lat="46.40823337344683" lon="10.05357013772891"><ele>1978.0</ele><time>2026-05-01T13:53:42Z</time></trkpt><trkpt lat="46.408323371992616" lon="10.053674420155811"><ele>1978.0</ele><time>2026-05-01T13:53:43Z</time></trkpt><trkpt lat="46.40840841833443" lon="10.053794781630913"><ele>1978.0</ele><time>2026-05-01T13:53:44Z</time></trkpt><trkpt lat="46.40847701514875" lon="10.05391478027225"><ele>1978.0</ele><time>2026-05-01T13:53:45Z</time></trkpt><trkpt lat="46.40855821390518" lon="10.054025849183047"><ele>1978.0</ele><time>2026-05-01T13:53:46Z</time></trkpt><trkpt lat="46.408659756327474" lon="10.054116965155899"><ele>1978.0</ele><time>2026-05-01T13:53:47Z</time></trkpt><trkpt lat="46.408774347316545" lon="10.054187337401196"><ele>1978.0</ele><time>2026-05-01T13:53:48Z</time></trkpt><trkpt lat="46.408962881043934" lon="10.054205656675114"><ele>1978.0</ele><time>2026-05-01T13:53:49Z</time></trkpt><trkpt lat="46.40912891405445" lon="10.054226047271962"><ele>1976.0</ele><time>2026-05-01T13:53:50Z</time></trkpt><trkpt lat="46.40928679868984" lon="10.054245675339914"><ele>1974.0</ele><time>2026-05-01T13:53:51Z</time></trkpt><trkpt lat="46.40945017232418" lon="10.05427297300959"><ele>1972.0</ele><time>2026-05-01T13:53:52Z</time></trkpt><trkpt lat="46.40963689060693" lon="10.054347917884856"><ele>1971.3333333333335</ele><time>2026-05-01T13:53:53Z</time></trkpt><trkpt lat="46.409776937339295" lon="10.054441159538726"><ele>1970.6666666666665</ele><time>2026-05-01T13:53:54Z</time></trkpt><trkpt lat="46.409836511055175" lon="10.054685072874422"><ele>1970.0</ele><time>2026-05-01T13:53:56Z</time></trkpt><trkpt lat="46.40983781801406" lon="10.054909235711039"><ele>1967.25</ele><time>2026-05-01T13:53:57Z</time></trkpt><trkpt lat="46.409847161577666" lon="10.055143869770156"><ele>1964.5</ele><time>2026-05-01T13:53:58Z</time></trkpt><trkpt lat="46.40985227872306" lon="10.055365127972685"><ele>1961.75</ele><time>2026-05-01T13:53:59Z</time></trkpt><trkpt lat="46.409835087772585" lon="10.055553122321836"><ele>1959.0</ele><time>2026-05-01T13:54:00Z</time></trkpt><trkpt lat="46.40980059777323" lon="10.055711577667518"><ele>1960.25</ele><time>2026-05-01T13:54:00.999Z</time></trkpt><trkpt lat="46.40971125399816" lon="10.055823214817593"><ele>1961.5</ele><time>2026-05-01T13:54:01.999Z</time></trkpt><trkpt lat="46.409604801922654" lon="10.055970301976211"><ele>1962.75</ele><time>2026-05-01T13:54:02.999Z</time></trkpt><trkpt lat="46.40948614369646" lon="10.056158068297417"><ele>1964.0</ele><time>2026-05-01T13:54:03.999Z</time></trkpt><trkpt lat="46.40936579320494" lon="10.056293798731462"><ele>1964.0</ele><time>2026-05-01T13:54:04.999Z</time></trkpt><trkpt lat="46.40925954955844" lon="10.056442476336658"><ele>1964.0</ele><time>2026-05-01T13:54:05.999Z</time></trkpt><trkpt lat="46.40916297060895" lon="10.056583941933333"><ele>1964.0</ele><time>2026-05-01T13:54:06.999Z</time></trkpt><trkpt lat="46.409077192572624" lon="10.056721812838383"><ele>1964.0</ele><time>2026-05-01T13:54:07.999Z</time></trkpt><trkpt lat="46.409017175594755" lon="10.05687219862344"><ele>1959.75</ele><time>2026-05-01T13:54:08.999Z</time></trkpt><trkpt lat="46.40898655940177" lon="10.057052906608625"><ele>1955.5</ele><time>2026-05-01T13:54:09.999Z</time></trkpt><trkpt lat="46.40898367976057" lon="10.05725828959289"><ele>1951.25</ele><time>2026-05-01T13:54:10.999Z</time></trkpt><trkpt lat="46.40900837716387" lon="10.057505596123228"><ele>1947.0</ele><time>2026-05-01T13:54:11.999Z</time></trkpt><trkpt lat="46.409036606211295" lon="10.057775269880446"><ele>1945.0</ele><time>2026-05-01T13:54:12.999Z</time></trkpt><trkpt lat="46.40904572507565" lon="10.05801742085795"><ele>1943.0</ele><time>2026-05-01T13:54:13.999Z</time></trkpt><trkpt lat="46.4090341760438" lon="10.05827162998746"><ele>1941.0</ele><time>2026-05-01T13:54:14.999Z</time></trkpt><trkpt lat="46.40900519502406" lon="10.058508603488113"><ele>1939.6666666666665</ele><time>2026-05-01T13:54:15.999Z</time></trkpt><trkpt lat="46.40894961632216" lon="10.05873255509485"><ele>1938.3333333333333</ele><time>2026-05-01T13:54:16.999Z</time></trkpt><trkpt lat="46.40886447276771" lon="10.058938795890377"><ele>1937.0</ele><time>2026-05-01T13:54:17.999Z</time></trkpt><trkpt lat="46.40876116532397" lon="10.059122216984315"><ele>1936.6666666666665</ele><time>2026-05-01T13:54:18.999Z</time></trkpt><trkpt lat="46.40864234305968" lon="10.059281430327685"><ele>1936.3333333333335</ele><time>2026-05-01T13:54:19.999Z</time></trkpt><trkpt lat="46.408501028089056" lon="10.059388934095203"><ele>1936.0</ele><time>2026-05-01T13:54:21Z</time></trkpt><trkpt lat="46.408351216985004" lon="10.059490039087075"><ele>1936.0</ele><time>2026-05-01T13:54:22Z</time></trkpt><trkpt lat="46.408184339922784" lon="10.059567825880379"><ele>1936.0</ele><time>2026-05-01T13:54:23Z</time></trkpt><trkpt lat="46.40802200878307" lon="10.059637942176789"><ele>1936.0</ele><time>2026-05-01T13:54:24Z</time></trkpt><trkpt lat="46.407861373347856" lon="10.059761895877195"><ele>1932.6666666666667</ele><time>2026-05-01T13:54:25Z</time></trkpt><trkpt lat="46.407712790049146" lon="10.059927387097323"><ele>1929.3333333333335</ele><time>2026-05-01T13:54:26Z</time></trkpt><trkpt lat="46.407578917866005" lon="10.06011063710219"><ele>1926.0</ele><time>2026-05-01T13:54:27Z</time></trkpt><trkpt lat="46.40744654588929" lon="10.060301188792746"><ele>1926.0</ele><time>2026-05-01T13:54:28Z</time></trkpt><trkpt lat="46.40730541223866" lon="10.060479681632259"><ele>1926.0</ele><time>2026-05-01T13:54:29Z</time></trkpt><trkpt lat="46.40716621996878" lon="10.060628315574334"><ele>1926.0</ele><time>2026-05-01T13:54:30Z</time></trkpt><trkpt lat="46.407025718647326" lon="10.060771165479691"><ele>1921.0</ele><time>2026-05-01T13:54:31Z</time></trkpt><trkpt lat="46.4068703108442" lon="10.060819766089853"><ele>1916.0</ele><time>2026-05-01T13:54:32Z</time></trkpt><trkpt lat="46.40670407972847" lon="10.060847429001617"><ele>1911.0</ele><time>2026-05-01T13:54:33Z</time></trkpt><trkpt lat="46.406556470709155" lon="10.06089206999577"><ele>1911.0</ele><time>2026-05-01T13:54:34Z</time></trkpt><trkpt lat="46.406394738765954" lon="10.060947342801565"><ele>1911.0</ele><time>2026-05-01T13:54:35Z</time></trkpt><trkpt lat="46.40623467545793" lon="10.0609969060154"><ele>1911.0</ele><time>2026-05-01T13:54:36Z</time></trkpt><trkpt lat="46.40607684557214" lon="10.060997731691444"><ele>1916.0</ele><time>2026-05-01T13:54:37Z</time></trkpt><trkpt lat="46.405928482660805" lon="10.061069207418136"><ele>1921.0</ele><time>2026-05-01T13:54:38Z</time></trkpt><trkpt lat="46.40579890383299" lon="10.061196490456057"><ele>1926.0</ele><time>2026-05-01T13:54:39Z</time></trkpt><trkpt lat="46.405670757429746" lon="10.061345308205619"><ele>1926.0</ele><time>2026-05-01T13:54:40Z</time></trkpt><trkpt lat="46.40554021284857" lon="10.061488456662266"><ele>1926.0</ele><time>2026-05-01T13:54:41Z</time></trkpt><trkpt lat="46.40540086171874" lon="10.061596072713533"><ele>1926.0</ele><time>2026-05-01T13:54:42Z</time></trkpt><trkpt lat="46.40525584800783" lon="10.061670679680311"><ele>1921.0</ele><time>2026-05-01T13:54:43Z</time></trkpt><trkpt lat="46.40509801608086" lon="10.061698891513489"><ele>1916.0</ele><time>2026-05-01T13:54:44Z</time></trkpt><trkpt lat="46.40495550882388" lon="10.061714615379849"><ele>1911.0</ele><time>2026-05-01T13:54:45Z</time></trkpt><trkpt lat="46.40481810293202" lon="10.061761601655963"><ele>1906.0</ele><time>2026-05-01T13:54:46Z</time></trkpt><trkpt lat="46.40469422636047" lon="10.061866044300851"><ele>1904.6666666666667</ele><time>2026-05-01T13:54:47Z</time></trkpt><trkpt lat="46.40459271758314" lon="10.06202342702683"><ele>1903.3333333333335</ele><time>2026-05-01T13:54:48Z</time></trkpt><trkpt lat="46.404530917895435" lon="10.06222311752867"><ele>1902.0</ele><time>2026-05-01T13:54:49Z</time></trkpt><trkpt lat="46.40450690770362" lon="10.062454038513145"><ele>1897.0</ele><time>2026-05-01T13:54:50Z</time></trkpt><trkpt lat="46.404486226143774" lon="10.062723990612128"><ele>1892.0</ele><time>2026-05-01T13:54:51Z</time></trkpt><trkpt lat="46.40449998178384" lon="10.062993386009342"><ele>1887.0</ele><time>2026-05-01T13:54:52Z</time></trkpt><trkpt lat="46.40450397928741" lon="10.06326926735607"><ele>1886.6666666666665</ele><time>2026-05-01T13:54:53Z</time></trkpt><trkpt lat="46.40450200981817" lon="10.063556629895338"><ele>1886.3333333333333</ele><time>2026-05-01T13:54:54Z</time></trkpt><trkpt lat="46.404463898690196" lon="10.063909198163067"><ele>1886.0</ele><time>2026-05-01T13:54:55Z</time></trkpt><trkpt lat="46.4044639240285" lon="10.064201877145818"><ele>1886.0</ele><time>2026-05-01T13:54:56Z</time></trkpt><trkpt lat="46.40439539154357" lon="10.064445775248668"><ele>1886.0</ele><time>2026-05-01T13:54:57Z</time></trkpt><trkpt lat="46.40427609835193" lon="10.06474274530156"><ele>1886.0</ele><time>2026-05-01T13:54:58Z</time></trkpt><trkpt lat="46.40407597928455" lon="10.064989303692704"><ele>1886.5</ele><time>2026-05-01T13:55:00Z</time></trkpt><trkpt lat="46.40390348401061" lon="10.06521487952976"><ele>1887.0</ele><time>2026-05-01T13:55:01Z</time></trkpt><trkpt lat="46.403727849247645" lon="10.065444561126752"><ele>1887.0</ele><time>2026-05-01T13:55:02Z</time></trkpt><trkpt lat="46.403558565448506" lon="10.065666420507535"><ele>1887.0</ele><time>2026-05-01T13:55:03Z</time></trkpt><trkpt lat="46.40339337103642" lon="10.06590875307704"><ele>1885.0</ele><time>2026-05-01T13:55:04Z</time></trkpt><trkpt lat="46.403210846314046" lon="10.066090211410925"><ele>1883.0</ele><time>2026-05-01T13:55:05Z</time></trkpt><trkpt lat="46.40302473479791" lon="10.066224409489784"><ele>1881.0</ele><time>2026-05-01T13:55:06Z</time></trkpt><trkpt lat="46.4028171986506" lon="10.066302333856312"><ele>1881.0</ele><time>2026-05-01T13:55:07Z</time></trkpt><trkpt lat="46.402589162631934" lon="10.066377549151625"><ele>1881.0</ele><time>2026-05-01T13:55:08Z</time></trkpt><trkpt lat="46.40235207414983" lon="10.066455368115724"><ele>1881.0</ele><time>2026-05-01T13:55:09Z</time></trkpt><trkpt lat="46.40210564073396" lon="10.066536254372464"><ele>1881.0</ele><time>2026-05-01T13:55:10Z</time></trkpt><trkpt lat="46.4018544587125" lon="10.0666186992478"><ele>1881.0</ele><time>2026-05-01T13:55:11Z</time></trkpt><trkpt lat="46.40161243612226" lon="10.066698841755692"><ele>1881.0</ele><time>2026-05-01T13:55:12Z</time></trkpt><trkpt lat="46.401368316960415" lon="10.066779877324734"><ele>1883.0</ele><time>2026-05-01T13:55:13Z</time></trkpt><trkpt lat="46.4011274985052" lon="10.066883804547432"><ele>1885.0</ele><time>2026-05-01T13:55:14Z</time></trkpt><trkpt lat="46.40087773391711" lon="10.066957803365469"><ele>1885.0</ele><time>2026-05-01T13:55:15Z</time></trkpt><trkpt lat="46.400622072533814" lon="10.066982581255607"><ele>1885.0</ele><time>2026-05-01T13:55:16Z</time></trkpt><trkpt lat="46.40037406793436" lon="10.067004422399398"><ele>1885.0</ele><time>2026-05-01T13:55:17Z</time></trkpt><trkpt lat="46.40012727255151" lon="10.067002783189777"><ele>1885.0</ele><time>2026-05-01T13:55:18Z</time></trkpt><trkpt lat="46.39987425037476" lon="10.066979309573082"><ele>1883.0</ele><time>2026-05-01T13:55:19Z</time></trkpt><trkpt lat="46.39963348784376" lon="10.066952307586496"><ele>1881.0</ele><time>2026-05-01T13:55:20Z</time></trkpt><trkpt lat="46.3994129680435" lon="10.066916686330405"><ele>1881.0</ele><time>2026-05-01T13:55:21Z</time></trkpt><trkpt lat="46.39920350640585" lon="10.066912664967317"><ele>1881.0</ele><time>2026-05-01T13:55:22Z</time></trkpt><trkpt lat="46.399001601185006" lon="10.066931601203725"><ele>1881.0</ele><time>2026-05-01T13:55:23Z</time></trkpt><trkpt lat="46.39879984608164" lon="10.066957332017731"><ele>1878.6666666666665</ele><time>2026-05-01T13:55:24Z</time></trkpt><trkpt lat="46.39862372239014" lon="10.066981286183312"><ele>1876.3333333333333</ele><time>2026-05-01T13:55:25Z</time></trkpt><trkpt lat="46.39845500895816" lon="10.066996048768319"><ele>1874.0</ele><time>2026-05-01T13:55:26Z</time></trkpt><trkpt lat="46.398279911833654" lon="10.066948356938852"><ele>1874.0</ele><time>2026-05-01T13:55:27Z</time></trkpt><trkpt lat="46.39811328435478" lon="10.066839321359062"><ele>1874.0</ele><time>2026-05-01T13:55:28Z</time></trkpt><trkpt lat="46.39794642771775" lon="10.066719517287622"><ele>1874.0</ele><time>2026-05-01T13:55:29Z</time></trkpt><trkpt lat="46.39778088630647" lon="10.066638842871967"><ele>1868.3333333333333</ele><time>2026-05-01T13:55:30Z</time></trkpt><trkpt lat="46.39759947717846" lon="10.066616356746376"><ele>1862.6666666666665</ele><time>2026-05-01T13:55:31Z</time></trkpt><trkpt lat="46.397419392057074" lon="10.06664445893301"><ele>1857.0</ele><time>2026-05-01T13:55:32Z</time></trkpt><trkpt lat="46.39725490110379" lon="10.066672589753027"><ele>1862.3333333333335</ele><time>2026-05-01T13:55:33Z</time></trkpt><trkpt lat="46.39709396925747" lon="10.066674328050278"><ele>1867.6666666666667</ele><time>2026-05-01T13:55:34Z</time></trkpt><trkpt lat="46.396945514629756" lon="10.066618990659471"><ele>1873.0</ele><time>2026-05-01T13:55:35Z</time></trkpt><trkpt lat="46.39681010484688" lon="10.066485982513186"><ele>1873.0</ele><time>2026-05-01T13:55:36Z</time></trkpt><trkpt lat="46.39666086673439" lon="10.066357171387864"><ele>1873.0</ele><time>2026-05-01T13:55:37Z</time></trkpt><trkpt lat="46.39648934770483" lon="10.06624342454441"><ele>1873.0</ele><time>2026-05-01T13:55:38Z</time></trkpt><trkpt lat="46.39631237617814" lon="10.066149846555918"><ele>1861.0</ele><time>2026-05-01T13:55:39Z</time></trkpt><trkpt lat="46.39609868491673" lon="10.066065982075585"><ele>1849.0</ele><time>2026-05-01T13:55:40Z</time></trkpt><trkpt lat="46.39587188138978" lon="10.065970381836312"><ele>1849.0</ele><time>2026-05-01T13:55:41Z</time></trkpt><trkpt lat="46.39564184634649" lon="10.065903917299062"><ele>1849.0</ele><time>2026-05-01T13:55:42Z</time></trkpt><trkpt lat="46.39548274916202" lon="10.065889953191016"><ele>1849.0</ele><time>2026-05-01T13:55:43.001Z</time></trkpt><trkpt lat="46.39538029601736" lon="10.065950631304215"><ele>1845.75</ele><time>2026-05-01T13:55:44.001Z</time></trkpt><trkpt lat="46.39529089732949" lon="10.06598344344562"><ele>1842.5</ele><time>2026-05-01T13:55:45.001Z</time></trkpt><trkpt lat="46.39520281777952" lon="10.06605594755305"><ele>1839.25</ele><time>2026-05-01T13:55:46.001Z</time></trkpt><trkpt lat="46.39510888988165" lon="10.066093884485879"><ele>1836.0</ele><time>2026-05-01T13:55:47.001Z</time></trkpt><trkpt lat="46.394730205184516" lon="10.066242509476124"><ele>1837.0</ele><time>2026-05-01T13:55:48.001Z</time></trkpt><trkpt lat="46.39458152418304" lon="10.066266603132798"><ele>1838.0</ele><time>2026-05-01T13:55:49.001Z</time></trkpt><trkpt lat="46.394449612464946" lon="10.066256453936576"><ele>1839.0</ele><time>2026-05-01T13:55:50.001Z</time></trkpt><trkpt lat="46.394318184814225" lon="10.066203211301593"><ele>1840.0</ele><time>2026-05-01T13:55:51.001Z</time></trkpt><trkpt lat="46.39420662302079" lon="10.066141118276592"><ele>1840.0000000000002</ele><time>2026-05-01T13:55:52.001Z</time></trkpt><trkpt lat="46.394126887503" lon="10.066093840641662"><ele>1840.0</ele><time>2026-05-01T13:55:53.001Z</time></trkpt><trkpt lat="46.39405004153873" lon="10.066087033151483"><ele>1840.0</ele><time>2026-05-01T13:55:54.001Z</time></trkpt><trkpt lat="46.393987754286066" lon="10.066157933710127"><ele>1840.0</ele><time>2026-05-01T13:55:55.001Z</time></trkpt><trkpt lat="46.393963306649255" lon="10.066271625545832"><ele>1840.0000000000002</ele><time>2026-05-01T13:55:56.001Z</time></trkpt><trkpt lat="46.39400058388347" lon="10.066388157249296"><ele>1840.0</ele><time>2026-05-01T13:55:57.001Z</time></trkpt><trkpt lat="46.39409206917202" lon="10.066465093273976"><ele>1840.0</ele><time>2026-05-01T13:55:58.001Z</time></trkpt><trkpt lat="46.394230605557475" lon="10.066491853278913"><ele>1840.0</ele><time>2026-05-01T13:55:59.001Z</time></trkpt><trkpt lat="46.39436388977238" lon="10.066503321523113"><ele>1840.0</ele><time>2026-05-01T13:56:00.001Z</time></trkpt><trkpt lat="46.39452094556835" lon="10.0665450911575"><ele>1840.0</ele><time>2026-05-01T13:56:01.001Z</time></trkpt><trkpt lat="46.39470110842342" lon="10.066596961544914"><ele>1830.0</ele><time>2026-05-01T13:56:02.001Z</time></trkpt><trkpt lat="46.3948696392868" lon="10.066649638417177"><ele>1820.0</ele><time>2026-05-01T13:56:03.001Z</time></trkpt><trkpt lat="46.39504792840769" lon="10.066709483339986"><ele>1810.0</ele><time>2026-05-01T13:56:04.001Z</time></trkpt><trkpt lat="46.39522149519643" lon="10.066758836412916"><ele>1810.0</ele><time>2026-05-01T13:56:05.001Z</time></trkpt><trkpt lat="46.39539348988483" lon="10.066763834706963"><ele>1810.0</ele><time>2026-05-01T13:56:06.001Z</time></trkpt><trkpt lat="46.39556192104718" lon="10.066745996917117"><ele>1810.0</ele><time>2026-05-01T13:56:07.001Z</time></trkpt><trkpt lat="46.39571888997668" lon="10.066724304496715"><ele>1810.8</ele><time>2026-05-01T13:56:08.001Z</time></trkpt><trkpt lat="46.395842729252536" lon="10.066691501389286"><ele>1811.6</ele><time>2026-05-01T13:56:09.001Z</time></trkpt><trkpt lat="46.39594284254997" lon="10.066673903314427"><ele>1812.4</ele><time>2026-05-01T13:56:10.001Z</time></trkpt><trkpt lat="46.39600465283142" lon="10.066732513611555"><ele>1813.2</ele><time>2026-05-01T13:56:11.001Z</time></trkpt><trkpt lat="46.39603352131686" lon="10.066822394104081"><ele>1814.0</ele><time>2026-05-01T13:56:12.001Z</time></trkpt><trkpt lat="46.39600664485454" lon="10.066937498259326"><ele>1814.0</ele><time>2026-05-01T13:56:13.001Z</time></trkpt><trkpt lat="46.395920535108935" lon="10.06699124936959"><ele>1814.0</ele><time>2026-05-01T13:56:14.001Z</time></trkpt><trkpt lat="46.3958206747361" lon="10.066994272850698"><ele>1814.0</ele><time>2026-05-01T13:56:15.001Z</time></trkpt><trkpt lat="46.395690230227395" lon="10.067001200026562"><ele>1814.0</ele><time>2026-05-01T13:56:16.001Z</time></trkpt><trkpt lat="46.39553968360057" lon="10.06704530882669"><ele>1812.6666666666665</ele><time>2026-05-01T13:56:17.001Z</time></trkpt><trkpt lat="46.39538395366262" lon="10.067114037657388"><ele>1811.3333333333335</ele><time>2026-05-01T13:56:18.001Z</time></trkpt><trkpt lat="46.39523214385927" lon="10.06717818959693"><ele>1810.0</ele><time>2026-05-01T13:56:19.001Z</time></trkpt><trkpt lat="46.395074610566624" lon="10.067240172792118"><ele>1810.0</ele><time>2026-05-01T13:56:20.001Z</time></trkpt><trkpt lat="46.39491601042985" lon="10.067311298054332"><ele>1810.0</ele><time>2026-05-01T13:56:21.001Z</time></trkpt><trkpt lat="46.39476909346309" lon="10.06737730403487"><ele>1810.0</ele><time>2026-05-01T13:56:22.001Z</time></trkpt><trkpt lat="46.39463620025633" lon="10.067424315166623"><ele>1803.0</ele><time>2026-05-01T13:56:23.001Z</time></trkpt><trkpt lat="46.39450791326805" lon="10.067469121293543"><ele>1796.0</ele><time>2026-05-01T13:56:24.001Z</time></trkpt><trkpt lat="46.39438964484538" lon="10.067536138541037"><ele>1789.0</ele><time>2026-05-01T13:56:25.001Z</time></trkpt><trkpt lat="46.39428200985264" lon="10.067616982733691"><ele>1782.0</ele><time>2026-05-01T13:56:26.001Z</time></trkpt><trkpt lat="46.394185150850454" lon="10.067734503456585"><ele>1782.0</ele><time>2026-05-01T13:56:27.001Z</time></trkpt><trkpt lat="46.39410258433752" lon="10.067870306790835"><ele>1782.0</ele><time>2026-05-01T13:56:28.001Z</time></trkpt><trkpt lat="46.39403692639653" lon="10.068010002308057"><ele>1782.0</ele><time>2026-05-01T13:56:29.001Z</time></trkpt><trkpt lat="46.393967313868195" lon="10.068146445433884"><ele>1782.0</ele><time>2026-05-01T13:56:30.001Z</time></trkpt><trkpt lat="46.393902066684454" lon="10.06828129864765"><ele>1781.1999999999998</ele><time>2026-05-01T13:56:31.001Z</time></trkpt><trkpt lat="46.393845409118185" lon="10.068418549264942"><ele>1780.3999999999999</ele><time>2026-05-01T13:56:32.001Z</time></trkpt><trkpt lat="46.393813467102355" lon="10.068573767736657"><ele>1779.6000000000001</ele><time>2026-05-01T13:56:33.001Z</time></trkpt><trkpt lat="46.39380434528359" lon="10.068729586058573"><ele>1778.8000000000002</ele><time>2026-05-01T13:56:34.001Z</time></trkpt><trkpt lat="46.39380399244058" lon="10.06888127120863"><ele>1778.0</ele><time>2026-05-01T13:56:35.001Z</time></trkpt><trkpt lat="46.39380501826341" lon="10.069032049689294"><ele>1776.4</ele><time>2026-05-01T13:56:36.001Z</time></trkpt><trkpt lat="46.393815249720205" lon="10.06917400586179"><ele>1774.8000000000002</ele><time>2026-05-01T13:56:37.001Z</time></trkpt><trkpt lat="46.39384819973244" lon="10.069308950987644"><ele>1773.2</ele><time>2026-05-01T13:56:38.001Z</time></trkpt><trkpt lat="46.39391457041104" lon="10.06942275328345"><ele>1771.6</ele><time>2026-05-01T13:56:39.001Z</time></trkpt><trkpt lat="46.39399377125181" lon="10.069518799833398"><ele>1770.0</ele><time>2026-05-01T13:56:40.001Z</time></trkpt><trkpt lat="46.39408235355444" lon="10.069605675515765"><ele>1770.0</ele><time>2026-05-01T13:56:41.001Z</time></trkpt><trkpt lat="46.3941779946288" lon="10.069698682094513"><ele>1770.0</ele><time>2026-05-01T13:56:42.001Z</time></trkpt><trkpt lat="46.394295713843064" lon="10.069768232939394"><ele>1770.0</ele><time>2026-05-01T13:56:43.001Z</time></trkpt><trkpt lat="46.39444229489496" lon="10.069800743856272"><ele>1770.0</ele><time>2026-05-01T13:56:44.001Z</time></trkpt><trkpt lat="46.39459613957205" lon="10.069796915466862"><ele>1768.75</ele><time>2026-05-01T13:56:45.001Z</time></trkpt><trkpt lat="46.394742488057595" lon="10.069774887667274"><ele>1767.5</ele><time>2026-05-01T13:56:46.001Z</time></trkpt><trkpt lat="46.39488889265987" lon="10.069729513100008"><ele>1766.25</ele><time>2026-05-01T13:56:47.001Z</time></trkpt><trkpt lat="46.39502098292705" lon="10.069704151184375"><ele>1765.0</ele><time>2026-05-01T13:56:48.001Z</time></trkpt><trkpt lat="46.39512847881498" lon="10.069772652099092"><ele>1765.0</ele><time>2026-05-01T13:56:49.001Z</time></trkpt><trkpt lat="46.39520365949427" lon="10.069867724415241"><ele>1765.0</ele><time>2026-05-01T13:56:50.001Z</time></trkpt><trkpt lat="46.39524212042008" lon="10.069983758113025"><ele>1765.0</ele><time>2026-05-01T13:56:51.001Z</time></trkpt><trkpt lat="46.39524474900449" lon="10.070123534969628"><ele>1765.0</ele><time>2026-05-01T13:56:52.001Z</time></trkpt><trkpt lat="46.39518157902128" lon="10.070252182809147"><ele>1765.0</ele><time>2026-05-01T13:56:53.001Z</time></trkpt><trkpt lat="46.395082019512195" lon="10.070342836073028"><ele>1764.5</ele><time>2026-05-01T13:56:54.001Z</time></trkpt><trkpt lat="46.394979436408725" lon="10.070470958172846"><ele>1764.0</ele><time>2026-05-01T13:56:55.001Z</time></trkpt><trkpt lat="46.39485345899973" lon="10.070564646821063"><ele>1763.5</ele><time>2026-05-01T13:56:56.001Z</time></trkpt><trkpt lat="46.394725366474546" lon="10.070611958566674"><ele>1763.0</ele><time>2026-05-01T13:56:57.001Z</time></trkpt><trkpt lat="46.39458247260632" lon="10.070590713486796"><ele>1763.0</ele><time>2026-05-01T13:56:58.001Z</time></trkpt><trkpt lat="46.39444141422602" lon="10.070575827026866"><ele>1763.0</ele><time>2026-05-01T13:56:59.001Z</time></trkpt><trkpt lat="46.39431538727614" lon="10.070568408024439"><ele>1763.0</ele><time>2026-05-01T13:57:00.001Z</time></trkpt><trkpt lat="46.39419097965464" lon="10.070651178801086"><ele>1763.0</ele><time>2026-05-01T13:57:01.001Z</time></trkpt><trkpt lat="46.39406246049876" lon="10.070783550463608"><ele>1760.25</ele><time>2026-05-01T13:57:02.001Z</time></trkpt><trkpt lat="46.39395036654205" lon="10.070933265206644"><ele>1757.5</ele><time>2026-05-01T13:57:03.001Z</time></trkpt><trkpt lat="46.3938488837393" lon="10.07105694888316"><ele>1754.75</ele><time>2026-05-01T13:57:04.001Z</time></trkpt><trkpt lat="46.39376340210325" lon="10.071123005608616"><ele>1752.0</ele><time>2026-05-01T13:57:05.001Z</time></trkpt><trkpt lat="46.393689721504785" lon="10.071089826583934"><ele>1749.5</ele><time>2026-05-01T13:57:06.001Z</time></trkpt><trkpt lat="46.39359803682077" lon="10.071025274338899"><ele>1747.0</ele><time>2026-05-01T13:57:07.001Z</time></trkpt><trkpt lat="46.393510771074006" lon="10.070901742615968"><ele>1744.5</ele><time>2026-05-01T13:57:08.001Z</time></trkpt><trkpt lat="46.3934145251096" lon="10.070759058008965"><ele>1742.0</ele><time>2026-05-01T13:57:09.001Z</time></trkpt><trkpt lat="46.3933129713268" lon="10.070613024760055"><ele>1742.0</ele><time>2026-05-01T13:57:10.001Z</time></trkpt><trkpt lat="46.3931993925309" lon="10.070460974938758"><ele>1742.0</ele><time>2026-05-01T13:57:11.001Z</time></trkpt><trkpt lat="46.39307309398227" lon="10.070290474562386"><ele>1742.0</ele><time>2026-05-01T13:57:12.001Z</time></trkpt><trkpt lat="46.39295532700706" lon="10.07012006435089"><ele>1739.0</ele><time>2026-05-01T13:57:13.001Z</time></trkpt><trkpt lat="46.39285706738632" lon="10.069930896995846"><ele>1736.0</ele><time>2026-05-01T13:57:14.001Z</time></trkpt><trkpt lat="46.392755161108944" lon="10.069728535633192"><ele>1733.0</ele><time>2026-05-01T13:57:15.001Z</time></trkpt><trkpt lat="46.39265641459341" lon="10.06952440580371"><ele>1733.0</ele><time>2026-05-01T13:57:16.001Z</time></trkpt><trkpt lat="46.39256009815356" lon="10.06931026222754"><ele>1733.0</ele><time>2026-05-01T13:57:17.001Z</time></trkpt><trkpt lat="46.39247275720422" lon="10.069099104553304"><ele>1733.0</ele><time>2026-05-01T13:57:18.001Z</time></trkpt><trkpt lat="46.392406841308926" lon="10.06888281697288"><ele>1731.5</ele><time>2026-05-01T13:57:19.001Z</time></trkpt><trkpt lat="46.392359187961794" lon="10.068682528521721"><ele>1730.0</ele><time>2026-05-01T13:57:20.001Z</time></trkpt><trkpt lat="46.392326860775356" lon="10.06849160791157"><ele>1728.5</ele><time>2026-05-01T13:57:21.001Z</time></trkpt><trkpt lat="46.39230801969486" lon="10.06832394699571"><ele>1727.0</ele><time>2026-05-01T13:57:22.001Z</time></trkpt><trkpt lat="46.392278144059546" lon="10.068197238696163"><ele>1727.0</ele><time>2026-05-01T13:57:23.001Z</time></trkpt><trkpt lat="46.3922189775075" lon="10.068108241397397"><ele>1726.9999999999998</ele><time>2026-05-01T13:57:24.001Z</time></trkpt><trkpt lat="46.392117370627396" lon="10.068058259164758"><ele>1726.9999999999998</ele><time>2026-05-01T13:57:25.001Z</time></trkpt><trkpt lat="46.39199588627473" lon="10.068101989643962"><ele>1727.0</ele><time>2026-05-01T13:57:26.001Z</time></trkpt><trkpt lat="46.391877672376765" lon="10.068181159643945"><ele>1727.0</ele><time>2026-05-01T13:57:27.001Z</time></trkpt><trkpt lat="46.3917557603553" lon="10.068282828422843"><ele>1723.5</ele><time>2026-05-01T13:57:28.001Z</time></trkpt><trkpt lat="46.3916484699487" lon="10.068380090378104"><ele>1720.0</ele><time>2026-05-01T13:57:29.001Z</time></trkpt><trkpt lat="46.39156111829084" lon="10.068489727180726"><ele>1716.5</ele><time>2026-05-01T13:57:30.001Z</time></trkpt><trkpt lat="46.39149950566992" lon="10.0686423205379"><ele>1713.0</ele><time>2026-05-01T13:57:31.001Z</time></trkpt><trkpt lat="46.391473534645144" lon="10.068833043139534"><ele>1713.0</ele><time>2026-05-01T13:57:32.001Z</time></trkpt><trkpt lat="46.39146719450374" lon="10.069035644716491"><ele>1713.0</ele><time>2026-05-01T13:57:33.001Z</time></trkpt><trkpt lat="46.39148930590655" lon="10.069237593552403"><ele>1713.0</ele><time>2026-05-01T13:57:34.001Z</time></trkpt><trkpt lat="46.39156203309907" lon="10.069447122860307"><ele>1713.0</ele><time>2026-05-01T13:57:35.001Z</time></trkpt><trkpt lat="46.39163496752651" lon="10.069660439892786"><ele>1713.3333333333335</ele><time>2026-05-01T13:57:36.001Z</time></trkpt><trkpt lat="46.39167151599229" lon="10.069931605332673"><ele>1713.6666666666667</ele><time>2026-05-01T13:57:37.001Z</time></trkpt><trkpt lat="46.3916693848066" lon="10.070206550249647"><ele>1714.0</ele><time>2026-05-01T13:57:38.001Z</time></trkpt><trkpt lat="46.39170156546172" lon="10.070483886817964"><ele>1708.0</ele><time>2026-05-01T13:57:39.001Z</time></trkpt><trkpt lat="46.39174552989294" lon="10.070791383925458"><ele>1702.0</ele><time>2026-05-01T13:57:40.001Z</time></trkpt><trkpt lat="46.39178502686613" lon="10.071107170802385"><ele>1696.0</ele><time>2026-05-01T13:57:41.001Z</time></trkpt><trkpt lat="46.391800572418774" lon="10.07141507850472"><ele>1692.3333333333335</ele><time>2026-05-01T13:57:42.001Z</time></trkpt><trkpt lat="46.39180885963459" lon="10.071716910466094"><ele>1688.6666666666665</ele><time>2026-05-01T13:57:43.001Z</time></trkpt><trkpt lat="46.39182644162964" lon="10.072012394217191"><ele>1685.0</ele><time>2026-05-01T13:57:44.001Z</time></trkpt><trkpt lat="46.391863204380556" lon="10.07230923500569"><ele>1680.0</ele><time>2026-05-01T13:57:45.001Z</time></trkpt><trkpt lat="46.391900286063276" lon="10.072580395402865"><ele>1675.0</ele><time>2026-05-01T13:57:46.001Z</time></trkpt><trkpt lat="46.39193123817105" lon="10.072817174824944"><ele>1670.0</ele><time>2026-05-01T13:57:47.001Z</time></trkpt><trkpt lat="46.39195311306722" lon="10.073011645792388"><ele>1670.0</ele><time>2026-05-01T13:57:48.001Z</time></trkpt><trkpt lat="46.391974772335104" lon="10.073182210473274"><ele>1670.0</ele><time>2026-05-01T13:57:49.001Z</time></trkpt><trkpt lat="46.39201746378446" lon="10.073337608207646"><ele>1670.0</ele><time>2026-05-01T13:57:50.001Z</time></trkpt><trkpt lat="46.39209671367845" lon="10.073454121643872"><ele>1670.0</ele><time>2026-05-01T13:57:51.001Z</time></trkpt><trkpt lat="46.39221254763144" lon="10.073558833441686"><ele>1678.0</ele><time>2026-05-01T13:57:52.001Z</time></trkpt><trkpt lat="46.3923632001189" lon="10.07364086921449"><ele>1686.0</ele><time>2026-05-01T13:57:53.001Z</time></trkpt><trkpt lat="46.392501747416496" lon="10.07374515343814"><ele>1694.0</ele><time>2026-05-01T13:57:54.001Z</time></trkpt><trkpt lat="46.392625594886184" lon="10.07384947442383"><ele>1694.0</ele><time>2026-05-01T13:57:55.001Z</time></trkpt><trkpt lat="46.39272394656313" lon="10.073954492485631"><ele>1694.0</ele><time>2026-05-01T13:57:56.001Z</time></trkpt><trkpt lat="46.39278481106586" lon="10.074071053138217"><ele>1694.0</ele><time>2026-05-01T13:57:57.001Z</time></trkpt><trkpt lat="46.39282900500255" lon="10.074181799481838"><ele>1694.0</ele><time>2026-05-01T13:57:58.001Z</time></trkpt><trkpt lat="46.392806716480074" lon="10.07433922681843"><ele>1694.0</ele><time>2026-05-01T13:57:59.001Z</time></trkpt><trkpt lat="46.39273352022113" lon="10.074438759185128"><ele>1687.75</ele><time>2026-05-01T13:58:00.001Z</time></trkpt><trkpt lat="46.392683492276944" lon="10.074593444607586"><ele>1681.5</ele><time>2026-05-01T13:58:01.001Z</time></trkpt><trkpt lat="46.39259373761247" lon="10.074720180417614"><ele>1675.25</ele><time>2026-05-01T13:58:02.001Z</time></trkpt><trkpt lat="46.392509743041124" lon="10.074793765719258"><ele>1669.0</ele><time>2026-05-01T13:58:03.001Z</time></trkpt><trkpt lat="46.39239838721131" lon="10.07487276085597"><ele>1669.3333333333335</ele><time>2026-05-01T13:58:04.001Z</time></trkpt><trkpt lat="46.39221001564082" lon="10.075040969991088"><ele>1669.6666666666665</ele><time>2026-05-01T13:58:05.001Z</time></trkpt><trkpt lat="46.3920720665181" lon="10.075171095564075"><ele>1670.0</ele><time>2026-05-01T13:58:06.001Z</time></trkpt><trkpt lat="46.39194042771642" lon="10.07535354077508"><ele>1665.0</ele><time>2026-05-01T13:58:07.001Z</time></trkpt><trkpt lat="46.39185543646168" lon="10.075574192879218"><ele>1660.0</ele><time>2026-05-01T13:58:08.001Z</time></trkpt><trkpt lat="46.391814235277266" lon="10.07577255751087"><ele>1655.0</ele><time>2026-05-01T13:58:09.001Z</time></trkpt><trkpt lat="46.391767800216954" lon="10.076008490233752"><ele>1655.0</ele><time>2026-05-01T13:58:10.001Z</time></trkpt><trkpt lat="46.3917501077103" lon="10.07624027835674"><ele>1655.0</ele><time>2026-05-01T13:58:11.001Z</time></trkpt><trkpt lat="46.39170741662468" lon="10.076463675641737"><ele>1655.0</ele><time>2026-05-01T13:58:12.001Z</time></trkpt><trkpt lat="46.3916560224611" lon="10.076682206578882"><ele>1655.0</ele><time>2026-05-01T13:58:13.002Z</time></trkpt><trkpt lat="46.39158781119611" lon="10.076900389023876"><ele>1655.0</ele><time>2026-05-01T13:58:14.002Z</time></trkpt><trkpt lat="46.39150534840436" lon="10.077114614810322"><ele>1655.0</ele><time>2026-05-01T13:58:15.002Z</time></trkpt><trkpt lat="46.391405993855365" lon="10.077319513787238"><ele>1649.3333333333333</ele><time>2026-05-01T13:58:16.002Z</time></trkpt><trkpt lat="46.39129630281608" lon="10.077507957358119"><ele>1643.6666666666665</ele><time>2026-05-01T13:58:17.002Z</time></trkpt><trkpt lat="46.39116750895339" lon="10.07768751437056"><ele>1638.0</ele><time>2026-05-01T13:58:18.002Z</time></trkpt><trkpt lat="46.3910411702305" lon="10.077868765932392"><ele>1638.0</ele><time>2026-05-01T13:58:19.002Z</time></trkpt><trkpt lat="46.39094216396997" lon="10.078021895860443"><ele>1638.0</ele><time>2026-05-01T13:58:20.002Z</time></trkpt><trkpt lat="46.390881878509404" lon="10.078119451706089"><ele>1638.0</ele><time>2026-05-01T13:58:21.002Z</time></trkpt><trkpt lat="46.39078241198205" lon="10.078292965823692"><ele>1638.0</ele><time>2026-05-01T13:58:22.002Z</time></trkpt><trkpt lat="46.39068945558515" lon="10.078451050465562"><ele>1638.75</ele><time>2026-05-01T13:58:23.002Z</time></trkpt><trkpt lat="46.390606034154274" lon="10.078595779680377"><ele>1639.5</ele><time>2026-05-01T13:58:24.002Z</time></trkpt><trkpt lat="46.39050172355574" lon="10.078750957451287"><ele>1640.25</ele><time>2026-05-01T13:58:25.002Z</time></trkpt><trkpt lat="46.39038766046204" lon="10.07886774790783"><ele>1641.0</ele><time>2026-05-01T13:58:26.002Z</time></trkpt><trkpt lat="46.390258322956875" lon="10.078980866660086"><ele>1633.3333333333335</ele><time>2026-05-01T13:58:27.002Z</time></trkpt><trkpt lat="46.390124904261555" lon="10.079092770132382"><ele>1625.6666666666667</ele><time>2026-05-01T13:58:28.002Z</time></trkpt><trkpt lat="46.3899993162348" lon="10.079207888274016"><ele>1618.0</ele><time>2026-05-01T13:58:29.002Z</time></trkpt><trkpt lat="46.389873665490136" lon="10.079335048675501"><ele>1618.0</ele><time>2026-05-01T13:58:30.002Z</time></trkpt><trkpt lat="46.38975178569602" lon="10.079464491213205"><ele>1618.0</ele><time>2026-05-01T13:58:31.002Z</time></trkpt><trkpt lat="46.38963997850722" lon="10.079607104839294"><ele>1618.0</ele><time>2026-05-01T13:58:32.002Z</time></trkpt><trkpt lat="46.38953922026539" lon="10.079764068912842"><ele>1618.0</ele><time>2026-05-01T13:58:33.002Z</time></trkpt><trkpt lat="46.38944508100101" lon="10.079921628174256"><ele>1618.0</ele><time>2026-05-01T13:58:34.001Z</time></trkpt><trkpt lat="46.38935224063926" lon="10.080077780215648"><ele>1618.0</ele><time>2026-05-01T13:58:35.001Z</time></trkpt><trkpt lat="46.38922805059624" lon="10.080173230432438"><ele>1618.0</ele><time>2026-05-01T13:58:36.001Z</time></trkpt><trkpt lat="46.38909656805283" lon="10.080224327532514"><ele>1618.0</ele><time>2026-05-01T13:58:37.001Z</time></trkpt><trkpt lat="46.38896895985187" lon="10.08024478122362"><ele>1615.6666666666667</ele><time>2026-05-01T13:58:38.001Z</time></trkpt><trkpt lat="46.38881135290023" lon="10.080226900108993"><ele>1613.3333333333335</ele><time>2026-05-01T13:58:39.001Z</time></trkpt><trkpt lat="46.38863729058527" lon="10.080208395905872"><ele>1611.0</ele><time>2026-05-01T13:58:40.001Z</time></trkpt><trkpt lat="46.38847680094584" lon="10.080191334581869"><ele>1611.0</ele><time>2026-05-01T13:58:41.001Z</time></trkpt><trkpt lat="46.38823371350989" lon="10.080164748575505"><ele>1611.0</ele><time>2026-05-01T13:58:42.001Z</time></trkpt><trkpt lat="46.38799031502273" lon="10.080135825531006"><ele>1609.0</ele><time>2026-05-01T13:58:43.001Z</time></trkpt><trkpt lat="46.38776270415427" lon="10.080099011893012"><ele>1607.0</ele><time>2026-05-01T13:58:44.001Z</time></trkpt><trkpt lat="46.387542900857675" lon="10.08003149604734"><ele>1595.0</ele><time>2026-05-01T13:58:45.001Z</time></trkpt><trkpt lat="46.387330045715174" lon="10.079928179501373"><ele>1583.0</ele><time>2026-05-01T13:58:46.001Z</time></trkpt><trkpt lat="46.38711994302921" lon="10.079832175549098"><ele>1571.0</ele><time>2026-05-01T13:58:47.001Z</time></trkpt><trkpt lat="46.386914591159574" lon="10.079780894058159"><ele>1570.6666666666665</ele><time>2026-05-01T13:58:48.001Z</time></trkpt><trkpt lat="46.386709459502754" lon="10.079717591999165"><ele>1570.3333333333335</ele><time>2026-05-01T13:58:49.001Z</time></trkpt><trkpt lat="46.38649874832538" lon="10.079688684438171"><ele>1570.0</ele><time>2026-05-01T13:58:50.001Z</time></trkpt><trkpt lat="46.38631060192676" lon="10.079691074388554"><ele>1568.0</ele><time>2026-05-01T13:58:51.001Z</time></trkpt><trkpt lat="46.3861406064096" lon="10.079686883033963"><ele>1566.0</ele><time>2026-05-01T13:58:52.001Z</time></trkpt><trkpt lat="46.38598420071063" lon="10.079694977487842"><ele>1564.0</ele><time>2026-05-01T13:58:53.001Z</time></trkpt><trkpt lat="46.385836380946024" lon="10.079743692614587"><ele>1564.0</ele><time>2026-05-01T13:58:54.001Z</time></trkpt><trkpt lat="46.38571298367879" lon="10.079841553517873"><ele>1564.0</ele><time>2026-05-01T13:58:55.001Z</time></trkpt><trkpt lat="46.38561422966442" lon="10.07994606219262"><ele>1564.0</ele><time>2026-05-01T13:58:56.001Z</time></trkpt><trkpt lat="46.385527973207346" lon="10.08002161632857"><ele>1564.0</ele><time>2026-05-01T13:58:57.001Z</time></trkpt><trkpt lat="46.38542864886572" lon="10.080034700800763"><ele>1568.5</ele><time>2026-05-01T13:58:58.001Z</time></trkpt><trkpt lat="46.385337927670534" lon="10.079964786488436"><ele>1573.0</ele><time>2026-05-01T13:58:59.001Z</time></trkpt><trkpt lat="46.38525728397909" lon="10.079849500823075"><ele>1577.5</ele><time>2026-05-01T13:59:00.001Z</time></trkpt><trkpt lat="46.38516509129812" lon="10.07971986088188"><ele>1582.0</ele><time>2026-05-01T13:59:01.001Z</time></trkpt><trkpt lat="46.38506448326564" lon="10.079585561243766"><ele>1582.0</ele><time>2026-05-01T13:59:02.001Z</time></trkpt><trkpt lat="46.384979379934045" lon="10.079424325970544"><ele>1582.0</ele><time>2026-05-01T13:59:03.001Z</time></trkpt><trkpt lat="46.38492292037977" lon="10.079238602623024"><ele>1582.0</ele><time>2026-05-01T13:59:04.001Z</time></trkpt><trkpt lat="46.38487190946501" lon="10.07900710333939"><ele>1582.0</ele><time>2026-05-01T13:59:05.001Z</time></trkpt><trkpt lat="46.384857776772606" lon="10.078736731846822"><ele>1579.3333333333335</ele><time>2026-05-01T13:59:06.001Z</time></trkpt><trkpt lat="46.38479441365696" lon="10.07849648285674"><ele>1576.6666666666665</ele><time>2026-05-01T13:59:07.001Z</time></trkpt><trkpt lat="46.384730475075926" lon="10.078295009715688"><ele>1574.0</ele><time>2026-05-01T13:59:08.001Z</time></trkpt><trkpt lat="46.38465416576802" lon="10.078133327735717"><ele>1573.9999999999998</ele><time>2026-05-01T13:59:09.001Z</time></trkpt><trkpt lat="46.38458035342616" lon="10.078010442566399"><ele>1574.0</ele><time>2026-05-01T13:59:10.001Z</time></trkpt><trkpt lat="46.38452582266509" lon="10.077891278678003"><ele>1574.0</ele><time>2026-05-01T13:59:11.001Z</time></trkpt><trkpt lat="46.384478285005464" lon="10.077821653110554"><ele>1574.0</ele><time>2026-05-01T13:59:12.001Z</time></trkpt><trkpt lat="46.38442487592747" lon="10.077740873566217"><ele>1573.9999999999998</ele><time>2026-05-01T13:59:13.001Z</time></trkpt><trkpt lat="46.38437825438268" lon="10.077664740926522"><ele>1574.0</ele><time>2026-05-01T13:59:14.001Z</time></trkpt><trkpt lat="46.38439098768519" lon="10.077543055811473"><ele>1573.9999999999998</ele><time>2026-05-01T13:59:16.001Z</time></trkpt><trkpt lat="46.38431248901528" lon="10.077457552555183"><ele>1574.0</ele><time>2026-05-01T13:59:57.001Z</time></trkpt><trkpt lat="46.38426901207831" lon="10.077352664803122"><ele>1574.0</ele><time>2026-05-01T13:59:59.001Z</time></trkpt><trkpt lat="46.384250849997606" lon="10.077257614557434"><ele>1574.0</ele><time>2026-05-01T14:00:00.001Z</time></trkpt><trkpt lat="46.38424343803301" lon="10.077150663162472"><ele>1573.9999999999998</ele><time>2026-05-01T14:00:01.001Z</time></trkpt><trkpt lat="46.38423323289562" lon="10.07701495867311"><ele>1574.0</ele><time>2026-05-01T14:00:02.001Z</time></trkpt><trkpt lat="46.38425915979585" lon="10.076896970536925"><ele>1570.4</ele><time>2026-05-01T14:00:03.001Z</time></trkpt><trkpt lat="46.384290460940115" lon="10.076765052948334"><ele>1566.8000000000002</ele><time>2026-05-01T14:00:04.001Z</time></trkpt><trkpt lat="46.38433563207867" lon="10.07662035093784"><ele>1563.1999999999998</ele><time>2026-05-01T14:00:05.001Z</time></trkpt><trkpt lat="46.38438100310792" lon="10.076457556513244"><ele>1559.6</ele><time>2026-05-01T14:00:06.001Z</time></trkpt><trkpt lat="46.38440912113747" lon="10.076323929729295"><ele>1556.0</ele><time>2026-05-01T14:00:07.001Z</time></trkpt><trkpt lat="46.38441564545047" lon="10.076086445866963"><ele>1555.75</ele><time>2026-05-01T14:00:09.001Z</time></trkpt><trkpt lat="46.38436357143119" lon="10.075862775388467"><ele>1555.5</ele><time>2026-05-01T14:00:10.001Z</time></trkpt><trkpt lat="46.38432823579897" lon="10.075718586705722"><ele>1555.25</ele><time>2026-05-01T14:00:11.001Z</time></trkpt><trkpt lat="46.38424162331052" lon="10.075559758997686"><ele>1555.0</ele><time>2026-05-01T14:00:12.001Z</time></trkpt><trkpt lat="46.38416468221564" lon="10.075388713038341"><ele>1552.5</ele><time>2026-05-01T14:00:13.001Z</time></trkpt><trkpt lat="46.38412707149939" lon="10.075212847196093"><ele>1550.0</ele><time>2026-05-01T14:00:14.001Z</time></trkpt><trkpt lat="46.384066408794595" lon="10.075047131890361"><ele>1547.5</ele><time>2026-05-01T14:00:15.001Z</time></trkpt><trkpt lat="46.384010173798224" lon="10.074894361836813"><ele>1545.0</ele><time>2026-05-01T14:00:16.001Z</time></trkpt><trkpt lat="46.38395507756232" lon="10.074742200789332"><ele>1545.75</ele><time>2026-05-01T14:00:17.001Z</time></trkpt><trkpt lat="46.38389861385744" lon="10.074584138995196"><ele>1546.5</ele><time>2026-05-01T14:00:18.001Z</time></trkpt><trkpt lat="46.383809983662466" lon="10.074465804553174"><ele>1547.25</ele><time>2026-05-01T14:00:19.002Z</time></trkpt><trkpt lat="46.38372247253755" lon="10.07435179845065"><ele>1548.0</ele><time>2026-05-01T14:00:20.002Z</time></trkpt><trkpt lat="46.383615410330215" lon="10.074262896939928"><ele>1548.0</ele><time>2026-05-01T14:00:21.002Z</time></trkpt><trkpt lat="46.38349160930367" lon="10.07417736533167"><ele>1548.0</ele><time>2026-05-01T14:00:22.002Z</time></trkpt><trkpt lat="46.3833426497574" lon="10.074088293281584"><ele>1548.0</ele><time>2026-05-01T14:00:23.002Z</time></trkpt><trkpt lat="46.38318776325167" lon="10.073994059958096"><ele>1536.3333333333333</ele><time>2026-05-01T14:00:24.002Z</time></trkpt><trkpt lat="46.383023439624715" lon="10.073904749399432"><ele>1524.6666666666665</ele><time>2026-05-01T14:00:25.002Z</time></trkpt><trkpt lat="46.38286767418883" lon="10.073858688756697"><ele>1513.0</ele><time>2026-05-01T14:00:26.002Z</time></trkpt><trkpt lat="46.382711961866086" lon="10.0737925406311"><ele>1513.0</ele><time>2026-05-01T14:00:27.002Z</time></trkpt><trkpt lat="46.38254656380766" lon="10.073800858918636"><ele>1513.0</ele><time>2026-05-01T14:00:28.002Z</time></trkpt><trkpt lat="46.382383260225964" lon="10.073870155276483"><ele>1513.0</ele><time>2026-05-01T14:00:29.002Z</time></trkpt><trkpt lat="46.38222719924876" lon="10.073973515661306"><ele>1505.3333333333333</ele><time>2026-05-01T14:00:30.002Z</time></trkpt><trkpt lat="46.382102474846356" lon="10.074048557415663"><ele>1497.6666666666667</ele><time>2026-05-01T14:00:31.002Z</time></trkpt><trkpt lat="46.38194825720035" lon="10.074084393498701"><ele>1490.0</ele><time>2026-05-01T14:00:32.002Z</time></trkpt><trkpt lat="46.38177143044505" lon="10.074092623593685"><ele>1508.5</ele><time>2026-05-01T14:00:33.002Z</time></trkpt><trkpt lat="46.3814904516216" lon="10.074112171081493"><ele>1527.0</ele><time>2026-05-01T14:00:34.002Z</time></trkpt><trkpt lat="46.381188907646006" lon="10.074112373595296"><ele>1516.6666666666667</ele><time>2026-05-01T14:00:35.002Z</time></trkpt><trkpt lat="46.3811091623679" lon="10.07400760871352"><ele>1506.3333333333335</ele><time>2026-05-01T14:00:36.002Z</time></trkpt><trkpt lat="46.380910230101904" lon="10.073913150025243"><ele>1496.0</ele><time>2026-05-01T14:00:37.002Z</time></trkpt><trkpt lat="46.380721170991684" lon="10.073808279812987"><ele>1496.0</ele><time>2026-05-01T14:00:38.001Z</time></trkpt><trkpt lat="46.38053674248345" lon="10.073693017179096"><ele>1496.0</ele><time>2026-05-01T14:00:39.001Z</time></trkpt><trkpt lat="46.38034815862947" lon="10.073581027415228"><ele>1496.0</ele><time>2026-05-01T14:00:40.001Z</time></trkpt><trkpt lat="46.38016101253179" lon="10.073465006795915"><ele>1490.3333333333335</ele><time>2026-05-01T14:00:41.001Z</time></trkpt><trkpt lat="46.37997522519884" lon="10.07333989108955"><ele>1484.6666666666667</ele><time>2026-05-01T14:00:42.001Z</time></trkpt><trkpt lat="46.37981702206233" lon="10.073201828871374"><ele>1479.0</ele><time>2026-05-01T14:00:43.001Z</time></trkpt><trkpt lat="46.37968991055485" lon="10.07306490706875"><ele>1488.2</ele><time>2026-05-01T14:00:44.001Z</time></trkpt><trkpt lat="46.37960419019784" lon="10.072911681425886"><ele>1497.4</ele><time>2026-05-01T14:00:45.001Z</time></trkpt><trkpt lat="46.3795283608643" lon="10.0727796944927"><ele>1506.6</ele><time>2026-05-01T14:00:46.001Z</time></trkpt><trkpt lat="46.37946746451548" lon="10.072650751052956"><ele>1515.8</ele><time>2026-05-01T14:00:47.001Z</time></trkpt><trkpt lat="46.379435445382796" lon="10.072549500965014"><ele>1525.0</ele><time>2026-05-01T14:00:48.001Z</time></trkpt><trkpt lat="46.379409870515026" lon="10.072461537164816"><ele>1519.8333333333333</ele><time>2026-05-01T14:00:49.001Z</time></trkpt><trkpt lat="46.3793842462735" lon="10.072366362480851"><ele>1514.6666666666665</ele><time>2026-05-01T14:00:52.001Z</time></trkpt><trkpt lat="46.379358540661414" lon="10.072269561227662"><ele>1509.5</ele><time>2026-05-01T14:01:31.001Z</time></trkpt><trkpt lat="46.37932835161417" lon="10.072152238021834"><ele>1504.3333333333333</ele><time>2026-05-01T14:01:32.001Z</time></trkpt><trkpt lat="46.37930158321023" lon="10.072040937297206"><ele>1499.1666666666667</ele><time>2026-05-01T14:01:33.001Z</time></trkpt><trkpt lat="46.379269836003424" lon="10.071918481060028"><ele>1494.0</ele><time>2026-05-01T14:01:34.001Z</time></trkpt><trkpt lat="46.37922948643524" lon="10.071804415606042"><ele>1494.0</ele><time>2026-05-01T14:01:35.001Z</time></trkpt><trkpt lat="46.37917641245646" lon="10.071690356993921"><ele>1494.0</ele><time>2026-05-01T14:01:36.001Z</time></trkpt><trkpt lat="46.37911430742828" lon="10.071587430223502"><ele>1494.0</ele><time>2026-05-01T14:01:37.001Z</time></trkpt><trkpt lat="46.37904288663525" lon="10.07149686868836"><ele>1494.0</ele><time>2026-05-01T14:01:38.001Z</time></trkpt><trkpt lat="46.3789542401576" lon="10.071402401308589"><ele>1494.0</ele><time>2026-05-01T14:01:39.001Z</time></trkpt><trkpt lat="46.378847518728115" lon="10.07131287897361"><ele>1492.25</ele><time>2026-05-01T14:01:40Z</time></trkpt><trkpt lat="46.37873408489009" lon="10.071245176730546"><ele>1490.5</ele><time>2026-05-01T14:01:41Z</time></trkpt><trkpt lat="46.378661233931474" lon="10.071132840079496"><ele>1488.75</ele><time>2026-05-01T14:01:42Z</time></trkpt><trkpt lat="46.37858008648087" lon="10.071023225574084"><ele>1487.0</ele><time>2026-05-01T14:01:43Z</time></trkpt><trkpt lat="46.378492423808105" lon="10.070916930842607"><ele>1487.0</ele><time>2026-05-01T14:01:44Z</time></trkpt><trkpt lat="46.3783903389558" lon="10.070851832283596"><ele>1487.0</ele><time>2026-05-01T14:01:45Z</time></trkpt><trkpt lat="46.378286458976774" lon="10.07080935926155"><ele>1487.0</ele><time>2026-05-01T14:01:46Z</time></trkpt><trkpt lat="46.37817694111583" lon="10.070781282414652"><ele>1487.0</ele><time>2026-05-01T14:01:47Z</time></trkpt><trkpt lat="46.37807109689916" lon="10.070763542701735"><ele>1487.0</ele><time>2026-05-01T14:01:48Z</time></trkpt><trkpt lat="46.37797494514604" lon="10.070707820609156"><ele>1485.25</ele><time>2026-05-01T14:01:49Z</time></trkpt><trkpt lat="46.37788487203468" lon="10.070625556432997"><ele>1483.5</ele><time>2026-05-01T14:01:50Z</time></trkpt><trkpt lat="46.37780493837208" lon="10.070510990952581"><ele>1481.75</ele><time>2026-05-01T14:01:51Z</time></trkpt><trkpt lat="46.37774029744773" lon="10.070316656195745"><ele>1480.0</ele><time>2026-05-01T14:01:52Z</time></trkpt><trkpt lat="46.377715649900175" lon="10.070142013734648"><ele>1480.0</ele><time>2026-05-01T14:01:53Z</time></trkpt><trkpt lat="46.377679298887585" lon="10.069977072305923"><ele>1480.0</ele><time>2026-05-01T14:01:54Z</time></trkpt><trkpt lat="46.37759706296089" lon="10.069831741707072"><ele>1480.0</ele><time>2026-05-01T14:01:55Z</time></trkpt><trkpt lat="46.377490975819796" lon="10.069703217269623"><ele>1480.0</ele><time>2026-05-01T14:01:56Z</time></trkpt><trkpt lat="46.377339953568175" lon="10.069622404746307"><ele>1477.3333333333333</ele><time>2026-05-01T14:01:57Z</time></trkpt><trkpt lat="46.377168374590646" lon="10.069567497207794"><ele>1474.6666666666667</ele><time>2026-05-01T14:01:58Z</time></trkpt><trkpt lat="46.37700006664397" lon="10.069511042453177"><ele>1472.0</ele><time>2026-05-01T14:01:59Z</time></trkpt><trkpt lat="46.376830955116" lon="10.069420096288459"><ele>1472.0</ele><time>2026-05-01T14:02:00Z</time></trkpt><trkpt lat="46.37668674512272" lon="10.069237303090112"><ele>1472.0</ele><time>2026-05-01T14:02:01Z</time></trkpt><trkpt lat="46.37655889395795" lon="10.069032036014109"><ele>1472.0</ele><time>2026-05-01T14:02:02Z</time></trkpt><trkpt lat="46.3764118407838" lon="10.068837102668928"><ele>1461.5</ele><time>2026-05-01T14:02:03Z</time></trkpt><trkpt lat="46.37619984165397" lon="10.0686724620528"><ele>1451.0</ele><time>2026-05-01T14:02:04Z</time></trkpt><trkpt lat="46.37599070225412" lon="10.068555898299696"><ele>1451.0</ele><time>2026-05-01T14:02:05Z</time></trkpt><trkpt lat="46.37582711214385" lon="10.068478045033505"><ele>1451.0</ele><time>2026-05-01T14:02:06Z</time></trkpt><trkpt lat="46.37561783672713" lon="10.068357462214916"><ele>1451.0</ele><time>2026-05-01T14:02:07Z</time></trkpt><trkpt lat="46.37540875610352" lon="10.068266809385324"><ele>1431.6666666666667</ele><time>2026-05-01T14:02:08Z</time></trkpt><trkpt lat="46.375207046405855" lon="10.068219480581977"><ele>1412.3333333333333</ele><time>2026-05-01T14:02:09Z</time></trkpt><trkpt lat="46.37503754209108" lon="10.068168747659175"><ele>1393.0</ele><time>2026-05-01T14:02:10Z</time></trkpt><trkpt lat="46.374889479471506" lon="10.068153265819527"><ele>1393.0</ele><time>2026-05-01T14:02:11Z</time></trkpt><trkpt lat="46.374738166734545" lon="10.068167967488188"><ele>1393.0</ele><time>2026-05-01T14:02:12Z</time></trkpt><trkpt lat="46.37458382187352" lon="10.06823882733323"><ele>1393.0</ele><time>2026-05-01T14:02:13Z</time></trkpt><trkpt lat="46.37442802570077" lon="10.068382992910644"><ele>1406.3333333333333</ele><time>2026-05-01T14:02:14Z</time></trkpt><trkpt lat="46.37426961931053" lon="10.068542592862192"><ele>1419.6666666666667</ele><time>2026-05-01T14:02:15Z</time></trkpt><trkpt lat="46.37411050287969" lon="10.068661393996063"><ele>1433.0</ele><time>2026-05-01T14:02:16Z</time></trkpt><trkpt lat="46.37390563688158" lon="10.068734704394169"><ele>1422.5</ele><time>2026-05-01T14:02:17Z</time></trkpt><trkpt lat="46.37365876780962" lon="10.068823531589608"><ele>1412.0</ele><time>2026-05-01T14:02:18Z</time></trkpt><trkpt lat="46.373430951459945" lon="10.068840476212488"><ele>1412.0</ele><time>2026-05-01T14:02:19Z</time></trkpt><trkpt lat="46.37322377135374" lon="10.068880616448387"><ele>1412.0</ele><time>2026-05-01T14:02:20Z</time></trkpt><trkpt lat="46.37301380468022" lon="10.068996334842975"><ele>1412.0</ele><time>2026-05-01T14:02:21Z</time></trkpt><trkpt lat="46.372778470467395" lon="10.06910877909539"><ele>1414.3333333333335</ele><time>2026-05-01T14:02:22Z</time></trkpt><trkpt lat="46.372560548339145" lon="10.069187932869388"><ele>1416.6666666666667</ele><time>2026-05-01T14:02:23Z</time></trkpt><trkpt lat="46.372349892942566" lon="10.069279931623619"><ele>1419.0</ele><time>2026-05-01T14:02:24Z</time></trkpt><trkpt lat="46.3721440417929" lon="10.06937400398633"><ele>1411.0</ele><time>2026-05-01T14:02:25.002Z</time></trkpt><trkpt lat="46.371938295414004" lon="10.069474259958094"><ele>1403.0</ele><time>2026-05-01T14:02:26.002Z</time></trkpt><trkpt lat="46.371738930919896" lon="10.069576352102006"><ele>1395.0</ele><time>2026-05-01T14:02:27.002Z</time></trkpt><trkpt lat="46.37154293263823" lon="10.069667962418334"><ele>1395.0</ele><time>2026-05-01T14:02:28.002Z</time></trkpt><trkpt lat="46.37137346396848" lon="10.069804193033468"><ele>1395.0</ele><time>2026-05-01T14:02:29.002Z</time></trkpt><trkpt lat="46.37121572922594" lon="10.069966510249913"><ele>1395.0</ele><time>2026-05-01T14:02:30.002Z</time></trkpt><trkpt lat="46.371075185456036" lon="10.070162018003167"><ele>1396.0</ele><time>2026-05-01T14:02:31.002Z</time></trkpt><trkpt lat="46.37094962069006" lon="10.070390127307922"><ele>1397.0</ele><time>2026-05-01T14:02:32.002Z</time></trkpt><trkpt lat="46.370824824643655" lon="10.07060771989906"><ele>1398.0</ele><time>2026-05-01T14:02:33.001Z</time></trkpt><trkpt lat="46.370677389299594" lon="10.070797900925538"><ele>1396.6666666666667</ele><time>2026-05-01T14:02:34.001Z</time></trkpt><trkpt lat="46.370501071323616" lon="10.070907501314204"><ele>1395.3333333333335</ele><time>2026-05-01T14:02:35.001Z</time></trkpt><trkpt lat="46.37030359027183" lon="10.070997440261184"><ele>1394.0</ele><time>2026-05-01T14:02:36.001Z</time></trkpt><trkpt lat="46.370105618638014" lon="10.07110170351521"><ele>1394.0</ele><time>2026-05-01T14:02:37.001Z</time></trkpt><trkpt lat="46.36990894834296" lon="10.071180905996874"><ele>1394.0</ele><time>2026-05-01T14:02:38.001Z</time></trkpt><trkpt lat="46.36973275085568" lon="10.071282249527176"><ele>1394.0</ele><time>2026-05-01T14:02:39.001Z</time></trkpt><trkpt lat="46.369559897906434" lon="10.071382013837628"><ele>1392.6666666666667</ele><time>2026-05-01T14:02:40.001Z</time></trkpt><trkpt lat="46.36939641436693" lon="10.071498225950963"><ele>1391.3333333333333</ele><time>2026-05-01T14:02:41.001Z</time></trkpt><trkpt lat="46.36924603703591" lon="10.071648756190006"><ele>1390.0</ele><time>2026-05-01T14:02:42.001Z</time></trkpt><trkpt lat="46.36909639268546" lon="10.071870442903768"><ele>1390.0</ele><time>2026-05-01T14:02:43.001Z</time></trkpt><trkpt lat="46.36895397222815" lon="10.07210247254056"><ele>1390.0</ele><time>2026-05-01T14:02:44.001Z</time></trkpt><trkpt lat="46.368798799098734" lon="10.072310184144115"><ele>1390.0</ele><time>2026-05-01T14:02:45.001Z</time></trkpt><trkpt lat="46.3686419626148" lon="10.072491250651616"><ele>1383.3333333333333</ele><time>2026-05-01T14:02:46.001Z</time></trkpt><trkpt lat="46.36846399736278" lon="10.072603294443214"><ele>1376.6666666666667</ele><time>2026-05-01T14:02:47.001Z</time></trkpt><trkpt lat="46.368319424391444" lon="10.072754458124315"><ele>1370.0</ele><time>2026-05-01T14:02:48.001Z</time></trkpt><trkpt lat="46.36818955688375" lon="10.072907892502323"><ele>1370.0</ele><time>2026-05-01T14:02:49.001Z</time></trkpt><trkpt lat="46.368079895288965" lon="10.073162883710516"><ele>1370.0</ele><time>2026-05-01T14:02:50.001Z</time></trkpt><trkpt lat="46.367937698589294" lon="10.073467209928967"><ele>1366.3333333333335</ele><time>2026-05-01T14:02:51.001Z</time></trkpt><trkpt lat="46.36780632584237" lon="10.073725773246888"><ele>1362.6666666666667</ele><time>2026-05-01T14:02:52.001Z</time></trkpt><trkpt lat="46.3677608154535" lon="10.073875022822696"><ele>1359.0</ele><time>2026-05-01T14:02:53.001Z</time></trkpt><trkpt lat="46.36762620324069" lon="10.07401162521611"><ele>1358.0</ele><time>2026-05-01T14:02:54.001Z</time></trkpt><trkpt lat="46.36743243779982" lon="10.074153731571485"><ele>1357.0</ele><time>2026-05-01T14:02:55.001Z</time></trkpt><trkpt lat="46.36723871090189" lon="10.0742393630658"><ele>1356.0</ele><time>2026-05-01T14:02:56.001Z</time></trkpt><trkpt lat="46.36702734414934" lon="10.074330576467956"><ele>1356.0</ele><time>2026-05-01T14:02:57.001Z</time></trkpt><trkpt lat="46.366820509854456" lon="10.074420271988846"><ele>1356.0</ele><time>2026-05-01T14:02:58.001Z</time></trkpt><trkpt lat="46.36661786754285" lon="10.074546641298177"><ele>1356.0</ele><time>2026-05-01T14:02:59.001Z</time></trkpt><trkpt lat="46.3664097524257" lon="10.074698491931597"><ele>1352.0</ele><time>2026-05-01T14:03:00.001Z</time></trkpt><trkpt lat="46.366221668756" lon="10.074890504820315"><ele>1348.0</ele><time>2026-05-01T14:03:01.001Z</time></trkpt><trkpt lat="46.36603884922132" lon="10.075087747236596"><ele>1348.0</ele><time>2026-05-01T14:03:02.001Z</time></trkpt><trkpt lat="46.36582082016067" lon="10.075202698796295"><ele>1348.0</ele><time>2026-05-01T14:03:03.001Z</time></trkpt><trkpt lat="46.36560077863501" lon="10.075304375284407"><ele>1335.0</ele><time>2026-05-01T14:03:04.001Z</time></trkpt><trkpt lat="46.36538787409541" lon="10.075444493082426"><ele>1322.0</ele><time>2026-05-01T14:03:05Z</time></trkpt><trkpt lat="46.36517477944185" lon="10.075555588964074"><ele>1322.0</ele><time>2026-05-01T14:03:06Z</time></trkpt><trkpt lat="46.364988926954624" lon="10.075714608880881"><ele>1322.0</ele><time>2026-05-01T14:03:07Z</time></trkpt><trkpt lat="46.36481718182916" lon="10.075897813767922"><ele>1322.0</ele><time>2026-05-01T14:03:08Z</time></trkpt><trkpt lat="46.364630817025855" lon="10.076008907707967"><ele>1323.0</ele><time>2026-05-01T14:03:09Z</time></trkpt><trkpt lat="46.36443091427213" lon="10.076104064955594"><ele>1324.0</ele><time>2026-05-01T14:03:10Z</time></trkpt><trkpt lat="46.36422828690985" lon="10.076200277532854"><ele>1325.0</ele><time>2026-05-01T14:03:11Z</time></trkpt><trkpt lat="46.36402368134132" lon="10.076305033717206"><ele>1328.3333333333335</ele><time>2026-05-01T14:03:12Z</time></trkpt><trkpt lat="46.363811978259044" lon="10.076394942940391"><ele>1331.6666666666667</ele><time>2026-05-01T14:03:13Z</time></trkpt><trkpt lat="46.363601898951806" lon="10.076501702716198"><ele>1335.0</ele><time>2026-05-01T14:03:14Z</time></trkpt><trkpt lat="46.36338357579166" lon="10.07660898500864"><ele>1335.0</ele><time>2026-05-01T14:03:15Z</time></trkpt><trkpt lat="46.36316748810262" lon="10.076713706994783"><ele>1335.0</ele><time>2026-05-01T14:03:16Z</time></trkpt><trkpt lat="46.36295475378965" lon="10.07684185317603"><ele>1323.6666666666667</ele><time>2026-05-01T14:03:17Z</time></trkpt><trkpt lat="46.362746144889336" lon="10.076967499947067"><ele>1312.3333333333335</ele><time>2026-05-01T14:03:18Z</time></trkpt><trkpt lat="46.36254174428463" lon="10.077084609673458"><ele>1301.0</ele><time>2026-05-01T14:03:19Z</time></trkpt><trkpt lat="46.36234711569524" lon="10.07718296582535"><ele>1302.6666666666667</ele><time>2026-05-01T14:03:20Z</time></trkpt><trkpt lat="46.36216461501942" lon="10.077283797834514"><ele>1304.3333333333333</ele><time>2026-05-01T14:03:21Z</time></trkpt><trkpt lat="46.361986446985384" lon="10.077379787607155"><ele>1306.0</ele><time>2026-05-01T14:03:22Z</time></trkpt><trkpt lat="46.36181453915137" lon="10.077451050346545"><ele>1306.0</ele><time>2026-05-01T14:03:23Z</time></trkpt><trkpt lat="46.361647825472616" lon="10.077504966747957"><ele>1306.0</ele><time>2026-05-01T14:03:24Z</time></trkpt><trkpt lat="46.36148222421541" lon="10.077565721915326"><ele>1306.0</ele><time>2026-05-01T14:03:25Z</time></trkpt><trkpt lat="46.36132517337911" lon="10.077677449727052"><ele>1295.0</ele><time>2026-05-01T14:03:26Z</time></trkpt><trkpt lat="46.3612015431625" lon="10.077825429131293"><ele>1284.0</ele><time>2026-05-01T14:03:27Z</time></trkpt><trkpt lat="46.36110848813722" lon="10.07800488930906"><ele>1273.0</ele><time>2026-05-01T14:03:28Z</time></trkpt><trkpt lat="46.361029205967505" lon="10.078177413529959"><ele>1282.3333333333333</ele><time>2026-05-01T14:03:29Z</time></trkpt><trkpt lat="46.36094366634336" lon="10.078334947875364"><ele>1291.6666666666667</ele><time>2026-05-01T14:03:30Z</time></trkpt><trkpt lat="46.36080724502431" lon="10.078390059792417"><ele>1301.0</ele><time>2026-05-01T14:03:31Z</time></trkpt><trkpt lat="46.36063893759816" lon="10.078433814534607"><ele>1296.0</ele><time>2026-05-01T14:03:32Z</time></trkpt><trkpt lat="46.36047883351667" lon="10.078481539707699"><ele>1291.0</ele><time>2026-05-01T14:03:33Z</time></trkpt><trkpt lat="46.360325428781614" lon="10.078500687701597"><ele>1286.0</ele><time>2026-05-01T14:03:34Z</time></trkpt><trkpt lat="46.36018026487906" lon="10.078483155191408"><ele>1286.0</ele><time>2026-05-01T14:03:35Z</time></trkpt><trkpt lat="46.360026832629124" lon="10.078422323106755"><ele>1286.0</ele><time>2026-05-01T14:03:36Z</time></trkpt><trkpt lat="46.35987434500297" lon="10.07839221335736"><ele>1286.0</ele><time>2026-05-01T14:03:37Z</time></trkpt><trkpt lat="46.35972406357323" lon="10.078416715773399"><ele>1283.3333333333335</ele><time>2026-05-01T14:03:38Z</time></trkpt><trkpt lat="46.35957355475392" lon="10.078449959299073"><ele>1280.6666666666667</ele><time>2026-05-01T14:03:39Z</time></trkpt><trkpt lat="46.35942511415474" lon="10.078497435323298"><ele>1278.0</ele><time>2026-05-01T14:03:40Z</time></trkpt><trkpt lat="46.359273030935235" lon="10.078492351082302"><ele>1278.0</ele><time>2026-05-01T14:03:41Z</time></trkpt><trkpt lat="46.35912561924638" lon="10.078478162829107"><ele>1278.0</ele><time>2026-05-01T14:03:42Z</time></trkpt><trkpt lat="46.35897517308591" lon="10.078473196762921"><ele>1278.0</ele><time>2026-05-01T14:03:43Z</time></trkpt><trkpt lat="46.358827610193366" lon="10.078449305085252"><ele>1278.0</ele><time>2026-05-01T14:03:44Z</time></trkpt><trkpt lat="46.35870463052283" lon="10.078465173356953"><ele>1281.0</ele><time>2026-05-01T14:03:45Z</time></trkpt><trkpt lat="46.35859055765209" lon="10.078469199416855"><ele>1284.0</ele><time>2026-05-01T14:03:46Z</time></trkpt><trkpt lat="46.35849298924621" lon="10.078404152150808"><ele>1287.0</ele><time>2026-05-01T14:03:47Z</time></trkpt><trkpt lat="46.3584269617659" lon="10.07828994448704"><ele>1290.0</ele><time>2026-05-01T14:03:48Z</time></trkpt><trkpt lat="46.358367994588725" lon="10.078165015128885"><ele>1293.0</ele><time>2026-05-01T14:03:49Z</time></trkpt><trkpt lat="46.358305313512716" lon="10.078039012126794"><ele>1284.4</ele><time>2026-05-01T14:03:50Z</time></trkpt><trkpt lat="46.35824116829719" lon="10.077913689879628"><ele>1275.8000000000002</ele><time>2026-05-01T14:03:51Z</time></trkpt><trkpt lat="46.35817340525835" lon="10.077792863096708"><ele>1267.2</ele><time>2026-05-01T14:03:52Z</time></trkpt><trkpt lat="46.35810038109285" lon="10.07770666160459"><ele>1258.6</ele><time>2026-05-01T14:03:53Z</time></trkpt><trkpt lat="46.35802658591759" lon="10.077639131188318"><ele>1250.0</ele><time>2026-05-01T14:03:54Z</time></trkpt><trkpt lat="46.35795574908085" lon="10.077592756013953"><ele>1250.0</ele><time>2026-05-01T14:03:55Z</time></trkpt><trkpt lat="46.35786694829349" lon="10.077607630375475"><ele>1250.0</ele><time>2026-05-01T14:03:56Z</time></trkpt><trkpt lat="46.357785309619594" lon="10.077618983638104"><ele>1250.0</ele><time>2026-05-01T14:03:57Z</time></trkpt><trkpt lat="46.35770634328262" lon="10.077636402872937"><ele>1250.0</ele><time>2026-05-01T14:03:58Z</time></trkpt><trkpt lat="46.35762339319227" lon="10.077649430529661"><ele>1250.0</ele><time>2026-05-01T14:03:59Z</time></trkpt><trkpt lat="46.357535546951866" lon="10.077654894110454"><ele>1250.0</ele><time>2026-05-01T14:04:00Z</time></trkpt><trkpt lat="46.357436725043485" lon="10.077656566262492"><ele>1250.0</ele><time>2026-05-01T14:04:01Z</time></trkpt><trkpt lat="46.3573231516995" lon="10.077641963075472"><ele>1250.0</ele><time>2026-05-01T14:04:02Z</time></trkpt><trkpt lat="46.35721517348146" lon="10.077627862338773"><ele>1250.0</ele><time>2026-05-01T14:04:03Z</time></trkpt><trkpt lat="46.35711502021694" lon="10.077600263872023"><ele>1250.0</ele><time>2026-05-01T14:04:04Z</time></trkpt><trkpt lat="46.35702665341758" lon="10.077574456907888"><ele>1250.0</ele><time>2026-05-01T14:04:05Z</time></trkpt><trkpt lat="46.356933738184836" lon="10.077568855534489"><ele>1251.0</ele><time>2026-05-01T14:04:06Z</time></trkpt><trkpt lat="46.35684128316617" lon="10.077561906675717"><ele>1252.0</ele><time>2026-05-01T14:04:07Z</time></trkpt><trkpt lat="46.3567454892807" lon="10.077550545007925"><ele>1253.0</ele><time>2026-05-01T14:04:08Z</time></trkpt><trkpt lat="46.35663769616052" lon="10.077530892353147"><ele>1254.0</ele><time>2026-05-01T14:04:09Z</time></trkpt><trkpt lat="46.35652153936151" lon="10.077491259579379"><ele>1255.0</ele><time>2026-05-01T14:04:10Z</time></trkpt><trkpt lat="46.356416556000724" lon="10.077438148072325"><ele>1249.0</ele><time>2026-05-01T14:04:11Z</time></trkpt><trkpt lat="46.35630628455567" lon="10.077388426162168"><ele>1243.0</ele><time>2026-05-01T14:04:12Z</time></trkpt><trkpt lat="46.35619724251874" lon="10.077337607226704"><ele>1237.0</ele><time>2026-05-01T14:04:13Z</time></trkpt><trkpt lat="46.35608143082044" lon="10.077277178712603"><ele>1231.0</ele><time>2026-05-01T14:04:14Z</time></trkpt><trkpt lat="46.355948219243125" lon="10.0772372227023"><ele>1231.0</ele><time>2026-05-01T14:04:15Z</time></trkpt><trkpt lat="46.355807800997184" lon="10.077181504917545"><ele>1231.0</ele><time>2026-05-01T14:04:16Z</time></trkpt><trkpt lat="46.355680373415524" lon="10.077055654158565"><ele>1231.0</ele><time>2026-05-01T14:04:17Z</time></trkpt><trkpt lat="46.35553901020979" lon="10.076937832907175"><ele>1225.6666666666665</ele><time>2026-05-01T14:04:18Z</time></trkpt><trkpt lat="46.355380210564995" lon="10.076795890449072"><ele>1220.3333333333333</ele><time>2026-05-01T14:04:19Z</time></trkpt><trkpt lat="46.35521952469281" lon="10.076620105871982"><ele>1215.0</ele><time>2026-05-01T14:04:20Z</time></trkpt><trkpt lat="46.35502429891021" lon="10.076437817347314"><ele>1215.0</ele><time>2026-05-01T14:04:21Z</time></trkpt><trkpt lat="46.354849863608315" lon="10.076220673819597"><ele>1215.0</ele><time>2026-05-01T14:04:22Z</time></trkpt><trkpt lat="46.354652652893115" lon="10.076063386070434"><ele>1206.0</ele><time>2026-05-01T14:04:23Z</time></trkpt><trkpt lat="46.35444654485846" lon="10.075902786206479"><ele>1197.0</ele><time>2026-05-01T14:04:24Z</time></trkpt><trkpt lat="46.35425300362132" lon="10.075752577914614"><ele>1197.0</ele><time>2026-05-01T14:04:25Z</time></trkpt><trkpt lat="46.35407370961823" lon="10.075606940128647"><ele>1197.0</ele><time>2026-05-01T14:04:26Z</time></trkpt><trkpt lat="46.35391162558813" lon="10.07547306746892"><ele>1197.0</ele><time>2026-05-01T14:04:27Z</time></trkpt><trkpt lat="46.35374125455503" lon="10.075354766805084"><ele>1202.3333333333333</ele><time>2026-05-01T14:04:28Z</time></trkpt><trkpt lat="46.35356333268485" lon="10.075279180191295"><ele>1207.6666666666665</ele><time>2026-05-01T14:04:29Z</time></trkpt><trkpt lat="46.35338823998933" lon="10.075221604556328"><ele>1213.0</ele><time>2026-05-01T14:04:30Z</time></trkpt><trkpt lat="46.35322749137754" lon="10.075168352918054"><ele>1213.0</ele><time>2026-05-01T14:04:31.001Z</time></trkpt><trkpt lat="46.35308399380321" lon="10.075048725558531"><ele>1213.0</ele><time>2026-05-01T14:04:32.001Z</time></trkpt><trkpt lat="46.35295222620588" lon="10.074928328672575"><ele>1213.0</ele><time>2026-05-01T14:04:33.001Z</time></trkpt><trkpt lat="46.35283798335133" lon="10.074787860864207"><ele>1214.5</ele><time>2026-05-01T14:04:34.001Z</time></trkpt><trkpt lat="46.35276729350911" lon="10.07464789913477"><ele>1216.0</ele><time>2026-05-01T14:04:35.001Z</time></trkpt><trkpt lat="46.35271182802435" lon="10.074493442935008"><ele>1217.5</ele><time>2026-05-01T14:04:36.001Z</time></trkpt><trkpt lat="46.35266536698185" lon="10.074289646355343"><ele>1219.0</ele><time>2026-05-01T14:04:37.001Z</time></trkpt><trkpt lat="46.35263439431706" lon="10.074144987272662"><ele>1222.0</ele><time>2026-05-01T14:04:38.001Z</time></trkpt><trkpt lat="46.352606958429625" lon="10.073964108031294"><ele>1225.0</ele><time>2026-05-01T14:04:39.001Z</time></trkpt><trkpt lat="46.35205677713983" lon="10.073477819711464"><ele>1210.5</ele><time>2026-05-01T14:04:40.001Z</time></trkpt><trkpt lat="46.352452538713294" lon="10.073292382390242"><ele>1196.0</ele><time>2026-05-01T14:04:41.001Z</time></trkpt><trkpt lat="46.3523511916665" lon="10.073123337791747"><ele>1195.3333333333335</ele><time>2026-05-01T14:04:42.001Z</time></trkpt><trkpt lat="46.3522266864916" lon="10.072992682949852"><ele>1194.6666666666667</ele><time>2026-05-01T14:04:43.001Z</time></trkpt><trkpt lat="46.352064918806064" lon="10.072878920657944"><ele>1194.0</ele><time>2026-05-01T14:04:44.001Z</time></trkpt><trkpt lat="46.35190110537021" lon="10.072762190043226"><ele>1194.0</ele><time>2026-05-01T14:04:45.001Z</time></trkpt><trkpt lat="46.35176233264345" lon="10.07262410623165"><ele>1194.0</ele><time>2026-05-01T14:04:46.001Z</time></trkpt><trkpt lat="46.351641357492" lon="10.072469568674933"><ele>1194.0</ele><time>2026-05-01T14:04:47.001Z</time></trkpt><trkpt lat="46.35154327353463" lon="10.072334794730036"><ele>1190.25</ele><time>2026-05-01T14:04:48.001Z</time></trkpt><trkpt lat="46.35147311197909" lon="10.072187792585352"><ele>1186.5</ele><time>2026-05-01T14:04:49.001Z</time></trkpt><trkpt lat="46.35147734632176" lon="10.07199717506869"><ele>1182.75</ele><time>2026-05-01T14:04:50Z</time></trkpt><trkpt lat="46.35151677210683" lon="10.07179994821638"><ele>1179.0</ele><time>2026-05-01T14:04:51Z</time></trkpt><trkpt lat="46.351518646327335" lon="10.071607518902322"><ele>1181.0</ele><time>2026-05-01T14:04:52Z</time></trkpt><trkpt lat="46.351516405275085" lon="10.071425301877309"><ele>1183.0</ele><time>2026-05-01T14:04:53Z</time></trkpt><trkpt lat="46.3514524783185" lon="10.071220597161318"><ele>1185.0</ele><time>2026-05-01T14:04:54Z</time></trkpt><trkpt lat="46.351363736406384" lon="10.071010220149603"><ele>1185.0</ele><time>2026-05-01T14:04:55Z</time></trkpt><trkpt lat="46.351245522527165" lon="10.070797606297848"><ele>1185.0</ele><time>2026-05-01T14:04:56Z</time></trkpt><trkpt lat="46.35116648594269" lon="10.07057394652097"><ele>1185.0</ele><time>2026-05-01T14:04:57Z</time></trkpt><trkpt lat="46.35109217868209" lon="10.070364985427952"><ele>1178.3333333333333</ele><time>2026-05-01T14:04:58Z</time></trkpt><trkpt lat="46.350987614126986" lon="10.070174795507125"><ele>1171.6666666666665</ele><time>2026-05-01T14:04:59Z</time></trkpt><trkpt lat="46.35085331231571" lon="10.070006447249312"><ele>1165.0</ele><time>2026-05-01T14:05:00Z</time></trkpt><trkpt lat="46.35071516681346" lon="10.069872466719442"><ele>1162.6666666666665</ele><time>2026-05-01T14:05:01Z</time></trkpt><trkpt lat="46.35055699174395" lon="10.06976758253651"><ele>1160.3333333333333</ele><time>2026-05-01T14:05:02Z</time></trkpt><trkpt lat="46.35038830256985" lon="10.069689272919993"><ele>1158.0</ele><time>2026-05-01T14:05:03Z</time></trkpt><trkpt lat="46.35022270896332" lon="10.06961404613318"><ele>1158.0</ele><time>2026-05-01T14:05:04Z</time></trkpt><trkpt lat="46.35008986652619" lon="10.069481598745547"><ele>1158.0</ele><time>2026-05-01T14:05:05Z</time></trkpt><trkpt lat="46.34997532085342" lon="10.069286401265765"><ele>1158.0</ele><time>2026-05-01T14:05:06Z</time></trkpt><trkpt lat="46.34986843656126" lon="10.069051417800067"><ele>1156.3333333333333</ele><time>2026-05-01T14:05:07Z</time></trkpt><trkpt lat="46.34977283903505" lon="10.068831238031443"><ele>1154.6666666666665</ele><time>2026-05-01T14:05:08Z</time></trkpt><trkpt lat="46.349668243700336" lon="10.068648124067815"><ele>1153.0</ele><time>2026-05-01T14:05:09Z</time></trkpt><trkpt lat="46.34951871472708" lon="10.068508241387157"><ele>1153.0</ele><time>2026-05-01T14:05:10Z</time></trkpt><trkpt lat="46.34934507586012" lon="10.06839381198635"><ele>1153.0</ele><time>2026-05-01T14:05:11Z</time></trkpt><trkpt lat="46.34916159921344" lon="10.06828865479715"><ele>1153.0</ele><time>2026-05-01T14:05:12Z</time></trkpt><trkpt lat="46.348964696495464" lon="10.068177157253357"><ele>1143.3333333333333</ele><time>2026-05-01T14:05:13Z</time></trkpt><trkpt lat="46.348763452725954" lon="10.068089701438444"><ele>1133.6666666666667</ele><time>2026-05-01T14:05:14Z</time></trkpt><trkpt lat="46.34856522911839" lon="10.068049607658587"><ele>1124.0</ele><time>2026-05-01T14:05:15Z</time></trkpt><trkpt lat="46.34837216275961" lon="10.068023503069764"><ele>1124.0</ele><time>2026-05-01T14:05:16Z</time></trkpt><trkpt lat="46.3481834596964" lon="10.068036501196037"><ele>1124.0</ele><time>2026-05-01T14:05:17Z</time></trkpt><trkpt lat="46.34799445629265" lon="10.068075761386357"><ele>1124.0</ele><time>2026-05-01T14:05:18Z</time></trkpt><trkpt lat="46.34780657378729" lon="10.068035102220364"><ele>1125.3333333333335</ele><time>2026-05-01T14:05:19Z</time></trkpt><trkpt lat="46.34761290369356" lon="10.067932879594956"><ele>1126.6666666666667</ele><time>2026-05-01T14:05:20Z</time></trkpt><trkpt lat="46.34740037859132" lon="10.06779424356381"><ele>1128.0</ele><time>2026-05-01T14:05:21Z</time></trkpt><trkpt lat="46.347165396906355" lon="10.067656422744633"><ele>1132.5</ele><time>2026-05-01T14:05:22Z</time></trkpt><trkpt lat="46.346920905159735" lon="10.067487952154186"><ele>1137.0</ele><time>2026-05-01T14:05:23Z</time></trkpt><trkpt lat="46.34667341508838" lon="10.067325144001934"><ele>1133.5</ele><time>2026-05-01T14:05:24Z</time></trkpt><trkpt lat="46.34643873551399" lon="10.067170726917755"><ele>1130.0</ele><time>2026-05-01T14:05:25Z</time></trkpt><trkpt lat="46.34621266575262" lon="10.067022756891092"><ele>1130.0</ele><time>2026-05-01T14:05:26Z</time></trkpt><trkpt lat="46.34599415036541" lon="10.066872196931325"><ele>1130.0</ele><time>2026-05-01T14:05:27Z</time></trkpt><trkpt lat="46.3458071340122" lon="10.066684725131354"><ele>1128.6666666666667</ele><time>2026-05-01T14:05:28Z</time></trkpt><trkpt lat="46.34563531453075" lon="10.06653266389361"><ele>1127.3333333333333</ele><time>2026-05-01T14:05:29Z</time></trkpt><trkpt lat="46.345491895935915" lon="10.066357427953978"><ele>1126.0</ele><time>2026-05-01T14:05:30Z</time></trkpt><trkpt lat="46.345363184147914" lon="10.066175700862807"><ele>1126.0</ele><time>2026-05-01T14:05:31Z</time></trkpt><trkpt lat="46.34528777922074" lon="10.065977557411266"><ele>1126.0</ele><time>2026-05-01T14:05:32Z</time></trkpt><trkpt lat="46.34518702056001" lon="10.06579131244033"><ele>1126.0</ele><time>2026-05-01T14:05:33Z</time></trkpt><trkpt lat="46.34507128105129" lon="10.065633314720671"><ele>1123.6666666666665</ele><time>2026-05-01T14:05:34Z</time></trkpt><trkpt lat="46.344898787133644" lon="10.065522595862788"><ele>1121.3333333333333</ele><time>2026-05-01T14:05:35Z</time></trkpt><trkpt lat="46.344724307416584" lon="10.065429997065078"><ele>1119.0</ele><time>2026-05-01T14:05:36Z</time></trkpt><trkpt lat="46.3445732824728" lon="10.06535639771517"><ele>1119.0</ele><time>2026-05-01T14:05:37Z</time></trkpt><trkpt lat="46.3444439505792" lon="10.0652738522118"><ele>1119.0</ele><time>2026-05-01T14:05:38Z</time></trkpt><trkpt lat="46.34432828460113" lon="10.065171211502246"><ele>1119.0</ele><time>2026-05-01T14:05:39Z</time></trkpt><trkpt lat="46.34423668026421" lon="10.065012822061775"><ele>1119.0</ele><time>2026-05-01T14:05:40Z</time></trkpt><trkpt lat="46.344207621308826" lon="10.064805184936128"><ele>1114.0</ele><time>2026-05-01T14:05:41Z</time></trkpt><trkpt lat="46.344196605039514" lon="10.064604980493609"><ele>1109.0</ele><time>2026-05-01T14:05:42Z</time></trkpt><trkpt lat="46.344178788023115" lon="10.064408557572762"><ele>1104.0</ele><time>2026-05-01T14:05:43Z</time></trkpt><trkpt lat="46.3441819126781" lon="10.064218076784499"><ele>1099.0</ele><time>2026-05-01T14:05:44Z</time></trkpt><trkpt lat="46.344164675791674" lon="10.064033236119236"><ele>1097.25</ele><time>2026-05-01T14:05:45Z</time></trkpt><trkpt lat="46.34413552842572" lon="10.063853872948146"><ele>1095.5</ele><time>2026-05-01T14:05:46Z</time></trkpt><trkpt lat="46.3441026690913" lon="10.063676051804208"><ele>1093.75</ele><time>2026-05-01T14:05:47Z</time></trkpt><trkpt lat="46.34406846858637" lon="10.063499244501802"><ele>1092.0</ele><time>2026-05-01T14:05:48Z</time></trkpt><trkpt lat="46.34403494509673" lon="10.063323015082126"><ele>1091.25</ele><time>2026-05-01T14:05:49Z</time></trkpt><trkpt lat="46.344010743942505" lon="10.063144868733144"><ele>1090.5</ele><time>2026-05-01T14:05:50Z</time></trkpt><trkpt lat="46.343993376729" lon="10.062967385650454"><ele>1089.75</ele><time>2026-05-01T14:05:51Z</time></trkpt><trkpt lat="46.34397446610869" lon="10.06279107302319"><ele>1089.0</ele><time>2026-05-01T14:05:52Z</time></trkpt><trkpt lat="46.34395420068872" lon="10.062615740677813"><ele>1088.2</ele><time>2026-05-01T14:05:53Z</time></trkpt><trkpt lat="46.34393203127461" lon="10.062443914603191"><ele>1087.4</ele><time>2026-05-01T14:05:54Z</time></trkpt><trkpt lat="46.34391178619309" lon="10.062275790281701"><ele>1086.6</ele><time>2026-05-01T14:05:55Z</time></trkpt><trkpt lat="46.343892187987954" lon="10.0621213540234"><ele>1085.8</ele><time>2026-05-01T14:05:55.999Z</time></trkpt><trkpt lat="46.34386292170405" lon="10.062005591485132"><ele>1085.0</ele><time>2026-05-01T14:05:56.999Z</time></trkpt><trkpt lat="46.343826085680845" lon="10.061918686443665"><ele>1085.4</ele><time>2026-05-01T14:05:57.999Z</time></trkpt><trkpt lat="46.34376372768061" lon="10.06184608389507"><ele>1085.8</ele><time>2026-05-01T14:05:59.999Z</time></trkpt><trkpt lat="46.3436795135894" lon="10.061769541901898"><ele>1086.2</ele><time>2026-05-01T14:06:01.999Z</time></trkpt><trkpt lat="46.34359935531656" lon="10.061676210607567"><ele>1086.6</ele><time>2026-05-01T14:06:03.999Z</time></trkpt><trkpt lat="46.343562434149234" lon="10.061572635134256"><ele>1087.0</ele><time>2026-05-01T14:06:04.999Z</time></trkpt><trkpt lat="46.34342902031332" lon="10.061396946234272"><ele>1087.0</ele><time>2026-05-01T14:06:05.999Z</time></trkpt><trkpt lat="46.343334147680835" lon="10.061283653623702"><ele>1087.0</ele><time>2026-05-01T14:06:06.999Z</time></trkpt><trkpt lat="46.34323751327638" lon="10.061193210726211"><ele>1087.0</ele><time>2026-05-01T14:06:07.999Z</time></trkpt><trkpt lat="46.3431452274636" lon="10.06110712577543"><ele>1087.0</ele><time>2026-05-01T14:06:08.999Z</time></trkpt><trkpt lat="46.343059452314115" lon="10.060991336738931"><ele>1088.0</ele><time>2026-05-01T14:06:09.999Z</time></trkpt><trkpt lat="46.342936254835415" lon="10.060914347240688"><ele>1089.0</ele><time>2026-05-01T14:06:10.999Z</time></trkpt><trkpt lat="46.342813510424115" lon="10.06083035473611"><ele>1090.0</ele><time>2026-05-01T14:06:11.999Z</time></trkpt><trkpt lat="46.342683957136636" lon="10.060751406103972"><ele>1091.0</ele><time>2026-05-01T14:06:12.999Z</time></trkpt><trkpt lat="46.34255055777149" lon="10.060668204669405"><ele>1089.5</ele><time>2026-05-01T14:06:13.999Z</time></trkpt><trkpt lat="46.34242606230593" lon="10.060585576343827"><ele>1088.0</ele><time>2026-05-01T14:06:14.999Z</time></trkpt><trkpt lat="46.34230480672365" lon="10.060488499994873"><ele>1086.5</ele><time>2026-05-01T14:06:15.999Z</time></trkpt><trkpt lat="46.34218634322636" lon="10.060391139678352"><ele>1085.0</ele><time>2026-05-01T14:06:16.999Z</time></trkpt><trkpt lat="46.34206389453462" lon="10.060295379933628"><ele>1085.0</ele><time>2026-05-01T14:06:17.999Z</time></trkpt><trkpt lat="46.341926233461955" lon="10.060208256404065"><ele>1085.0</ele><time>2026-05-01T14:06:18.999Z</time></trkpt><trkpt lat="46.34180841260573" lon="10.060117123578772"><ele>1085.0</ele><time>2026-05-01T14:06:19.999Z</time></trkpt><trkpt lat="46.34168108490806" lon="10.06005687229228"><ele>1085.0</ele><time>2026-05-01T14:06:20.999Z</time></trkpt><trkpt lat="46.34155676709694" lon="10.060014029831889"><ele>1085.0</ele><time>2026-05-01T14:06:21.999Z</time></trkpt><trkpt lat="46.3414312195742" lon="10.059983778668046"><ele>1085.0</ele><time>2026-05-01T14:06:22.999Z</time></trkpt><trkpt lat="46.34131711583034" lon="10.0599526660455"><ele>1085.0</ele><time>2026-05-01T14:06:23.999Z</time></trkpt><trkpt lat="46.34121486736688" lon="10.059920869347264"><ele>1085.0</ele><time>2026-05-01T14:06:24.999Z</time></trkpt><trkpt lat="46.34111832958375" lon="10.059889772836435"><ele>1085.0</ele><time>2026-05-01T14:06:25.999Z</time></trkpt><trkpt lat="46.34105184249887" lon="10.05986563867697"><ele>1083.0</ele><time>2026-05-01T14:06:26.999Z</time></trkpt><trkpt lat="46.34095814475692" lon="10.059867008884222"><ele>1081.0</ele><time>2026-05-01T14:06:27.999Z</time></trkpt><trkpt lat="46.34089069956401" lon="10.059833475475202"><ele>1079.0</ele><time>2026-05-01T14:06:28.999Z</time></trkpt><trkpt lat="46.34077666360034" lon="10.059824212086031"><ele>1077.0</ele><time>2026-05-01T14:06:30.999Z</time></trkpt><trkpt lat="46.340712106863016" lon="10.059852660596402"><ele>1075.0</ele><time>2026-05-01T14:06:31.999Z</time></trkpt><trkpt lat="46.34064611252045" lon="10.05987749795587"><ele>1073.0</ele><time>2026-05-01T14:06:32.999Z</time></trkpt><trkpt lat="46.340554716958046" lon="10.059888367839969"><ele>1073.4</ele><time>2026-05-01T14:06:33.999Z</time></trkpt><trkpt lat="46.34046163580229" lon="10.05992429248997"><ele>1073.8</ele><time>2026-05-01T14:06:34.999Z</time></trkpt><trkpt lat="46.34035725777863" lon="10.059957127946083"><ele>1074.2</ele><time>2026-05-01T14:06:36Z</time></trkpt><trkpt lat="46.340249484899466" lon="10.059982702671919"><ele>1074.6</ele><time>2026-05-01T14:06:37Z</time></trkpt><trkpt lat="46.340140339689256" lon="10.060020310910334"><ele>1075.0</ele><time>2026-05-01T14:06:38Z</time></trkpt><trkpt lat="46.340024320748796" lon="10.060060449662751"><ele>1075.0</ele><time>2026-05-01T14:06:39Z</time></trkpt><trkpt lat="46.33990693619389" lon="10.060107782542392"><ele>1075.0</ele><time>2026-05-01T14:06:40Z</time></trkpt><trkpt lat="46.33978993020096" lon="10.060143684327567"><ele>1075.0</ele><time>2026-05-01T14:06:41Z</time></trkpt><trkpt lat="46.339679375415315" lon="10.06018748295717"><ele>1075.0</ele><time>2026-05-01T14:06:42Z</time></trkpt><trkpt lat="46.33956526441142" lon="10.060229507927009"><ele>1072.25</ele><time>2026-05-01T14:06:43Z</time></trkpt><trkpt lat="46.33944935453388" lon="10.0602668006221"><ele>1069.5</ele><time>2026-05-01T14:06:44Z</time></trkpt><trkpt lat="46.33933350606735" lon="10.060309971956057"><ele>1066.75</ele><time>2026-05-01T14:06:45Z</time></trkpt><trkpt lat="46.33921397067429" lon="10.060350624399904"><ele>1064.0</ele><time>2026-05-01T14:06:46Z</time></trkpt><trkpt lat="46.33909575483569" lon="10.060387180921541"><ele>1064.0</ele><time>2026-05-01T14:06:47Z</time></trkpt><trkpt lat="46.33898039096676" lon="10.060430929072002"><ele>1064.0</ele><time>2026-05-01T14:06:48Z</time></trkpt><trkpt lat="46.33886366741498" lon="10.060481109429729"><ele>1064.0</ele><time>2026-05-01T14:06:49Z</time></trkpt><trkpt lat="46.33874028174253" lon="10.060519517060811"><ele>1064.0</ele><time>2026-05-01T14:06:50Z</time></trkpt><trkpt lat="46.33861394551762" lon="10.060566781331909"><ele>1063.75</ele><time>2026-05-01T14:06:51Z</time></trkpt><trkpt lat="46.33848606713762" lon="10.060614771963838"><ele>1063.5</ele><time>2026-05-01T14:06:52Z</time></trkpt><trkpt lat="46.338358537380394" lon="10.060663346842631"><ele>1063.25</ele><time>2026-05-01T14:06:53Z</time></trkpt><trkpt lat="46.33823328587898" lon="10.060716188821305"><ele>1063.0</ele><time>2026-05-01T14:06:54Z</time></trkpt><trkpt lat="46.3381122943773" lon="10.060774256613245"><ele>1062.0</ele><time>2026-05-01T14:06:55Z</time></trkpt><trkpt lat="46.337988723331655" lon="10.060837622870393"><ele>1061.0</ele><time>2026-05-01T14:06:56Z</time></trkpt><trkpt lat="46.33787069302421" lon="10.060908698998267"><ele>1060.0</ele><time>2026-05-01T14:06:57Z</time></trkpt><trkpt lat="46.337740913519625" lon="10.060990403470493"><ele>1059.0</ele><time>2026-05-01T14:06:58Z</time></trkpt><trkpt lat="46.33760464350376" lon="10.061078666384855"><ele>1059.0</ele><time>2026-05-01T14:06:59Z</time></trkpt><trkpt lat="46.337464632972186" lon="10.061169751190418"><ele>1059.0</ele><time>2026-05-01T14:07:00Z</time></trkpt><trkpt lat="46.337321497999184" lon="10.061230784934676"><ele>1059.0</ele><time>2026-05-01T14:07:01Z</time></trkpt><trkpt lat="46.33717208194266" lon="10.061285059946528"><ele>1058.25</ele><time>2026-05-01T14:07:02Z</time></trkpt><trkpt lat="46.33703486884654" lon="10.061310977682025"><ele>1057.5</ele><time>2026-05-01T14:07:03Z</time></trkpt><trkpt lat="46.33689660444042" lon="10.06133498243006"><ele>1056.75</ele><time>2026-05-01T14:07:04Z</time></trkpt><trkpt lat="46.33677615591028" lon="10.061332945395586"><ele>1056.0</ele><time>2026-05-01T14:07:05Z</time></trkpt><trkpt lat="46.336465944997286" lon="10.061298534505736"><ele>1055.3333333333333</ele><time>2026-05-01T14:07:06Z</time></trkpt><trkpt lat="46.336268897870625" lon="10.061274822309727"><ele>1054.6666666666665</ele><time>2026-05-01T14:07:07Z</time></trkpt><trkpt lat="46.33605713299935" lon="10.061250046110459"><ele>1054.0</ele><time>2026-05-01T14:07:08Z</time></trkpt><trkpt lat="46.33583275197848" lon="10.061217602992244"><ele>1054.0</ele><time>2026-05-01T14:07:09Z</time></trkpt><trkpt lat="46.33559499714588" lon="10.061187069257443"><ele>1054.0</ele><time>2026-05-01T14:07:10Z</time></trkpt><trkpt lat="46.335340272442956" lon="10.061144837214872"><ele>1056.5</ele><time>2026-05-01T14:07:11Z</time></trkpt><trkpt lat="46.335089523977764" lon="10.061098822565253"><ele>1059.0</ele><time>2026-05-01T14:07:12Z</time></trkpt><trkpt lat="46.33483202590479" lon="10.06105491282919"><ele>1062.0</ele><time>2026-05-01T14:07:13Z</time></trkpt><trkpt lat="46.33455772018522" lon="10.061002525372524"><ele>1065.0</ele><time>2026-05-01T14:07:14Z</time></trkpt><trkpt lat="46.334284970793085" lon="10.060894665133668"><ele>1058.0</ele><time>2026-05-01T14:07:15Z</time></trkpt><trkpt lat="46.3340204987124" lon="10.060761370652493"><ele>1051.0</ele><time>2026-05-01T14:07:16Z</time></trkpt><trkpt lat="46.33376098591486" lon="10.060607233392886"><ele>1051.0</ele><time>2026-05-01T14:07:17Z</time></trkpt><trkpt lat="46.333493741577875" lon="10.060437644332273"><ele>1051.0</ele><time>2026-05-01T14:07:18Z</time></trkpt><trkpt lat="46.33324006215732" lon="10.060256096339797"><ele>1057.5</ele><time>2026-05-01T14:07:19Z</time></trkpt><trkpt lat="46.33300097934722" lon="10.060076755127888"><ele>1064.0</ele><time>2026-05-01T14:07:20Z</time></trkpt><trkpt lat="46.33277131676533" lon="10.059929598276002"><ele>1051.0</ele><time>2026-05-01T14:07:21Z</time></trkpt><trkpt lat="46.332555332428" lon="10.05976156596353"><ele>1038.0</ele><time>2026-05-01T14:07:22Z</time></trkpt><trkpt lat="46.33233353999986" lon="10.059611072517399"><ele>1036.5</ele><time>2026-05-01T14:07:23Z</time></trkpt><trkpt lat="46.33210547660913" lon="10.059477695063263"><ele>1035.0</ele><time>2026-05-01T14:07:24Z</time></trkpt><trkpt lat="46.33187452201956" lon="10.05935054686003"><ele>1035.0</ele><time>2026-05-01T14:07:25Z</time></trkpt><trkpt lat="46.33165092058385" lon="10.059223040108206"><ele>1035.0</ele><time>2026-05-01T14:07:26Z</time></trkpt><trkpt lat="46.33142681392495" lon="10.059090132197888"><ele>1032.0</ele><time>2026-05-01T14:07:27Z</time></trkpt><trkpt lat="46.331235925171356" lon="10.058987569991235"><ele>1029.0</ele><time>2026-05-01T14:07:28Z</time></trkpt><trkpt lat="46.33103763000766" lon="10.058872080957231"><ele>1026.0</ele><time>2026-05-01T14:07:29Z</time></trkpt><trkpt lat="46.33083243521865" lon="10.058772576452343"><ele>1026.0</ele><time>2026-05-01T14:07:30Z</time></trkpt><trkpt lat="46.330638640523944" lon="10.058689807104798"><ele>1026.0</ele><time>2026-05-01T14:07:31Z</time></trkpt><trkpt lat="46.33048001931264" lon="10.058666165175795"><ele>1026.0</ele><time>2026-05-01T14:07:32Z</time></trkpt><trkpt lat="46.33032114788505" lon="10.058628024695539"><ele>1025.25</ele><time>2026-05-01T14:07:33Z</time></trkpt><trkpt lat="46.330166770440144" lon="10.058565062606448"><ele>1024.5</ele><time>2026-05-01T14:07:34Z</time></trkpt><trkpt lat="46.33004148676423" lon="10.058520161391673"><ele>1023.75</ele><time>2026-05-01T14:07:35Z</time></trkpt><trkpt lat="46.3299221878757" lon="10.058482513746682"><ele>1023.0</ele><time>2026-05-01T14:07:36Z</time></trkpt><trkpt lat="46.32978869464132" lon="10.058441687227319"><ele>1024.25</ele><time>2026-05-01T14:07:37Z</time></trkpt><trkpt lat="46.32966074385455" lon="10.05840451865547"><ele>1025.5</ele><time>2026-05-01T14:07:37.999Z</time></trkpt><trkpt lat="46.32951914304205" lon="10.058367626727094"><ele>1026.75</ele><time>2026-05-01T14:07:38.999Z</time></trkpt><trkpt lat="46.32938239345412" lon="10.058328720688653"><ele>1028.0</ele><time>2026-05-01T14:07:39.999Z</time></trkpt><trkpt lat="46.32924479104081" lon="10.058291479120435"><ele>1028.0</ele><time>2026-05-01T14:07:40.999Z</time></trkpt><trkpt lat="46.329108233132395" lon="10.058253814431435"><ele>1028.0</ele><time>2026-05-01T14:07:41.999Z</time></trkpt><trkpt lat="46.32898952835259" lon="10.058216701423614"><ele>1028.0</ele><time>2026-05-01T14:07:42.999Z</time></trkpt><trkpt lat="46.328883233775834" lon="10.058189895045441"><ele>1028.0</ele><time>2026-05-01T14:07:43.999Z</time></trkpt><trkpt lat="46.32878034531275" lon="10.058166666652488"><ele>1026.4</ele><time>2026-05-01T14:07:44.999Z</time></trkpt><trkpt lat="46.328679355856394" lon="10.058141657765766"><ele>1024.8</ele><time>2026-05-01T14:07:45.999Z</time></trkpt><trkpt lat="46.32857536895289" lon="10.058105706003222"><ele>1023.2</ele><time>2026-05-01T14:07:46.999Z</time></trkpt><trkpt lat="46.32847702151953" lon="10.05807813018507"><ele>1021.6</ele><time>2026-05-01T14:07:47.999Z</time></trkpt><trkpt lat="46.32837075772352" lon="10.058059648007278"><ele>1020.0</ele><time>2026-05-01T14:07:48.999Z</time></trkpt><trkpt lat="46.328281988658546" lon="10.058041040823507"><ele>1020.0</ele><time>2026-05-01T14:07:49.999Z</time></trkpt><trkpt lat="46.328212128004495" lon="10.057985767869573"><ele>1020.0</ele><time>2026-05-01T14:07:50.999Z</time></trkpt><trkpt lat="46.32817654617985" lon="10.057857634446027"><ele>1020.0</ele><time>2026-05-01T14:07:51.999Z</time></trkpt><trkpt lat="46.32819767261645" lon="10.057704430737918"><ele>1020.0</ele><time>2026-05-01T14:07:52.999Z</time></trkpt><trkpt lat="46.328206459489685" lon="10.057601711203336"><ele>1020.0</ele><time>2026-05-01T14:07:53.999Z</time></trkpt><trkpt lat="46.32826241795624" lon="10.057468484835095"><ele>1020.2</ele><time>2026-05-01T14:07:55.999Z</time></trkpt><trkpt lat="46.32822775397648" lon="10.057292570331052"><ele>1020.4</ele><time>2026-05-01T14:07:57.999Z</time></trkpt><trkpt lat="46.3281393040769" lon="10.05725651590333"><ele>1020.5999999999999</ele><time>2026-05-01T14:07:58.999Z</time></trkpt><trkpt lat="46.328029726558796" lon="10.057233636270933"><ele>1020.8</ele><time>2026-05-01T14:07:59.999Z</time></trkpt><trkpt lat="46.327927705467836" lon="10.057186346788699"><ele>1021.0</ele><time>2026-05-01T14:08:00.999Z</time></trkpt><trkpt lat="46.32782191546774" lon="10.057107992487863"><ele>1020.25</ele><time>2026-05-01T14:08:01.999Z</time></trkpt><trkpt lat="46.327706144746344" lon="10.057026871385737"><ele>1019.5</ele><time>2026-05-01T14:08:02.999Z</time></trkpt><trkpt lat="46.32758993491067" lon="10.056951319578443"><ele>1018.75</ele><time>2026-05-01T14:08:03.999Z</time></trkpt><trkpt lat="46.32747933223618" lon="10.056880000377445"><ele>1018.0</ele><time>2026-05-01T14:08:04.999Z</time></trkpt><trkpt lat="46.327357432936026" lon="10.056847732563304"><ele>1018.0</ele><time>2026-05-01T14:08:05.999Z</time></trkpt><trkpt lat="46.32723212560462" lon="10.056830232387481"><ele>1018.0</ele><time>2026-05-01T14:08:06.999Z</time></trkpt><trkpt lat="46.327107149074635" lon="10.05682215560651"><ele>1018.0</ele><time>2026-05-01T14:08:07.999Z</time></trkpt><trkpt lat="46.3269816875378" lon="10.05682356650324"><ele>1018.0</ele><time>2026-05-01T14:08:08.999Z</time></trkpt><trkpt lat="46.326860181885515" lon="10.056825831596129"><ele>1017.4</ele><time>2026-05-01T14:08:09.999Z</time></trkpt><trkpt lat="46.326745578865406" lon="10.056825450181853"><ele>1016.8</ele><time>2026-05-01T14:08:10.999Z</time></trkpt><trkpt lat="46.326644075179914" lon="10.056817577441919"><ele>1016.2</ele><time>2026-05-01T14:08:11.999Z</time></trkpt><trkpt lat="46.32656661155024" lon="10.056810229086999"><ele>1015.6</ele><time>2026-05-01T14:08:12.999Z</time></trkpt><trkpt lat="46.32648274059288" lon="10.056808664735023"><ele>1015.0</ele><time>2026-05-01T14:08:14.999Z</time></trkpt><trkpt lat="46.32638594568822" lon="10.056761412815133"><ele>1014.6</ele><time>2026-05-01T14:08:31.999Z</time></trkpt><trkpt lat="46.32631343983627" lon="10.056773245572689"><ele>1014.2</ele><time>2026-05-01T14:08:32.999Z</time></trkpt><trkpt lat="46.326222369018325" lon="10.056765045549524"><ele>1013.8</ele><time>2026-05-01T14:08:33.999Z</time></trkpt><trkpt lat="46.32610615226595" lon="10.056755094988123"><ele>1013.4</ele><time>2026-05-01T14:08:34.999Z</time></trkpt><trkpt lat="46.326002771987504" lon="10.056741754762546"><ele>1013.0</ele><time>2026-05-01T14:08:35.999Z</time></trkpt><trkpt lat="46.325910191080844" lon="10.05673118613739"><ele>1013.0</ele><time>2026-05-01T14:08:36.999Z</time></trkpt><trkpt lat="46.32581792955511" lon="10.056691156741888"><ele>1013.0</ele><time>2026-05-01T14:08:37.999Z</time></trkpt><trkpt lat="46.32571670571757" lon="10.056651473561148"><ele>1013.0</ele><time>2026-05-01T14:08:38.999Z</time></trkpt><trkpt lat="46.32561752028595" lon="10.056602565700365"><ele>1013.0</ele><time>2026-05-01T14:08:39.999Z</time></trkpt><trkpt lat="46.32550811891092" lon="10.056571475760473"><ele>1013.0</ele><time>2026-05-01T14:08:40.999Z</time></trkpt><trkpt lat="46.32540049955918" lon="10.056530296902862"><ele>1013.0</ele><time>2026-05-01T14:08:42Z</time></trkpt><trkpt lat="46.32528717181438" lon="10.056473142528466"><ele>1013.0</ele><time>2026-05-01T14:08:43Z</time></trkpt><trkpt lat="46.32522073826101" lon="10.05640689958264"><ele>1013.0</ele><time>2026-05-01T14:08:45Z</time></trkpt><trkpt lat="46.325123714946486" lon="10.056349948348464"><ele>1013.0</ele><time>2026-05-01T14:08:46Z</time></trkpt><trkpt lat="46.32480780172948" lon="10.056231855821965"><ele>1012.3333333333334</ele><time>2026-05-01T14:08:48Z</time></trkpt><trkpt lat="46.32462246290938" lon="10.056185926131684"><ele>1011.6666666666667</ele><time>2026-05-01T14:08:49Z</time></trkpt><trkpt lat="46.32442862071342" lon="10.05611803086136"><ele>1011.0</ele><time>2026-05-01T14:08:50Z</time></trkpt><trkpt lat="46.32424371513073" lon="10.056063118859608"><ele>1011.0</ele><time>2026-05-01T14:08:51Z</time></trkpt><trkpt lat="46.3241027302918" lon="10.056029988641328"><ele>1010.9999999999999</ele><time>2026-05-01T14:08:52Z</time></trkpt><trkpt lat="46.32403254830204" lon="10.056028000468592"><ele>1010.9999999999999</ele><time>2026-05-01T14:08:54Z</time></trkpt><trkpt lat="46.323922800824214" lon="10.0560141434547"><ele>1011.0</ele><time>2026-05-01T14:08:55Z</time></trkpt><trkpt lat="46.32382960700122" lon="10.05599715371695"><ele>1011.0</ele><time>2026-05-01T14:08:56Z</time></trkpt><trkpt lat="46.32375301337883" lon="10.055992125646538"><ele>1010.5</ele><time>2026-05-01T14:08:57Z</time></trkpt><trkpt lat="46.32365858311483" lon="10.056085347932187"><ele>1010.0</ele><time>2026-05-01T14:08:59Z</time></trkpt><trkpt lat="46.323659267772555" lon="10.056186729655716"><ele>1009.5</ele><time>2026-05-01T14:09:00Z</time></trkpt><trkpt lat="46.323681311161025" lon="10.056300504179719"><ele>1009.0</ele><time>2026-05-01T14:09:01Z</time></trkpt><trkpt lat="46.323711040029124" lon="10.056416439090352"><ele>1008.5</ele><time>2026-05-01T14:09:02Z</time></trkpt><trkpt lat="46.32374037050922" lon="10.056530136072427"><ele>1008.0</ele><time>2026-05-01T14:09:03Z</time></trkpt><trkpt lat="46.32376766776363" lon="10.056635001726336"><ele>1008.0</ele><time>2026-05-01T14:09:04Z</time></trkpt><trkpt lat="46.32379762937313" lon="10.056757493806519"><ele>1008.0</ele><time>2026-05-01T14:09:05Z</time></trkpt><trkpt lat="46.32384743313415" lon="10.056889885775162"><ele>1008.0</ele><time>2026-05-01T14:09:06Z</time></trkpt><trkpt lat="46.32389217486598" lon="10.057022203932371"><ele>1008.0</ele><time>2026-05-01T14:09:07Z</time></trkpt><trkpt lat="46.32393154120928" lon="10.057138490659419"><ele>1008.0</ele><time>2026-05-01T14:09:08Z</time></trkpt><trkpt lat="46.323957357731416" lon="10.057229238638497"><ele>1008.0</ele><time>2026-05-01T14:09:09Z</time></trkpt><trkpt lat="46.323951845425384" lon="10.057334986518283"><ele>1008.0</ele><time>2026-05-01T14:09:10Z</time></trkpt><trkpt lat="46.32389944531943" lon="10.057433497021606"><ele>1008.0</ele><time>2026-05-01T14:09:11Z</time></trkpt><trkpt lat="46.323826452243686" lon="10.057463233466676"><ele>1008.0</ele><time>2026-05-01T14:09:12Z</time></trkpt><trkpt lat="46.32373450965366" lon="10.057483800338543"><ele>1008.0</ele><time>2026-05-01T14:09:13Z</time></trkpt><trkpt lat="46.32362268585363" lon="10.057498597682896"><ele>1008.0</ele><time>2026-05-01T14:09:14Z</time></trkpt><trkpt lat="46.32352205683041" lon="10.057548728340654"><ele>1008.0</ele><time>2026-05-01T14:09:15Z</time></trkpt><trkpt lat="46.32336540942041" lon="10.057584715585795"><ele>1008.0</ele><time>2026-05-01T14:09:16Z</time></trkpt><trkpt lat="46.323237853583535" lon="10.05761960933748"><ele>1008.0</ele><time>2026-05-01T14:09:17Z</time></trkpt><trkpt lat="46.323126598479185" lon="10.057665115690313"><ele>1008.0</ele><time>2026-05-01T14:09:18Z</time></trkpt><trkpt lat="46.323019824551665" lon="10.057721516875704"><ele>1007.25</ele><time>2026-05-01T14:09:19Z</time></trkpt><trkpt lat="46.32291360509341" lon="10.057779834961492"><ele>1006.5</ele><time>2026-05-01T14:09:20Z</time></trkpt><trkpt lat="46.322804179339606" lon="10.057842422758927"><ele>1005.75</ele><time>2026-05-01T14:09:21Z</time></trkpt><trkpt lat="46.322677716356786" lon="10.057892626448156"><ele>1005.0</ele><time>2026-05-01T14:09:22Z</time></trkpt><trkpt lat="46.32255740857224" lon="10.057940920991678"><ele>1005.0</ele><time>2026-05-01T14:09:23Z</time></trkpt><trkpt lat="46.322424322982414" lon="10.05799516448893"><ele>1005.0</ele><time>2026-05-01T14:09:24Z</time></trkpt><trkpt lat="46.32230229743192" lon="10.058049158128286"><ele>1005.0</ele><time>2026-05-01T14:09:25Z</time></trkpt><trkpt lat="46.32217798059122" lon="10.058098384924941"><ele>1005.0</ele><time>2026-05-01T14:09:26Z</time></trkpt><trkpt lat="46.32205549225319" lon="10.05814864786142"><ele>1004.75</ele><time>2026-05-01T14:09:27Z</time></trkpt><trkpt lat="46.32193627427937" lon="10.058198378548425"><ele>1004.5</ele><time>2026-05-01T14:09:28Z</time></trkpt><trkpt lat="46.32181648078327" lon="10.058247832266686"><ele>1004.25</ele><time>2026-05-01T14:09:29Z</time></trkpt><trkpt lat="46.32170098075508" lon="10.058297059805707"><ele>1004.0</ele><time>2026-05-01T14:09:30Z</time></trkpt><trkpt lat="46.32158207567794" lon="10.058345562509134"><ele>1004.0</ele><time>2026-05-01T14:09:31Z</time></trkpt><trkpt lat="46.32146013723053" lon="10.058398171754314"><ele>1004.0</ele><time>2026-05-01T14:09:32Z</time></trkpt><trkpt lat="46.32134254620652" lon="10.058446370616714"><ele>1004.0</ele><time>2026-05-01T14:09:32.999Z</time></trkpt><trkpt lat="46.32121253175319" lon="10.058494530940061"><ele>1004.0</ele><time>2026-05-01T14:09:33.999Z</time></trkpt><trkpt lat="46.32109386253822" lon="10.058552382896641"><ele>1004.0</ele><time>2026-05-01T14:09:34.999Z</time></trkpt><trkpt lat="46.320975496551675" lon="10.058605386968788"><ele>1004.0</ele><time>2026-05-01T14:09:35.999Z</time></trkpt><trkpt lat="46.32085302603022" lon="10.058658649126686"><ele>1004.0</ele><time>2026-05-01T14:09:36.999Z</time></trkpt><trkpt lat="46.320724720192366" lon="10.058706774194643"><ele>1004.0</ele><time>2026-05-01T14:09:37.999Z</time></trkpt><trkpt lat="46.32059447902612" lon="10.058763246394587"><ele>1003.5</ele><time>2026-05-01T14:09:38.999Z</time></trkpt><trkpt lat="46.320464140082464" lon="10.058816889930098"><ele>1003.0</ele><time>2026-05-01T14:09:39.999Z</time></trkpt><trkpt lat="46.3203330086985" lon="10.0588726201317"><ele>1002.5</ele><time>2026-05-01T14:09:40.999Z</time></trkpt><trkpt lat="46.32020103244907" lon="10.058932195032492"><ele>1002.0</ele><time>2026-05-01T14:09:41.999Z</time></trkpt><trkpt lat="46.32006828624594" lon="10.058993143955961"><ele>1002.0</ele><time>2026-05-01T14:09:42.999Z</time></trkpt><trkpt lat="46.31993515615118" lon="10.059052159712826"><ele>1002.0</ele><time>2026-05-01T14:09:43.999Z</time></trkpt><trkpt lat="46.319796340861906" lon="10.059112182129274"><ele>1002.0</ele><time>2026-05-01T14:09:44.999Z</time></trkpt><trkpt lat="46.3196539015352" lon="10.059152969181477"><ele>1002.0</ele><time>2026-05-01T14:09:45.999Z</time></trkpt><trkpt lat="46.31951488069235" lon="10.059175852517154"><ele>1002.0</ele><time>2026-05-01T14:09:46.999Z</time></trkpt><trkpt lat="46.31937052229667" lon="10.059179376201977"><ele>1002.0</ele><time>2026-05-01T14:09:47.999Z</time></trkpt><trkpt lat="46.319225552103966" lon="10.05917742665363"><ele>1002.0</ele><time>2026-05-01T14:09:48.999Z</time></trkpt><trkpt lat="46.31905593656542" lon="10.059182777410877"><ele>1001.6666666666667</ele><time>2026-05-01T14:09:49.999Z</time></trkpt><trkpt lat="46.31888010252177" lon="10.059191656167616"><ele>1001.3333333333334</ele><time>2026-05-01T14:09:50.999Z</time></trkpt><trkpt lat="46.31871126037676" lon="10.059189441746629"><ele>1001.0</ele><time>2026-05-01T14:09:51.999Z</time></trkpt><trkpt lat="46.318543359604206" lon="10.059191795874879"><ele>1001.0</ele><time>2026-05-01T14:09:52.999Z</time></trkpt><trkpt lat="46.31838075051278" lon="10.05919699448855"><ele>1001.0</ele><time>2026-05-01T14:09:53.999Z</time></trkpt><trkpt lat="46.318216942842305" lon="10.059197291443224"><ele>1001.0</ele><time>2026-05-01T14:09:54.999Z</time></trkpt><trkpt lat="46.31806568301954" lon="10.059214205617877"><ele>1001.0</ele><time>2026-05-01T14:09:55.999Z</time></trkpt><trkpt lat="46.317927669334686" lon="10.059265978513858"><ele>1001.0</ele><time>2026-05-01T14:09:56.999Z</time></trkpt><trkpt lat="46.31780130593696" lon="10.059373304744025"><ele>1001.0</ele><time>2026-05-01T14:09:57.999Z</time></trkpt><trkpt lat="46.317690262943046" lon="10.059520393880364"><ele>1001.0</ele><time>2026-05-01T14:09:58.999Z</time></trkpt><trkpt lat="46.31758877730674" lon="10.059664942410969"><ele>1001.0</ele><time>2026-05-01T14:09:59.999Z</time></trkpt><trkpt lat="46.317492161640615" lon="10.059786471964394"><ele>1000.9999999999999</ele><time>2026-05-01T14:10:00.999Z</time></trkpt><trkpt lat="46.31739991443655" lon="10.059891831970791"><ele>1000.9999999999999</ele><time>2026-05-01T14:10:01.999Z</time></trkpt><trkpt lat="46.31731870525762" lon="10.059984519545004"><ele>1001.0</ele><time>2026-05-01T14:10:02.999Z</time></trkpt><trkpt lat="46.31724011398752" lon="10.060033638116412"><ele>1001.0</ele><time>2026-05-01T14:10:03.999Z</time></trkpt><trkpt lat="46.31715361291711" lon="10.06001961721098"><ele>1001.4</ele><time>2026-05-01T14:10:04.999Z</time></trkpt><trkpt lat="46.317073661496316" lon="10.059936089653498"><ele>1001.8</ele><time>2026-05-01T14:10:05.999Z</time></trkpt><trkpt lat="46.31702179799685" lon="10.059798137267805"><ele>1002.1999999999999</ele><time>2026-05-01T14:10:06.999Z</time></trkpt><trkpt lat="46.31694265301832" lon="10.059729094510974"><ele>1002.5999999999999</ele><time>2026-05-01T14:10:07.999Z</time></trkpt><trkpt lat="46.31685767163609" lon="10.05966858570521"><ele>1003.0</ele><time>2026-05-01T14:10:08.999Z</time></trkpt><trkpt lat="46.316736880233925" lon="10.059663134888547"><ele>1003.0</ele><time>2026-05-01T14:10:09.999Z</time></trkpt><trkpt lat="46.31661913659254" lon="10.059705299091682"><ele>1003.0</ele><time>2026-05-01T14:10:10.999Z</time></trkpt><trkpt lat="46.316520391875045" lon="10.059722382544724"><ele>1003.0</ele><time>2026-05-01T14:10:11.999Z</time></trkpt><trkpt lat="46.31642349383067" lon="10.059743042535597"><ele>1003.0</ele><time>2026-05-01T14:10:12.999Z</time></trkpt><trkpt lat="46.316254965767456" lon="10.059858568679722"><ele>1003.25</ele><time>2026-05-01T14:10:13.999Z</time></trkpt><trkpt lat="46.31610755137002" lon="10.05992165226611"><ele>1003.5</ele><time>2026-05-01T14:10:14.999Z</time></trkpt><trkpt lat="46.31597930821354" lon="10.059941607336105"><ele>1003.75</ele><time>2026-05-01T14:10:15.999Z</time></trkpt><trkpt lat="46.31584953549958" lon="10.05997602682436"><ele>1004.0</ele><time>2026-05-01T14:10:16.999Z</time></trkpt><trkpt lat="46.315726463194174" lon="10.06001637454163"><ele>1002.75</ele><time>2026-05-01T14:10:17.999Z</time></trkpt><trkpt lat="46.315596871038956" lon="10.060060613874677"><ele>1001.5</ele><time>2026-05-01T14:10:18.999Z</time></trkpt><trkpt lat="46.31546863482819" lon="10.06010244768341"><ele>1000.25</ele><time>2026-05-01T14:10:19.999Z</time></trkpt><trkpt lat="46.315341092024795" lon="10.060144177151987"><ele>999.0</ele><time>2026-05-01T14:10:20.999Z</time></trkpt><trkpt lat="46.315219869420034" lon="10.060182797114974"><ele>998.75</ele><time>2026-05-01T14:10:21.999Z</time></trkpt><trkpt lat="46.31509594773424" lon="10.060222480683223"><ele>998.5</ele><time>2026-05-01T14:10:22.999Z</time></trkpt><trkpt lat="46.314973402571084" lon="10.060263762138428"><ele>998.25</ele><time>2026-05-01T14:10:23.999Z</time></trkpt><trkpt lat="46.31485414697945" lon="10.0603063885274"><ele>998.0</ele><time>2026-05-01T14:10:24.999Z</time></trkpt><trkpt lat="46.31473428711319" lon="10.06034258075376"><ele>998.0</ele><time>2026-05-01T14:10:25.999Z</time></trkpt><trkpt lat="46.31462116398496" lon="10.060383087421018"><ele>998.0</ele><time>2026-05-01T14:10:26.999Z</time></trkpt><trkpt lat="46.31451144953799" lon="10.060416362248112"><ele>998.0</ele><time>2026-05-01T14:10:27.999Z</time></trkpt><trkpt lat="46.31441546006907" lon="10.0604647065329"><ele>998.0</ele><time>2026-05-01T14:10:28.999Z</time></trkpt><trkpt lat="46.314331830115904" lon="10.060523149762853"><ele>998.0</ele><time>2026-05-01T14:10:29.999Z</time></trkpt><trkpt lat="46.31426011224996" lon="10.060582053506112"><ele>998.0000000000001</ele><time>2026-05-01T14:10:30.999Z</time></trkpt><trkpt lat="46.31420561776783" lon="10.060648160233804"><ele>998.0</ele><time>2026-05-01T14:10:31.999Z</time></trkpt><trkpt lat="46.31415337168465" lon="10.060723140976574"><ele>998.0</ele><time>2026-05-01T14:10:32.999Z</time></trkpt><trkpt lat="46.31410018755452" lon="10.060790339054376"><ele>998.0</ele><time>2026-05-01T14:10:33.999Z</time></trkpt><trkpt lat="46.314040426015" lon="10.060860839929115"><ele>998.0000000000001</ele><time>2026-05-01T14:10:34.999Z</time></trkpt><trkpt lat="46.313976506999666" lon="10.060931380928453"><ele>998.0</ele><time>2026-05-01T14:10:35.999Z</time></trkpt><trkpt lat="46.31390584109531" lon="10.061010154945446"><ele>997.8</ele><time>2026-05-01T14:10:36.999Z</time></trkpt><trkpt lat="46.31382660839043" lon="10.061093897320285"><ele>997.5999999999999</ele><time>2026-05-01T14:10:37.999Z</time></trkpt><trkpt lat="46.31375618742918" lon="10.061169420921878"><ele>997.4000000000001</ele><time>2026-05-01T14:10:38.999Z</time></trkpt><trkpt lat="46.31366714916292" lon="10.061271667783076"><ele>997.2</ele><time>2026-05-01T14:10:40.999Z</time></trkpt><trkpt lat="46.3135942987325" lon="10.061383704029161"><ele>997.0</ele><time>2026-05-01T14:10:42.999Z</time></trkpt><trkpt lat="46.31352693058387" lon="10.061446943982252"><ele>997.0</ele><time>2026-05-01T14:10:44.999Z</time></trkpt><trkpt lat="46.313459727117156" lon="10.061528551373211"><ele>997.0</ele><time>2026-05-01T14:10:45.999Z</time></trkpt><trkpt lat="46.31336552682545" lon="10.061593231979627"><ele>997.0</ele><time>2026-05-01T14:10:46.999Z</time></trkpt><trkpt lat="46.31325917627556" lon="10.061662343630951"><ele>997.0</ele><time>2026-05-01T14:10:48Z</time></trkpt><trkpt lat="46.31316443447628" lon="10.061725783551088"><ele>997.0</ele><time>2026-05-01T14:10:49Z</time></trkpt><trkpt lat="46.31305906208206" lon="10.06179827627555"><ele>995.75</ele><time>2026-05-01T14:10:50Z</time></trkpt><trkpt lat="46.31295929526189" lon="10.061879080780677"><ele>994.5</ele><time>2026-05-01T14:10:51Z</time></trkpt><trkpt lat="46.312787831464206" lon="10.06196240000105"><ele>993.25</ele><time>2026-05-01T14:10:52Z</time></trkpt><trkpt lat="46.31265316459602" lon="10.062045767071302"><ele>992.0</ele><time>2026-05-01T14:10:53Z</time></trkpt><trkpt lat="46.31252545662117" lon="10.062127632178195"><ele>992.0</ele><time>2026-05-01T14:10:54Z</time></trkpt><trkpt lat="46.31240111997619" lon="10.062206209017434"><ele>992.0</ele><time>2026-05-01T14:10:55Z</time></trkpt><trkpt lat="46.312260660657046" lon="10.06228437416789"><ele>992.0</ele><time>2026-05-01T14:10:56Z</time></trkpt><trkpt lat="46.31213944684451" lon="10.062352256830037"><ele>992.0</ele><time>2026-05-01T14:10:57Z</time></trkpt><trkpt lat="46.31199688124438" lon="10.062428202293313"><ele>990.5</ele><time>2026-05-01T14:10:58Z</time></trkpt><trkpt lat="46.31187014129615" lon="10.062500961898326"><ele>989.0</ele><time>2026-05-01T14:10:59Z</time></trkpt><trkpt lat="46.31175338937667" lon="10.062572960546909"><ele>987.5</ele><time>2026-05-01T14:11:00Z</time></trkpt><trkpt lat="46.31164463392709" lon="10.062646604169268"><ele>986.0</ele><time>2026-05-01T14:11:01Z</time></trkpt><trkpt lat="46.31153524486921" lon="10.062715861790952"><ele>986.0</ele><time>2026-05-01T14:11:02Z</time></trkpt><trkpt lat="46.311437248391506" lon="10.062777025208447"><ele>985.9999999999999</ele><time>2026-05-01T14:11:03Z</time></trkpt><trkpt lat="46.311337735299" lon="10.062832967204033"><ele>985.9999999999999</ele><time>2026-05-01T14:11:04Z</time></trkpt><trkpt lat="46.31122967343897" lon="10.06287694157583"><ele>986.0</ele><time>2026-05-01T14:11:05Z</time></trkpt><trkpt lat="46.31112787754686" lon="10.062911480218867"><ele>986.0</ele><time>2026-05-01T14:11:06Z</time></trkpt><trkpt lat="46.31102165336468" lon="10.06295544423101"><ele>985.75</ele><time>2026-05-01T14:11:07Z</time></trkpt><trkpt lat="46.3109175742973" lon="10.063019201161714"><ele>985.5</ele><time>2026-05-01T14:11:08Z</time></trkpt><trkpt lat="46.310815804740756" lon="10.063091242123791"><ele>985.25</ele><time>2026-05-01T14:11:09Z</time></trkpt><trkpt lat="46.310712006573105" lon="10.06316395915764"><ele>985.0</ele><time>2026-05-01T14:11:10Z</time></trkpt><trkpt lat="46.310610251396696" lon="10.063246240977385"><ele>985.0</ele><time>2026-05-01T14:11:11Z</time></trkpt><trkpt lat="46.31051166979164" lon="10.063339131807385"><ele>985.0</ele><time>2026-05-01T14:11:12Z</time></trkpt><trkpt lat="46.310415735592755" lon="10.06343685208463"><ele>985.0</ele><time>2026-05-01T14:11:13Z</time></trkpt><trkpt lat="46.310310749946936" lon="10.063519617685472"><ele>985.0</ele><time>2026-05-01T14:11:14Z</time></trkpt><trkpt lat="46.31020404171105" lon="10.063587669480313"><ele>985.0</ele><time>2026-05-01T14:11:15Z</time></trkpt><trkpt lat="46.310090571698446" lon="10.063655259385303"><ele>985.0</ele><time>2026-05-01T14:11:16Z</time></trkpt><trkpt lat="46.30997661728962" lon="10.063724860255599"><ele>985.0</ele><time>2026-05-01T14:11:17Z</time></trkpt><trkpt lat="46.30985551940105" lon="10.06380422368211"><ele>985.0</ele><time>2026-05-01T14:11:18Z</time></trkpt><trkpt lat="46.30972580271492" lon="10.063889145213771"><ele>984.3333333333333</ele><time>2026-05-01T14:11:19Z</time></trkpt><trkpt lat="46.309578060350745" lon="10.063986192421204"><ele>983.6666666666667</ele><time>2026-05-01T14:11:20Z</time></trkpt><trkpt lat="46.30941551967126" lon="10.0640897572487"><ele>983.0</ele><time>2026-05-01T14:11:21Z</time></trkpt><trkpt lat="46.30923559299503" lon="10.064184207826504"><ele>982.6666666666667</ele><time>2026-05-01T14:11:22Z</time></trkpt><trkpt lat="46.30908901560109" lon="10.064297087562073"><ele>982.3333333333333</ele><time>2026-05-01T14:11:23Z</time></trkpt><trkpt lat="46.308916535099826" lon="10.064407249660748"><ele>982.0</ele><time>2026-05-01T14:11:24Z</time></trkpt><trkpt lat="46.30873512900992" lon="10.06452158838424"><ele>982.0</ele><time>2026-05-01T14:11:25Z</time></trkpt><trkpt lat="46.30857465120233" lon="10.064633520543575"><ele>982.0</ele><time>2026-05-01T14:11:26Z</time></trkpt><trkpt lat="46.308397104786444" lon="10.064743972662827"><ele>982.0</ele><time>2026-05-01T14:11:27Z</time></trkpt><trkpt lat="46.30822416171646" lon="10.064850521533927"><ele>981.3333333333333</ele><time>2026-05-01T14:11:28Z</time></trkpt><trkpt lat="46.30804810415408" lon="10.064954774563434"><ele>980.6666666666667</ele><time>2026-05-01T14:11:29Z</time></trkpt><trkpt lat="46.3078779220353" lon="10.065068309408284"><ele>980.0</ele><time>2026-05-01T14:11:30Z</time></trkpt><trkpt lat="46.30770547762305" lon="10.06518406873175"><ele>980.0</ele><time>2026-05-01T14:11:31Z</time></trkpt><trkpt lat="46.307529259325776" lon="10.06530776367137"><ele>980.0</ele><time>2026-05-01T14:11:32Z</time></trkpt><trkpt lat="46.3073524394311" lon="10.06544303478185"><ele>980.0</ele><time>2026-05-01T14:11:33Z</time></trkpt><trkpt lat="46.307178019290625" lon="10.065579570187767"><ele>980.3333333333334</ele><time>2026-05-01T14:11:34Z</time></trkpt><trkpt lat="46.307000575885695" lon="10.06571418824684"><ele>980.6666666666667</ele><time>2026-05-01T14:11:35Z</time></trkpt><trkpt lat="46.306832812749334" lon="10.065847943402547"><ele>981.0</ele><time>2026-05-01T14:11:36Z</time></trkpt><trkpt lat="46.306668541346724" lon="10.065976582397484"><ele>980.3333333333333</ele><time>2026-05-01T14:11:37Z</time></trkpt><trkpt lat="46.30650798054549" lon="10.066089997935478"><ele>979.6666666666666</ele><time>2026-05-01T14:11:38Z</time></trkpt><trkpt lat="46.3063640491703" lon="10.066212705868242"><ele>979.0</ele><time>2026-05-01T14:11:38.999Z</time></trkpt><trkpt lat="46.30621379092207" lon="10.06632816807367"><ele>979.3333333333333</ele><time>2026-05-01T14:11:39.999Z</time></trkpt><trkpt lat="46.30605753280597" lon="10.066441664916333"><ele>979.6666666666667</ele><time>2026-05-01T14:11:40.999Z</time></trkpt><trkpt lat="46.305907928067334" lon="10.06656951033067"><ele>980.0</ele><time>2026-05-01T14:11:41.999Z</time></trkpt><trkpt lat="46.30576377770542" lon="10.066684918758103"><ele>980.0</ele><time>2026-05-01T14:11:42.999Z</time></trkpt><trkpt lat="46.3056237073247" lon="10.066792329870323"><ele>980.0</ele><time>2026-05-01T14:11:43.999Z</time></trkpt><trkpt lat="46.305481652403344" lon="10.066894629007972"><ele>980.0</ele><time>2026-05-01T14:11:44.999Z</time></trkpt><trkpt lat="46.305350412114635" lon="10.066996371492985"><ele>980.0</ele><time>2026-05-01T14:11:45.999Z</time></trkpt><trkpt lat="46.305226181204766" lon="10.067103088565043"><ele>980.0</ele><time>2026-05-01T14:11:46.999Z</time></trkpt><trkpt lat="46.30510631790833" lon="10.067222089598824"><ele>980.0</ele><time>2026-05-01T14:11:47.999Z</time></trkpt><trkpt lat="46.30499966576495" lon="10.067383716099242"><ele>980.0</ele><time>2026-05-01T14:11:48.999Z</time></trkpt><trkpt lat="46.30491587791023" lon="10.067564255667756"><ele>980.0</ele><time>2026-05-01T14:11:49.999Z</time></trkpt><trkpt lat="46.30485158315314" lon="10.067771111374144"><ele>980.0</ele><time>2026-05-01T14:11:50.999Z</time></trkpt><trkpt lat="46.304795653073974" lon="10.067973177819162"><ele>980.0</ele><time>2026-05-01T14:11:51.999Z</time></trkpt><trkpt lat="46.304732695253065" lon="10.068179505330571"><ele>984.3333333333334</ele><time>2026-05-01T14:11:52.999Z</time></trkpt><trkpt lat="46.30466883055129" lon="10.068383117605201"><ele>988.6666666666667</ele><time>2026-05-01T14:11:53.999Z</time></trkpt><trkpt lat="46.30460135313122" lon="10.06859383253716"><ele>993.0</ele><time>2026-05-01T14:11:54.999Z</time></trkpt><trkpt lat="46.304528452645904" lon="10.06881193739658"><ele>993.0</ele><time>2026-05-01T14:11:55.999Z</time></trkpt><trkpt lat="46.30445865802441" lon="10.069030965053017"><ele>993.0</ele><time>2026-05-01T14:11:56.999Z</time></trkpt><trkpt lat="46.30437820213233" lon="10.069272211265133"><ele>993.0</ele><time>2026-05-01T14:11:57.999Z</time></trkpt><trkpt lat="46.304295021389265" lon="10.069517117343537"><ele>991.0</ele><time>2026-05-01T14:11:58.999Z</time></trkpt><trkpt lat="46.304215213597" lon="10.069771786983125"><ele>989.0</ele><time>2026-05-01T14:11:59.999Z</time></trkpt><trkpt lat="46.30413154899164" lon="10.070041278128983"><ele>987.0</ele><time>2026-05-01T14:12:00.999Z</time></trkpt><trkpt lat="46.3040382070902" lon="10.070289799190943"><ele>985.3333333333333</ele><time>2026-05-01T14:12:01.999Z</time></trkpt><trkpt lat="46.30393982188633" lon="10.07050719699862"><ele>983.6666666666666</ele><time>2026-05-01T14:12:02.999Z</time></trkpt><trkpt lat="46.303824360234074" lon="10.070710940129938"><ele>982.0</ele><time>2026-05-01T14:12:03.999Z</time></trkpt><trkpt lat="46.3036948878482" lon="10.070895862536474"><ele>982.0</ele><time>2026-05-01T14:12:04.999Z</time></trkpt><trkpt lat="46.3035272676548" lon="10.071046639089445"><ele>982.0</ele><time>2026-05-01T14:12:05.999Z</time></trkpt><trkpt lat="46.30334825053525" lon="10.071122204657165"><ele>982.0</ele><time>2026-05-01T14:12:06.999Z</time></trkpt><trkpt lat="46.30317580052622" lon="10.071180029347198"><ele>983.6666666666666</ele><time>2026-05-01T14:12:07.999Z</time></trkpt><trkpt lat="46.30298544487212" lon="10.071248390745538"><ele>985.3333333333333</ele><time>2026-05-01T14:12:08.999Z</time></trkpt><trkpt lat="46.302789781826014" lon="10.071280627454495"><ele>987.0</ele><time>2026-05-01T14:12:09.999Z</time></trkpt><trkpt lat="46.3025749631492" lon="10.071332695107548"><ele>987.0</ele><time>2026-05-01T14:12:10.999Z</time></trkpt><trkpt lat="46.3023347069716" lon="10.07138763675258"><ele>987.0</ele><time>2026-05-01T14:12:11.999Z</time></trkpt><trkpt lat="46.30208436547448" lon="10.071453271882806"><ele>991.0</ele><time>2026-05-01T14:12:12.999Z</time></trkpt><trkpt lat="46.301829550256926" lon="10.071510222778096"><ele>995.0</ele><time>2026-05-01T14:12:13.999Z</time></trkpt><trkpt lat="46.30159271188801" lon="10.071570563628413"><ele>996.6666666666667</ele><time>2026-05-01T14:12:14.999Z</time></trkpt><trkpt lat="46.30137292516486" lon="10.071639066616786"><ele>998.3333333333333</ele><time>2026-05-01T14:12:15.999Z</time></trkpt><trkpt lat="46.30116979615882" lon="10.071724086849427"><ele>1000.0</ele><time>2026-05-01T14:12:16.999Z</time></trkpt><trkpt lat="46.30098096216333" lon="10.071843070739387"><ele>1000.0</ele><time>2026-05-01T14:12:17.999Z</time></trkpt><trkpt lat="46.30079759979371" lon="10.072007198774816"><ele>1000.0</ele><time>2026-05-01T14:12:18.999Z</time></trkpt><trkpt lat="46.30061405487335" lon="10.07220050361512"><ele>1000.0</ele><time>2026-05-01T14:12:19.999Z</time></trkpt><trkpt lat="46.300437123702665" lon="10.0723925035694"><ele>999.6666666666666</ele><time>2026-05-01T14:12:20.999Z</time></trkpt><trkpt lat="46.3002603998419" lon="10.072573786801845"><ele>999.3333333333333</ele><time>2026-05-01T14:12:21.999Z</time></trkpt><trkpt lat="46.30008837365028" lon="10.072742912713622"><ele>999.0</ele><time>2026-05-01T14:12:22.999Z</time></trkpt><trkpt lat="46.29990585180319" lon="10.072924844499454"><ele>1001.5</ele><time>2026-05-01T14:12:23.999Z</time></trkpt><trkpt lat="46.2997167344323" lon="10.07309645928579"><ele>1004.0</ele><time>2026-05-01T14:12:24.999Z</time></trkpt><trkpt lat="46.29952739275988" lon="10.073276276472727"><ele>996.6666666666667</ele><time>2026-05-01T14:12:25.999Z</time></trkpt><trkpt lat="46.299342015062514" lon="10.073451694426087"><ele>989.3333333333333</ele><time>2026-05-01T14:12:26.999Z</time></trkpt><trkpt lat="46.29915163553546" lon="10.073630355817212"><ele>982.0</ele><time>2026-05-01T14:12:27.999Z</time></trkpt><trkpt lat="46.29895923576871" lon="10.073811000428789"><ele>980.5</ele><time>2026-05-01T14:12:28.999Z</time></trkpt><trkpt lat="46.29876439568227" lon="10.073993312823935"><ele>979.0</ele><time>2026-05-01T14:12:29.999Z</time></trkpt><trkpt lat="46.29857031153111" lon="10.074179414642787"><ele>974.5</ele><time>2026-05-01T14:12:30.999Z</time></trkpt><trkpt lat="46.298376255043316" lon="10.074359735922096"><ele>970.0</ele><time>2026-05-01T14:12:31.999Z</time></trkpt><trkpt lat="46.29818268140631" lon="10.074542486753915"><ele>970.0</ele><time>2026-05-01T14:12:32.999Z</time></trkpt><trkpt lat="46.297984027246315" lon="10.074726806306446"><ele>970.0</ele><time>2026-05-01T14:12:33.999Z</time></trkpt><trkpt lat="46.29779342105546" lon="10.07490843357372"><ele>969.6666666666666</ele><time>2026-05-01T14:12:34.999Z</time></trkpt><trkpt lat="46.297616179388505" lon="10.07508199681966"><ele>969.3333333333333</ele><time>2026-05-01T14:12:35.999Z</time></trkpt><trkpt lat="46.29743909806329" lon="10.075256863802197"><ele>969.0</ele><time>2026-05-01T14:12:36.999Z</time></trkpt><trkpt lat="46.29725325954898" lon="10.075422365219165"><ele>969.0</ele><time>2026-05-01T14:12:37.999Z</time></trkpt><trkpt lat="46.29713147461232" lon="10.0755479620825"><ele>969.0</ele><time>2026-05-01T14:12:38.999Z</time></trkpt><trkpt lat="46.29699374891208" lon="10.075675354883286"><ele>969.0</ele><time>2026-05-01T14:12:39.999Z</time></trkpt><trkpt lat="46.296860687303884" lon="10.075801683208196"><ele>968.25</ele><time>2026-05-01T14:12:40.999Z</time></trkpt><trkpt lat="46.29673499306228" lon="10.075919440682524"><ele>967.5</ele><time>2026-05-01T14:12:41.999Z</time></trkpt><trkpt lat="46.29661265552756" lon="10.076036557681068"><ele>966.75</ele><time>2026-05-01T14:12:42.999Z</time></trkpt><trkpt lat="46.296502545888316" lon="10.076145722792253"><ele>966.0</ele><time>2026-05-01T14:12:43.999Z</time></trkpt><trkpt lat="46.29639575203174" lon="10.076254088047197"><ele>966.0</ele><time>2026-05-01T14:12:44.999Z</time></trkpt><trkpt lat="46.296291329503106" lon="10.07635462095433"><ele>966.0</ele><time>2026-05-01T14:12:45.999Z</time></trkpt><trkpt lat="46.29618852805704" lon="10.07644952218781"><ele>966.0</ele><time>2026-05-01T14:12:46.999Z</time></trkpt><trkpt lat="46.29608598020025" lon="10.076550370114427"><ele>966.0</ele><time>2026-05-01T14:12:47.999Z</time></trkpt><trkpt lat="46.29597440858848" lon="10.076652289808257"><ele>966.5</ele><time>2026-05-01T14:12:48.999Z</time></trkpt><trkpt lat="46.29586223742503" lon="10.07676161138829"><ele>967.0</ele><time>2026-05-01T14:12:49.999Z</time></trkpt><trkpt lat="46.29575065105522" lon="10.076868665578905"><ele>967.5</ele><time>2026-05-01T14:12:50.999Z</time></trkpt><trkpt lat="46.295642209052026" lon="10.076980113595111"><ele>968.0</ele><time>2026-05-01T14:12:51.999Z</time></trkpt><trkpt lat="46.295537172788556" lon="10.077092219285824"><ele>968.0</ele><time>2026-05-01T14:12:52.999Z</time></trkpt><trkpt lat="46.29542187788908" lon="10.077195132957026"><ele>968.0</ele><time>2026-05-01T14:12:54Z</time></trkpt><trkpt lat="46.2953112749491" lon="10.077301456580786"><ele>968.0</ele><time>2026-05-01T14:12:55Z</time></trkpt><trkpt lat="46.295197713821544" lon="10.077411469263367"><ele>968.0</ele><time>2026-05-01T14:12:56Z</time></trkpt><trkpt lat="46.29508205328907" lon="10.077516797353729"><ele>967.5</ele><time>2026-05-01T14:12:57Z</time></trkpt><trkpt lat="46.294968224520524" lon="10.077602239417628"><ele>967.0</ele><time>2026-05-01T14:12:58Z</time></trkpt><trkpt lat="46.29484916598345" lon="10.077657551461519"><ele>966.5</ele><time>2026-05-01T14:12:59Z</time></trkpt><trkpt lat="46.29473483106153" lon="10.077717513771484"><ele>966.0</ele><time>2026-05-01T14:13:00Z</time></trkpt><trkpt lat="46.294590409703325" lon="10.077725102863218"><ele>966.0</ele><time>2026-05-01T14:13:01Z</time></trkpt><trkpt lat="46.2944196468669" lon="10.077730085529053"><ele>966.0</ele><time>2026-05-01T14:13:02Z</time></trkpt><trkpt lat="46.29428398653583" lon="10.077746661348598"><ele>966.0</ele><time>2026-05-01T14:13:03Z</time></trkpt><trkpt lat="46.29413795328698" lon="10.077754443161888"><ele>966.0</ele><time>2026-05-01T14:13:04Z</time></trkpt><trkpt lat="46.293986624667745" lon="10.077762728832612"><ele>966.0</ele><time>2026-05-01T14:13:05Z</time></trkpt><trkpt lat="46.293828095312605" lon="10.077779637136485"><ele>966.0</ele><time>2026-05-01T14:13:06Z</time></trkpt><trkpt lat="46.29367253450572" lon="10.077795457639892"><ele>966.0</ele><time>2026-05-01T14:13:07Z</time></trkpt><trkpt lat="46.29351826984846" lon="10.077817669385821"><ele>966.0</ele><time>2026-05-01T14:13:08Z</time></trkpt><trkpt lat="46.293372170996875" lon="10.077836301782458"><ele>966.0</ele><time>2026-05-01T14:13:09Z</time></trkpt><trkpt lat="46.29323548703941" lon="10.077863050106806"><ele>966.0</ele><time>2026-05-01T14:13:10Z</time></trkpt><trkpt lat="46.29310267663659" lon="10.077880717622515"><ele>966.25</ele><time>2026-05-01T14:13:11Z</time></trkpt><trkpt lat="46.292959790544664" lon="10.07789408135619"><ele>966.5</ele><time>2026-05-01T14:13:12Z</time></trkpt><trkpt lat="46.29281825978644" lon="10.077909751357621"><ele>966.75</ele><time>2026-05-01T14:13:13Z</time></trkpt><trkpt lat="46.292680188921345" lon="10.077929880187005"><ele>967.0</ele><time>2026-05-01T14:13:14Z</time></trkpt><trkpt lat="46.29254568047869" lon="10.077943599154175"><ele>967.0</ele><time>2026-05-01T14:13:15Z</time></trkpt><trkpt lat="46.292414918574195" lon="10.077957149865401"><ele>967.0</ele><time>2026-05-01T14:13:16Z</time></trkpt><trkpt lat="46.29228135084436" lon="10.077968650189002"><ele>967.0</ele><time>2026-05-01T14:13:17Z</time></trkpt><trkpt lat="46.29214429839849" lon="10.07798252906828"><ele>967.0</ele><time>2026-05-01T14:13:18Z</time></trkpt><trkpt lat="46.29200652338123" lon="10.07800278218281"><ele>968.5</ele><time>2026-05-01T14:13:19Z</time></trkpt><trkpt lat="46.2918719912644" lon="10.078016341926013"><ele>970.0</ele><time>2026-05-01T14:13:20Z</time></trkpt><trkpt lat="46.291745318999304" lon="10.078028510974535"><ele>971.5</ele><time>2026-05-01T14:13:21Z</time></trkpt><trkpt lat="46.291620353684166" lon="10.078046991648668"><ele>973.0</ele><time>2026-05-01T14:13:22Z</time></trkpt><trkpt lat="46.29149904015238" lon="10.0780624913502"><ele>978.75</ele><time>2026-05-01T14:13:23Z</time></trkpt><trkpt lat="46.29137966937353" lon="10.07807518909934"><ele>984.5</ele><time>2026-05-01T14:13:24Z</time></trkpt><trkpt lat="46.291268189479325" lon="10.078101492591907"><ele>990.25</ele><time>2026-05-01T14:13:25Z</time></trkpt><trkpt lat="46.29114184838929" lon="10.07809561675625"><ele>996.0</ele><time>2026-05-01T14:13:26Z</time></trkpt><trkpt lat="46.29101180345504" lon="10.078089084652888"><ele>996.0</ele><time>2026-05-01T14:13:27Z</time></trkpt><trkpt lat="46.290880607889314" lon="10.078089239908728"><ele>996.0</ele><time>2026-05-01T14:13:28Z</time></trkpt><trkpt lat="46.29074702038871" lon="10.078099652008238"><ele>996.0</ele><time>2026-05-01T14:13:29Z</time></trkpt><trkpt lat="46.29060952632225" lon="10.078115144188148"><ele>996.0</ele><time>2026-05-01T14:13:30Z</time></trkpt><trkpt lat="46.290478299776964" lon="10.078129868683362"><ele>1000.5</ele><time>2026-05-01T14:13:31Z</time></trkpt><trkpt lat="46.290355543757485" lon="10.078145853924413"><ele>1005.0</ele><time>2026-05-01T14:13:32Z</time></trkpt><trkpt lat="46.290235391756795" lon="10.0781577154365"><ele>1009.5</ele><time>2026-05-01T14:13:33Z</time></trkpt><trkpt lat="46.29012729784298" lon="10.078171452168625"><ele>1014.0</ele><time>2026-05-01T14:13:34Z</time></trkpt><trkpt lat="46.290028098311055" lon="10.078192720484079"><ele>1014.0</ele><time>2026-05-01T14:13:35Z</time></trkpt><trkpt lat="46.28993132613099" lon="10.078213618930512"><ele>1014.0000000000001</ele><time>2026-05-01T14:13:35.999Z</time></trkpt><trkpt lat="46.28983830823682" lon="10.07822641857029"><ele>1014.0000000000001</ele><time>2026-05-01T14:13:36.999Z</time></trkpt><trkpt lat="46.28974619999829" lon="10.07825418540578"><ele>1014.0</ele><time>2026-05-01T14:13:37.999Z</time></trkpt><trkpt lat="46.289645363044045" lon="10.078271007449262"><ele>1014.0</ele><time>2026-05-01T14:13:38.999Z</time></trkpt><trkpt lat="46.28954347872041" lon="10.07825230989781"><ele>1007.6</ele><time>2026-05-01T14:13:39.999Z</time></trkpt><trkpt lat="46.289438883468655" lon="10.078275803849996"><ele>1001.2</ele><time>2026-05-01T14:13:40.999Z</time></trkpt><trkpt lat="46.28932722159999" lon="10.0782895941725"><ele>994.8000000000001</ele><time>2026-05-01T14:13:41.999Z</time></trkpt><trkpt lat="46.28921663958628" lon="10.078305631138004"><ele>988.4000000000001</ele><time>2026-05-01T14:13:42.999Z</time></trkpt><trkpt lat="46.28910348896454" lon="10.078294426140795"><ele>982.0</ele><time>2026-05-01T14:13:43.999Z</time></trkpt><trkpt lat="46.28899753086637" lon="10.078274287925494"><ele>979.8</ele><time>2026-05-01T14:13:44.999Z</time></trkpt><trkpt lat="46.2888929873286" lon="10.078261765603235"><ele>977.6</ele><time>2026-05-01T14:13:45.999Z</time></trkpt><trkpt lat="46.28878699674569" lon="10.078269978112969"><ele>975.3999999999999</ele><time>2026-05-01T14:13:46.999Z</time></trkpt><trkpt lat="46.28868125970015" lon="10.078309072516666"><ele>973.1999999999999</ele><time>2026-05-01T14:13:47.999Z</time></trkpt><trkpt lat="46.288578252892954" lon="10.078369205894049"><ele>971.0</ele><time>2026-05-01T14:13:48.999Z</time></trkpt><trkpt lat="46.28847731587497" lon="10.078466370899616"><ele>971.0</ele><time>2026-05-01T14:13:49.999Z</time></trkpt><trkpt lat="46.28838226546942" lon="10.078587762545789"><ele>971.0</ele><time>2026-05-01T14:13:50.999Z</time></trkpt><trkpt lat="46.28829169087656" lon="10.078733405396445"><ele>971.0</ele><time>2026-05-01T14:13:51.999Z</time></trkpt><trkpt lat="46.28818743224834" lon="10.078916152867643"><ele>971.0</ele><time>2026-05-01T14:13:52.999Z</time></trkpt><trkpt lat="46.28808555750434" lon="10.079081228198994"><ele>972.0</ele><time>2026-05-01T14:13:53.999Z</time></trkpt><trkpt lat="46.28797428176725" lon="10.079251662458994"><ele>973.0</ele><time>2026-05-01T14:13:54.999Z</time></trkpt><trkpt lat="46.28783743891752" lon="10.079380560177068"><ele>974.0</ele><time>2026-05-01T14:13:55.999Z</time></trkpt><trkpt lat="46.28770561201969" lon="10.079514455032609"><ele>974.0</ele><time>2026-05-01T14:13:56.999Z</time></trkpt><trkpt lat="46.28756083544302" lon="10.079623370653096"><ele>974.0</ele><time>2026-05-01T14:13:57.999Z</time></trkpt><trkpt lat="46.287423704564105" lon="10.079711601384249"><ele>974.0</ele><time>2026-05-01T14:13:58.999Z</time></trkpt><trkpt lat="46.28726415197393" lon="10.079817743220556"><ele>973.6666666666667</ele><time>2026-05-01T14:13:59.999Z</time></trkpt><trkpt lat="46.287109752103504" lon="10.079924597516557"><ele>973.3333333333333</ele><time>2026-05-01T14:14:00.999Z</time></trkpt><trkpt lat="46.28694705032452" lon="10.080036399468634"><ele>973.0</ele><time>2026-05-01T14:14:01.999Z</time></trkpt><trkpt lat="46.28676976365189" lon="10.080165488021663"><ele>973.0</ele><time>2026-05-01T14:14:02.999Z</time></trkpt><trkpt lat="46.28657966545135" lon="10.08029944484257"><ele>973.0</ele><time>2026-05-01T14:14:03.999Z</time></trkpt><trkpt lat="46.286382005070976" lon="10.080460823437829"><ele>973.0</ele><time>2026-05-01T14:14:04.999Z</time></trkpt><trkpt lat="46.28620271131895" lon="10.080635005538788"><ele>971.0</ele><time>2026-05-01T14:14:05.999Z</time></trkpt><trkpt lat="46.2860358139154" lon="10.08078226099581"><ele>969.0</ele><time>2026-05-01T14:14:06.999Z</time></trkpt><trkpt lat="46.28587479908686" lon="10.08091555034575"><ele>967.0</ele><time>2026-05-01T14:14:07.999Z</time></trkpt><trkpt lat="46.28571876012954" lon="10.0810256092543"><ele>970.3333333333333</ele><time>2026-05-01T14:14:08.999Z</time></trkpt><trkpt lat="46.28555522098124" lon="10.081078972429596"><ele>973.6666666666667</ele><time>2026-05-01T14:14:09.999Z</time></trkpt><trkpt lat="46.28540421362196" lon="10.081151679887506"><ele>977.0</ele><time>2026-05-01T14:14:10.999Z</time></trkpt><trkpt lat="46.285243180226225" lon="10.081142520141427"><ele>977.0</ele><time>2026-05-01T14:14:11.999Z</time></trkpt><trkpt lat="46.28507415536638" lon="10.081124432077907"><ele>977.0</ele><time>2026-05-01T14:14:12.999Z</time></trkpt><trkpt lat="46.28490483286658" lon="10.081107688485838"><ele>977.0</ele><time>2026-05-01T14:14:13.999Z</time></trkpt><trkpt lat="46.28473537065371" lon="10.081105210409651"><ele>987.3333333333334</ele><time>2026-05-01T14:14:14.999Z</time></trkpt><trkpt lat="46.284559887235154" lon="10.081121976820524"><ele>997.6666666666667</ele><time>2026-05-01T14:14:15.999Z</time></trkpt><trkpt lat="46.28438623208264" lon="10.081219061849655"><ele>1008.0</ele><time>2026-05-01T14:14:16.999Z</time></trkpt><trkpt lat="46.28422095823343" lon="10.081376028268442"><ele>1008.0</ele><time>2026-05-01T14:14:17.999Z</time></trkpt><trkpt lat="46.28406592226206" lon="10.081564985178154"><ele>1008.0</ele><time>2026-05-01T14:14:18.999Z</time></trkpt><trkpt lat="46.28390595471587" lon="10.08176297496631"><ele>1008.0</ele><time>2026-05-01T14:14:19.999Z</time></trkpt><trkpt lat="46.28371136463" lon="10.081923736090582"><ele>1013.5</ele><time>2026-05-01T14:14:20.999Z</time></trkpt><trkpt lat="46.283489989095386" lon="10.082047204098624"><ele>1019.0</ele><time>2026-05-01T14:14:21.999Z</time></trkpt><trkpt lat="46.28325240783367" lon="10.082177157760134"><ele>1033.0</ele><time>2026-05-01T14:14:22.999Z</time></trkpt><trkpt lat="46.28303472274089" lon="10.08235820839706"><ele>1047.0</ele><time>2026-05-01T14:14:23.999Z</time></trkpt><trkpt lat="46.282831444958006" lon="10.082580027808794"><ele>1047.0</ele><time>2026-05-01T14:14:24.999Z</time></trkpt><trkpt lat="46.28264724459367" lon="10.08283194892025"><ele>1047.0</ele><time>2026-05-01T14:14:25.999Z</time></trkpt><trkpt lat="46.282490258341646" lon="10.083106877456554"><ele>1046.0</ele><time>2026-05-01T14:14:26.999Z</time></trkpt><trkpt lat="46.28236204470897" lon="10.08337202404009"><ele>1045.0</ele><time>2026-05-01T14:14:27.999Z</time></trkpt><trkpt lat="46.28225050270802" lon="10.083617721236042"><ele>1044.0</ele><time>2026-05-01T14:14:28.999Z</time></trkpt><trkpt lat="46.28211564362989" lon="10.083829260994063"><ele>1044.0</ele><time>2026-05-01T14:14:29.999Z</time></trkpt><trkpt lat="46.281924370859386" lon="10.084010980711735"><ele>1044.0</ele><time>2026-05-01T14:14:30.999Z</time></trkpt><trkpt lat="46.28171861546742" lon="10.084118637972011"><ele>1044.0</ele><time>2026-05-01T14:14:31.999Z</time></trkpt><trkpt lat="46.281511620053855" lon="10.084266670164869"><ele>1036.0</ele><time>2026-05-01T14:14:32.999Z</time></trkpt><trkpt lat="46.28129020833027" lon="10.08440005075043"><ele>1028.0</ele><time>2026-05-01T14:14:33.999Z</time></trkpt><trkpt lat="46.281061686176784" lon="10.084536676025682"><ele>1028.0</ele><time>2026-05-01T14:14:34.999Z</time></trkpt><trkpt lat="46.28082715979559" lon="10.084695020395703"><ele>1028.0</ele><time>2026-05-01T14:14:35.999Z</time></trkpt><trkpt lat="46.28060953544446" lon="10.084851846861397"><ele>1029.5</ele><time>2026-05-01T14:14:36.999Z</time></trkpt><trkpt lat="46.28039002290099" lon="10.08504894217269"><ele>1031.0</ele><time>2026-05-01T14:14:37.999Z</time></trkpt><trkpt lat="46.28017275651448" lon="10.085276047920958"><ele>1031.0</ele><time>2026-05-01T14:14:38.999Z</time></trkpt><trkpt lat="46.279953897615854" lon="10.08552253192231"><ele>1031.0</ele><time>2026-05-01T14:14:39.999Z</time></trkpt><trkpt lat="46.27972306093495" lon="10.085798729194165"><ele>1030.0</ele><time>2026-05-01T14:14:40.999Z</time></trkpt><trkpt lat="46.27950916122253" lon="10.086032246152092"><ele>1029.0</ele><time>2026-05-01T14:14:41.999Z</time></trkpt><trkpt lat="46.27930919619594" lon="10.086238675080233"><ele>1029.0</ele><time>2026-05-01T14:14:42.999Z</time></trkpt><trkpt lat="46.27912991987116" lon="10.086440123489522"><ele>1029.0</ele><time>2026-05-01T14:14:43.999Z</time></trkpt><trkpt lat="46.27897407534514" lon="10.086651276161975"><ele>1029.0</ele><time>2026-05-01T14:14:44.999Z</time></trkpt><trkpt lat="46.278861979141006" lon="10.086890327924708"><ele>1030.3333333333333</ele><time>2026-05-01T14:14:45.999Z</time></trkpt><trkpt lat="46.27878369719362" lon="10.087168357573992"><ele>1031.6666666666665</ele><time>2026-05-01T14:14:46.999Z</time></trkpt><trkpt lat="46.27873493798841" lon="10.087455130386301"><ele>1033.0</ele><time>2026-05-01T14:14:47.999Z</time></trkpt><trkpt lat="46.27862537259711" lon="10.087651491801832"><ele>1024.0</ele><time>2026-05-01T14:14:48.999Z</time></trkpt><trkpt lat="46.278503644410165" lon="10.087807557153189"><ele>1015.0</ele><time>2026-05-01T14:14:49.999Z</time></trkpt><trkpt lat="46.27835963056195" lon="10.087961271482175"><ele>1006.0</ele><time>2026-05-01T14:14:50.999Z</time></trkpt><trkpt lat="46.278169560066374" lon="10.088083134941469"><ele>1008.0</ele><time>2026-05-01T14:14:51.999Z</time></trkpt><trkpt lat="46.27798048963097" lon="10.088187875072558"><ele>1010.0</ele><time>2026-05-01T14:14:52.999Z</time></trkpt><trkpt lat="46.2777988212105" lon="10.088314799952144"><ele>1012.0</ele><time>2026-05-01T14:14:53.999Z</time></trkpt><trkpt lat="46.277633535192784" lon="10.088516756622544"><ele>1012.0</ele><time>2026-05-01T14:14:54.999Z</time></trkpt><trkpt lat="46.27748916593319" lon="10.088707902339369"><ele>1012.0</ele><time>2026-05-01T14:14:55.999Z</time></trkpt><trkpt lat="46.27734104401226" lon="10.088889422238685"><ele>1012.0</ele><time>2026-05-01T14:14:56.999Z</time></trkpt><trkpt lat="46.27718246549609" lon="10.089050807736415"><ele>1016.3333333333333</ele><time>2026-05-01T14:14:57.999Z</time></trkpt><trkpt lat="46.27702132543927" lon="10.08916726873517"><ele>1020.6666666666667</ele><time>2026-05-01T14:14:58.999Z</time></trkpt><trkpt lat="46.27689017298037" lon="10.089242794073387"><ele>1025.0</ele><time>2026-05-01T14:14:59.999Z</time></trkpt><trkpt lat="46.276765924382296" lon="10.089333529687266"><ele>1025.0</ele><time>2026-05-01T14:15:00.999Z</time></trkpt><trkpt lat="46.27664712194345" lon="10.08944219417846"><ele>1025.0</ele><time>2026-05-01T14:15:01.999Z</time></trkpt><trkpt lat="46.27652809455291" lon="10.089564395057081"><ele>1025.0</ele><time>2026-05-01T14:15:02.999Z</time></trkpt><trkpt lat="46.27642263690053" lon="10.089694813190519"><ele>1025.0</ele><time>2026-05-01T14:15:03.999Z</time></trkpt><trkpt lat="46.27633276948436" lon="10.08986379955365"><ele>1020.3333333333334</ele><time>2026-05-01T14:15:04.999Z</time></trkpt><trkpt lat="46.276251843030366" lon="10.090066012665606"><ele>1015.6666666666667</ele><time>2026-05-01T14:15:05.999Z</time></trkpt><trkpt lat="46.27617355076509" lon="10.090289221212148"><ele>1011.0</ele><time>2026-05-01T14:15:06.999Z</time></trkpt><trkpt lat="46.27614031885785" lon="10.090586598948246"><ele>1002.0</ele><time>2026-05-01T14:15:07.999Z</time></trkpt><trkpt lat="46.27610216726046" lon="10.090899775854433"><ele>993.0</ele><time>2026-05-01T14:15:09Z</time></trkpt><trkpt lat="46.27606599065604" lon="10.091194857792134"><ele>984.0</ele><time>2026-05-01T14:15:10Z</time></trkpt><trkpt lat="46.276020782413376" lon="10.09146681980978"><ele>981.0</ele><time>2026-05-01T14:15:11Z</time></trkpt><trkpt lat="46.27596180617175" lon="10.091692428710155"><ele>978.0</ele><time>2026-05-01T14:15:12Z</time></trkpt><trkpt lat="46.27588254258276" lon="10.091894687480497"><ele>975.0</ele><time>2026-05-01T14:15:13Z</time></trkpt><trkpt lat="46.275782877543776" lon="10.092065309074105"><ele>975.0</ele><time>2026-05-01T14:15:14Z</time></trkpt><trkpt lat="46.27567280009" lon="10.092216650928785"><ele>975.0</ele><time>2026-05-01T14:15:15Z</time></trkpt><trkpt lat="46.27555672010658" lon="10.092331660485758"><ele>975.0</ele><time>2026-05-01T14:15:16Z</time></trkpt><trkpt lat="46.27544174950731" lon="10.092451333795953"><ele>975.0</ele><time>2026-05-01T14:15:17Z</time></trkpt><trkpt lat="46.275305438713204" lon="10.092505386585138"><ele>974.75</ele><time>2026-05-01T14:15:18Z</time></trkpt><trkpt lat="46.2751831637412" lon="10.092566156843462"><ele>974.5</ele><time>2026-05-01T14:15:19Z</time></trkpt><trkpt lat="46.27505271664025" lon="10.092630990226413"><ele>974.25</ele><time>2026-05-01T14:15:20Z</time></trkpt><trkpt lat="46.27492180424698" lon="10.092706021398776"><ele>974.0</ele><time>2026-05-01T14:15:21Z</time></trkpt><trkpt lat="46.274803022152874" lon="10.092816455227895"><ele>987.3333333333334</ele><time>2026-05-01T14:15:22Z</time></trkpt><trkpt lat="46.274705270724645" lon="10.092965544185848"><ele>1000.6666666666667</ele><time>2026-05-01T14:15:23Z</time></trkpt><trkpt lat="46.27461314122885" lon="10.093152159928655"><ele>1014.0</ele><time>2026-05-01T14:15:24Z</time></trkpt><trkpt lat="46.27452774117136" lon="10.093398630845027"><ele>1014.0</ele><time>2026-05-01T14:15:25Z</time></trkpt><trkpt lat="46.27443186606404" lon="10.093621663260016"><ele>1014.0</ele><time>2026-05-01T14:15:26Z</time></trkpt><trkpt lat="46.27436540767357" lon="10.093889027694908"><ele>1014.0</ele><time>2026-05-01T14:15:27Z</time></trkpt><trkpt lat="46.27427467511886" lon="10.094172475854693"><ele>1008.0</ele><time>2026-05-01T14:15:28Z</time></trkpt><trkpt lat="46.2741849614923" lon="10.094455927415725"><ele>1002.0</ele><time>2026-05-01T14:15:29Z</time></trkpt><trkpt lat="46.2740747451244" lon="10.094744798453508"><ele>996.0</ele><time>2026-05-01T14:15:30Z</time></trkpt><trkpt lat="46.2739748716168" lon="10.095066651072624"><ele>1012.0</ele><time>2026-05-01T14:15:31Z</time></trkpt><trkpt lat="46.27386822345762" lon="10.095389796931258"><ele>1028.0</ele><time>2026-05-01T14:15:32Z</time></trkpt><trkpt lat="46.27376052220555" lon="10.095707941061487"><ele>1017.5</ele><time>2026-05-01T14:15:33Z</time></trkpt><trkpt lat="46.27365624996653" lon="10.09600555857269"><ele>1007.0</ele><time>2026-05-01T14:15:34Z</time></trkpt><trkpt lat="46.273552405103686" lon="10.096286632608074"><ele>1007.0</ele><time>2026-05-01T14:15:35Z</time></trkpt><trkpt lat="46.273438713445586" lon="10.096549948350422"><ele>1007.0</ele><time>2026-05-01T14:15:36Z</time></trkpt><trkpt lat="46.27331857167563" lon="10.096807805571668"><ele>1007.0</ele><time>2026-05-01T14:15:37Z</time></trkpt><trkpt lat="46.2731915873419" lon="10.097056574984407"><ele>1001.6666666666667</ele><time>2026-05-01T14:15:38Z</time></trkpt><trkpt lat="46.273064453838074" lon="10.0972916960379"><ele>996.3333333333333</ele><time>2026-05-01T14:15:39Z</time></trkpt><trkpt lat="46.27294774854598" lon="10.097506241046881"><ele>991.0</ele><time>2026-05-01T14:15:40Z</time></trkpt><trkpt lat="46.272838609703584" lon="10.097713447067745"><ele>991.0</ele><time>2026-05-01T14:15:41Z</time></trkpt><trkpt lat="46.272739577996724" lon="10.097890759163294"><ele>991.0</ele><time>2026-05-01T14:15:42Z</time></trkpt><trkpt lat="46.272687645073454" lon="10.098104985933691"><ele>991.0</ele><time>2026-05-01T14:15:43Z</time></trkpt><trkpt lat="46.27264952001807" lon="10.098313227695757"><ele>986.0</ele><time>2026-05-01T14:15:44Z</time></trkpt><trkpt lat="46.272645867283714" lon="10.098534750197418"><ele>981.0</ele><time>2026-05-01T14:15:45Z</time></trkpt><trkpt lat="46.27266106969411" lon="10.098763758894187"><ele>976.0</ele><time>2026-05-01T14:15:45.999Z</time></trkpt><trkpt lat="46.27269119727787" lon="10.09899990341381"><ele>975.3333333333333</ele><time>2026-05-01T14:15:46.999Z</time></trkpt><trkpt lat="46.27272660422367" lon="10.099231522695867"><ele>974.6666666666667</ele><time>2026-05-01T14:15:47.999Z</time></trkpt><trkpt lat="46.272740982958545" lon="10.099466512634391"><ele>974.0</ele><time>2026-05-01T14:15:48.999Z</time></trkpt><trkpt lat="46.27278168444771" lon="10.099672503292227"><ele>974.0</ele><time>2026-05-01T14:15:49.999Z</time></trkpt><trkpt lat="46.27280503246263" lon="10.099887761253322"><ele>974.0</ele><time>2026-05-01T14:15:50.999Z</time></trkpt><trkpt lat="46.272830078643885" lon="10.100118902725148"><ele>974.0</ele><time>2026-05-01T14:15:51.999Z</time></trkpt><trkpt lat="46.272856741655175" lon="10.10035555317355"><ele>976.0</ele><time>2026-05-01T14:15:52.999Z</time></trkpt><trkpt lat="46.272863718079215" lon="10.100598852652993"><ele>978.0</ele><time>2026-05-01T14:15:53.999Z</time></trkpt><trkpt lat="46.27288782339707" lon="10.10083418651732"><ele>980.0</ele><time>2026-05-01T14:15:54.999Z</time></trkpt><trkpt lat="46.272885019189104" lon="10.10107595047519"><ele>981.0</ele><time>2026-05-01T14:15:55.999Z</time></trkpt><trkpt lat="46.27288136299899" lon="10.101315088196419"><ele>982.0</ele><time>2026-05-01T14:15:56.999Z</time></trkpt><trkpt lat="46.27285239452877" lon="10.10155086470243"><ele>983.0</ele><time>2026-05-01T14:15:57.999Z</time></trkpt><trkpt lat="46.27282589956259" lon="10.10179472005207"><ele>983.6666666666667</ele><time>2026-05-01T14:15:58.999Z</time></trkpt><trkpt lat="46.27278734083068" lon="10.102033184889804"><ele>984.3333333333333</ele><time>2026-05-01T14:15:59.999Z</time></trkpt><trkpt lat="46.272734122653844" lon="10.102280979212905"><ele>985.0</ele><time>2026-05-01T14:16:00.999Z</time></trkpt><trkpt lat="46.27266415475295" lon="10.102512896865788"><ele>982.3333333333333</ele><time>2026-05-01T14:16:01.999Z</time></trkpt><trkpt lat="46.272581733035025" lon="10.102729441482449"><ele>979.6666666666667</ele><time>2026-05-01T14:16:02.999Z</time></trkpt><trkpt lat="46.27248260768423" lon="10.102947836832035"><ele>977.0</ele><time>2026-05-01T14:16:03.999Z</time></trkpt><trkpt lat="46.27236869462141" lon="10.103155940160217"><ele>981.3333333333334</ele><time>2026-05-01T14:16:04.999Z</time></trkpt><trkpt lat="46.27224354681012" lon="10.103344158628362"><ele>985.6666666666667</ele><time>2026-05-01T14:16:05.999Z</time></trkpt><trkpt lat="46.27210122037773" lon="10.103520672458268"><ele>990.0</ele><time>2026-05-01T14:16:06.999Z</time></trkpt><trkpt lat="46.271935569190795" lon="10.103700244109143"><ele>990.0</ele><time>2026-05-01T14:16:07.999Z</time></trkpt><trkpt lat="46.27183325605827" lon="10.103814123895328"><ele>990.0</ele><time>2026-05-01T14:16:08.999Z</time></trkpt><trkpt lat="46.27172591468449" lon="10.103861919698412"><ele>990.0</ele><time>2026-05-01T14:16:09.999Z</time></trkpt><trkpt lat="46.271653277265905" lon="10.10393678919384"><ele>990.0</ele><time>2026-05-01T14:16:10.999Z</time></trkpt><trkpt lat="46.27157919991306" lon="10.104081488998073"><ele>982.0</ele><time>2026-05-01T14:16:11.999Z</time></trkpt><trkpt lat="46.27147622270028" lon="10.104370217012082"><ele>974.0</ele><time>2026-05-01T14:16:12.999Z</time></trkpt><trkpt lat="46.271356754723755" lon="10.104797238088205"><ele>983.5</ele><time>2026-05-01T14:16:13.999Z</time></trkpt><trkpt lat="46.27133772098672" lon="10.105110205861354"><ele>993.0</ele><time>2026-05-01T14:16:14.999Z</time></trkpt><trkpt lat="46.27133795929558" lon="10.105479693452564"><ele>986.0</ele><time>2026-05-01T14:16:15.999Z</time></trkpt><trkpt lat="46.27133875947609" lon="10.105835624027268"><ele>979.0</ele><time>2026-05-01T14:16:16.999Z</time></trkpt><trkpt lat="46.27134135178705" lon="10.106194914020952"><ele>979.0</ele><time>2026-05-01T14:16:17.999Z</time></trkpt><trkpt lat="46.27134255928869" lon="10.10653431904971"><ele>979.0</ele><time>2026-05-01T14:16:18.999Z</time></trkpt><trkpt lat="46.271339704683484" lon="10.106870527937268"><ele>973.5</ele><time>2026-05-01T14:16:19.999Z</time></trkpt><trkpt lat="46.27132242458013" lon="10.107208406470736"><ele>968.0</ele><time>2026-05-01T14:16:20.999Z</time></trkpt><trkpt lat="46.2712794572102" lon="10.107549450087452"><ele>960.0</ele><time>2026-05-01T14:16:21.999Z</time></trkpt><trkpt lat="46.27120656463873" lon="10.107898275107239"><ele>952.0</ele><time>2026-05-01T14:16:22.999Z</time></trkpt><trkpt lat="46.271128253431" lon="10.108262257375092"><ele>943.5</ele><time>2026-05-01T14:16:23.999Z</time></trkpt><trkpt lat="46.271055827570095" lon="10.108613313545344"><ele>935.0</ele><time>2026-05-01T14:16:24.999Z</time></trkpt><trkpt lat="46.27098305829141" lon="10.108927362540705"><ele>934.5</ele><time>2026-05-01T14:16:25.999Z</time></trkpt><trkpt lat="46.27085235437746" lon="10.109201662259078"><ele>934.0</ele><time>2026-05-01T14:16:26.999Z</time></trkpt><trkpt lat="46.27068147610564" lon="10.109456658800434"><ele>932.0</ele><time>2026-05-01T14:16:27.999Z</time></trkpt><trkpt lat="46.27049539737598" lon="10.10967843529754"><ele>930.0</ele><time>2026-05-01T14:16:28.999Z</time></trkpt><trkpt lat="46.270327322285716" lon="10.10992649381068"><ele>924.0</ele><time>2026-05-01T14:16:29.999Z</time></trkpt><trkpt lat="46.27018016288903" lon="10.110179549766046"><ele>918.0</ele><time>2026-05-01T14:16:30.999Z</time></trkpt><trkpt lat="46.27004972405042" lon="10.110454619063436"><ele>918.0</ele><time>2026-05-01T14:16:31.999Z</time></trkpt><trkpt lat="46.2699069839674" lon="10.110704334359957"><ele>918.0</ele><time>2026-05-01T14:16:32.999Z</time></trkpt><trkpt lat="46.269753724090975" lon="10.11095326334961"><ele>913.0</ele><time>2026-05-01T14:16:33.999Z</time></trkpt><trkpt lat="46.26961279232798" lon="10.11122611572785"><ele>908.0</ele><time>2026-05-01T14:16:34.999Z</time></trkpt><trkpt lat="46.269488693107185" lon="10.11153664451322"><ele>905.5</ele><time>2026-05-01T14:16:35.999Z</time></trkpt><trkpt lat="46.26934883711671" lon="10.1118472975975"><ele>903.0</ele><time>2026-05-01T14:16:36.999Z</time></trkpt><trkpt lat="46.26920920762267" lon="10.112168270196804"><ele>907.5</ele><time>2026-05-01T14:16:37.999Z</time></trkpt><trkpt lat="46.26906259633474" lon="10.112483445981765"><ele>912.0</ele><time>2026-05-01T14:16:38.999Z</time></trkpt><trkpt lat="46.26891259198373" lon="10.112803208376587"><ele>900.5</ele><time>2026-05-01T14:16:39.999Z</time></trkpt><trkpt lat="46.26873589842797" lon="10.113092707548518"><ele>889.0</ele><time>2026-05-01T14:16:40.999Z</time></trkpt><trkpt lat="46.26854530992212" lon="10.113384104488656"><ele>889.0</ele><time>2026-05-01T14:16:41.999Z</time></trkpt><trkpt lat="46.26835510070551" lon="10.113661116224211"><ele>889.0</ele><time>2026-05-01T14:16:42.999Z</time></trkpt><trkpt lat="46.26817119504867" lon="10.11393036912496"><ele>883.5</ele><time>2026-05-01T14:16:43.999Z</time></trkpt><trkpt lat="46.267990229051094" lon="10.114200010809117"><ele>878.0</ele><time>2026-05-01T14:16:44.999Z</time></trkpt><trkpt lat="46.2678178292047" lon="10.114483221932428"><ele>878.0</ele><time>2026-05-01T14:16:45.999Z</time></trkpt><trkpt lat="46.26763157706409" lon="10.114740694613804"><ele>878.0</ele><time>2026-05-01T14:16:46.999Z</time></trkpt><trkpt lat="46.2674369449682" lon="10.114971235754721"><ele>870.5</ele><time>2026-05-01T14:16:47.999Z</time></trkpt><trkpt lat="46.26722033479256" lon="10.11516314907705"><ele>863.0</ele><time>2026-05-01T14:16:48.999Z</time></trkpt><trkpt lat="46.26698640335577" lon="10.115319986819506"><ele>863.0</ele><time>2026-05-01T14:16:49.999Z</time></trkpt><trkpt lat="46.266749991655324" lon="10.115473826434982"><ele>863.0</ele><time>2026-05-01T14:16:50.999Z</time></trkpt><trkpt lat="46.26653238228437" lon="10.115654199690647"><ele>860.5</ele><time>2026-05-01T14:16:51.999Z</time></trkpt><trkpt lat="46.266313807915736" lon="10.11579091321001"><ele>858.0</ele><time>2026-05-01T14:16:52.999Z</time></trkpt><trkpt lat="46.266115558021625" lon="10.11593704068251"><ele>858.0</ele><time>2026-05-01T14:16:53.999Z</time></trkpt><trkpt lat="46.26592657555887" lon="10.116126273167488"><ele>858.0</ele><time>2026-05-01T14:16:54.999Z</time></trkpt><trkpt lat="46.265724015781004" lon="10.116252386828995"><ele>856.6666666666667</ele><time>2026-05-01T14:16:55.999Z</time></trkpt><trkpt lat="46.265536452623515" lon="10.116346941620911"><ele>855.3333333333334</ele><time>2026-05-01T14:16:56.999Z</time></trkpt><trkpt lat="46.26533278328133" lon="10.11644527187576"><ele>854.0</ele><time>2026-05-01T14:16:57.999Z</time></trkpt><trkpt lat="46.265124218959535" lon="10.116536165323422"><ele>854.3333333333334</ele><time>2026-05-01T14:16:58.999Z</time></trkpt><trkpt lat="46.264941069607524" lon="10.116596922844634"><ele>854.6666666666667</ele><time>2026-05-01T14:16:59.999Z</time></trkpt><trkpt lat="46.26476252913524" lon="10.116670687599251"><ele>855.0</ele><time>2026-05-01T14:17:00.999Z</time></trkpt><trkpt lat="46.264569280091614" lon="10.116758293342619"><ele>849.0</ele><time>2026-05-01T14:17:01.999Z</time></trkpt><trkpt lat="46.264358236066336" lon="10.116879648854649"><ele>843.0</ele><time>2026-05-01T14:17:02.999Z</time></trkpt><trkpt lat="46.264159511556" lon="10.117012566785615"><ele>837.0</ele><time>2026-05-01T14:17:03.999Z</time></trkpt><trkpt lat="46.26402514287632" lon="10.117072673881758"><ele>834.0</ele><time>2026-05-01T14:17:04.999Z</time></trkpt><trkpt lat="46.26388679320152" lon="10.117124432568753"><ele>831.0</ele><time>2026-05-01T14:17:06Z</time></trkpt><trkpt lat="46.263774372834376" lon="10.117159004082637"><ele>828.0</ele><time>2026-05-01T14:17:07Z</time></trkpt><trkpt lat="46.26367403913526" lon="10.117171594938048"><ele>825.0</ele><time>2026-05-01T14:17:08Z</time></trkpt><trkpt lat="46.263560986045015" lon="10.117236239408244"><ele>825.0</ele><time>2026-05-01T14:17:09Z</time></trkpt><trkpt lat="46.26343095294442" lon="10.117354279571636"><ele>825.0</ele><time>2026-05-01T14:17:10Z</time></trkpt><trkpt lat="46.26328003141" lon="10.1175145477742"><ele>825.0</ele><time>2026-05-01T14:17:11Z</time></trkpt><trkpt lat="46.26304830976376" lon="10.117798374523018"><ele>824.6666666666667</ele><time>2026-05-01T14:17:12Z</time></trkpt><trkpt lat="46.262905839267034" lon="10.117946793510466"><ele>824.3333333333334</ele><time>2026-05-01T14:17:13Z</time></trkpt><trkpt lat="46.26274519281423" lon="10.11813984234035"><ele>824.0</ele><time>2026-05-01T14:17:14Z</time></trkpt><trkpt lat="46.26257363289549" lon="10.118358681810562"><ele>824.0</ele><time>2026-05-01T14:17:15Z</time></trkpt><trkpt lat="46.26240228333574" lon="10.118541336637453"><ele>824.0</ele><time>2026-05-01T14:17:16Z</time></trkpt><trkpt lat="46.26236838860285" lon="10.118440412072408"><ele>824.0</ele><time>2026-05-01T14:17:17Z</time></trkpt><trkpt lat="46.2622392011243" lon="10.11855250078438"><ele>824.0</ele><time>2026-05-01T14:17:18Z</time></trkpt><trkpt lat="46.26211019984044" lon="10.118660209013237"><ele>817.0</ele><time>2026-05-01T14:17:19Z</time></trkpt><trkpt lat="46.26197487095849" lon="10.118773643143076"><ele>810.0</ele><time>2026-05-01T14:17:20Z</time></trkpt><trkpt lat="46.26184819458512" lon="10.118905168745028"><ele>803.0</ele><time>2026-05-01T14:17:21Z</time></trkpt><trkpt lat="46.26172625012709" lon="10.119042976984632"><ele>805.6666666666667</ele><time>2026-05-01T14:17:22Z</time></trkpt><trkpt lat="46.26160960328624" lon="10.119194193459176"><ele>808.3333333333333</ele><time>2026-05-01T14:17:23Z</time></trkpt><trkpt lat="46.261498830663655" lon="10.119357313595371"><ele>811.0</ele><time>2026-05-01T14:17:24Z</time></trkpt><trkpt lat="46.261391187940205" lon="10.119520410646148"><ele>809.25</ele><time>2026-05-01T14:17:25Z</time></trkpt><trkpt lat="46.261290142789996" lon="10.119679233801849"><ele>807.5</ele><time>2026-05-01T14:17:26Z</time></trkpt><trkpt lat="46.261206217267485" lon="10.119824087904064"><ele>805.75</ele><time>2026-05-01T14:17:27Z</time></trkpt><trkpt lat="46.26112820333423" lon="10.119959905959478"><ele>804.0</ele><time>2026-05-01T14:17:28Z</time></trkpt><trkpt lat="46.26105393652031" lon="10.12008918348615"><ele>804.0</ele><time>2026-05-01T14:17:29Z</time></trkpt><trkpt lat="46.26096988995332" lon="10.12022259001396"><ele>804.0</ele><time>2026-05-01T14:17:30Z</time></trkpt><trkpt lat="46.26088704658776" lon="10.120351546316234"><ele>804.0</ele><time>2026-05-01T14:17:31Z</time></trkpt><trkpt lat="46.2608010202751" lon="10.120482856478993"><ele>804.0</ele><time>2026-05-01T14:17:32Z</time></trkpt><trkpt lat="46.2607184933519" lon="10.120621040906688"><ele>804.75</ele><time>2026-05-01T14:17:33Z</time></trkpt><trkpt lat="46.26063033214073" lon="10.120762739693678"><ele>805.5</ele><time>2026-05-01T14:17:34Z</time></trkpt><trkpt lat="46.26054267805976" lon="10.120908398817026"><ele>806.25</ele><time>2026-05-01T14:17:35Z</time></trkpt><trkpt lat="46.26045607321549" lon="10.121059259192052"><ele>807.0</ele><time>2026-05-01T14:17:36Z</time></trkpt><trkpt lat="46.2603693739034" lon="10.121207090797785"><ele>801.75</ele><time>2026-05-01T14:17:37Z</time></trkpt><trkpt lat="46.26026601113883" lon="10.121362735366482"><ele>796.5</ele><time>2026-05-01T14:17:38Z</time></trkpt><trkpt lat="46.26017835888067" lon="10.121517386453245"><ele>791.25</ele><time>2026-05-01T14:17:39Z</time></trkpt><trkpt lat="46.260094705684594" lon="10.121649206284898"><ele>786.0</ele><time>2026-05-01T14:17:40Z</time></trkpt><trkpt lat="46.25999956715951" lon="10.12179914621204"><ele>786.0</ele><time>2026-05-01T14:17:41Z</time></trkpt><trkpt lat="46.25990384583459" lon="10.121954196935363"><ele>786.0</ele><time>2026-05-01T14:17:42Z</time></trkpt><trkpt lat="46.25981223284194" lon="10.122116820972069"><ele>786.0</ele><time>2026-05-01T14:17:43Z</time></trkpt><trkpt lat="46.25973037169917" lon="10.122274273846926"><ele>786.0</ele><time>2026-05-01T14:17:44Z</time></trkpt><trkpt lat="46.25965468558025" lon="10.122433628320822"><ele>782.0</ele><time>2026-05-01T14:17:45Z</time></trkpt><trkpt lat="46.2595741058928" lon="10.122604654735097"><ele>778.0</ele><time>2026-05-01T14:17:46Z</time></trkpt><trkpt lat="46.25949730941538" lon="10.122766757625353"><ele>774.0</ele><time>2026-05-01T14:17:47Z</time></trkpt><trkpt lat="46.259421466706506" lon="10.12294232188164"><ele>770.0</ele><time>2026-05-01T14:17:48Z</time></trkpt><trkpt lat="46.25934827301953" lon="10.123106544139741"><ele>771.25</ele><time>2026-05-01T14:17:49Z</time></trkpt><trkpt lat="46.25927379777622" lon="10.123267311376955"><ele>772.5</ele><time>2026-05-01T14:17:50Z</time></trkpt><trkpt lat="46.25920057917535" lon="10.123422275303385"><ele>773.75</ele><time>2026-05-01T14:17:51Z</time></trkpt><trkpt lat="46.25913618779753" lon="10.123586285158638"><ele>775.0</ele><time>2026-05-01T14:17:52Z</time></trkpt><trkpt lat="46.259060899181335" lon="10.123752400350254"><ele>775.0</ele><time>2026-05-01T14:17:53Z</time></trkpt><trkpt lat="46.2589963664832" lon="10.123925594273748"><ele>775.0</ele><time>2026-05-01T14:17:54Z</time></trkpt><trkpt lat="46.25895471357206" lon="10.124111408380504"><ele>775.0</ele><time>2026-05-01T14:17:55Z</time></trkpt><trkpt lat="46.258925020845695" lon="10.124303416381538"><ele>775.0</ele><time>2026-05-01T14:17:56Z</time></trkpt><trkpt lat="46.258918264533726" lon="10.124491776349233"><ele>772.5</ele><time>2026-05-01T14:17:57Z</time></trkpt><trkpt lat="46.25891586825946" lon="10.124680982625657"><ele>770.0</ele><time>2026-05-01T14:17:58Z</time></trkpt><trkpt lat="46.25891234556789" lon="10.124860614340188"><ele>767.5</ele><time>2026-05-01T14:17:59Z</time></trkpt><trkpt lat="46.25890061945077" lon="10.125013285373944"><ele>765.0</ele><time>2026-05-01T14:18:00Z</time></trkpt><trkpt lat="46.25887383637555" lon="10.12513779425123"><ele>765.0</ele><time>2026-05-01T14:18:01Z</time></trkpt><trkpt lat="46.25880247230407" lon="10.125240934210565"><ele>765.0</ele><time>2026-05-01T14:18:02Z</time></trkpt><trkpt lat="46.25870870927744" lon="10.125321214512377"><ele>765.0</ele><time>2026-05-01T14:18:03Z</time></trkpt><trkpt lat="46.25862273242749" lon="10.125412621191884"><ele>765.0</ele><time>2026-05-01T14:18:04Z</time></trkpt><trkpt lat="46.25853660086555" lon="10.125507869275738"><ele>765.0</ele><time>2026-05-01T14:18:05Z</time></trkpt><trkpt lat="46.25843746800216" lon="10.125585086478772"><ele>765.0</ele><time>2026-05-01T14:18:06Z</time></trkpt><trkpt lat="46.258340486931466" lon="10.125717309748435"><ele>765.0</ele><time>2026-05-01T14:18:07Z</time></trkpt><trkpt lat="46.25826566210376" lon="10.125821433984717"><ele>765.0</ele><time>2026-05-01T14:18:08Z</time></trkpt><trkpt lat="46.25819561676824" lon="10.125952040142373"><ele>765.0</ele><time>2026-05-01T14:18:09Z</time></trkpt><trkpt lat="46.2581369363112" lon="10.126107493968165"><ele>763.0</ele><time>2026-05-01T14:18:09.999Z</time></trkpt><trkpt lat="46.25809440702116" lon="10.126252982373195"><ele>761.0</ele><time>2026-05-01T14:18:10.999Z</time></trkpt><trkpt lat="46.258057604071176" lon="10.12640010938719"><ele>759.0</ele><time>2026-05-01T14:18:11.999Z</time></trkpt><trkpt lat="46.25802411437591" lon="10.126542540098907"><ele>757.0</ele><time>2026-05-01T14:18:12.999Z</time></trkpt><trkpt lat="46.25798831476182" lon="10.126691003307624"><ele>755.0</ele><time>2026-05-01T14:18:13.999Z</time></trkpt><trkpt lat="46.257966210134626" lon="10.126821619982856"><ele>755.0</ele><time>2026-05-01T14:18:14.999Z</time></trkpt><trkpt lat="46.25794472029073" lon="10.126979026251705"><ele>755.0</ele><time>2026-05-01T14:18:15.999Z</time></trkpt><trkpt lat="46.25792178549477" lon="10.127146007371424"><ele>755.0</ele><time>2026-05-01T14:18:16.999Z</time></trkpt><trkpt lat="46.2579106706967" lon="10.12731835205246"><ele>755.0</ele><time>2026-05-01T14:18:17.999Z</time></trkpt><trkpt lat="46.25786351569071" lon="10.127465803225878"><ele>754.75</ele><time>2026-05-01T14:18:18.999Z</time></trkpt><trkpt lat="46.25781787557541" lon="10.127609216257865"><ele>754.5</ele><time>2026-05-01T14:18:19.999Z</time></trkpt><trkpt lat="46.257753167553645" lon="10.127741887822818"><ele>754.25</ele><time>2026-05-01T14:18:20.999Z</time></trkpt><trkpt lat="46.257656535290735" lon="10.127834427803126"><ele>754.0</ele><time>2026-05-01T14:18:21.999Z</time></trkpt><trkpt lat="46.257550973506326" lon="10.127895765428368"><ele>754.0</ele><time>2026-05-01T14:18:22.999Z</time></trkpt><trkpt lat="46.25744141804924" lon="10.127912515902043"><ele>754.0</ele><time>2026-05-01T14:18:23.999Z</time></trkpt><trkpt lat="46.25733692476381" lon="10.127884006716508"><ele>754.0</ele><time>2026-05-01T14:18:24.999Z</time></trkpt><trkpt lat="46.257248818329835" lon="10.127791186212049"><ele>754.0</ele><time>2026-05-01T14:18:25.999Z</time></trkpt><trkpt lat="46.25715192833219" lon="10.127702418830474"><ele>754.0</ele><time>2026-05-01T14:18:26.999Z</time></trkpt><trkpt lat="46.257041340114185" lon="10.12765294087915"><ele>750.75</ele><time>2026-05-01T14:18:27.999Z</time></trkpt><trkpt lat="46.256909650265804" lon="10.127663954243165"><ele>747.5</ele><time>2026-05-01T14:18:28.999Z</time></trkpt><trkpt lat="46.256769648214444" lon="10.12769467194695"><ele>744.25</ele><time>2026-05-01T14:18:29.999Z</time></trkpt><trkpt lat="46.25663534906339" lon="10.127725766565165"><ele>741.0</ele><time>2026-05-01T14:18:30.999Z</time></trkpt><trkpt lat="46.25650029321015" lon="10.127751988716778"><ele>738.5</ele><time>2026-05-01T14:18:31.999Z</time></trkpt><trkpt lat="46.25636976236514" lon="10.127758930899718"><ele>736.0</ele><time>2026-05-01T14:18:32.999Z</time></trkpt><trkpt lat="46.256238573307854" lon="10.127757330487075"><ele>733.5</ele><time>2026-05-01T14:18:33.999Z</time></trkpt><trkpt lat="46.25609668498738" lon="10.127742451670855"><ele>731.0</ele><time>2026-05-01T14:18:34.999Z</time></trkpt><trkpt lat="46.255956064098" lon="10.127708767860707"><ele>731.0</ele><time>2026-05-01T14:18:35.999Z</time></trkpt><trkpt lat="46.255815581732456" lon="10.127666214613809"><ele>731.0</ele><time>2026-05-01T14:18:36.999Z</time></trkpt><trkpt lat="46.25567314138797" lon="10.127616966207666"><ele>731.0</ele><time>2026-05-01T14:18:37.999Z</time></trkpt><trkpt lat="46.255534317113415" lon="10.127569561243403"><ele>731.0</ele><time>2026-05-01T14:18:38.999Z</time></trkpt><trkpt lat="46.25539816873301" lon="10.127528995418261"><ele>729.0</ele><time>2026-05-01T14:18:39.999Z</time></trkpt><trkpt lat="46.25526607553816" lon="10.12748742387738"><ele>727.0</ele><time>2026-05-01T14:18:40.999Z</time></trkpt><trkpt lat="46.255149481838664" lon="10.127445969234197"><ele>725.0</ele><time>2026-05-01T14:18:41.999Z</time></trkpt><trkpt lat="46.25504851659884" lon="10.127397542854323"><ele>723.0</ele><time>2026-05-01T14:18:42.999Z</time></trkpt><trkpt lat="46.254956871329526" lon="10.127319704857422"><ele>722.5</ele><time>2026-05-01T14:18:43.999Z</time></trkpt><trkpt lat="46.25487537406477" lon="10.127209325623683"><ele>722.0</ele><time>2026-05-01T14:18:44.999Z</time></trkpt><trkpt lat="46.2548112607373" lon="10.127069344685388"><ele>721.5</ele><time>2026-05-01T14:18:45.999Z</time></trkpt><trkpt lat="46.254750067045286" lon="10.12692032965665"><ele>721.0</ele><time>2026-05-01T14:18:46.999Z</time></trkpt><trkpt lat="46.25469142761595" lon="10.126777863843765"><ele>718.75</ele><time>2026-05-01T14:18:47.999Z</time></trkpt><trkpt lat="46.25462648684274" lon="10.126642906898912"><ele>716.5</ele><time>2026-05-01T14:18:48.999Z</time></trkpt><trkpt lat="46.254550047933925" lon="10.1265250503484"><ele>714.25</ele><time>2026-05-01T14:18:49.999Z</time></trkpt><trkpt lat="46.254454057119034" lon="10.126436840910248"><ele>712.0</ele><time>2026-05-01T14:18:50.999Z</time></trkpt><trkpt lat="46.254342240726494" lon="10.126393896731562"><ele>710.5</ele><time>2026-05-01T14:18:51.999Z</time></trkpt><trkpt lat="46.25422271371762" lon="10.126396591339935"><ele>709.0</ele><time>2026-05-01T14:18:52.999Z</time></trkpt><trkpt lat="46.254103268543815" lon="10.126408822709966"><ele>707.5</ele><time>2026-05-01T14:18:53.999Z</time></trkpt><trkpt lat="46.25398646314944" lon="10.126427280907073"><ele>706.0</ele><time>2026-05-01T14:18:54.999Z</time></trkpt><trkpt lat="46.25387116907658" lon="10.126457486676596"><ele>705.25</ele><time>2026-05-01T14:18:55.999Z</time></trkpt><trkpt lat="46.253759018535014" lon="10.12651325284657"><ele>704.5</ele><time>2026-05-01T14:18:56.999Z</time></trkpt><trkpt lat="46.25365014380377" lon="10.126599424209452"><ele>703.75</ele><time>2026-05-01T14:18:57.999Z</time></trkpt><trkpt lat="46.253541824829576" lon="10.126696550392717"><ele>703.0</ele><time>2026-05-01T14:18:58.999Z</time></trkpt><trkpt lat="46.25342338705766" lon="10.126787660082714"><ele>703.0</ele><time>2026-05-01T14:18:59.999Z</time></trkpt><trkpt lat="46.253304085208526" lon="10.126878681057061"><ele>703.0</ele><time>2026-05-01T14:19:00.999Z</time></trkpt><trkpt lat="46.25317825274376" lon="10.12697267839929"><ele>703.0</ele><time>2026-05-01T14:19:01.999Z</time></trkpt><trkpt lat="46.25305504824107" lon="10.127068699649731"><ele>703.0</ele><time>2026-05-01T14:19:02.999Z</time></trkpt><trkpt lat="46.25292616387326" lon="10.127176364001816"><ele>701.5</ele><time>2026-05-01T14:19:03.999Z</time></trkpt><trkpt lat="46.25279975573924" lon="10.127269525550117"><ele>700.0</ele><time>2026-05-01T14:19:04.999Z</time></trkpt><trkpt lat="46.25267631444798" lon="10.127365046868936"><ele>698.5</ele><time>2026-05-01T14:19:05.999Z</time></trkpt><trkpt lat="46.25255688685665" lon="10.127463303125715"><ele>697.0</ele><time>2026-05-01T14:19:06.999Z</time></trkpt><trkpt lat="46.252440669198364" lon="10.127562769776013"><ele>697.0</ele><time>2026-05-01T14:19:07.999Z</time></trkpt><trkpt lat="46.25232195000201" lon="10.12766418058092"><ele>697.0</ele><time>2026-05-01T14:19:08.999Z</time></trkpt><trkpt lat="46.2522049978194" lon="10.12775176102594"><ele>697.0</ele><time>2026-05-01T14:19:09.999Z</time></trkpt><trkpt lat="46.252086412271105" lon="10.127834968968179"><ele>697.0</ele><time>2026-05-01T14:19:10.999Z</time></trkpt><trkpt lat="46.25196271604999" lon="10.127906194731409"><ele>694.25</ele><time>2026-05-01T14:19:12Z</time></trkpt><trkpt lat="46.251827539596945" lon="10.127950999526663"><ele>691.5</ele><time>2026-05-01T14:19:13Z</time></trkpt><trkpt lat="46.2516821127662" lon="10.127975110151532"><ele>688.75</ele><time>2026-05-01T14:19:14Z</time></trkpt><trkpt lat="46.25153455100902" lon="10.127997464809486"><ele>686.0</ele><time>2026-05-01T14:19:15Z</time></trkpt><trkpt lat="46.25137654565942" lon="10.128004524424288"><ele>683.5</ele><time>2026-05-01T14:19:16Z</time></trkpt><trkpt lat="46.25122729982615" lon="10.12801310771661"><ele>681.0</ele><time>2026-05-01T14:19:17Z</time></trkpt><trkpt lat="46.25108577221832" lon="10.128023234481017"><ele>678.5</ele><time>2026-05-01T14:19:18Z</time></trkpt><trkpt lat="46.25095111364133" lon="10.12802948788656"><ele>676.0</ele><time>2026-05-01T14:19:19Z</time></trkpt><trkpt lat="46.250817878914276" lon="10.128038635748634"><ele>676.0</ele><time>2026-05-01T14:19:20Z</time></trkpt><trkpt lat="46.25068464762601" lon="10.128067841797206"><ele>676.0</ele><time>2026-05-01T14:19:21Z</time></trkpt><trkpt lat="46.25055522954897" lon="10.128099223948187"><ele>676.0</ele><time>2026-05-01T14:19:22Z</time></trkpt><trkpt lat="46.25043673452951" lon="10.128156423773117"><ele>676.0</ele><time>2026-05-01T14:19:23Z</time></trkpt><trkpt lat="46.25032227156522" lon="10.1282345430157"><ele>676.0</ele><time>2026-05-01T14:19:24Z</time></trkpt><trkpt lat="46.25020124879094" lon="10.128341822376207"><ele>676.0</ele><time>2026-05-01T14:19:25Z</time></trkpt><trkpt lat="46.250080360876936" lon="10.12846913664302"><ele>676.0</ele><time>2026-05-01T14:19:26Z</time></trkpt><trkpt lat="46.249954201222934" lon="10.128612969508973"><ele>676.0</ele><time>2026-05-01T14:19:27Z</time></trkpt><trkpt lat="46.24982512481598" lon="10.128747815447204"><ele>676.0</ele><time>2026-05-01T14:19:28Z</time></trkpt><trkpt lat="46.24970195897413" lon="10.128876908633005"><ele>676.0</ele><time>2026-05-01T14:19:29Z</time></trkpt><trkpt lat="46.249583101537034" lon="10.128997773693474"><ele>672.3333333333334</ele><time>2026-05-01T14:19:30Z</time></trkpt><trkpt lat="46.24950440617299" lon="10.129079364976882"><ele>668.6666666666666</ele><time>2026-05-01T14:19:31Z</time></trkpt><trkpt lat="46.24931660829235" lon="10.129250898628994"><ele>665.0</ele><time>2026-05-01T14:19:32Z</time></trkpt><trkpt lat="46.24918618582635" lon="10.12937868871235"><ele>665.0</ele><time>2026-05-01T14:19:33Z</time></trkpt><trkpt lat="46.24906222807503" lon="10.129498647575321"><ele>665.0</ele><time>2026-05-01T14:19:34Z</time></trkpt><trkpt lat="46.248927547476285" lon="10.129617323640161"><ele>665.0</ele><time>2026-05-01T14:19:35Z</time></trkpt><trkpt lat="46.24878791183052" lon="10.129710495162193"><ele>662.3333333333333</ele><time>2026-05-01T14:19:36Z</time></trkpt><trkpt lat="46.2486453529256" lon="10.129780643812605"><ele>659.6666666666666</ele><time>2026-05-01T14:19:37Z</time></trkpt><trkpt lat="46.248498189413446" lon="10.129828405701295"><ele>657.0</ele><time>2026-05-01T14:19:38Z</time></trkpt><trkpt lat="46.24835164209442" lon="10.129871511259578"><ele>658.0</ele><time>2026-05-01T14:19:39Z</time></trkpt><trkpt lat="46.24820565283389" lon="10.129927086570051"><ele>659.0</ele><time>2026-05-01T14:19:40Z</time></trkpt><trkpt lat="46.24806124313037" lon="10.129985210164111"><ele>660.0</ele><time>2026-05-01T14:19:41Z</time></trkpt><trkpt lat="46.2479257574207" lon="10.130033235179031"><ele>661.0</ele><time>2026-05-01T14:19:42Z</time></trkpt><trkpt lat="46.247790365300496" lon="10.130072471487063"><ele>658.5</ele><time>2026-05-01T14:19:43Z</time></trkpt><trkpt lat="46.24765080976488" lon="10.130083107773844"><ele>656.0</ele><time>2026-05-01T14:19:44Z</time></trkpt><trkpt lat="46.24750783787458" lon="10.130082893134214"><ele>653.5</ele><time>2026-05-01T14:19:45Z</time></trkpt><trkpt lat="46.24735994975882" lon="10.130089940830768"><ele>651.0</ele><time>2026-05-01T14:19:46Z</time></trkpt><trkpt lat="46.24721811589162" lon="10.130092107425176"><ele>649.0</ele><time>2026-05-01T14:19:47Z</time></trkpt><trkpt lat="46.247074968237385" lon="10.130093603704804"><ele>647.0</ele><time>2026-05-01T14:19:48Z</time></trkpt><trkpt lat="46.246934410113944" lon="10.130104452717692"><ele>645.0</ele><time>2026-05-01T14:19:49Z</time></trkpt><trkpt lat="46.246816642850355" lon="10.130140450987083"><ele>643.0</ele><time>2026-05-01T14:19:50Z</time></trkpt><trkpt lat="46.24670430144409" lon="10.13013232597701"><ele>643.0</ele><time>2026-05-01T14:19:51Z</time></trkpt><trkpt lat="46.24659193411027" lon="10.130153206762943"><ele>643.0</ele><time>2026-05-01T14:19:52Z</time></trkpt><trkpt lat="46.24647633532829" lon="10.130177789717376"><ele>643.0</ele><time>2026-05-01T14:19:53Z</time></trkpt><trkpt lat="46.2463676971325" lon="10.130241258906894"><ele>643.0</ele><time>2026-05-01T14:19:54Z</time></trkpt><trkpt lat="46.246244976654225" lon="10.130303789259276"><ele>641.25</ele><time>2026-05-01T14:19:55Z</time></trkpt><trkpt lat="46.24613311238995" lon="10.13038195824713"><ele>639.5</ele><time>2026-05-01T14:19:56Z</time></trkpt><trkpt lat="46.24601449819092" lon="10.130456299425779"><ele>637.75</ele><time>2026-05-01T14:19:57Z</time></trkpt><trkpt lat="46.24589781677413" lon="10.130520605127595"><ele>636.0</ele><time>2026-05-01T14:19:58Z</time></trkpt><trkpt lat="46.245780912431044" lon="10.130582100731282"><ele>636.0</ele><time>2026-05-01T14:19:59Z</time></trkpt><trkpt lat="46.2456687736418" lon="10.130649065897464"><ele>636.0</ele><time>2026-05-01T14:20:00Z</time></trkpt><trkpt lat="46.24555257902457" lon="10.130719087661278"><ele>636.0</ele><time>2026-05-01T14:20:01Z</time></trkpt><trkpt lat="46.24543205219924" lon="10.130765270611928"><ele>636.0</ele><time>2026-05-01T14:20:02Z</time></trkpt><trkpt lat="46.24531156505692" lon="10.130802397620691"><ele>635.0</ele><time>2026-05-01T14:20:03Z</time></trkpt><trkpt lat="46.245194078707" lon="10.130847066119989"><ele>634.0</ele><time>2026-05-01T14:20:04Z</time></trkpt><trkpt lat="46.2450750574145" lon="10.130898139039218"><ele>633.0</ele><time>2026-05-01T14:20:05Z</time></trkpt><trkpt lat="46.24496528385" lon="10.130963671787852"><ele>632.0</ele><time>2026-05-01T14:20:06Z</time></trkpt><trkpt lat="46.24484358480328" lon="10.131005578162805"><ele>629.5</ele><time>2026-05-01T14:20:07Z</time></trkpt><trkpt lat="46.24472707701895" lon="10.131069057372315"><ele>627.0</ele><time>2026-05-01T14:20:08Z</time></trkpt><trkpt lat="46.24460486179308" lon="10.131112324255982"><ele>624.5</ele><time>2026-05-01T14:20:09Z</time></trkpt><trkpt lat="46.24449176445616" lon="10.13116709190982"><ele>622.0</ele><time>2026-05-01T14:20:10Z</time></trkpt><trkpt lat="46.244372150007166" lon="10.131206867497443"><ele>622.0</ele><time>2026-05-01T14:20:11Z</time></trkpt><trkpt lat="46.244239324037046" lon="10.131202731664636"><ele>622.0</ele><time>2026-05-01T14:20:12Z</time></trkpt><trkpt lat="46.24412852317545" lon="10.13125810489776"><ele>622.0</ele><time>2026-05-01T14:20:13Z</time></trkpt><trkpt lat="46.24399075487181" lon="10.131350803930173"><ele>622.0</ele><time>2026-05-01T14:20:14Z</time></trkpt><trkpt lat="46.24385854385889" lon="10.13140586809381"><ele>621.0</ele><time>2026-05-01T14:20:15Z</time></trkpt><trkpt lat="46.24371257675011" lon="10.131473933070117"><ele>620.0</ele><time>2026-05-01T14:20:16Z</time></trkpt><trkpt lat="46.24355401029019" lon="10.131550986886786"><ele>619.0</ele><time>2026-05-01T14:20:17Z</time></trkpt><trkpt lat="46.243371653309694" lon="10.131622974583996"><ele>619.0</ele><time>2026-05-01T14:20:18Z</time></trkpt><trkpt lat="46.24319545004762" lon="10.131692754559413"><ele>619.0</ele><time>2026-05-01T14:20:19Z</time></trkpt><trkpt lat="46.2430082173347" lon="10.131776031437127"><ele>619.0</ele><time>2026-05-01T14:20:20Z</time></trkpt><trkpt lat="46.24290111447603" lon="10.131835508372566"><ele>614.6666666666667</ele><time>2026-05-01T14:20:21Z</time></trkpt><trkpt lat="46.242735019411036" lon="10.131919178965767"><ele>610.3333333333334</ele><time>2026-05-01T14:20:22Z</time></trkpt><trkpt lat="46.24257192662826" lon="10.132051447112149"><ele>606.0</ele><time>2026-05-01T14:20:23Z</time></trkpt><trkpt lat="46.24245413134982" lon="10.132225708635985"><ele>604.0</ele><time>2026-05-01T14:20:24Z</time></trkpt><trkpt lat="46.24236822508381" lon="10.13239514301131"><ele>602.0</ele><time>2026-05-01T14:20:25Z</time></trkpt><trkpt lat="46.24226778571501" lon="10.132639595735984"><ele>600.0</ele><time>2026-05-01T14:20:26Z</time></trkpt><trkpt lat="46.24215737033427" lon="10.132853123552751"><ele>600.0</ele><time>2026-05-01T14:20:27Z</time></trkpt><trkpt lat="46.24202482596286" lon="10.133057093664602"><ele>600.0</ele><time>2026-05-01T14:20:28Z</time></trkpt><trkpt lat="46.24183228933527" lon="10.133338946104463"><ele>601.0</ele><time>2026-05-01T14:20:28.999Z</time></trkpt><trkpt lat="46.24166766841355" lon="10.133526800868559"><ele>602.0</ele><time>2026-05-01T14:20:29.999Z</time></trkpt><trkpt lat="46.24149046316448" lon="10.133704985757793"><ele>603.0</ele><time>2026-05-01T14:20:30.999Z</time></trkpt><trkpt lat="46.24131748059162" lon="10.133867542417494"><ele>600.0</ele><time>2026-05-01T14:20:31.999Z</time></trkpt><trkpt lat="46.24114160780214" lon="10.13401697608423"><ele>597.0</ele><time>2026-05-01T14:20:32.999Z</time></trkpt><trkpt lat="46.24096702966154" lon="10.134170124687019"><ele>594.0</ele><time>2026-05-01T14:20:33.999Z</time></trkpt><trkpt lat="46.24079452960614" lon="10.134321119862015"><ele>591.6666666666666</ele><time>2026-05-01T14:20:34.999Z</time></trkpt><trkpt lat="46.24062411543164" lon="10.13447241139795"><ele>589.3333333333333</ele><time>2026-05-01T14:20:35.999Z</time></trkpt><trkpt lat="46.24045231392712" lon="10.134624021300143"><ele>587.0</ele><time>2026-05-01T14:20:36.999Z</time></trkpt><trkpt lat="46.24028179165547" lon="10.13477458064929"><ele>586.6666666666666</ele><time>2026-05-01T14:20:37.999Z</time></trkpt><trkpt lat="46.24011202145756" lon="10.134920800279156"><ele>586.3333333333334</ele><time>2026-05-01T14:20:38.999Z</time></trkpt><trkpt lat="46.239948033403046" lon="10.135060866576426"><ele>586.0</ele><time>2026-05-01T14:20:39.999Z</time></trkpt><trkpt lat="46.23978176007704" lon="10.135198694719206"><ele>583.6666666666667</ele><time>2026-05-01T14:20:40.999Z</time></trkpt><trkpt lat="46.2396243473173" lon="10.135337502623424"><ele>581.3333333333334</ele><time>2026-05-01T14:20:41.999Z</time></trkpt><trkpt lat="46.23949838141195" lon="10.135447348634983"><ele>579.0</ele><time>2026-05-01T14:20:42.999Z</time></trkpt><trkpt lat="46.2393466062379" lon="10.135577345256225"><ele>579.0</ele><time>2026-05-01T14:20:43.999Z</time></trkpt><trkpt lat="46.23921486081508" lon="10.135698335462138"><ele>579.0</ele><time>2026-05-01T14:20:44.999Z</time></trkpt><trkpt lat="46.2390841197063" lon="10.13578757511383"><ele>579.0</ele><time>2026-05-01T14:20:45.999Z</time></trkpt><trkpt lat="46.2389693722089" lon="10.135921090089166"><ele>579.0</ele><time>2026-05-01T14:20:46.999Z</time></trkpt><trkpt lat="46.23885798846269" lon="10.136041087145857"><ele>577.75</ele><time>2026-05-01T14:20:47.999Z</time></trkpt><trkpt lat="46.23874378864989" lon="10.136176721253218"><ele>576.5</ele><time>2026-05-01T14:20:48.999Z</time></trkpt><trkpt lat="46.23863546127238" lon="10.136312637123927"><ele>575.25</ele><time>2026-05-01T14:20:49.999Z</time></trkpt><trkpt lat="46.238528556305056" lon="10.136447534516948"><ele>574.0</ele><time>2026-05-01T14:20:50.999Z</time></trkpt><trkpt lat="46.238422637876916" lon="10.136590284816792"><ele>574.0</ele><time>2026-05-01T14:20:51.999Z</time></trkpt><trkpt lat="46.23831240616941" lon="10.136744667983466"><ele>574.0</ele><time>2026-05-01T14:20:52.999Z</time></trkpt><trkpt lat="46.2382043407278" lon="10.136876531460649"><ele>574.0</ele><time>2026-05-01T14:20:53.999Z</time></trkpt><trkpt lat="46.238097883688816" lon="10.137017940194978"><ele>574.0</ele><time>2026-05-01T14:20:54.999Z</time></trkpt><trkpt lat="46.237999409192376" lon="10.137152387636"><ele>573.25</ele><time>2026-05-01T14:20:55.999Z</time></trkpt><trkpt lat="46.23788431761614" lon="10.137290802535851"><ele>572.5</ele><time>2026-05-01T14:20:56.999Z</time></trkpt><trkpt lat="46.23777564493435" lon="10.137431774821966"><ele>571.75</ele><time>2026-05-01T14:20:57.999Z</time></trkpt><trkpt lat="46.23766647718903" lon="10.13757573794663"><ele>571.0</ele><time>2026-05-01T14:20:58.999Z</time></trkpt><trkpt lat="46.23755823135439" lon="10.13771654091591"><ele>569.75</ele><time>2026-05-01T14:20:59.999Z</time></trkpt><trkpt lat="46.23744782743582" lon="10.137855141825632"><ele>568.5</ele><time>2026-05-01T14:21:00.999Z</time></trkpt><trkpt lat="46.23733974149044" lon="10.137997114743332"><ele>567.25</ele><time>2026-05-01T14:21:01.999Z</time></trkpt><trkpt lat="46.23723256616773" lon="10.138142509587048"><ele>566.0</ele><time>2026-05-01T14:21:02.999Z</time></trkpt><trkpt lat="46.23712599788086" lon="10.13828606649829"><ele>564.25</ele><time>2026-05-01T14:21:03.999Z</time></trkpt><trkpt lat="46.23701572739095" lon="10.138427074240239"><ele>562.5</ele><time>2026-05-01T14:21:04.999Z</time></trkpt><trkpt lat="46.23690532322332" lon="10.138569698046256"><ele>560.75</ele><time>2026-05-01T14:21:05.999Z</time></trkpt><trkpt lat="46.236797773557505" lon="10.138714728483444"><ele>559.0</ele><time>2026-05-01T14:21:06.999Z</time></trkpt><trkpt lat="46.2366912257185" lon="10.138864288643914"><ele>559.0</ele><time>2026-05-01T14:21:07.999Z</time></trkpt><trkpt lat="46.236583813577674" lon="10.139015151398278"><ele>559.0</ele><time>2026-05-01T14:21:08.999Z</time></trkpt><trkpt lat="46.23647004628" lon="10.139165062500222"><ele>559.0</ele><time>2026-05-01T14:21:09.999Z</time></trkpt><trkpt lat="46.2363594032594" lon="10.139309265237307"><ele>558.5</ele><time>2026-05-01T14:21:10.999Z</time></trkpt><trkpt lat="46.23624707201362" lon="10.139452306701457"><ele>558.0</ele><time>2026-05-01T14:21:11.999Z</time></trkpt><trkpt lat="46.23613385111133" lon="10.139584664073933"><ele>557.5</ele><time>2026-05-01T14:21:12.999Z</time></trkpt><trkpt lat="46.23602477399787" lon="10.139708812384512"><ele>557.0</ele><time>2026-05-01T14:21:13.999Z</time></trkpt><trkpt lat="46.23592402606743" lon="10.13982138307179"><ele>557.0</ele><time>2026-05-01T14:21:14.999Z</time></trkpt><trkpt lat="46.235827102204816" lon="10.139921130024563"><ele>557.0</ele><time>2026-05-01T14:21:15.999Z</time></trkpt><trkpt lat="46.235727426201855" lon="10.140009420998888"><ele>557.0</ele><time>2026-05-01T14:21:16.999Z</time></trkpt><trkpt lat="46.23562360426118" lon="10.140059044558312"><ele>557.0</ele><time>2026-05-01T14:21:18Z</time></trkpt><trkpt lat="46.23552908360471" lon="10.140078664956112"><ele>557.0</ele><time>2026-05-01T14:21:19Z</time></trkpt><trkpt lat="46.235441054380814" lon="10.140075823490271"><ele>558.3333333333333</ele><time>2026-05-01T14:21:20Z</time></trkpt><trkpt lat="46.23535445576355" lon="10.140047751761195"><ele>559.6666666666666</ele><time>2026-05-01T14:21:21Z</time></trkpt><trkpt lat="46.23527239898437" lon="10.140011690989411"><ele>561.0</ele><time>2026-05-01T14:21:22Z</time></trkpt><trkpt lat="46.235191385115414" lon="10.139986267967885"><ele>562.3333333333334</ele><time>2026-05-01T14:21:23Z</time></trkpt><trkpt lat="46.23510062951155" lon="10.13998709719437"><ele>563.6666666666667</ele><time>2026-05-01T14:21:24Z</time></trkpt><trkpt lat="46.2350217893929" lon="10.140034130892841"><ele>565.0</ele><time>2026-05-01T14:21:25Z</time></trkpt><trkpt lat="46.23495358339757" lon="10.140100659092042"><ele>565.0</ele><time>2026-05-01T14:21:26Z</time></trkpt><trkpt lat="46.23488451108268" lon="10.140180765128205"><ele>565.0</ele><time>2026-05-01T14:21:27Z</time></trkpt><trkpt lat="46.234778415582994" lon="10.14022038615278"><ele>565.0</ele><time>2026-05-01T14:21:28Z</time></trkpt><trkpt lat="46.23467258137468" lon="10.140288675498716"><ele>565.0</ele><time>2026-05-01T14:21:29Z</time></trkpt><trkpt lat="46.2345799329126" lon="10.140403557092768"><ele>565.0</ele><time>2026-05-01T14:21:30Z</time></trkpt><trkpt lat="46.23446687400228" lon="10.140530016689386"><ele>562.5</ele><time>2026-05-01T14:21:31Z</time></trkpt><trkpt lat="46.23435506188154" lon="10.14066049105065"><ele>560.0</ele><time>2026-05-01T14:21:32Z</time></trkpt><trkpt lat="46.234253407206864" lon="10.140788057652514"><ele>557.5</ele><time>2026-05-01T14:21:33Z</time></trkpt><trkpt lat="46.23416897665057" lon="10.140927949678382"><ele>555.0</ele><time>2026-05-01T14:21:34Z</time></trkpt><trkpt lat="46.23409176742708" lon="10.141050575772432"><ele>555.0</ele><time>2026-05-01T14:21:35Z</time></trkpt><trkpt lat="46.23404033329083" lon="10.141191101040897"><ele>555.0</ele><time>2026-05-01T14:21:36Z</time></trkpt><trkpt lat="46.23398797090144" lon="10.141320437700395"><ele>555.0</ele><time>2026-05-01T14:21:37Z</time></trkpt><trkpt lat="46.23394157890436" lon="10.141449726066435"><ele>555.0</ele><time>2026-05-01T14:21:38Z</time></trkpt><trkpt lat="46.23389771295238" lon="10.141570689878973"><ele>555.0</ele><time>2026-05-01T14:21:39Z</time></trkpt><trkpt lat="46.23385460624472" lon="10.141686233369466"><ele>554.8333333333334</ele><time>2026-05-01T14:21:40Z</time></trkpt><trkpt lat="46.23381201131189" lon="10.14179685799178"><ele>554.6666666666666</ele><time>2026-05-01T14:21:41Z</time></trkpt><trkpt lat="46.23376552743031" lon="10.14190718007604"><ele>554.5</ele><time>2026-05-01T14:21:42Z</time></trkpt><trkpt lat="46.233715390730616" lon="10.142006580463418"><ele>554.3333333333333</ele><time>2026-05-01T14:21:43Z</time></trkpt><trkpt lat="46.23366090661284" lon="10.14210323502427"><ele>554.1666666666666</ele><time>2026-05-01T14:21:44Z</time></trkpt><trkpt lat="46.2335976934877" lon="10.142189774060492"><ele>554.0</ele><time>2026-05-01T14:21:45Z</time></trkpt><trkpt lat="46.2335340467717" lon="10.1422750845029"><ele>554.0</ele><time>2026-05-01T14:21:46Z</time></trkpt><trkpt lat="46.233463606649714" lon="10.142351488364154"><ele>554.0</ele><time>2026-05-01T14:21:47Z</time></trkpt><trkpt lat="46.23339426589112" lon="10.142435812662612"><ele>554.0</ele><time>2026-05-01T14:21:48Z</time></trkpt><trkpt lat="46.2333292190859" lon="10.142532950430029"><ele>554.0</ele><time>2026-05-01T14:21:49Z</time></trkpt><trkpt lat="46.23326102568055" lon="10.14259410459976"><ele>554.0</ele><time>2026-05-01T14:21:50Z</time></trkpt><trkpt lat="46.23319126556097" lon="10.14265444506647"><ele>554.0</ele><time>2026-05-01T14:21:51Z</time></trkpt><trkpt lat="46.23312321961386" lon="10.14272293972407"><ele>553.0</ele><time>2026-05-01T14:21:52Z</time></trkpt><trkpt lat="46.233050973384415" lon="10.142813147226668"><ele>552.0</ele><time>2026-05-01T14:21:53Z</time></trkpt><trkpt lat="46.23297394107241" lon="10.142874324275475"><ele>551.0</ele><time>2026-05-01T14:21:54Z</time></trkpt><trkpt lat="46.232895375688386" lon="10.1429396455181"><ele>550.0</ele><time>2026-05-01T14:21:55Z</time></trkpt><trkpt lat="46.23283123464988" lon="10.14299999333903"><ele>549.0</ele><time>2026-05-01T14:21:56Z</time></trkpt><trkpt lat="46.23274712105212" lon="10.143025469277736"><ele>548.0</ele><time>2026-05-01T14:21:57Z</time></trkpt><trkpt lat="46.23266559437093" lon="10.143098515138933"><ele>548.0</ele><time>2026-05-01T14:21:58Z</time></trkpt><trkpt lat="46.232570250900864" lon="10.143152544927673"><ele>548.0</ele><time>2026-05-01T14:21:59Z</time></trkpt><trkpt lat="46.23247095929687" lon="10.143192469443223"><ele>548.0</ele><time>2026-05-01T14:22:00Z</time></trkpt><trkpt lat="46.23237018820924" lon="10.143243528554994"><ele>548.0</ele><time>2026-05-01T14:22:01Z</time></trkpt><trkpt lat="46.232261737889054" lon="10.143265805647523"><ele>548.0</ele><time>2026-05-01T14:22:02Z</time></trkpt><trkpt lat="46.23213960345362" lon="10.143290397305849"><ele>544.75</ele><time>2026-05-01T14:22:03Z</time></trkpt><trkpt lat="46.232026492185156" lon="10.143329444398326"><ele>541.5</ele><time>2026-05-01T14:22:04Z</time></trkpt><trkpt lat="46.23189831817056" lon="10.143368688053645"><ele>538.25</ele><time>2026-05-01T14:22:05Z</time></trkpt><trkpt lat="46.23176453660421" lon="10.143412236200584"><ele>535.0</ele><time>2026-05-01T14:22:06Z</time></trkpt><trkpt lat="46.23163613106501" lon="10.143474685324808"><ele>535.0</ele><time>2026-05-01T14:22:07Z</time></trkpt><trkpt lat="46.23152023953328" lon="10.143570963064779"><ele>535.0</ele><time>2026-05-01T14:22:08Z</time></trkpt><trkpt lat="46.23141316648531" lon="10.14367778453579"><ele>535.0</ele><time>2026-05-01T14:22:09Z</time></trkpt><trkpt lat="46.23132416738257" lon="10.143795969930974"><ele>535.0</ele><time>2026-05-01T14:22:10Z</time></trkpt><trkpt lat="46.2312441494121" lon="10.143914384708744"><ele>534.4</ele><time>2026-05-01T14:22:11Z</time></trkpt><trkpt lat="46.23116478612454" lon="10.144040922985917"><ele>533.8</ele><time>2026-05-01T14:22:12Z</time></trkpt><trkpt lat="46.23109078447738" lon="10.144157194384057"><ele>533.2</ele><time>2026-05-01T14:22:13Z</time></trkpt><trkpt lat="46.231028784122955" lon="10.144272157186903"><ele>532.6</ele><time>2026-05-01T14:22:14Z</time></trkpt><trkpt lat="46.23097201056393" lon="10.144384865778473"><ele>532.0</ele><time>2026-05-01T14:22:15Z</time></trkpt><trkpt lat="46.23090248116857" lon="10.144501623162691"><ele>532.0</ele><time>2026-05-01T14:22:16Z</time></trkpt><trkpt lat="46.23085283539573" lon="10.14462782402267"><ele>532.0</ele><time>2026-05-01T14:22:17Z</time></trkpt><trkpt lat="46.23078910380591" lon="10.144710937253159"><ele>532.0</ele><time>2026-05-01T14:22:18Z</time></trkpt><trkpt lat="46.23073820627445" lon="10.144797336801275"><ele>532.0</ele><time>2026-05-01T14:22:19Z</time></trkpt><trkpt lat="46.23066806147134" lon="10.144947171952648"><ele>532.0</ele><time>2026-05-01T14:22:20Z</time></trkpt><trkpt lat="46.23061153419114" lon="10.145029222592013"><ele>531.6</ele><time>2026-05-01T14:22:20.999Z</time></trkpt><trkpt lat="46.23056184680308" lon="10.145100234827487"><ele>531.2</ele><time>2026-05-01T14:22:21.999Z</time></trkpt><trkpt lat="46.230484541734704" lon="10.145218903392191"><ele>530.8</ele><time>2026-05-01T14:22:23.999Z</time></trkpt><trkpt lat="46.23041715978962" lon="10.145353433948761"><ele>530.4</ele><time>2026-05-01T14:22:25.999Z</time></trkpt><trkpt lat="46.23032321568905" lon="10.145515070448264"><ele>530.0</ele><time>2026-05-01T14:22:27.999Z</time></trkpt><trkpt lat="46.230264435845356" lon="10.145598577666481"><ele>530.0</ele><time>2026-05-01T14:22:28.999Z</time></trkpt><trkpt lat="46.23018770786322" lon="10.145649221507869"><ele>530.0</ele><time>2026-05-01T14:22:29.999Z</time></trkpt><trkpt lat="46.23009093811629" lon="10.145650698313432"><ele>530.0</ele><time>2026-05-01T14:22:30.999Z</time></trkpt><trkpt lat="46.23000205952387" lon="10.145633281042421"><ele>530.0</ele><time>2026-05-01T14:22:31.999Z</time></trkpt><trkpt lat="46.22990350010617" lon="10.145654125545352"><ele>530.0</ele><time>2026-05-01T14:22:32.999Z</time></trkpt><trkpt lat="46.22980611795929" lon="10.14568098780714"><ele>528.0</ele><time>2026-05-01T14:22:33.999Z</time></trkpt><trkpt lat="46.22971628853919" lon="10.145712201447108"><ele>526.0</ele><time>2026-05-01T14:22:34.999Z</time></trkpt><trkpt lat="46.22963891352416" lon="10.145792910751776"><ele>524.0</ele><time>2026-05-01T14:22:35.999Z</time></trkpt><trkpt lat="46.229560664710434" lon="10.1458376792528"><ele>522.0</ele><time>2026-05-01T14:22:36.999Z</time></trkpt><trkpt lat="46.229490271783284" lon="10.14588944964329"><ele>520.0</ele><time>2026-05-01T14:22:37.999Z</time></trkpt><trkpt lat="46.229430236358425" lon="10.145947848018912"><ele>518.0</ele><time>2026-05-01T14:22:38.999Z</time></trkpt><trkpt lat="46.22936522068399" lon="10.145951608996466"><ele>518.0</ele><time>2026-05-01T14:22:39.999Z</time></trkpt><trkpt lat="46.229302433217335" lon="10.14597858056232"><ele>518.0</ele><time>2026-05-01T14:22:40.999Z</time></trkpt><trkpt lat="46.229219254312206" lon="10.145996684955904"><ele>518.0</ele><time>2026-05-01T14:22:41.999Z</time></trkpt><trkpt lat="46.22915072232943" lon="10.146006824345488"><ele>518.0</ele><time>2026-05-01T14:22:42.999Z</time></trkpt><trkpt lat="46.22907768523999" lon="10.146025888159308"><ele>518.0</ele><time>2026-05-01T14:22:43.999Z</time></trkpt><trkpt lat="46.2289938026497" lon="10.146083064031538"><ele>518.0</ele><time>2026-05-01T14:22:44.999Z</time></trkpt><trkpt lat="46.228914591745664" lon="10.146142094034072"><ele>518.5</ele><time>2026-05-01T14:22:45.999Z</time></trkpt><trkpt lat="46.22881887229459" lon="10.146188035310791"><ele>519.0</ele><time>2026-05-01T14:22:46.999Z</time></trkpt><trkpt lat="46.2287003480356" lon="10.14618738969508"><ele>519.5</ele><time>2026-05-01T14:22:47.999Z</time></trkpt><trkpt lat="46.228586694161535" lon="10.146201450182675"><ele>520.0</ele><time>2026-05-01T14:22:48.999Z</time></trkpt><trkpt lat="46.22844053825606" lon="10.146187228238125"><ele>520.0</ele><time>2026-05-01T14:22:49.999Z</time></trkpt><trkpt lat="46.22829542650652" lon="10.146157836136767"><ele>520.0</ele><time>2026-05-01T14:22:50.999Z</time></trkpt><trkpt lat="46.228166355292764" lon="10.14613431820128"><ele>520.0</ele><time>2026-05-01T14:22:51.999Z</time></trkpt><trkpt lat="46.228014212754395" lon="10.146137709907837"><ele>520.0</ele><time>2026-05-01T14:22:52.999Z</time></trkpt><trkpt lat="46.22786717630474" lon="10.14616964095366"><ele>518.0</ele><time>2026-05-01T14:22:53.999Z</time></trkpt><trkpt lat="46.22777541077176" lon="10.146232632426095"><ele>516.0</ele><time>2026-05-01T14:22:54.999Z</time></trkpt><trkpt lat="46.22766512702681" lon="10.146256388335024"><ele>514.0</ele><time>2026-05-01T14:22:55.999Z</time></trkpt><trkpt lat="46.227382461839845" lon="10.146223139139316"><ele>516.6666666666667</ele><time>2026-05-01T14:22:56.999Z</time></trkpt><trkpt lat="46.227217594427735" lon="10.146151432156712"><ele>519.3333333333334</ele><time>2026-05-01T14:22:57.999Z</time></trkpt><trkpt lat="46.22705851026803" lon="10.146147240664668"><ele>522.0</ele><time>2026-05-01T14:22:58.999Z</time></trkpt><trkpt lat="46.22690489698021" lon="10.146190142563174"><ele>522.0</ele><time>2026-05-01T14:22:59.999Z</time></trkpt><trkpt lat="46.226751531141275" lon="10.146293539884397"><ele>522.0</ele><time>2026-05-01T14:23:00.999Z</time></trkpt><trkpt lat="46.22660324425055" lon="10.146445320127281"><ele>522.0</ele><time>2026-05-01T14:23:01.999Z</time></trkpt><trkpt lat="46.22645985251975" lon="10.146612369911827"><ele>517.6666666666666</ele><time>2026-05-01T14:23:02.999Z</time></trkpt><trkpt lat="46.226329157524795" lon="10.146756156728689"><ele>513.3333333333333</ele><time>2026-05-01T14:23:03.999Z</time></trkpt><trkpt lat="46.22618292015193" lon="10.146894372007342"><ele>509.0</ele><time>2026-05-01T14:23:04.999Z</time></trkpt><trkpt lat="46.226054133707436" lon="10.14700558396494"><ele>509.0</ele><time>2026-05-01T14:23:05.999Z</time></trkpt><trkpt lat="46.22591609573661" lon="10.147128754322443"><ele>509.0</ele><time>2026-05-01T14:23:06.999Z</time></trkpt><trkpt lat="46.225779526651245" lon="10.147252011748527"><ele>509.0</ele><time>2026-05-01T14:23:07.999Z</time></trkpt><trkpt lat="46.22563420691919" lon="10.147373515831188"><ele>509.0</ele><time>2026-05-01T14:23:08.999Z</time></trkpt><trkpt lat="46.22547982366621" lon="10.147511608876357"><ele>509.0</ele><time>2026-05-01T14:23:09.999Z</time></trkpt><trkpt lat="46.2253390248438" lon="10.147663170202541"><ele>509.0</ele><time>2026-05-01T14:23:10.999Z</time></trkpt><trkpt lat="46.225217102363096" lon="10.147831309194773"><ele>509.0</ele><time>2026-05-01T14:23:11.999Z</time></trkpt><trkpt lat="46.22509461390399" lon="10.148023919116506"><ele>509.0</ele><time>2026-05-01T14:23:12.999Z</time></trkpt><trkpt lat="46.22495798406157" lon="10.148207764378805"><ele>509.0</ele><time>2026-05-01T14:23:13.999Z</time></trkpt><trkpt lat="46.224815908589605" lon="10.148422933927325"><ele>512.0</ele><time>2026-05-01T14:23:14.999Z</time></trkpt><trkpt lat="46.22467286167348" lon="10.14862703866893"><ele>515.0</ele><time>2026-05-01T14:23:15.999Z</time></trkpt><trkpt lat="46.22455315365727" lon="10.14887178410881"><ele>518.0</ele><time>2026-05-01T14:23:16.999Z</time></trkpt><trkpt lat="46.224463873565014" lon="10.149088421636334"><ele>510.5</ele><time>2026-05-01T14:23:17.999Z</time></trkpt><trkpt lat="46.224403862663856" lon="10.149272933427557"><ele>503.0</ele><time>2026-05-01T14:23:18.999Z</time></trkpt><trkpt lat="46.22435506084471" lon="10.149441461640858"><ele>495.5</ele><time>2026-05-01T14:23:19.999Z</time></trkpt><trkpt lat="46.22426948804831" lon="10.14958204762661"><ele>488.0</ele><time>2026-05-01T14:23:20.999Z</time></trkpt><trkpt lat="46.2241791074827" lon="10.149711840200814"><ele>488.0</ele><time>2026-05-01T14:23:21.999Z</time></trkpt><trkpt lat="46.224060150306805" lon="10.149803814030891"><ele>488.0</ele><time>2026-05-01T14:23:22.999Z</time></trkpt><trkpt lat="46.223926596236986" lon="10.149843901306902"><ele>488.0</ele><time>2026-05-01T14:23:24Z</time></trkpt><trkpt lat="46.223806472747356" lon="10.149919682627248"><ele>488.0</ele><time>2026-05-01T14:23:25Z</time></trkpt><trkpt lat="46.22370075070517" lon="10.149994057967847"><ele>487.25</ele><time>2026-05-01T14:23:26Z</time></trkpt><trkpt lat="46.22362198284859" lon="10.150109076418738"><ele>486.5</ele><time>2026-05-01T14:23:27Z</time></trkpt><trkpt lat="46.22355508248286" lon="10.150255726028325"><ele>485.75</ele><time>2026-05-01T14:23:28Z</time></trkpt><trkpt lat="46.22350041625404" lon="10.150405956603112"><ele>485.0</ele><time>2026-05-01T14:23:29Z</time></trkpt><trkpt lat="46.22344650345381" lon="10.150538466258617"><ele>484.99999999999994</ele><time>2026-05-01T14:23:30Z</time></trkpt><trkpt lat="46.223392928718525" lon="10.150653530883352"><ele>485.0</ele><time>2026-05-01T14:23:31Z</time></trkpt><trkpt lat="46.22334353953914" lon="10.150755617541483"><ele>485.0</ele><time>2026-05-01T14:23:32Z</time></trkpt><trkpt lat="46.223293174331204" lon="10.15085888308832"><ele>485.0</ele><time>2026-05-01T14:23:33Z</time></trkpt><trkpt lat="46.22324432996101" lon="10.150960262265416"><ele>484.99999999999994</ele><time>2026-05-01T14:23:34Z</time></trkpt><trkpt lat="46.223194811050035" lon="10.151069613131066"><ele>485.0</ele><time>2026-05-01T14:23:35Z</time></trkpt><trkpt lat="46.22313930034076" lon="10.151182292514703"><ele>484.3333333333333</ele><time>2026-05-01T14:23:36Z</time></trkpt><trkpt lat="46.223093519177986" lon="10.15128686529916"><ele>483.66666666666663</ele><time>2026-05-01T14:23:37Z</time></trkpt><trkpt lat="46.22305666083757" lon="10.151380018387577"><ele>483.0</ele><time>2026-05-01T14:23:38Z</time></trkpt><trkpt lat="46.223023948161455" lon="10.151467307698914"><ele>482.33333333333337</ele><time>2026-05-01T14:23:39Z</time></trkpt><trkpt lat="46.2230043181913" lon="10.15155854922699"><ele>481.6666666666667</ele><time>2026-05-01T14:23:40Z</time></trkpt><trkpt lat="46.22299566259281" lon="10.151649234186605"><ele>481.0</ele><time>2026-05-01T14:23:41Z</time></trkpt><trkpt lat="46.22297898252836" lon="10.151820567563622"><ele>476.8</ele><time>2026-05-01T14:23:43Z</time></trkpt><trkpt lat="46.22296098268889" lon="10.15197472696034"><ele>472.6</ele><time>2026-05-01T14:23:45Z</time></trkpt><trkpt lat="46.22294551512578" lon="10.152131367178917"><ele>468.4</ele><time>2026-05-01T14:23:47Z</time></trkpt><trkpt lat="46.222921990837186" lon="10.152292594671351"><ele>464.2</ele><time>2026-05-01T14:23:49Z</time></trkpt><trkpt lat="46.22290062071833" lon="10.152390534720977"><ele>460.0</ele><time>2026-05-01T14:23:50Z</time></trkpt><trkpt lat="46.22285429153683" lon="10.15248724532676"><ele>458.83333333333337</ele><time>2026-05-01T14:23:51Z</time></trkpt><trkpt lat="46.22279000747616" lon="10.152568499189664"><ele>457.6666666666667</ele><time>2026-05-01T14:23:52Z</time></trkpt><trkpt lat="46.222713555186836" lon="10.15262170208466"><ele>456.5</ele><time>2026-05-01T14:23:53Z</time></trkpt><trkpt lat="46.22262594761104" lon="10.152676625020648"><ele>455.33333333333337</ele><time>2026-05-01T14:23:54Z</time></trkpt><trkpt lat="46.22254745311157" lon="10.15272552488289"><ele>454.1666666666667</ele><time>2026-05-01T14:23:55Z</time></trkpt><trkpt lat="46.222468297645186" lon="10.152778977525886"><ele>453.0</ele><time>2026-05-01T14:23:56Z</time></trkpt><trkpt lat="46.22238063026133" lon="10.152820848688007"><ele>452.5</ele><time>2026-05-01T14:23:57Z</time></trkpt><trkpt lat="46.22230343235451" lon="10.152874699686182"><ele>452.0</ele><time>2026-05-01T14:23:58Z</time></trkpt><trkpt lat="46.22222606849831" lon="10.152928406857642"><ele>451.5</ele><time>2026-05-01T14:23:59Z</time></trkpt><trkpt lat="46.22214406842465" lon="10.152980385552995"><ele>451.0</ele><time>2026-05-01T14:24:00Z</time></trkpt><trkpt lat="46.222070080448" lon="10.15303848411865"><ele>450.5</ele><time>2026-05-01T14:24:01Z</time></trkpt><trkpt lat="46.22199331648518" lon="10.153089015887577"><ele>450.0</ele><time>2026-05-01T14:24:02Z</time></trkpt><trkpt lat="46.22191464717865" lon="10.153134422576027"><ele>450.0</ele><time>2026-05-01T14:24:03Z</time></trkpt><trkpt lat="46.22183894074145" lon="10.153189821462382"><ele>450.0</ele><time>2026-05-01T14:24:04Z</time></trkpt><trkpt lat="46.22176164410657" lon="10.153242437531658"><ele>450.0</ele><time>2026-05-01T14:24:05Z</time></trkpt><trkpt lat="46.22168887634012" lon="10.153288580663094"><ele>450.0</ele><time>2026-05-01T14:24:06Z</time></trkpt><trkpt lat="46.22162301046347" lon="10.15334427435708"><ele>450.0</ele><time>2026-05-01T14:24:07Z</time></trkpt><trkpt lat="46.221558189970345" lon="10.153392094873958"><ele>450.0</ele><time>2026-05-01T14:24:08Z</time></trkpt><trkpt lat="46.22149557032711" lon="10.1534332137556"><ele>449.3333333333333</ele><time>2026-05-01T14:24:09Z</time></trkpt><trkpt lat="46.221437649968394" lon="10.153484190257926"><ele>448.66666666666663</ele><time>2026-05-01T14:24:10Z</time></trkpt><trkpt lat="46.221375986458376" lon="10.15353306004998"><ele>448.0</ele><time>2026-05-01T14:24:11Z</time></trkpt><trkpt lat="46.22131057919163" lon="10.15358634190477"><ele>447.3333333333333</ele><time>2026-05-01T14:24:12Z</time></trkpt><trkpt lat="46.22123588403363" lon="10.153633395757549"><ele>446.66666666666663</ele><time>2026-05-01T14:24:13Z</time></trkpt><trkpt lat="46.22116419494628" lon="10.153682240147253"><ele>446.0</ele><time>2026-05-01T14:24:14Z</time></trkpt><trkpt lat="46.22108986900977" lon="10.153734798171598"><ele>445.99999999999994</ele><time>2026-05-01T14:24:15Z</time></trkpt><trkpt lat="46.22101863409565" lon="10.153789606960732"><ele>446.0</ele><time>2026-05-01T14:24:16Z</time></trkpt><trkpt lat="46.2209431755923" lon="10.153836588565772"><ele>446.0</ele><time>2026-05-01T14:24:16.999Z</time></trkpt><trkpt lat="46.22087529059471" lon="10.153884339481815"><ele>446.0</ele><time>2026-05-01T14:24:17.999Z</time></trkpt><trkpt lat="46.22080272125753" lon="10.15393163330663"><ele>445.99999999999994</ele><time>2026-05-01T14:24:18.999Z</time></trkpt><trkpt lat="46.22072838426864" lon="10.153984791546984"><ele>446.0</ele><time>2026-05-01T14:24:19.999Z</time></trkpt><trkpt lat="46.22065116055516" lon="10.154039371670029"><ele>445.99999999999994</ele><time>2026-05-01T14:24:20.999Z</time></trkpt><trkpt lat="46.22056732417086" lon="10.15409441324313"><ele>446.0</ele><time>2026-05-01T14:24:21.999Z</time></trkpt><trkpt lat="46.220487674875066" lon="10.154140472852928"><ele>446.0</ele><time>2026-05-01T14:24:22.999Z</time></trkpt><trkpt lat="46.22039042218826" lon="10.154221499894527"><ele>446.0</ele><time>2026-05-01T14:24:24.999Z</time></trkpt><trkpt lat="46.22032257667463" lon="10.154249258463546"><ele>445.99999999999994</ele><time>2026-05-01T14:24:25.999Z</time></trkpt><trkpt lat="46.220248043029045" lon="10.154290968606533"><ele>446.0</ele><time>2026-05-01T14:24:26.999Z</time></trkpt><trkpt lat="46.22017001401058" lon="10.154344388721611"><ele>445.99999999999994</ele><time>2026-05-01T14:24:27.999Z</time></trkpt><trkpt lat="46.22008988100876" lon="10.154393422898076"><ele>446.0</ele><time>2026-05-01T14:24:28.999Z</time></trkpt><trkpt lat="46.2200196447158" lon="10.154445511710643"><ele>446.0</ele><time>2026-05-01T14:24:29.999Z</time></trkpt><trkpt lat="46.219949163995636" lon="10.154488288492173"><ele>446.0</ele><time>2026-05-01T14:24:30.999Z</time></trkpt><trkpt lat="46.21987626638157" lon="10.154517278942285"><ele>445.99999999999994</ele><time>2026-05-01T14:24:31.999Z</time></trkpt><trkpt lat="46.21981575632075" lon="10.154565209873669"><ele>446.0</ele><time>2026-05-01T14:24:32.999Z</time></trkpt><trkpt lat="46.21975697698912" lon="10.154607367997263"><ele>445.3333333333333</ele><time>2026-05-01T14:24:33.999Z</time></trkpt><trkpt lat="46.219647651658846" lon="10.154682362737411"><ele>444.66666666666663</ele><time>2026-05-01T14:24:35.999Z</time></trkpt><trkpt lat="46.21955301770527" lon="10.15475126571368"><ele>444.0</ele><time>2026-05-01T14:24:37.999Z</time></trkpt><trkpt lat="46.21947806987061" lon="10.154805126814026"><ele>443.33333333333337</ele><time>2026-05-01T14:24:39.999Z</time></trkpt><trkpt lat="46.219419216475636" lon="10.154847496246328"><ele>442.6666666666667</ele><time>2026-05-01T14:24:42.999Z</time></trkpt><trkpt lat="46.21935811083844" lon="10.154888317979509"><ele>442.0</ele><time>2026-05-01T14:24:47.999Z</time></trkpt><trkpt lat="46.21928304900327" lon="10.154937781535338"><ele>441.83333333333337</ele><time>2026-05-01T14:24:50.999Z</time></trkpt><trkpt lat="46.219198348097216" lon="10.155011034367133"><ele>441.6666666666667</ele><time>2026-05-01T14:24:52.999Z</time></trkpt><trkpt lat="46.21912914203013" lon="10.155057071405475"><ele>441.5</ele><time>2026-05-01T14:24:54.999Z</time></trkpt><trkpt lat="46.21905453907295" lon="10.155099711791577"><ele>441.33333333333337</ele><time>2026-05-01T14:24:56.999Z</time></trkpt><trkpt lat="46.2189918786748" lon="10.155149455594387"><ele>441.1666666666667</ele><time>2026-05-01T14:24:58.999Z</time></trkpt><trkpt lat="46.21891576208102" lon="10.155206235608242"><ele>441.0</ele><time>2026-05-01T14:25:00.999Z</time></trkpt><trkpt lat="46.21882318033822" lon="10.155264000982314"><ele>441.0</ele><time>2026-05-01T14:25:02.999Z</time></trkpt><trkpt lat="46.218740992014695" lon="10.155324109337384"><ele>441.0</ele><time>2026-05-01T14:25:04.999Z</time></trkpt><trkpt lat="46.21866917072256" lon="10.155366011913637"><ele>441.0</ele><time>2026-05-01T14:25:07.999Z</time></trkpt><trkpt lat="46.218604370326986" lon="10.155388997822431"><ele>441.0</ele><time>2026-05-01T14:25:10.999Z</time></trkpt><trkpt lat="46.218544736466995" lon="10.155424228591958"><ele>441.0</ele><time>2026-05-01T14:25:12.999Z</time></trkpt><trkpt lat="46.21847916049676" lon="10.155465040503142"><ele>441.0</ele><time>2026-05-01T14:25:14.999Z</time></trkpt><trkpt lat="46.218403873047635" lon="10.155521769299456"><ele>441.0</ele><time>2026-05-01T14:25:17.999Z</time></trkpt><trkpt lat="46.21833964354568" lon="10.155565335658748"><ele>441.0</ele><time>2026-05-01T14:25:24.999Z</time></trkpt><trkpt lat="46.21828410241337" lon="10.155611347471106"><ele>441.0</ele><time>2026-05-01T14:25:36Z</time></trkpt><trkpt lat="46.21822078215501" lon="10.1556522214393"><ele>441.0</ele><time>2026-05-01T14:25:44Z</time></trkpt><trkpt lat="46.21814697948969" lon="10.15570063043637"><ele>441.0</ele><time>2026-05-01T14:25:48Z</time></trkpt><trkpt lat="46.2180770318908" lon="10.155727127599413"><ele>441.0</ele><time>2026-05-01T14:25:52Z</time></trkpt><trkpt lat="46.21799590021518" lon="10.155767751868133"><ele>441.0</ele><time>2026-05-01T14:26:01Z</time></trkpt><trkpt lat="46.217937015266784" lon="10.155890896144104"><ele>440.0</ele><time>2026-05-01T14:26:03Z</time></trkpt><trkpt lat="46.21794036910111" lon="10.155989199056837"><ele>439.0</ele><time>2026-05-01T14:26:04Z</time></trkpt><trkpt lat="46.21795208121137" lon="10.156101539063755"><ele>438.0</ele><time>2026-05-01T14:26:05Z</time></trkpt><trkpt lat="46.217958494918406" lon="10.156231902833811"><ele>437.0</ele><time>2026-05-01T14:26:06Z</time></trkpt><trkpt lat="46.217941778692705" lon="10.156374466038244"><ele>436.0</ele><time>2026-05-01T14:26:07Z</time></trkpt><trkpt lat="46.21792324693246" lon="10.156547660851473"><ele>435.5</ele><time>2026-05-01T14:26:08Z</time></trkpt><trkpt lat="46.21790926247406" lon="10.156730631985631"><ele>435.0</ele><time>2026-05-01T14:26:09Z</time></trkpt><trkpt lat="46.217873892402295" lon="10.156882210017116"><ele>434.5</ele><time>2026-05-01T14:26:10Z</time></trkpt><trkpt lat="46.21792322807106" lon="10.157019883971175"><ele>434.0</ele><time>2026-05-01T14:26:11Z</time></trkpt><trkpt lat="46.21793199430961" lon="10.157184873569161"><ele>434.0</ele><time>2026-05-01T14:26:13Z</time></trkpt><trkpt lat="46.21794278937782" lon="10.157308544726977"><ele>434.0</ele><time>2026-05-01T14:26:15.999Z</time></trkpt><trkpt lat="46.21782194153228" lon="10.157369219293814"><ele>434.0</ele><time>2026-05-01T14:26:17.999Z</time></trkpt><trkpt lat="46.21779865115582" lon="10.157473691868415"><ele>434.0</ele><time>2026-05-01T14:26:18.999Z</time></trkpt><trkpt lat="46.21778123754315" lon="10.157591034576631"><ele>434.0</ele><time>2026-05-01T14:26:19.999Z</time></trkpt><trkpt lat="46.21775399863911" lon="10.157737997189212"><ele>434.5</ele><time>2026-05-01T14:26:21.999Z</time></trkpt><trkpt lat="46.217733821959285" lon="10.157835693596267"><ele>435.0</ele><time>2026-05-01T14:26:23.999Z</time></trkpt><trkpt lat="46.21767193344694" lon="10.158453631126578"><ele>434.5</ele><time>2026-05-01T14:26:25.999Z</time></trkpt><trkpt lat="46.21765401567203" lon="10.158618436804119"><ele>434.0</ele><time>2026-05-01T14:26:26.999Z</time></trkpt><trkpt lat="46.21762991061157" lon="10.158783097260967"><ele>433.5</ele><time>2026-05-01T14:26:27.999Z</time></trkpt><trkpt lat="46.217596736390036" lon="10.158940742887728"><ele>433.0</ele><time>2026-05-01T14:26:28.999Z</time></trkpt><trkpt lat="46.217577564942935" lon="10.15909371439744"><ele>432.75</ele><time>2026-05-01T14:26:29.999Z</time></trkpt><trkpt lat="46.2175568027204" lon="10.159258105211498"><ele>432.5</ele><time>2026-05-01T14:26:30.999Z</time></trkpt><trkpt lat="46.21753528033258" lon="10.159425936200089"><ele>432.25</ele><time>2026-05-01T14:26:31.999Z</time></trkpt><trkpt lat="46.21751342975585" lon="10.159593233242195"><ele>432.0</ele><time>2026-05-01T14:26:32.999Z</time></trkpt><trkpt lat="46.21749217091813" lon="10.159769765740526"><ele>431.75</ele><time>2026-05-01T14:26:33.999Z</time></trkpt><trkpt lat="46.21747438760787" lon="10.159935661263654"><ele>431.5</ele><time>2026-05-01T14:26:34.999Z</time></trkpt><trkpt lat="46.21745493491815" lon="10.160093674567117"><ele>431.25</ele><time>2026-05-01T14:26:35.999Z</time></trkpt><trkpt lat="46.21743558681146" lon="10.160253736547956"><ele>431.0</ele><time>2026-05-01T14:26:36.999Z</time></trkpt><trkpt lat="46.217398788704436" lon="10.160433336296718"><ele>431.0</ele><time>2026-05-01T14:26:37.999Z</time></trkpt><trkpt lat="46.21737949030321" lon="10.160639933340022"><ele>431.0</ele><time>2026-05-01T14:26:38.999Z</time></trkpt><trkpt lat="46.217357126202785" lon="10.160853914165804"><ele>431.0</ele><time>2026-05-01T14:26:39.999Z</time></trkpt><trkpt lat="46.217325335941204" lon="10.161081064127078"><ele>429.75</ele><time>2026-05-01T14:26:40.999Z</time></trkpt><trkpt lat="46.21729137793556" lon="10.161300214680885"><ele>428.5</ele><time>2026-05-01T14:26:41.999Z</time></trkpt><trkpt lat="46.217269451082835" lon="10.161496265855094"><ele>427.25</ele><time>2026-05-01T14:26:42.999Z</time></trkpt><trkpt lat="46.21724483667038" lon="10.161677864191006"><ele>426.0</ele><time>2026-05-01T14:26:43.999Z</time></trkpt><trkpt lat="46.21722113426419" lon="10.16184466901166"><ele>426.0</ele><time>2026-05-01T14:26:44.999Z</time></trkpt><trkpt lat="46.21720290308248" lon="10.162004109208098"><ele>426.0</ele><time>2026-05-01T14:26:45.999Z</time></trkpt><trkpt lat="46.217185888818946" lon="10.162162695035125"><ele>426.0</ele><time>2026-05-01T14:26:46.999Z</time></trkpt><trkpt lat="46.21716022147943" lon="10.162346717019641"><ele>426.0</ele><time>2026-05-01T14:26:47.999Z</time></trkpt><trkpt lat="46.217125459128866" lon="10.1624712171878"><ele>426.0</ele><time>2026-05-01T14:26:48.999Z</time></trkpt><trkpt lat="46.2171040247051" lon="10.162664575334132"><ele>426.0</ele><time>2026-05-01T14:26:49.999Z</time></trkpt><trkpt lat="46.21707830941538" lon="10.16288723667335"><ele>426.0</ele><time>2026-05-01T14:26:50.999Z</time></trkpt><trkpt lat="46.21704782355647" lon="10.163088231266874"><ele>426.0</ele><time>2026-05-01T14:26:51.999Z</time></trkpt><trkpt lat="46.2170217718118" lon="10.16327964968419"><ele>426.0</ele><time>2026-05-01T14:26:52.999Z</time></trkpt><trkpt lat="46.217013234402884" lon="10.163457851766989"><ele>426.0</ele><time>2026-05-01T14:26:53.999Z</time></trkpt><trkpt lat="46.21699516004845" lon="10.163629752703958"><ele>426.0</ele><time>2026-05-01T14:26:54.999Z</time></trkpt><trkpt lat="46.216972982683004" lon="10.163790111025481"><ele>426.0</ele><time>2026-05-01T14:26:55.999Z</time></trkpt><trkpt lat="46.21694913479798" lon="10.163952292712937"><ele>426.0</ele><time>2026-05-01T14:26:56.999Z</time></trkpt><trkpt lat="46.216924858495794" lon="10.164096198570272"><ele>426.25</ele><time>2026-05-01T14:26:57.999Z</time></trkpt><trkpt lat="46.2169104328505" lon="10.164245057807552"><ele>426.5</ele><time>2026-05-01T14:26:58.999Z</time></trkpt><trkpt lat="46.21687600128089" lon="10.164416056259505"><ele>426.75</ele><time>2026-05-01T14:26:59.999Z</time></trkpt><trkpt lat="46.216853333224314" lon="10.164594331030639"><ele>427.0</ele><time>2026-05-01T14:27:00.999Z</time></trkpt><trkpt lat="46.21682686802855" lon="10.164782741196753"><ele>428.25</ele><time>2026-05-01T14:27:01.999Z</time></trkpt><trkpt lat="46.21680048388684" lon="10.164972759887082"><ele>429.5</ele><time>2026-05-01T14:27:02.999Z</time></trkpt><trkpt lat="46.21676787293533" lon="10.165175239272807"><ele>430.75</ele><time>2026-05-01T14:27:03.999Z</time></trkpt><trkpt lat="46.21674949553475" lon="10.165359522289844"><ele>432.0</ele><time>2026-05-01T14:27:04.999Z</time></trkpt><trkpt lat="46.21673153112484" lon="10.165516119076832"><ele>432.0</ele><time>2026-05-01T14:27:05.999Z</time></trkpt><trkpt lat="46.2167123538361" lon="10.165630055854075"><ele>432.0</ele><time>2026-05-01T14:27:06.999Z</time></trkpt><trkpt lat="46.21668527720575" lon="10.165728626717845"><ele>432.0</ele><time>2026-05-01T14:27:08.999Z</time></trkpt><trkpt lat="46.21666032375641" lon="10.16581394600579"><ele>432.0</ele><time>2026-05-01T14:27:10.999Z</time></trkpt><trkpt lat="46.216650746102346" lon="10.165968344486533"><ele>432.0</ele><time>2026-05-01T14:27:12.999Z</time></trkpt><trkpt lat="46.21664098259234" lon="10.166073939822871"><ele>432.0</ele><time>2026-05-01T14:27:13.999Z</time></trkpt><trkpt lat="46.21662682297213" lon="10.166189427247327"><ele>432.0</ele><time>2026-05-01T14:27:14.999Z</time></trkpt><trkpt lat="46.216610361978816" lon="10.166309325599014"><ele>432.0</ele><time>2026-05-01T14:27:15.999Z</time></trkpt><trkpt lat="46.21659899308519" lon="10.166446937778536"><ele>432.0</ele><time>2026-05-01T14:27:16.999Z</time></trkpt><trkpt lat="46.216582539220965" lon="10.16655800504483"><ele>432.0</ele><time>2026-05-01T14:27:17.999Z</time></trkpt><trkpt lat="46.21657279665432" lon="10.166654361633633"><ele>432.0</ele><time>2026-05-01T14:27:18.999Z</time></trkpt><trkpt lat="46.21655624949753" lon="10.166807583221047"><ele>432.0</ele><time>2026-05-01T14:27:20.999Z</time></trkpt><trkpt lat="46.21653629963011" lon="10.166993042255191"><ele>432.0</ele><time>2026-05-01T14:27:22.999Z</time></trkpt><trkpt lat="46.21652835500797" lon="10.167097838431921"><ele>432.00000000000006</ele><time>2026-05-01T14:27:23.999Z</time></trkpt><trkpt lat="46.21651267308548" lon="10.167203565429281"><ele>432.00000000000006</ele><time>2026-05-01T14:27:24.999Z</time></trkpt><trkpt lat="46.216490101165256" lon="10.167364536255326"><ele>432.0</ele><time>2026-05-01T14:27:26.999Z</time></trkpt><trkpt lat="46.216469911588135" lon="10.167544451348773"><ele>432.0</ele><time>2026-05-01T14:27:28.999Z</time></trkpt><trkpt lat="46.216458600357136" lon="10.167645988108255"><ele>432.0</ele><time>2026-05-01T14:27:29.999Z</time></trkpt><trkpt lat="46.21644728242745" lon="10.167756580901548"><ele>432.0</ele><time>2026-05-01T14:27:30.999Z</time></trkpt><trkpt lat="46.21642723897252" lon="10.167861653096868"><ele>432.0</ele><time>2026-05-01T14:27:31.999Z</time></trkpt><trkpt lat="46.2164117827615" lon="10.167963501033421"><ele>432.0</ele><time>2026-05-01T14:27:32.999Z</time></trkpt><trkpt lat="46.21639093883832" lon="10.168112661644454"><ele>432.0</ele><time>2026-05-01T14:27:34.999Z</time></trkpt><trkpt lat="46.2163585646811" lon="10.168262555458687"><ele>432.0</ele><time>2026-05-01T14:27:36.999Z</time></trkpt><trkpt lat="46.21633778839752" lon="10.168412239550216"><ele>432.0</ele><time>2026-05-01T14:27:38.999Z</time></trkpt><trkpt lat="46.216321240050696" lon="10.168539330496502"><ele>432.0</ele><time>2026-05-01T14:27:40.999Z</time></trkpt><trkpt lat="46.2163021853064" lon="10.168686142230573"><ele>432.0</ele><time>2026-05-01T14:27:42.999Z</time></trkpt><trkpt lat="46.21628627246033" lon="10.168776031266313"><ele>432.0</ele><time>2026-05-01T14:27:43.999Z</time></trkpt><trkpt lat="46.21626908236126" lon="10.168870233635355"><ele>432.0</ele><time>2026-05-01T14:27:44.999Z</time></trkpt><trkpt lat="46.216258448993145" lon="10.168966660352513"><ele>432.0</ele><time>2026-05-01T14:27:45.999Z</time></trkpt><trkpt lat="46.21624783457148" lon="10.169061833136947"><ele>432.6</ele><time>2026-05-01T14:27:46.999Z</time></trkpt><trkpt lat="46.2162247370526" lon="10.169215284472054"><ele>433.20000000000005</ele><time>2026-05-01T14:27:48.999Z</time></trkpt><trkpt lat="46.21621522531786" lon="10.169362425284321"><ele>433.8</ele><time>2026-05-01T14:27:51Z</time></trkpt><trkpt lat="46.216203639519804" lon="10.169502133542329"><ele>434.4</ele><time>2026-05-01T14:27:53Z</time></trkpt><trkpt lat="46.216187398141514" lon="10.16961165412703"><ele>435.0</ele><time>2026-05-01T14:27:55Z</time></trkpt><trkpt lat="46.21617048032447" lon="10.16970153792354"><ele>435.0</ele><time>2026-05-01T14:28:02Z</time></trkpt><trkpt lat="46.21615822103666" lon="10.169816224216328"><ele>435.0</ele><time>2026-05-01T14:28:12Z</time></trkpt><trkpt lat="46.216121334613675" lon="10.169907609903252"><ele>435.0</ele><time>2026-05-01T14:28:14Z</time></trkpt><trkpt lat="46.21609935827015" lon="10.17013287782383"><ele>435.0</ele><time>2026-05-01T14:28:16Z</time></trkpt><trkpt lat="46.216094998482376" lon="10.170317073247022"><ele>435.0</ele><time>2026-05-01T14:28:17Z</time></trkpt><trkpt lat="46.21608296374656" lon="10.170433303408684"><ele>434.8</ele><time>2026-05-01T14:28:18Z</time></trkpt><trkpt lat="46.21609842047983" lon="10.170598247329234"><ele>434.6</ele><time>2026-05-01T14:28:19Z</time></trkpt><trkpt lat="46.21609814222923" lon="10.170716505384094"><ele>434.4</ele><time>2026-05-01T14:28:20Z</time></trkpt><trkpt lat="46.21609735517145" lon="10.17083129133747"><ele>434.2</ele><time>2026-05-01T14:28:21Z</time></trkpt><trkpt lat="46.216069053002734" lon="10.17098546342333"><ele>434.0</ele><time>2026-05-01T14:28:22.999Z</time></trkpt><trkpt lat="46.21593875992531" lon="10.171048620531336"><ele>434.0</ele><time>2026-05-01T14:28:24.999Z</time></trkpt><trkpt lat="46.21586682434153" lon="10.171117020340176"><ele>434.0</ele><time>2026-05-01T14:28:26.999Z</time></trkpt><trkpt lat="46.215809362339854" lon="10.17117685102207"><ele>434.0</ele><time>2026-05-01T14:28:36.999Z</time></trkpt><trkpt lat="46.21574609245271" lon="10.17125673011427"><ele>434.0</ele><time>2026-05-01T14:28:41.999Z</time></trkpt><trkpt lat="46.215675021648785" lon="10.171324215002763"><ele>434.0</ele><time>2026-05-01T14:28:43.999Z</time></trkpt><trkpt lat="46.21557779263635" lon="10.171453672881112"><ele>434.49999999999994</ele><time>2026-05-01T14:28:45.999Z</time></trkpt><trkpt lat="46.215523594443816" lon="10.171538693176142"><ele>435.0</ele><time>2026-05-01T14:28:46.999Z</time></trkpt><trkpt lat="46.21547085683573" lon="10.17161911165905"><ele>435.5</ele><time>2026-05-01T14:28:47.999Z</time></trkpt><trkpt lat="46.21541674931158" lon="10.17169670452977"><ele>436.0</ele><time>2026-05-01T14:28:48.999Z</time></trkpt><trkpt lat="46.215359583670796" lon="10.171775863804008"><ele>436.49999999999994</ele><time>2026-05-01T14:28:49.999Z</time></trkpt><trkpt lat="46.21529283688292" lon="10.17185629420521"><ele>437.0</ele><time>2026-05-01T14:28:50.999Z</time></trkpt><trkpt lat="46.2152225002196" lon="10.171940699194625"><ele>437.0</ele><time>2026-05-01T14:28:51.999Z</time></trkpt><trkpt lat="46.21515086846783" lon="10.172028986307756"><ele>437.00000000000006</ele><time>2026-05-01T14:28:52.999Z</time></trkpt><trkpt lat="46.215079671863705" lon="10.172112286108842"><ele>437.00000000000006</ele><time>2026-05-01T14:28:53.999Z</time></trkpt><trkpt lat="46.21500165494191" lon="10.17220147523257"><ele>437.0</ele><time>2026-05-01T14:28:54.999Z</time></trkpt><trkpt lat="46.214923352304595" lon="10.17231953281671"><ele>437.0</ele><time>2026-05-01T14:28:55.999Z</time></trkpt><trkpt lat="46.21483791324336" lon="10.172450539256245"><ele>437.0</ele><time>2026-05-01T14:28:56.999Z</time></trkpt><trkpt lat="46.21475232162108" lon="10.17259420782142"><ele>437.0</ele><time>2026-05-01T14:28:57.999Z</time></trkpt><trkpt lat="46.214675280783254" lon="10.172750169085695"><ele>437.0</ele><time>2026-05-01T14:28:58.999Z</time></trkpt><trkpt lat="46.214614211354" lon="10.17290398162283"><ele>437.0</ele><time>2026-05-01T14:28:59.999Z</time></trkpt><trkpt lat="46.214554599264275" lon="10.173049196534626"><ele>437.0</ele><time>2026-05-01T14:29:00.999Z</time></trkpt><trkpt lat="46.214513117590464" lon="10.173184732652961"><ele>437.0</ele><time>2026-05-01T14:29:01.999Z</time></trkpt><trkpt lat="46.21447656054788" lon="10.173379636204826"><ele>437.0</ele><time>2026-05-01T14:29:02.999Z</time></trkpt><trkpt lat="46.2144234781718" lon="10.17352514911546"><ele>437.0</ele><time>2026-05-01T14:29:03.999Z</time></trkpt><trkpt lat="46.21437301224314" lon="10.173698345699872"><ele>437.75</ele><time>2026-05-01T14:29:04.999Z</time></trkpt><trkpt lat="46.214314992235614" lon="10.173851346383003"><ele>438.5</ele><time>2026-05-01T14:29:05.999Z</time></trkpt><trkpt lat="46.214290892058514" lon="10.174020091565355"><ele>439.25</ele><time>2026-05-01T14:29:06.999Z</time></trkpt><trkpt lat="46.21426604745344" lon="10.174181196524957"><ele>440.0</ele><time>2026-05-01T14:29:07.999Z</time></trkpt><trkpt lat="46.21422417031828" lon="10.174350644290486"><ele>440.0</ele><time>2026-05-01T14:29:08.999Z</time></trkpt><trkpt lat="46.21419095962043" lon="10.174524271801708"><ele>440.0</ele><time>2026-05-01T14:29:09.999Z</time></trkpt><trkpt lat="46.21415587144311" lon="10.174693874266296"><ele>440.0</ele><time>2026-05-01T14:29:10.999Z</time></trkpt><trkpt lat="46.21412316403544" lon="10.174865395949094"><ele>440.0</ele><time>2026-05-01T14:29:11.999Z</time></trkpt><trkpt lat="46.21407829301418" lon="10.175033685987605"><ele>440.0</ele><time>2026-05-01T14:29:12.999Z</time></trkpt><trkpt lat="46.21403349537189" lon="10.175202989379857"><ele>440.0</ele><time>2026-05-01T14:29:13.999Z</time></trkpt><trkpt lat="46.21399431495494" lon="10.175383001798153"><ele>440.0</ele><time>2026-05-01T14:29:14.999Z</time></trkpt><trkpt lat="46.21395477705608" lon="10.175553876748678"><ele>440.0</ele><time>2026-05-01T14:29:15.999Z</time></trkpt><trkpt lat="46.21392282624432" lon="10.175727090098764"><ele>441.75</ele><time>2026-05-01T14:29:16.999Z</time></trkpt><trkpt lat="46.21387732105948" lon="10.175910579107345"><ele>443.5</ele><time>2026-05-01T14:29:17.999Z</time></trkpt><trkpt lat="46.21383571552902" lon="10.176099469352756"><ele>445.25</ele><time>2026-05-01T14:29:18.999Z</time></trkpt><trkpt lat="46.21378956518447" lon="10.176283658688902"><ele>447.0</ele><time>2026-05-01T14:29:19.999Z</time></trkpt><trkpt lat="46.213738984105845" lon="10.176481198415315"><ele>447.0</ele><time>2026-05-01T14:29:20.999Z</time></trkpt><trkpt lat="46.213691971456846" lon="10.17667726737229"><ele>447.0</ele><time>2026-05-01T14:29:21.999Z</time></trkpt><trkpt lat="46.21366048484608" lon="10.176869493363728"><ele>447.0</ele><time>2026-05-01T14:29:22.999Z</time></trkpt><trkpt lat="46.21361940969045" lon="10.177043462272588"><ele>447.0</ele><time>2026-05-01T14:29:23.999Z</time></trkpt><trkpt lat="46.21357971761322" lon="10.177231123714929"><ele>447.5</ele><time>2026-05-01T14:29:24.999Z</time></trkpt><trkpt lat="46.213540064285255" lon="10.177430234998878"><ele>448.0</ele><time>2026-05-01T14:29:25.999Z</time></trkpt><trkpt lat="46.213497048189836" lon="10.177609886553409"><ele>448.5</ele><time>2026-05-01T14:29:26.999Z</time></trkpt><trkpt lat="46.213453838303906" lon="10.17780471653696"><ele>449.0</ele><time>2026-05-01T14:29:27.999Z</time></trkpt><trkpt lat="46.21342509136243" lon="10.17801025598525"><ele>450.0</ele><time>2026-05-01T14:29:28.999Z</time></trkpt><trkpt lat="46.21342624928928" lon="10.17821359106858"><ele>451.0</ele><time>2026-05-01T14:29:29.999Z</time></trkpt><trkpt lat="46.213443019452384" lon="10.178409491713209"><ele>452.0</ele><time>2026-05-01T14:29:30.999Z</time></trkpt><trkpt lat="46.21343533999095" lon="10.178588239396664"><ele>453.0</ele><time>2026-05-01T14:29:31.999Z</time></trkpt><trkpt lat="46.21345985151458" lon="10.178748303217603"><ele>453.0</ele><time>2026-05-01T14:29:32.999Z</time></trkpt><trkpt lat="46.21349749162265" lon="10.178923326497896"><ele>453.0</ele><time>2026-05-01T14:29:33.999Z</time></trkpt><trkpt lat="46.2135453882139" lon="10.179102797195917"><ele>453.0</ele><time>2026-05-01T14:29:34.999Z</time></trkpt><trkpt lat="46.21359931773317" lon="10.179277707565848"><ele>453.0</ele><time>2026-05-01T14:29:35.999Z</time></trkpt><trkpt lat="46.21367544354387" lon="10.1794459645145"><ele>455.33333333333337</ele><time>2026-05-01T14:29:36.999Z</time></trkpt><trkpt lat="46.213751975967526" lon="10.179619245663481"><ele>457.6666666666667</ele><time>2026-05-01T14:29:37.999Z</time></trkpt><trkpt lat="46.21386142331424" lon="10.17977936212026"><ele>460.0</ele><time>2026-05-01T14:29:38.999Z</time></trkpt><trkpt lat="46.213982268074474" lon="10.179924894805003"><ele>460.75</ele><time>2026-05-01T14:29:39.999Z</time></trkpt><trkpt lat="46.21409943848207" lon="10.180061708814643"><ele>461.5</ele><time>2026-05-01T14:29:40.999Z</time></trkpt><trkpt lat="46.21417550725746" lon="10.18018351357552"><ele>462.25</ele><time>2026-05-01T14:29:41.999Z</time></trkpt><trkpt lat="46.21423548454847" lon="10.180305045687678"><ele>463.0</ele><time>2026-05-01T14:29:42.999Z</time></trkpt><trkpt lat="46.21435237185587" lon="10.180441840853462"><ele>463.0</ele><time>2026-05-01T14:29:43.999Z</time></trkpt><trkpt lat="46.214608999640504" lon="10.180639233544554"><ele>463.0</ele><time>2026-05-01T14:29:44.999Z</time></trkpt><trkpt lat="46.214785923513425" lon="10.180835053534864"><ele>465.6666666666667</ele><time>2026-05-01T14:29:45.999Z</time></trkpt><trkpt lat="46.21492112240995" lon="10.18097689254011"><ele>468.33333333333337</ele><time>2026-05-01T14:29:46.999Z</time></trkpt><trkpt lat="46.215070993059406" lon="10.181134095755175"><ele>471.0</ele><time>2026-05-01T14:29:47.999Z</time></trkpt><trkpt lat="46.215210663651526" lon="10.181294204308973"><ele>471.0</ele><time>2026-05-01T14:29:48.999Z</time></trkpt><trkpt lat="46.21537071710997" lon="10.181464287047499"><ele>471.0</ele><time>2026-05-01T14:29:49.999Z</time></trkpt><trkpt lat="46.21551798406295" lon="10.18163205039504"><ele>471.0</ele><time>2026-05-01T14:29:50.999Z</time></trkpt><trkpt lat="46.215670195132724" lon="10.18180651804999"><ele>473.0</ele><time>2026-05-01T14:29:51.999Z</time></trkpt><trkpt lat="46.21582615064639" lon="10.181984747412328"><ele>475.0</ele><time>2026-05-01T14:29:52.999Z</time></trkpt><trkpt lat="46.21598236865338" lon="10.182160134546583"><ele>477.0</ele><time>2026-05-01T14:29:53.999Z</time></trkpt><trkpt lat="46.21613148892448" lon="10.182323989297815"><ele>479.33333333333337</ele><time>2026-05-01T14:29:54.999Z</time></trkpt><trkpt lat="46.21627207864135" lon="10.182476191855429"><ele>481.6666666666667</ele><time>2026-05-01T14:29:55.999Z</time></trkpt><trkpt lat="46.21640488025395" lon="10.182620406554022"><ele>484.0</ele><time>2026-05-01T14:29:56.999Z</time></trkpt><trkpt lat="46.21653647311467" lon="10.182766355112935"><ele>484.0</ele><time>2026-05-01T14:29:57.999Z</time></trkpt><trkpt lat="46.21666771549068" lon="10.182915296186069"><ele>484.0</ele><time>2026-05-01T14:29:58.999Z</time></trkpt><trkpt lat="46.216812174908085" lon="10.183064461796627"><ele>484.0</ele><time>2026-05-01T14:29:59.999Z</time></trkpt><trkpt lat="46.216951126177044" lon="10.183212828579622"><ele>486.6666666666667</ele><time>2026-05-01T14:30:00.999Z</time></trkpt><trkpt lat="46.21707984190349" lon="10.183356938959722"><ele>489.33333333333337</ele><time>2026-05-01T14:30:01.999Z</time></trkpt><trkpt lat="46.217220520177115" lon="10.183515893833544"><ele>492.0</ele><time>2026-05-01T14:30:02.999Z</time></trkpt><trkpt lat="46.21734854898868" lon="10.18365864198886"><ele>493.0</ele><time>2026-05-01T14:30:03.999Z</time></trkpt><trkpt lat="46.21746879435625" lon="10.183791762989827"><ele>494.0</ele><time>2026-05-01T14:30:04.999Z</time></trkpt><trkpt lat="46.21759581233409" lon="10.183928505077684"><ele>495.0</ele><time>2026-05-01T14:30:05.999Z</time></trkpt><trkpt lat="46.21772161854321" lon="10.184061524671025"><ele>497.33333333333337</ele><time>2026-05-01T14:30:06.999Z</time></trkpt><trkpt lat="46.21784709914214" lon="10.184197160594339"><ele>499.6666666666667</ele><time>2026-05-01T14:30:07.999Z</time></trkpt><trkpt lat="46.217975329281046" lon="10.184334427841"><ele>502.0</ele><time>2026-05-01T14:30:08.999Z</time></trkpt><trkpt lat="46.21810374331758" lon="10.184481721413176"><ele>502.33333333333337</ele><time>2026-05-01T14:30:09.999Z</time></trkpt><trkpt lat="46.2182330641474" lon="10.18463083224629"><ele>502.66666666666663</ele><time>2026-05-01T14:30:10.999Z</time></trkpt><trkpt lat="46.21836647829533" lon="10.184774411752787"><ele>503.0</ele><time>2026-05-01T14:30:11.999Z</time></trkpt><trkpt lat="46.218500536908444" lon="10.184929479873256"><ele>505.0</ele><time>2026-05-01T14:30:12.999Z</time></trkpt><trkpt lat="46.21864123160895" lon="10.18508873384044"><ele>507.0</ele><time>2026-05-01T14:30:13.999Z</time></trkpt><trkpt lat="46.21878316424407" lon="10.185249957151909"><ele>509.0</ele><time>2026-05-01T14:30:14.999Z</time></trkpt><trkpt lat="46.21892828380833" lon="10.185409671246523"><ele>508.66666666666663</ele><time>2026-05-01T14:30:15.999Z</time></trkpt><trkpt lat="46.21907470627318" lon="10.185571214888135"><ele>508.33333333333337</ele><time>2026-05-01T14:30:16.999Z</time></trkpt><trkpt lat="46.2192221348085" lon="10.185736528205135"><ele>508.0</ele><time>2026-05-01T14:30:17.999Z</time></trkpt><trkpt lat="46.21936283091637" lon="10.185898364482675"><ele>510.6666666666667</ele><time>2026-05-01T14:30:18.999Z</time></trkpt><trkpt lat="46.21949794436762" lon="10.186056551520789"><ele>513.3333333333334</ele><time>2026-05-01T14:30:19.999Z</time></trkpt><trkpt lat="46.21962664423982" lon="10.186205187910593"><ele>516.0</ele><time>2026-05-01T14:30:20.999Z</time></trkpt><trkpt lat="46.21975845978349" lon="10.186347168786009"><ele>516.6666666666666</ele><time>2026-05-01T14:30:21.999Z</time></trkpt><trkpt lat="46.219902760130175" lon="10.186503510519431"><ele>517.3333333333333</ele><time>2026-05-01T14:30:22.999Z</time></trkpt><trkpt lat="46.22004200302838" lon="10.186668560340614"><ele>518.0</ele><time>2026-05-01T14:30:23.999Z</time></trkpt><trkpt lat="46.22018804715302" lon="10.186831969878323"><ele>518.0</ele><time>2026-05-01T14:30:24.999Z</time></trkpt><trkpt lat="46.22033734285069" lon="10.186995446867993"><ele>518.0</ele><time>2026-05-01T14:30:25.999Z</time></trkpt><trkpt lat="46.22047269475879" lon="10.187144067852874"><ele>518.0</ele><time>2026-05-01T14:30:26.999Z</time></trkpt><trkpt lat="46.220534188407214" lon="10.187260025478095"><ele>519.5</ele><time>2026-05-01T14:30:27.999Z</time></trkpt><trkpt lat="46.22059651699968" lon="10.18735962677731"><ele>521.0</ele><time>2026-05-01T14:30:28.999Z</time></trkpt><trkpt lat="46.22093764566787" lon="10.187690929567815"><ele>521.0</ele><time>2026-05-01T14:30:29.999Z</time></trkpt><trkpt lat="46.221085882127255" lon="10.187866196384517"><ele>521.0</ele><time>2026-05-01T14:30:30.999Z</time></trkpt><trkpt lat="46.221244205738714" lon="10.188038657210173"><ele>521.0</ele><time>2026-05-01T14:30:31.999Z</time></trkpt><trkpt lat="46.22140227617575" lon="10.188208793131833"><ele>522.6666666666666</ele><time>2026-05-01T14:30:32.999Z</time></trkpt><trkpt lat="46.22155598404086" lon="10.1883895848037"><ele>524.3333333333334</ele><time>2026-05-01T14:30:33.999Z</time></trkpt><trkpt lat="46.22170795692983" lon="10.188563850808084"><ele>526.0</ele><time>2026-05-01T14:30:34.999Z</time></trkpt><trkpt lat="46.22186014783043" lon="10.188726752087268"><ele>526.0</ele><time>2026-05-01T14:30:35.999Z</time></trkpt><trkpt lat="46.22201321180287" lon="10.188881535547296"><ele>526.0</ele><time>2026-05-01T14:30:36.999Z</time></trkpt><trkpt lat="46.22215918975597" lon="10.189044856584038"><ele>526.0</ele><time>2026-05-01T14:30:37.999Z</time></trkpt><trkpt lat="46.2222893483422" lon="10.18919223741645"><ele>528.6666666666667</ele><time>2026-05-01T14:30:38.999Z</time></trkpt><trkpt lat="46.22242695021709" lon="10.189340850359214"><ele>531.3333333333334</ele><time>2026-05-01T14:30:39.999Z</time></trkpt><trkpt lat="46.22256611137238" lon="10.189485448167575"><ele>534.0</ele><time>2026-05-01T14:30:40.999Z</time></trkpt><trkpt lat="46.222708021949984" lon="10.18962295900324"><ele>534.0</ele><time>2026-05-01T14:30:41.999Z</time></trkpt><trkpt lat="46.222848852746274" lon="10.18975872357187"><ele>534.0</ele><time>2026-05-01T14:30:42.999Z</time></trkpt><trkpt lat="46.2229883125295" lon="10.189901795798667"><ele>534.0</ele><time>2026-05-01T14:30:43.999Z</time></trkpt><trkpt lat="46.223123036945154" lon="10.19003896917894"><ele>536.0</ele><time>2026-05-01T14:30:44.999Z</time></trkpt><trkpt lat="46.22325668624966" lon="10.19019027703465"><ele>538.0</ele><time>2026-05-01T14:30:45.999Z</time></trkpt><trkpt lat="46.22338994706769" lon="10.19031966039372"><ele>540.0</ele><time>2026-05-01T14:30:46.999Z</time></trkpt><trkpt lat="46.22351853723182" lon="10.190457113839413"><ele>540.0</ele><time>2026-05-01T14:30:47.999Z</time></trkpt><trkpt lat="46.22362363093043" lon="10.190608457141469"><ele>540.0</ele><time>2026-05-01T14:30:48.999Z</time></trkpt><trkpt lat="46.22372038068939" lon="10.190782303052025"><ele>540.0</ele><time>2026-05-01T14:30:49.999Z</time></trkpt><trkpt lat="46.22380006489457" lon="10.190973348267734"><ele>541.6666666666666</ele><time>2026-05-01T14:30:50.999Z</time></trkpt><trkpt lat="46.223867075864646" lon="10.191175310146166"><ele>543.3333333333333</ele><time>2026-05-01T14:30:51.999Z</time></trkpt><trkpt lat="46.22393187425274" lon="10.191389968390386"><ele>545.0</ele><time>2026-05-01T14:30:52.999Z</time></trkpt><trkpt lat="46.22398278904472" lon="10.191590663610503"><ele>545.3333333333333</ele><time>2026-05-01T14:30:53.999Z</time></trkpt><trkpt lat="46.22404544503631" lon="10.191800199943389"><ele>545.6666666666666</ele><time>2026-05-01T14:30:54.999Z</time></trkpt><trkpt lat="46.22412441707568" lon="10.192000519220883"><ele>546.0</ele><time>2026-05-01T14:30:55.999Z</time></trkpt><trkpt lat="46.22422187176888" lon="10.192169842981704"><ele>546.0</ele><time>2026-05-01T14:30:56.999Z</time></trkpt><trkpt lat="46.22433580460033" lon="10.192326528633817"><ele>546.0</ele><time>2026-05-01T14:30:57.999Z</time></trkpt><trkpt lat="46.22445412048599" lon="10.192474095311649"><ele>546.0</ele><time>2026-05-01T14:30:58.999Z</time></trkpt><trkpt lat="46.22457278560422" lon="10.192615765167707"><ele>548.3333333333334</ele><time>2026-05-01T14:30:59.999Z</time></trkpt><trkpt lat="46.224688180414134" lon="10.192754985779898"><ele>550.6666666666667</ele><time>2026-05-01T14:31:00.999Z</time></trkpt><trkpt lat="46.224799212267314" lon="10.192912093228825"><ele>553.0</ele><time>2026-05-01T14:31:01.999Z</time></trkpt><trkpt lat="46.224904924090865" lon="10.19309013163086"><ele>550.6666666666667</ele><time>2026-05-01T14:31:02.999Z</time></trkpt><trkpt lat="46.22500149192624" lon="10.193297296693133"><ele>548.3333333333334</ele><time>2026-05-01T14:31:03.999Z</time></trkpt><trkpt lat="46.2250909443421" lon="10.193527311821779"><ele>546.0</ele><time>2026-05-01T14:31:04.999Z</time></trkpt><trkpt lat="46.2251784105751" lon="10.193763989472227"><ele>549.0</ele><time>2026-05-01T14:31:05.999Z</time></trkpt><trkpt lat="46.22526646825838" lon="10.194010797308522"><ele>552.0</ele><time>2026-05-01T14:31:06.999Z</time></trkpt><trkpt lat="46.22535187433368" lon="10.194265716886251"><ele>555.0</ele><time>2026-05-01T14:31:07.999Z</time></trkpt><trkpt lat="46.225431881752996" lon="10.194502944580387"><ele>555.0</ele><time>2026-05-01T14:31:08.999Z</time></trkpt><trkpt lat="46.22551420223306" lon="10.194722580475322"><ele>555.0</ele><time>2026-05-01T14:31:09.999Z</time></trkpt><trkpt lat="46.2255941332567" lon="10.194941171799929"><ele>555.0</ele><time>2026-05-01T14:31:10.999Z</time></trkpt><trkpt lat="46.22565760876617" lon="10.195144746101176"><ele>553.25</ele><time>2026-05-01T14:31:11.999Z</time></trkpt><trkpt lat="46.225686179235616" lon="10.195354423153121"><ele>551.5</ele><time>2026-05-01T14:31:12.999Z</time></trkpt><trkpt lat="46.22570918195012" lon="10.195548804795237"><ele>549.75</ele><time>2026-05-01T14:31:13.999Z</time></trkpt><trkpt lat="46.22571857955279" lon="10.19575555447345"><ele>548.0</ele><time>2026-05-01T14:31:14.999Z</time></trkpt><trkpt lat="46.22571806691431" lon="10.19595794381171"><ele>548.0</ele><time>2026-05-01T14:31:15.999Z</time></trkpt><trkpt lat="46.22572959397465" lon="10.196151369319885"><ele>548.0</ele><time>2026-05-01T14:31:16.999Z</time></trkpt><trkpt lat="46.22572253911249" lon="10.196335244379659"><ele>548.0</ele><time>2026-05-01T14:31:17.999Z</time></trkpt><trkpt lat="46.22572272739867" lon="10.196508128380795"><ele>548.0</ele><time>2026-05-01T14:31:18.999Z</time></trkpt><trkpt lat="46.22574302107903" lon="10.196672311157482"><ele>549.25</ele><time>2026-05-01T14:31:19.999Z</time></trkpt><trkpt lat="46.22578248849301" lon="10.196834446687637"><ele>550.5</ele><time>2026-05-01T14:31:20.999Z</time></trkpt><trkpt lat="46.22584166095555" lon="10.197001059373052"><ele>551.75</ele><time>2026-05-01T14:31:21.999Z</time></trkpt><trkpt lat="46.22591486813583" lon="10.197165455208593"><ele>553.0</ele><time>2026-05-01T14:31:22.999Z</time></trkpt><trkpt lat="46.22600491813401" lon="10.197306952961156"><ele>554.5</ele><time>2026-05-01T14:31:23.999Z</time></trkpt><trkpt lat="46.22610859632675" lon="10.197428192317679"><ele>556.0</ele><time>2026-05-01T14:31:24.999Z</time></trkpt><trkpt lat="46.226226516522324" lon="10.197530380661904"><ele>557.5</ele><time>2026-05-01T14:31:25.999Z</time></trkpt><trkpt lat="46.226344068504474" lon="10.197624710270299"><ele>559.0</ele><time>2026-05-01T14:31:26.999Z</time></trkpt><trkpt lat="46.22646648277463" lon="10.197703205270512"><ele>554.0</ele><time>2026-05-01T14:31:27.999Z</time></trkpt><trkpt lat="46.226582932658516" lon="10.197784137308414"><ele>549.0</ele><time>2026-05-01T14:31:28.999Z</time></trkpt><trkpt lat="46.22669281744406" lon="10.19786863194922"><ele>544.0</ele><time>2026-05-01T14:31:29.999Z</time></trkpt><trkpt lat="46.22680502661131" lon="10.19795993264123"><ele>539.0</ele><time>2026-05-01T14:31:30.999Z</time></trkpt><trkpt lat="46.226917854463885" lon="10.198047696348445"><ele>539.0</ele><time>2026-05-01T14:31:31.999Z</time></trkpt><trkpt lat="46.22702713366824" lon="10.198133086336322"><ele>539.0</ele><time>2026-05-01T14:31:32.999Z</time></trkpt><trkpt lat="46.22712834005827" lon="10.198219997484138"><ele>539.0</ele><time>2026-05-01T14:31:33.999Z</time></trkpt><trkpt lat="46.22722022653269" lon="10.198320993261602"><ele>539.0</ele><time>2026-05-01T14:31:34.999Z</time></trkpt><trkpt lat="46.227298710797655" lon="10.19844688842279"><ele>540.75</ele><time>2026-05-01T14:31:35.999Z</time></trkpt><trkpt lat="46.2273771133426" lon="10.198595225730463"><ele>542.5</ele><time>2026-05-01T14:31:36.999Z</time></trkpt><trkpt lat="46.22744671142032" lon="10.198761898596437"><ele>544.25</ele><time>2026-05-01T14:31:37.999Z</time></trkpt><trkpt lat="46.227504935478656" lon="10.198934393316224"><ele>546.0</ele><time>2026-05-01T14:31:38.999Z</time></trkpt><trkpt lat="46.227557421433616" lon="10.199118408577107"><ele>548.6666666666666</ele><time>2026-05-01T14:31:39.999Z</time></trkpt><trkpt lat="46.22761673680936" lon="10.199315135279711"><ele>551.3333333333333</ele><time>2026-05-01T14:31:40.999Z</time></trkpt><trkpt lat="46.22766734126887" lon="10.199523403296325"><ele>554.0</ele><time>2026-05-01T14:31:41.999Z</time></trkpt><trkpt lat="46.22772560129354" lon="10.199720896127427"><ele>555.75</ele><time>2026-05-01T14:31:42.999Z</time></trkpt><trkpt lat="46.227784324661826" lon="10.199918029110044"><ele>557.5</ele><time>2026-05-01T14:31:43.999Z</time></trkpt><trkpt lat="46.22782917670649" lon="10.200103312390866"><ele>559.25</ele><time>2026-05-01T14:31:44.999Z</time></trkpt><trkpt lat="46.22786080041386" lon="10.20030273236045"><ele>561.0</ele><time>2026-05-01T14:31:45.999Z</time></trkpt><trkpt lat="46.22788780500104" lon="10.200511126826676"><ele>563.6666666666666</ele><time>2026-05-01T14:31:46.999Z</time></trkpt><trkpt lat="46.22791281346745" lon="10.200720356925844"><ele>566.3333333333333</ele><time>2026-05-01T14:31:47.999Z</time></trkpt><trkpt lat="46.227941018859" lon="10.200956429086105"><ele>569.0</ele><time>2026-05-01T14:31:48.999Z</time></trkpt><trkpt lat="46.2279853189424" lon="10.201202765437596"><ele>569.0</ele><time>2026-05-01T14:31:49.999Z</time></trkpt><trkpt lat="46.22800020720925" lon="10.201451821927094"><ele>569.0</ele><time>2026-05-01T14:31:50.999Z</time></trkpt><trkpt lat="46.22803219967702" lon="10.201711432428526"><ele>569.0</ele><time>2026-05-01T14:31:51.999Z</time></trkpt><trkpt lat="46.22807820259137" lon="10.201987145840981"><ele>570.6666666666666</ele><time>2026-05-01T14:31:52.999Z</time></trkpt><trkpt lat="46.228135577668574" lon="10.202253005826735"><ele>572.3333333333334</ele><time>2026-05-01T14:31:53.999Z</time></trkpt><trkpt lat="46.228228132544785" lon="10.202522750436811"><ele>574.0</ele><time>2026-05-01T14:31:54.999Z</time></trkpt><trkpt lat="46.22834759689665" lon="10.202798036929732"><ele>554.0</ele><time>2026-05-01T14:31:55.999Z</time></trkpt><trkpt lat="46.22848922432816" lon="10.203076157985084"><ele>534.0</ele><time>2026-05-01T14:31:56.999Z</time></trkpt><trkpt lat="46.22863996245746" lon="10.203365902032896"><ele>534.0</ele><time>2026-05-01T14:31:57.999Z</time></trkpt><trkpt lat="46.22879495019601" lon="10.203657311296714"><ele>534.0</ele><time>2026-05-01T14:31:58.999Z</time></trkpt><trkpt lat="46.2289563623057" lon="10.20393030509601"><ele>528.5</ele><time>2026-05-01T14:31:59.999Z</time></trkpt><trkpt lat="46.22909887139924" lon="10.20421077370679"><ele>523.0</ele><time>2026-05-01T14:32:00.999Z</time></trkpt><trkpt lat="46.229232033858665" lon="10.204483045242457"><ele>523.0</ele><time>2026-05-01T14:32:01.999Z</time></trkpt><trkpt lat="46.2293260822206" lon="10.204764455311283"><ele>523.0</ele><time>2026-05-01T14:32:02.999Z</time></trkpt><trkpt lat="46.229416779459186" lon="10.20504415424059"><ele>523.0</ele><time>2026-05-01T14:32:03.999Z</time></trkpt><trkpt lat="46.22949512011815" lon="10.205351764594715"><ele>528.5</ele><time>2026-05-01T14:32:04.999Z</time></trkpt><trkpt lat="46.22956273010619" lon="10.20568336378145"><ele>534.0</ele><time>2026-05-01T14:32:05.999Z</time></trkpt><trkpt lat="46.22963344451685" lon="10.206035128998442"><ele>534.0</ele><time>2026-05-01T14:32:06.999Z</time></trkpt><trkpt lat="46.22971577234842" lon="10.206384445586485"><ele>534.0</ele><time>2026-05-01T14:32:07.999Z</time></trkpt><trkpt lat="46.22978340602093" lon="10.206731954383427"><ele>528.5</ele><time>2026-05-01T14:32:08.999Z</time></trkpt><trkpt lat="46.22984872899833" lon="10.207057382235742"><ele>523.0</ele><time>2026-05-01T14:32:09.999Z</time></trkpt><trkpt lat="46.22991563204415" lon="10.207375274344644"><ele>523.0</ele><time>2026-05-01T14:32:10.999Z</time></trkpt><trkpt lat="46.229983042380766" lon="10.207692026898053"><ele>523.0</ele><time>2026-05-01T14:32:11.999Z</time></trkpt><trkpt lat="46.230049481661474" lon="10.208002645277071"><ele>524.3333333333334</ele><time>2026-05-01T14:32:12.999Z</time></trkpt><trkpt lat="46.23011563120869" lon="10.20830841598172"><ele>525.6666666666666</ele><time>2026-05-01T14:32:13.999Z</time></trkpt><trkpt lat="46.23017746001663" lon="10.20860356932998"><ele>527.0</ele><time>2026-05-01T14:32:14.999Z</time></trkpt><trkpt lat="46.230235101525416" lon="10.208884104144623"><ele>528.0</ele><time>2026-05-01T14:32:15.999Z</time></trkpt><trkpt lat="46.23028265081218" lon="10.209154919580287"><ele>529.0</ele><time>2026-05-01T14:32:16.999Z</time></trkpt><trkpt lat="46.23032788743542" lon="10.209420745054816"><ele>530.0</ele><time>2026-05-01T14:32:17.999Z</time></trkpt><trkpt lat="46.23037042192049" lon="10.209688435537112"><ele>530.0</ele><time>2026-05-01T14:32:18.999Z</time></trkpt><trkpt lat="46.23041687902699" lon="10.209968162386195"><ele>530.0</ele><time>2026-05-01T14:32:19.999Z</time></trkpt><trkpt lat="46.23046099804815" lon="10.210241149793935"><ele>530.0</ele><time>2026-05-01T14:32:20.999Z</time></trkpt><trkpt lat="46.23050125271315" lon="10.210512605282862"><ele>530.6666666666666</ele><time>2026-05-01T14:32:21.999Z</time></trkpt><trkpt lat="46.230536274086" lon="10.210792924394198"><ele>531.3333333333334</ele><time>2026-05-01T14:32:22.999Z</time></trkpt><trkpt lat="46.230571988492585" lon="10.211055193487857"><ele>532.0</ele><time>2026-05-01T14:32:23.999Z</time></trkpt><trkpt lat="46.23060539149142" lon="10.21133312771798"><ele>528.3333333333334</ele><time>2026-05-01T14:32:24.999Z</time></trkpt><trkpt lat="46.23064335575313" lon="10.211611121278363"><ele>524.6666666666666</ele><time>2026-05-01T14:32:25.999Z</time></trkpt><trkpt lat="46.23068386089499" lon="10.211889826325544"><ele>521.0</ele><time>2026-05-01T14:32:26.999Z</time></trkpt><trkpt lat="46.230726796631295" lon="10.212163114384754"><ele>521.0</ele><time>2026-05-01T14:32:27.999Z</time></trkpt><trkpt lat="46.23076669957528" lon="10.212425280006867"><ele>521.0</ele><time>2026-05-01T14:32:28.999Z</time></trkpt><trkpt lat="46.23078976910484" lon="10.212718703518656"><ele>521.0</ele><time>2026-05-01T14:32:29.999Z</time></trkpt><trkpt lat="46.23084930766452" lon="10.212991752524538"><ele>521.6666666666666</ele><time>2026-05-01T14:32:30.999Z</time></trkpt><trkpt lat="46.23088263599784" lon="10.21325330739385"><ele>522.3333333333334</ele><time>2026-05-01T14:32:31.999Z</time></trkpt><trkpt lat="46.230914722001124" lon="10.213541304604416"><ele>523.0</ele><time>2026-05-01T14:32:32.999Z</time></trkpt><trkpt lat="46.23094774770644" lon="10.213839185562724"><ele>524.0</ele><time>2026-05-01T14:32:33.999Z</time></trkpt><trkpt lat="46.23098639909306" lon="10.21416749258743"><ele>525.0</ele><time>2026-05-01T14:32:34.999Z</time></trkpt><trkpt lat="46.23103100745139" lon="10.214523927779167"><ele>524.5</ele><time>2026-05-01T14:32:35.999Z</time></trkpt><trkpt lat="46.23107032192016" lon="10.214882046499605"><ele>524.0</ele><time>2026-05-01T14:32:36.999Z</time></trkpt><trkpt lat="46.231109076327876" lon="10.215282008870608"><ele>524.5</ele><time>2026-05-01T14:32:37.999Z</time></trkpt><trkpt lat="46.23114125705243" lon="10.215707540626301"><ele>525.0</ele><time>2026-05-01T14:32:38.999Z</time></trkpt><trkpt lat="46.23113488405168" lon="10.216149200912698"><ele>525.5</ele><time>2026-05-01T14:32:39.999Z</time></trkpt><trkpt lat="46.23116443727817" lon="10.216572153048618"><ele>526.0</ele><time>2026-05-01T14:32:40.999Z</time></trkpt><trkpt lat="46.231189331699106" lon="10.216971367795898"><ele>524.5</ele><time>2026-05-01T14:32:41.999Z</time></trkpt><trkpt lat="46.23121251997531" lon="10.217371906508644"><ele>523.0</ele><time>2026-05-01T14:32:42.999Z</time></trkpt><trkpt lat="46.23123649881408" lon="10.217786095757745"><ele>522.5</ele><time>2026-05-01T14:32:43.999Z</time></trkpt><trkpt lat="46.231272453699916" lon="10.218205023851183"><ele>522.0</ele><time>2026-05-01T14:32:44.999Z</time></trkpt><trkpt lat="46.2312873027546" lon="10.218617970422345"><ele>522.5</ele><time>2026-05-01T14:32:45.999Z</time></trkpt><trkpt lat="46.23129791196073" lon="10.219014342086329"><ele>523.0</ele><time>2026-05-01T14:32:46.999Z</time></trkpt><trkpt lat="46.231313398315415" lon="10.219391375062681"><ele>523.0</ele><time>2026-05-01T14:32:47.999Z</time></trkpt><trkpt lat="46.23132761132681" lon="10.219771922191013"><ele>523.0</ele><time>2026-05-01T14:32:48.999Z</time></trkpt><trkpt lat="46.23134498082832" lon="10.220138594411177"><ele>523.5</ele><time>2026-05-01T14:32:49.999Z</time></trkpt><trkpt lat="46.23137240217947" lon="10.220487459612512"><ele>524.0</ele><time>2026-05-01T14:32:50.999Z</time></trkpt><trkpt lat="46.231400799631416" lon="10.220832717641883"><ele>524.5</ele><time>2026-05-01T14:32:51.999Z</time></trkpt><trkpt lat="46.231450018057956" lon="10.221175331559422"><ele>525.0</ele><time>2026-05-01T14:32:52.999Z</time></trkpt><trkpt lat="46.23150671779242" lon="10.221530430361033"><ele>515.5</ele><time>2026-05-01T14:32:53.999Z</time></trkpt><trkpt lat="46.23158071874277" lon="10.221893351657105"><ele>506.0</ele><time>2026-05-01T14:32:54.999Z</time></trkpt><trkpt lat="46.23167565487166" lon="10.222256747753462"><ele>505.0</ele><time>2026-05-01T14:32:55.999Z</time></trkpt><trkpt lat="46.23178092653506" lon="10.222613691488082"><ele>504.0</ele><time>2026-05-01T14:32:56.999Z</time></trkpt><trkpt lat="46.23189030983166" lon="10.222940274936862"><ele>503.5</ele><time>2026-05-01T14:32:57.999Z</time></trkpt><trkpt lat="46.23200380559578" lon="10.223245811720641"><ele>503.0</ele><time>2026-05-01T14:32:58.999Z</time></trkpt><trkpt lat="46.23212355676702" lon="10.22353396180384"><ele>503.0</ele><time>2026-05-01T14:32:59.999Z</time></trkpt><trkpt lat="46.232252320783864" lon="10.223803816065832"><ele>503.0</ele><time>2026-05-01T14:33:00.999Z</time></trkpt><trkpt lat="46.232382024369954" lon="10.224056901677459"><ele>503.0</ele><time>2026-05-01T14:33:01.999Z</time></trkpt><trkpt lat="46.23251053354301" lon="10.22430096744288"><ele>503.0</ele><time>2026-05-01T14:33:02.999Z</time></trkpt><trkpt lat="46.23263890432909" lon="10.224522230873369"><ele>503.0</ele><time>2026-05-01T14:33:03.999Z</time></trkpt><trkpt lat="46.23275451746949" lon="10.224753739590566"><ele>503.0</ele><time>2026-05-01T14:33:04.999Z</time></trkpt><trkpt lat="46.23292397486012" lon="10.224982844358767"><ele>503.0</ele><time>2026-05-01T14:33:05.999Z</time></trkpt><trkpt lat="46.23307607692232" lon="10.225186452818347"><ele>503.0</ele><time>2026-05-01T14:33:06.999Z</time></trkpt><trkpt lat="46.23328270834112" lon="10.225419840837931"><ele>502.0</ele><time>2026-05-01T14:33:07.999Z</time></trkpt><trkpt lat="46.233404462819536" lon="10.225632218019719"><ele>501.0</ele><time>2026-05-01T14:33:08.999Z</time></trkpt><trkpt lat="46.23358601880471" lon="10.225816598105705"><ele>500.0</ele><time>2026-05-01T14:33:09.999Z</time></trkpt><trkpt lat="46.23375734761102" lon="10.225977944226019"><ele>499.66666666666663</ele><time>2026-05-01T14:33:10.999Z</time></trkpt><trkpt lat="46.23392517983156" lon="10.226129352977402"><ele>499.33333333333337</ele><time>2026-05-01T14:33:11.999Z</time></trkpt><trkpt lat="46.23409476085587" lon="10.226271988032924"><ele>499.0</ele><time>2026-05-01T14:33:12.999Z</time></trkpt><trkpt lat="46.23425915858473" lon="10.22641266722307"><ele>500.33333333333337</ele><time>2026-05-01T14:33:13.999Z</time></trkpt><trkpt lat="46.23442022010688" lon="10.226548120360208"><ele>501.66666666666663</ele><time>2026-05-01T14:33:14.999Z</time></trkpt><trkpt lat="46.234582705052894" lon="10.226696531296593"><ele>503.0</ele><time>2026-05-01T14:33:15.999Z</time></trkpt><trkpt lat="46.234755579158794" lon="10.226841134149172"><ele>503.3333333333333</ele><time>2026-05-01T14:33:16.999Z</time></trkpt><trkpt lat="46.23493361550967" lon="10.227003940380781"><ele>503.66666666666663</ele><time>2026-05-01T14:33:17.999Z</time></trkpt><trkpt lat="46.235123176198755" lon="10.227174581801956"><ele>504.0</ele><time>2026-05-01T14:33:18.999Z</time></trkpt><trkpt lat="46.23532998045433" lon="10.22736085361226"><ele>504.5</ele><time>2026-05-01T14:33:19.999Z</time></trkpt><trkpt lat="46.23554495918889" lon="10.227577086268724"><ele>505.0</ele><time>2026-05-01T14:33:20.999Z</time></trkpt><trkpt lat="46.23576378859161" lon="10.227807152538954"><ele>505.0</ele><time>2026-05-01T14:33:21.999Z</time></trkpt><trkpt lat="46.23599792901803" lon="10.228060180514944"><ele>505.0</ele><time>2026-05-01T14:33:22.999Z</time></trkpt><trkpt lat="46.23624164703659" lon="10.228318635325712"><ele>504.5</ele><time>2026-05-01T14:33:23.999Z</time></trkpt><trkpt lat="46.23649024758945" lon="10.228595294860401"><ele>504.0</ele><time>2026-05-01T14:33:24.999Z</time></trkpt><trkpt lat="46.23674344273084" lon="10.22889487868242"><ele>505.0</ele><time>2026-05-01T14:33:25.999Z</time></trkpt><trkpt lat="46.2369989557787" lon="10.2292097965551"><ele>506.0</ele><time>2026-05-01T14:33:26.999Z</time></trkpt><trkpt lat="46.23723720452282" lon="10.229499532569113"><ele>505.5</ele><time>2026-05-01T14:33:27.999Z</time></trkpt><trkpt lat="46.237470889547275" lon="10.229778486670769"><ele>505.0</ele><time>2026-05-01T14:33:28.999Z</time></trkpt><trkpt lat="46.237704819524154" lon="10.230046718967216"><ele>505.5</ele><time>2026-05-01T14:33:29.999Z</time></trkpt><trkpt lat="46.237932636741824" lon="10.230302720281408"><ele>506.0</ele><time>2026-05-01T14:33:30.999Z</time></trkpt><trkpt lat="46.23816539013933" lon="10.230579933289125"><ele>507.0</ele><time>2026-05-01T14:33:31.999Z</time></trkpt><trkpt lat="46.23840833230539" lon="10.230852278088728"><ele>508.0</ele><time>2026-05-01T14:33:32.999Z</time></trkpt><trkpt lat="46.23865894821663" lon="10.231144007965483"><ele>508.0</ele><time>2026-05-01T14:33:33.999Z</time></trkpt><trkpt lat="46.23891289046708" lon="10.23145365301316"><ele>508.0</ele><time>2026-05-01T14:33:34.999Z</time></trkpt><trkpt lat="46.239170096831145" lon="10.23177846710916"><ele>508.5</ele><time>2026-05-01T14:33:35.999Z</time></trkpt><trkpt lat="46.23943299124868" lon="10.232104114464079"><ele>509.0</ele><time>2026-05-01T14:33:36.999Z</time></trkpt><trkpt lat="46.239712474002005" lon="10.232435933141632"><ele>510.0</ele><time>2026-05-01T14:33:37.999Z</time></trkpt><trkpt lat="46.2399991756424" lon="10.23277456090463"><ele>511.0</ele><time>2026-05-01T14:33:38.999Z</time></trkpt><trkpt lat="46.24029441079709" lon="10.233113024132136"><ele>511.5</ele><time>2026-05-01T14:33:39.999Z</time></trkpt><trkpt lat="46.2405893760458" lon="10.233454564857327"><ele>512.0</ele><time>2026-05-01T14:33:40.999Z</time></trkpt><trkpt lat="46.24088044250477" lon="10.233799126654777"><ele>512.5</ele><time>2026-05-01T14:33:41.999Z</time></trkpt><trkpt lat="46.24116911339279" lon="10.234142858139991"><ele>513.0</ele><time>2026-05-01T14:33:42.999Z</time></trkpt><trkpt lat="46.24145643733721" lon="10.23447929121593"><ele>512.5</ele><time>2026-05-01T14:33:43.999Z</time></trkpt><trkpt lat="46.24174175890518" lon="10.23481205188749"><ele>512.0</ele><time>2026-05-01T14:33:44.999Z</time></trkpt><trkpt lat="46.24203577553274" lon="10.235129758303197"><ele>513.0</ele><time>2026-05-01T14:33:45.999Z</time></trkpt><trkpt lat="46.242331852145774" lon="10.2354419107944"><ele>514.0</ele><time>2026-05-01T14:33:46.999Z</time></trkpt><trkpt lat="46.242628829676384" lon="10.235748053690116"><ele>515.0</ele><time>2026-05-01T14:33:47.999Z</time></trkpt><trkpt lat="46.24292449353433" lon="10.236057042238558"><ele>516.0</ele><time>2026-05-01T14:33:48.999Z</time></trkpt><trkpt lat="46.243221703417824" lon="10.236358928809228"><ele>516.5</ele><time>2026-05-01T14:33:49.999Z</time></trkpt><trkpt lat="46.24351753097275" lon="10.236662260543154"><ele>517.0</ele><time>2026-05-01T14:33:50.999Z</time></trkpt><trkpt lat="46.243819858267706" lon="10.236960710880773"><ele>517.5</ele><time>2026-05-01T14:33:51.999Z</time></trkpt><trkpt lat="46.24412203789898" lon="10.23726099403894"><ele>518.0</ele><time>2026-05-01T14:33:52.999Z</time></trkpt><trkpt lat="46.24442787382623" lon="10.237558516971388"><ele>518.5</ele><time>2026-05-01T14:33:53.999Z</time></trkpt><trkpt lat="46.24474360979963" lon="10.237838208627418"><ele>519.0</ele><time>2026-05-01T14:33:54.999Z</time></trkpt><trkpt lat="46.245061559499874" lon="10.238115461601824"><ele>519.5</ele><time>2026-05-01T14:33:55.999Z</time></trkpt><trkpt lat="46.245377534339895" lon="10.238392038254657"><ele>520.0</ele><time>2026-05-01T14:33:56.999Z</time></trkpt><trkpt lat="46.245697025386505" lon="10.238661129309849"><ele>520.0</ele><time>2026-05-01T14:33:57.999Z</time></trkpt><trkpt lat="46.246021932973385" lon="10.238927150280581"><ele>520.0</ele><time>2026-05-01T14:33:58.999Z</time></trkpt><trkpt lat="46.24635232409955" lon="10.239194599934187"><ele>520.5</ele><time>2026-05-01T14:33:59.999Z</time></trkpt><trkpt lat="46.24669261961501" lon="10.239466857630253"><ele>521.0</ele><time>2026-05-01T14:34:00.999Z</time></trkpt><trkpt lat="46.247039168763344" lon="10.239744428873475"><ele>522.0</ele><time>2026-05-01T14:34:01.999Z</time></trkpt><trkpt lat="46.24738150522178" lon="10.24001543230995"><ele>523.0</ele><time>2026-05-01T14:34:02.999Z</time></trkpt><trkpt lat="46.247709078361964" lon="10.240273132509174"><ele>523.0</ele><time>2026-05-01T14:34:03.999Z</time></trkpt><trkpt lat="46.24801363813868" lon="10.240517486637536"><ele>523.0</ele><time>2026-05-01T14:34:04.999Z</time></trkpt><trkpt lat="46.24830388120885" lon="10.240754059103141"><ele>522.5</ele><time>2026-05-01T14:34:05.999Z</time></trkpt><trkpt lat="46.248586026787656" lon="10.240982470875778"><ele>522.0</ele><time>2026-05-01T14:34:06.999Z</time></trkpt><trkpt lat="46.24887065759338" lon="10.241205438224268"><ele>522.5</ele><time>2026-05-01T14:34:07.999Z</time></trkpt><trkpt lat="46.2491391754579" lon="10.241415500457354"><ele>523.0</ele><time>2026-05-01T14:34:08.999Z</time></trkpt><trkpt lat="46.24939506388065" lon="10.241621345066195"><ele>524.5</ele><time>2026-05-01T14:34:09.999Z</time></trkpt><trkpt lat="46.249646226592645" lon="10.241828853450642"><ele>526.0</ele><time>2026-05-01T14:34:11Z</time></trkpt><trkpt lat="46.2498991224981" lon="10.242036515528168"><ele>526.5</ele><time>2026-05-01T14:34:12Z</time></trkpt><trkpt lat="46.2501510406053" lon="10.242242599940534"><ele>527.0</ele><time>2026-05-01T14:34:13Z</time></trkpt><trkpt lat="46.25039167420454" lon="10.242467702653672"><ele>528.0</ele><time>2026-05-01T14:34:14Z</time></trkpt><trkpt lat="46.25063084053455" lon="10.242671714683363"><ele>529.0</ele><time>2026-05-01T14:34:15Z</time></trkpt><trkpt lat="46.25086480695156" lon="10.242876184354511"><ele>529.0</ele><time>2026-05-01T14:34:16Z</time></trkpt><trkpt lat="46.251090517584736" lon="10.243074426648885"><ele>529.0</ele><time>2026-05-01T14:34:17Z</time></trkpt><trkpt lat="46.25132149828251" lon="10.243251363182623"><ele>530.5</ele><time>2026-05-01T14:34:18Z</time></trkpt><trkpt lat="46.25153886161097" lon="10.243477603862594"><ele>532.0</ele><time>2026-05-01T14:34:19Z</time></trkpt><trkpt lat="46.25177997712063" lon="10.243698980954983"><ele>532.0</ele><time>2026-05-01T14:34:20Z</time></trkpt><trkpt lat="46.252024557603555" lon="10.24392929826758"><ele>532.0</ele><time>2026-05-01T14:34:21Z</time></trkpt><trkpt lat="46.25228039167691" lon="10.244174947527096"><ele>533.5</ele><time>2026-05-01T14:34:22Z</time></trkpt><trkpt lat="46.25255062278556" lon="10.24441887871071"><ele>535.0</ele><time>2026-05-01T14:34:23Z</time></trkpt><trkpt lat="46.252811141916474" lon="10.244711594060412"><ele>534.0</ele><time>2026-05-01T14:34:24Z</time></trkpt><trkpt lat="46.253086572446726" lon="10.244994148041314"><ele>533.0</ele><time>2026-05-01T14:34:25Z</time></trkpt><trkpt lat="46.25336333791923" lon="10.245263516574237"><ele>533.0</ele><time>2026-05-01T14:34:26Z</time></trkpt><trkpt lat="46.25363073302004" lon="10.245533226804586"><ele>533.0</ele><time>2026-05-01T14:34:27Z</time></trkpt><trkpt lat="46.253897660610455" lon="10.245816745606808"><ele>535.5</ele><time>2026-05-01T14:34:28Z</time></trkpt><trkpt lat="46.25416246771211" lon="10.246104749215403"><ele>538.0</ele><time>2026-05-01T14:34:29Z</time></trkpt><trkpt lat="46.25441933614546" lon="10.246395069161569"><ele>538.0</ele><time>2026-05-01T14:34:30Z</time></trkpt><trkpt lat="46.254675492739324" lon="10.246675933722523"><ele>538.0</ele><time>2026-05-01T14:34:31Z</time></trkpt><trkpt lat="46.254929760702645" lon="10.246952527630734"><ele>538.0</ele><time>2026-05-01T14:34:32Z</time></trkpt><trkpt lat="46.25518189605875" lon="10.247229580154926"><ele>538.0</ele><time>2026-05-01T14:34:33Z</time></trkpt><trkpt lat="46.25542847565975" lon="10.247508776555478"><ele>539.0</ele><time>2026-05-01T14:34:34Z</time></trkpt><trkpt lat="46.25567399706219" lon="10.247781075838828"><ele>540.0</ele><time>2026-05-01T14:34:35Z</time></trkpt><trkpt lat="46.25591731817138" lon="10.248057526993083"><ele>539.5</ele><time>2026-05-01T14:34:36Z</time></trkpt><trkpt lat="46.256166514046456" lon="10.248339598503412"><ele>539.0</ele><time>2026-05-01T14:34:37Z</time></trkpt><trkpt lat="46.2564148661387" lon="10.248621700144227"><ele>540.5</ele><time>2026-05-01T14:34:38Z</time></trkpt><trkpt lat="46.25665917598587" lon="10.248897204841137"><ele>542.0</ele><time>2026-05-01T14:34:39Z</time></trkpt><trkpt lat="46.25690427327321" lon="10.24917639180591"><ele>543.0</ele><time>2026-05-01T14:34:40Z</time></trkpt><trkpt lat="46.257152432079835" lon="10.249447279848233"><ele>544.0</ele><time>2026-05-01T14:34:41Z</time></trkpt><trkpt lat="46.25739826791578" lon="10.249713893312647"><ele>544.5</ele><time>2026-05-01T14:34:42Z</time></trkpt><trkpt lat="46.257634509185415" lon="10.249969370972828"><ele>545.0</ele><time>2026-05-01T14:34:43Z</time></trkpt><trkpt lat="46.257865891700625" lon="10.250223390144042"><ele>545.0</ele><time>2026-05-01T14:34:44Z</time></trkpt><trkpt lat="46.25809818988767" lon="10.250480840018648"><ele>545.0</ele><time>2026-05-01T14:34:45Z</time></trkpt><trkpt lat="46.25832927894226" lon="10.25073425921908"><ele>546.0</ele><time>2026-05-01T14:34:46Z</time></trkpt><trkpt lat="46.25855266278992" lon="10.250985938218975"><ele>547.0</ele><time>2026-05-01T14:34:47Z</time></trkpt><trkpt lat="46.25878607558585" lon="10.251244831018553"><ele>547.0</ele><time>2026-05-01T14:34:48Z</time></trkpt><trkpt lat="46.25901987319854" lon="10.251503711480758"><ele>547.0</ele><time>2026-05-01T14:34:49Z</time></trkpt><trkpt lat="46.25926290449896" lon="10.251770726534831"><ele>547.0</ele><time>2026-05-01T14:34:50Z</time></trkpt><trkpt lat="46.25950979913542" lon="10.252050167186853"><ele>547.0</ele><time>2026-05-01T14:34:51Z</time></trkpt><trkpt lat="46.2597591559379" lon="10.25233260898701"><ele>549.0</ele><time>2026-05-01T14:34:52Z</time></trkpt><trkpt lat="46.260015425148225" lon="10.252617851127322"><ele>551.0</ele><time>2026-05-01T14:34:53Z</time></trkpt><trkpt lat="46.26027347556538" lon="10.252904374637989"><ele>551.0</ele><time>2026-05-01T14:34:54Z</time></trkpt><trkpt lat="46.26053954961661" lon="10.25319013634991"><ele>551.0</ele><time>2026-05-01T14:34:55Z</time></trkpt><trkpt lat="46.26079486090616" lon="10.253478028823094"><ele>551.0</ele><time>2026-05-01T14:34:56Z</time></trkpt><trkpt lat="46.261053063199626" lon="10.253755929949634"><ele>551.0</ele><time>2026-05-01T14:34:57Z</time></trkpt><trkpt lat="46.26131256053431" lon="10.25402736143788"><ele>551.5</ele><time>2026-05-01T14:34:58Z</time></trkpt><trkpt lat="46.26158017330429" lon="10.254288611165926"><ele>552.0</ele><time>2026-05-01T14:34:59Z</time></trkpt><trkpt lat="46.26185227720902" lon="10.254534678199937"><ele>552.0</ele><time>2026-05-01T14:35:00Z</time></trkpt><trkpt lat="46.2621245181477" lon="10.254779163543"><ele>552.0</ele><time>2026-05-01T14:35:01Z</time></trkpt><trkpt lat="46.2623992631332" lon="10.255010193254412"><ele>552.0</ele><time>2026-05-01T14:35:02Z</time></trkpt><trkpt lat="46.26267712258313" lon="10.255231332947211"><ele>552.0</ele><time>2026-05-01T14:35:03Z</time></trkpt><trkpt lat="46.2629598315242" lon="10.255445575012711"><ele>553.0</ele><time>2026-05-01T14:35:04Z</time></trkpt><trkpt lat="46.26324448728987" lon="10.255647241476618"><ele>554.0</ele><time>2026-05-01T14:35:05Z</time></trkpt><trkpt lat="46.26353615115776" lon="10.255842507977203"><ele>554.0</ele><time>2026-05-01T14:35:06Z</time></trkpt><trkpt lat="46.26383183733827" lon="10.256026402200565"><ele>554.0</ele><time>2026-05-01T14:35:07Z</time></trkpt><trkpt lat="46.2641329202078" lon="10.256203866285272"><ele>555.0</ele><time>2026-05-01T14:35:08Z</time></trkpt><trkpt lat="46.26443375825897" lon="10.25638152088151"><ele>556.0</ele><time>2026-05-01T14:35:09Z</time></trkpt><trkpt lat="46.264739783717324" lon="10.256555579980443"><ele>558.5</ele><time>2026-05-01T14:35:10Z</time></trkpt><trkpt lat="46.26504702062696" lon="10.25673490105677"><ele>561.0</ele><time>2026-05-01T14:35:11Z</time></trkpt><trkpt lat="46.265362341445936" lon="10.256917060188973"><ele>561.0</ele><time>2026-05-01T14:35:12Z</time></trkpt><trkpt lat="46.26568028261223" lon="10.257097233360296"><ele>561.0</ele><time>2026-05-01T14:35:13Z</time></trkpt><trkpt lat="46.26599831616466" lon="10.257285096200027"><ele>561.5</ele><time>2026-05-01T14:35:14Z</time></trkpt><trkpt lat="46.26631845768013" lon="10.257470084737456"><ele>562.0</ele><time>2026-05-01T14:35:15Z</time></trkpt><trkpt lat="46.2666381551512" lon="10.257654847607064"><ele>562.5</ele><time>2026-05-01T14:35:16Z</time></trkpt><trkpt lat="46.26696236919955" lon="10.257841792065669"><ele>563.0</ele><time>2026-05-01T14:35:17Z</time></trkpt><trkpt lat="46.26728356414657" lon="10.258023260695438"><ele>563.0</ele><time>2026-05-01T14:35:18Z</time></trkpt><trkpt lat="46.26760880892226" lon="10.258196557898158"><ele>563.0</ele><time>2026-05-01T14:35:19Z</time></trkpt><trkpt lat="46.26792983750592" lon="10.258360747284833"><ele>565.0</ele><time>2026-05-01T14:35:20Z</time></trkpt><trkpt lat="46.268253750084426" lon="10.258515065395535"><ele>567.0</ele><time>2026-05-01T14:35:21Z</time></trkpt><trkpt lat="46.26858169709908" lon="10.258655314582166"><ele>567.0</ele><time>2026-05-01T14:35:22Z</time></trkpt><trkpt lat="46.26891313301082" lon="10.258775444803902"><ele>567.0</ele><time>2026-05-01T14:35:23Z</time></trkpt><trkpt lat="46.26924656876919" lon="10.25889131789992"><ele>567.0</ele><time>2026-05-01T14:35:24Z</time></trkpt><trkpt lat="46.269583809683546" lon="10.258997624081033"><ele>567.0</ele><time>2026-05-01T14:35:25Z</time></trkpt><trkpt lat="46.26992719145856" lon="10.259096220554417"><ele>568.0</ele><time>2026-05-01T14:35:26Z</time></trkpt><trkpt lat="46.27026635308278" lon="10.259185953731118"><ele>569.0</ele><time>2026-05-01T14:35:27Z</time></trkpt><trkpt lat="46.27060708649796" lon="10.259267712331107"><ele>570.0</ele><time>2026-05-01T14:35:28Z</time></trkpt><trkpt lat="46.27095742857715" lon="10.25934317823292"><ele>571.0</ele><time>2026-05-01T14:35:29Z</time></trkpt><trkpt lat="46.271302095347615" lon="10.259418251191326"><ele>572.5</ele><time>2026-05-01T14:35:30Z</time></trkpt><trkpt lat="46.2716538744878" lon="10.259482964756293"><ele>574.0</ele><time>2026-05-01T14:35:31Z</time></trkpt><trkpt lat="46.27200104344823" lon="10.25954735991839"><ele>573.5</ele><time>2026-05-01T14:35:32Z</time></trkpt><trkpt lat="46.27234845507599" lon="10.259617276583619"><ele>573.0</ele><time>2026-05-01T14:35:33Z</time></trkpt><trkpt lat="46.272706955023665" lon="10.259685197283265"><ele>573.0</ele><time>2026-05-01T14:35:34Z</time></trkpt><trkpt lat="46.273066797383564" lon="10.259758071673527"><ele>573.0</ele><time>2026-05-01T14:35:35Z</time></trkpt><trkpt lat="46.27340489032516" lon="10.259825195021023"><ele>574.0</ele><time>2026-05-01T14:35:36Z</time></trkpt><trkpt lat="46.27372190055285" lon="10.259889669776168"><ele>575.0</ele><time>2026-05-01T14:35:37Z</time></trkpt><trkpt lat="46.27401147506118" lon="10.259948890556393"><ele>575.5</ele><time>2026-05-01T14:35:38Z</time></trkpt><trkpt lat="46.2742894280812" lon="10.260000719757482"><ele>576.0</ele><time>2026-05-01T14:35:39Z</time></trkpt><trkpt lat="46.274542072492174" lon="10.26004880801733"><ele>576.5</ele><time>2026-05-01T14:35:40Z</time></trkpt><trkpt lat="46.274782136200145" lon="10.26010211829501"><ele>577.0</ele><time>2026-05-01T14:35:41Z</time></trkpt><trkpt lat="46.27501660292651" lon="10.260157252691796"><ele>577.0</ele><time>2026-05-01T14:35:42Z</time></trkpt><trkpt lat="46.275238533843456" lon="10.260205183426269"><ele>577.0</ele><time>2026-05-01T14:35:43Z</time></trkpt><trkpt lat="46.275446059252296" lon="10.260253012699138"><ele>577.0</ele><time>2026-05-01T14:35:44Z</time></trkpt><trkpt lat="46.27566159217352" lon="10.26029762241124"><ele>577.6666666666667</ele><time>2026-05-01T14:35:45Z</time></trkpt><trkpt lat="46.275869331710425" lon="10.26033884584083"><ele>578.3333333333334</ele><time>2026-05-01T14:35:46Z</time></trkpt><trkpt lat="46.27606729114561" lon="10.260388905264449"><ele>579.0</ele><time>2026-05-01T14:35:47Z</time></trkpt><trkpt lat="46.27628794459761" lon="10.260441458436743"><ele>580.5</ele><time>2026-05-01T14:35:48Z</time></trkpt><trkpt lat="46.27651466696363" lon="10.260506034651295"><ele>582.0</ele><time>2026-05-01T14:35:49Z</time></trkpt><trkpt lat="46.27674905948582" lon="10.260577200120766"><ele>582.5</ele><time>2026-05-01T14:35:50Z</time></trkpt><trkpt lat="46.276971277089785" lon="10.260675091313093"><ele>583.0</ele><time>2026-05-01T14:35:51Z</time></trkpt><trkpt lat="46.27720520423122" lon="10.260787875227951"><ele>584.5</ele><time>2026-05-01T14:35:52Z</time></trkpt><trkpt lat="46.27743304454268" lon="10.260919919482866"><ele>586.0</ele><time>2026-05-01T14:35:53Z</time></trkpt><trkpt lat="46.27764978929287" lon="10.261077856712872"><ele>586.0</ele><time>2026-05-01T14:35:54Z</time></trkpt><trkpt lat="46.277852903777166" lon="10.261239579265116"><ele>586.0</ele><time>2026-05-01T14:35:55Z</time></trkpt><trkpt lat="46.278064274542146" lon="10.261415076833977"><ele>588.5</ele><time>2026-05-01T14:35:56Z</time></trkpt><trkpt lat="46.278251092545425" lon="10.26160269773809"><ele>591.0</ele><time>2026-05-01T14:35:57Z</time></trkpt><trkpt lat="46.278434655598154" lon="10.261811209926153"><ele>591.0</ele><time>2026-05-01T14:35:58Z</time></trkpt><trkpt lat="46.27861034675961" lon="10.262026269653102"><ele>591.0</ele><time>2026-05-01T14:35:59Z</time></trkpt><trkpt lat="46.278794243549406" lon="10.262263400825972"><ele>591.5</ele><time>2026-05-01T14:36:00Z</time></trkpt><trkpt lat="46.27898167327739" lon="10.262518180703156"><ele>592.0</ele><time>2026-05-01T14:36:01Z</time></trkpt><trkpt lat="46.27917608798692" lon="10.262789499852197"><ele>592.0</ele><time>2026-05-01T14:36:02Z</time></trkpt><trkpt lat="46.27937176102323" lon="10.263062575198314"><ele>592.0</ele><time>2026-05-01T14:36:03Z</time></trkpt><trkpt lat="46.27955189947589" lon="10.263313970803763"><ele>592.5</ele><time>2026-05-01T14:36:04Z</time></trkpt><trkpt lat="46.27972368007436" lon="10.263552152395848"><ele>593.0</ele><time>2026-05-01T14:36:05Z</time></trkpt><trkpt lat="46.279899101594154" lon="10.263794723997927"><ele>594.5</ele><time>2026-05-01T14:36:06Z</time></trkpt><trkpt lat="46.28008727617486" lon="10.264048369813626"><ele>596.0</ele><time>2026-05-01T14:36:07Z</time></trkpt><trkpt lat="46.28027812119013" lon="10.264289621338214"><ele>596.0</ele><time>2026-05-01T14:36:08Z</time></trkpt><trkpt lat="46.28047152565924" lon="10.264505010447369"><ele>596.0</ele><time>2026-05-01T14:36:09Z</time></trkpt><trkpt lat="46.28065273222969" lon="10.26471119812415"><ele>596.5</ele><time>2026-05-01T14:36:10Z</time></trkpt><trkpt lat="46.2808380268392" lon="10.264899186521548"><ele>597.0</ele><time>2026-05-01T14:36:11Z</time></trkpt><trkpt lat="46.28103059021652" lon="10.265070518097636"><ele>597.0</ele><time>2026-05-01T14:36:12Z</time></trkpt><trkpt lat="46.28122349119764" lon="10.265222358301559"><ele>597.0</ele><time>2026-05-01T14:36:13Z</time></trkpt><trkpt lat="46.28141898100184" lon="10.265360289405661"><ele>597.0</ele><time>2026-05-01T14:36:14Z</time></trkpt><trkpt lat="46.28162012924126" lon="10.265477987016698"><ele>597.3333333333334</ele><time>2026-05-01T14:36:15Z</time></trkpt><trkpt lat="46.281819062540535" lon="10.26558635632889"><ele>597.6666666666667</ele><time>2026-05-01T14:36:16Z</time></trkpt><trkpt lat="46.28201991743122" lon="10.265684443984162"><ele>598.0</ele><time>2026-05-01T14:36:17Z</time></trkpt><trkpt lat="46.28222254881587" lon="10.265769066437961"><ele>598.6666666666667</ele><time>2026-05-01T14:36:18Z</time></trkpt><trkpt lat="46.28243008498885" lon="10.265818861322934"><ele>599.3333333333334</ele><time>2026-05-01T14:36:19Z</time></trkpt><trkpt lat="46.282637400155906" lon="10.265896272960816"><ele>600.0</ele><time>2026-05-01T14:36:20Z</time></trkpt><trkpt lat="46.28284583624161" lon="10.265981317635315"><ele>600.0</ele><time>2026-05-01T14:36:21Z</time></trkpt><trkpt lat="46.28305019181234" lon="10.266071272720582"><ele>600.0</ele><time>2026-05-01T14:36:22Z</time></trkpt><trkpt lat="46.28326041753469" lon="10.266147303893893"><ele>600.0</ele><time>2026-05-01T14:36:23Z</time></trkpt><trkpt lat="46.28346787388595" lon="10.266235778335908"><ele>600.6666666666666</ele><time>2026-05-01T14:36:24Z</time></trkpt><trkpt lat="46.2836732865622" lon="10.26632486900098"><ele>601.3333333333333</ele><time>2026-05-01T14:36:25Z</time></trkpt><trkpt lat="46.28389549404908" lon="10.266403444798726"><ele>602.0</ele><time>2026-05-01T14:36:26Z</time></trkpt><trkpt lat="46.28412274157527" lon="10.2665087880644"><ele>604.5</ele><time>2026-05-01T14:36:27Z</time></trkpt><trkpt lat="46.28431839790812" lon="10.266645659322439"><ele>607.0</ele><time>2026-05-01T14:36:28Z</time></trkpt><trkpt lat="46.2845814044921" lon="10.266747922723663"><ele>608.0</ele><time>2026-05-01T14:36:29Z</time></trkpt><trkpt lat="46.28485860530374" lon="10.266801013244622"><ele>609.0</ele><time>2026-05-01T14:36:30Z</time></trkpt><trkpt lat="46.28509494475849" lon="10.26689555023424"><ele>609.0</ele><time>2026-05-01T14:36:31Z</time></trkpt><trkpt lat="46.285309108441744" lon="10.266971133856211"><ele>609.0</ele><time>2026-05-01T14:36:32Z</time></trkpt><trkpt lat="46.28550388680742" lon="10.267064907777687"><ele>609.0</ele><time>2026-05-01T14:36:33Z</time></trkpt><trkpt lat="46.28572658308033" lon="10.267143567596959"><ele>610.5</ele><time>2026-05-01T14:36:34Z</time></trkpt><trkpt lat="46.28594509787425" lon="10.267237156632705"><ele>612.0</ele><time>2026-05-01T14:36:35Z</time></trkpt><trkpt lat="46.28616406474361" lon="10.267334250533665"><ele>612.0</ele><time>2026-05-01T14:36:36Z</time></trkpt><trkpt lat="46.28638580048588" lon="10.267427033453076"><ele>612.0</ele><time>2026-05-01T14:36:37Z</time></trkpt><trkpt lat="46.28660442055903" lon="10.267531708021245"><ele>612.5</ele><time>2026-05-01T14:36:38Z</time></trkpt><trkpt lat="46.28681961748822" lon="10.267649677448702"><ele>613.0</ele><time>2026-05-01T14:36:39Z</time></trkpt><trkpt lat="46.28703478185457" lon="10.267762387068993"><ele>613.0</ele><time>2026-05-01T14:36:40Z</time></trkpt><trkpt lat="46.28724505468193" lon="10.267900983215359"><ele>613.0</ele><time>2026-05-01T14:36:41Z</time></trkpt><trkpt lat="46.28746443320113" lon="10.268012220804072"><ele>614.0</ele><time>2026-05-01T14:36:42Z</time></trkpt><trkpt lat="46.28768251477632" lon="10.268184987480057"><ele>615.0</ele><time>2026-05-01T14:36:43Z</time></trkpt><trkpt lat="46.28788180374398" lon="10.268421440955496"><ele>615.0</ele><time>2026-05-01T14:36:44Z</time></trkpt><trkpt lat="46.28805371060761" lon="10.26863245559828"><ele>615.0</ele><time>2026-05-01T14:36:45Z</time></trkpt><trkpt lat="46.28824279810689" lon="10.268883493320677"><ele>618.5</ele><time>2026-05-01T14:36:46Z</time></trkpt><trkpt lat="46.28855496216891" lon="10.268712003300797"><ele>622.0</ele><time>2026-05-01T14:36:47Z</time></trkpt><trkpt lat="46.288775785803395" lon="10.268874591575608"><ele>623.0</ele><time>2026-05-01T14:36:48Z</time></trkpt><trkpt lat="46.289001865132356" lon="10.269047170945472"><ele>624.0</ele><time>2026-05-01T14:36:49Z</time></trkpt><trkpt lat="46.289229539730464" lon="10.269225938097028"><ele>624.0</ele><time>2026-05-01T14:36:50Z</time></trkpt><trkpt lat="46.289458622944295" lon="10.269410114180408"><ele>624.0</ele><time>2026-05-01T14:36:51Z</time></trkpt><trkpt lat="46.289685904611595" lon="10.269600681774781"><ele>623.5</ele><time>2026-05-01T14:36:52Z</time></trkpt><trkpt lat="46.289915419865196" lon="10.269794385534647"><ele>623.0</ele><time>2026-05-01T14:36:53Z</time></trkpt><trkpt lat="46.29012727851428" lon="10.269995598911922"><ele>623.0</ele><time>2026-05-01T14:36:54Z</time></trkpt><trkpt lat="46.29034062588078" lon="10.270193530474002"><ele>623.0</ele><time>2026-05-01T14:36:55Z</time></trkpt><trkpt lat="46.29054477536157" lon="10.270397411377662"><ele>625.0</ele><time>2026-05-01T14:36:56Z</time></trkpt><trkpt lat="46.29074593234761" lon="10.270599952462964"><ele>627.0</ele><time>2026-05-01T14:36:57Z</time></trkpt><trkpt lat="46.290955984828535" lon="10.270814476337339"><ele>627.0</ele><time>2026-05-01T14:36:58Z</time></trkpt><trkpt lat="46.291158861549725" lon="10.271032283043244"><ele>627.0</ele><time>2026-05-01T14:36:59Z</time></trkpt><trkpt lat="46.291362181648076" lon="10.271258312827477"><ele>627.5</ele><time>2026-05-01T14:37:00Z</time></trkpt><trkpt lat="46.291572123632726" lon="10.271498310777819"><ele>628.0</ele><time>2026-05-01T14:37:01Z</time></trkpt><trkpt lat="46.29177896612193" lon="10.271756116609097"><ele>628.0</ele><time>2026-05-01T14:37:02Z</time></trkpt><trkpt lat="46.291991817838145" lon="10.272022880403949"><ele>628.0</ele><time>2026-05-01T14:37:03Z</time></trkpt><trkpt lat="46.29220996280716" lon="10.272295281415813"><ele>630.0</ele><time>2026-05-01T14:37:04Z</time></trkpt><trkpt lat="46.292424538448685" lon="10.272562686139542"><ele>632.0</ele><time>2026-05-01T14:37:05Z</time></trkpt><trkpt lat="46.29263849869828" lon="10.272844973969391"><ele>632.0</ele><time>2026-05-01T14:37:06Z</time></trkpt><trkpt lat="46.29285461940274" lon="10.273131627165707"><ele>632.0</ele><time>2026-05-01T14:37:07Z</time></trkpt><trkpt lat="46.29307722869837" lon="10.273427357968737"><ele>632.5</ele><time>2026-05-01T14:37:08Z</time></trkpt><trkpt lat="46.29330548624476" lon="10.273737761491908"><ele>633.0</ele><time>2026-05-01T14:37:09Z</time></trkpt><trkpt lat="46.29354478268857" lon="10.274028261356328"><ele>633.5</ele><time>2026-05-01T14:37:10Z</time></trkpt><trkpt lat="46.29378530516646" lon="10.274308769211594"><ele>634.0</ele><time>2026-05-01T14:37:11Z</time></trkpt><trkpt lat="46.29402985474436" lon="10.274577508115437"><ele>635.5</ele><time>2026-05-01T14:37:12Z</time></trkpt><trkpt lat="46.29427587891368" lon="10.274841507853024"><ele>637.0</ele><time>2026-05-01T14:37:13Z</time></trkpt><trkpt lat="46.29452375837656" lon="10.275106466559782"><ele>638.0</ele><time>2026-05-01T14:37:14Z</time></trkpt><trkpt lat="46.29476892657004" lon="10.275375534098535"><ele>639.0</ele><time>2026-05-01T14:37:15Z</time></trkpt><trkpt lat="46.29501627431328" lon="10.275643601832725"><ele>639.0</ele><time>2026-05-01T14:37:16Z</time></trkpt><trkpt lat="46.29526594541411" lon="10.275904564244911"><ele>639.0</ele><time>2026-05-01T14:37:17Z</time></trkpt><trkpt lat="46.29551481631171" lon="10.276165470975377"><ele>640.5</ele><time>2026-05-01T14:37:18Z</time></trkpt><trkpt lat="46.295763262779786" lon="10.276423592243107"><ele>642.0</ele><time>2026-05-01T14:37:19Z</time></trkpt><trkpt lat="46.2960100427716" lon="10.276682094068398"><ele>642.0</ele><time>2026-05-01T14:37:20Z</time></trkpt><trkpt lat="46.29625838747961" lon="10.276940134570134"><ele>642.0</ele><time>2026-05-01T14:37:21Z</time></trkpt><trkpt lat="46.29650558451965" lon="10.27719397648359"><ele>644.5</ele><time>2026-05-01T14:37:22Z</time></trkpt><trkpt lat="46.29674696002393" lon="10.277453143873656"><ele>647.0</ele><time>2026-05-01T14:37:23Z</time></trkpt><trkpt lat="46.29698269273845" lon="10.277709032768906"><ele>647.0</ele><time>2026-05-01T14:37:24Z</time></trkpt><trkpt lat="46.297216305230215" lon="10.277954641483955"><ele>647.0</ele><time>2026-05-01T14:37:25Z</time></trkpt><trkpt lat="46.29744479424754" lon="10.278193287044294"><ele>649.5</ele><time>2026-05-01T14:37:26Z</time></trkpt><trkpt lat="46.29766159821117" lon="10.278443179959757"><ele>652.0</ele><time>2026-05-01T14:37:27Z</time></trkpt><trkpt lat="46.297867874268455" lon="10.27870413852486"><ele>652.5</ele><time>2026-05-01T14:37:28Z</time></trkpt><trkpt lat="46.29806549429981" lon="10.278981153686866"><ele>653.0</ele><time>2026-05-01T14:37:29Z</time></trkpt><trkpt lat="46.29825165611475" lon="10.279284363762237"><ele>653.0</ele><time>2026-05-01T14:37:30Z</time></trkpt><trkpt lat="46.298424832693534" lon="10.279609128778288"><ele>653.0</ele><time>2026-05-01T14:37:31Z</time></trkpt><trkpt lat="46.2985853836234" lon="10.279956671342745"><ele>655.5</ele><time>2026-05-01T14:37:32Z</time></trkpt><trkpt lat="46.2987393153426" lon="10.280320300907428"><ele>658.0</ele><time>2026-05-01T14:37:33Z</time></trkpt><trkpt lat="46.298887613462014" lon="10.280687214917284"><ele>657.0</ele><time>2026-05-01T14:37:34Z</time></trkpt><trkpt lat="46.299030481602344" lon="10.281070860389923"><ele>656.0</ele><time>2026-05-01T14:37:35Z</time></trkpt><trkpt lat="46.29916464006213" lon="10.281460155764442"><ele>661.0</ele><time>2026-05-01T14:37:36Z</time></trkpt><trkpt lat="46.299300656876824" lon="10.281855908649069"><ele>666.0</ele><time>2026-05-01T14:37:37Z</time></trkpt><trkpt lat="46.29944683677025" lon="10.282241422670245"><ele>663.0</ele><time>2026-05-01T14:37:38Z</time></trkpt><trkpt lat="46.299594434595946" lon="10.282616304558458"><ele>660.0</ele><time>2026-05-01T14:37:39Z</time></trkpt><trkpt lat="46.29975637539082" lon="10.282982921987296"><ele>663.0</ele><time>2026-05-01T14:37:40Z</time></trkpt><trkpt lat="46.299935107580744" lon="10.283335444255536"><ele>666.0</ele><time>2026-05-01T14:37:41Z</time></trkpt><trkpt lat="46.30013349466827" lon="10.283664695957738"><ele>673.5</ele><time>2026-05-01T14:37:42Z</time></trkpt><trkpt lat="46.3003434130002" lon="10.283986100470448"><ele>681.0</ele><time>2026-05-01T14:37:43Z</time></trkpt><trkpt lat="46.30055108975123" lon="10.284309916886109"><ele>678.0</ele><time>2026-05-01T14:37:44Z</time></trkpt><trkpt lat="46.30075154326792" lon="10.284598902798246"><ele>675.0</ele><time>2026-05-01T14:37:45Z</time></trkpt><trkpt lat="46.30096239827458" lon="10.284879309910949"><ele>675.0</ele><time>2026-05-01T14:37:46Z</time></trkpt><trkpt lat="46.301178866651156" lon="10.285167287423585"><ele>675.0</ele><time>2026-05-01T14:37:47Z</time></trkpt><trkpt lat="46.301390141235665" lon="10.28546023143025"><ele>678.0</ele><time>2026-05-01T14:37:48Z</time></trkpt><trkpt lat="46.301601628215266" lon="10.285751566367033"><ele>681.0</ele><time>2026-05-01T14:37:49Z</time></trkpt><trkpt lat="46.301810456409974" lon="10.286041526518705"><ele>681.0</ele><time>2026-05-01T14:37:50Z</time></trkpt><trkpt lat="46.30200559885363" lon="10.286320627442885"><ele>681.0</ele><time>2026-05-01T14:37:51Z</time></trkpt><trkpt lat="46.3021891265811" lon="10.286573317857185"><ele>682.0</ele><time>2026-05-01T14:37:52Z</time></trkpt><trkpt lat="46.302371236425785" lon="10.286828113581153"><ele>683.0</ele><time>2026-05-01T14:37:53Z</time></trkpt><trkpt lat="46.30255203429537" lon="10.287092449534335"><ele>687.5</ele><time>2026-05-01T14:37:54Z</time></trkpt><trkpt lat="46.302737588354454" lon="10.287345458525591"><ele>692.0</ele><time>2026-05-01T14:37:55Z</time></trkpt><trkpt lat="46.30291219699151" lon="10.287589082508552"><ele>685.5</ele><time>2026-05-01T14:37:56Z</time></trkpt><trkpt lat="46.30308394503369" lon="10.287815458461568"><ele>679.0</ele><time>2026-05-01T14:37:57Z</time></trkpt><trkpt lat="46.30324709990288" lon="10.288042301294759"><ele>682.0</ele><time>2026-05-01T14:37:58Z</time></trkpt><trkpt lat="46.303404194848476" lon="10.288272552713499"><ele>685.0</ele><time>2026-05-01T14:37:59Z</time></trkpt><trkpt lat="46.30347868474563" lon="10.288477359748466"><ele>688.0</ele><time>2026-05-01T14:38:00Z</time></trkpt><trkpt lat="46.30360227890873" lon="10.288688951365208"><ele>688.0</ele><time>2026-05-01T14:38:01Z</time></trkpt><trkpt lat="46.30386687813743" lon="10.288957459662814"><ele>688.0</ele><time>2026-05-01T14:38:02Z</time></trkpt><trkpt lat="46.30410588898376" lon="10.289215887610244"><ele>688.5</ele><time>2026-05-01T14:38:03Z</time></trkpt><trkpt lat="46.304288657687174" lon="10.289513580285101"><ele>689.0</ele><time>2026-05-01T14:38:04Z</time></trkpt><trkpt lat="46.304455356079146" lon="10.289779241768695"><ele>687.6666666666666</ele><time>2026-05-01T14:38:05Z</time></trkpt><trkpt lat="46.30454332908053" lon="10.289916260791957"><ele>686.3333333333334</ele><time>2026-05-01T14:38:06Z</time></trkpt><trkpt lat="46.304678768407044" lon="10.290157480600389"><ele>685.0</ele><time>2026-05-01T14:38:07Z</time></trkpt><trkpt lat="46.30479419306559" lon="10.290402439486833"><ele>688.3333333333334</ele><time>2026-05-01T14:38:08Z</time></trkpt><trkpt lat="46.30488213626195" lon="10.290670072875717"><ele>691.6666666666666</ele><time>2026-05-01T14:38:09Z</time></trkpt><trkpt lat="46.30498873774039" lon="10.290927204907971"><ele>695.0</ele><time>2026-05-01T14:38:10Z</time></trkpt><trkpt lat="46.305070830493264" lon="10.291203559940934"><ele>697.3333333333333</ele><time>2026-05-01T14:38:11Z</time></trkpt><trkpt lat="46.30512861348546" lon="10.29148886911911"><ele>699.6666666666666</ele><time>2026-05-01T14:38:12Z</time></trkpt><trkpt lat="46.30518984990051" lon="10.291770341947785"><ele>702.0</ele><time>2026-05-01T14:38:13Z</time></trkpt><trkpt lat="46.30524247361624" lon="10.292061923722322"><ele>704.3333333333334</ele><time>2026-05-01T14:38:14Z</time></trkpt><trkpt lat="46.30528385570359" lon="10.29236173349041"><ele>706.6666666666667</ele><time>2026-05-01T14:38:15Z</time></trkpt><trkpt lat="46.30531269772935" lon="10.292657353730988"><ele>709.0</ele><time>2026-05-01T14:38:16Z</time></trkpt><trkpt lat="46.305335700166964" lon="10.292937223331966"><ele>711.5</ele><time>2026-05-01T14:38:17Z</time></trkpt><trkpt lat="46.30534958480055" lon="10.293316718979211"><ele>714.0</ele><time>2026-05-01T14:38:18Z</time></trkpt><trkpt lat="46.305364133752995" lon="10.293674961052737"><ele>715.5</ele><time>2026-05-01T14:38:19Z</time></trkpt><trkpt lat="46.30537879631615" lon="10.294036000651564"><ele>717.0</ele><time>2026-05-01T14:38:20Z</time></trkpt><trkpt lat="46.30539491053641" lon="10.294415940125505"><ele>720.5</ele><time>2026-05-01T14:38:21Z</time></trkpt><trkpt lat="46.30541182037098" lon="10.294810085741615"><ele>724.0</ele><time>2026-05-01T14:38:22Z</time></trkpt><trkpt lat="46.30542782376051" lon="10.29518310334075"><ele>724.0</ele><time>2026-05-01T14:38:23Z</time></trkpt><trkpt lat="46.305452557476166" lon="10.29552638945921"><ele>724.0</ele><time>2026-05-01T14:38:24Z</time></trkpt><trkpt lat="46.305461788140924" lon="10.295841687396228"><ele>726.6666666666667</ele><time>2026-05-01T14:38:25Z</time></trkpt><trkpt lat="46.3054745258223" lon="10.296136080387887"><ele>729.3333333333334</ele><time>2026-05-01T14:38:26Z</time></trkpt><trkpt lat="46.30548632083963" lon="10.296404106013211"><ele>732.0</ele><time>2026-05-01T14:38:27Z</time></trkpt><trkpt lat="46.30549386704858" lon="10.296634025851057"><ele>735.0</ele><time>2026-05-01T14:38:28Z</time></trkpt><trkpt lat="46.30551878944824" lon="10.297003865538649"><ele>738.0</ele><time>2026-05-01T14:38:29Z</time></trkpt><trkpt lat="46.30553437663103" lon="10.297305196350942"><ele>738.3333333333334</ele><time>2026-05-01T14:38:30Z</time></trkpt><trkpt lat="46.30555170341411" lon="10.29759346111259"><ele>738.6666666666667</ele><time>2026-05-01T14:38:31Z</time></trkpt><trkpt lat="46.30558016119859" lon="10.29788331288433"><ele>739.0</ele><time>2026-05-01T14:38:32Z</time></trkpt><trkpt lat="46.30561818033772" lon="10.298178491732473"><ele>739.3333333333334</ele><time>2026-05-01T14:38:33Z</time></trkpt><trkpt lat="46.30566247665605" lon="10.298471199867906"><ele>739.6666666666666</ele><time>2026-05-01T14:38:34Z</time></trkpt><trkpt lat="46.30571670774805" lon="10.298754621506946"><ele>740.0</ele><time>2026-05-01T14:38:35Z</time></trkpt><trkpt lat="46.30577673958991" lon="10.299033496284677"><ele>740.0</ele><time>2026-05-01T14:38:36Z</time></trkpt><trkpt lat="46.305844593910344" lon="10.299312575826596"><ele>740.0</ele><time>2026-05-01T14:38:37Z</time></trkpt><trkpt lat="46.3059196071945" lon="10.299589406414754"><ele>740.0</ele><time>2026-05-01T14:38:38Z</time></trkpt><trkpt lat="46.30600280694489" lon="10.299858856438842"><ele>744.0</ele><time>2026-05-01T14:38:39Z</time></trkpt><trkpt lat="46.30609126061454" lon="10.300126366583338"><ele>748.0</ele><time>2026-05-01T14:38:40Z</time></trkpt><trkpt lat="46.306186518425775" lon="10.300388220292719"><ele>752.0</ele><time>2026-05-01T14:38:41Z</time></trkpt><trkpt lat="46.306292625260525" lon="10.300644500901242"><ele>755.6666666666666</ele><time>2026-05-01T14:38:42Z</time></trkpt><trkpt lat="46.30640539616762" lon="10.300895421934928"><ele>759.3333333333334</ele><time>2026-05-01T14:38:43Z</time></trkpt><trkpt lat="46.30652049188893" lon="10.301148593993496"><ele>763.0</ele><time>2026-05-01T14:38:44.014Z</time></trkpt><trkpt lat="46.30663355671829" lon="10.3014004171893"><ele>773.6666666666667</ele><time>2026-05-01T14:38:45.017Z</time></trkpt><trkpt lat="46.306748638521" lon="10.301656189731737"><ele>784.3333333333334</ele><time>2026-05-01T14:38:46.021Z</time></trkpt><trkpt lat="46.30684573739689" lon="10.301883081335706"><ele>795.0</ele><time>2026-05-01T14:38:47.014Z</time></trkpt><trkpt lat="46.30692837417899" lon="10.302091812708152"><ele>816.0</ele><time>2026-05-01T14:38:48.017Z</time></trkpt><trkpt lat="46.30865291150931" lon="10.303653621173087"><ele>853.0</ele><time>2026-05-01T14:38:51.847Z</time></trkpt><trkpt lat="46.324806399686565" lon="10.322324903691488"><ele>853.0</ele><time>2026-05-01T14:40:46Z</time></trkpt><trkpt lat="46.32486980976023" lon="10.32259095979332"><ele>853.0</ele><time>2026-05-01T14:40:47Z</time></trkpt><trkpt lat="46.32493714988896" lon="10.322870648006427"><ele>853.0</ele><time>2026-05-01T14:40:48Z</time></trkpt><trkpt lat="46.325118930183436" lon="10.323147836972309"><ele>852.6666666666666</ele><time>2026-05-01T14:40:49Z</time></trkpt><trkpt lat="46.32519183765875" lon="10.323461180845278"><ele>852.3333333333333</ele><time>2026-05-01T14:40:50Z</time></trkpt><trkpt lat="46.32522034770354" lon="10.323764706201917"><ele>852.0</ele><time>2026-05-01T14:40:51Z</time></trkpt><trkpt lat="46.32524279936062" lon="10.324048044862492"><ele>853.0</ele><time>2026-05-01T14:40:52.001Z</time></trkpt><trkpt lat="46.32525428028475" lon="10.32433100255335"><ele>854.0</ele><time>2026-05-01T14:40:53.001Z</time></trkpt><trkpt lat="46.32527539005162" lon="10.324587250225862"><ele>855.0</ele><time>2026-05-01T14:40:54.001Z</time></trkpt><trkpt lat="46.32527310624912" lon="10.32485292598187"><ele>855.6666666666667</ele><time>2026-05-01T14:40:55.001Z</time></trkpt><trkpt lat="46.325261960634386" lon="10.325132587747328"><ele>856.3333333333334</ele><time>2026-05-01T14:40:56.001Z</time></trkpt><trkpt lat="46.32524529101811" lon="10.325415428644115"><ele>857.0</ele><time>2026-05-01T14:40:57.001Z</time></trkpt><trkpt lat="46.325223176828175" lon="10.325682175135418"><ele>857.0</ele><time>2026-05-01T14:40:58.001Z</time></trkpt><trkpt lat="46.325195804106244" lon="10.32594138494307"><ele>857.0</ele><time>2026-05-01T14:40:59.001Z</time></trkpt><trkpt lat="46.32517486664721" lon="10.326181492236671"><ele>857.0</ele><time>2026-05-01T14:41:00.001Z</time></trkpt><trkpt lat="46.32516049039054" lon="10.326435291495011"><ele>858.3333333333334</ele><time>2026-05-01T14:41:01.001Z</time></trkpt><trkpt lat="46.325157717830926" lon="10.326716781113433"><ele>859.6666666666667</ele><time>2026-05-01T14:41:02.001Z</time></trkpt><trkpt lat="46.32517011727674" lon="10.326993981112063"><ele>861.0</ele><time>2026-05-01T14:41:03.001Z</time></trkpt><trkpt lat="46.32516962910822" lon="10.327303902992574"><ele>862.0</ele><time>2026-05-01T14:41:04.001Z</time></trkpt><trkpt lat="46.32515675152644" lon="10.327636137117675"><ele>863.0</ele><time>2026-05-01T14:41:05.001Z</time></trkpt><trkpt lat="46.32514491894979" lon="10.327991525427871"><ele>864.0</ele><time>2026-05-01T14:41:06.001Z</time></trkpt><trkpt lat="46.32515962832515" lon="10.328298433927015"><ele>865.0</ele><time>2026-05-01T14:41:07.001Z</time></trkpt><trkpt lat="46.32514886115856" lon="10.328622602322444"><ele>866.0</ele><time>2026-05-01T14:41:08.001Z</time></trkpt><trkpt lat="46.32514291046192" lon="10.328953589252864"><ele>866.5</ele><time>2026-05-01T14:41:09.001Z</time></trkpt><trkpt lat="46.32514138434005" lon="10.329288546112142"><ele>867.0</ele><time>2026-05-01T14:41:10.001Z</time></trkpt><trkpt lat="46.32513020318416" lon="10.32964371787297"><ele>867.0</ele><time>2026-05-01T14:41:11.001Z</time></trkpt><trkpt lat="46.325134088104996" lon="10.329965135348141"><ele>867.0</ele><time>2026-05-01T14:41:12.001Z</time></trkpt><trkpt lat="46.32513356820057" lon="10.33027703698129"><ele>867.0</ele><time>2026-05-01T14:41:13.001Z</time></trkpt><trkpt lat="46.32513085165438" lon="10.33057684998877"><ele>868.3333333333333</ele><time>2026-05-01T14:41:14.001Z</time></trkpt><trkpt lat="46.32513413341728" lon="10.33084935122383"><ele>869.6666666666666</ele><time>2026-05-01T14:41:15.001Z</time></trkpt><trkpt lat="46.32515025923319" lon="10.33113225067629"><ele>871.0</ele><time>2026-05-01T14:41:16.001Z</time></trkpt><trkpt lat="46.32516812938147" lon="10.331424949623253"><ele>871.3333333333333</ele><time>2026-05-01T14:41:17.001Z</time></trkpt><trkpt lat="46.325197401046395" lon="10.331722909581767"><ele>871.6666666666667</ele><time>2026-05-01T14:41:18.001Z</time></trkpt><trkpt lat="46.32522638457152" lon="10.332067512599862"><ele>872.0</ele><time>2026-05-01T14:41:19.001Z</time></trkpt><trkpt lat="46.32526641620172" lon="10.332475527392175"><ele>873.5</ele><time>2026-05-01T14:41:20Z</time></trkpt><trkpt lat="46.32531516211247" lon="10.332815203531474"><ele>875.0</ele><time>2026-05-01T14:41:21Z</time></trkpt><trkpt lat="46.32534719383151" lon="10.333123934202524"><ele>877.5</ele><time>2026-05-01T14:41:22Z</time></trkpt><trkpt lat="46.325380549467084" lon="10.33351386714307"><ele>880.0</ele><time>2026-05-01T14:41:23Z</time></trkpt><trkpt lat="46.3254189038917" lon="10.333901820878912"><ele>880.5</ele><time>2026-05-01T14:41:24Z</time></trkpt><trkpt lat="46.32545820539373" lon="10.33428304957899"><ele>881.0</ele><time>2026-05-01T14:41:25Z</time></trkpt><trkpt lat="46.325498571773586" lon="10.334653627597703"><ele>883.0</ele><time>2026-05-01T14:41:26Z</time></trkpt><trkpt lat="46.32553539910473" lon="10.335015950754965"><ele>885.0</ele><time>2026-05-01T14:41:27Z</time></trkpt><trkpt lat="46.325576613983216" lon="10.335379888894652"><ele>881.5</ele><time>2026-05-01T14:41:28Z</time></trkpt><trkpt lat="46.32561726627924" lon="10.335732834301423"><ele>878.0</ele><time>2026-05-01T14:41:29Z</time></trkpt><trkpt lat="46.32565789259009" lon="10.33609381474971"><ele>880.0</ele><time>2026-05-01T14:41:30Z</time></trkpt><trkpt lat="46.32569695122512" lon="10.336439589895335"><ele>882.0</ele><time>2026-05-01T14:41:31Z</time></trkpt><trkpt lat="46.32574609557942" lon="10.336789906980867"><ele>882.0</ele><time>2026-05-01T14:41:32Z</time></trkpt><trkpt lat="46.32581528780373" lon="10.337124120191147"><ele>882.0</ele><time>2026-05-01T14:41:33Z</time></trkpt><trkpt lat="46.32590935992717" lon="10.337451576376532"><ele>886.5</ele><time>2026-05-01T14:41:34Z</time></trkpt><trkpt lat="46.32602883097905" lon="10.337774262445533"><ele>891.0</ele><time>2026-05-01T14:41:35Z</time></trkpt><trkpt lat="46.32616629062516" lon="10.338077427501421"><ele>890.0</ele><time>2026-05-01T14:41:36Z</time></trkpt><trkpt lat="46.326322121978116" lon="10.338370554662426"><ele>889.0</ele><time>2026-05-01T14:41:37Z</time></trkpt><trkpt lat="46.32648645878205" lon="10.338662825152003"><ele>892.5</ele><time>2026-05-01T14:41:38Z</time></trkpt><trkpt lat="46.3266445807205" lon="10.338945933694527"><ele>896.0</ele><time>2026-05-01T14:41:39Z</time></trkpt><trkpt lat="46.326789503610506" lon="10.339211786823276"><ele>896.0</ele><time>2026-05-01T14:41:40Z</time></trkpt><trkpt lat="46.32692580123245" lon="10.339461837548866"><ele>896.0</ele><time>2026-05-01T14:41:41Z</time></trkpt><trkpt lat="46.3270518861904" lon="10.339705575114513"><ele>896.0</ele><time>2026-05-01T14:41:42Z</time></trkpt><trkpt lat="46.3271713928473" lon="10.339935263262246"><ele>895.3333333333334</ele><time>2026-05-01T14:41:43Z</time></trkpt><trkpt lat="46.32730757281018" lon="10.340193575955817"><ele>894.6666666666667</ele><time>2026-05-01T14:41:44Z</time></trkpt><trkpt lat="46.32744132736418" lon="10.34044236103387"><ele>894.0</ele><time>2026-05-01T14:41:45Z</time></trkpt><trkpt lat="46.327577923559744" lon="10.340688816605788"><ele>895.6666666666667</ele><time>2026-05-01T14:41:46Z</time></trkpt><trkpt lat="46.32773789585361" lon="10.340935541093158"><ele>897.3333333333334</ele><time>2026-05-01T14:41:47Z</time></trkpt><trkpt lat="46.32788023604287" lon="10.341165016829976"><ele>899.0</ele><time>2026-05-01T14:41:48Z</time></trkpt><trkpt lat="46.327996102111854" lon="10.341364762709702"><ele>898.5</ele><time>2026-05-01T14:41:49Z</time></trkpt><trkpt lat="46.32816180499681" lon="10.341581018490352"><ele>898.0</ele><time>2026-05-01T14:41:50Z</time></trkpt><trkpt lat="46.32833588052373" lon="10.341799110940455"><ele>898.0</ele><time>2026-05-01T14:41:51Z</time></trkpt><trkpt lat="46.32850143234781" lon="10.34199418580642"><ele>898.0</ele><time>2026-05-01T14:41:52Z</time></trkpt><trkpt lat="46.32869430219947" lon="10.34218412499335"><ele>898.0</ele><time>2026-05-01T14:41:53Z</time></trkpt><trkpt lat="46.3288578414953" lon="10.3423699990603"><ele>899.0</ele><time>2026-05-01T14:41:54Z</time></trkpt><trkpt lat="46.32906032170245" lon="10.342515380518323"><ele>900.0</ele><time>2026-05-01T14:41:55Z</time></trkpt><trkpt lat="46.329241533231844" lon="10.3426555597507"><ele>901.0</ele><time>2026-05-01T14:41:56Z</time></trkpt><trkpt lat="46.32944001402408" lon="10.342795891746322"><ele>901.0</ele><time>2026-05-01T14:41:57Z</time></trkpt><trkpt lat="46.32964407266763" lon="10.342941490815882"><ele>901.0</ele><time>2026-05-01T14:41:58Z</time></trkpt><trkpt lat="46.32986420402722" lon="10.34306778967759"><ele>902.5</ele><time>2026-05-01T14:41:59Z</time></trkpt><trkpt lat="46.330092157723946" lon="10.343186931179023"><ele>904.0</ele><time>2026-05-01T14:42:00Z</time></trkpt><trkpt lat="46.330330262464294" lon="10.34329613909219"><ele>928.5</ele><time>2026-05-01T14:42:01Z</time></trkpt><trkpt lat="46.330570212057516" lon="10.343389045300755"><ele>953.0</ele><time>2026-05-01T14:42:02Z</time></trkpt><trkpt lat="46.33081129300144" lon="10.343465677358708"><ele>953.0</ele><time>2026-05-01T14:42:03Z</time></trkpt><trkpt lat="46.33104917498806" lon="10.343543326008477"><ele>953.0</ele><time>2026-05-01T14:42:04Z</time></trkpt><trkpt lat="46.3312919482588" lon="10.343625953492493"><ele>990.5</ele><time>2026-05-01T14:42:05.015Z</time></trkpt><trkpt lat="46.33153292755735" lon="10.343704764246532"><ele>1028.0</ele><time>2026-05-01T14:42:06.022Z</time></trkpt><trkpt lat="46.33177335710736" lon="10.34374177697786"><ele>1028.0</ele><time>2026-05-01T14:42:07.016Z</time></trkpt><trkpt lat="46.3320162119986" lon="10.343773456228675"><ele>1028.0</ele><time>2026-05-01T14:42:08.021Z</time></trkpt><trkpt lat="46.34304156531239" lon="10.34960053862105"><ele>979.5</ele><time>2026-05-01T14:42:56Z</time></trkpt><trkpt lat="46.34320708788671" lon="10.349791823894542"><ele>931.0</ele><time>2026-05-01T14:42:57Z</time></trkpt><trkpt lat="46.343423277828876" lon="10.35000829205239"><ele>931.0</ele><time>2026-05-01T14:42:58Z</time></trkpt><trkpt lat="46.34365254542662" lon="10.350114570537439"><ele>931.0</ele><time>2026-05-01T14:42:59Z</time></trkpt><trkpt lat="46.34386385164547" lon="10.350264659794314"><ele>932.0</ele><time>2026-05-01T14:43:00Z</time></trkpt><trkpt lat="46.344067650321456" lon="10.350389515958646"><ele>933.0</ele><time>2026-05-01T14:43:01Z</time></trkpt><trkpt lat="46.34425379862084" lon="10.350552578802123"><ele>934.0</ele><time>2026-05-01T14:43:02.001Z</time></trkpt><trkpt lat="46.34443978191934" lon="10.350708308225412"><ele>935.3333333333333</ele><time>2026-05-01T14:43:03.001Z</time></trkpt><trkpt lat="46.344629848755154" lon="10.35084220830735"><ele>936.6666666666667</ele><time>2026-05-01T14:43:04.001Z</time></trkpt><trkpt lat="46.344829192533794" lon="10.351009060748495"><ele>938.0</ele><time>2026-05-01T14:43:05.001Z</time></trkpt><trkpt lat="46.34502265667678" lon="10.351169973551592"><ele>938.5</ele><time>2026-05-01T14:43:06.001Z</time></trkpt><trkpt lat="46.34521595854533" lon="10.351336884599696"><ele>939.0</ele><time>2026-05-01T14:43:07.001Z</time></trkpt><trkpt lat="46.34541501733063" lon="10.351489680664661"><ele>940.5</ele><time>2026-05-01T14:43:08.001Z</time></trkpt><trkpt lat="46.345611369216805" lon="10.351649884332998"><ele>942.0</ele><time>2026-05-01T14:43:09.001Z</time></trkpt><trkpt lat="46.34581667040543" lon="10.351798054166714"><ele>942.0</ele><time>2026-05-01T14:43:10.001Z</time></trkpt><trkpt lat="46.34603610313342" lon="10.351953231485506"><ele>942.0</ele><time>2026-05-01T14:43:11.001Z</time></trkpt><trkpt lat="46.34626458415889" lon="10.352113761176057"><ele>945.5</ele><time>2026-05-01T14:43:12.001Z</time></trkpt><trkpt lat="46.346486572626254" lon="10.352291655461087"><ele>949.0</ele><time>2026-05-01T14:43:13.001Z</time></trkpt><trkpt lat="46.34670602159001" lon="10.352483522150209"><ele>949.0</ele><time>2026-05-01T14:43:14.001Z</time></trkpt><trkpt lat="46.34692707650875" lon="10.352678298988609"><ele>949.0</ele><time>2026-05-01T14:43:15.001Z</time></trkpt><trkpt lat="46.34715109852457" lon="10.352869911634373"><ele>949.0</ele><time>2026-05-01T14:43:16.001Z</time></trkpt><trkpt lat="46.34737285403653" lon="10.353036920151213"><ele>949.0</ele><time>2026-05-01T14:43:17.001Z</time></trkpt><trkpt lat="46.34758455490624" lon="10.353195162887452"><ele>950.5</ele><time>2026-05-01T14:43:18.001Z</time></trkpt><trkpt lat="46.34779518714677" lon="10.353332209681248"><ele>952.0</ele><time>2026-05-01T14:43:19.001Z</time></trkpt><trkpt lat="46.348006207159344" lon="10.353451908095826"><ele>950.0</ele><time>2026-05-01T14:43:20.001Z</time></trkpt><trkpt lat="46.34822884111556" lon="10.353550259626399"><ele>948.0</ele><time>2026-05-01T14:43:21.001Z</time></trkpt><trkpt lat="46.348456544684375" lon="10.353609551955325"><ele>948.0</ele><time>2026-05-01T14:43:22.001Z</time></trkpt><trkpt lat="46.348676587625825" lon="10.353641675254938"><ele>948.0</ele><time>2026-05-01T14:43:23Z</time></trkpt><trkpt lat="46.34889685806373" lon="10.353653034009364"><ele>948.0</ele><time>2026-05-01T14:43:24Z</time></trkpt><trkpt lat="46.349119876483954" lon="10.353649582689224"><ele>948.6666666666667</ele><time>2026-05-01T14:43:25Z</time></trkpt><trkpt lat="46.34933931841289" lon="10.353644982754972"><ele>949.3333333333334</ele><time>2026-05-01T14:43:26Z</time></trkpt><trkpt lat="46.349549017414255" lon="10.353643303779997"><ele>950.0</ele><time>2026-05-01T14:43:27Z</time></trkpt><trkpt lat="46.34974485405373" lon="10.353644820818154"><ele>951.6666666666667</ele><time>2026-05-01T14:43:28Z</time></trkpt><trkpt lat="46.349908689578555" lon="10.35366191655273"><ele>953.3333333333333</ele><time>2026-05-01T14:43:29Z</time></trkpt><trkpt lat="46.350150010908955" lon="10.353659982324157"><ele>955.0</ele><time>2026-05-01T14:43:30Z</time></trkpt><trkpt lat="46.35038157176817" lon="10.353598253937504"><ele>965.5</ele><time>2026-05-01T14:43:31Z</time></trkpt><trkpt lat="46.35061251639648" lon="10.353516885733647"><ele>976.0</ele><time>2026-05-01T14:43:32Z</time></trkpt><trkpt lat="46.35086292708817" lon="10.35342101834247"><ele>976.0</ele><time>2026-05-01T14:43:33Z</time></trkpt><trkpt lat="46.35111820206138" lon="10.353343052817365"><ele>976.0</ele><time>2026-05-01T14:43:34.022Z</time></trkpt><trkpt lat="46.351343103244915" lon="10.35320142833304"><ele>992.0</ele><time>2026-05-01T14:43:35.024Z</time></trkpt><trkpt lat="46.35155982088346" lon="10.353046364074755"><ele>1008.0</ele><time>2026-05-01T14:43:36.018Z</time></trkpt><trkpt lat="46.35178180479558" lon="10.352885698971516"><ele>1019.5</ele><time>2026-05-01T14:43:37.018Z</time></trkpt><trkpt lat="46.35201076152034" lon="10.352719887019079"><ele>1031.0</ele><time>2026-05-01T14:43:38.023Z</time></trkpt><trkpt lat="46.3535906" lon="10.3514093"><ele>994.0</ele><time>2026-05-01T14:43:41.844Z</time></trkpt><trkpt lat="46.35837810118343" lon="10.353773552934037"><ele>994.0</ele><time>2026-05-01T14:44:09Z</time></trkpt><trkpt lat="46.35858060130575" lon="10.353828008250858"><ele>994.0</ele><time>2026-05-01T14:44:10Z</time></trkpt><trkpt lat="46.358480951951684" lon="10.35446860360637"><ele>985.3333333333333</ele><time>2026-05-01T14:44:11Z</time></trkpt><trkpt lat="46.35853635830532" lon="10.354732185003174"><ele>976.6666666666667</ele><time>2026-05-01T14:44:12Z</time></trkpt><trkpt lat="46.35859132068462" lon="10.35498952010481"><ele>968.0</ele><time>2026-05-01T14:44:13Z</time></trkpt><trkpt lat="46.35863451835085" lon="10.35528334112744"><ele>968.0</ele><time>2026-05-01T14:44:14Z</time></trkpt><trkpt lat="46.3586802938525" lon="10.355555574343889"><ele>968.0</ele><time>2026-05-01T14:44:15Z</time></trkpt><trkpt lat="46.358734561075714" lon="10.355840342466806"><ele>968.0</ele><time>2026-05-01T14:44:16Z</time></trkpt><trkpt lat="46.358789836552276" lon="10.356125944842983"><ele>966.6666666666667</ele><time>2026-05-01T14:44:17Z</time></trkpt><trkpt lat="46.35884519627225" lon="10.356447501994824"><ele>965.3333333333333</ele><time>2026-05-01T14:44:18Z</time></trkpt><trkpt lat="46.35890222322061" lon="10.356753591192792"><ele>964.0</ele><time>2026-05-01T14:44:19Z</time></trkpt><trkpt lat="46.358959001708804" lon="10.35707292586381"><ele>966.5</ele><time>2026-05-01T14:44:20Z</time></trkpt><trkpt lat="46.35901772147669" lon="10.357395218740468"><ele>969.0</ele><time>2026-05-01T14:44:21Z</time></trkpt><trkpt lat="46.359078402187826" lon="10.357722380275785"><ele>976.5</ele><time>2026-05-01T14:44:22Z</time></trkpt><trkpt lat="46.3591350899439" lon="10.358040290418813"><ele>984.0</ele><time>2026-05-01T14:44:23Z</time></trkpt><trkpt lat="46.359196493567154" lon="10.358366877144356"><ele>984.0</ele><time>2026-05-01T14:44:24Z</time></trkpt><trkpt lat="46.359244661896284" lon="10.35868380665939"><ele>984.0</ele><time>2026-05-01T14:44:25Z</time></trkpt><trkpt lat="46.359292026420604" lon="10.358979873275128"><ele>984.0</ele><time>2026-05-01T14:44:26Z</time></trkpt><trkpt lat="46.35934877327469" lon="10.359279096844972"><ele>1003.3333333333333</ele><time>2026-05-01T14:44:27Z</time></trkpt><trkpt lat="46.35940467869664" lon="10.359572172648933"><ele>1022.6666666666666</ele><time>2026-05-01T14:44:28Z</time></trkpt><trkpt lat="46.359462644532016" lon="10.359866890030728"><ele>1042.0</ele><time>2026-05-01T14:44:29.016Z</time></trkpt><trkpt lat="46.359522804867446" lon="10.360158274036623"><ele>1058.3333333333333</ele><time>2026-05-01T14:44:30.022Z</time></trkpt><trkpt lat="46.359586407433284" lon="10.360444483781487"><ele>1074.6666666666667</ele><time>2026-05-01T14:44:31.015Z</time></trkpt><trkpt lat="46.3596522881694" lon="10.360731125750464"><ele>1091.0</ele><time>2026-05-01T14:44:32.015Z</time></trkpt><trkpt lat="46.37794382163991" lon="10.359454221660934"><ele>1093.3333333333335</ele><time>2026-05-01T14:45:48.999Z</time></trkpt><trkpt lat="46.37815279492398" lon="10.359337230716434"><ele>1095.6666666666667</ele><time>2026-05-01T14:45:49.999Z</time></trkpt><trkpt lat="46.37836718127832" lon="10.35930771262836"><ele>1098.0</ele><time>2026-05-01T14:45:50.999Z</time></trkpt><trkpt lat="46.378635767056004" lon="10.359225648714107"><ele>1103.6666666666667</ele><time>2026-05-01T14:45:51.999Z</time></trkpt><trkpt lat="46.378864943327116" lon="10.359169911214726"><ele>1109.3333333333335</ele><time>2026-05-01T14:45:53.001Z</time></trkpt><trkpt lat="46.37905353125255" lon="10.359145320216609"><ele>1115.0</ele><time>2026-05-01T14:45:54.001Z</time></trkpt><trkpt lat="46.37924664825645" lon="10.359117895302575"><ele>1161.0</ele><time>2026-05-01T14:45:55.018Z</time></trkpt><trkpt lat="46.447226777716025" lon="10.36428311840665"><ele>1161.0</ele><time>2026-05-01T14:51:27.997Z</time></trkpt><trkpt lat="46.44753999272429" lon="10.36395730466979"><ele>1161.0</ele><time>2026-05-01T14:51:29.997Z</time></trkpt><trkpt lat="46.44766176082186" lon="10.363774976911726"><ele>1160.0</ele><time>2026-05-01T14:51:30.997Z</time></trkpt><trkpt lat="46.44776962475012" lon="10.363652914781143"><ele>1159.0</ele><time>2026-05-01T14:51:31.997Z</time></trkpt><trkpt lat="46.44789573516834" lon="10.363489189442598"><ele>1158.0</ele><time>2026-05-01T14:51:32.997Z</time></trkpt><trkpt lat="46.44806159789764" lon="10.363190153094088"><ele>1157.6666666666667</ele><time>2026-05-01T14:51:34.002Z</time></trkpt><trkpt lat="46.44823111977832" lon="10.362944887904796"><ele>1157.3333333333335</ele><time>2026-05-01T14:51:35.002Z</time></trkpt><trkpt lat="46.44838051350371" lon="10.362732289637787"><ele>1157.0</ele><time>2026-05-01T14:51:36.002Z</time></trkpt><trkpt lat="46.4485203987326" lon="10.362533919382896"><ele>1157.0</ele><time>2026-05-01T14:51:37.002Z</time></trkpt><trkpt lat="46.44866253229675" lon="10.362333711230423"><ele>1157.0</ele><time>2026-05-01T14:51:38.002Z</time></trkpt><trkpt lat="46.44880266488038" lon="10.362135441744721"><ele>1157.0</ele><time>2026-05-01T14:51:39.002Z</time></trkpt><trkpt lat="46.448960299313185" lon="10.361956307773196"><ele>1157.3333333333335</ele><time>2026-05-01T14:51:40.002Z</time></trkpt><trkpt lat="46.4491249100903" lon="10.361781767542988"><ele>1157.6666666666667</ele><time>2026-05-01T14:51:41.002Z</time></trkpt><trkpt lat="46.44929602818337" lon="10.361611009207648"><ele>1158.0</ele><time>2026-05-01T14:51:42.002Z</time></trkpt><trkpt lat="46.44947043313122" lon="10.361460853804822"><ele>1157.0</ele><time>2026-05-01T14:51:43.002Z</time></trkpt><trkpt lat="46.449659813549864" lon="10.361318026283712"><ele>1156.0</ele><time>2026-05-01T14:51:44.002Z</time></trkpt><trkpt lat="46.44984939197177" lon="10.361181359609452"><ele>1155.0</ele><time>2026-05-01T14:51:45.001Z</time></trkpt><trkpt lat="46.45004310324522" lon="10.361058305962514"><ele>1155.0</ele><time>2026-05-01T14:51:46.001Z</time></trkpt><trkpt lat="46.45023540474941" lon="10.360958478338416"><ele>1155.0</ele><time>2026-05-01T14:51:47.001Z</time></trkpt><trkpt lat="46.45042886937478" lon="10.360867796638173"><ele>1155.0</ele><time>2026-05-01T14:51:48.001Z</time></trkpt><trkpt lat="46.45062586219638" lon="10.36077899002943"><ele>1155.0</ele><time>2026-05-01T14:51:49.001Z</time></trkpt><trkpt lat="46.450824424788564" lon="10.360700373900627"><ele>1155.0</ele><time>2026-05-01T14:51:50.001Z</time></trkpt><trkpt lat="46.451021377012474" lon="10.360625081825027"><ele>1155.0</ele><time>2026-05-01T14:51:51.001Z</time></trkpt><trkpt lat="46.45121173715536" lon="10.360559749820712"><ele>1155.6666666666667</ele><time>2026-05-01T14:51:52.001Z</time></trkpt><trkpt lat="46.45139720873602" lon="10.36050495307421"><ele>1156.3333333333335</ele><time>2026-05-01T14:51:53.001Z</time></trkpt><trkpt lat="46.45156921034977" lon="10.360458813428147"><ele>1157.0</ele><time>2026-05-01T14:51:54.001Z</time></trkpt><trkpt lat="46.45174218797773" lon="10.360418926322021"><ele>1157.0</ele><time>2026-05-01T14:51:55.001Z</time></trkpt><trkpt lat="46.45190753716478" lon="10.360382010790463"><ele>1157.0</ele><time>2026-05-01T14:51:56.001Z</time></trkpt><trkpt lat="46.45206478369372" lon="10.360355880613627"><ele>1157.0</ele><time>2026-05-01T14:51:57.001Z</time></trkpt><trkpt lat="46.452210786048305" lon="10.360335641238098"><ele>1157.25</ele><time>2026-05-01T14:51:58.001Z</time></trkpt><trkpt lat="46.45234560255485" lon="10.360319590945998"><ele>1157.5</ele><time>2026-05-01T14:51:59.001Z</time></trkpt><trkpt lat="46.45246982837918" lon="10.360306844754438"><ele>1157.75</ele><time>2026-05-01T14:52:00.001Z</time></trkpt><trkpt lat="46.45258335239948" lon="10.36029200246017"><ele>1158.0</ele><time>2026-05-01T14:52:01Z</time></trkpt><trkpt lat="46.452679094397375" lon="10.360277663725883"><ele>1158.0</ele><time>2026-05-01T14:52:02Z</time></trkpt><trkpt lat="46.45275269220864" lon="10.360269346531643"><ele>1158.0</ele><time>2026-05-01T14:52:03Z</time></trkpt><trkpt lat="46.4528316802407" lon="10.360285326132022"><ele>1158.0</ele><time>2026-05-01T14:52:05Z</time></trkpt><trkpt lat="46.452908754150045" lon="10.360349378049449"><ele>1158.0</ele><time>2026-05-01T14:52:09Z</time></trkpt><trkpt lat="46.453002538867274" lon="10.36044126073385"><ele>1158.0</ele><time>2026-05-01T14:52:11Z</time></trkpt><trkpt lat="46.453065083408504" lon="10.360485243043838"><ele>1158.0</ele><time>2026-05-01T14:52:12Z</time></trkpt><trkpt lat="46.45313732412636" lon="10.360502527283943"><ele>1158.5</ele><time>2026-05-01T14:52:13Z</time></trkpt><trkpt lat="46.45320906788986" lon="10.36047481410282"><ele>1159.0</ele><time>2026-05-01T14:52:14Z</time></trkpt><trkpt lat="46.45327068944967" lon="10.360417017770098"><ele>1159.5</ele><time>2026-05-01T14:52:15Z</time></trkpt><trkpt lat="46.45332802489076" lon="10.36034629961274"><ele>1160.0</ele><time>2026-05-01T14:52:16Z</time></trkpt><trkpt lat="46.45339192484235" lon="10.360261872197032"><ele>1160.5</ele><time>2026-05-01T14:52:17Z</time></trkpt><trkpt lat="46.45346928049811" lon="10.360190220226556"><ele>1161.0</ele><time>2026-05-01T14:52:18Z</time></trkpt><trkpt lat="46.45355496640305" lon="10.360140627395348"><ele>1161.0</ele><time>2026-05-01T14:52:19Z</time></trkpt><trkpt lat="46.453686684153254" lon="10.360077608506925"><ele>1161.0</ele><time>2026-05-01T14:52:20Z</time></trkpt><trkpt lat="46.453821112002046" lon="10.360054512184064"><ele>1161.0</ele><time>2026-05-01T14:52:21Z</time></trkpt><trkpt lat="46.45396787570307" lon="10.360033394792158"><ele>1161.0</ele><time>2026-05-01T14:52:22Z</time></trkpt><trkpt lat="46.454112126771285" lon="10.360006251152083"><ele>1161.0</ele><time>2026-05-01T14:52:23Z</time></trkpt><trkpt lat="46.454274706903576" lon="10.359974280931246"><ele>1161.0</ele><time>2026-05-01T14:52:24Z</time></trkpt><trkpt lat="46.454449180465275" lon="10.359948650327008"><ele>1161.0</ele><time>2026-05-01T14:52:25Z</time></trkpt><trkpt lat="46.45462845505561" lon="10.359924925210118"><ele>1161.0</ele><time>2026-05-01T14:52:26Z</time></trkpt><trkpt lat="46.45481805728876" lon="10.359896201215914"><ele>1161.0</ele><time>2026-05-01T14:52:27Z</time></trkpt><trkpt lat="46.45501546844973" lon="10.359861057165373"><ele>1161.0</ele><time>2026-05-01T14:52:28Z</time></trkpt><trkpt lat="46.455214000760066" lon="10.359820632042032"><ele>1161.0</ele><time>2026-05-01T14:52:29Z</time></trkpt><trkpt lat="46.45540956977139" lon="10.359781638338964"><ele>1161.0</ele><time>2026-05-01T14:52:30Z</time></trkpt><trkpt lat="46.455611943371856" lon="10.359742558679562"><ele>1161.0</ele><time>2026-05-01T14:52:31Z</time></trkpt><trkpt lat="46.45582308227322" lon="10.359701602327108"><ele>1161.0</ele><time>2026-05-01T14:52:32Z</time></trkpt><trkpt lat="46.45603891208873" lon="10.359662146144451"><ele>1161.0</ele><time>2026-05-01T14:52:33Z</time></trkpt><trkpt lat="46.45625701320846" lon="10.359620755027292"><ele>1161.0</ele><time>2026-05-01T14:52:34Z</time></trkpt><trkpt lat="46.456477451062185" lon="10.359581541047257"><ele>1162.5</ele><time>2026-05-01T14:52:35Z</time></trkpt><trkpt lat="46.456703067495084" lon="10.359543353630826"><ele>1164.0</ele><time>2026-05-01T14:52:36Z</time></trkpt><trkpt lat="46.456932579598686" lon="10.359500461187853"><ele>1165.5</ele><time>2026-05-01T14:52:37Z</time></trkpt><trkpt lat="46.45716374252905" lon="10.35944714468631"><ele>1167.0</ele><time>2026-05-01T14:52:38Z</time></trkpt><trkpt lat="46.45740873046412" lon="10.359398298223878"><ele>1167.0</ele><time>2026-05-01T14:52:38.999Z</time></trkpt><trkpt lat="46.45765864436383" lon="10.359361267444044"><ele>1167.0</ele><time>2026-05-01T14:52:39.999Z</time></trkpt><trkpt lat="46.45789874284942" lon="10.359327794242443"><ele>1166.5</ele><time>2026-05-01T14:52:40.999Z</time></trkpt><trkpt lat="46.458130655326066" lon="10.359288188281038"><ele>1166.0</ele><time>2026-05-01T14:52:41.999Z</time></trkpt><trkpt lat="46.45835392010486" lon="10.359246544964359"><ele>1166.0</ele><time>2026-05-01T14:52:42.999Z</time></trkpt><trkpt lat="46.45856333320633" lon="10.359214097572444"><ele>1166.0</ele><time>2026-05-01T14:52:43.999Z</time></trkpt><trkpt lat="46.45876832395913" lon="10.35918227044057"><ele>1166.0</ele><time>2026-05-01T14:52:44.999Z</time></trkpt><trkpt lat="46.45896765328472" lon="10.359145484400935"><ele>1167.0</ele><time>2026-05-01T14:52:45.999Z</time></trkpt><trkpt lat="46.459155165710726" lon="10.359110056192664"><ele>1168.0</ele><time>2026-05-01T14:52:46.999Z</time></trkpt><trkpt lat="46.459328476427174" lon="10.359073187895198"><ele>1169.0</ele><time>2026-05-01T14:52:47.999Z</time></trkpt><trkpt lat="46.45949576021089" lon="10.359032417201785"><ele>1169.5</ele><time>2026-05-01T14:52:48.999Z</time></trkpt><trkpt lat="46.459647623942715" lon="10.359010609339016"><ele>1170.0</ele><time>2026-05-01T14:52:49.999Z</time></trkpt><trkpt lat="46.459797757187786" lon="10.359002505443238"><ele>1170.5</ele><time>2026-05-01T14:52:50.999Z</time></trkpt><trkpt lat="46.45993973965171" lon="10.359026920901027"><ele>1171.0</ele><time>2026-05-01T14:52:51.999Z</time></trkpt><trkpt lat="46.460077344922496" lon="10.359065473905417"><ele>1171.0</ele><time>2026-05-01T14:52:52.999Z</time></trkpt><trkpt lat="46.46020178764996" lon="10.359120299849408"><ele>1171.0</ele><time>2026-05-01T14:52:53.999Z</time></trkpt><trkpt lat="46.46033015610425" lon="10.359191763053659"><ele>1171.0</ele><time>2026-05-01T14:52:54.999Z</time></trkpt><trkpt lat="46.46044907795004" lon="10.359285622867187"><ele>1171.0</ele><time>2026-05-01T14:52:55.999Z</time></trkpt><trkpt lat="46.460563936446626" lon="10.359394750748152"><ele>1171.25</ele><time>2026-05-01T14:52:56.999Z</time></trkpt><trkpt lat="46.46067619358635" lon="10.359513838694529"><ele>1171.5</ele><time>2026-05-01T14:52:57.999Z</time></trkpt><trkpt lat="46.46078156099326" lon="10.359639635267515"><ele>1171.75</ele><time>2026-05-01T14:52:58.999Z</time></trkpt><trkpt lat="46.46088625640748" lon="10.359791901985162"><ele>1172.0</ele><time>2026-05-01T14:52:59.999Z</time></trkpt><trkpt lat="46.46097614255296" lon="10.359941256093972"><ele>1172.25</ele><time>2026-05-01T14:53:00.999Z</time></trkpt><trkpt lat="46.46105758692914" lon="10.360102665025272"><ele>1172.5</ele><time>2026-05-01T14:53:01.999Z</time></trkpt><trkpt lat="46.46114196977409" lon="10.36027763749617"><ele>1172.75</ele><time>2026-05-01T14:53:02.999Z</time></trkpt><trkpt lat="46.46122410379458" lon="10.360456393826889"><ele>1173.0</ele><time>2026-05-01T14:53:03.999Z</time></trkpt><trkpt lat="46.46130989183944" lon="10.36063660142575"><ele>1174.0</ele><time>2026-05-01T14:53:04.999Z</time></trkpt><trkpt lat="46.46139475846267" lon="10.360795705209021"><ele>1175.0</ele><time>2026-05-01T14:53:05.999Z</time></trkpt><trkpt lat="46.46147811421067" lon="10.360982867676931"><ele>1176.0</ele><time>2026-05-01T14:53:06.999Z</time></trkpt><trkpt lat="46.46156703061195" lon="10.361166229316522"><ele>1177.0</ele><time>2026-05-01T14:53:07.999Z</time></trkpt><trkpt lat="46.46165868847618" lon="10.361343647154824"><ele>1176.75</ele><time>2026-05-01T14:53:08.999Z</time></trkpt><trkpt lat="46.46174713134717" lon="10.361513729958576"><ele>1176.5</ele><time>2026-05-01T14:53:09.999Z</time></trkpt><trkpt lat="46.461828775738574" lon="10.36167547137276"><ele>1176.25</ele><time>2026-05-01T14:53:10.999Z</time></trkpt><trkpt lat="46.46191307757091" lon="10.361847182477133"><ele>1176.0</ele><time>2026-05-01T14:53:11.999Z</time></trkpt><trkpt lat="46.46199952001944" lon="10.362005799143986"><ele>1176.0</ele><time>2026-05-01T14:53:12.999Z</time></trkpt><trkpt lat="46.46208430102991" lon="10.36217850267805"><ele>1176.0</ele><time>2026-05-01T14:53:13.999Z</time></trkpt><trkpt lat="46.46216445686902" lon="10.362355407971553"><ele>1176.0</ele><time>2026-05-01T14:53:14.999Z</time></trkpt><trkpt lat="46.46225124224748" lon="10.362534755640958"><ele>1176.0</ele><time>2026-05-01T14:53:15.999Z</time></trkpt><trkpt lat="46.462329761689695" lon="10.362682321703357"><ele>1176.5</ele><time>2026-05-01T14:53:16.999Z</time></trkpt><trkpt lat="46.46240159033368" lon="10.362851497690142"><ele>1177.0</ele><time>2026-05-01T14:53:17.999Z</time></trkpt><trkpt lat="46.462484405382575" lon="10.36300572550894"><ele>1177.5</ele><time>2026-05-01T14:53:18.999Z</time></trkpt><trkpt lat="46.46256936631826" lon="10.363165595171315"><ele>1178.0</ele><time>2026-05-01T14:53:19.999Z</time></trkpt><trkpt lat="46.46263172735157" lon="10.363303515344175"><ele>1178.0</ele><time>2026-05-01T14:53:20.999Z</time></trkpt><trkpt lat="46.462707083910885" lon="10.363405799809344"><ele>1178.0</ele><time>2026-05-01T14:53:21.999Z</time></trkpt><trkpt lat="46.46278138709209" lon="10.363488450712447"><ele>1178.0</ele><time>2026-05-01T14:53:22.999Z</time></trkpt><trkpt lat="46.4627790255082" lon="10.363609103154536"><ele>1178.0</ele><time>2026-05-01T14:53:23.999Z</time></trkpt><trkpt lat="46.46286021931267" lon="10.363735096098862"><ele>1178.0</ele><time>2026-05-01T14:53:25.999Z</time></trkpt><trkpt lat="46.463199130207585" lon="10.364469514054509"><ele>1178.6</ele><time>2026-05-01T14:53:27.999Z</time></trkpt><trkpt lat="46.46326868829881" lon="10.364602588165024"><ele>1179.1999999999998</ele><time>2026-05-01T14:53:28.999Z</time></trkpt><trkpt lat="46.46333262424815" lon="10.364729614169987"><ele>1179.8</ele><time>2026-05-01T14:53:29.999Z</time></trkpt><trkpt lat="46.463397008251874" lon="10.364849538769391"><ele>1180.3999999999999</ele><time>2026-05-01T14:53:30.999Z</time></trkpt><trkpt lat="46.46345195292641" lon="10.364966427574139"><ele>1181.0</ele><time>2026-05-01T14:53:31.999Z</time></trkpt><trkpt lat="46.463496694514724" lon="10.365073703561407"><ele>1181.0</ele><time>2026-05-01T14:53:32.999Z</time></trkpt><trkpt lat="46.46353455475055" lon="10.365151231145216"><ele>1181.0</ele><time>2026-05-01T14:53:33.999Z</time></trkpt><trkpt lat="46.46356732485652" lon="10.365239384497709"><ele>1181.0</ele><time>2026-05-01T14:53:36.999Z</time></trkpt><trkpt lat="46.46358475174775" lon="10.365361181750824"><ele>1181.0</ele><time>2026-05-01T14:53:40Z</time></trkpt><trkpt lat="46.46364875922173" lon="10.365475126354408"><ele>1181.0</ele><time>2026-05-01T14:53:42Z</time></trkpt><trkpt lat="46.463744355044355" lon="10.365587828780729"><ele>1181.0</ele><time>2026-05-01T14:53:44Z</time></trkpt><trkpt lat="46.46380198893404" lon="10.365661928259394"><ele>1181.8333333333335</ele><time>2026-05-01T14:53:45Z</time></trkpt><trkpt lat="46.46384112355684" lon="10.365751860962558"><ele>1182.6666666666667</ele><time>2026-05-01T14:53:46Z</time></trkpt><trkpt lat="46.463880653552565" lon="10.36584354043909"><ele>1183.5</ele><time>2026-05-01T14:53:47Z</time></trkpt><trkpt lat="46.46392989578758" lon="10.36593290563644"><ele>1184.3333333333333</ele><time>2026-05-01T14:53:48Z</time></trkpt><trkpt lat="46.46398120673541" lon="10.366024613557443"><ele>1185.1666666666665</ele><time>2026-05-01T14:53:49Z</time></trkpt><trkpt lat="46.464031229355854" lon="10.366117179880323"><ele>1186.0</ele><time>2026-05-01T14:53:50Z</time></trkpt><trkpt lat="46.4640710577145" lon="10.366220798792169"><ele>1186.0</ele><time>2026-05-01T14:53:51Z</time></trkpt><trkpt lat="46.464118151842214" lon="10.366319402956226"><ele>1186.0</ele><time>2026-05-01T14:53:52Z</time></trkpt><trkpt lat="46.46417058295168" lon="10.366422539628177"><ele>1186.0</ele><time>2026-05-01T14:53:53Z</time></trkpt><trkpt lat="46.464226116461326" lon="10.366530928363959"><ele>1186.0</ele><time>2026-05-01T14:53:54Z</time></trkpt><trkpt lat="46.46428570572061" lon="10.366648927329301"><ele>1186.0</ele><time>2026-05-01T14:53:55Z</time></trkpt><trkpt lat="46.46434843813513" lon="10.366764080172048"><ele>1186.0</ele><time>2026-05-01T14:53:56Z</time></trkpt><trkpt lat="46.464407051973765" lon="10.366886029389892"><ele>1186.0</ele><time>2026-05-01T14:53:57Z</time></trkpt><trkpt lat="46.464464465840166" lon="10.36701466525099"><ele>1186.0</ele><time>2026-05-01T14:53:58Z</time></trkpt><trkpt lat="46.46453345147618" lon="10.367153393062232"><ele>1186.0</ele><time>2026-05-01T14:53:59Z</time></trkpt><trkpt lat="46.46460040410277" lon="10.367288503048103"><ele>1186.0</ele><time>2026-05-01T14:54:00Z</time></trkpt><trkpt lat="46.46466650360673" lon="10.367428673340953"><ele>1187.25</ele><time>2026-05-01T14:54:01Z</time></trkpt><trkpt lat="46.464733305264105" lon="10.36756660119487"><ele>1188.5</ele><time>2026-05-01T14:54:02Z</time></trkpt><trkpt lat="46.46478261954565" lon="10.367695023869821"><ele>1189.75</ele><time>2026-05-01T14:54:03Z</time></trkpt><trkpt lat="46.46487567628241" lon="10.367850942025493"><ele>1191.0</ele><time>2026-05-01T14:54:04Z</time></trkpt><trkpt lat="46.46495043769669" lon="10.368004042620756"><ele>1191.5</ele><time>2026-05-01T14:54:05Z</time></trkpt><trkpt lat="46.46503157705147" lon="10.368157231147402"><ele>1192.0</ele><time>2026-05-01T14:54:06Z</time></trkpt><trkpt lat="46.465107607672365" lon="10.368322305135589"><ele>1192.5</ele><time>2026-05-01T14:54:07Z</time></trkpt><trkpt lat="46.46518847298066" lon="10.368476757127441"><ele>1193.0</ele><time>2026-05-01T14:54:08Z</time></trkpt><trkpt lat="46.465262312472184" lon="10.368625098561747"><ele>1193.0</ele><time>2026-05-01T14:54:09Z</time></trkpt><trkpt lat="46.465332139849544" lon="10.368769860556098"><ele>1193.0</ele><time>2026-05-01T14:54:10Z</time></trkpt><trkpt lat="46.465410129095176" lon="10.368918257640717"><ele>1193.0</ele><time>2026-05-01T14:54:11Z</time></trkpt><trkpt lat="46.465489079060006" lon="10.369078033490343"><ele>1193.0</ele><time>2026-05-01T14:54:12Z</time></trkpt><trkpt lat="46.46556539717753" lon="10.369232913404785"><ele>1193.4</ele><time>2026-05-01T14:54:13Z</time></trkpt><trkpt lat="46.465633952763554" lon="10.369383266845666"><ele>1193.8</ele><time>2026-05-01T14:54:14Z</time></trkpt><trkpt lat="46.46570259895823" lon="10.369521700720837"><ele>1194.2</ele><time>2026-05-01T14:54:15Z</time></trkpt><trkpt lat="46.46576624291498" lon="10.369649113699326"><ele>1194.6</ele><time>2026-05-01T14:54:16Z</time></trkpt><trkpt lat="46.46582238678449" lon="10.369768126364255"><ele>1195.0</ele><time>2026-05-01T14:54:17Z</time></trkpt><trkpt lat="46.465877395566544" lon="10.36988559821577"><ele>1195.1666666666665</ele><time>2026-05-01T14:54:17.999Z</time></trkpt><trkpt lat="46.46593073586452" lon="10.369991789729577"><ele>1195.3333333333333</ele><time>2026-05-01T14:54:18.999Z</time></trkpt><trkpt lat="46.46597842713523" lon="10.370080687181382"><ele>1195.5</ele><time>2026-05-01T14:54:19.999Z</time></trkpt><trkpt lat="46.46602508586407" lon="10.370176288029015"><ele>1195.6666666666667</ele><time>2026-05-01T14:54:20.999Z</time></trkpt><trkpt lat="46.46607484334856" lon="10.370286746636348"><ele>1195.8333333333335</ele><time>2026-05-01T14:54:21.999Z</time></trkpt><trkpt lat="46.46613143796823" lon="10.370392141984073"><ele>1196.0</ele><time>2026-05-01T14:54:22.999Z</time></trkpt><trkpt lat="46.46618718677851" lon="10.370507831502216"><ele>1196.1666666666667</ele><time>2026-05-01T14:54:23.999Z</time></trkpt><trkpt lat="46.46623987639651" lon="10.37061277633818"><ele>1196.3333333333335</ele><time>2026-05-01T14:54:24.999Z</time></trkpt><trkpt lat="46.46628401207742" lon="10.370698563718431"><ele>1196.5</ele><time>2026-05-01T14:54:25.999Z</time></trkpt><trkpt lat="46.46633365925699" lon="10.370784374516616"><ele>1196.6666666666667</ele><time>2026-05-01T14:54:27.999Z</time></trkpt><trkpt lat="46.46640242135986" lon="10.370867665003003"><ele>1196.8333333333333</ele><time>2026-05-01T14:54:41.999Z</time></trkpt><trkpt lat="46.466471486447226" lon="10.37095470865835"><ele>1197.0</ele><time>2026-05-01T14:54:43.999Z</time></trkpt><trkpt lat="46.46655708132405" lon="10.370949109588638"><ele>1197.4</ele><time>2026-05-01T14:54:45.999Z</time></trkpt><trkpt lat="46.46672028568475" lon="10.370971587641128"><ele>1197.8000000000002</ele><time>2026-05-01T14:54:48.999Z</time></trkpt><trkpt lat="46.46678030257936" lon="10.371036742873995"><ele>1198.2</ele><time>2026-05-01T14:54:49.999Z</time></trkpt><trkpt lat="46.466833541574836" lon="10.371097718611633"><ele>1198.6000000000001</ele><time>2026-05-01T14:54:50.999Z</time></trkpt><trkpt lat="46.46691301605959" lon="10.371177068575022"><ele>1199.0</ele><time>2026-05-01T14:54:52.999Z</time></trkpt><trkpt lat="46.46697523583941" lon="10.371226983888008"><ele>1199.0</ele><time>2026-05-01T14:54:56.999Z</time></trkpt><trkpt lat="46.46703299904153" lon="10.371266084679007"><ele>1199.0</ele><time>2026-05-01T14:54:58.999Z</time></trkpt><trkpt lat="46.46712328088633" lon="10.371321485862163"><ele>1199.0</ele><time>2026-05-01T14:55:00.999Z</time></trkpt><trkpt lat="46.46722357734904" lon="10.371388801515897"><ele>1199.0</ele><time>2026-05-01T14:55:02.999Z</time></trkpt><trkpt lat="46.46733171281762" lon="10.37145529693201"><ele>1199.0</ele><time>2026-05-01T14:55:04.999Z</time></trkpt><trkpt lat="46.467391451059115" lon="10.371493474404565"><ele>1200.3333333333335</ele><time>2026-05-01T14:55:05.999Z</time></trkpt><trkpt lat="46.467455972020176" lon="10.37153264043805"><ele>1201.6666666666667</ele><time>2026-05-01T14:55:06.999Z</time></trkpt><trkpt lat="46.46752992860342" lon="10.371570698145176"><ele>1203.0</ele><time>2026-05-01T14:55:07.999Z</time></trkpt><trkpt lat="46.467601626133074" lon="10.371616180723759"><ele>1204.3333333333333</ele><time>2026-05-01T14:55:08.999Z</time></trkpt><trkpt lat="46.467663958575706" lon="10.371643581441635"><ele>1205.6666666666665</ele><time>2026-05-01T14:55:09.999Z</time></trkpt><trkpt lat="46.46776107579828" lon="10.371701400394349"><ele>1207.0</ele><time>2026-05-01T14:55:11.999Z</time></trkpt><trkpt lat="46.46785395291941" lon="10.37174202114839"><ele>1207.6666666666665</ele><time>2026-05-01T14:55:13.999Z</time></trkpt><trkpt lat="46.46794761689548" lon="10.371782103972649"><ele>1208.3333333333333</ele><time>2026-05-01T14:55:15.999Z</time></trkpt><trkpt lat="46.46804824983577" lon="10.371830046629686"><ele>1209.0</ele><time>2026-05-01T14:55:17.999Z</time></trkpt><trkpt lat="46.468124080208284" lon="10.371850983260517"><ele>1209.6666666666667</ele><time>2026-05-01T14:55:19.999Z</time></trkpt><trkpt lat="46.468214126595214" lon="10.371877317010723"><ele>1210.3333333333335</ele><time>2026-05-01T14:55:22.999Z</time></trkpt><trkpt lat="46.46828249793514" lon="10.371871510518659"><ele>1211.0</ele><time>2026-05-01T14:55:24.999Z</time></trkpt><trkpt lat="46.46837611169535" lon="10.371861513072432"><ele>1211.0</ele><time>2026-05-01T14:55:26.998Z</time></trkpt><trkpt lat="46.468496772213065" lon="10.371857727083231"><ele>1211.0</ele><time>2026-05-01T14:55:28.998Z</time></trkpt><trkpt lat="46.46856249165385" lon="10.371874143410551"><ele>1211.0</ele><time>2026-05-01T14:55:29.998Z</time></trkpt><trkpt lat="46.46862957862736" lon="10.37188958832018"><ele>1211.0</ele><time>2026-05-01T14:55:30.998Z</time></trkpt><trkpt lat="46.468713027603435" lon="10.371738580608392"><ele>1211.0</ele><time>2026-05-01T14:55:31.998Z</time></trkpt><trkpt lat="46.46878030758751" lon="10.371682839548091"><ele>1211.3333333333335</ele><time>2026-05-01T14:55:32.998Z</time></trkpt><trkpt lat="46.46885513716639" lon="10.371601697799147"><ele>1211.6666666666667</ele><time>2026-05-01T14:55:33.998Z</time></trkpt><trkpt lat="46.46892288971445" lon="10.371531105753578"><ele>1212.0</ele><time>2026-05-01T14:55:34.998Z</time></trkpt><trkpt lat="46.46898611531796" lon="10.371456165605391"><ele>1212.3333333333333</ele><time>2026-05-01T14:55:35.998Z</time></trkpt><trkpt lat="46.46906487768596" lon="10.371392252635863"><ele>1212.6666666666665</ele><time>2026-05-01T14:55:36.998Z</time></trkpt><trkpt lat="46.46913679376817" lon="10.371314610922077"><ele>1213.0</ele><time>2026-05-01T14:55:37.998Z</time></trkpt><trkpt lat="46.46920550091474" lon="10.371244070499177"><ele>1213.4</ele><time>2026-05-01T14:55:38.998Z</time></trkpt><trkpt lat="46.46926973934469" lon="10.371154137483035"><ele>1213.8</ele><time>2026-05-01T14:55:39.998Z</time></trkpt><trkpt lat="46.46933090752735" lon="10.371040471709746"><ele>1214.2</ele><time>2026-05-01T14:55:40.998Z</time></trkpt><trkpt lat="46.46939307871431" lon="10.37091395205826"><ele>1214.6</ele><time>2026-05-01T14:55:41.998Z</time></trkpt><trkpt lat="46.469448772284316" lon="10.370764067491358"><ele>1215.0</ele><time>2026-05-01T14:55:42.998Z</time></trkpt><trkpt lat="46.46949599749393" lon="10.37061809467872"><ele>1215.2</ele><time>2026-05-01T14:55:43.998Z</time></trkpt><trkpt lat="46.46952998305135" lon="10.370468512025967"><ele>1215.4</ele><time>2026-05-01T14:55:44.998Z</time></trkpt><trkpt lat="46.46955201246313" lon="10.370302611409146"><ele>1215.6</ele><time>2026-05-01T14:55:45.999Z</time></trkpt><trkpt lat="46.469590331223486" lon="10.370174867231787"><ele>1215.8</ele><time>2026-05-01T14:55:46.999Z</time></trkpt><trkpt lat="46.46960192350017" lon="10.370029270879167"><ele>1216.0</ele><time>2026-05-01T14:55:47.999Z</time></trkpt><trkpt lat="46.46961077181056" lon="10.369875714816356"><ele>1216.6</ele><time>2026-05-01T14:55:48.999Z</time></trkpt><trkpt lat="46.469622882108645" lon="10.369730620738226"><ele>1217.1999999999998</ele><time>2026-05-01T14:55:49.999Z</time></trkpt><trkpt lat="46.46963838553548" lon="10.369623946129689"><ele>1217.8000000000002</ele><time>2026-05-01T14:55:50.999Z</time></trkpt><trkpt lat="46.469679391147565" lon="10.369523855611106"><ele>1218.4</ele><time>2026-05-01T14:55:52.999Z</time></trkpt><trkpt lat="46.46961775290435" lon="10.369556819126274"><ele>1219.0</ele><time>2026-05-01T14:58:05.999Z</time></trkpt><trkpt lat="46.46945983338542" lon="10.369458920156195"><ele>1219.0</ele><time>2026-05-01T14:58:09.999Z</time></trkpt><trkpt lat="46.46940573818481" lon="10.369370408406654"><ele>1219.0</ele><time>2026-05-01T14:58:10.999Z</time></trkpt><trkpt lat="46.46933921102181" lon="10.369240614885582"><ele>1219.0</ele><time>2026-05-01T14:58:11.999Z</time></trkpt><trkpt lat="46.46972019872339" lon="10.36894726136659"><ele>1220.0</ele><time>2026-05-01T14:58:12.999Z</time></trkpt><trkpt lat="46.469771642948004" lon="10.36881675184464"><ele>1221.0</ele><time>2026-05-01T14:58:13.999Z</time></trkpt><trkpt lat="46.46984209423627" lon="10.368725302246329"><ele>1222.0</ele><time>2026-05-01T14:58:14.999Z</time></trkpt><trkpt lat="46.46991249527774" lon="10.36861878087617"><ele>1223.0</ele><time>2026-05-01T14:58:15.999Z</time></trkpt><trkpt lat="46.469986997843264" lon="10.368484802560229"><ele>1224.0</ele><time>2026-05-01T14:58:16.999Z</time></trkpt><trkpt lat="46.47007463100724" lon="10.368371688319701"><ele>1224.0</ele><time>2026-05-01T14:58:17.999Z</time></trkpt><trkpt lat="46.47017594530352" lon="10.368254287671007"><ele>1224.0</ele><time>2026-05-01T14:58:18.999Z</time></trkpt><trkpt lat="46.470262959817056" lon="10.368136384786979"><ele>1224.0</ele><time>2026-05-01T14:58:19.999Z</time></trkpt><trkpt lat="46.47034148816629" lon="10.368023462469207"><ele>1224.0</ele><time>2026-05-01T14:58:20.999Z</time></trkpt><trkpt lat="46.470416231059296" lon="10.367911078755855"><ele>1225.75</ele><time>2026-05-01T14:58:21.999Z</time></trkpt><trkpt lat="46.47050394522493" lon="10.367791188445239"><ele>1227.5</ele><time>2026-05-01T14:58:22.999Z</time></trkpt><trkpt lat="46.470590874978875" lon="10.367667017199917"><ele>1229.25</ele><time>2026-05-01T14:58:23.999Z</time></trkpt><trkpt lat="46.470676824863354" lon="10.367549938234559"><ele>1231.0</ele><time>2026-05-01T14:58:24.999Z</time></trkpt><trkpt lat="46.47076610383579" lon="10.367423063161358"><ele>1231.0</ele><time>2026-05-01T14:58:25.999Z</time></trkpt><trkpt lat="46.47086985424739" lon="10.367319640104096"><ele>1231.0</ele><time>2026-05-01T14:58:26.999Z</time></trkpt><trkpt lat="46.470959258750774" lon="10.3672007696117"><ele>1231.0</ele><time>2026-05-01T14:58:27.999Z</time></trkpt><trkpt lat="46.47104815175192" lon="10.367074613777874"><ele>1231.0</ele><time>2026-05-01T14:58:28.999Z</time></trkpt><trkpt lat="46.47113920613215" lon="10.3669483319841"><ele>1231.0</ele><time>2026-05-01T14:58:29.999Z</time></trkpt><trkpt lat="46.47122828197897" lon="10.36682810694727"><ele>1231.0</ele><time>2026-05-01T14:58:30.999Z</time></trkpt><trkpt lat="46.47131566086904" lon="10.366708052995001"><ele>1231.0</ele><time>2026-05-01T14:58:31.999Z</time></trkpt><trkpt lat="46.4714118641365" lon="10.366602621914657"><ele>1231.0</ele><time>2026-05-01T14:58:32.999Z</time></trkpt><trkpt lat="46.471516497526935" lon="10.366524470339247"><ele>1231.75</ele><time>2026-05-01T14:58:33.999Z</time></trkpt><trkpt lat="46.47162874436155" lon="10.366477643425709"><ele>1232.5</ele><time>2026-05-01T14:58:34.999Z</time></trkpt><trkpt lat="46.47173204015606" lon="10.366390904572954"><ele>1233.25</ele><time>2026-05-01T14:58:35.999Z</time></trkpt><trkpt lat="46.47183798665117" lon="10.366334622402377"><ele>1234.0</ele><time>2026-05-01T14:58:36.999Z</time></trkpt><trkpt lat="46.471951482018675" lon="10.366281192391869"><ele>1234.0</ele><time>2026-05-01T14:58:37.999Z</time></trkpt><trkpt lat="46.47206107968158" lon="10.366225022022588"><ele>1234.0</ele><time>2026-05-01T14:58:38.999Z</time></trkpt><trkpt lat="46.47216513871628" lon="10.366163925481137"><ele>1234.0</ele><time>2026-05-01T14:58:39.999Z</time></trkpt><trkpt lat="46.47227860468792" lon="10.366110362619178"><ele>1234.0</ele><time>2026-05-01T14:58:40.999Z</time></trkpt><trkpt lat="46.47237467414833" lon="10.366053354720755"><ele>1235.1666666666665</ele><time>2026-05-01T14:58:41.999Z</time></trkpt><trkpt lat="46.47245330646101" lon="10.366014229409998"><ele>1236.3333333333333</ele><time>2026-05-01T14:58:42.999Z</time></trkpt><trkpt lat="46.47252075128904" lon="10.365977734464202"><ele>1237.5</ele><time>2026-05-01T14:58:43.999Z</time></trkpt><trkpt lat="46.47258759400384" lon="10.365947888665314"><ele>1238.6666666666667</ele><time>2026-05-01T14:58:44.999Z</time></trkpt><trkpt lat="46.47271438292015" lon="10.365895763690242"><ele>1239.8333333333335</ele><time>2026-05-01T14:58:46.999Z</time></trkpt><trkpt lat="46.47279563206736" lon="10.365875869366425"><ele>1241.0</ele><time>2026-05-01T14:58:47.999Z</time></trkpt><trkpt lat="46.472876549853694" lon="10.365893693246052"><ele>1241.0</ele><time>2026-05-01T14:58:48.999Z</time></trkpt><trkpt lat="46.4729476965753" lon="10.365977838159134"><ele>1241.0</ele><time>2026-05-01T14:58:49.999Z</time></trkpt><trkpt lat="46.47297694656735" lon="10.366090624445171"><ele>1241.0</ele><time>2026-05-01T14:58:50.999Z</time></trkpt><trkpt lat="46.472963881583524" lon="10.366221615105555"><ele>1241.0</ele><time>2026-05-01T14:58:51.999Z</time></trkpt><trkpt lat="46.47289333374862" lon="10.36633900192357"><ele>1241.0</ele><time>2026-05-01T14:58:52.999Z</time></trkpt><trkpt lat="46.4728417120547" lon="10.366475576127886"><ele>1242.25</ele><time>2026-05-01T14:58:53.999Z</time></trkpt><trkpt lat="46.47277957890238" lon="10.366615062697369"><ele>1243.5</ele><time>2026-05-01T14:58:54.999Z</time></trkpt><trkpt lat="46.47271267191351" lon="10.366803497576027"><ele>1244.75</ele><time>2026-05-01T14:58:55.999Z</time></trkpt><trkpt lat="46.472629930179636" lon="10.367016163415853"><ele>1246.0</ele><time>2026-05-01T14:58:56.999Z</time></trkpt><trkpt lat="46.47256993157098" lon="10.367163158423976"><ele>1248.5</ele><time>2026-05-01T14:58:57.999Z</time></trkpt><trkpt lat="46.47250143899949" lon="10.367350340010312"><ele>1251.0</ele><time>2026-05-01T14:58:58.999Z</time></trkpt><trkpt lat="46.472439516240506" lon="10.367527048647368"><ele>1253.5</ele><time>2026-05-01T14:58:59.999Z</time></trkpt><trkpt lat="46.47238258946418" lon="10.367658898232527"><ele>1256.0</ele><time>2026-05-01T14:59:00.999Z</time></trkpt><trkpt lat="46.47233547485927" lon="10.367789829227805"><ele>1256.0</ele><time>2026-05-01T14:59:01.999Z</time></trkpt><trkpt lat="46.47231000613841" lon="10.367899095844574"><ele>1256.0</ele><time>2026-05-01T14:59:02.999Z</time></trkpt><trkpt lat="46.47230810131735" lon="10.368020342263373"><ele>1256.0</ele><time>2026-05-01T14:59:03.999Z</time></trkpt><trkpt lat="46.47234550242786" lon="10.368132249609458"><ele>1256.0</ele><time>2026-05-01T14:59:04.999Z</time></trkpt><trkpt lat="46.47242351648479" lon="10.368203869149454"><ele>1256.0</ele><time>2026-05-01T14:59:05.999Z</time></trkpt><trkpt lat="46.472524436188024" lon="10.368226729901576"><ele>1256.0</ele><time>2026-05-01T14:59:06.999Z</time></trkpt><trkpt lat="46.472620029469844" lon="10.368191714139567"><ele>1256.0</ele><time>2026-05-01T14:59:07.999Z</time></trkpt><trkpt lat="46.47271752085699" lon="10.368092618425928"><ele>1256.0</ele><time>2026-05-01T14:59:08.999Z</time></trkpt><trkpt lat="46.47280713875934" lon="10.367979946586274"><ele>1256.0</ele><time>2026-05-01T14:59:09.999Z</time></trkpt><trkpt lat="46.472900409299356" lon="10.36787343691852"><ele>1256.0</ele><time>2026-05-01T14:59:10.999Z</time></trkpt><trkpt lat="46.473001305558135" lon="10.367767006852722"><ele>1259.75</ele><time>2026-05-01T14:59:11.999Z</time></trkpt><trkpt lat="46.473122701225826" lon="10.367650722228587"><ele>1263.5</ele><time>2026-05-01T14:59:12.999Z</time></trkpt><trkpt lat="46.47324678064259" lon="10.367524898380998"><ele>1267.25</ele><time>2026-05-01T14:59:13.999Z</time></trkpt><trkpt lat="46.473374490686105" lon="10.367412874338765"><ele>1271.0</ele><time>2026-05-01T14:59:14.999Z</time></trkpt><trkpt lat="46.473500406838234" lon="10.367312409494245"><ele>1271.0</ele><time>2026-05-01T14:59:15.999Z</time></trkpt><trkpt lat="46.47364532164857" lon="10.36720121164249"><ele>1271.0</ele><time>2026-05-01T14:59:16.999Z</time></trkpt><trkpt lat="46.4738095301538" lon="10.367132334880946"><ele>1271.0</ele><time>2026-05-01T14:59:17.999Z</time></trkpt><trkpt lat="46.473961105916" lon="10.367053679530857"><ele>1271.0</ele><time>2026-05-01T14:59:18.999Z</time></trkpt><trkpt lat="46.474150959384474" lon="10.36699744809084"><ele>1271.0</ele><time>2026-05-01T14:59:19.999Z</time></trkpt><trkpt lat="46.47433901811582" lon="10.366954717218281"><ele>1271.0</ele><time>2026-05-01T14:59:20.999Z</time></trkpt><trkpt lat="46.47455012797698" lon="10.366937271717141"><ele>1272.0</ele><time>2026-05-01T14:59:21.999Z</time></trkpt><trkpt lat="46.47473992471997" lon="10.366930490814793"><ele>1273.0</ele><time>2026-05-01T14:59:22.999Z</time></trkpt><trkpt lat="46.47493689284861" lon="10.3669394645263"><ele>1274.0</ele><time>2026-05-01T14:59:23.999Z</time></trkpt><trkpt lat="46.475141408280315" lon="10.366972589334484"><ele>1274.0</ele><time>2026-05-01T14:59:24.999Z</time></trkpt><trkpt lat="46.47535885912637" lon="10.367021631863858"><ele>1274.0</ele><time>2026-05-01T14:59:25.999Z</time></trkpt><trkpt lat="46.47557880743954" lon="10.367055621908909"><ele>1274.0</ele><time>2026-05-01T14:59:26.999Z</time></trkpt><trkpt lat="46.475787705673476" lon="10.367093555613822"><ele>1276.5</ele><time>2026-05-01T14:59:27.999Z</time></trkpt><trkpt lat="46.47601043208286" lon="10.367130868825729"><ele>1279.0</ele><time>2026-05-01T14:59:28.999Z</time></trkpt><trkpt lat="46.47623818037468" lon="10.36717034403162"><ele>1284.5</ele><time>2026-05-01T14:59:29.999Z</time></trkpt><trkpt lat="46.47646697840292" lon="10.367204734595626"><ele>1290.0</ele><time>2026-05-01T14:59:30.999Z</time></trkpt><trkpt lat="46.47668780048924" lon="10.367241084264233"><ele>1290.0</ele><time>2026-05-01T14:59:31.999Z</time></trkpt><trkpt lat="46.47689910894172" lon="10.36727519302217"><ele>1290.0</ele><time>2026-05-01T14:59:32.999Z</time></trkpt><trkpt lat="46.477089932610575" lon="10.367307502141054"><ele>1290.0</ele><time>2026-05-01T14:59:33.999Z</time></trkpt><trkpt lat="46.47725527614754" lon="10.367333844356487"><ele>1290.8</ele><time>2026-05-01T14:59:34.999Z</time></trkpt><trkpt lat="46.47738865600895" lon="10.367351181268582"><ele>1291.6</ele><time>2026-05-01T14:59:35.999Z</time></trkpt><trkpt lat="46.477496726191056" lon="10.367368726545104"><ele>1292.4</ele><time>2026-05-01T14:59:36.999Z</time></trkpt><trkpt lat="46.477570875418934" lon="10.367384998655043"><ele>1293.2</ele><time>2026-05-01T14:59:37.999Z</time></trkpt><trkpt lat="46.47765528150015" lon="10.367443088076552"><ele>1294.0</ele><time>2026-05-01T14:59:39.999Z</time></trkpt><trkpt lat="46.47768857745802" lon="10.36756385000807"><ele>1294.0</ele><time>2026-05-01T14:59:41.999Z</time></trkpt><trkpt lat="46.47759694046638" lon="10.367617237591508"><ele>1294.0</ele><time>2026-05-01T14:59:43.999Z</time></trkpt><trkpt lat="46.47748156393323" lon="10.367650609721363"><ele>1294.0</ele><time>2026-05-01T14:59:45.999Z</time></trkpt><trkpt lat="46.477405624942016" lon="10.367672709549671"><ele>1294.0</ele><time>2026-05-01T14:59:46.999Z</time></trkpt><trkpt lat="46.47731899102171" lon="10.367705885986153"><ele>1294.0</ele><time>2026-05-01T14:59:47.998Z</time></trkpt><trkpt lat="46.477232790938054" lon="10.367732038276683"><ele>1294.0</ele><time>2026-05-01T14:59:48.998Z</time></trkpt><trkpt lat="46.47713815166011" lon="10.367804736530948"><ele>1294.0</ele><time>2026-05-01T14:59:49.998Z</time></trkpt><trkpt lat="46.47705321335743" lon="10.36785931886448"><ele>1294.0</ele><time>2026-05-01T14:59:50.998Z</time></trkpt><trkpt lat="46.4769650486514" lon="10.367912874445116"><ele>1294.0</ele><time>2026-05-01T14:59:51.998Z</time></trkpt><trkpt lat="46.47687220773137" lon="10.36797490362547"><ele>1294.0</ele><time>2026-05-01T14:59:52.998Z</time></trkpt><trkpt lat="46.47677659671167" lon="10.368044363569853"><ele>1295.4</ele><time>2026-05-01T14:59:53.998Z</time></trkpt><trkpt lat="46.47667417650463" lon="10.368119710717941"><ele>1296.8000000000002</ele><time>2026-05-01T14:59:54.998Z</time></trkpt><trkpt lat="46.476576923383575" lon="10.368186568904012"><ele>1298.1999999999998</ele><time>2026-05-01T14:59:55.998Z</time></trkpt><trkpt lat="46.47648044772491" lon="10.368256464493152"><ele>1299.6</ele><time>2026-05-01T14:59:56.998Z</time></trkpt><trkpt lat="46.476395509488476" lon="10.368318107374616"><ele>1301.0</ele><time>2026-05-01T14:59:58Z</time></trkpt><trkpt lat="46.476329073393764" lon="10.368370140999868"><ele>1301.0</ele><time>2026-05-01T14:59:59Z</time></trkpt><trkpt lat="46.47627973453236" lon="10.36843645621828"><ele>1301.0</ele><time>2026-05-01T15:00:00Z</time></trkpt><trkpt lat="46.47626855375429" lon="10.368529022836315"><ele>1301.0</ele><time>2026-05-01T15:00:01Z</time></trkpt><trkpt lat="46.476297030948984" lon="10.36861736124841"><ele>1301.0</ele><time>2026-05-01T15:00:02Z</time></trkpt><trkpt lat="46.47635314658645" lon="10.368679512753102"><ele>1301.0</ele><time>2026-05-01T15:00:03Z</time></trkpt><trkpt lat="46.476433936737976" lon="10.368698773190529"><ele>1301.0</ele><time>2026-05-01T15:00:04Z</time></trkpt><trkpt lat="46.476526370250674" lon="10.368679379761472"><ele>1301.0</ele><time>2026-05-01T15:00:05Z</time></trkpt><trkpt lat="46.476621824598965" lon="10.36866506695498"><ele>1301.0</ele><time>2026-05-01T15:00:06Z</time></trkpt><trkpt lat="46.476726626927025" lon="10.368677141753315"><ele>1301.0</ele><time>2026-05-01T15:00:07Z</time></trkpt><trkpt lat="46.47683888481845" lon="10.368702643776203"><ele>1301.0</ele><time>2026-05-01T15:00:08Z</time></trkpt><trkpt lat="46.4769623631329" lon="10.368741906333744"><ele>1301.0</ele><time>2026-05-01T15:00:09Z</time></trkpt><trkpt lat="46.477092615940116" lon="10.368782232315406"><ele>1302.5</ele><time>2026-05-01T15:00:10Z</time></trkpt><trkpt lat="46.47721739687005" lon="10.368814621078295"><ele>1304.0</ele><time>2026-05-01T15:00:11Z</time></trkpt><trkpt lat="46.47734460607955" lon="10.36886554807426"><ele>1305.5</ele><time>2026-05-01T15:00:12Z</time></trkpt><trkpt lat="46.477480826561646" lon="10.368905015358855"><ele>1307.0</ele><time>2026-05-01T15:00:13Z</time></trkpt><trkpt lat="46.47761119350447" lon="10.36894418841143"><ele>1309.8</ele><time>2026-05-01T15:00:14Z</time></trkpt><trkpt lat="46.4777213811834" lon="10.369000005424489"><ele>1312.6</ele><time>2026-05-01T15:00:15Z</time></trkpt><trkpt lat="46.47780460355454" lon="10.369085624580991"><ele>1315.3999999999999</ele><time>2026-05-01T15:00:16Z</time></trkpt><trkpt lat="46.477852208912985" lon="10.369215440358133"><ele>1318.1999999999998</ele><time>2026-05-01T15:00:17Z</time></trkpt><trkpt lat="46.47790069171478" lon="10.369377708968383"><ele>1321.0</ele><time>2026-05-01T15:00:18Z</time></trkpt><trkpt lat="46.47797633656432" lon="10.369500794971007"><ele>1322.25</ele><time>2026-05-01T15:00:19Z</time></trkpt><trkpt lat="46.478089052581105" lon="10.369584359384296"><ele>1323.5</ele><time>2026-05-01T15:00:20Z</time></trkpt><trkpt lat="46.47822701170364" lon="10.36960906145892"><ele>1324.75</ele><time>2026-05-01T15:00:21Z</time></trkpt><trkpt lat="46.47836177111151" lon="10.369577054632195"><ele>1326.0</ele><time>2026-05-01T15:00:22Z</time></trkpt><trkpt lat="46.478491819920684" lon="10.369494867943805"><ele>1326.0</ele><time>2026-05-01T15:00:23Z</time></trkpt><trkpt lat="46.47862368254086" lon="10.369397228452337"><ele>1326.0</ele><time>2026-05-01T15:00:24Z</time></trkpt><trkpt lat="46.47875278060757" lon="10.369298317976844"><ele>1326.0</ele><time>2026-05-01T15:00:25Z</time></trkpt><trkpt lat="46.47888560618602" lon="10.369194021890696"><ele>1326.0</ele><time>2026-05-01T15:00:26Z</time></trkpt><trkpt lat="46.47901762626221" lon="10.369091481719533"><ele>1321.6666666666667</ele><time>2026-05-01T15:00:27Z</time></trkpt><trkpt lat="46.479173304112344" lon="10.36897637210014"><ele>1317.3333333333335</ele><time>2026-05-01T15:00:28Z</time></trkpt><trkpt lat="46.479353292881996" lon="10.368865903186368"><ele>1313.0</ele><time>2026-05-01T15:00:29Z</time></trkpt><trkpt lat="46.47953093101488" lon="10.368733424604594"><ele>1318.2</ele><time>2026-05-01T15:00:30Z</time></trkpt><trkpt lat="46.47960960383173" lon="10.36866585877176"><ele>1323.4</ele><time>2026-05-01T15:00:31Z</time></trkpt><trkpt lat="46.47972705377965" lon="10.368560882337434"><ele>1328.6000000000001</ele><time>2026-05-01T15:00:32Z</time></trkpt><trkpt lat="46.479793133806105" lon="10.36849918036075"><ele>1333.8000000000002</ele><time>2026-05-01T15:00:33Z</time></trkpt><trkpt lat="46.47988664751719" lon="10.368450196133676"><ele>1339.0</ele><time>2026-05-01T15:00:34Z</time></trkpt><trkpt lat="46.48005758824311" lon="10.368473844640564"><ele>1339.0</ele><time>2026-05-01T15:00:35Z</time></trkpt><trkpt lat="46.4802977337463" lon="10.368439460186645"><ele>1339.0</ele><time>2026-05-01T15:00:36Z</time></trkpt><trkpt lat="46.480480948056766" lon="10.368431585169187"><ele>1339.0</ele><time>2026-05-01T15:00:37Z</time></trkpt><trkpt lat="46.48065305599808" lon="10.368403482497698"><ele>1343.0</ele><time>2026-05-01T15:00:38Z</time></trkpt><trkpt lat="46.4808106230355" lon="10.368362338792998"><ele>1347.0</ele><time>2026-05-01T15:00:39Z</time></trkpt><trkpt lat="46.4809691479103" lon="10.368376768492205"><ele>1351.0</ele><time>2026-05-01T15:00:40Z</time></trkpt><trkpt lat="46.48117740529338" lon="10.36842417910031"><ele>1352.5</ele><time>2026-05-01T15:00:41Z</time></trkpt><trkpt lat="46.4813842223" lon="10.368487321296774"><ele>1354.0</ele><time>2026-05-01T15:00:42Z</time></trkpt><trkpt lat="46.48152419323617" lon="10.368494741790474"><ele>1355.5</ele><time>2026-05-01T15:00:43Z</time></trkpt><trkpt lat="46.48161565881562" lon="10.368499128928294"><ele>1357.0</ele><time>2026-05-01T15:00:44Z</time></trkpt><trkpt lat="46.481736774676264" lon="10.368434008314905"><ele>1357.0</ele><time>2026-05-01T15:00:45Z</time></trkpt><trkpt lat="46.4818835138386" lon="10.368321751311532"><ele>1357.0</ele><time>2026-05-01T15:00:46Z</time></trkpt><trkpt lat="46.48198172253442" lon="10.368302036603946"><ele>1357.0</ele><time>2026-05-01T15:00:47Z</time></trkpt><trkpt lat="46.48207233661116" lon="10.3682454819713"><ele>1357.0</ele><time>2026-05-01T15:00:47.999Z</time></trkpt><trkpt lat="46.48216885781903" lon="10.368163461504182"><ele>1359.3333333333333</ele><time>2026-05-01T15:00:48.999Z</time></trkpt><trkpt lat="46.48227945950648" lon="10.368051834149195"><ele>1361.6666666666667</ele><time>2026-05-01T15:00:49.999Z</time></trkpt><trkpt lat="46.482389667163474" lon="10.36778076139421"><ele>1364.0</ele><time>2026-05-01T15:00:50.999Z</time></trkpt><trkpt lat="46.48247979947339" lon="10.367485686858672"><ele>1364.0</ele><time>2026-05-01T15:00:51.999Z</time></trkpt><trkpt lat="46.48259027968149" lon="10.367267164210363"><ele>1364.0</ele><time>2026-05-01T15:00:52.999Z</time></trkpt><trkpt lat="46.48270728153256" lon="10.367140908869889"><ele>1364.0</ele><time>2026-05-01T15:00:53.999Z</time></trkpt><trkpt lat="46.48274579718268" lon="10.366942850326074"><ele>1367.5</ele><time>2026-05-01T15:00:54.999Z</time></trkpt><trkpt lat="46.4828932797565" lon="10.36698835236653"><ele>1371.0</ele><time>2026-05-01T15:00:56.999Z</time></trkpt><trkpt lat="46.48297788804914" lon="10.366911590451346"><ele>1374.5</ele><time>2026-05-01T15:00:57.999Z</time></trkpt><trkpt lat="46.48307804005541" lon="10.366826459543542"><ele>1378.0</ele><time>2026-05-01T15:00:58.999Z</time></trkpt><trkpt lat="46.48318697649355" lon="10.366757758268937"><ele>1378.0</ele><time>2026-05-01T15:00:59.999Z</time></trkpt><trkpt lat="46.48331248303926" lon="10.36670344510914"><ele>1378.0</ele><time>2026-05-01T15:01:00.999Z</time></trkpt><trkpt lat="46.48343912629679" lon="10.366655447184886"><ele>1378.0</ele><time>2026-05-01T15:01:01.999Z</time></trkpt><trkpt lat="46.48356910028307" lon="10.366596107158209"><ele>1378.0</ele><time>2026-05-01T15:01:02.999Z</time></trkpt><trkpt lat="46.48370153652681" lon="10.366528982840139"><ele>1379.5</ele><time>2026-05-01T15:01:03.999Z</time></trkpt><trkpt lat="46.483806514069215" lon="10.366421216072958"><ele>1381.0</ele><time>2026-05-01T15:01:04.999Z</time></trkpt><trkpt lat="46.48389520966059" lon="10.366264666906746"><ele>1382.5</ele><time>2026-05-01T15:01:05.999Z</time></trkpt><trkpt lat="46.48396714260249" lon="10.3660763462212"><ele>1384.0</ele><time>2026-05-01T15:01:06.999Z</time></trkpt><trkpt lat="46.48403596734172" lon="10.365899447214762"><ele>1384.0</ele><time>2026-05-01T15:01:07.999Z</time></trkpt><trkpt lat="46.48409515759257" lon="10.36575475748147"><ele>1384.0</ele><time>2026-05-01T15:01:08.999Z</time></trkpt><trkpt lat="46.484186182403676" lon="10.365631532771175"><ele>1384.0</ele><time>2026-05-01T15:01:09.999Z</time></trkpt><trkpt lat="46.48430619581602" lon="10.365600883437708"><ele>1384.0</ele><time>2026-05-01T15:01:10.999Z</time></trkpt><trkpt lat="46.48442781351475" lon="10.365611795523764"><ele>1384.0</ele><time>2026-05-01T15:01:11.999Z</time></trkpt><trkpt lat="46.48455464662056" lon="10.365651439722026"><ele>1384.0</ele><time>2026-05-01T15:01:12.999Z</time></trkpt><trkpt lat="46.4846953791321" lon="10.365692275834821"><ele>1384.0</ele><time>2026-05-01T15:01:13.999Z</time></trkpt><trkpt lat="46.48482948360899" lon="10.365731188724183"><ele>1384.0</ele><time>2026-05-01T15:01:14.999Z</time></trkpt><trkpt lat="46.484946106759324" lon="10.365765029104088"><ele>1385.3333333333333</ele><time>2026-05-01T15:01:15.999Z</time></trkpt><trkpt lat="46.48504716657476" lon="10.365785080038917"><ele>1386.6666666666665</ele><time>2026-05-01T15:01:16.999Z</time></trkpt><trkpt lat="46.48513522186801" lon="10.365809918335957"><ele>1388.0</ele><time>2026-05-01T15:01:17.999Z</time></trkpt><trkpt lat="46.485217032359934" lon="10.365835854029509"><ele>1389.3333333333333</ele><time>2026-05-01T15:01:18.999Z</time></trkpt><trkpt lat="46.48526454706525" lon="10.365902421443593"><ele>1390.6666666666667</ele><time>2026-05-01T15:01:19.999Z</time></trkpt><trkpt lat="46.48532462920552" lon="10.365948650201961"><ele>1392.0</ele><time>2026-05-01T15:01:20.999Z</time></trkpt><trkpt lat="46.48538749236799" lon="10.366004869489108"><ele>1393.1666666666667</ele><time>2026-05-01T15:01:21.999Z</time></trkpt><trkpt lat="46.48545096251656" lon="10.366057171787986"><ele>1394.3333333333333</ele><time>2026-05-01T15:01:22.999Z</time></trkpt><trkpt lat="46.48552071223476" lon="10.366116864872701"><ele>1395.5</ele><time>2026-05-01T15:01:23.999Z</time></trkpt><trkpt lat="46.485583885705964" lon="10.36617187397559"><ele>1396.6666666666665</ele><time>2026-05-01T15:01:24.999Z</time></trkpt><trkpt lat="46.48565811354567" lon="10.366237481260042"><ele>1397.8333333333333</ele><time>2026-05-01T15:01:25.999Z</time></trkpt><trkpt lat="46.48572988566497" lon="10.36629668473241"><ele>1399.0</ele><time>2026-05-01T15:01:26.999Z</time></trkpt><trkpt lat="46.48580479993071" lon="10.366355924728575"><ele>1399.0</ele><time>2026-05-01T15:01:27.999Z</time></trkpt><trkpt lat="46.48588849595393" lon="10.366384020548335"><ele>1399.0</ele><time>2026-05-01T15:01:28.999Z</time></trkpt><trkpt lat="46.48597910000686" lon="10.366364650205462"><ele>1399.0</ele><time>2026-05-01T15:01:29.999Z</time></trkpt><trkpt lat="46.486064753982795" lon="10.366290061727454"><ele>1399.0</ele><time>2026-05-01T15:01:30.999Z</time></trkpt><trkpt lat="46.48615383209206" lon="10.366194992595757"><ele>1399.0</ele><time>2026-05-01T15:01:31.999Z</time></trkpt><trkpt lat="46.48624367799707" lon="10.36609537111635"><ele>1401.5</ele><time>2026-05-01T15:01:32.999Z</time></trkpt><trkpt lat="46.48633401988758" lon="10.366018558670941"><ele>1404.0</ele><time>2026-05-01T15:01:33.999Z</time></trkpt><trkpt lat="46.486444527569645" lon="10.365914458542266"><ele>1406.5</ele><time>2026-05-01T15:01:34.999Z</time></trkpt><trkpt lat="46.486590711090656" lon="10.365795099009139"><ele>1409.0</ele><time>2026-05-01T15:01:35.999Z</time></trkpt><trkpt lat="46.48673145961454" lon="10.365667830203005"><ele>1410.75</ele><time>2026-05-01T15:01:36.999Z</time></trkpt><trkpt lat="46.48686970612136" lon="10.365522953036795"><ele>1412.5</ele><time>2026-05-01T15:01:38.999Z</time></trkpt><trkpt lat="46.48698403091614" lon="10.365425424629125"><ele>1414.25</ele><time>2026-05-01T15:01:39.999Z</time></trkpt><trkpt lat="46.487103868401235" lon="10.365325691499203"><ele>1416.0</ele><time>2026-05-01T15:01:40.999Z</time></trkpt><trkpt lat="46.48723056270992" lon="10.365227765571362"><ele>1416.0</ele><time>2026-05-01T15:01:41.999Z</time></trkpt><trkpt lat="46.48736363779088" lon="10.365137626870364"><ele>1416.0</ele><time>2026-05-01T15:01:42.999Z</time></trkpt><trkpt lat="46.48748781778857" lon="10.365065721502784"><ele>1416.0</ele><time>2026-05-01T15:01:43.999Z</time></trkpt><trkpt lat="46.487599805950175" lon="10.365000781099916"><ele>1416.0</ele><time>2026-05-01T15:01:44.999Z</time></trkpt><trkpt lat="46.487703602841606" lon="10.364932848292964"><ele>1416.0</ele><time>2026-05-01T15:01:45.999Z</time></trkpt><trkpt lat="46.48780687066209" lon="10.36485592651257"><ele>1416.0</ele><time>2026-05-01T15:01:46.999Z</time></trkpt><trkpt lat="46.48791766801619" lon="10.364791771593024"><ele>1416.0</ele><time>2026-05-01T15:01:47.999Z</time></trkpt><trkpt lat="46.48802676735864" lon="10.364730103645284"><ele>1416.0</ele><time>2026-05-01T15:01:48.999Z</time></trkpt><trkpt lat="46.48814107660238" lon="10.364696583563942"><ele>1420.5</ele><time>2026-05-01T15:01:49.999Z</time></trkpt><trkpt lat="46.488265349922905" lon="10.364707733064192"><ele>1425.0</ele><time>2026-05-01T15:01:50.999Z</time></trkpt><trkpt lat="46.4883940047625" lon="10.36472954363386"><ele>1429.5</ele><time>2026-05-01T15:01:51.999Z</time></trkpt><trkpt lat="46.48851889153629" lon="10.364753315757298"><ele>1434.0</ele><time>2026-05-01T15:01:52.999Z</time></trkpt><trkpt lat="46.48863943739067" lon="10.364770581513667"><ele>1434.0</ele><time>2026-05-01T15:01:53.999Z</time></trkpt><trkpt lat="46.48875823319274" lon="10.364771440391534"><ele>1434.0</ele><time>2026-05-01T15:01:54.999Z</time></trkpt><trkpt lat="46.488884632633464" lon="10.364720775801734"><ele>1434.0</ele><time>2026-05-01T15:01:55.999Z</time></trkpt><trkpt lat="46.48901821002595" lon="10.364658953525721"><ele>1434.0</ele><time>2026-05-01T15:01:56.999Z</time></trkpt><trkpt lat="46.48915634370167" lon="10.364586312187429"><ele>1434.0</ele><time>2026-05-01T15:01:57.999Z</time></trkpt><trkpt lat="46.48930047937897" lon="10.36453810494526"><ele>1434.0</ele><time>2026-05-01T15:01:58.999Z</time></trkpt><trkpt lat="46.489449931828595" lon="10.36450000756796"><ele>1434.0</ele><time>2026-05-01T15:01:59.999Z</time></trkpt><trkpt lat="46.48959884399513" lon="10.364472919881125"><ele>1434.0</ele><time>2026-05-01T15:02:00.999Z</time></trkpt><trkpt lat="46.489749298019106" lon="10.36445492538205"><ele>1434.0</ele><time>2026-05-01T15:02:01.999Z</time></trkpt><trkpt lat="46.489894669185205" lon="10.36442449699041"><ele>1434.0</ele><time>2026-05-01T15:02:02.999Z</time></trkpt><trkpt lat="46.49002375074018" lon="10.364382736647624"><ele>1434.0</ele><time>2026-05-01T15:02:04Z</time></trkpt><trkpt lat="46.490141343741854" lon="10.36434381823813"><ele>1434.0</ele><time>2026-05-01T15:02:05Z</time></trkpt><trkpt lat="46.490246400722256" lon="10.364304691598159"><ele>1434.0</ele><time>2026-05-01T15:02:06Z</time></trkpt><trkpt lat="46.490336872010744" lon="10.364262496887298"><ele>1434.0</ele><time>2026-05-01T15:02:07Z</time></trkpt><trkpt lat="46.49042190081665" lon="10.364224441829712"><ele>1434.0</ele><time>2026-05-01T15:02:08Z</time></trkpt><trkpt lat="46.49051372649682" lon="10.36418870569629"><ele>1434.0</ele><time>2026-05-01T15:02:09Z</time></trkpt><trkpt lat="46.49061045642345" lon="10.364156241396234"><ele>1433.6</ele><time>2026-05-01T15:02:10Z</time></trkpt><trkpt lat="46.49070472049207" lon="10.364123458224162"><ele>1433.2</ele><time>2026-05-01T15:02:11Z</time></trkpt><trkpt lat="46.49079172364681" lon="10.364071986939782"><ele>1432.8</ele><time>2026-05-01T15:02:12Z</time></trkpt><trkpt lat="46.49087040199324" lon="10.36399989392908"><ele>1432.3999999999999</ele><time>2026-05-01T15:02:13Z</time></trkpt><trkpt lat="46.49093687427656" lon="10.363904930009298"><ele>1432.0</ele><time>2026-05-01T15:02:14Z</time></trkpt><trkpt lat="46.49100323433402" lon="10.363795245124527"><ele>1432.0</ele><time>2026-05-01T15:02:15Z</time></trkpt><trkpt lat="46.491073845722006" lon="10.363683603471285"><ele>1432.0</ele><time>2026-05-01T15:02:16Z</time></trkpt><trkpt lat="46.491147423970105" lon="10.363565990185393"><ele>1432.0</ele><time>2026-05-01T15:02:17Z</time></trkpt><trkpt lat="46.49122626352044" lon="10.363464614525213"><ele>1432.0</ele><time>2026-05-01T15:02:18Z</time></trkpt><trkpt lat="46.491300469209285" lon="10.363326601570753"><ele>1432.0</ele><time>2026-05-01T15:02:19Z</time></trkpt><trkpt lat="46.49137498049816" lon="10.363210764534868"><ele>1436.0</ele><time>2026-05-01T15:02:20Z</time></trkpt><trkpt lat="46.49144559031786" lon="10.363090628001947"><ele>1440.0</ele><time>2026-05-01T15:02:21Z</time></trkpt><trkpt lat="46.491520980994494" lon="10.362972263837921"><ele>1444.0</ele><time>2026-05-01T15:02:22.014Z</time></trkpt><trkpt lat="46.49159402049428" lon="10.362859364746775"><ele>1448.0</ele><time>2026-05-01T15:02:23.016Z</time></trkpt><trkpt lat="46.49165587193382" lon="10.36275111108768"><ele>1452.0</ele><time>2026-05-01T15:02:24Z</time></trkpt><trkpt lat="46.49154990713258" lon="10.362856462248557"><ele>1452.0</ele><time>2026-05-01T15:02:25Z</time></trkpt><trkpt lat="46.49160165390943" lon="10.362767421349865"><ele>1452.0</ele><time>2026-05-01T15:02:27Z</time></trkpt><trkpt lat="46.4916336759122" lon="10.362660471178124"><ele>1452.0</ele><time>2026-05-01T15:02:29Z</time></trkpt><trkpt lat="46.49166460335589" lon="10.362569433126376"><ele>1452.0</ele><time>2026-05-01T15:02:31Z</time></trkpt><trkpt lat="46.4916781934987" lon="10.362475882575781"><ele>1452.0</ele><time>2026-05-01T15:02:34Z</time></trkpt><trkpt lat="46.49171252140468" lon="10.362352467983841"><ele>1452.0</ele><time>2026-05-01T15:02:37Z</time></trkpt><trkpt lat="46.49171952948883" lon="10.362259080585204"><ele>1448.8333333333333</ele><time>2026-05-01T15:02:39Z</time></trkpt><trkpt lat="46.491744105691566" lon="10.362160958434051"><ele>1445.6666666666667</ele><time>2026-05-01T15:02:41Z</time></trkpt><trkpt lat="46.49175565615477" lon="10.362068039672808"><ele>1442.5</ele><time>2026-05-01T15:02:43Z</time></trkpt><trkpt lat="46.49178797223853" lon="10.361950964936343"><ele>1439.3333333333335</ele><time>2026-05-01T15:02:47Z</time></trkpt><trkpt lat="46.491819643678696" lon="10.361838665855517"><ele>1436.1666666666667</ele><time>2026-05-01T15:02:50Z</time></trkpt><trkpt lat="46.491875349583026" lon="10.361772441271885"><ele>1433.0</ele><time>2026-05-01T15:02:55Z</time></trkpt><trkpt lat="46.4919522567181" lon="10.36176110308106"><ele>1433.0</ele><time>2026-05-01T15:02:59Z</time></trkpt><trkpt lat="46.49203495833027" lon="10.361809258509746"><ele>1433.0</ele><time>2026-05-01T15:03:02Z</time></trkpt><trkpt lat="46.49210671716117" lon="10.361809610001288"><ele>1433.0</ele><time>2026-05-01T15:03:05Z</time></trkpt><trkpt lat="46.492209319109854" lon="10.361843606424694"><ele>1433.0</ele><time>2026-05-01T15:03:08Z</time></trkpt><trkpt lat="46.492279558021195" lon="10.361885263804153"><ele>1433.0</ele><time>2026-05-01T15:03:11Z</time></trkpt><trkpt lat="46.492333937800915" lon="10.361824443591539"><ele>1433.0</ele><time>2026-05-01T15:03:12Z</time></trkpt><trkpt lat="46.492386024409136" lon="10.361735387777491"><ele>1463.0</ele><time>2026-05-01T15:03:14Z</time></trkpt><trkpt lat="46.492419857784064" lon="10.361657506252362"><ele>1463.0</ele><time>2026-05-01T15:03:16Z</time></trkpt><trkpt lat="46.49246515013169" lon="10.361570061412742"><ele>1463.0</ele><time>2026-05-01T15:03:18.999Z</time></trkpt><trkpt lat="46.49250905552006" lon="10.361473759797308"><ele>1463.0</ele><time>2026-05-01T15:04:55Z</time></trkpt></trkseg></trk></gpx>